<?xml version='1.0' encoding='UTF-8'?><gpx version="1.1" creator="JPX - https://github.com/jenetics/jpx" xmlns="http://www.topografix.com/GPX/1/1"><trk><trkseg><trkpt lat="42.1501708" lon="14.5850252"><ele>197.0</ele><time>2026-04-25T06:32:40.874Z</time></trkpt><trkpt lat="42.1497503" lon="14.58468"><ele>197.0</ele><time>2026-04-25T06:32:42.953Z</time></trkpt><trkpt lat="42.149661" lon="14.5846157"><ele>197.0</ele><time>2026-04-25T06:32:43.953Z</time></trkpt><trkpt lat="42.1497301" lon="14.5847194"><ele>197.0</ele><time>2026-04-25T06:32:46.454Z</time></trkpt><trkpt lat="42.1497859" lon="14.584896"><ele>197.0</ele><time>2026-04-25T06:32:48.453Z</time></trkpt><trkpt lat="42.1498419" lon="14.5849954"><ele>197.0</ele><time>2026-04-25T06:32:49.454Z</time></trkpt><trkpt lat="42.1499054" lon="14.5850206"><ele>199.0</ele><time>2026-04-25T06:32:53.454Z</time></trkpt><trkpt lat="42.1501241" lon="14.5850664"><ele>201.0</ele><time>2026-04-25T06:32:57.454Z</time></trkpt><trkpt lat="42.1501819" lon="14.58512"><ele>203.0</ele><time>2026-04-25T06:32:59.884Z</time></trkpt><trkpt lat="42.1502741" lon="14.5851665"><ele>205.0</ele><time>2026-04-25T06:33:58.883Z</time></trkpt><trkpt lat="42.1503537" lon="14.5851349"><ele>205.0</ele><time>2026-04-25T06:34:02.883Z</time></trkpt><trkpt lat="42.1504167" lon="14.5851217"><ele>205.0</ele><time>2026-04-25T06:34:05.884Z</time></trkpt><trkpt lat="42.1504983" lon="14.5850833"><ele>205.0</ele><time>2026-04-25T06:34:08.884Z</time></trkpt><trkpt lat="42.1505617" lon="14.5850667"><ele>205.0</ele><time>2026-04-25T06:34:10.884Z</time></trkpt><trkpt lat="42.1506317" lon="14.58505"><ele>205.0</ele><time>2026-04-25T06:34:12.884Z</time></trkpt><trkpt lat="42.1507067" lon="14.5850617"><ele>205.0</ele><time>2026-04-25T06:34:14.884Z</time></trkpt><trkpt lat="42.15077" lon="14.5850833"><ele>205.0</ele><time>2026-04-25T06:34:16.883Z</time></trkpt><trkpt lat="42.1508617" lon="14.5851017"><ele>205.2</ele><time>2026-04-25T06:34:19.884Z</time></trkpt><trkpt lat="42.150925" lon="14.5850967"><ele>205.4</ele><time>2026-04-25T06:34:22.884Z</time></trkpt><trkpt lat="42.1510083" lon="14.5851067"><ele>205.60000000000002</ele><time>2026-04-25T06:34:24.883Z</time></trkpt><trkpt lat="42.1511017" lon="14.58513"><ele>205.8</ele><time>2026-04-25T06:34:26.883Z</time></trkpt><trkpt lat="42.1512133" lon="14.58511"><ele>206.0</ele><time>2026-04-25T06:34:28.883Z</time></trkpt><trkpt lat="42.1513683" lon="14.5850717"><ele>206.0</ele><time>2026-04-25T06:34:30.883Z</time></trkpt><trkpt lat="42.151485" lon="14.5850317"><ele>206.0</ele><time>2026-04-25T06:34:32.884Z</time></trkpt><trkpt lat="42.1515833" lon="14.5849533"><ele>206.0</ele><time>2026-04-25T06:34:34.884Z</time></trkpt><trkpt lat="42.1516583" lon="14.58479"><ele>206.0</ele><time>2026-04-25T06:34:36.884Z</time></trkpt><trkpt lat="42.151715" lon="14.584665"><ele>205.00000000000003</ele><time>2026-04-25T06:34:37.884Z</time></trkpt><trkpt lat="42.15174" lon="14.5845867"><ele>204.0</ele><time>2026-04-25T06:34:38.884Z</time></trkpt><trkpt lat="42.15176" lon="14.5844867"><ele>203.0</ele><time>2026-04-25T06:34:39.883Z</time></trkpt><trkpt lat="42.1517683" lon="14.5843883"><ele>202.0</ele><time>2026-04-25T06:34:40.883Z</time></trkpt><trkpt lat="42.1517717" lon="14.5842583"><ele>201.00000000000003</ele><time>2026-04-25T06:34:41.884Z</time></trkpt><trkpt lat="42.1517917" lon="14.584125"><ele>200.0</ele><time>2026-04-25T06:34:42.883Z</time></trkpt><trkpt lat="42.1518133" lon="14.584"><ele>199.66666666666669</ele><time>2026-04-25T06:34:43.884Z</time></trkpt><trkpt lat="42.1518517" lon="14.5838717"><ele>199.33333333333334</ele><time>2026-04-25T06:34:44.884Z</time></trkpt><trkpt lat="42.151875" lon="14.5837767"><ele>199.0</ele><time>2026-04-25T06:34:45.883Z</time></trkpt><trkpt lat="42.1518967" lon="14.583685"><ele>198.66666666666669</ele><time>2026-04-25T06:34:46.884Z</time></trkpt><trkpt lat="42.1518983" lon="14.5835917"><ele>198.33333333333334</ele><time>2026-04-25T06:34:47.884Z</time></trkpt><trkpt lat="42.1518883" lon="14.5835"><ele>198.0</ele><time>2026-04-25T06:34:48.884Z</time></trkpt><trkpt lat="42.15187" lon="14.5834067"><ele>197.0</ele><time>2026-04-25T06:34:49.884Z</time></trkpt><trkpt lat="42.1518617" lon="14.58331"><ele>196.0</ele><time>2026-04-25T06:34:50.884Z</time></trkpt><trkpt lat="42.151875" lon="14.5832217"><ele>195.0</ele><time>2026-04-25T06:34:51.884Z</time></trkpt><trkpt lat="42.1518967" lon="14.58314"><ele>194.0</ele><time>2026-04-25T06:34:52.884Z</time></trkpt><trkpt lat="42.1519633" lon="14.5830233"><ele>193.0</ele><time>2026-04-25T06:34:54.884Z</time></trkpt><trkpt lat="42.1520483" lon="14.5829883"><ele>192.0</ele><time>2026-04-25T06:34:56.884Z</time></trkpt><trkpt lat="42.1521283" lon="14.5830767"><ele>192.0</ele><time>2026-04-25T06:34:58.884Z</time></trkpt><trkpt lat="42.152175" lon="14.583135"><ele>192.0</ele><time>2026-04-25T06:34:59.883Z</time></trkpt><trkpt lat="42.1522233" lon="14.5831917"><ele>192.0</ele><time>2026-04-25T06:35:00.884Z</time></trkpt><trkpt lat="42.15231" lon="14.5833183"><ele>192.0</ele><time>2026-04-25T06:35:02.883Z</time></trkpt><trkpt lat="42.1523583" lon="14.5833867"><ele>192.0</ele><time>2026-04-25T06:35:03.883Z</time></trkpt><trkpt lat="42.152405" lon="14.5834533"><ele>192.0</ele><time>2026-04-25T06:35:04.884Z</time></trkpt><trkpt lat="42.15245" lon="14.5835317"><ele>190.66666666666666</ele><time>2026-04-25T06:35:05.883Z</time></trkpt><trkpt lat="42.1525083" lon="14.5836083"><ele>189.33333333333334</ele><time>2026-04-25T06:35:06.884Z</time></trkpt><trkpt lat="42.1525667" lon="14.583685"><ele>188.0</ele><time>2026-04-25T06:35:07.884Z</time></trkpt><trkpt lat="42.1526267" lon="14.583765"><ele>186.66666666666669</ele><time>2026-04-25T06:35:08.884Z</time></trkpt><trkpt lat="42.15269" lon="14.5838333"><ele>185.33333333333334</ele><time>2026-04-25T06:35:09.884Z</time></trkpt><trkpt lat="42.15275" lon="14.5839017"><ele>184.0</ele><time>2026-04-25T06:35:10.884Z</time></trkpt><trkpt lat="42.15281" lon="14.5839783"><ele>184.0</ele><time>2026-04-25T06:35:11.884Z</time></trkpt><trkpt lat="42.15287" lon="14.5840583"><ele>184.0</ele><time>2026-04-25T06:35:12.883Z</time></trkpt><trkpt lat="42.1529317" lon="14.5841367"><ele>184.0</ele><time>2026-04-25T06:35:13.884Z</time></trkpt><trkpt lat="42.1529917" lon="14.5842217"><ele>184.0</ele><time>2026-04-25T06:35:14.884Z</time></trkpt><trkpt lat="42.1530567" lon="14.584305"><ele>184.0</ele><time>2026-04-25T06:35:15.884Z</time></trkpt><trkpt lat="42.15312" lon="14.584395"><ele>184.0</ele><time>2026-04-25T06:35:16.884Z</time></trkpt><trkpt lat="42.1531733" lon="14.58449"><ele>182.83333333333334</ele><time>2026-04-25T06:35:17.884Z</time></trkpt><trkpt lat="42.1532167" lon="14.58459"><ele>181.66666666666669</ele><time>2026-04-25T06:35:18.884Z</time></trkpt><trkpt lat="42.1532483" lon="14.5846833"><ele>180.5</ele><time>2026-04-25T06:35:19.884Z</time></trkpt><trkpt lat="42.153275" lon="14.5847833"><ele>179.33333333333334</ele><time>2026-04-25T06:35:20.884Z</time></trkpt><trkpt lat="42.153295" lon="14.58488"><ele>178.16666666666666</ele><time>2026-04-25T06:35:21.884Z</time></trkpt><trkpt lat="42.153315" lon="14.5849733"><ele>177.0</ele><time>2026-04-25T06:35:22.884Z</time></trkpt><trkpt lat="42.1533417" lon="14.585135"><ele>177.0</ele><time>2026-04-25T06:35:24.884Z</time></trkpt><trkpt lat="42.153365" lon="14.5852467"><ele>177.0</ele><time>2026-04-25T06:35:26.884Z</time></trkpt><trkpt lat="42.1534367" lon="14.5852917"><ele>177.0</ele><time>2026-04-25T06:35:29.883Z</time></trkpt><trkpt lat="42.153535" lon="14.5852833"><ele>177.0</ele><time>2026-04-25T06:35:31.883Z</time></trkpt><trkpt lat="42.1536567" lon="14.5852583"><ele>177.0</ele><time>2026-04-25T06:35:33.883Z</time></trkpt><trkpt lat="42.15372" lon="14.5852483"><ele>177.0</ele><time>2026-04-25T06:35:34.884Z</time></trkpt><trkpt lat="42.15379" lon="14.5852433"><ele>177.0</ele><time>2026-04-25T06:35:35.884Z</time></trkpt><trkpt lat="42.1538617" lon="14.5852383"><ele>177.0</ele><time>2026-04-25T06:35:36.884Z</time></trkpt><trkpt lat="42.1539333" lon="14.585235"><ele>177.0</ele><time>2026-04-25T06:35:37.884Z</time></trkpt><trkpt lat="42.1540033" lon="14.5852317"><ele>177.0</ele><time>2026-04-25T06:35:38.884Z</time></trkpt><trkpt lat="42.154075" lon="14.5852267"><ele>177.0</ele><time>2026-04-25T06:35:39.883Z</time></trkpt><trkpt lat="42.154155" lon="14.585225"><ele>177.0</ele><time>2026-04-25T06:35:40.884Z</time></trkpt><trkpt lat="42.1542333" lon="14.5852317"><ele>176.16666666666666</ele><time>2026-04-25T06:35:41.883Z</time></trkpt><trkpt lat="42.1543167" lon="14.5852517"><ele>175.33333333333334</ele><time>2026-04-25T06:35:42.884Z</time></trkpt><trkpt lat="42.1543983" lon="14.5852883"><ele>174.5</ele><time>2026-04-25T06:35:43.884Z</time></trkpt><trkpt lat="42.1544683" lon="14.5853467"><ele>173.66666666666669</ele><time>2026-04-25T06:35:44.884Z</time></trkpt><trkpt lat="42.154525" lon="14.58542"><ele>172.83333333333334</ele><time>2026-04-25T06:35:45.884Z</time></trkpt><trkpt lat="42.1545783" lon="14.5855033"><ele>172.0</ele><time>2026-04-25T06:35:46.883Z</time></trkpt><trkpt lat="42.1546283" lon="14.5855917"><ele>171.66666666666669</ele><time>2026-04-25T06:35:47.884Z</time></trkpt><trkpt lat="42.1546817" lon="14.5856683"><ele>171.33333333333334</ele><time>2026-04-25T06:35:48.884Z</time></trkpt><trkpt lat="42.15473" lon="14.58574"><ele>171.0</ele><time>2026-04-25T06:35:49.884Z</time></trkpt><trkpt lat="42.154785" lon="14.5858017"><ele>170.66666666666666</ele><time>2026-04-25T06:35:50.884Z</time></trkpt><trkpt lat="42.15484" lon="14.5858517"><ele>170.33333333333331</ele><time>2026-04-25T06:35:51.884Z</time></trkpt><trkpt lat="42.154945" lon="14.5859317"><ele>170.0</ele><time>2026-04-25T06:35:53.884Z</time></trkpt><trkpt lat="42.1550417" lon="14.585985"><ele>170.0</ele><time>2026-04-25T06:35:55.884Z</time></trkpt><trkpt lat="42.15514" lon="14.586025"><ele>170.0</ele><time>2026-04-25T06:35:57.883Z</time></trkpt><trkpt lat="42.1552367" lon="14.586055"><ele>170.0</ele><time>2026-04-25T06:35:59.883Z</time></trkpt><trkpt lat="42.15533" lon="14.5860883"><ele>170.0</ele><time>2026-04-25T06:36:01.883Z</time></trkpt><trkpt lat="42.1554333" lon="14.5861083"><ele>170.0</ele><time>2026-04-25T06:36:03.884Z</time></trkpt><trkpt lat="42.155535" lon="14.5861283"><ele>170.0</ele><time>2026-04-25T06:36:05.884Z</time></trkpt><trkpt lat="42.1556367" lon="14.58616"><ele>170.0</ele><time>2026-04-25T06:36:07.884Z</time></trkpt><trkpt lat="42.15574" lon="14.586195"><ele>170.0</ele><time>2026-04-25T06:36:09.883Z</time></trkpt><trkpt lat="42.15585" lon="14.58623"><ele>170.0</ele><time>2026-04-25T06:36:11.883Z</time></trkpt><trkpt lat="42.15596" lon="14.58627"><ele>170.0</ele><time>2026-04-25T06:36:13.883Z</time></trkpt><trkpt lat="42.1560733" lon="14.5863083"><ele>169.0</ele><time>2026-04-25T06:36:15.883Z</time></trkpt><trkpt lat="42.156185" lon="14.5863433"><ele>168.0</ele><time>2026-04-25T06:36:17.884Z</time></trkpt><trkpt lat="42.1563017" lon="14.586385"><ele>167.0</ele><time>2026-04-25T06:36:19.884Z</time></trkpt><trkpt lat="42.1564117" lon="14.586425"><ele>166.0</ele><time>2026-04-25T06:36:21.883Z</time></trkpt><trkpt lat="42.156525" lon="14.58646"><ele>166.60000000000002</ele><time>2026-04-25T06:36:23.883Z</time></trkpt><trkpt lat="42.1566317" lon="14.5865033"><ele>167.2</ele><time>2026-04-25T06:36:25.883Z</time></trkpt><trkpt lat="42.1567383" lon="14.5865417"><ele>167.8</ele><time>2026-04-25T06:36:27.883Z</time></trkpt><trkpt lat="42.156845" lon="14.586565"><ele>168.39999999999998</ele><time>2026-04-25T06:36:29.884Z</time></trkpt><trkpt lat="42.1569583" lon="14.5865767"><ele>169.0</ele><time>2026-04-25T06:36:31.884Z</time></trkpt><trkpt lat="42.1570683" lon="14.5865583"><ele>169.0</ele><time>2026-04-25T06:36:33.883Z</time></trkpt><trkpt lat="42.1571867" lon="14.586535"><ele>169.0</ele><time>2026-04-25T06:36:35.883Z</time></trkpt><trkpt lat="42.1573" lon="14.5865033"><ele>169.0</ele><time>2026-04-25T06:36:37.884Z</time></trkpt><trkpt lat="42.157415" lon="14.5864633"><ele>169.0</ele><time>2026-04-25T06:36:39.884Z</time></trkpt><trkpt lat="42.1575333" lon="14.5864233"><ele>168.2</ele><time>2026-04-25T06:36:41.884Z</time></trkpt><trkpt lat="42.1576533" lon="14.5863867"><ele>167.39999999999998</ele><time>2026-04-25T06:36:43.884Z</time></trkpt><trkpt lat="42.1577717" lon="14.5863533"><ele>166.6</ele><time>2026-04-25T06:36:45.884Z</time></trkpt><trkpt lat="42.15789" lon="14.586325"><ele>165.8</ele><time>2026-04-25T06:36:47.884Z</time></trkpt><trkpt lat="42.1579533" lon="14.58631"><ele>165.0</ele><time>2026-04-25T06:36:48.884Z</time></trkpt><trkpt lat="42.15802" lon="14.5862917"><ele>165.00000000000003</ele><time>2026-04-25T06:36:49.884Z</time></trkpt><trkpt lat="42.1580833" lon="14.5862767"><ele>165.0</ele><time>2026-04-25T06:36:50.884Z</time></trkpt><trkpt lat="42.1581483" lon="14.5862617"><ele>165.0</ele><time>2026-04-25T06:36:51.884Z</time></trkpt><trkpt lat="42.1582167" lon="14.586245"><ele>165.0</ele><time>2026-04-25T06:36:52.883Z</time></trkpt><trkpt lat="42.1582833" lon="14.58623"><ele>165.0</ele><time>2026-04-25T06:36:53.883Z</time></trkpt><trkpt lat="42.1583483" lon="14.5862133"><ele>165.00000000000003</ele><time>2026-04-25T06:36:54.883Z</time></trkpt><trkpt lat="42.1584117" lon="14.5861967"><ele>165.0</ele><time>2026-04-25T06:36:55.883Z</time></trkpt><trkpt lat="42.158475" lon="14.5861783"><ele>164.85714285714286</ele><time>2026-04-25T06:36:56.884Z</time></trkpt><trkpt lat="42.158545" lon="14.58616"><ele>164.71428571428572</ele><time>2026-04-25T06:36:57.883Z</time></trkpt><trkpt lat="42.1586117" lon="14.5861367"><ele>164.57142857142856</ele><time>2026-04-25T06:36:58.884Z</time></trkpt><trkpt lat="42.1586783" lon="14.5861167"><ele>164.42857142857144</ele><time>2026-04-25T06:36:59.883Z</time></trkpt><trkpt lat="42.1587433" lon="14.5860983"><ele>164.28571428571428</ele><time>2026-04-25T06:37:00.884Z</time></trkpt><trkpt lat="42.1588117" lon="14.5860833"><ele>164.14285714285714</ele><time>2026-04-25T06:37:01.884Z</time></trkpt><trkpt lat="42.1588783" lon="14.5860583"><ele>164.0</ele><time>2026-04-25T06:37:02.884Z</time></trkpt><trkpt lat="42.1589417" lon="14.5860317"><ele>163.99999999999997</ele><time>2026-04-25T06:37:03.884Z</time></trkpt><trkpt lat="42.1590067" lon="14.586"><ele>164.0</ele><time>2026-04-25T06:37:04.883Z</time></trkpt><trkpt lat="42.1590733" lon="14.58596"><ele>164.0</ele><time>2026-04-25T06:37:05.884Z</time></trkpt><trkpt lat="42.15914" lon="14.5859167"><ele>164.0</ele><time>2026-04-25T06:37:06.884Z</time></trkpt><trkpt lat="42.1592033" lon="14.5858767"><ele>164.0</ele><time>2026-04-25T06:37:07.884Z</time></trkpt><trkpt lat="42.1592683" lon="14.5858283"><ele>163.99999999999997</ele><time>2026-04-25T06:37:08.883Z</time></trkpt><trkpt lat="42.1593317" lon="14.58578"><ele>164.0</ele><time>2026-04-25T06:37:09.883Z</time></trkpt><trkpt lat="42.159395" lon="14.5857367"><ele>163.5</ele><time>2026-04-25T06:37:10.884Z</time></trkpt><trkpt lat="42.15946" lon="14.58569"><ele>163.0</ele><time>2026-04-25T06:37:11.883Z</time></trkpt><trkpt lat="42.159525" lon="14.5856417"><ele>162.5</ele><time>2026-04-25T06:37:12.883Z</time></trkpt><trkpt lat="42.1595817" lon="14.5855833"><ele>162.0</ele><time>2026-04-25T06:37:13.883Z</time></trkpt><trkpt lat="42.1596383" lon="14.58554"><ele>161.5</ele><time>2026-04-25T06:37:14.884Z</time></trkpt><trkpt lat="42.159695" lon="14.5855"><ele>161.0</ele><time>2026-04-25T06:37:15.884Z</time></trkpt><trkpt lat="42.1598083" lon="14.5854117"><ele>160.75</ele><time>2026-04-25T06:37:17.884Z</time></trkpt><trkpt lat="42.159915" lon="14.5853367"><ele>160.5</ele><time>2026-04-25T06:37:19.883Z</time></trkpt><trkpt lat="42.160025" lon="14.5852717"><ele>160.25</ele><time>2026-04-25T06:37:21.883Z</time></trkpt><trkpt lat="42.16013" lon="14.5852"><ele>160.0</ele><time>2026-04-25T06:37:23.884Z</time></trkpt><trkpt lat="42.1602317" lon="14.585115"><ele>160.0</ele><time>2026-04-25T06:37:25.883Z</time></trkpt><trkpt lat="42.1603367" lon="14.585035"><ele>160.0</ele><time>2026-04-25T06:37:27.884Z</time></trkpt><trkpt lat="42.160435" lon="14.5849533"><ele>160.0</ele><time>2026-04-25T06:37:29.883Z</time></trkpt><trkpt lat="42.1605317" lon="14.5848867"><ele>160.0</ele><time>2026-04-25T06:37:31.884Z</time></trkpt><trkpt lat="42.1606267" lon="14.584825"><ele>159.75</ele><time>2026-04-25T06:37:33.884Z</time></trkpt><trkpt lat="42.1607217" lon="14.5847633"><ele>159.5</ele><time>2026-04-25T06:37:35.884Z</time></trkpt><trkpt lat="42.1608233" lon="14.5846933"><ele>159.25</ele><time>2026-04-25T06:37:37.884Z</time></trkpt><trkpt lat="42.1609267" lon="14.5846183"><ele>159.0</ele><time>2026-04-25T06:37:39.884Z</time></trkpt><trkpt lat="42.1610283" lon="14.5845417"><ele>159.25</ele><time>2026-04-25T06:37:41.884Z</time></trkpt><trkpt lat="42.161135" lon="14.5844683"><ele>159.5</ele><time>2026-04-25T06:37:43.884Z</time></trkpt><trkpt lat="42.1612367" lon="14.5843933"><ele>159.75</ele><time>2026-04-25T06:37:45.884Z</time></trkpt><trkpt lat="42.1613317" lon="14.5843167"><ele>160.0</ele><time>2026-04-25T06:37:47.884Z</time></trkpt><trkpt lat="42.161425" lon="14.5842233"><ele>160.0</ele><time>2026-04-25T06:37:49.883Z</time></trkpt><trkpt lat="42.1615167" lon="14.58412"><ele>160.0</ele><time>2026-04-25T06:37:51.884Z</time></trkpt><trkpt lat="42.1616017" lon="14.58401"><ele>160.0</ele><time>2026-04-25T06:37:53.884Z</time></trkpt><trkpt lat="42.161695" lon="14.5838917"><ele>160.0</ele><time>2026-04-25T06:37:55.884Z</time></trkpt><trkpt lat="42.161745" lon="14.583835"><ele>160.0</ele><time>2026-04-25T06:37:56.884Z</time></trkpt><trkpt lat="42.1617917" lon="14.583775"><ele>160.0</ele><time>2026-04-25T06:37:57.884Z</time></trkpt><trkpt lat="42.1618383" lon="14.583715"><ele>160.0</ele><time>2026-04-25T06:37:58.884Z</time></trkpt><trkpt lat="42.1618867" lon="14.5836533"><ele>160.0</ele><time>2026-04-25T06:37:59.884Z</time></trkpt><trkpt lat="42.16194" lon="14.5836033"><ele>160.0</ele><time>2026-04-25T06:38:00.883Z</time></trkpt><trkpt lat="42.161995" lon="14.58355"><ele>160.0</ele><time>2026-04-25T06:38:01.883Z</time></trkpt><trkpt lat="42.1620533" lon="14.5835117"><ele>160.0</ele><time>2026-04-25T06:38:02.884Z</time></trkpt><trkpt lat="42.1621167" lon="14.5834783"><ele>160.0</ele><time>2026-04-25T06:38:03.884Z</time></trkpt><trkpt lat="42.1621833" lon="14.5834567"><ele>159.75</ele><time>2026-04-25T06:38:04.884Z</time></trkpt><trkpt lat="42.16231" lon="14.5834517"><ele>159.5</ele><time>2026-04-25T06:38:06.884Z</time></trkpt><trkpt lat="42.16243" lon="14.5834817"><ele>159.25</ele><time>2026-04-25T06:38:08.884Z</time></trkpt><trkpt lat="42.1625433" lon="14.5835183"><ele>159.0</ele><time>2026-04-25T06:38:10.884Z</time></trkpt><trkpt lat="42.162655" lon="14.5835583"><ele>158.8</ele><time>2026-04-25T06:38:12.884Z</time></trkpt><trkpt lat="42.1627633" lon="14.5835967"><ele>158.60000000000002</ele><time>2026-04-25T06:38:14.883Z</time></trkpt><trkpt lat="42.162875" lon="14.5836367"><ele>158.4</ele><time>2026-04-25T06:38:16.883Z</time></trkpt><trkpt lat="42.162985" lon="14.5836733"><ele>158.20000000000002</ele><time>2026-04-25T06:38:18.884Z</time></trkpt><trkpt lat="42.1630467" lon="14.5836917"><ele>158.0</ele><time>2026-04-25T06:38:19.884Z</time></trkpt><trkpt lat="42.1631667" lon="14.5837333"><ele>157.0</ele><time>2026-04-25T06:38:21.884Z</time></trkpt><trkpt lat="42.1632767" lon="14.5837683"><ele>156.0</ele><time>2026-04-25T06:38:23.884Z</time></trkpt><trkpt lat="42.1633917" lon="14.5838067"><ele>155.0</ele><time>2026-04-25T06:38:25.883Z</time></trkpt><trkpt lat="42.1635117" lon="14.58384"><ele>154.0</ele><time>2026-04-25T06:38:27.884Z</time></trkpt><trkpt lat="42.163625" lon="14.5838767"><ele>154.0</ele><time>2026-04-25T06:38:29.884Z</time></trkpt><trkpt lat="42.16374" lon="14.5839217"><ele>154.0</ele><time>2026-04-25T06:38:31.883Z</time></trkpt><trkpt lat="42.1638517" lon="14.5839617"><ele>154.0</ele><time>2026-04-25T06:38:33.884Z</time></trkpt><trkpt lat="42.1639633" lon="14.5839983"><ele>154.0</ele><time>2026-04-25T06:38:35.884Z</time></trkpt><trkpt lat="42.1640867" lon="14.5840383"><ele>154.0</ele><time>2026-04-25T06:38:37.884Z</time></trkpt><trkpt lat="42.1641983" lon="14.5840733"><ele>154.0</ele><time>2026-04-25T06:38:39.883Z</time></trkpt><trkpt lat="42.1643133" lon="14.5841133"><ele>154.0</ele><time>2026-04-25T06:38:41.884Z</time></trkpt><trkpt lat="42.1644283" lon="14.584175"><ele>154.0</ele><time>2026-04-25T06:38:43.883Z</time></trkpt><trkpt lat="42.1645483" lon="14.5842183"><ele>154.0</ele><time>2026-04-25T06:38:45.884Z</time></trkpt><trkpt lat="42.1646633" lon="14.5842633"><ele>154.0</ele><time>2026-04-25T06:38:47.883Z</time></trkpt><trkpt lat="42.164775" lon="14.5843117"><ele>154.0</ele><time>2026-04-25T06:38:49.883Z</time></trkpt><trkpt lat="42.1648933" lon="14.58436"><ele>154.0</ele><time>2026-04-25T06:38:51.883Z</time></trkpt><trkpt lat="42.1650033" lon="14.5844017"><ele>153.6</ele><time>2026-04-25T06:38:53.883Z</time></trkpt><trkpt lat="42.1651167" lon="14.584445"><ele>153.2</ele><time>2026-04-25T06:38:55.883Z</time></trkpt><trkpt lat="42.16518" lon="14.5844767"><ele>152.79999999999998</ele><time>2026-04-25T06:38:56.884Z</time></trkpt><trkpt lat="42.1652917" lon="14.58453"><ele>152.4</ele><time>2026-04-25T06:38:58.883Z</time></trkpt><trkpt lat="42.1654017" lon="14.5845867"><ele>152.0</ele><time>2026-04-25T06:39:00.883Z</time></trkpt><trkpt lat="42.165515" lon="14.5846367"><ele>151.5</ele><time>2026-04-25T06:39:02.883Z</time></trkpt><trkpt lat="42.1656317" lon="14.584685"><ele>151.0</ele><time>2026-04-25T06:39:04.884Z</time></trkpt><trkpt lat="42.1657383" lon="14.58474"><ele>150.5</ele><time>2026-04-25T06:39:06.884Z</time></trkpt><trkpt lat="42.1658467" lon="14.5847983"><ele>150.0</ele><time>2026-04-25T06:39:08.884Z</time></trkpt><trkpt lat="42.1659567" lon="14.5848467"><ele>149.75</ele><time>2026-04-25T06:39:10.884Z</time></trkpt><trkpt lat="42.1660717" lon="14.5848917"><ele>149.5</ele><time>2026-04-25T06:39:12.883Z</time></trkpt><trkpt lat="42.166185" lon="14.5849417"><ele>149.25</ele><time>2026-04-25T06:39:14.883Z</time></trkpt><trkpt lat="42.1663017" lon="14.5849783"><ele>149.0</ele><time>2026-04-25T06:39:16.883Z</time></trkpt><trkpt lat="42.166405" lon="14.5850283"><ele>149.0</ele><time>2026-04-25T06:39:18.883Z</time></trkpt><trkpt lat="42.166515" lon="14.5851233"><ele>149.0</ele><time>2026-04-25T06:39:20.884Z</time></trkpt><trkpt lat="42.1665683" lon="14.5851733"><ele>149.0</ele><time>2026-04-25T06:39:21.884Z</time></trkpt><trkpt lat="42.1666567" lon="14.5852833"><ele>149.0</ele><time>2026-04-25T06:39:23.883Z</time></trkpt><trkpt lat="42.166745" lon="14.5853983"><ele>149.0</ele><time>2026-04-25T06:39:25.884Z</time></trkpt><trkpt lat="42.16679" lon="14.5854617"><ele>148.6</ele><time>2026-04-25T06:39:26.884Z</time></trkpt><trkpt lat="42.16687" lon="14.5855883"><ele>148.2</ele><time>2026-04-25T06:39:28.884Z</time></trkpt><trkpt lat="42.166945" lon="14.5857133"><ele>147.79999999999998</ele><time>2026-04-25T06:39:30.884Z</time></trkpt><trkpt lat="42.16699" lon="14.5857817"><ele>147.4</ele><time>2026-04-25T06:39:31.883Z</time></trkpt><trkpt lat="42.16707" lon="14.5859167"><ele>147.0</ele><time>2026-04-25T06:39:33.883Z</time></trkpt><trkpt lat="42.16711" lon="14.585985"><ele>147.0</ele><time>2026-04-25T06:39:34.884Z</time></trkpt><trkpt lat="42.1671567" lon="14.5860583"><ele>147.0</ele><time>2026-04-25T06:39:35.883Z</time></trkpt><trkpt lat="42.1672333" lon="14.5861867"><ele>147.0</ele><time>2026-04-25T06:39:37.883Z</time></trkpt><trkpt lat="42.167275" lon="14.5862567"><ele>147.0</ele><time>2026-04-25T06:39:38.884Z</time></trkpt><trkpt lat="42.1673217" lon="14.5863267"><ele>147.0</ele><time>2026-04-25T06:39:39.883Z</time></trkpt><trkpt lat="42.1673667" lon="14.586395"><ele>147.0</ele><time>2026-04-25T06:39:40.884Z</time></trkpt><trkpt lat="42.1674117" lon="14.5864617"><ele>147.0</ele><time>2026-04-25T06:39:41.884Z</time></trkpt><trkpt lat="42.1674533" lon="14.5865367"><ele>147.0</ele><time>2026-04-25T06:39:42.883Z</time></trkpt><trkpt lat="42.1675017" lon="14.5866133"><ele>147.0</ele><time>2026-04-25T06:39:43.883Z</time></trkpt><trkpt lat="42.16755" lon="14.586685"><ele>147.0</ele><time>2026-04-25T06:39:44.883Z</time></trkpt><trkpt lat="42.1675967" lon="14.5867633"><ele>147.0</ele><time>2026-04-25T06:39:45.883Z</time></trkpt><trkpt lat="42.1676383" lon="14.5868367"><ele>147.0</ele><time>2026-04-25T06:39:46.883Z</time></trkpt><trkpt lat="42.1676867" lon="14.5869083"><ele>147.0</ele><time>2026-04-25T06:39:47.883Z</time></trkpt><trkpt lat="42.1677333" lon="14.586985"><ele>146.57142857142858</ele><time>2026-04-25T06:39:48.884Z</time></trkpt><trkpt lat="42.1677767" lon="14.5870583"><ele>146.14285714285714</ele><time>2026-04-25T06:39:49.884Z</time></trkpt><trkpt lat="42.1678233" lon="14.5871367"><ele>145.71428571428572</ele><time>2026-04-25T06:39:50.884Z</time></trkpt><trkpt lat="42.16787" lon="14.5872083"><ele>145.28571428571428</ele><time>2026-04-25T06:39:51.884Z</time></trkpt><trkpt lat="42.1679167" lon="14.5872817"><ele>144.85714285714286</ele><time>2026-04-25T06:39:52.884Z</time></trkpt><trkpt lat="42.167965" lon="14.5873567"><ele>144.42857142857144</ele><time>2026-04-25T06:39:53.883Z</time></trkpt><trkpt lat="42.1680117" lon="14.5874367"><ele>144.0</ele><time>2026-04-25T06:39:54.884Z</time></trkpt><trkpt lat="42.1680583" lon="14.5875083"><ele>144.00000000000003</ele><time>2026-04-25T06:39:55.883Z</time></trkpt><trkpt lat="42.16811" lon="14.5875817"><ele>144.0</ele><time>2026-04-25T06:39:56.884Z</time></trkpt><trkpt lat="42.1681633" lon="14.5876517"><ele>144.0</ele><time>2026-04-25T06:39:57.883Z</time></trkpt><trkpt lat="42.1682133" lon="14.5877117"><ele>144.0</ele><time>2026-04-25T06:39:58.883Z</time></trkpt><trkpt lat="42.168265" lon="14.58777"><ele>144.0</ele><time>2026-04-25T06:39:59.884Z</time></trkpt><trkpt lat="42.16832" lon="14.587835"><ele>144.00000000000003</ele><time>2026-04-25T06:40:00.884Z</time></trkpt><trkpt lat="42.1683783" lon="14.5878967"><ele>144.0</ele><time>2026-04-25T06:40:01.884Z</time></trkpt><trkpt lat="42.1684317" lon="14.587955"><ele>143.57142857142858</ele><time>2026-04-25T06:40:02.883Z</time></trkpt><trkpt lat="42.16849" lon="14.588005"><ele>143.14285714285714</ele><time>2026-04-25T06:40:03.884Z</time></trkpt><trkpt lat="42.1685517" lon="14.5880517"><ele>142.71428571428572</ele><time>2026-04-25T06:40:04.883Z</time></trkpt><trkpt lat="42.168615" lon="14.5880967"><ele>142.28571428571428</ele><time>2026-04-25T06:40:05.883Z</time></trkpt><trkpt lat="42.168675" lon="14.5881417"><ele>141.85714285714286</ele><time>2026-04-25T06:40:06.884Z</time></trkpt><trkpt lat="42.16874" lon="14.588185"><ele>141.42857142857144</ele><time>2026-04-25T06:40:07.884Z</time></trkpt><trkpt lat="42.1688033" lon="14.5882267"><ele>141.0</ele><time>2026-04-25T06:40:08.884Z</time></trkpt><trkpt lat="42.1688667" lon="14.5882667"><ele>141.0</ele><time>2026-04-25T06:40:09.883Z</time></trkpt><trkpt lat="42.1689283" lon="14.5883067"><ele>141.0</ele><time>2026-04-25T06:40:10.884Z</time></trkpt><trkpt lat="42.1689917" lon="14.5883433"><ele>141.0</ele><time>2026-04-25T06:40:11.883Z</time></trkpt><trkpt lat="42.16906" lon="14.58838"><ele>141.0</ele><time>2026-04-25T06:40:12.884Z</time></trkpt><trkpt lat="42.1691233" lon="14.588415"><ele>141.0</ele><time>2026-04-25T06:40:13.883Z</time></trkpt><trkpt lat="42.16919" lon="14.5884633"><ele>141.0</ele><time>2026-04-25T06:40:14.884Z</time></trkpt><trkpt lat="42.1692517" lon="14.5885017"><ele>141.0</ele><time>2026-04-25T06:40:15.883Z</time></trkpt><trkpt lat="42.16931" lon="14.588545"><ele>141.14285714285714</ele><time>2026-04-25T06:40:16.884Z</time></trkpt><trkpt lat="42.1693683" lon="14.5885783"><ele>141.28571428571428</ele><time>2026-04-25T06:40:17.884Z</time></trkpt><trkpt lat="42.1694333" lon="14.5886183"><ele>141.42857142857142</ele><time>2026-04-25T06:40:18.884Z</time></trkpt><trkpt lat="42.1694983" lon="14.58866"><ele>141.57142857142856</ele><time>2026-04-25T06:40:19.884Z</time></trkpt><trkpt lat="42.1695617" lon="14.5887"><ele>141.7142857142857</ele><time>2026-04-25T06:40:20.883Z</time></trkpt><trkpt lat="42.1696217" lon="14.5887383"><ele>141.85714285714286</ele><time>2026-04-25T06:40:21.884Z</time></trkpt><trkpt lat="42.169685" lon="14.5887717"><ele>142.0</ele><time>2026-04-25T06:40:22.883Z</time></trkpt><trkpt lat="42.169745" lon="14.58881"><ele>141.4</ele><time>2026-04-25T06:40:23.884Z</time></trkpt><trkpt lat="42.169805" lon="14.5888467"><ele>140.79999999999998</ele><time>2026-04-25T06:40:24.884Z</time></trkpt><trkpt lat="42.169865" lon="14.588885"><ele>140.2</ele><time>2026-04-25T06:40:25.884Z</time></trkpt><trkpt lat="42.1699767" lon="14.5889483"><ele>139.6</ele><time>2026-04-25T06:40:27.884Z</time></trkpt><trkpt lat="42.17009" lon="14.5890233"><ele>139.0</ele><time>2026-04-25T06:40:29.884Z</time></trkpt><trkpt lat="42.170195" lon="14.5890967"><ele>139.0</ele><time>2026-04-25T06:40:31.884Z</time></trkpt><trkpt lat="42.1702967" lon="14.5891617"><ele>139.0</ele><time>2026-04-25T06:40:33.883Z</time></trkpt><trkpt lat="42.1704033" lon="14.5892367"><ele>139.0</ele><time>2026-04-25T06:40:35.884Z</time></trkpt><trkpt lat="42.1705183" lon="14.5893083"><ele>139.0</ele><time>2026-04-25T06:40:37.884Z</time></trkpt><trkpt lat="42.1706233" lon="14.5893683"><ele>138.75</ele><time>2026-04-25T06:40:39.884Z</time></trkpt><trkpt lat="42.170725" lon="14.5894317"><ele>138.5</ele><time>2026-04-25T06:40:41.883Z</time></trkpt><trkpt lat="42.170835" lon="14.5894983"><ele>138.25</ele><time>2026-04-25T06:40:43.884Z</time></trkpt><trkpt lat="42.1709517" lon="14.5895617"><ele>138.0</ele><time>2026-04-25T06:40:45.883Z</time></trkpt><trkpt lat="42.17106" lon="14.589635"><ele>137.6</ele><time>2026-04-25T06:40:47.884Z</time></trkpt><trkpt lat="42.1711167" lon="14.589675"><ele>137.20000000000002</ele><time>2026-04-25T06:40:48.884Z</time></trkpt><trkpt lat="42.1712133" lon="14.589765"><ele>136.8</ele><time>2026-04-25T06:40:50.884Z</time></trkpt><trkpt lat="42.17131" lon="14.58986"><ele>136.4</ele><time>2026-04-25T06:40:52.883Z</time></trkpt><trkpt lat="42.1714033" lon="14.5899667"><ele>136.0</ele><time>2026-04-25T06:40:54.883Z</time></trkpt><trkpt lat="42.1714533" lon="14.590025"><ele>136.2</ele><time>2026-04-25T06:40:55.884Z</time></trkpt><trkpt lat="42.1715517" lon="14.59013"><ele>136.39999999999998</ele><time>2026-04-25T06:40:57.883Z</time></trkpt><trkpt lat="42.171645" lon="14.590225"><ele>136.6</ele><time>2026-04-25T06:40:59.883Z</time></trkpt><trkpt lat="42.17174" lon="14.5903317"><ele>136.79999999999998</ele><time>2026-04-25T06:41:01.884Z</time></trkpt><trkpt lat="42.17179" lon="14.59039"><ele>137.0</ele><time>2026-04-25T06:41:02.883Z</time></trkpt><trkpt lat="42.1718833" lon="14.5904967"><ele>136.57142857142858</ele><time>2026-04-25T06:41:04.884Z</time></trkpt><trkpt lat="42.1719733" lon="14.5906017"><ele>136.14285714285714</ele><time>2026-04-25T06:41:06.884Z</time></trkpt><trkpt lat="42.172025" lon="14.5906617"><ele>135.71428571428572</ele><time>2026-04-25T06:41:07.884Z</time></trkpt><trkpt lat="42.172075" lon="14.5907183"><ele>135.28571428571428</ele><time>2026-04-25T06:41:08.884Z</time></trkpt><trkpt lat="42.1721267" lon="14.5907683"><ele>134.85714285714286</ele><time>2026-04-25T06:41:09.884Z</time></trkpt><trkpt lat="42.17218" lon="14.5908167"><ele>134.42857142857144</ele><time>2026-04-25T06:41:10.884Z</time></trkpt><trkpt lat="42.17223" lon="14.5908733"><ele>134.0</ele><time>2026-04-25T06:41:11.884Z</time></trkpt><trkpt lat="42.1722833" lon="14.5909233"><ele>134.0</ele><time>2026-04-25T06:41:12.883Z</time></trkpt><trkpt lat="42.172385" lon="14.5910283"><ele>134.0</ele><time>2026-04-25T06:41:14.884Z</time></trkpt><trkpt lat="42.172435" lon="14.5910817"><ele>134.0</ele><time>2026-04-25T06:41:15.883Z</time></trkpt><trkpt lat="42.1724883" lon="14.5911433"><ele>134.0</ele><time>2026-04-25T06:41:16.884Z</time></trkpt><trkpt lat="42.1725367" lon="14.5912"><ele>134.0</ele><time>2026-04-25T06:41:17.884Z</time></trkpt><trkpt lat="42.1725883" lon="14.591255"><ele>134.0</ele><time>2026-04-25T06:41:18.883Z</time></trkpt><trkpt lat="42.17264" lon="14.59131"><ele>133.66666666666666</ele><time>2026-04-25T06:41:19.884Z</time></trkpt><trkpt lat="42.1726917" lon="14.59137"><ele>133.33333333333331</ele><time>2026-04-25T06:41:20.884Z</time></trkpt><trkpt lat="42.172735" lon="14.591435"><ele>133.0</ele><time>2026-04-25T06:41:21.883Z</time></trkpt><trkpt lat="42.1727783" lon="14.5915067"><ele>132.66666666666666</ele><time>2026-04-25T06:41:22.884Z</time></trkpt><trkpt lat="42.1728533" lon="14.5916333"><ele>132.33333333333334</ele><time>2026-04-25T06:41:24.883Z</time></trkpt><trkpt lat="42.1729317" lon="14.5917633"><ele>132.0</ele><time>2026-04-25T06:41:26.884Z</time></trkpt><trkpt lat="42.17301" lon="14.591895"><ele>132.0</ele><time>2026-04-25T06:41:28.884Z</time></trkpt><trkpt lat="42.1730517" lon="14.5919617"><ele>132.0</ele><time>2026-04-25T06:41:29.884Z</time></trkpt><trkpt lat="42.1731283" lon="14.592085"><ele>132.0</ele><time>2026-04-25T06:41:31.884Z</time></trkpt><trkpt lat="42.1731983" lon="14.5922167"><ele>132.0</ele><time>2026-04-25T06:41:33.884Z</time></trkpt><trkpt lat="42.17326" lon="14.5923567"><ele>132.0</ele><time>2026-04-25T06:41:35.884Z</time></trkpt><trkpt lat="42.173325" lon="14.5924983"><ele>131.6</ele><time>2026-04-25T06:41:37.883Z</time></trkpt><trkpt lat="42.1733917" lon="14.5926417"><ele>131.2</ele><time>2026-04-25T06:41:39.884Z</time></trkpt><trkpt lat="42.17342" lon="14.5927183"><ele>130.8</ele><time>2026-04-25T06:41:40.883Z</time></trkpt><trkpt lat="42.173445" lon="14.5927983"><ele>130.4</ele><time>2026-04-25T06:41:41.884Z</time></trkpt><trkpt lat="42.1734917" lon="14.592955"><ele>130.0</ele><time>2026-04-25T06:41:43.884Z</time></trkpt><trkpt lat="42.1735433" lon="14.5931067"><ele>129.8</ele><time>2026-04-25T06:41:45.884Z</time></trkpt><trkpt lat="42.17358" lon="14.5932683"><ele>129.6</ele><time>2026-04-25T06:41:47.884Z</time></trkpt><trkpt lat="42.1736233" lon="14.593425"><ele>129.4</ele><time>2026-04-25T06:41:49.884Z</time></trkpt><trkpt lat="42.1736517" lon="14.593505"><ele>129.2</ele><time>2026-04-25T06:41:50.883Z</time></trkpt><trkpt lat="42.1736783" lon="14.593585"><ele>129.0</ele><time>2026-04-25T06:41:51.883Z</time></trkpt><trkpt lat="42.173735" lon="14.59373"><ele>128.5</ele><time>2026-04-25T06:41:53.884Z</time></trkpt><trkpt lat="42.1737967" lon="14.593875"><ele>128.0</ele><time>2026-04-25T06:41:55.884Z</time></trkpt><trkpt lat="42.1738783" lon="14.5939833"><ele>127.5</ele><time>2026-04-25T06:41:57.883Z</time></trkpt><trkpt lat="42.1739567" lon="14.5941033"><ele>127.0</ele><time>2026-04-25T06:41:59.884Z</time></trkpt><trkpt lat="42.1740367" lon="14.5942317"><ele>127.0</ele><time>2026-04-25T06:42:01.883Z</time></trkpt><trkpt lat="42.1741117" lon="14.5943567"><ele>127.0</ele><time>2026-04-25T06:42:03.883Z</time></trkpt><trkpt lat="42.17419" lon="14.5944833"><ele>127.0</ele><time>2026-04-25T06:42:05.883Z</time></trkpt><trkpt lat="42.17426" lon="14.59462"><ele>127.0</ele><time>2026-04-25T06:42:07.884Z</time></trkpt><trkpt lat="42.17432" lon="14.594765"><ele>126.75</ele><time>2026-04-25T06:42:09.884Z</time></trkpt><trkpt lat="42.1743667" lon="14.594905"><ele>126.5</ele><time>2026-04-25T06:42:11.884Z</time></trkpt><trkpt lat="42.17441" lon="14.5950633"><ele>126.25</ele><time>2026-04-25T06:42:13.884Z</time></trkpt><trkpt lat="42.1744517" lon="14.5952133"><ele>126.0</ele><time>2026-04-25T06:42:15.884Z</time></trkpt><trkpt lat="42.174495" lon="14.5953583"><ele>126.0</ele><time>2026-04-25T06:42:17.884Z</time></trkpt><trkpt lat="42.17454" lon="14.5955183"><ele>126.0</ele><time>2026-04-25T06:42:19.884Z</time></trkpt><trkpt lat="42.174585" lon="14.5956667"><ele>126.0</ele><time>2026-04-25T06:42:21.884Z</time></trkpt><trkpt lat="42.174625" lon="14.5958167"><ele>126.0</ele><time>2026-04-25T06:42:23.884Z</time></trkpt><trkpt lat="42.1746717" lon="14.595975"><ele>126.0</ele><time>2026-04-25T06:42:25.884Z</time></trkpt><trkpt lat="42.17472" lon="14.596125"><ele>126.0</ele><time>2026-04-25T06:42:27.884Z</time></trkpt><trkpt lat="42.1747433" lon="14.5962067"><ele>126.0</ele><time>2026-04-25T06:42:28.883Z</time></trkpt><trkpt lat="42.1747933" lon="14.5963683"><ele>126.0</ele><time>2026-04-25T06:42:30.883Z</time></trkpt><trkpt lat="42.1748233" lon="14.5964533"><ele>126.0</ele><time>2026-04-25T06:42:31.884Z</time></trkpt><trkpt lat="42.1748483" lon="14.5965333"><ele>125.42857142857143</ele><time>2026-04-25T06:42:32.884Z</time></trkpt><trkpt lat="42.1748767" lon="14.596615"><ele>124.85714285714286</ele><time>2026-04-25T06:42:33.883Z</time></trkpt><trkpt lat="42.1749067" lon="14.5966933"><ele>124.28571428571428</ele><time>2026-04-25T06:42:34.884Z</time></trkpt><trkpt lat="42.1749333" lon="14.5967717"><ele>123.71428571428571</ele><time>2026-04-25T06:42:35.884Z</time></trkpt><trkpt lat="42.1749667" lon="14.5968483"><ele>123.14285714285714</ele><time>2026-04-25T06:42:36.883Z</time></trkpt><trkpt lat="42.1750033" lon="14.5969283"><ele>122.57142857142856</ele><time>2026-04-25T06:42:37.884Z</time></trkpt><trkpt lat="42.1750417" lon="14.5970083"><ele>121.99999999999999</ele><time>2026-04-25T06:42:38.883Z</time></trkpt><trkpt lat="42.1750767" lon="14.5970883"><ele>121.66666666666666</ele><time>2026-04-25T06:42:39.883Z</time></trkpt><trkpt lat="42.1751467" lon="14.5972433"><ele>121.33333333333333</ele><time>2026-04-25T06:42:41.884Z</time></trkpt><trkpt lat="42.1751767" lon="14.59732"><ele>121.0</ele><time>2026-04-25T06:42:42.884Z</time></trkpt><trkpt lat="42.1752183" lon="14.5973983"><ele>120.66666666666666</ele><time>2026-04-25T06:42:43.883Z</time></trkpt><trkpt lat="42.1752567" lon="14.5974767"><ele>120.33333333333333</ele><time>2026-04-25T06:42:44.883Z</time></trkpt><trkpt lat="42.175295" lon="14.5975583"><ele>120.0</ele><time>2026-04-25T06:42:45.884Z</time></trkpt><trkpt lat="42.1753317" lon="14.5976367"><ele>120.0</ele><time>2026-04-25T06:42:46.883Z</time></trkpt><trkpt lat="42.17537" lon="14.5977133"><ele>120.0</ele><time>2026-04-25T06:42:47.884Z</time></trkpt><trkpt lat="42.1754133" lon="14.5977933"><ele>120.0</ele><time>2026-04-25T06:42:48.884Z</time></trkpt><trkpt lat="42.1754567" lon="14.5978667"><ele>120.0</ele><time>2026-04-25T06:42:49.883Z</time></trkpt><trkpt lat="42.1755017" lon="14.59794"><ele>120.0</ele><time>2026-04-25T06:42:50.883Z</time></trkpt><trkpt lat="42.1755467" lon="14.5980117"><ele>120.0</ele><time>2026-04-25T06:42:51.884Z</time></trkpt><trkpt lat="42.1755867" lon="14.5980817"><ele>120.0</ele><time>2026-04-25T06:42:52.884Z</time></trkpt><trkpt lat="42.1756333" lon="14.598145"><ele>120.0</ele><time>2026-04-25T06:42:53.884Z</time></trkpt><trkpt lat="42.1756817" lon="14.59821"><ele>120.0</ele><time>2026-04-25T06:42:54.883Z</time></trkpt><trkpt lat="42.1757333" lon="14.5982783"><ele>120.0</ele><time>2026-04-25T06:42:55.884Z</time></trkpt><trkpt lat="42.1757867" lon="14.5983467"><ele>120.0</ele><time>2026-04-25T06:42:56.884Z</time></trkpt><trkpt lat="42.1758383" lon="14.5984133"><ele>120.0</ele><time>2026-04-25T06:42:57.884Z</time></trkpt><trkpt lat="42.1758933" lon="14.5984717"><ele>120.0</ele><time>2026-04-25T06:42:58.884Z</time></trkpt><trkpt lat="42.1759533" lon="14.59853"><ele>120.0</ele><time>2026-04-25T06:42:59.884Z</time></trkpt><trkpt lat="42.17601" lon="14.598585"><ele>119.71428571428572</ele><time>2026-04-25T06:43:00.884Z</time></trkpt><trkpt lat="42.1760717" lon="14.598635"><ele>119.42857142857142</ele><time>2026-04-25T06:43:01.884Z</time></trkpt><trkpt lat="42.17613" lon="14.598685"><ele>119.14285714285714</ele><time>2026-04-25T06:43:02.884Z</time></trkpt><trkpt lat="42.17619" lon="14.5987333"><ele>118.85714285714286</ele><time>2026-04-25T06:43:03.884Z</time></trkpt><trkpt lat="42.1762517" lon="14.5987833"><ele>118.57142857142858</ele><time>2026-04-25T06:43:04.884Z</time></trkpt><trkpt lat="42.1763117" lon="14.598835"><ele>118.28571428571428</ele><time>2026-04-25T06:43:05.884Z</time></trkpt><trkpt lat="42.1763733" lon="14.598885"><ele>118.0</ele><time>2026-04-25T06:43:06.884Z</time></trkpt><trkpt lat="42.176435" lon="14.5989333"><ele>117.85714285714286</ele><time>2026-04-25T06:43:07.884Z</time></trkpt><trkpt lat="42.1764983" lon="14.59898"><ele>117.71428571428572</ele><time>2026-04-25T06:43:08.884Z</time></trkpt><trkpt lat="42.17656" lon="14.5990267"><ele>117.57142857142858</ele><time>2026-04-25T06:43:09.884Z</time></trkpt><trkpt lat="42.17662" lon="14.5990733"><ele>117.42857142857143</ele><time>2026-04-25T06:43:10.884Z</time></trkpt><trkpt lat="42.1766767" lon="14.5991283"><ele>117.2857142857143</ele><time>2026-04-25T06:43:11.884Z</time></trkpt><trkpt lat="42.1767383" lon="14.599175"><ele>117.14285714285715</ele><time>2026-04-25T06:43:12.883Z</time></trkpt><trkpt lat="42.1767967" lon="14.5992233"><ele>117.0</ele><time>2026-04-25T06:43:13.884Z</time></trkpt><trkpt lat="42.17685" lon="14.5992717"><ele>116.66666666666667</ele><time>2026-04-25T06:43:14.884Z</time></trkpt><trkpt lat="42.1769067" lon="14.5993183"><ele>116.33333333333334</ele><time>2026-04-25T06:43:15.884Z</time></trkpt><trkpt lat="42.1770167" lon="14.599415"><ele>116.0</ele><time>2026-04-25T06:43:17.884Z</time></trkpt><trkpt lat="42.17707" lon="14.5994617"><ele>115.66666666666667</ele><time>2026-04-25T06:43:18.884Z</time></trkpt><trkpt lat="42.1771283" lon="14.5995083"><ele>115.33333333333334</ele><time>2026-04-25T06:43:19.883Z</time></trkpt><trkpt lat="42.1771867" lon="14.5995483"><ele>115.0</ele><time>2026-04-25T06:43:20.883Z</time></trkpt><trkpt lat="42.1772433" lon="14.5995883"><ele>115.0</ele><time>2026-04-25T06:43:21.884Z</time></trkpt><trkpt lat="42.1773" lon="14.5996417"><ele>115.0</ele><time>2026-04-25T06:43:22.884Z</time></trkpt><trkpt lat="42.1773533" lon="14.59969"><ele>115.0</ele><time>2026-04-25T06:43:23.883Z</time></trkpt><trkpt lat="42.1774583" lon="14.5997717"><ele>115.0</ele><time>2026-04-25T06:43:25.884Z</time></trkpt><trkpt lat="42.1775567" lon="14.59985"><ele>115.0</ele><time>2026-04-25T06:43:27.883Z</time></trkpt><trkpt lat="42.1776567" lon="14.5999233"><ele>114.8</ele><time>2026-04-25T06:43:29.884Z</time></trkpt><trkpt lat="42.177755" lon="14.6000233"><ele>114.6</ele><time>2026-04-25T06:43:31.883Z</time></trkpt><trkpt lat="42.177845" lon="14.60013"><ele>114.4</ele><time>2026-04-25T06:43:33.883Z</time></trkpt><trkpt lat="42.1778933" lon="14.6001867"><ele>114.2</ele><time>2026-04-25T06:43:34.884Z</time></trkpt><trkpt lat="42.1779383" lon="14.6002467"><ele>114.0</ele><time>2026-04-25T06:43:35.884Z</time></trkpt><trkpt lat="42.1780233" lon="14.600355"><ele>114.0</ele><time>2026-04-25T06:43:37.884Z</time></trkpt><trkpt lat="42.1781017" lon="14.6004767"><ele>114.0</ele><time>2026-04-25T06:43:39.883Z</time></trkpt><trkpt lat="42.17819" lon="14.6005967"><ele>114.0</ele><time>2026-04-25T06:43:41.884Z</time></trkpt><trkpt lat="42.17828" lon="14.600705"><ele>114.0</ele><time>2026-04-25T06:43:43.884Z</time></trkpt><trkpt lat="42.1783233" lon="14.6007667"><ele>114.0</ele><time>2026-04-25T06:43:44.884Z</time></trkpt><trkpt lat="42.1784083" lon="14.600885"><ele>113.6</ele><time>2026-04-25T06:43:46.883Z</time></trkpt><trkpt lat="42.1784933" lon="14.60099"><ele>113.2</ele><time>2026-04-25T06:43:48.884Z</time></trkpt><trkpt lat="42.1785783" lon="14.601115"><ele>112.79999999999998</ele><time>2026-04-25T06:43:50.884Z</time></trkpt><trkpt lat="42.1786217" lon="14.6011783"><ele>112.39999999999999</ele><time>2026-04-25T06:43:51.884Z</time></trkpt><trkpt lat="42.1787017" lon="14.6012933"><ele>112.0</ele><time>2026-04-25T06:43:53.884Z</time></trkpt><trkpt lat="42.1787883" lon="14.6014033"><ele>112.00000000000001</ele><time>2026-04-25T06:43:55.884Z</time></trkpt><trkpt lat="42.178885" lon="14.6015033"><ele>112.0</ele><time>2026-04-25T06:43:57.883Z</time></trkpt><trkpt lat="42.1789383" lon="14.60155"><ele>112.0</ele><time>2026-04-25T06:43:58.884Z</time></trkpt><trkpt lat="42.1789933" lon="14.6015967"><ele>112.0</ele><time>2026-04-25T06:43:59.884Z</time></trkpt><trkpt lat="42.1790483" lon="14.601645"><ele>112.00000000000001</ele><time>2026-04-25T06:44:00.884Z</time></trkpt><trkpt lat="42.1791033" lon="14.6016933"><ele>112.0</ele><time>2026-04-25T06:44:01.884Z</time></trkpt><trkpt lat="42.17916" lon="14.601745"><ele>111.57142857142857</ele><time>2026-04-25T06:44:02.884Z</time></trkpt><trkpt lat="42.1792167" lon="14.6017967"><ele>111.14285714285714</ele><time>2026-04-25T06:44:03.884Z</time></trkpt><trkpt lat="42.1792683" lon="14.6018483"><ele>110.71428571428572</ele><time>2026-04-25T06:44:04.883Z</time></trkpt><trkpt lat="42.1793217" lon="14.6019033"><ele>110.28571428571428</ele><time>2026-04-25T06:44:05.884Z</time></trkpt><trkpt lat="42.1793733" lon="14.6019583"><ele>109.85714285714286</ele><time>2026-04-25T06:44:06.884Z</time></trkpt><trkpt lat="42.1794183" lon="14.60202"><ele>109.42857142857143</ele><time>2026-04-25T06:44:07.883Z</time></trkpt><trkpt lat="42.1794667" lon="14.60209"><ele>109.0</ele><time>2026-04-25T06:44:08.884Z</time></trkpt><trkpt lat="42.1795167" lon="14.6021567"><ele>108.66666666666667</ele><time>2026-04-25T06:44:09.884Z</time></trkpt><trkpt lat="42.1796" lon="14.6022833"><ele>108.33333333333334</ele><time>2026-04-25T06:44:11.884Z</time></trkpt><trkpt lat="42.1796467" lon="14.60235"><ele>108.0</ele><time>2026-04-25T06:44:12.884Z</time></trkpt><trkpt lat="42.17969" lon="14.6024133"><ele>107.66666666666666</ele><time>2026-04-25T06:44:13.884Z</time></trkpt><trkpt lat="42.1797333" lon="14.602475"><ele>107.33333333333333</ele><time>2026-04-25T06:44:14.884Z</time></trkpt><trkpt lat="42.1797733" lon="14.6025417"><ele>107.0</ele><time>2026-04-25T06:44:15.883Z</time></trkpt><trkpt lat="42.1798533" lon="14.6026667"><ele>106.66666666666666</ele><time>2026-04-25T06:44:17.884Z</time></trkpt><trkpt lat="42.1798983" lon="14.6027333"><ele>106.33333333333333</ele><time>2026-04-25T06:44:18.883Z</time></trkpt><trkpt lat="42.1799433" lon="14.6028"><ele>106.0</ele><time>2026-04-25T06:44:19.884Z</time></trkpt><trkpt lat="42.18003" lon="14.602925"><ele>105.66666666666666</ele><time>2026-04-25T06:44:21.884Z</time></trkpt><trkpt lat="42.1800767" lon="14.602985"><ele>105.33333333333333</ele><time>2026-04-25T06:44:22.884Z</time></trkpt><trkpt lat="42.1801683" lon="14.6030867"><ele>105.0</ele><time>2026-04-25T06:44:24.884Z</time></trkpt><trkpt lat="42.1802667" lon="14.6031767"><ele>104.8</ele><time>2026-04-25T06:44:26.884Z</time></trkpt><trkpt lat="42.1803633" lon="14.603275"><ele>104.6</ele><time>2026-04-25T06:44:28.883Z</time></trkpt><trkpt lat="42.180465" lon="14.6033617"><ele>104.4</ele><time>2026-04-25T06:44:30.884Z</time></trkpt><trkpt lat="42.1805733" lon="14.6034417"><ele>104.2</ele><time>2026-04-25T06:44:32.883Z</time></trkpt><trkpt lat="42.1806433" lon="14.603485"><ele>104.0</ele><time>2026-04-25T06:44:33.884Z</time></trkpt><trkpt lat="42.1806983" lon="14.6035283"><ele>103.83333333333333</ele><time>2026-04-25T06:44:34.883Z</time></trkpt><trkpt lat="42.1807567" lon="14.6035683"><ele>103.66666666666666</ele><time>2026-04-25T06:44:35.883Z</time></trkpt><trkpt lat="42.1808167" lon="14.6036083"><ele>103.5</ele><time>2026-04-25T06:44:36.883Z</time></trkpt><trkpt lat="42.180935" lon="14.6036767"><ele>103.33333333333334</ele><time>2026-04-25T06:44:38.884Z</time></trkpt><trkpt lat="42.1809967" lon="14.6037117"><ele>103.16666666666667</ele><time>2026-04-25T06:44:39.884Z</time></trkpt><trkpt lat="42.1810633" lon="14.6037433"><ele>103.0</ele><time>2026-04-25T06:44:40.884Z</time></trkpt><trkpt lat="42.181125" lon="14.6037767"><ele>102.85714285714285</ele><time>2026-04-25T06:44:41.884Z</time></trkpt><trkpt lat="42.1811867" lon="14.6038133"><ele>102.71428571428571</ele><time>2026-04-25T06:44:42.884Z</time></trkpt><trkpt lat="42.1812467" lon="14.6038483"><ele>102.57142857142857</ele><time>2026-04-25T06:44:43.884Z</time></trkpt><trkpt lat="42.18131" lon="14.6038817"><ele>102.42857142857142</ele><time>2026-04-25T06:44:44.884Z</time></trkpt><trkpt lat="42.1813717" lon="14.6039133"><ele>102.28571428571429</ele><time>2026-04-25T06:44:45.883Z</time></trkpt><trkpt lat="42.181435" lon="14.603945"><ele>102.14285714285714</ele><time>2026-04-25T06:44:46.884Z</time></trkpt><trkpt lat="42.1815" lon="14.6039817"><ele>102.0</ele><time>2026-04-25T06:44:47.884Z</time></trkpt><trkpt lat="42.1815633" lon="14.6040133"><ele>101.85714285714286</ele><time>2026-04-25T06:44:48.884Z</time></trkpt><trkpt lat="42.1816267" lon="14.604045"><ele>101.71428571428572</ele><time>2026-04-25T06:44:49.884Z</time></trkpt><trkpt lat="42.1816917" lon="14.60408"><ele>101.57142857142857</ele><time>2026-04-25T06:44:50.884Z</time></trkpt><trkpt lat="42.1817517" lon="14.6041167"><ele>101.42857142857143</ele><time>2026-04-25T06:44:51.883Z</time></trkpt><trkpt lat="42.1818183" lon="14.60415"><ele>101.28571428571428</ele><time>2026-04-25T06:44:52.884Z</time></trkpt><trkpt lat="42.1818833" lon="14.6041817"><ele>101.14285714285714</ele><time>2026-04-25T06:44:53.883Z</time></trkpt><trkpt lat="42.1819467" lon="14.6042183"><ele>101.0</ele><time>2026-04-25T06:44:54.884Z</time></trkpt><trkpt lat="42.1820117" lon="14.6042517"><ele>101.0</ele><time>2026-04-25T06:44:55.884Z</time></trkpt><trkpt lat="42.1820733" lon="14.6042917"><ele>101.0</ele><time>2026-04-25T06:44:56.884Z</time></trkpt><trkpt lat="42.1821383" lon="14.6043283"><ele>101.0</ele><time>2026-04-25T06:44:57.883Z</time></trkpt><trkpt lat="42.1822033" lon="14.6043617"><ele>101.0</ele><time>2026-04-25T06:44:58.884Z</time></trkpt><trkpt lat="42.1822667" lon="14.6043933"><ele>101.0</ele><time>2026-04-25T06:44:59.884Z</time></trkpt><trkpt lat="42.1823267" lon="14.6044333"><ele>101.0</ele><time>2026-04-25T06:45:00.884Z</time></trkpt><trkpt lat="42.1823917" lon="14.6044667"><ele>101.0</ele><time>2026-04-25T06:45:01.884Z</time></trkpt><trkpt lat="42.1824533" lon="14.604505"><ele>100.28571428571428</ele><time>2026-04-25T06:45:02.883Z</time></trkpt><trkpt lat="42.18252" lon="14.6045433"><ele>99.57142857142857</ele><time>2026-04-25T06:45:03.884Z</time></trkpt><trkpt lat="42.1825867" lon="14.6045767"><ele>98.85714285714286</ele><time>2026-04-25T06:45:04.884Z</time></trkpt><trkpt lat="42.1826533" lon="14.6046067"><ele>98.14285714285714</ele><time>2026-04-25T06:45:05.884Z</time></trkpt><trkpt lat="42.18272" lon="14.6046383"><ele>97.42857142857143</ele><time>2026-04-25T06:45:06.884Z</time></trkpt><trkpt lat="42.1827883" lon="14.6046717"><ele>96.71428571428571</ele><time>2026-04-25T06:45:07.883Z</time></trkpt><trkpt lat="42.182855" lon="14.604695"><ele>96.0</ele><time>2026-04-25T06:45:08.883Z</time></trkpt><trkpt lat="42.18292" lon="14.6047183"><ele>96.0</ele><time>2026-04-25T06:45:09.883Z</time></trkpt><trkpt lat="42.182985" lon="14.6047433"><ele>96.0</ele><time>2026-04-25T06:45:10.883Z</time></trkpt><trkpt lat="42.18305" lon="14.6047617"><ele>96.0</ele><time>2026-04-25T06:45:11.884Z</time></trkpt><trkpt lat="42.1831117" lon="14.6047867"><ele>96.0</ele><time>2026-04-25T06:45:12.883Z</time></trkpt><trkpt lat="42.183175" lon="14.6048083"><ele>96.0</ele><time>2026-04-25T06:45:13.883Z</time></trkpt><trkpt lat="42.1832933" lon="14.6048633"><ele>96.0</ele><time>2026-04-25T06:45:15.884Z</time></trkpt><trkpt lat="42.18339" lon="14.6049567"><ele>95.4</ele><time>2026-04-25T06:45:17.883Z</time></trkpt><trkpt lat="42.183435" lon="14.6050933"><ele>94.8</ele><time>2026-04-25T06:45:19.883Z</time></trkpt><trkpt lat="42.1834633" lon="14.6052417"><ele>94.2</ele><time>2026-04-25T06:45:21.883Z</time></trkpt><trkpt lat="42.1835017" lon="14.60538"><ele>93.60000000000001</ele><time>2026-04-25T06:45:23.883Z</time></trkpt><trkpt lat="42.1835417" lon="14.6055167"><ele>93.0</ele><time>2026-04-25T06:45:25.883Z</time></trkpt><trkpt lat="42.1835783" lon="14.6056283"><ele>92.16666666666667</ele><time>2026-04-25T06:45:27.883Z</time></trkpt><trkpt lat="42.1836433" lon="14.60567"><ele>91.33333333333333</ele><time>2026-04-25T06:45:29.884Z</time></trkpt><trkpt lat="42.1837617" lon="14.6056017"><ele>90.5</ele><time>2026-04-25T06:45:31.883Z</time></trkpt><trkpt lat="42.1838133" lon="14.6055467"><ele>89.66666666666666</ele><time>2026-04-25T06:45:32.884Z</time></trkpt><trkpt lat="42.183875" lon="14.605505"><ele>88.83333333333333</ele><time>2026-04-25T06:45:33.884Z</time></trkpt><trkpt lat="42.1839317" lon="14.605465"><ele>88.0</ele><time>2026-04-25T06:45:34.884Z</time></trkpt><trkpt lat="42.1839933" lon="14.6054267"><ele>88.75</ele><time>2026-04-25T06:45:35.884Z</time></trkpt><trkpt lat="42.184115" lon="14.6054133"><ele>89.5</ele><time>2026-04-25T06:45:37.883Z</time></trkpt><trkpt lat="42.1842317" lon="14.6054383"><ele>90.25</ele><time>2026-04-25T06:45:39.883Z</time></trkpt><trkpt lat="42.1843483" lon="14.6054733"><ele>91.0</ele><time>2026-04-25T06:45:41.883Z</time></trkpt><trkpt lat="42.1844717" lon="14.6055133"><ele>91.0</ele><time>2026-04-25T06:45:43.883Z</time></trkpt><trkpt lat="42.184585" lon="14.6055517"><ele>91.0</ele><time>2026-04-25T06:45:45.884Z</time></trkpt><trkpt lat="42.184705" lon="14.6055767"><ele>91.0</ele><time>2026-04-25T06:45:47.883Z</time></trkpt><trkpt lat="42.18482" lon="14.6056"><ele>91.0</ele><time>2026-04-25T06:45:49.884Z</time></trkpt><trkpt lat="42.1849333" lon="14.605625"><ele>91.5</ele><time>2026-04-25T06:45:51.884Z</time></trkpt><trkpt lat="42.1850517" lon="14.6056567"><ele>92.0</ele><time>2026-04-25T06:45:53.884Z</time></trkpt><trkpt lat="42.18517" lon="14.605675"><ele>92.5</ele><time>2026-04-25T06:45:55.883Z</time></trkpt><trkpt lat="42.18529" lon="14.60569"><ele>93.0</ele><time>2026-04-25T06:45:57.884Z</time></trkpt><trkpt lat="42.1854067" lon="14.6056983"><ele>93.0</ele><time>2026-04-25T06:45:59.883Z</time></trkpt><trkpt lat="42.1855217" lon="14.6056883"><ele>93.0</ele><time>2026-04-25T06:46:01.883Z</time></trkpt><trkpt lat="42.18564" lon="14.605685"><ele>93.0</ele><time>2026-04-25T06:46:03.883Z</time></trkpt><trkpt lat="42.1857567" lon="14.6056767"><ele>93.0</ele><time>2026-04-25T06:46:05.883Z</time></trkpt><trkpt lat="42.185875" lon="14.6056733"><ele>92.2</ele><time>2026-04-25T06:46:07.883Z</time></trkpt><trkpt lat="42.185995" lon="14.6056633"><ele>91.4</ele><time>2026-04-25T06:46:09.884Z</time></trkpt><trkpt lat="42.186115" lon="14.6056533"><ele>90.60000000000001</ele><time>2026-04-25T06:46:11.884Z</time></trkpt><trkpt lat="42.1862417" lon="14.605645"><ele>89.80000000000001</ele><time>2026-04-25T06:46:13.884Z</time></trkpt><trkpt lat="42.1863067" lon="14.6056283"><ele>89.0</ele><time>2026-04-25T06:46:14.884Z</time></trkpt><trkpt lat="42.1864333" lon="14.605595"><ele>88.83333333333334</ele><time>2026-04-25T06:46:16.883Z</time></trkpt><trkpt lat="42.1865617" lon="14.605565"><ele>88.66666666666667</ele><time>2026-04-25T06:46:18.884Z</time></trkpt><trkpt lat="42.18663" lon="14.6055467"><ele>88.5</ele><time>2026-04-25T06:46:19.884Z</time></trkpt><trkpt lat="42.1867017" lon="14.6055333"><ele>88.33333333333333</ele><time>2026-04-25T06:46:20.883Z</time></trkpt><trkpt lat="42.1867733" lon="14.6055167"><ele>88.16666666666666</ele><time>2026-04-25T06:46:21.884Z</time></trkpt><trkpt lat="42.18685" lon="14.6054983"><ele>88.0</ele><time>2026-04-25T06:46:22.884Z</time></trkpt><trkpt lat="42.1869233" lon="14.60548"><ele>88.0</ele><time>2026-04-25T06:46:23.884Z</time></trkpt><trkpt lat="42.1870017" lon="14.60546"><ele>88.0</ele><time>2026-04-25T06:46:24.884Z</time></trkpt><trkpt lat="42.187075" lon="14.6054417"><ele>88.0</ele><time>2026-04-25T06:46:25.884Z</time></trkpt><trkpt lat="42.1871467" lon="14.6054267"><ele>88.0</ele><time>2026-04-25T06:46:26.884Z</time></trkpt><trkpt lat="42.1872167" lon="14.6054117"><ele>88.0</ele><time>2026-04-25T06:46:27.884Z</time></trkpt><trkpt lat="42.18729" lon="14.6053983"><ele>88.0</ele><time>2026-04-25T06:46:28.883Z</time></trkpt><trkpt lat="42.1873617" lon="14.6053817"><ele>88.0</ele><time>2026-04-25T06:46:29.884Z</time></trkpt><trkpt lat="42.187435" lon="14.605365"><ele>87.66666666666666</ele><time>2026-04-25T06:46:30.884Z</time></trkpt><trkpt lat="42.1875083" lon="14.6053483"><ele>87.33333333333333</ele><time>2026-04-25T06:46:31.884Z</time></trkpt><trkpt lat="42.187585" lon="14.6053283"><ele>87.0</ele><time>2026-04-25T06:46:32.883Z</time></trkpt><trkpt lat="42.18766" lon="14.60531"><ele>86.66666666666667</ele><time>2026-04-25T06:46:33.883Z</time></trkpt><trkpt lat="42.1877317" lon="14.6052883"><ele>86.33333333333334</ele><time>2026-04-25T06:46:34.883Z</time></trkpt><trkpt lat="42.1878067" lon="14.60527"><ele>86.0</ele><time>2026-04-25T06:46:35.884Z</time></trkpt><trkpt lat="42.1878817" lon="14.60525"><ele>85.0</ele><time>2026-04-25T06:46:36.885Z</time></trkpt><trkpt lat="42.1879583" lon="14.60523"><ele>84.0</ele><time>2026-04-25T06:46:37.885Z</time></trkpt><trkpt lat="42.188035" lon="14.605215"><ele>83.0</ele><time>2026-04-25T06:46:38.885Z</time></trkpt><trkpt lat="42.18811" lon="14.6052017"><ele>82.0</ele><time>2026-04-25T06:46:39.884Z</time></trkpt><trkpt lat="42.1881917" lon="14.605185"><ele>81.0</ele><time>2026-04-25T06:46:40.884Z</time></trkpt><trkpt lat="42.188275" lon="14.6051717"><ele>80.0</ele><time>2026-04-25T06:46:41.884Z</time></trkpt><trkpt lat="42.1883683" lon="14.6051583"><ele>78.8</ele><time>2026-04-25T06:46:42.885Z</time></trkpt><trkpt lat="42.1884617" lon="14.6051417"><ele>77.6</ele><time>2026-04-25T06:46:43.884Z</time></trkpt><trkpt lat="42.1885583" lon="14.6051317"><ele>76.4</ele><time>2026-04-25T06:46:44.885Z</time></trkpt><trkpt lat="42.1886567" lon="14.60512"><ele>75.2</ele><time>2026-04-25T06:46:45.884Z</time></trkpt><trkpt lat="42.1887583" lon="14.6051117"><ele>74.0</ele><time>2026-04-25T06:46:46.884Z</time></trkpt><trkpt lat="42.1888567" lon="14.6051"><ele>74.0</ele><time>2026-04-25T06:46:47.885Z</time></trkpt><trkpt lat="42.18894" lon="14.6050833"><ele>74.0</ele><time>2026-04-25T06:46:48.884Z</time></trkpt><trkpt lat="42.1890217" lon="14.6050467"><ele>74.0</ele><time>2026-04-25T06:46:49.884Z</time></trkpt><trkpt lat="42.1891083" lon="14.604985"><ele>74.0</ele><time>2026-04-25T06:46:50.885Z</time></trkpt><trkpt lat="42.1891933" lon="14.604915"><ele>74.0</ele><time>2026-04-25T06:46:51.884Z</time></trkpt><trkpt lat="42.18928" lon="14.6048383"><ele>73.60000000000001</ele><time>2026-04-25T06:46:52.885Z</time></trkpt><trkpt lat="42.1893617" lon="14.60476"><ele>73.2</ele><time>2026-04-25T06:46:53.885Z</time></trkpt><trkpt lat="42.18945" lon="14.6046667"><ele>72.80000000000001</ele><time>2026-04-25T06:46:54.885Z</time></trkpt><trkpt lat="42.18954" lon="14.604565"><ele>72.4</ele><time>2026-04-25T06:46:55.884Z</time></trkpt><trkpt lat="42.1896333" lon="14.604475"><ele>72.0</ele><time>2026-04-25T06:46:56.885Z</time></trkpt><trkpt lat="42.18972" lon="14.604385"><ele>70.2</ele><time>2026-04-25T06:46:57.885Z</time></trkpt><trkpt lat="42.18981" lon="14.6043167"><ele>68.4</ele><time>2026-04-25T06:46:58.885Z</time></trkpt><trkpt lat="42.189895" lon="14.6042483"><ele>66.6</ele><time>2026-04-25T06:46:59.885Z</time></trkpt><trkpt lat="42.1899867" lon="14.6041833"><ele>64.8</ele><time>2026-04-25T06:47:00.885Z</time></trkpt><trkpt lat="42.1900833" lon="14.60413"><ele>63.0</ele><time>2026-04-25T06:47:01.885Z</time></trkpt><trkpt lat="42.190205" lon="14.604105"><ele>60.5</ele><time>2026-04-25T06:47:02.885Z</time></trkpt><trkpt lat="42.19033" lon="14.60411"><ele>58.0</ele><time>2026-04-25T06:47:03.885Z</time></trkpt><trkpt lat="42.19047" lon="14.6041367"><ele>55.5</ele><time>2026-04-25T06:47:04.884Z</time></trkpt><trkpt lat="42.1906133" lon="14.6041683"><ele>53.0</ele><time>2026-04-25T06:47:05.885Z</time></trkpt><trkpt lat="42.1907483" lon="14.6042133"><ele>50.25</ele><time>2026-04-25T06:47:06.884Z</time></trkpt><trkpt lat="42.1908767" lon="14.60424"><ele>47.5</ele><time>2026-04-25T06:47:07.885Z</time></trkpt><trkpt lat="42.191005" lon="14.604265"><ele>44.75</ele><time>2026-04-25T06:47:08.884Z</time></trkpt><trkpt lat="42.1911167" lon="14.60428"><ele>42.0</ele><time>2026-04-25T06:47:09.885Z</time></trkpt><trkpt lat="42.1912283" lon="14.6042717"><ele>42.0</ele><time>2026-04-25T06:47:10.884Z</time></trkpt><trkpt lat="42.1913283" lon="14.6042433"><ele>42.0</ele><time>2026-04-25T06:47:11.885Z</time></trkpt><trkpt lat="42.1914167" lon="14.6042217"><ele>42.0</ele><time>2026-04-25T06:47:12.885Z</time></trkpt><trkpt lat="42.191495" lon="14.6042067"><ele>42.0</ele><time>2026-04-25T06:47:13.885Z</time></trkpt><trkpt lat="42.1915667" lon="14.6041967"><ele>42.0</ele><time>2026-04-25T06:47:14.885Z</time></trkpt><trkpt lat="42.1916767" lon="14.6042067"><ele>42.333333333333336</ele><time>2026-04-25T06:47:16.885Z</time></trkpt><trkpt lat="42.1917517" lon="14.6042267"><ele>42.666666666666664</ele><time>2026-04-25T06:47:18.885Z</time></trkpt><trkpt lat="42.1918267" lon="14.6042733"><ele>43.0</ele><time>2026-04-25T06:47:21.885Z</time></trkpt><trkpt lat="42.1918933" lon="14.6043317"><ele>43.33333333333333</ele><time>2026-04-25T06:47:25.885Z</time></trkpt><trkpt lat="42.19195" lon="14.6043933"><ele>43.666666666666664</ele><time>2026-04-25T06:47:28.885Z</time></trkpt><trkpt lat="42.1919967" lon="14.6044617"><ele>44.0</ele><time>2026-04-25T06:47:31.884Z</time></trkpt><trkpt lat="42.1920433" lon="14.604555"><ele>44.0</ele><time>2026-04-25T06:47:35.885Z</time></trkpt><trkpt lat="42.1920883" lon="14.6046417"><ele>44.0</ele><time>2026-04-25T06:47:39.884Z</time></trkpt><trkpt lat="42.1921317" lon="14.604735"><ele>44.0</ele><time>2026-04-25T06:47:43.885Z</time></trkpt><trkpt lat="42.1921617" lon="14.60481"><ele>44.0</ele><time>2026-04-25T06:47:46.885Z</time></trkpt><trkpt lat="42.19218" lon="14.6048967"><ele>44.0</ele><time>2026-04-25T06:47:49.885Z</time></trkpt><trkpt lat="42.1922033" lon="14.6049817"><ele>44.0</ele><time>2026-04-25T06:47:52.885Z</time></trkpt><trkpt lat="42.192235" lon="14.6050817"><ele>44.0</ele><time>2026-04-25T06:47:56.885Z</time></trkpt><trkpt lat="42.192265" lon="14.6051617"><ele>44.0</ele><time>2026-04-25T06:47:59.885Z</time></trkpt><trkpt lat="42.1922833" lon="14.6052433"><ele>44.0</ele><time>2026-04-25T06:48:02.885Z</time></trkpt><trkpt lat="42.1923217" lon="14.60533"><ele>44.0</ele><time>2026-04-25T06:48:05.884Z</time></trkpt><trkpt lat="42.1923617" lon="14.6054117"><ele>44.0</ele><time>2026-04-25T06:48:08.885Z</time></trkpt><trkpt lat="42.1924067" lon="14.605485"><ele>44.0</ele><time>2026-04-25T06:48:11.885Z</time></trkpt><trkpt lat="42.1924533" lon="14.6055617"><ele>44.0</ele><time>2026-04-25T06:48:14.885Z</time></trkpt><trkpt lat="42.19249" lon="14.605645"><ele>44.0</ele><time>2026-04-25T06:48:17.885Z</time></trkpt><trkpt lat="42.1925317" lon="14.6057267"><ele>46.0</ele><time>2026-04-25T06:48:20.885Z</time></trkpt><trkpt lat="42.19257" lon="14.6058033"><ele>48.0</ele><time>2026-04-25T06:48:23.884Z</time></trkpt><trkpt lat="42.1926133" lon="14.6058817"><ele>50.0</ele><time>2026-04-25T06:48:26.885Z</time></trkpt><trkpt lat="42.1926517" lon="14.60596"><ele>52.0</ele><time>2026-04-25T06:48:29.885Z</time></trkpt><trkpt lat="42.1926867" lon="14.60604"><ele>54.0</ele><time>2026-04-25T06:48:32.885Z</time></trkpt><trkpt lat="42.1927183" lon="14.60615"><ele>56.00000000000001</ele><time>2026-04-25T06:48:36.885Z</time></trkpt><trkpt lat="42.1927483" lon="14.606235"><ele>58.00000000000001</ele><time>2026-04-25T06:48:39.885Z</time></trkpt><trkpt lat="42.1927733" lon="14.6063383"><ele>58.00000000000001</ele><time>2026-04-25T06:48:43.885Z</time></trkpt><trkpt lat="42.1927933" lon="14.6064283"><ele>58.0</ele><time>2026-04-25T06:48:46.884Z</time></trkpt><trkpt lat="42.1927967" lon="14.606525"><ele>58.00000000000001</ele><time>2026-04-25T06:48:50.885Z</time></trkpt><trkpt lat="42.1927933" lon="14.60661"><ele>58.00000000000001</ele><time>2026-04-25T06:48:54.885Z</time></trkpt><trkpt lat="42.1927767" lon="14.606705"><ele>58.0</ele><time>2026-04-25T06:48:58.884Z</time></trkpt><trkpt lat="42.19277" lon="14.6068083"><ele>58.00000000000001</ele><time>2026-04-25T06:49:01.884Z</time></trkpt><trkpt lat="42.1927633" lon="14.60693"><ele>58.00000000000001</ele><time>2026-04-25T06:49:04.885Z</time></trkpt><trkpt lat="42.1927583" lon="14.607035"><ele>57.49999999999999</ele><time>2026-04-25T06:49:06.885Z</time></trkpt><trkpt lat="42.19276" lon="14.6071417"><ele>57.0</ele><time>2026-04-25T06:49:08.885Z</time></trkpt><trkpt lat="42.192775" lon="14.6072517"><ele>56.5</ele><time>2026-04-25T06:49:10.885Z</time></trkpt><trkpt lat="42.1928017" lon="14.60735"><ele>56.0</ele><time>2026-04-25T06:49:12.884Z</time></trkpt><trkpt lat="42.1928317" lon="14.6074717"><ele>55.49999999999999</ele><time>2026-04-25T06:49:14.885Z</time></trkpt><trkpt lat="42.1928667" lon="14.6075917"><ele>55.0</ele><time>2026-04-25T06:49:16.885Z</time></trkpt><trkpt lat="42.192895" lon="14.607695"><ele>54.99999999999999</ele><time>2026-04-25T06:49:18.884Z</time></trkpt><trkpt lat="42.1929183" lon="14.60779"><ele>55.0</ele><time>2026-04-25T06:49:20.884Z</time></trkpt><trkpt lat="42.1929433" lon="14.6078883"><ele>55.0</ele><time>2026-04-25T06:49:22.884Z</time></trkpt><trkpt lat="42.1929733" lon="14.6079983"><ele>55.0</ele><time>2026-04-25T06:49:24.885Z</time></trkpt><trkpt lat="42.1930067" lon="14.6081017"><ele>54.99999999999999</ele><time>2026-04-25T06:49:26.885Z</time></trkpt><trkpt lat="42.1930367" lon="14.608205"><ele>55.0</ele><time>2026-04-25T06:49:28.884Z</time></trkpt><trkpt lat="42.193065" lon="14.60832"><ele>54.2</ele><time>2026-04-25T06:49:30.885Z</time></trkpt><trkpt lat="42.193095" lon="14.6084517"><ele>53.4</ele><time>2026-04-25T06:49:32.885Z</time></trkpt><trkpt lat="42.1931233" lon="14.6085783"><ele>52.599999999999994</ele><time>2026-04-25T06:49:34.884Z</time></trkpt><trkpt lat="42.1931583" lon="14.60871"><ele>51.8</ele><time>2026-04-25T06:49:36.884Z</time></trkpt><trkpt lat="42.19319" lon="14.60883"><ele>51.0</ele><time>2026-04-25T06:49:38.885Z</time></trkpt><trkpt lat="42.193215" lon="14.6089567"><ele>53.199999999999996</ele><time>2026-04-25T06:49:40.885Z</time></trkpt><trkpt lat="42.1932433" lon="14.60909"><ele>55.4</ele><time>2026-04-25T06:49:42.885Z</time></trkpt><trkpt lat="42.1932683" lon="14.609215"><ele>57.6</ele><time>2026-04-25T06:49:44.885Z</time></trkpt><trkpt lat="42.1932983" lon="14.609325"><ele>59.8</ele><time>2026-04-25T06:49:46.884Z</time></trkpt><trkpt lat="42.1933367" lon="14.60943"><ele>62.0</ele><time>2026-04-25T06:49:48.885Z</time></trkpt><trkpt lat="42.1933867" lon="14.6095317"><ele>62.00000000000001</ele><time>2026-04-25T06:49:50.884Z</time></trkpt><trkpt lat="42.1934417" lon="14.6096233"><ele>62.0</ele><time>2026-04-25T06:49:52.885Z</time></trkpt><trkpt lat="42.1934933" lon="14.6097067"><ele>62.0</ele><time>2026-04-25T06:49:54.885Z</time></trkpt><trkpt lat="42.1935417" lon="14.6097733"><ele>62.0</ele><time>2026-04-25T06:49:56.885Z</time></trkpt><trkpt lat="42.1935917" lon="14.6098483"><ele>62.00000000000001</ele><time>2026-04-25T06:49:58.884Z</time></trkpt><trkpt lat="42.19364" lon="14.6099217"><ele>62.0</ele><time>2026-04-25T06:50:00.885Z</time></trkpt><trkpt lat="42.1937017" lon="14.610005"><ele>62.0</ele><time>2026-04-25T06:50:02.885Z</time></trkpt><trkpt lat="42.1937617" lon="14.61011"><ele>62.0</ele><time>2026-04-25T06:50:04.885Z</time></trkpt><trkpt lat="42.193815" lon="14.6102083"><ele>62.0</ele><time>2026-04-25T06:50:06.885Z</time></trkpt><trkpt lat="42.1938733" lon="14.6103167"><ele>62.0</ele><time>2026-04-25T06:50:08.884Z</time></trkpt><trkpt lat="42.1939367" lon="14.6104133"><ele>62.0</ele><time>2026-04-25T06:50:10.885Z</time></trkpt><trkpt lat="42.194" lon="14.610515"><ele>62.6</ele><time>2026-04-25T06:50:12.884Z</time></trkpt><trkpt lat="42.1940667" lon="14.6106233"><ele>63.2</ele><time>2026-04-25T06:50:14.885Z</time></trkpt><trkpt lat="42.1941417" lon="14.6107283"><ele>63.8</ele><time>2026-04-25T06:50:16.884Z</time></trkpt><trkpt lat="42.1942217" lon="14.61084"><ele>64.4</ele><time>2026-04-25T06:50:18.884Z</time></trkpt><trkpt lat="42.1943033" lon="14.610945"><ele>65.0</ele><time>2026-04-25T06:50:20.885Z</time></trkpt><trkpt lat="42.1943833" lon="14.61106"><ele>63.5</ele><time>2026-04-25T06:50:22.885Z</time></trkpt><trkpt lat="42.1944667" lon="14.6111733"><ele>62.0</ele><time>2026-04-25T06:50:24.885Z</time></trkpt><trkpt lat="42.1945467" lon="14.611285"><ele>60.5</ele><time>2026-04-25T06:50:26.884Z</time></trkpt><trkpt lat="42.19463" lon="14.6113983"><ele>59.0</ele><time>2026-04-25T06:50:28.885Z</time></trkpt><trkpt lat="42.1947133" lon="14.6115083"><ele>59.0</ele><time>2026-04-25T06:50:30.885Z</time></trkpt><trkpt lat="42.1947983" lon="14.6116217"><ele>59.0</ele><time>2026-04-25T06:50:32.885Z</time></trkpt><trkpt lat="42.1948767" lon="14.6117267"><ele>59.0</ele><time>2026-04-25T06:50:34.884Z</time></trkpt><trkpt lat="42.1949567" lon="14.6118333"><ele>59.0</ele><time>2026-04-25T06:50:36.885Z</time></trkpt><trkpt lat="42.1950367" lon="14.6119317"><ele>59.2</ele><time>2026-04-25T06:50:38.885Z</time></trkpt><trkpt lat="42.1951083" lon="14.6120283"><ele>59.400000000000006</ele><time>2026-04-25T06:50:40.885Z</time></trkpt><trkpt lat="42.1951817" lon="14.6121333"><ele>59.6</ele><time>2026-04-25T06:50:42.885Z</time></trkpt><trkpt lat="42.1952583" lon="14.6122517"><ele>59.8</ele><time>2026-04-25T06:50:44.884Z</time></trkpt><trkpt lat="42.1953033" lon="14.612315"><ele>60.0</ele><time>2026-04-25T06:50:45.884Z</time></trkpt><trkpt lat="42.1953567" lon="14.612375"><ele>60.0</ele><time>2026-04-25T06:50:46.885Z</time></trkpt><trkpt lat="42.195405" lon="14.612435"><ele>60.0</ele><time>2026-04-25T06:50:47.885Z</time></trkpt><trkpt lat="42.1955" lon="14.612545"><ele>60.0</ele><time>2026-04-25T06:50:49.885Z</time></trkpt><trkpt lat="42.1955867" lon="14.6126617"><ele>60.0</ele><time>2026-04-25T06:50:51.885Z</time></trkpt><trkpt lat="42.1956683" lon="14.6127783"><ele>60.0</ele><time>2026-04-25T06:50:53.885Z</time></trkpt><trkpt lat="42.19575" lon="14.6128883"><ele>60.0</ele><time>2026-04-25T06:50:55.885Z</time></trkpt><trkpt lat="42.1958333" lon="14.612995"><ele>60.0</ele><time>2026-04-25T06:50:57.885Z</time></trkpt><trkpt lat="42.19591" lon="14.6131017"><ele>60.0</ele><time>2026-04-25T06:50:59.884Z</time></trkpt><trkpt lat="42.1959867" lon="14.613205"><ele>60.0</ele><time>2026-04-25T06:51:01.885Z</time></trkpt><trkpt lat="42.1960817" lon="14.6133183"><ele>60.0</ele><time>2026-04-25T06:51:03.885Z</time></trkpt><trkpt lat="42.19613" lon="14.6133733"><ele>60.0</ele><time>2026-04-25T06:51:04.884Z</time></trkpt><trkpt lat="42.1961783" lon="14.6134283"><ele>60.0</ele><time>2026-04-25T06:51:05.885Z</time></trkpt><trkpt lat="42.1962633" lon="14.6135367"><ele>60.0</ele><time>2026-04-25T06:51:07.885Z</time></trkpt><trkpt lat="42.1963483" lon="14.61364"><ele>60.0</ele><time>2026-04-25T06:51:09.884Z</time></trkpt><trkpt lat="42.19643" lon="14.613735"><ele>60.0</ele><time>2026-04-25T06:51:11.885Z</time></trkpt><trkpt lat="42.196515" lon="14.6138333"><ele>60.0</ele><time>2026-04-25T06:51:13.885Z</time></trkpt><trkpt lat="42.1966067" lon="14.61394"><ele>60.0</ele><time>2026-04-25T06:51:15.885Z</time></trkpt><trkpt lat="42.1966933" lon="14.61404"><ele>60.0</ele><time>2026-04-25T06:51:17.885Z</time></trkpt><trkpt lat="42.19678" lon="14.6141417"><ele>60.0</ele><time>2026-04-25T06:51:19.885Z</time></trkpt><trkpt lat="42.19687" lon="14.6142367"><ele>60.0</ele><time>2026-04-25T06:51:21.885Z</time></trkpt><trkpt lat="42.1969667" lon="14.6143233"><ele>60.0</ele><time>2026-04-25T06:51:23.885Z</time></trkpt><trkpt lat="42.1970667" lon="14.6143983"><ele>60.0</ele><time>2026-04-25T06:51:25.885Z</time></trkpt><trkpt lat="42.1971683" lon="14.6144733"><ele>59.25</ele><time>2026-04-25T06:51:27.884Z</time></trkpt><trkpt lat="42.1972717" lon="14.6145383"><ele>58.5</ele><time>2026-04-25T06:51:29.884Z</time></trkpt><trkpt lat="42.1973733" lon="14.614585"><ele>57.75</ele><time>2026-04-25T06:51:31.885Z</time></trkpt><trkpt lat="42.19749" lon="14.61462"><ele>57.0</ele><time>2026-04-25T06:51:33.885Z</time></trkpt><trkpt lat="42.1976167" lon="14.6146367"><ele>57.0</ele><time>2026-04-25T06:51:35.885Z</time></trkpt><trkpt lat="42.197685" lon="14.6146367"><ele>56.99999999999999</ele><time>2026-04-25T06:51:36.885Z</time></trkpt><trkpt lat="42.1977533" lon="14.6146333"><ele>57.0</ele><time>2026-04-25T06:51:37.885Z</time></trkpt><trkpt lat="42.197825" lon="14.61463"><ele>57.0</ele><time>2026-04-25T06:51:38.885Z</time></trkpt><trkpt lat="42.1979" lon="14.6146233"><ele>56.99999999999999</ele><time>2026-04-25T06:51:39.885Z</time></trkpt><trkpt lat="42.197975" lon="14.6146083"><ele>57.0</ele><time>2026-04-25T06:51:40.884Z</time></trkpt><trkpt lat="42.1980533" lon="14.6145917"><ele>57.0</ele><time>2026-04-25T06:51:41.885Z</time></trkpt><trkpt lat="42.198135" lon="14.614575"><ele>56.0</ele><time>2026-04-25T06:51:42.885Z</time></trkpt><trkpt lat="42.1982167" lon="14.6145467"><ele>55.0</ele><time>2026-04-25T06:51:43.885Z</time></trkpt><trkpt lat="42.1982983" lon="14.61451"><ele>54.0</ele><time>2026-04-25T06:51:44.884Z</time></trkpt><trkpt lat="42.1983767" lon="14.614455"><ele>53.0</ele><time>2026-04-25T06:51:45.885Z</time></trkpt><trkpt lat="42.1984483" lon="14.614365"><ele>52.0</ele><time>2026-04-25T06:51:46.884Z</time></trkpt><trkpt lat="42.1984983" lon="14.61427"><ele>51.0</ele><time>2026-04-25T06:51:47.885Z</time></trkpt><trkpt lat="42.1985383" lon="14.614145"><ele>51.0</ele><time>2026-04-25T06:51:48.885Z</time></trkpt><trkpt lat="42.1985667" lon="14.6140133"><ele>51.0</ele><time>2026-04-25T06:51:49.884Z</time></trkpt><trkpt lat="42.198595" lon="14.613865"><ele>51.0</ele><time>2026-04-25T06:51:50.884Z</time></trkpt><trkpt lat="42.1986167" lon="14.613705"><ele>51.0</ele><time>2026-04-25T06:51:51.884Z</time></trkpt><trkpt lat="42.1986283" lon="14.61354"><ele>50.75</ele><time>2026-04-25T06:51:52.885Z</time></trkpt><trkpt lat="42.19863" lon="14.613375"><ele>50.5</ele><time>2026-04-25T06:51:53.885Z</time></trkpt><trkpt lat="42.1986233" lon="14.6132083"><ele>50.25</ele><time>2026-04-25T06:51:54.885Z</time></trkpt><trkpt lat="42.1986117" lon="14.6130417"><ele>50.0</ele><time>2026-04-25T06:51:55.885Z</time></trkpt><trkpt lat="42.198605" lon="14.6128717"><ele>49.00000000000001</ele><time>2026-04-25T06:51:56.885Z</time></trkpt><trkpt lat="42.1985967" lon="14.6127167"><ele>48.0</ele><time>2026-04-25T06:51:57.885Z</time></trkpt><trkpt lat="42.1985917" lon="14.612585"><ele>47.0</ele><time>2026-04-25T06:51:58.885Z</time></trkpt><trkpt lat="42.198585" lon="14.6124733"><ele>46.0</ele><time>2026-04-25T06:51:59.885Z</time></trkpt><trkpt lat="42.198585" lon="14.6123717"><ele>45.0</ele><time>2026-04-25T06:52:00.885Z</time></trkpt><trkpt lat="42.1986017" lon="14.6122783"><ele>44.0</ele><time>2026-04-25T06:52:01.884Z</time></trkpt><trkpt lat="42.1986367" lon="14.61219"><ele>44.0</ele><time>2026-04-25T06:52:02.884Z</time></trkpt><trkpt lat="42.1986933" lon="14.6121167"><ele>44.0</ele><time>2026-04-25T06:52:03.885Z</time></trkpt><trkpt lat="42.1987767" lon="14.612065"><ele>44.0</ele><time>2026-04-25T06:52:04.884Z</time></trkpt><trkpt lat="42.1988733" lon="14.6120367"><ele>44.0</ele><time>2026-04-25T06:52:05.885Z</time></trkpt><trkpt lat="42.1989683" lon="14.6120117"><ele>44.0</ele><time>2026-04-25T06:52:06.885Z</time></trkpt><trkpt lat="42.1990583" lon="14.61198"><ele>40.83333333333333</ele><time>2026-04-25T06:52:07.885Z</time></trkpt><trkpt lat="42.1991433" lon="14.6119433"><ele>37.666666666666664</ele><time>2026-04-25T06:52:08.885Z</time></trkpt><trkpt lat="42.19922" lon="14.6119083"><ele>34.5</ele><time>2026-04-25T06:52:09.884Z</time></trkpt><trkpt lat="42.199285" lon="14.611875"><ele>31.333333333333336</ele><time>2026-04-25T06:52:10.885Z</time></trkpt><trkpt lat="42.1993483" lon="14.6118167"><ele>28.166666666666668</ele><time>2026-04-25T06:52:11.885Z</time></trkpt><trkpt lat="42.1994033" lon="14.6117267"><ele>25.0</ele><time>2026-04-25T06:52:12.885Z</time></trkpt><trkpt lat="42.19945" lon="14.6116183"><ele>25.0</ele><time>2026-04-25T06:52:13.885Z</time></trkpt><trkpt lat="42.199485" lon="14.6114967"><ele>25.0</ele><time>2026-04-25T06:52:14.885Z</time></trkpt><trkpt lat="42.19952" lon="14.6113733"><ele>25.0</ele><time>2026-04-25T06:52:15.884Z</time></trkpt><trkpt lat="42.1995533" lon="14.61125"><ele>25.0</ele><time>2026-04-25T06:52:16.885Z</time></trkpt><trkpt lat="42.1995717" lon="14.611135"><ele>25.0</ele><time>2026-04-25T06:52:17.885Z</time></trkpt><trkpt lat="42.1995933" lon="14.61104"><ele>24.666666666666668</ele><time>2026-04-25T06:52:18.885Z</time></trkpt><trkpt lat="42.1996183" lon="14.6109533"><ele>24.333333333333336</ele><time>2026-04-25T06:52:19.885Z</time></trkpt><trkpt lat="42.1996683" lon="14.61082"><ele>24.0</ele><time>2026-04-25T06:52:21.885Z</time></trkpt><trkpt lat="42.1997067" lon="14.6107417"><ele>23.666666666666668</ele><time>2026-04-25T06:52:23.885Z</time></trkpt><trkpt lat="42.1997583" lon="14.6106517"><ele>23.333333333333336</ele><time>2026-04-25T06:52:27.885Z</time></trkpt><trkpt lat="42.1997533" lon="14.610555"><ele>23.0</ele><time>2026-04-25T06:52:38.885Z</time></trkpt><trkpt lat="42.1997683" lon="14.6104383"><ele>23.0</ele><time>2026-04-25T06:52:41.885Z</time></trkpt><trkpt lat="42.19976" lon="14.61035"><ele>23.0</ele><time>2026-04-25T06:52:43.885Z</time></trkpt><trkpt lat="42.19974" lon="14.610245"><ele>23.0</ele><time>2026-04-25T06:52:45.885Z</time></trkpt><trkpt lat="42.199715" lon="14.610125"><ele>23.0</ele><time>2026-04-25T06:52:47.885Z</time></trkpt><trkpt lat="42.1996867" lon="14.6099917"><ele>23.0</ele><time>2026-04-25T06:52:49.885Z</time></trkpt><trkpt lat="42.1996467" lon="14.60985"><ele>22.5</ele><time>2026-04-25T06:52:51.885Z</time></trkpt><trkpt lat="42.1996117" lon="14.6097117"><ele>22.0</ele><time>2026-04-25T06:52:53.885Z</time></trkpt><trkpt lat="42.199575" lon="14.60956"><ele>21.5</ele><time>2026-04-25T06:52:55.885Z</time></trkpt><trkpt lat="42.1995333" lon="14.6094133"><ele>21.0</ele><time>2026-04-25T06:52:57.885Z</time></trkpt><trkpt lat="42.1994967" lon="14.60927"><ele>20.6</ele><time>2026-04-25T06:52:59.885Z</time></trkpt><trkpt lat="42.19946" lon="14.6091267"><ele>20.200000000000003</ele><time>2026-04-25T06:53:01.885Z</time></trkpt><trkpt lat="42.1994383" lon="14.6089767"><ele>19.799999999999997</ele><time>2026-04-25T06:53:03.885Z</time></trkpt><trkpt lat="42.1994067" lon="14.6088333"><ele>19.4</ele><time>2026-04-25T06:53:05.884Z</time></trkpt><trkpt lat="42.1993733" lon="14.6086883"><ele>19.0</ele><time>2026-04-25T06:53:07.885Z</time></trkpt><trkpt lat="42.1993433" lon="14.60855"><ele>17.75</ele><time>2026-04-25T06:53:09.885Z</time></trkpt><trkpt lat="42.1993133" lon="14.6084067"><ele>16.5</ele><time>2026-04-25T06:53:11.885Z</time></trkpt><trkpt lat="42.19928" lon="14.6082567"><ele>15.25</ele><time>2026-04-25T06:53:13.885Z</time></trkpt><trkpt lat="42.1992467" lon="14.6080983"><ele>14.0</ele><time>2026-04-25T06:53:15.885Z</time></trkpt><trkpt lat="42.1992133" lon="14.6079467"><ele>13.799999999999999</ele><time>2026-04-25T06:53:17.885Z</time></trkpt><trkpt lat="42.1991817" lon="14.6077967"><ele>13.599999999999998</ele><time>2026-04-25T06:53:19.885Z</time></trkpt><trkpt lat="42.19915" lon="14.6076483"><ele>13.4</ele><time>2026-04-25T06:53:21.885Z</time></trkpt><trkpt lat="42.1991283" lon="14.6075683"><ele>13.2</ele><time>2026-04-25T06:53:22.885Z</time></trkpt><trkpt lat="42.199085" lon="14.60742"><ele>13.0</ele><time>2026-04-25T06:53:24.884Z</time></trkpt><trkpt lat="42.1990483" lon="14.6072717"><ele>13.0</ele><time>2026-04-25T06:53:26.884Z</time></trkpt><trkpt lat="42.19902" lon="14.6071183"><ele>13.0</ele><time>2026-04-25T06:53:28.885Z</time></trkpt><trkpt lat="42.19899" lon="14.6069733"><ele>13.0</ele><time>2026-04-25T06:53:30.884Z</time></trkpt><trkpt lat="42.1989567" lon="14.6068283"><ele>13.0</ele><time>2026-04-25T06:53:32.885Z</time></trkpt><trkpt lat="42.1989217" lon="14.6066767"><ele>14.5</ele><time>2026-04-25T06:53:34.884Z</time></trkpt><trkpt lat="42.1988783" lon="14.606525"><ele>16.0</ele><time>2026-04-25T06:53:36.885Z</time></trkpt><trkpt lat="42.1988383" lon="14.6063783"><ele>17.5</ele><time>2026-04-25T06:53:38.885Z</time></trkpt><trkpt lat="42.1988017" lon="14.6062317"><ele>19.0</ele><time>2026-04-25T06:53:40.884Z</time></trkpt><trkpt lat="42.1987717" lon="14.6060883"><ele>19.25</ele><time>2026-04-25T06:53:42.885Z</time></trkpt><trkpt lat="42.1987417" lon="14.605935"><ele>19.5</ele><time>2026-04-25T06:53:44.884Z</time></trkpt><trkpt lat="42.1987167" lon="14.6057783"><ele>19.75</ele><time>2026-04-25T06:53:46.884Z</time></trkpt><trkpt lat="42.19869" lon="14.60563"><ele>20.0</ele><time>2026-04-25T06:53:48.884Z</time></trkpt><trkpt lat="42.1986633" lon="14.6054817"><ele>19.75</ele><time>2026-04-25T06:53:50.885Z</time></trkpt><trkpt lat="42.1986433" lon="14.6053217"><ele>19.5</ele><time>2026-04-25T06:53:52.885Z</time></trkpt><trkpt lat="42.1986267" lon="14.60517"><ele>19.25</ele><time>2026-04-25T06:53:54.885Z</time></trkpt><trkpt lat="42.198615" lon="14.6050133"><ele>19.0</ele><time>2026-04-25T06:53:56.885Z</time></trkpt><trkpt lat="42.1986067" lon="14.6048517"><ele>19.0</ele><time>2026-04-25T06:53:58.884Z</time></trkpt><trkpt lat="42.19861" lon="14.6046933"><ele>19.0</ele><time>2026-04-25T06:54:00.884Z</time></trkpt><trkpt lat="42.198615" lon="14.6045367"><ele>19.0</ele><time>2026-04-25T06:54:02.884Z</time></trkpt><trkpt lat="42.19862" lon="14.604375"><ele>19.0</ele><time>2026-04-25T06:54:04.884Z</time></trkpt><trkpt lat="42.1986333" lon="14.6042183"><ele>18.666666666666664</ele><time>2026-04-25T06:54:06.884Z</time></trkpt><trkpt lat="42.1986517" lon="14.6040567"><ele>18.333333333333332</ele><time>2026-04-25T06:54:08.885Z</time></trkpt><trkpt lat="42.198675" lon="14.603885"><ele>18.0</ele><time>2026-04-25T06:54:10.885Z</time></trkpt><trkpt lat="42.1986867" lon="14.6037983"><ele>17.666666666666668</ele><time>2026-04-25T06:54:11.885Z</time></trkpt><trkpt lat="42.1987" lon="14.603715"><ele>17.333333333333336</ele><time>2026-04-25T06:54:12.884Z</time></trkpt><trkpt lat="42.1987133" lon="14.60363"><ele>17.0</ele><time>2026-04-25T06:54:13.884Z</time></trkpt><trkpt lat="42.198725" lon="14.6035433"><ele>17.0</ele><time>2026-04-25T06:54:14.884Z</time></trkpt><trkpt lat="42.19874" lon="14.60346"><ele>17.0</ele><time>2026-04-25T06:54:15.885Z</time></trkpt><trkpt lat="42.1987617" lon="14.6032917"><ele>17.0</ele><time>2026-04-25T06:54:17.885Z</time></trkpt><trkpt lat="42.19877" lon="14.6032033"><ele>17.0</ele><time>2026-04-25T06:54:18.884Z</time></trkpt><trkpt lat="42.19879" lon="14.60304"><ele>17.0</ele><time>2026-04-25T06:54:20.884Z</time></trkpt><trkpt lat="42.1988167" lon="14.6028733"><ele>16.5</ele><time>2026-04-25T06:54:22.885Z</time></trkpt><trkpt lat="42.1988367" lon="14.6027133"><ele>16.0</ele><time>2026-04-25T06:54:24.884Z</time></trkpt><trkpt lat="42.198855" lon="14.6025533"><ele>15.5</ele><time>2026-04-25T06:54:26.884Z</time></trkpt><trkpt lat="42.198875" lon="14.6023917"><ele>15.0</ele><time>2026-04-25T06:54:28.885Z</time></trkpt><trkpt lat="42.1988983" lon="14.6022367"><ele>15.0</ele><time>2026-04-25T06:54:30.885Z</time></trkpt><trkpt lat="42.1989217" lon="14.6020817"><ele>15.0</ele><time>2026-04-25T06:54:32.884Z</time></trkpt><trkpt lat="42.1989517" lon="14.6019267"><ele>15.0</ele><time>2026-04-25T06:54:34.885Z</time></trkpt><trkpt lat="42.19898" lon="14.6017683"><ele>15.0</ele><time>2026-04-25T06:54:36.885Z</time></trkpt><trkpt lat="42.1990117" lon="14.60161"><ele>14.0</ele><time>2026-04-25T06:54:38.885Z</time></trkpt><trkpt lat="42.1990467" lon="14.6014583"><ele>13.0</ele><time>2026-04-25T06:54:40.885Z</time></trkpt><trkpt lat="42.1990933" lon="14.6013067"><ele>12.0</ele><time>2026-04-25T06:54:42.885Z</time></trkpt><trkpt lat="42.1991433" lon="14.6011533"><ele>11.0</ele><time>2026-04-25T06:54:44.885Z</time></trkpt><trkpt lat="42.1992017" lon="14.60101"><ele>11.0</ele><time>2026-04-25T06:54:46.885Z</time></trkpt><trkpt lat="42.1992667" lon="14.600875"><ele>11.0</ele><time>2026-04-25T06:54:48.885Z</time></trkpt><trkpt lat="42.19933" lon="14.600745"><ele>11.0</ele><time>2026-04-25T06:54:50.885Z</time></trkpt><trkpt lat="42.1994067" lon="14.6006117"><ele>11.0</ele><time>2026-04-25T06:54:52.884Z</time></trkpt><trkpt lat="42.199485" lon="14.60048"><ele>11.0</ele><time>2026-04-25T06:54:54.884Z</time></trkpt><trkpt lat="42.1995683" lon="14.60036"><ele>11.0</ele><time>2026-04-25T06:54:56.884Z</time></trkpt><trkpt lat="42.19966" lon="14.6002583"><ele>11.0</ele><time>2026-04-25T06:54:58.885Z</time></trkpt><trkpt lat="42.1997517" lon="14.60016"><ele>11.0</ele><time>2026-04-25T06:55:00.885Z</time></trkpt><trkpt lat="42.1998517" lon="14.6000667"><ele>10.4</ele><time>2026-04-25T06:55:02.885Z</time></trkpt><trkpt lat="42.1999033" lon="14.600015"><ele>9.8</ele><time>2026-04-25T06:55:03.885Z</time></trkpt><trkpt lat="42.2000017" lon="14.59992"><ele>9.200000000000001</ele><time>2026-04-25T06:55:05.884Z</time></trkpt><trkpt lat="42.200105" lon="14.599835"><ele>8.600000000000001</ele><time>2026-04-25T06:55:07.885Z</time></trkpt><trkpt lat="42.2002017" lon="14.5997433"><ele>8.0</ele><time>2026-04-25T06:55:09.885Z</time></trkpt><trkpt lat="42.2002983" lon="14.5996567"><ele>8.0</ele><time>2026-04-25T06:55:11.885Z</time></trkpt><trkpt lat="42.200395" lon="14.5995717"><ele>8.0</ele><time>2026-04-25T06:55:13.884Z</time></trkpt><trkpt lat="42.2004883" lon="14.599485"><ele>8.0</ele><time>2026-04-25T06:55:15.885Z</time></trkpt><trkpt lat="42.2005783" lon="14.5994033"><ele>8.0</ele><time>2026-04-25T06:55:17.885Z</time></trkpt><trkpt lat="42.2006683" lon="14.5993233"><ele>8.0</ele><time>2026-04-25T06:55:19.885Z</time></trkpt><trkpt lat="42.2007633" lon="14.5992383"><ele>7.4</ele><time>2026-04-25T06:55:21.885Z</time></trkpt><trkpt lat="42.2008667" lon="14.5991483"><ele>6.800000000000001</ele><time>2026-04-25T06:55:23.884Z</time></trkpt><trkpt lat="42.2009583" lon="14.5990633"><ele>6.2</ele><time>2026-04-25T06:55:25.884Z</time></trkpt><trkpt lat="42.2010433" lon="14.59898"><ele>5.6</ele><time>2026-04-25T06:55:27.885Z</time></trkpt><trkpt lat="42.201135" lon="14.5989083"><ele>5.0</ele><time>2026-04-25T06:55:29.885Z</time></trkpt><trkpt lat="42.2012267" lon="14.5988283"><ele>5.0</ele><time>2026-04-25T06:55:31.885Z</time></trkpt><trkpt lat="42.2013183" lon="14.5987467"><ele>5.0</ele><time>2026-04-25T06:55:33.885Z</time></trkpt><trkpt lat="42.20141" lon="14.598665"><ele>5.0</ele><time>2026-04-25T06:55:35.884Z</time></trkpt><trkpt lat="42.2015033" lon="14.5985833"><ele>5.0</ele><time>2026-04-25T06:55:37.884Z</time></trkpt><trkpt lat="42.2015983" lon="14.5985117"><ele>5.0</ele><time>2026-04-25T06:55:39.885Z</time></trkpt><trkpt lat="42.2016917" lon="14.5984333"><ele>5.2</ele><time>2026-04-25T06:55:41.884Z</time></trkpt><trkpt lat="42.20178" lon="14.59837"><ele>5.4</ele><time>2026-04-25T06:55:43.885Z</time></trkpt><trkpt lat="42.2018767" lon="14.5983133"><ele>5.6</ele><time>2026-04-25T06:55:45.885Z</time></trkpt><trkpt lat="42.201975" lon="14.5982517"><ele>5.8</ele><time>2026-04-25T06:55:47.885Z</time></trkpt><trkpt lat="42.2020717" lon="14.598185"><ele>6.0</ele><time>2026-04-25T06:55:49.885Z</time></trkpt><trkpt lat="42.2021583" lon="14.5981317"><ele>6.0</ele><time>2026-04-25T06:55:51.885Z</time></trkpt><trkpt lat="42.202245" lon="14.5980617"><ele>6.0</ele><time>2026-04-25T06:55:53.884Z</time></trkpt><trkpt lat="42.2023467" lon="14.5979917"><ele>6.0</ele><time>2026-04-25T06:55:55.884Z</time></trkpt><trkpt lat="42.20245" lon="14.5979217"><ele>6.0</ele><time>2026-04-25T06:55:57.885Z</time></trkpt><trkpt lat="42.2025467" lon="14.59786"><ele>6.0</ele><time>2026-04-25T06:55:59.884Z</time></trkpt><trkpt lat="42.20265" lon="14.5977967"><ele>5.6</ele><time>2026-04-25T06:56:01.884Z</time></trkpt><trkpt lat="42.202745" lon="14.5977317"><ele>5.199999999999999</ele><time>2026-04-25T06:56:03.885Z</time></trkpt><trkpt lat="42.2028017" lon="14.5976883"><ele>4.800000000000001</ele><time>2026-04-25T06:56:04.884Z</time></trkpt><trkpt lat="42.2029067" lon="14.59762"><ele>4.4</ele><time>2026-04-25T06:56:06.884Z</time></trkpt><trkpt lat="42.203015" lon="14.597545"><ele>4.0</ele><time>2026-04-25T06:56:08.885Z</time></trkpt><trkpt lat="42.2030717" lon="14.597505"><ele>3.9999999999999996</ele><time>2026-04-25T06:56:09.885Z</time></trkpt><trkpt lat="42.20313" lon="14.5974667"><ele>4.0</ele><time>2026-04-25T06:56:10.885Z</time></trkpt><trkpt lat="42.203245" lon="14.5973933"><ele>4.0</ele><time>2026-04-25T06:56:12.885Z</time></trkpt><trkpt lat="42.203305" lon="14.5973517"><ele>4.0</ele><time>2026-04-25T06:56:13.885Z</time></trkpt><trkpt lat="42.2033633" lon="14.5973167"><ele>3.9999999999999996</ele><time>2026-04-25T06:56:14.884Z</time></trkpt><trkpt lat="42.2034233" lon="14.597275"><ele>4.0</ele><time>2026-04-25T06:56:15.884Z</time></trkpt><trkpt lat="42.20349" lon="14.5972333"><ele>4.142857142857142</ele><time>2026-04-25T06:56:16.885Z</time></trkpt><trkpt lat="42.2035533" lon="14.5971967"><ele>4.285714285714286</ele><time>2026-04-25T06:56:17.885Z</time></trkpt><trkpt lat="42.20362" lon="14.5971583"><ele>4.428571428571429</ele><time>2026-04-25T06:56:18.884Z</time></trkpt><trkpt lat="42.2036867" lon="14.59712"><ele>4.571428571428571</ele><time>2026-04-25T06:56:19.884Z</time></trkpt><trkpt lat="42.2037533" lon="14.5970767"><ele>4.714285714285714</ele><time>2026-04-25T06:56:20.884Z</time></trkpt><trkpt lat="42.203815" lon="14.597035"><ele>4.857142857142857</ele><time>2026-04-25T06:56:21.884Z</time></trkpt><trkpt lat="42.203875" lon="14.59699"><ele>5.0</ele><time>2026-04-25T06:56:22.885Z</time></trkpt><trkpt lat="42.2039367" lon="14.5969533"><ele>5.333333333333334</ele><time>2026-04-25T06:56:23.885Z</time></trkpt><trkpt lat="42.204" lon="14.596915"><ele>5.666666666666667</ele><time>2026-04-25T06:56:24.885Z</time></trkpt><trkpt lat="42.2040583" lon="14.5968767"><ele>6.0</ele><time>2026-04-25T06:56:25.885Z</time></trkpt><trkpt lat="42.2041183" lon="14.5968367"><ele>6.333333333333334</ele><time>2026-04-25T06:56:26.885Z</time></trkpt><trkpt lat="42.2041767" lon="14.5968"><ele>6.666666666666667</ele><time>2026-04-25T06:56:27.884Z</time></trkpt><trkpt lat="42.2042867" lon="14.5967617"><ele>7.0</ele><time>2026-04-25T06:56:29.884Z</time></trkpt><trkpt lat="42.2044" lon="14.596745"><ele>7.0</ele><time>2026-04-25T06:56:31.885Z</time></trkpt><trkpt lat="42.2045017" lon="14.59669"><ele>6.999999999999999</ele><time>2026-04-25T06:56:33.885Z</time></trkpt><trkpt lat="42.2045933" lon="14.5965867"><ele>6.999999999999999</ele><time>2026-04-25T06:56:35.885Z</time></trkpt><trkpt lat="42.2046767" lon="14.5964833"><ele>7.0</ele><time>2026-04-25T06:56:37.885Z</time></trkpt><trkpt lat="42.2047617" lon="14.5963983"><ele>7.0</ele><time>2026-04-25T06:56:39.884Z</time></trkpt><trkpt lat="42.204855" lon="14.5963383"><ele>8.0</ele><time>2026-04-25T06:56:41.885Z</time></trkpt><trkpt lat="42.204945" lon="14.5962767"><ele>9.0</ele><time>2026-04-25T06:56:43.885Z</time></trkpt><trkpt lat="42.2050383" lon="14.5962133"><ele>10.0</ele><time>2026-04-25T06:56:45.885Z</time></trkpt><trkpt lat="42.2051233" lon="14.5961483"><ele>11.0</ele><time>2026-04-25T06:56:47.885Z</time></trkpt><trkpt lat="42.2052083" lon="14.5960883"><ele>12.0</ele><time>2026-04-25T06:56:49.885Z</time></trkpt><trkpt lat="42.2052933" lon="14.5960267"><ele>12.0</ele><time>2026-04-25T06:56:51.885Z</time></trkpt><trkpt lat="42.2053783" lon="14.5959667"><ele>12.0</ele><time>2026-04-25T06:56:53.885Z</time></trkpt><trkpt lat="42.205465" lon="14.5959083"><ele>12.0</ele><time>2026-04-25T06:56:55.885Z</time></trkpt><trkpt lat="42.2055483" lon="14.5958483"><ele>12.0</ele><time>2026-04-25T06:56:57.885Z</time></trkpt><trkpt lat="42.2056317" lon="14.5958"><ele>12.0</ele><time>2026-04-25T06:56:59.885Z</time></trkpt><trkpt lat="42.2057183" lon="14.595745"><ele>12.0</ele><time>2026-04-25T06:57:01.884Z</time></trkpt><trkpt lat="42.205805" lon="14.595695"><ele>12.0</ele><time>2026-04-25T06:57:03.885Z</time></trkpt><trkpt lat="42.20589" lon="14.5956383"><ele>12.0</ele><time>2026-04-25T06:57:05.885Z</time></trkpt><trkpt lat="42.2059767" lon="14.59558"><ele>12.0</ele><time>2026-04-25T06:57:07.885Z</time></trkpt><trkpt lat="42.2060617" lon="14.595525"><ele>12.0</ele><time>2026-04-25T06:57:09.885Z</time></trkpt><trkpt lat="42.2061533" lon="14.5954617"><ele>12.0</ele><time>2026-04-25T06:57:11.885Z</time></trkpt><trkpt lat="42.20624" lon="14.595405"><ele>12.0</ele><time>2026-04-25T06:57:13.885Z</time></trkpt><trkpt lat="42.2063183" lon="14.5953533"><ele>12.0</ele><time>2026-04-25T06:57:15.884Z</time></trkpt><trkpt lat="42.2063983" lon="14.5952983"><ele>12.0</ele><time>2026-04-25T06:57:17.885Z</time></trkpt><trkpt lat="42.2064833" lon="14.5952483"><ele>12.0</ele><time>2026-04-25T06:57:19.884Z</time></trkpt><trkpt lat="42.20657" lon="14.595195"><ele>13.0</ele><time>2026-04-25T06:57:21.885Z</time></trkpt><trkpt lat="42.206655" lon="14.5951367"><ele>14.0</ele><time>2026-04-25T06:57:23.885Z</time></trkpt><trkpt lat="42.2067367" lon="14.59508"><ele>15.0</ele><time>2026-04-25T06:57:25.885Z</time></trkpt><trkpt lat="42.2068267" lon="14.595025"><ele>16.0</ele><time>2026-04-25T06:57:27.885Z</time></trkpt><trkpt lat="42.2069117" lon="14.5949633"><ele>17.0</ele><time>2026-04-25T06:57:29.885Z</time></trkpt><trkpt lat="42.206995" lon="14.594895"><ele>17.0</ele><time>2026-04-25T06:57:31.884Z</time></trkpt><trkpt lat="42.2070783" lon="14.5948367"><ele>17.0</ele><time>2026-04-25T06:57:33.885Z</time></trkpt><trkpt lat="42.2071583" lon="14.5947717"><ele>17.0</ele><time>2026-04-25T06:57:35.884Z</time></trkpt><trkpt lat="42.2072367" lon="14.59471"><ele>17.0</ele><time>2026-04-25T06:57:37.884Z</time></trkpt><trkpt lat="42.2073183" lon="14.594645"><ele>17.0</ele><time>2026-04-25T06:57:39.884Z</time></trkpt><trkpt lat="42.2073967" lon="14.59458"><ele>17.8</ele><time>2026-04-25T06:57:41.885Z</time></trkpt><trkpt lat="42.2074767" lon="14.59451"><ele>18.6</ele><time>2026-04-25T06:57:43.885Z</time></trkpt><trkpt lat="42.20755" lon="14.594435"><ele>19.400000000000002</ele><time>2026-04-25T06:57:45.885Z</time></trkpt><trkpt lat="42.2076317" lon="14.594365"><ele>20.2</ele><time>2026-04-25T06:57:47.885Z</time></trkpt><trkpt lat="42.2077083" lon="14.5942833"><ele>21.0</ele><time>2026-04-25T06:57:49.884Z</time></trkpt><trkpt lat="42.2077767" lon="14.5942"><ele>21.0</ele><time>2026-04-25T06:57:51.884Z</time></trkpt><trkpt lat="42.20785" lon="14.59412"><ele>21.0</ele><time>2026-04-25T06:57:53.885Z</time></trkpt><trkpt lat="42.2079233" lon="14.5940433"><ele>21.0</ele><time>2026-04-25T06:57:55.885Z</time></trkpt><trkpt lat="42.2079867" lon="14.5939683"><ele>21.0</ele><time>2026-04-25T06:57:57.884Z</time></trkpt><trkpt lat="42.2080567" lon="14.5938967"><ele>21.0</ele><time>2026-04-25T06:57:59.885Z</time></trkpt><trkpt lat="42.208125" lon="14.593835"><ele>21.0</ele><time>2026-04-25T06:58:01.885Z</time></trkpt><trkpt lat="42.2082033" lon="14.593755"><ele>20.6</ele><time>2026-04-25T06:58:03.885Z</time></trkpt><trkpt lat="42.208285" lon="14.5936733"><ele>20.200000000000003</ele><time>2026-04-25T06:58:05.884Z</time></trkpt><trkpt lat="42.2083617" lon="14.5935767"><ele>19.799999999999997</ele><time>2026-04-25T06:58:07.885Z</time></trkpt><trkpt lat="42.2084417" lon="14.5934917"><ele>19.4</ele><time>2026-04-25T06:58:09.885Z</time></trkpt><trkpt lat="42.208525" lon="14.5934083"><ele>19.0</ele><time>2026-04-25T06:58:11.885Z</time></trkpt><trkpt lat="42.208605" lon="14.593325"><ele>19.0</ele><time>2026-04-25T06:58:13.885Z</time></trkpt><trkpt lat="42.20868" lon="14.5932467"><ele>19.0</ele><time>2026-04-25T06:58:15.884Z</time></trkpt><trkpt lat="42.2087533" lon="14.5931667"><ele>19.0</ele><time>2026-04-25T06:58:17.885Z</time></trkpt><trkpt lat="42.2088267" lon="14.593085"><ele>19.0</ele><time>2026-04-25T06:58:19.885Z</time></trkpt><trkpt lat="42.2088933" lon="14.59301"><ele>19.0</ele><time>2026-04-25T06:58:21.885Z</time></trkpt><trkpt lat="42.2089683" lon="14.5929233"><ele>20.0</ele><time>2026-04-25T06:58:23.884Z</time></trkpt><trkpt lat="42.209045" lon="14.592835"><ele>21.0</ele><time>2026-04-25T06:58:25.885Z</time></trkpt><trkpt lat="42.2091183" lon="14.5927467"><ele>22.0</ele><time>2026-04-25T06:58:27.885Z</time></trkpt><trkpt lat="42.2091817" lon="14.5926517"><ele>23.0</ele><time>2026-04-25T06:58:29.885Z</time></trkpt><trkpt lat="42.20925" lon="14.5925533"><ele>24.0</ele><time>2026-04-25T06:58:31.885Z</time></trkpt><trkpt lat="42.2093283" lon="14.592445"><ele>24.0</ele><time>2026-04-25T06:58:33.884Z</time></trkpt><trkpt lat="42.2094083" lon="14.5923267"><ele>24.0</ele><time>2026-04-25T06:58:35.884Z</time></trkpt><trkpt lat="42.2094767" lon="14.5922083"><ele>24.0</ele><time>2026-04-25T06:58:37.884Z</time></trkpt><trkpt lat="42.2095433" lon="14.5920767"><ele>24.0</ele><time>2026-04-25T06:58:39.884Z</time></trkpt><trkpt lat="42.20958" lon="14.592005"><ele>24.0</ele><time>2026-04-25T06:58:40.885Z</time></trkpt><trkpt lat="42.20965" lon="14.5918733"><ele>25.799999999999997</ele><time>2026-04-25T06:58:42.885Z</time></trkpt><trkpt lat="42.2097217" lon="14.5917483"><ele>27.599999999999998</ele><time>2026-04-25T06:58:44.885Z</time></trkpt><trkpt lat="42.20979" lon="14.5916133"><ele>29.4</ele><time>2026-04-25T06:58:46.885Z</time></trkpt><trkpt lat="42.2098683" lon="14.59148"><ele>31.2</ele><time>2026-04-25T06:58:48.885Z</time></trkpt><trkpt lat="42.2099133" lon="14.5914183"><ele>33.0</ele><time>2026-04-25T06:58:49.885Z</time></trkpt><trkpt lat="42.2099783" lon="14.59128"><ele>30.5</ele><time>2026-04-25T06:58:51.885Z</time></trkpt><trkpt lat="42.21004" lon="14.5911383"><ele>28.0</ele><time>2026-04-25T06:58:53.885Z</time></trkpt><trkpt lat="42.2101117" lon="14.591005"><ele>25.5</ele><time>2026-04-25T06:58:55.884Z</time></trkpt><trkpt lat="42.2101817" lon="14.5908633"><ele>23.0</ele><time>2026-04-25T06:58:57.885Z</time></trkpt><trkpt lat="42.2102567" lon="14.590735"><ele>23.0</ele><time>2026-04-25T06:58:59.885Z</time></trkpt><trkpt lat="42.2103367" lon="14.5906083"><ele>23.0</ele><time>2026-04-25T06:59:01.885Z</time></trkpt><trkpt lat="42.2104017" lon="14.59048"><ele>23.0</ele><time>2026-04-25T06:59:03.885Z</time></trkpt><trkpt lat="42.2104383" lon="14.5904083"><ele>23.0</ele><time>2026-04-25T06:59:04.885Z</time></trkpt><trkpt lat="42.2105033" lon="14.59027"><ele>23.0</ele><time>2026-04-25T06:59:06.885Z</time></trkpt><trkpt lat="42.2105717" lon="14.5901533"><ele>24.599999999999998</ele><time>2026-04-25T06:59:08.885Z</time></trkpt><trkpt lat="42.2106433" lon="14.59002"><ele>26.2</ele><time>2026-04-25T06:59:10.884Z</time></trkpt><trkpt lat="42.21069" lon="14.5899433"><ele>27.8</ele><time>2026-04-25T06:59:11.885Z</time></trkpt><trkpt lat="42.2107567" lon="14.5898033"><ele>29.4</ele><time>2026-04-25T06:59:13.885Z</time></trkpt><trkpt lat="42.21079" lon="14.5897283"><ele>31.0</ele><time>2026-04-25T06:59:14.884Z</time></trkpt><trkpt lat="42.21086" lon="14.58959"><ele>29.6</ele><time>2026-04-25T06:59:16.884Z</time></trkpt><trkpt lat="42.2109317" lon="14.5894583"><ele>28.200000000000003</ele><time>2026-04-25T06:59:18.885Z</time></trkpt><trkpt lat="42.2110033" lon="14.5893267"><ele>26.799999999999997</ele><time>2026-04-25T06:59:20.885Z</time></trkpt><trkpt lat="42.2110783" lon="14.5891933"><ele>25.4</ele><time>2026-04-25T06:59:22.884Z</time></trkpt><trkpt lat="42.2111167" lon="14.589125"><ele>24.0</ele><time>2026-04-25T06:59:23.885Z</time></trkpt><trkpt lat="42.21119" lon="14.5889817"><ele>24.0</ele><time>2026-04-25T06:59:25.885Z</time></trkpt><trkpt lat="42.2112567" lon="14.5888467"><ele>24.0</ele><time>2026-04-25T06:59:27.884Z</time></trkpt><trkpt lat="42.211325" lon="14.588705"><ele>24.0</ele><time>2026-04-25T06:59:29.884Z</time></trkpt><trkpt lat="42.211385" lon="14.58857"><ele>24.0</ele><time>2026-04-25T06:59:31.885Z</time></trkpt><trkpt lat="42.21145" lon="14.5884433"><ele>21.75</ele><time>2026-04-25T06:59:33.885Z</time></trkpt><trkpt lat="42.211515" lon="14.588305"><ele>19.5</ele><time>2026-04-25T06:59:35.885Z</time></trkpt><trkpt lat="42.2115683" lon="14.5881733"><ele>17.25</ele><time>2026-04-25T06:59:37.885Z</time></trkpt><trkpt lat="42.211625" lon="14.588035"><ele>15.0</ele><time>2026-04-25T06:59:39.885Z</time></trkpt><trkpt lat="42.211675" lon="14.5878883"><ele>16.0</ele><time>2026-04-25T06:59:41.885Z</time></trkpt><trkpt lat="42.21173" lon="14.5877317"><ele>17.0</ele><time>2026-04-25T06:59:43.885Z</time></trkpt><trkpt lat="42.2117583" lon="14.587645"><ele>18.0</ele><time>2026-04-25T06:59:44.884Z</time></trkpt><trkpt lat="42.211825" lon="14.587505"><ele>19.0</ele><time>2026-04-25T06:59:46.885Z</time></trkpt><trkpt lat="42.2118567" lon="14.5874283"><ele>20.0</ele><time>2026-04-25T06:59:47.885Z</time></trkpt><trkpt lat="42.2118867" lon="14.5873417"><ele>20.0</ele><time>2026-04-25T06:59:48.885Z</time></trkpt><trkpt lat="42.2119267" lon="14.5872667"><ele>20.0</ele><time>2026-04-25T06:59:49.885Z</time></trkpt><trkpt lat="42.211975" lon="14.58719"><ele>20.0</ele><time>2026-04-25T06:59:50.885Z</time></trkpt><trkpt lat="42.2120083" lon="14.5871067"><ele>20.0</ele><time>2026-04-25T06:59:51.885Z</time></trkpt><trkpt lat="42.21205" lon="14.587035"><ele>20.0</ele><time>2026-04-25T06:59:52.885Z</time></trkpt><trkpt lat="42.2120867" lon="14.58696"><ele>20.0</ele><time>2026-04-25T06:59:53.885Z</time></trkpt><trkpt lat="42.21215" lon="14.5868233"><ele>21.25</ele><time>2026-04-25T06:59:55.885Z</time></trkpt><trkpt lat="42.212225" lon="14.5866917"><ele>22.5</ele><time>2026-04-25T06:59:57.884Z</time></trkpt><trkpt lat="42.2122917" lon="14.586565"><ele>23.75</ele><time>2026-04-25T06:59:59.885Z</time></trkpt><trkpt lat="42.2123567" lon="14.5864567"><ele>25.0</ele><time>2026-04-25T07:00:01.885Z</time></trkpt><trkpt lat="42.2124233" lon="14.5863317"><ele>23.2</ele><time>2026-04-25T07:00:03.884Z</time></trkpt><trkpt lat="42.2124933" lon="14.58621"><ele>21.4</ele><time>2026-04-25T07:00:05.885Z</time></trkpt><trkpt lat="42.212555" lon="14.5860967"><ele>19.6</ele><time>2026-04-25T07:00:07.885Z</time></trkpt><trkpt lat="42.212615" lon="14.5859933"><ele>17.8</ele><time>2026-04-25T07:00:09.885Z</time></trkpt><trkpt lat="42.2126767" lon="14.5858917"><ele>16.0</ele><time>2026-04-25T07:00:11.885Z</time></trkpt><trkpt lat="42.21274" lon="14.5857767"><ele>16.0</ele><time>2026-04-25T07:00:13.884Z</time></trkpt><trkpt lat="42.2128017" lon="14.585665"><ele>16.0</ele><time>2026-04-25T07:00:15.885Z</time></trkpt><trkpt lat="42.2128583" lon="14.5855283"><ele>16.0</ele><time>2026-04-25T07:00:17.885Z</time></trkpt><trkpt lat="42.2129117" lon="14.585405"><ele>16.0</ele><time>2026-04-25T07:00:19.885Z</time></trkpt><trkpt lat="42.21296" lon="14.5852867"><ele>16.0</ele><time>2026-04-25T07:00:21.885Z</time></trkpt><trkpt lat="42.21301" lon="14.585155"><ele>15.200000000000001</ele><time>2026-04-25T07:00:23.884Z</time></trkpt><trkpt lat="42.2130583" lon="14.5850333"><ele>14.400000000000002</ele><time>2026-04-25T07:00:25.885Z</time></trkpt><trkpt lat="42.2131017" lon="14.584895"><ele>13.6</ele><time>2026-04-25T07:00:27.884Z</time></trkpt><trkpt lat="42.2131533" lon="14.5847633"><ele>12.8</ele><time>2026-04-25T07:00:29.885Z</time></trkpt><trkpt lat="42.2132017" lon="14.5846283"><ele>12.0</ele><time>2026-04-25T07:00:31.884Z</time></trkpt><trkpt lat="42.21325" lon="14.5845"><ele>14.0</ele><time>2026-04-25T07:00:33.885Z</time></trkpt><trkpt lat="42.2132967" lon="14.584375"><ele>16.0</ele><time>2026-04-25T07:00:35.885Z</time></trkpt><trkpt lat="42.213345" lon="14.5842517"><ele>18.0</ele><time>2026-04-25T07:00:37.885Z</time></trkpt><trkpt lat="42.213395" lon="14.5841217"><ele>20.0</ele><time>2026-04-25T07:00:39.885Z</time></trkpt><trkpt lat="42.21344" lon="14.584"><ele>22.0</ele><time>2026-04-25T07:00:41.885Z</time></trkpt><trkpt lat="42.2134883" lon="14.58388"><ele>22.0</ele><time>2026-04-25T07:00:43.885Z</time></trkpt><trkpt lat="42.2135367" lon="14.5837517"><ele>22.0</ele><time>2026-04-25T07:00:45.885Z</time></trkpt><trkpt lat="42.21358" lon="14.583625"><ele>22.0</ele><time>2026-04-25T07:00:47.884Z</time></trkpt><trkpt lat="42.2136267" lon="14.5835033"><ele>22.0</ele><time>2026-04-25T07:00:49.885Z</time></trkpt><trkpt lat="42.21368" lon="14.58338"><ele>22.0</ele><time>2026-04-25T07:00:51.884Z</time></trkpt><trkpt lat="42.2137433" lon="14.58326"><ele>22.6</ele><time>2026-04-25T07:00:53.885Z</time></trkpt><trkpt lat="42.2137933" lon="14.5831283"><ele>23.200000000000003</ele><time>2026-04-25T07:00:55.884Z</time></trkpt><trkpt lat="42.2138483" lon="14.5830083"><ele>23.8</ele><time>2026-04-25T07:00:57.884Z</time></trkpt><trkpt lat="42.2139033" lon="14.5828917"><ele>24.4</ele><time>2026-04-25T07:00:59.885Z</time></trkpt><trkpt lat="42.2139667" lon="14.5827733"><ele>25.0</ele><time>2026-04-25T07:01:01.884Z</time></trkpt><trkpt lat="42.21403" lon="14.5826533"><ele>23.8</ele><time>2026-04-25T07:01:03.885Z</time></trkpt><trkpt lat="42.2140933" lon="14.5825367"><ele>22.6</ele><time>2026-04-25T07:01:05.884Z</time></trkpt><trkpt lat="42.2141533" lon="14.58242"><ele>21.4</ele><time>2026-04-25T07:01:07.885Z</time></trkpt><trkpt lat="42.2142117" lon="14.5823083"><ele>20.2</ele><time>2026-04-25T07:01:09.884Z</time></trkpt><trkpt lat="42.2142733" lon="14.5821917"><ele>19.0</ele><time>2026-04-25T07:01:11.884Z</time></trkpt><trkpt lat="42.21432" lon="14.582075"><ele>20.2</ele><time>2026-04-25T07:01:13.884Z</time></trkpt><trkpt lat="42.21438" lon="14.5819583"><ele>21.4</ele><time>2026-04-25T07:01:15.884Z</time></trkpt><trkpt lat="42.2144533" lon="14.5818333"><ele>22.6</ele><time>2026-04-25T07:01:17.884Z</time></trkpt><trkpt lat="42.214515" lon="14.5817117"><ele>23.8</ele><time>2026-04-25T07:01:19.885Z</time></trkpt><trkpt lat="42.2145783" lon="14.581585"><ele>25.0</ele><time>2026-04-25T07:01:21.884Z</time></trkpt><trkpt lat="42.2146417" lon="14.5814717"><ele>25.0</ele><time>2026-04-25T07:01:23.885Z</time></trkpt><trkpt lat="42.2147033" lon="14.5813417"><ele>25.0</ele><time>2026-04-25T07:01:25.884Z</time></trkpt><trkpt lat="42.2147633" lon="14.581215"><ele>25.0</ele><time>2026-04-25T07:01:27.884Z</time></trkpt><trkpt lat="42.2148317" lon="14.5810933"><ele>25.0</ele><time>2026-04-25T07:01:29.884Z</time></trkpt><trkpt lat="42.2148967" lon="14.5809633"><ele>23.8</ele><time>2026-04-25T07:01:31.885Z</time></trkpt><trkpt lat="42.214955" lon="14.580845"><ele>22.6</ele><time>2026-04-25T07:01:33.884Z</time></trkpt><trkpt lat="42.2150183" lon="14.5807367"><ele>21.4</ele><time>2026-04-25T07:01:35.884Z</time></trkpt><trkpt lat="42.2150783" lon="14.5806183"><ele>20.2</ele><time>2026-04-25T07:01:37.884Z</time></trkpt><trkpt lat="42.21514" lon="14.5804867"><ele>19.0</ele><time>2026-04-25T07:01:39.885Z</time></trkpt><trkpt lat="42.2152017" lon="14.58037"><ele>19.799999999999997</ele><time>2026-04-25T07:01:41.884Z</time></trkpt><trkpt lat="42.2152617" lon="14.5802467"><ele>20.599999999999998</ele><time>2026-04-25T07:01:43.885Z</time></trkpt><trkpt lat="42.2153233" lon="14.5801217"><ele>21.4</ele><time>2026-04-25T07:01:45.884Z</time></trkpt><trkpt lat="42.2153867" lon="14.5800017"><ele>22.2</ele><time>2026-04-25T07:01:47.884Z</time></trkpt><trkpt lat="42.215445" lon="14.5798833"><ele>23.0</ele><time>2026-04-25T07:01:49.885Z</time></trkpt><trkpt lat="42.215505" lon="14.5797683"><ele>23.0</ele><time>2026-04-25T07:01:51.885Z</time></trkpt><trkpt lat="42.2155733" lon="14.579645"><ele>23.0</ele><time>2026-04-25T07:01:53.885Z</time></trkpt><trkpt lat="42.2156433" lon="14.5795167"><ele>23.0</ele><time>2026-04-25T07:01:55.885Z</time></trkpt><trkpt lat="42.2157083" lon="14.57939"><ele>23.0</ele><time>2026-04-25T07:01:57.885Z</time></trkpt><trkpt lat="42.215765" lon="14.5792583"><ele>22.25</ele><time>2026-04-25T07:01:59.885Z</time></trkpt><trkpt lat="42.2158267" lon="14.5791267"><ele>21.5</ele><time>2026-04-25T07:02:01.885Z</time></trkpt><trkpt lat="42.21589" lon="14.5790067"><ele>20.75</ele><time>2026-04-25T07:02:03.885Z</time></trkpt><trkpt lat="42.2159533" lon="14.5788833"><ele>20.0</ele><time>2026-04-25T07:02:05.885Z</time></trkpt><trkpt lat="42.2160183" lon="14.57875"><ele>20.4</ele><time>2026-04-25T07:02:07.885Z</time></trkpt><trkpt lat="42.2160783" lon="14.5786317"><ele>20.8</ele><time>2026-04-25T07:02:09.885Z</time></trkpt><trkpt lat="42.216145" lon="14.5785033"><ele>21.200000000000003</ele><time>2026-04-25T07:02:11.885Z</time></trkpt><trkpt lat="42.216205" lon="14.5783817"><ele>21.6</ele><time>2026-04-25T07:02:13.885Z</time></trkpt><trkpt lat="42.216265" lon="14.5782617"><ele>22.0</ele><time>2026-04-25T07:02:15.884Z</time></trkpt><trkpt lat="42.2163183" lon="14.578135"><ele>22.0</ele><time>2026-04-25T07:02:17.885Z</time></trkpt><trkpt lat="42.2163833" lon="14.5780183"><ele>22.0</ele><time>2026-04-25T07:02:19.885Z</time></trkpt><trkpt lat="42.2164433" lon="14.5778967"><ele>22.0</ele><time>2026-04-25T07:02:21.885Z</time></trkpt><trkpt lat="42.2165067" lon="14.5777733"><ele>22.0</ele><time>2026-04-25T07:02:23.885Z</time></trkpt><trkpt lat="42.216565" lon="14.577655"><ele>22.0</ele><time>2026-04-25T07:02:25.885Z</time></trkpt><trkpt lat="42.21663" lon="14.5775267"><ele>21.6</ele><time>2026-04-25T07:02:27.884Z</time></trkpt><trkpt lat="42.216695" lon="14.5774133"><ele>21.200000000000003</ele><time>2026-04-25T07:02:29.885Z</time></trkpt><trkpt lat="42.2167617" lon="14.5772983"><ele>20.8</ele><time>2026-04-25T07:02:31.884Z</time></trkpt><trkpt lat="42.2168133" lon="14.5771683"><ele>20.4</ele><time>2026-04-25T07:02:33.884Z</time></trkpt><trkpt lat="42.216865" lon="14.5770383"><ele>20.0</ele><time>2026-04-25T07:02:35.884Z</time></trkpt><trkpt lat="42.2168983" lon="14.5769117"><ele>22.0</ele><time>2026-04-25T07:02:37.885Z</time></trkpt><trkpt lat="42.2169267" lon="14.5767733"><ele>24.0</ele><time>2026-04-25T07:02:39.884Z</time></trkpt><trkpt lat="42.216945" lon="14.57663"><ele>26.0</ele><time>2026-04-25T07:02:41.885Z</time></trkpt><trkpt lat="42.2169517" lon="14.5764817"><ele>28.0</ele><time>2026-04-25T07:02:43.885Z</time></trkpt><trkpt lat="42.2169617" lon="14.576325"><ele>30.0</ele><time>2026-04-25T07:02:45.885Z</time></trkpt><trkpt lat="42.2169683" lon="14.5761683"><ele>30.0</ele><time>2026-04-25T07:02:47.885Z</time></trkpt><trkpt lat="42.216975" lon="14.5759983"><ele>30.0</ele><time>2026-04-25T07:02:49.885Z</time></trkpt><trkpt lat="42.2169833" lon="14.575905"><ele>30.0</ele><time>2026-04-25T07:02:50.885Z</time></trkpt><trkpt lat="42.2169983" lon="14.5757383"><ele>30.0</ele><time>2026-04-25T07:02:52.885Z</time></trkpt><trkpt lat="42.2170117" lon="14.5756467"><ele>30.0</ele><time>2026-04-25T07:02:53.885Z</time></trkpt><trkpt lat="42.217045" lon="14.575485"><ele>30.0</ele><time>2026-04-25T07:02:55.885Z</time></trkpt><trkpt lat="42.21707" lon="14.5754033"><ele>30.0</ele><time>2026-04-25T07:02:56.885Z</time></trkpt><trkpt lat="42.2171267" lon="14.5752633"><ele>30.0</ele><time>2026-04-25T07:02:58.884Z</time></trkpt><trkpt lat="42.217195" lon="14.5751333"><ele>30.0</ele><time>2026-04-25T07:03:00.884Z</time></trkpt><trkpt lat="42.2172833" lon="14.57502"><ele>30.0</ele><time>2026-04-25T07:03:02.885Z</time></trkpt><trkpt lat="42.217335" lon="14.574965"><ele>28.2</ele><time>2026-04-25T07:03:03.884Z</time></trkpt><trkpt lat="42.217385" lon="14.5749117"><ele>26.4</ele><time>2026-04-25T07:03:04.885Z</time></trkpt><trkpt lat="42.2174783" lon="14.574815"><ele>24.6</ele><time>2026-04-25T07:03:06.885Z</time></trkpt><trkpt lat="42.2175333" lon="14.57476"><ele>22.8</ele><time>2026-04-25T07:03:07.885Z</time></trkpt><trkpt lat="42.2176267" lon="14.5746583"><ele>21.0</ele><time>2026-04-25T07:03:09.884Z</time></trkpt><trkpt lat="42.2177217" lon="14.5745533"><ele>22.200000000000003</ele><time>2026-04-25T07:03:11.885Z</time></trkpt><trkpt lat="42.2177683" lon="14.574495"><ele>23.400000000000002</ele><time>2026-04-25T07:03:12.885Z</time></trkpt><trkpt lat="42.2178583" lon="14.5743783"><ele>24.6</ele><time>2026-04-25T07:03:14.885Z</time></trkpt><trkpt lat="42.2179033" lon="14.5743117"><ele>25.8</ele><time>2026-04-25T07:03:15.885Z</time></trkpt><trkpt lat="42.2179683" lon="14.5741733"><ele>27.0</ele><time>2026-04-25T07:03:17.884Z</time></trkpt><trkpt lat="42.2180317" lon="14.574035"><ele>27.0</ele><time>2026-04-25T07:03:19.884Z</time></trkpt><trkpt lat="42.218095" lon="14.5738867"><ele>27.000000000000004</ele><time>2026-04-25T07:03:21.885Z</time></trkpt><trkpt lat="42.2181567" lon="14.573735"><ele>27.000000000000004</ele><time>2026-04-25T07:03:23.885Z</time></trkpt><trkpt lat="42.2181883" lon="14.5736533"><ele>27.0</ele><time>2026-04-25T07:03:24.884Z</time></trkpt><trkpt lat="42.2182183" lon="14.573575"><ele>27.0</ele><time>2026-04-25T07:03:25.885Z</time></trkpt><trkpt lat="42.2182833" lon="14.5734283"><ele>25.6</ele><time>2026-04-25T07:03:27.884Z</time></trkpt><trkpt lat="42.2183167" lon="14.5733533"><ele>24.200000000000003</ele><time>2026-04-25T07:03:28.885Z</time></trkpt><trkpt lat="42.21838" lon="14.5732117"><ele>22.8</ele><time>2026-04-25T07:03:30.885Z</time></trkpt><trkpt lat="42.218435" lon="14.5730683"><ele>21.4</ele><time>2026-04-25T07:03:32.884Z</time></trkpt><trkpt lat="42.2184633" lon="14.5729917"><ele>20.0</ele><time>2026-04-25T07:03:33.884Z</time></trkpt><trkpt lat="42.2185183" lon="14.5728417"><ele>20.0</ele><time>2026-04-25T07:03:35.885Z</time></trkpt><trkpt lat="42.2185517" lon="14.5727683"><ele>20.0</ele><time>2026-04-25T07:03:36.884Z</time></trkpt><trkpt lat="42.2185833" lon="14.5726917"><ele>20.0</ele><time>2026-04-25T07:03:37.885Z</time></trkpt><trkpt lat="42.2186117" lon="14.5726133"><ele>20.0</ele><time>2026-04-25T07:03:38.884Z</time></trkpt><trkpt lat="42.2186717" lon="14.5724683"><ele>20.0</ele><time>2026-04-25T07:03:40.885Z</time></trkpt><trkpt lat="42.2187" lon="14.57239"><ele>20.0</ele><time>2026-04-25T07:03:41.884Z</time></trkpt><trkpt lat="42.2187317" lon="14.5723133"><ele>20.0</ele><time>2026-04-25T07:03:42.885Z</time></trkpt><trkpt lat="42.2187933" lon="14.572165"><ele>20.0</ele><time>2026-04-25T07:03:44.885Z</time></trkpt><trkpt lat="42.2188583" lon="14.572025"><ele>20.0</ele><time>2026-04-25T07:03:46.885Z</time></trkpt><trkpt lat="42.2188983" lon="14.5719583"><ele>20.0</ele><time>2026-04-25T07:03:47.884Z</time></trkpt><trkpt lat="42.218975" lon="14.5718283"><ele>20.0</ele><time>2026-04-25T07:03:49.885Z</time></trkpt><trkpt lat="42.21902" lon="14.5717667"><ele>20.0</ele><time>2026-04-25T07:03:50.885Z</time></trkpt><trkpt lat="42.2191083" lon="14.5716417"><ele>20.5</ele><time>2026-04-25T07:03:52.885Z</time></trkpt><trkpt lat="42.2191933" lon="14.5715233"><ele>21.0</ele><time>2026-04-25T07:03:54.884Z</time></trkpt><trkpt lat="42.2192767" lon="14.5714017"><ele>21.5</ele><time>2026-04-25T07:03:56.885Z</time></trkpt><trkpt lat="42.2193567" lon="14.5712867"><ele>22.0</ele><time>2026-04-25T07:03:58.884Z</time></trkpt><trkpt lat="42.2194283" lon="14.5711667"><ele>22.0</ele><time>2026-04-25T07:04:00.884Z</time></trkpt><trkpt lat="42.2195067" lon="14.571045"><ele>22.0</ele><time>2026-04-25T07:04:02.885Z</time></trkpt><trkpt lat="42.2195467" lon="14.5709767"><ele>22.0</ele><time>2026-04-25T07:04:03.884Z</time></trkpt><trkpt lat="42.21959" lon="14.5709117"><ele>22.0</ele><time>2026-04-25T07:04:04.884Z</time></trkpt><trkpt lat="42.2196383" lon="14.570845"><ele>22.0</ele><time>2026-04-25T07:04:05.884Z</time></trkpt><trkpt lat="42.21969" lon="14.5707883"><ele>22.0</ele><time>2026-04-25T07:04:06.884Z</time></trkpt><trkpt lat="42.2197367" lon="14.570725"><ele>22.0</ele><time>2026-04-25T07:04:07.885Z</time></trkpt><trkpt lat="42.2197867" lon="14.57066"><ele>22.0</ele><time>2026-04-25T07:04:08.885Z</time></trkpt><trkpt lat="42.21984" lon="14.5705967"><ele>22.0</ele><time>2026-04-25T07:04:09.885Z</time></trkpt><trkpt lat="42.2198917" lon="14.5705333"><ele>22.0</ele><time>2026-04-25T07:04:10.885Z</time></trkpt><trkpt lat="42.2199483" lon="14.57047"><ele>22.0</ele><time>2026-04-25T07:04:11.884Z</time></trkpt><trkpt lat="42.2199967" lon="14.5703983"><ele>22.0</ele><time>2026-04-25T07:04:12.885Z</time></trkpt><trkpt lat="42.2200433" lon="14.57033"><ele>22.0</ele><time>2026-04-25T07:04:13.885Z</time></trkpt><trkpt lat="42.2200867" lon="14.5702667"><ele>21.42857142857143</ele><time>2026-04-25T07:04:14.884Z</time></trkpt><trkpt lat="42.2201333" lon="14.5701983"><ele>20.857142857142858</ele><time>2026-04-25T07:04:15.885Z</time></trkpt><trkpt lat="42.2201783" lon="14.5701283"><ele>20.285714285714285</ele><time>2026-04-25T07:04:16.884Z</time></trkpt><trkpt lat="42.22022" lon="14.57006"><ele>19.714285714285715</ele><time>2026-04-25T07:04:17.884Z</time></trkpt><trkpt lat="42.22026" lon="14.5699917"><ele>19.142857142857142</ele><time>2026-04-25T07:04:18.885Z</time></trkpt><trkpt lat="42.220305" lon="14.5699183"><ele>18.571428571428573</ele><time>2026-04-25T07:04:19.884Z</time></trkpt><trkpt lat="42.220345" lon="14.5698417"><ele>18.0</ele><time>2026-04-25T07:04:20.885Z</time></trkpt><trkpt lat="42.2203833" lon="14.56976"><ele>18.000000000000004</ele><time>2026-04-25T07:04:21.885Z</time></trkpt><trkpt lat="42.22042" lon="14.56968"><ele>18.0</ele><time>2026-04-25T07:04:22.885Z</time></trkpt><trkpt lat="42.22046" lon="14.5695967"><ele>18.0</ele><time>2026-04-25T07:04:23.884Z</time></trkpt><trkpt lat="42.220505" lon="14.569515"><ele>18.0</ele><time>2026-04-25T07:04:24.884Z</time></trkpt><trkpt lat="42.22054" lon="14.5694333"><ele>18.0</ele><time>2026-04-25T07:04:25.885Z</time></trkpt><trkpt lat="42.2205783" lon="14.5693483"><ele>18.000000000000004</ele><time>2026-04-25T07:04:26.885Z</time></trkpt><trkpt lat="42.2206167" lon="14.5692533"><ele>18.0</ele><time>2026-04-25T07:04:27.885Z</time></trkpt><trkpt lat="42.2206533" lon="14.5691667"><ele>17.28571428571429</ele><time>2026-04-25T07:04:28.885Z</time></trkpt><trkpt lat="42.2206883" lon="14.5690833"><ele>16.571428571428573</ele><time>2026-04-25T07:04:29.885Z</time></trkpt><trkpt lat="42.220725" lon="14.5689983"><ele>15.857142857142858</ele><time>2026-04-25T07:04:30.885Z</time></trkpt><trkpt lat="42.2207617" lon="14.56892"><ele>15.142857142857144</ele><time>2026-04-25T07:04:31.885Z</time></trkpt><trkpt lat="42.2207983" lon="14.5688383"><ele>14.42857142857143</ele><time>2026-04-25T07:04:32.885Z</time></trkpt><trkpt lat="42.22084" lon="14.5687567"><ele>13.714285714285714</ele><time>2026-04-25T07:04:33.885Z</time></trkpt><trkpt lat="42.22088" lon="14.5686733"><ele>13.0</ele><time>2026-04-25T07:04:34.885Z</time></trkpt><trkpt lat="42.2209133" lon="14.5685917"><ele>13.0</ele><time>2026-04-25T07:04:35.885Z</time></trkpt><trkpt lat="42.2209433" lon="14.5685117"><ele>13.0</ele><time>2026-04-25T07:04:36.884Z</time></trkpt><trkpt lat="42.220975" lon="14.5684317"><ele>13.0</ele><time>2026-04-25T07:04:37.885Z</time></trkpt><trkpt lat="42.2210067" lon="14.5683567"><ele>13.0</ele><time>2026-04-25T07:04:38.885Z</time></trkpt><trkpt lat="42.221045" lon="14.568285"><ele>13.0</ele><time>2026-04-25T07:04:39.885Z</time></trkpt><trkpt lat="42.221075" lon="14.5682083"><ele>13.0</ele><time>2026-04-25T07:04:40.885Z</time></trkpt><trkpt lat="42.22111" lon="14.56813"><ele>13.0</ele><time>2026-04-25T07:04:41.885Z</time></trkpt><trkpt lat="42.2211467" lon="14.5680517"><ele>12.999999999999998</ele><time>2026-04-25T07:04:42.885Z</time></trkpt><trkpt lat="42.22118" lon="14.5679767"><ele>13.0</ele><time>2026-04-25T07:04:43.885Z</time></trkpt><trkpt lat="42.221215" lon="14.5679"><ele>13.0</ele><time>2026-04-25T07:04:44.885Z</time></trkpt><trkpt lat="42.2212483" lon="14.567825"><ele>13.0</ele><time>2026-04-25T07:04:45.885Z</time></trkpt><trkpt lat="42.2212783" lon="14.56775"><ele>12.999999999999998</ele><time>2026-04-25T07:04:46.885Z</time></trkpt><trkpt lat="42.2213433" lon="14.5676033"><ele>13.0</ele><time>2026-04-25T07:04:48.884Z</time></trkpt><trkpt lat="42.2213767" lon="14.5675267"><ele>13.75</ele><time>2026-04-25T07:04:49.885Z</time></trkpt><trkpt lat="42.2214417" lon="14.56739"><ele>14.5</ele><time>2026-04-25T07:04:51.885Z</time></trkpt><trkpt lat="42.2215" lon="14.56725"><ele>15.25</ele><time>2026-04-25T07:04:53.885Z</time></trkpt><trkpt lat="42.2215633" lon="14.56711"><ele>16.0</ele><time>2026-04-25T07:04:55.885Z</time></trkpt><trkpt lat="42.2216283" lon="14.5669767"><ele>14.0</ele><time>2026-04-25T07:04:57.885Z</time></trkpt><trkpt lat="42.22169" lon="14.5668433"><ele>12.0</ele><time>2026-04-25T07:04:59.884Z</time></trkpt><trkpt lat="42.22175" lon="14.5667033"><ele>10.0</ele><time>2026-04-25T07:05:01.885Z</time></trkpt><trkpt lat="42.2218083" lon="14.56656"><ele>8.0</ele><time>2026-04-25T07:05:03.884Z</time></trkpt><trkpt lat="42.2218717" lon="14.5664217"><ele>8.0</ele><time>2026-04-25T07:05:05.885Z</time></trkpt><trkpt lat="42.221935" lon="14.5662867"><ele>8.0</ele><time>2026-04-25T07:05:07.884Z</time></trkpt><trkpt lat="42.2219917" lon="14.5661533"><ele>8.0</ele><time>2026-04-25T07:05:09.885Z</time></trkpt><trkpt lat="42.2220483" lon="14.5660117"><ele>8.0</ele><time>2026-04-25T07:05:11.884Z</time></trkpt><trkpt lat="42.22211" lon="14.5658733"><ele>9.5</ele><time>2026-04-25T07:05:13.885Z</time></trkpt><trkpt lat="42.2221733" lon="14.5657283"><ele>11.0</ele><time>2026-04-25T07:05:15.885Z</time></trkpt><trkpt lat="42.2222417" lon="14.5655917"><ele>12.5</ele><time>2026-04-25T07:05:17.885Z</time></trkpt><trkpt lat="42.2223067" lon="14.5654617"><ele>14.0</ele><time>2026-04-25T07:05:19.884Z</time></trkpt><trkpt lat="42.2223617" lon="14.5653317"><ele>14.0</ele><time>2026-04-25T07:05:21.885Z</time></trkpt><trkpt lat="42.22242" lon="14.5652033"><ele>14.0</ele><time>2026-04-25T07:05:23.885Z</time></trkpt><trkpt lat="42.22248" lon="14.565065"><ele>14.0</ele><time>2026-04-25T07:05:25.884Z</time></trkpt><trkpt lat="42.2225517" lon="14.5649367"><ele>14.0</ele><time>2026-04-25T07:05:27.884Z</time></trkpt><trkpt lat="42.2226067" lon="14.5648117"><ele>14.0</ele><time>2026-04-25T07:05:29.885Z</time></trkpt><trkpt lat="42.2226617" lon="14.5646817"><ele>13.999999999999998</ele><time>2026-04-25T07:05:31.885Z</time></trkpt><trkpt lat="42.22272" lon="14.5645417"><ele>13.999999999999998</ele><time>2026-04-25T07:05:33.884Z</time></trkpt><trkpt lat="42.2227783" lon="14.5644"><ele>14.0</ele><time>2026-04-25T07:05:35.885Z</time></trkpt><trkpt lat="42.2228117" lon="14.5643233"><ele>14.0</ele><time>2026-04-25T07:05:36.884Z</time></trkpt><trkpt lat="42.2228717" lon="14.56419"><ele>14.799999999999999</ele><time>2026-04-25T07:05:38.885Z</time></trkpt><trkpt lat="42.22293" lon="14.5640583"><ele>15.599999999999998</ele><time>2026-04-25T07:05:40.885Z</time></trkpt><trkpt lat="42.2229917" lon="14.5639117"><ele>16.4</ele><time>2026-04-25T07:05:42.885Z</time></trkpt><trkpt lat="42.2230233" lon="14.563835"><ele>17.2</ele><time>2026-04-25T07:05:43.884Z</time></trkpt><trkpt lat="42.2230867" lon="14.56369"><ele>18.0</ele><time>2026-04-25T07:05:45.884Z</time></trkpt><trkpt lat="42.2231433" lon="14.5635517"><ele>16.2</ele><time>2026-04-25T07:05:47.885Z</time></trkpt><trkpt lat="42.2231933" lon="14.5634133"><ele>14.4</ele><time>2026-04-25T07:05:49.884Z</time></trkpt><trkpt lat="42.2232483" lon="14.5632983"><ele>12.600000000000001</ele><time>2026-04-25T07:05:51.884Z</time></trkpt><trkpt lat="42.2233083" lon="14.563175"><ele>10.8</ele><time>2026-04-25T07:05:53.885Z</time></trkpt><trkpt lat="42.2233667" lon="14.5630517"><ele>9.0</ele><time>2026-04-25T07:05:55.885Z</time></trkpt><trkpt lat="42.2234217" lon="14.562925"><ele>10.333333333333334</ele><time>2026-04-25T07:05:57.884Z</time></trkpt><trkpt lat="42.2234833" lon="14.56279"><ele>11.666666666666668</ele><time>2026-04-25T07:05:59.885Z</time></trkpt><trkpt lat="42.2235483" lon="14.5626517"><ele>13.0</ele><time>2026-04-25T07:06:01.885Z</time></trkpt><trkpt lat="42.22358" lon="14.5625767"><ele>14.333333333333334</ele><time>2026-04-25T07:06:02.885Z</time></trkpt><trkpt lat="42.2236117" lon="14.5625"><ele>15.666666666666668</ele><time>2026-04-25T07:06:03.885Z</time></trkpt><trkpt lat="42.2236467" lon="14.5624233"><ele>17.0</ele><time>2026-04-25T07:06:04.885Z</time></trkpt><trkpt lat="42.2237017" lon="14.5622817"><ele>17.0</ele><time>2026-04-25T07:06:06.885Z</time></trkpt><trkpt lat="42.2237617" lon="14.562155"><ele>17.0</ele><time>2026-04-25T07:06:08.884Z</time></trkpt><trkpt lat="42.2238267" lon="14.56202"><ele>17.0</ele><time>2026-04-25T07:06:10.885Z</time></trkpt><trkpt lat="42.2238633" lon="14.56195"><ele>17.0</ele><time>2026-04-25T07:06:11.884Z</time></trkpt><trkpt lat="42.223895" lon="14.561875"><ele>17.0</ele><time>2026-04-25T07:06:12.884Z</time></trkpt><trkpt lat="42.2239583" lon="14.5617383"><ele>14.5</ele><time>2026-04-25T07:06:14.885Z</time></trkpt><trkpt lat="42.2240167" lon="14.5615967"><ele>12.0</ele><time>2026-04-25T07:06:16.884Z</time></trkpt><trkpt lat="42.2240767" lon="14.5614683"><ele>9.5</ele><time>2026-04-25T07:06:18.885Z</time></trkpt><trkpt lat="42.2241383" lon="14.5613367"><ele>7.0</ele><time>2026-04-25T07:06:20.885Z</time></trkpt><trkpt lat="42.2242017" lon="14.5612083"><ele>8.6</ele><time>2026-04-25T07:06:22.884Z</time></trkpt><trkpt lat="42.22427" lon="14.5610833"><ele>10.2</ele><time>2026-04-25T07:06:24.885Z</time></trkpt><trkpt lat="42.2243383" lon="14.5609683"><ele>11.8</ele><time>2026-04-25T07:06:26.884Z</time></trkpt><trkpt lat="42.2243817" lon="14.5608567"><ele>13.4</ele><time>2026-04-25T07:06:28.885Z</time></trkpt><trkpt lat="42.22446" lon="14.56079"><ele>15.0</ele><time>2026-04-25T07:06:30.885Z</time></trkpt><trkpt lat="42.22456" lon="14.560755"><ele>15.0</ele><time>2026-04-25T07:06:32.884Z</time></trkpt><trkpt lat="42.2246483" lon="14.560665"><ele>15.0</ele><time>2026-04-25T07:06:34.885Z</time></trkpt><trkpt lat="42.2247133" lon="14.560545"><ele>15.0</ele><time>2026-04-25T07:06:36.885Z</time></trkpt><trkpt lat="42.2247617" lon="14.5604333"><ele>15.0</ele><time>2026-04-25T07:06:38.885Z</time></trkpt><trkpt lat="42.2248033" lon="14.5603033"><ele>15.0</ele><time>2026-04-25T07:06:40.884Z</time></trkpt><trkpt lat="42.2248533" lon="14.5601683"><ele>12.5</ele><time>2026-04-25T07:06:42.885Z</time></trkpt><trkpt lat="42.224905" lon="14.5600217"><ele>10.0</ele><time>2026-04-25T07:06:44.884Z</time></trkpt><trkpt lat="42.2249533" lon="14.5598733"><ele>7.5</ele><time>2026-04-25T07:06:46.885Z</time></trkpt><trkpt lat="42.225005" lon="14.5597383"><ele>5.0</ele><time>2026-04-25T07:06:48.885Z</time></trkpt><trkpt lat="42.2250617" lon="14.5596167"><ele>5.8</ele><time>2026-04-25T07:06:50.885Z</time></trkpt><trkpt lat="42.2251183" lon="14.55949"><ele>6.6</ele><time>2026-04-25T07:06:52.885Z</time></trkpt><trkpt lat="42.2251733" lon="14.5593617"><ele>7.4</ele><time>2026-04-25T07:06:54.885Z</time></trkpt><trkpt lat="42.22523" lon="14.5592317"><ele>8.2</ele><time>2026-04-25T07:06:56.884Z</time></trkpt><trkpt lat="42.2252767" lon="14.5591067"><ele>9.0</ele><time>2026-04-25T07:06:58.884Z</time></trkpt><trkpt lat="42.2253267" lon="14.5589717"><ele>9.0</ele><time>2026-04-25T07:07:00.885Z</time></trkpt><trkpt lat="42.2253783" lon="14.5588217"><ele>9.0</ele><time>2026-04-25T07:07:02.884Z</time></trkpt><trkpt lat="42.2254383" lon="14.5586883"><ele>9.0</ele><time>2026-04-25T07:07:04.885Z</time></trkpt><trkpt lat="42.2254917" lon="14.5585417"><ele>9.0</ele><time>2026-04-25T07:07:06.885Z</time></trkpt><trkpt lat="42.22552" lon="14.5584583"><ele>9.0</ele><time>2026-04-25T07:07:07.885Z</time></trkpt><trkpt lat="42.225565" lon="14.55831"><ele>9.0</ele><time>2026-04-25T07:07:09.885Z</time></trkpt><trkpt lat="42.2256233" lon="14.5581917"><ele>9.0</ele><time>2026-04-25T07:07:11.884Z</time></trkpt><trkpt lat="42.225675" lon="14.55806"><ele>9.0</ele><time>2026-04-25T07:07:13.885Z</time></trkpt><trkpt lat="42.2257333" lon="14.5579183"><ele>9.0</ele><time>2026-04-25T07:07:15.885Z</time></trkpt><trkpt lat="42.225755" lon="14.5578383"><ele>9.0</ele><time>2026-04-25T07:07:16.885Z</time></trkpt><trkpt lat="42.22578" lon="14.5577583"><ele>9.0</ele><time>2026-04-25T07:07:17.884Z</time></trkpt><trkpt lat="42.2258067" lon="14.557675"><ele>9.0</ele><time>2026-04-25T07:07:18.885Z</time></trkpt><trkpt lat="42.2258583" lon="14.5575333"><ele>9.0</ele><time>2026-04-25T07:07:20.885Z</time></trkpt><trkpt lat="42.2259167" lon="14.5573833"><ele>9.0</ele><time>2026-04-25T07:07:22.885Z</time></trkpt><trkpt lat="42.2259683" lon="14.5572417"><ele>9.0</ele><time>2026-04-25T07:07:24.885Z</time></trkpt><trkpt lat="42.2260233" lon="14.5571117"><ele>10.4</ele><time>2026-04-25T07:07:26.884Z</time></trkpt><trkpt lat="42.2260767" lon="14.5569767"><ele>11.8</ele><time>2026-04-25T07:07:28.884Z</time></trkpt><trkpt lat="42.2261083" lon="14.556895"><ele>13.200000000000001</ele><time>2026-04-25T07:07:29.883Z</time></trkpt><trkpt lat="42.2261667" lon="14.5567733"><ele>14.600000000000001</ele><time>2026-04-25T07:07:31.884Z</time></trkpt><trkpt lat="42.2262233" lon="14.55664"><ele>16.0</ele><time>2026-04-25T07:07:33.884Z</time></trkpt><trkpt lat="42.2262683" lon="14.5565067"><ele>16.0</ele><time>2026-04-25T07:07:35.884Z</time></trkpt><trkpt lat="42.2262967" lon="14.5564283"><ele>16.0</ele><time>2026-04-25T07:07:36.884Z</time></trkpt><trkpt lat="42.2263517" lon="14.5562833"><ele>16.0</ele><time>2026-04-25T07:07:38.884Z</time></trkpt><trkpt lat="42.226415" lon="14.55616"><ele>16.0</ele><time>2026-04-25T07:07:40.883Z</time></trkpt><trkpt lat="42.22647" lon="14.55604"><ele>16.0</ele><time>2026-04-25T07:07:42.884Z</time></trkpt><trkpt lat="42.2265367" lon="14.555915"><ele>15.4</ele><time>2026-04-25T07:07:44.883Z</time></trkpt><trkpt lat="42.2266017" lon="14.5557867"><ele>14.8</ele><time>2026-04-25T07:07:46.883Z</time></trkpt><trkpt lat="42.2266617" lon="14.5556833"><ele>14.200000000000001</ele><time>2026-04-25T07:07:48.884Z</time></trkpt><trkpt lat="42.226725" lon="14.55561"><ele>13.600000000000001</ele><time>2026-04-25T07:07:50.884Z</time></trkpt><trkpt lat="42.226775" lon="14.5555033"><ele>13.0</ele><time>2026-04-25T07:07:52.884Z</time></trkpt><trkpt lat="42.2268267" lon="14.5553667"><ele>12.999999999999998</ele><time>2026-04-25T07:07:54.884Z</time></trkpt><trkpt lat="42.2268867" lon="14.555215"><ele>13.0</ele><time>2026-04-25T07:07:56.883Z</time></trkpt><trkpt lat="42.2269233" lon="14.5551333"><ele>13.0</ele><time>2026-04-25T07:07:57.884Z</time></trkpt><trkpt lat="42.2269583" lon="14.5550617"><ele>13.0</ele><time>2026-04-25T07:07:58.884Z</time></trkpt><trkpt lat="42.226995" lon="14.5549883"><ele>12.999999999999998</ele><time>2026-04-25T07:07:59.884Z</time></trkpt><trkpt lat="42.2270333" lon="14.5549183"><ele>13.0</ele><time>2026-04-25T07:08:00.883Z</time></trkpt><trkpt lat="42.2270617" lon="14.5548383"><ele>12.999999999999998</ele><time>2026-04-25T07:08:01.883Z</time></trkpt><trkpt lat="42.2270917" lon="14.55476"><ele>13.0</ele><time>2026-04-25T07:08:02.883Z</time></trkpt><trkpt lat="42.2271267" lon="14.5546883"><ele>13.0</ele><time>2026-04-25T07:08:03.884Z</time></trkpt><trkpt lat="42.227165" lon="14.55462"><ele>13.0</ele><time>2026-04-25T07:08:04.884Z</time></trkpt><trkpt lat="42.2272433" lon="14.5545033"><ele>12.999999999999998</ele><time>2026-04-25T07:08:06.884Z</time></trkpt><trkpt lat="42.22733" lon="14.5543833"><ele>13.0</ele><time>2026-04-25T07:08:08.884Z</time></trkpt><trkpt lat="42.2274083" lon="14.5542833"><ele>11.4</ele><time>2026-04-25T07:08:10.884Z</time></trkpt><trkpt lat="42.22745" lon="14.5542183"><ele>9.8</ele><time>2026-04-25T07:08:11.884Z</time></trkpt><trkpt lat="42.227535" lon="14.5541067"><ele>8.2</ele><time>2026-04-25T07:08:13.884Z</time></trkpt><trkpt lat="42.2276167" lon="14.5539833"><ele>6.6</ele><time>2026-04-25T07:08:15.884Z</time></trkpt><trkpt lat="42.2277017" lon="14.55386"><ele>5.0</ele><time>2026-04-25T07:08:17.883Z</time></trkpt><trkpt lat="42.2277817" lon="14.5537417"><ele>6.4</ele><time>2026-04-25T07:08:19.884Z</time></trkpt><trkpt lat="42.22786" lon="14.5536217"><ele>7.8</ele><time>2026-04-25T07:08:21.884Z</time></trkpt><trkpt lat="42.2279017" lon="14.553555"><ele>9.2</ele><time>2026-04-25T07:08:22.884Z</time></trkpt><trkpt lat="42.22797" lon="14.5534383"><ele>10.6</ele><time>2026-04-25T07:08:24.884Z</time></trkpt><trkpt lat="42.22804" lon="14.5533267"><ele>12.0</ele><time>2026-04-25T07:08:26.883Z</time></trkpt><trkpt lat="42.2281217" lon="14.5532067"><ele>10.2</ele><time>2026-04-25T07:08:28.884Z</time></trkpt><trkpt lat="42.2281967" lon="14.5530767"><ele>8.399999999999999</ele><time>2026-04-25T07:08:30.883Z</time></trkpt><trkpt lat="42.228265" lon="14.55295"><ele>6.6</ele><time>2026-04-25T07:08:32.884Z</time></trkpt><trkpt lat="42.2283033" lon="14.5528783"><ele>4.8</ele><time>2026-04-25T07:08:33.884Z</time></trkpt><trkpt lat="42.2283417" lon="14.5528083"><ele>3.0</ele><time>2026-04-25T07:08:34.883Z</time></trkpt><trkpt lat="42.2284183" lon="14.552675"><ele>3.0</ele><time>2026-04-25T07:08:36.884Z</time></trkpt><trkpt lat="42.2284583" lon="14.5526083"><ele>3.0</ele><time>2026-04-25T07:08:37.884Z</time></trkpt><trkpt lat="42.2285317" lon="14.552475"><ele>3.0</ele><time>2026-04-25T07:08:39.884Z</time></trkpt><trkpt lat="42.2285983" lon="14.5523467"><ele>3.0</ele><time>2026-04-25T07:08:41.884Z</time></trkpt><trkpt lat="42.2286733" lon="14.55222"><ele>3.0</ele><time>2026-04-25T07:08:43.883Z</time></trkpt><trkpt lat="42.228745" lon="14.5520917"><ele>2.25</ele><time>2026-04-25T07:08:45.884Z</time></trkpt><trkpt lat="42.2288167" lon="14.5519617"><ele>1.5</ele><time>2026-04-25T07:08:47.883Z</time></trkpt><trkpt lat="42.2288867" lon="14.551845"><ele>0.75</ele><time>2026-04-25T07:08:49.884Z</time></trkpt><trkpt lat="42.2289617" lon="14.5517267"><ele>0.0</ele><time>2026-04-25T07:08:51.883Z</time></trkpt><trkpt lat="42.2290383" lon="14.5515933"><ele>0.0</ele><time>2026-04-25T07:08:53.884Z</time></trkpt><trkpt lat="42.2290783" lon="14.5515267"><ele>0.0</ele><time>2026-04-25T07:08:54.884Z</time></trkpt><trkpt lat="42.2291533" lon="14.5514033"><ele>0.0</ele><time>2026-04-25T07:08:56.883Z</time></trkpt><trkpt lat="42.22923" lon="14.55128"><ele>0.0</ele><time>2026-04-25T07:08:58.883Z</time></trkpt><trkpt lat="42.229305" lon="14.5511517"><ele>0.0</ele><time>2026-04-25T07:09:00.884Z</time></trkpt><trkpt lat="42.2293733" lon="14.55103"><ele>1.0</ele><time>2026-04-25T07:09:02.883Z</time></trkpt><trkpt lat="42.229445" lon="14.5509"><ele>2.0</ele><time>2026-04-25T07:09:04.884Z</time></trkpt><trkpt lat="42.2295133" lon="14.5507633"><ele>3.0</ele><time>2026-04-25T07:09:06.884Z</time></trkpt><trkpt lat="42.2295433" lon="14.5506867"><ele>4.0</ele><time>2026-04-25T07:09:07.883Z</time></trkpt><trkpt lat="42.2295917" lon="14.5505417"><ele>5.0</ele><time>2026-04-25T07:09:09.884Z</time></trkpt><trkpt lat="42.22965" lon="14.5504067"><ele>6.25</ele><time>2026-04-25T07:09:11.884Z</time></trkpt><trkpt lat="42.2297133" lon="14.5502717"><ele>7.5</ele><time>2026-04-25T07:09:13.884Z</time></trkpt><trkpt lat="42.2297883" lon="14.5501483"><ele>8.75</ele><time>2026-04-25T07:09:15.883Z</time></trkpt><trkpt lat="42.2298667" lon="14.5500233"><ele>10.0</ele><time>2026-04-25T07:09:17.884Z</time></trkpt><trkpt lat="42.229935" lon="14.5498983"><ele>8.8</ele><time>2026-04-25T07:09:19.884Z</time></trkpt><trkpt lat="42.2300083" lon="14.549775"><ele>7.6</ele><time>2026-04-25T07:09:21.883Z</time></trkpt><trkpt lat="42.2300783" lon="14.5496467"><ele>6.4</ele><time>2026-04-25T07:09:23.883Z</time></trkpt><trkpt lat="42.2301533" lon="14.5495167"><ele>5.2</ele><time>2026-04-25T07:09:25.883Z</time></trkpt><trkpt lat="42.2301933" lon="14.54945"><ele>4.0</ele><time>2026-04-25T07:09:26.884Z</time></trkpt><trkpt lat="42.230265" lon="14.5493317"><ele>4.0</ele><time>2026-04-25T07:09:28.884Z</time></trkpt><trkpt lat="42.23034" lon="14.5492117"><ele>4.0</ele><time>2026-04-25T07:09:30.884Z</time></trkpt><trkpt lat="42.2304083" lon="14.5490883"><ele>4.0</ele><time>2026-04-25T07:09:32.884Z</time></trkpt><trkpt lat="42.230475" lon="14.5489717"><ele>4.0</ele><time>2026-04-25T07:09:34.884Z</time></trkpt><trkpt lat="42.23055" lon="14.54885"><ele>4.0</ele><time>2026-04-25T07:09:36.883Z</time></trkpt><trkpt lat="42.2306233" lon="14.5487217"><ele>4.0</ele><time>2026-04-25T07:09:38.884Z</time></trkpt><trkpt lat="42.23066" lon="14.54865"><ele>4.0</ele><time>2026-04-25T07:09:39.884Z</time></trkpt><trkpt lat="42.2307367" lon="14.5485283"><ele>4.0</ele><time>2026-04-25T07:09:41.884Z</time></trkpt><trkpt lat="42.2308117" lon="14.5484017"><ele>4.0</ele><time>2026-04-25T07:09:43.883Z</time></trkpt><trkpt lat="42.2308917" lon="14.5482683"><ele>3.75</ele><time>2026-04-25T07:09:45.883Z</time></trkpt><trkpt lat="42.230965" lon="14.5481383"><ele>3.5</ele><time>2026-04-25T07:09:47.883Z</time></trkpt><trkpt lat="42.2310317" lon="14.5480133"><ele>3.25</ele><time>2026-04-25T07:09:49.883Z</time></trkpt><trkpt lat="42.231105" lon="14.5478867"><ele>3.0</ele><time>2026-04-25T07:09:51.883Z</time></trkpt><trkpt lat="42.2311783" lon="14.5477667"><ele>3.5</ele><time>2026-04-25T07:09:53.883Z</time></trkpt><trkpt lat="42.23125" lon="14.5476417"><ele>4.0</ele><time>2026-04-25T07:09:55.884Z</time></trkpt><trkpt lat="42.2313233" lon="14.5475167"><ele>4.5</ele><time>2026-04-25T07:09:57.884Z</time></trkpt><trkpt lat="42.2313933" lon="14.547395"><ele>5.0</ele><time>2026-04-25T07:09:59.883Z</time></trkpt><trkpt lat="42.2314617" lon="14.5472783"><ele>4.25</ele><time>2026-04-25T07:10:01.884Z</time></trkpt><trkpt lat="42.23153" lon="14.5471517"><ele>3.5</ele><time>2026-04-25T07:10:03.884Z</time></trkpt><trkpt lat="42.2315983" lon="14.5470333"><ele>2.75</ele><time>2026-04-25T07:10:05.884Z</time></trkpt><trkpt lat="42.23167" lon="14.54691"><ele>2.0</ele><time>2026-04-25T07:10:07.884Z</time></trkpt><trkpt lat="42.23175" lon="14.546785"><ele>2.0</ele><time>2026-04-25T07:10:09.884Z</time></trkpt><trkpt lat="42.2318233" lon="14.5466633"><ele>2.0</ele><time>2026-04-25T07:10:11.884Z</time></trkpt><trkpt lat="42.2318933" lon="14.54654"><ele>2.0</ele><time>2026-04-25T07:10:13.884Z</time></trkpt><trkpt lat="42.2319633" lon="14.546415"><ele>2.0</ele><time>2026-04-25T07:10:15.883Z</time></trkpt><trkpt lat="42.232035" lon="14.5463033"><ele>2.0</ele><time>2026-04-25T07:10:17.884Z</time></trkpt><trkpt lat="42.2321083" lon="14.54618"><ele>2.0</ele><time>2026-04-25T07:10:19.884Z</time></trkpt><trkpt lat="42.23218" lon="14.546055"><ele>2.0</ele><time>2026-04-25T07:10:21.883Z</time></trkpt><trkpt lat="42.2322517" lon="14.5459233"><ele>2.0</ele><time>2026-04-25T07:10:23.884Z</time></trkpt><trkpt lat="42.2323233" lon="14.5457983"><ele>2.0</ele><time>2026-04-25T07:10:25.884Z</time></trkpt><trkpt lat="42.2323967" lon="14.5456817"><ele>2.0</ele><time>2026-04-25T07:10:27.884Z</time></trkpt><trkpt lat="42.23247" lon="14.5455533"><ele>2.0</ele><time>2026-04-25T07:10:29.884Z</time></trkpt><trkpt lat="42.2325467" lon="14.5454267"><ele>2.0</ele><time>2026-04-25T07:10:31.883Z</time></trkpt><trkpt lat="42.23262" lon="14.5452917"><ele>2.75</ele><time>2026-04-25T07:10:33.884Z</time></trkpt><trkpt lat="42.232685" lon="14.5451617"><ele>3.5</ele><time>2026-04-25T07:10:35.884Z</time></trkpt><trkpt lat="42.2327583" lon="14.54503"><ele>4.25</ele><time>2026-04-25T07:10:37.884Z</time></trkpt><trkpt lat="42.23283" lon="14.5449033"><ele>5.0</ele><time>2026-04-25T07:10:39.884Z</time></trkpt><trkpt lat="42.2328967" lon="14.5447917"><ele>5.0</ele><time>2026-04-25T07:10:41.884Z</time></trkpt><trkpt lat="42.2329617" lon="14.5446683"><ele>5.0</ele><time>2026-04-25T07:10:43.883Z</time></trkpt><trkpt lat="42.233025" lon="14.54454"><ele>5.0</ele><time>2026-04-25T07:10:45.883Z</time></trkpt><trkpt lat="42.233085" lon="14.54441"><ele>5.0</ele><time>2026-04-25T07:10:47.884Z</time></trkpt><trkpt lat="42.2331367" lon="14.5442933"><ele>5.0</ele><time>2026-04-25T07:10:49.884Z</time></trkpt><trkpt lat="42.2331967" lon="14.5441767"><ele>4.833333333333334</ele><time>2026-04-25T07:10:51.884Z</time></trkpt><trkpt lat="42.2332483" lon="14.5440567"><ele>4.666666666666667</ele><time>2026-04-25T07:10:53.884Z</time></trkpt><trkpt lat="42.2332983" lon="14.5439483"><ele>4.5</ele><time>2026-04-25T07:10:55.884Z</time></trkpt><trkpt lat="42.2333383" lon="14.5438517"><ele>4.333333333333333</ele><time>2026-04-25T07:10:57.884Z</time></trkpt><trkpt lat="42.2333767" lon="14.5437667"><ele>4.166666666666666</ele><time>2026-04-25T07:10:59.884Z</time></trkpt><trkpt lat="42.2334183" lon="14.543675"><ele>4.0</ele><time>2026-04-25T07:11:01.884Z</time></trkpt><trkpt lat="42.2334683" lon="14.54358"><ele>5.166666666666666</ele><time>2026-04-25T07:11:03.884Z</time></trkpt><trkpt lat="42.23351" lon="14.54349"><ele>6.333333333333333</ele><time>2026-04-25T07:11:05.884Z</time></trkpt><trkpt lat="42.2335467" lon="14.5433983"><ele>7.5</ele><time>2026-04-25T07:11:07.883Z</time></trkpt><trkpt lat="42.2335783" lon="14.5432867"><ele>8.666666666666666</ele><time>2026-04-25T07:11:09.883Z</time></trkpt><trkpt lat="42.2336217" lon="14.5431933"><ele>9.833333333333332</ele><time>2026-04-25T07:11:11.884Z</time></trkpt><trkpt lat="42.2336733" lon="14.5431133"><ele>11.0</ele><time>2026-04-25T07:11:13.884Z</time></trkpt><trkpt lat="42.2337333" lon="14.5430317"><ele>11.0</ele><time>2026-04-25T07:11:15.884Z</time></trkpt><trkpt lat="42.2337867" lon="14.54294"><ele>11.0</ele><time>2026-04-25T07:11:17.883Z</time></trkpt><trkpt lat="42.2338483" lon="14.5428067"><ele>11.0</ele><time>2026-04-25T07:11:19.883Z</time></trkpt><trkpt lat="42.2339083" lon="14.5426733"><ele>11.0</ele><time>2026-04-25T07:11:21.884Z</time></trkpt><trkpt lat="42.2339683" lon="14.542535"><ele>11.0</ele><time>2026-04-25T07:11:23.884Z</time></trkpt><trkpt lat="42.23403" lon="14.5424"><ele>9.600000000000001</ele><time>2026-04-25T07:11:25.884Z</time></trkpt><trkpt lat="42.2341033" lon="14.5422683"><ele>8.200000000000001</ele><time>2026-04-25T07:11:27.883Z</time></trkpt><trkpt lat="42.23416" lon="14.54213"><ele>6.800000000000001</ele><time>2026-04-25T07:11:29.884Z</time></trkpt><trkpt lat="42.23422" lon="14.5419933"><ele>5.4</ele><time>2026-04-25T07:11:31.884Z</time></trkpt><trkpt lat="42.23425" lon="14.5419183"><ele>4.0</ele><time>2026-04-25T07:11:32.883Z</time></trkpt><trkpt lat="42.2343067" lon="14.54178"><ele>4.0</ele><time>2026-04-25T07:11:34.884Z</time></trkpt><trkpt lat="42.234365" lon="14.5416483"><ele>4.0</ele><time>2026-04-25T07:11:36.884Z</time></trkpt><trkpt lat="42.2344233" lon="14.5415167"><ele>4.0</ele><time>2026-04-25T07:11:38.883Z</time></trkpt><trkpt lat="42.234475" lon="14.5413833"><ele>4.0</ele><time>2026-04-25T07:11:40.884Z</time></trkpt><trkpt lat="42.23453" lon="14.5412567"><ele>4.0</ele><time>2026-04-25T07:11:42.884Z</time></trkpt><trkpt lat="42.23459" lon="14.5411333"><ele>4.0</ele><time>2026-04-25T07:11:44.884Z</time></trkpt><trkpt lat="42.2346467" lon="14.5410083"><ele>4.0</ele><time>2026-04-25T07:11:46.884Z</time></trkpt><trkpt lat="42.2347067" lon="14.54087"><ele>4.0</ele><time>2026-04-25T07:11:48.884Z</time></trkpt><trkpt lat="42.2347667" lon="14.5407367"><ele>4.0</ele><time>2026-04-25T07:11:50.884Z</time></trkpt><trkpt lat="42.2348333" lon="14.5406017"><ele>4.25</ele><time>2026-04-25T07:11:52.884Z</time></trkpt><trkpt lat="42.23489" lon="14.5404633"><ele>4.5</ele><time>2026-04-25T07:11:54.883Z</time></trkpt><trkpt lat="42.2349533" lon="14.5403267"><ele>4.75</ele><time>2026-04-25T07:11:56.884Z</time></trkpt><trkpt lat="42.2350083" lon="14.54019"><ele>5.0</ele><time>2026-04-25T07:11:58.884Z</time></trkpt><trkpt lat="42.2350733" lon="14.5400567"><ele>5.0</ele><time>2026-04-25T07:12:00.884Z</time></trkpt><trkpt lat="42.2351383" lon="14.539935"><ele>5.0</ele><time>2026-04-25T07:12:02.884Z</time></trkpt><trkpt lat="42.2351883" lon="14.5398183"><ele>5.0</ele><time>2026-04-25T07:12:04.884Z</time></trkpt><trkpt lat="42.2352517" lon="14.5396783"><ele>5.0</ele><time>2026-04-25T07:12:06.883Z</time></trkpt><trkpt lat="42.23531" lon="14.5395417"><ele>5.0</ele><time>2026-04-25T07:12:08.884Z</time></trkpt><trkpt lat="42.2353667" lon="14.5394217"><ele>5.4</ele><time>2026-04-25T07:12:10.884Z</time></trkpt><trkpt lat="42.2354233" lon="14.5393033"><ele>5.8</ele><time>2026-04-25T07:12:12.884Z</time></trkpt><trkpt lat="42.2354883" lon="14.5391867"><ele>6.199999999999999</ele><time>2026-04-25T07:12:14.884Z</time></trkpt><trkpt lat="42.2355467" lon="14.53907"><ele>6.6</ele><time>2026-04-25T07:12:16.883Z</time></trkpt><trkpt lat="42.23561" lon="14.5389467"><ele>7.0</ele><time>2026-04-25T07:12:18.884Z</time></trkpt><trkpt lat="42.2356633" lon="14.5388117"><ele>6.5</ele><time>2026-04-25T07:12:20.884Z</time></trkpt><trkpt lat="42.235725" lon="14.53867"><ele>6.0</ele><time>2026-04-25T07:12:22.884Z</time></trkpt><trkpt lat="42.235775" lon="14.53853"><ele>5.5</ele><time>2026-04-25T07:12:24.884Z</time></trkpt><trkpt lat="42.2358317" lon="14.53839"><ele>5.0</ele><time>2026-04-25T07:12:26.884Z</time></trkpt><trkpt lat="42.23589" lon="14.53826"><ele>5.0</ele><time>2026-04-25T07:12:28.884Z</time></trkpt><trkpt lat="42.2359567" lon="14.53813"><ele>5.0</ele><time>2026-04-25T07:12:30.883Z</time></trkpt><trkpt lat="42.2360183" lon="14.5380133"><ele>5.0</ele><time>2026-04-25T07:12:32.883Z</time></trkpt><trkpt lat="42.2360717" lon="14.537905"><ele>5.0</ele><time>2026-04-25T07:12:34.884Z</time></trkpt><trkpt lat="42.2361283" lon="14.53779"><ele>5.0</ele><time>2026-04-25T07:12:36.884Z</time></trkpt><trkpt lat="42.2361917" lon="14.5376767"><ele>5.0</ele><time>2026-04-25T07:12:38.883Z</time></trkpt><trkpt lat="42.2362467" lon="14.53755"><ele>5.0</ele><time>2026-04-25T07:12:40.884Z</time></trkpt><trkpt lat="42.2363017" lon="14.5374133"><ele>5.0</ele><time>2026-04-25T07:12:42.884Z</time></trkpt><trkpt lat="42.2363567" lon="14.5372717"><ele>5.0</ele><time>2026-04-25T07:12:44.883Z</time></trkpt><trkpt lat="42.2363917" lon="14.5371933"><ele>5.0</ele><time>2026-04-25T07:12:45.883Z</time></trkpt><trkpt lat="42.2364583" lon="14.5370467"><ele>4.4</ele><time>2026-04-25T07:12:47.884Z</time></trkpt><trkpt lat="42.23649" lon="14.5369683"><ele>3.8</ele><time>2026-04-25T07:12:48.884Z</time></trkpt><trkpt lat="42.2365467" lon="14.5368267"><ele>3.2</ele><time>2026-04-25T07:12:50.883Z</time></trkpt><trkpt lat="42.2366067" lon="14.5366933"><ele>2.6</ele><time>2026-04-25T07:12:52.884Z</time></trkpt><trkpt lat="42.23666" lon="14.53656"><ele>2.0</ele><time>2026-04-25T07:12:54.883Z</time></trkpt><trkpt lat="42.2367133" lon="14.53641"><ele>2.0</ele><time>2026-04-25T07:12:56.884Z</time></trkpt><trkpt lat="42.2367683" lon="14.5362617"><ele>2.0</ele><time>2026-04-25T07:12:58.884Z</time></trkpt><trkpt lat="42.2368267" lon="14.5361183"><ele>2.0</ele><time>2026-04-25T07:13:00.884Z</time></trkpt><trkpt lat="42.2368867" lon="14.5359733"><ele>2.0</ele><time>2026-04-25T07:13:02.884Z</time></trkpt><trkpt lat="42.2369367" lon="14.5358267"><ele>2.0</ele><time>2026-04-25T07:13:04.884Z</time></trkpt><trkpt lat="42.2369867" lon="14.535685"><ele>2.0</ele><time>2026-04-25T07:13:06.884Z</time></trkpt><trkpt lat="42.2370417" lon="14.535555"><ele>2.0</ele><time>2026-04-25T07:13:08.884Z</time></trkpt><trkpt lat="42.2371067" lon="14.5354383"><ele>2.0</ele><time>2026-04-25T07:13:10.884Z</time></trkpt><trkpt lat="42.2371883" lon="14.5353383"><ele>2.0</ele><time>2026-04-25T07:13:12.884Z</time></trkpt><trkpt lat="42.237255" lon="14.5352183"><ele>1.75</ele><time>2026-04-25T07:13:14.883Z</time></trkpt><trkpt lat="42.2373183" lon="14.5350917"><ele>1.5</ele><time>2026-04-25T07:13:16.884Z</time></trkpt><trkpt lat="42.2373817" lon="14.5349533"><ele>1.25</ele><time>2026-04-25T07:13:18.883Z</time></trkpt><trkpt lat="42.237445" lon="14.5348233"><ele>1.0</ele><time>2026-04-25T07:13:20.884Z</time></trkpt><trkpt lat="42.237505" lon="14.5346983"><ele>1.0</ele><time>2026-04-25T07:13:22.883Z</time></trkpt><trkpt lat="42.23757" lon="14.5345683"><ele>1.0</ele><time>2026-04-25T07:13:24.884Z</time></trkpt><trkpt lat="42.2376233" lon="14.5344367"><ele>1.0</ele><time>2026-04-25T07:13:26.884Z</time></trkpt><trkpt lat="42.23768" lon="14.5343183"><ele>1.0</ele><time>2026-04-25T07:13:28.883Z</time></trkpt><trkpt lat="42.237745" lon="14.534185"><ele>1.4</ele><time>2026-04-25T07:13:30.884Z</time></trkpt><trkpt lat="42.237775" lon="14.534105"><ele>1.8</ele><time>2026-04-25T07:13:31.883Z</time></trkpt><trkpt lat="42.2378383" lon="14.5339617"><ele>2.1999999999999997</ele><time>2026-04-25T07:13:33.883Z</time></trkpt><trkpt lat="42.2379" lon="14.533825"><ele>2.6</ele><time>2026-04-25T07:13:35.883Z</time></trkpt><trkpt lat="42.23796" lon="14.5336933"><ele>3.0</ele><time>2026-04-25T07:13:37.883Z</time></trkpt><trkpt lat="42.238025" lon="14.5335667"><ele>3.0</ele><time>2026-04-25T07:13:39.883Z</time></trkpt><trkpt lat="42.23809" lon="14.53343"><ele>3.0</ele><time>2026-04-25T07:13:41.883Z</time></trkpt><trkpt lat="42.238155" lon="14.5333017"><ele>3.0</ele><time>2026-04-25T07:13:43.883Z</time></trkpt><trkpt lat="42.2382117" lon="14.53317"><ele>3.0</ele><time>2026-04-25T07:13:45.883Z</time></trkpt><trkpt lat="42.2382733" lon="14.53304"><ele>3.25</ele><time>2026-04-25T07:13:47.884Z</time></trkpt><trkpt lat="42.2383367" lon="14.5329"><ele>3.5</ele><time>2026-04-25T07:13:49.884Z</time></trkpt><trkpt lat="42.2384017" lon="14.5327667"><ele>3.75</ele><time>2026-04-25T07:13:51.884Z</time></trkpt><trkpt lat="42.2384633" lon="14.532625"><ele>4.0</ele><time>2026-04-25T07:13:53.884Z</time></trkpt><trkpt lat="42.2385267" lon="14.532485"><ele>4.0</ele><time>2026-04-25T07:13:55.884Z</time></trkpt><trkpt lat="42.2385883" lon="14.53234"><ele>4.0</ele><time>2026-04-25T07:13:57.883Z</time></trkpt><trkpt lat="42.2386517" lon="14.5322017"><ele>4.0</ele><time>2026-04-25T07:13:59.884Z</time></trkpt><trkpt lat="42.2387117" lon="14.53207"><ele>4.0</ele><time>2026-04-25T07:14:01.883Z</time></trkpt><trkpt lat="42.2387733" lon="14.53194"><ele>3.5</ele><time>2026-04-25T07:14:03.884Z</time></trkpt><trkpt lat="42.2388317" lon="14.5318117"><ele>3.0</ele><time>2026-04-25T07:14:05.883Z</time></trkpt><trkpt lat="42.23889" lon="14.531675"><ele>2.5</ele><time>2026-04-25T07:14:07.883Z</time></trkpt><trkpt lat="42.2389467" lon="14.5315417"><ele>2.0</ele><time>2026-04-25T07:14:09.883Z</time></trkpt><trkpt lat="42.2390067" lon="14.5314083"><ele>1.75</ele><time>2026-04-25T07:14:11.883Z</time></trkpt><trkpt lat="42.23907" lon="14.5312717"><ele>1.5</ele><time>2026-04-25T07:14:13.884Z</time></trkpt><trkpt lat="42.239135" lon="14.531135"><ele>1.25</ele><time>2026-04-25T07:14:15.884Z</time></trkpt><trkpt lat="42.23919" lon="14.531"><ele>1.0</ele><time>2026-04-25T07:14:17.884Z</time></trkpt><trkpt lat="42.2392483" lon="14.5308717"><ele>1.0</ele><time>2026-04-25T07:14:19.884Z</time></trkpt><trkpt lat="42.239315" lon="14.5307383"><ele>1.0</ele><time>2026-04-25T07:14:21.884Z</time></trkpt><trkpt lat="42.2393767" lon="14.53061"><ele>1.0</ele><time>2026-04-25T07:14:23.884Z</time></trkpt><trkpt lat="42.239445" lon="14.530475"><ele>1.0</ele><time>2026-04-25T07:14:25.883Z</time></trkpt><trkpt lat="42.2395133" lon="14.530345"><ele>1.0</ele><time>2026-04-25T07:14:27.883Z</time></trkpt><trkpt lat="42.239565" lon="14.5302133"><ele>1.0</ele><time>2026-04-25T07:14:29.883Z</time></trkpt><trkpt lat="42.23962" lon="14.5300767"><ele>1.0</ele><time>2026-04-25T07:14:31.884Z</time></trkpt><trkpt lat="42.2396817" lon="14.5299367"><ele>1.0</ele><time>2026-04-25T07:14:33.883Z</time></trkpt><trkpt lat="42.2397417" lon="14.529805"><ele>1.0</ele><time>2026-04-25T07:14:35.883Z</time></trkpt><trkpt lat="42.2398017" lon="14.5296733"><ele>1.0</ele><time>2026-04-25T07:14:37.884Z</time></trkpt><trkpt lat="42.2398567" lon="14.5295367"><ele>1.0</ele><time>2026-04-25T07:14:39.884Z</time></trkpt><trkpt lat="42.23992" lon="14.5294033"><ele>1.0</ele><time>2026-04-25T07:14:41.883Z</time></trkpt><trkpt lat="42.23999" lon="14.5292683"><ele>1.0</ele><time>2026-04-25T07:14:43.884Z</time></trkpt><trkpt lat="42.2400267" lon="14.5291983"><ele>1.0</ele><time>2026-04-25T07:14:44.883Z</time></trkpt><trkpt lat="42.2400633" lon="14.5291283"><ele>1.0</ele><time>2026-04-25T07:14:45.884Z</time></trkpt><trkpt lat="42.2401233" lon="14.5289917"><ele>1.0</ele><time>2026-04-25T07:14:47.883Z</time></trkpt><trkpt lat="42.2401833" lon="14.5288517"><ele>1.0</ele><time>2026-04-25T07:14:49.884Z</time></trkpt><trkpt lat="42.2402417" lon="14.5287133"><ele>0.8</ele><time>2026-04-25T07:14:51.884Z</time></trkpt><trkpt lat="42.2402733" lon="14.5286383"><ele>0.6000000000000001</ele><time>2026-04-25T07:14:52.884Z</time></trkpt><trkpt lat="42.24033" lon="14.5285017"><ele>0.4</ele><time>2026-04-25T07:14:54.884Z</time></trkpt><trkpt lat="42.24039" lon="14.528365"><ele>0.2</ele><time>2026-04-25T07:14:56.883Z</time></trkpt><trkpt lat="42.2404267" lon="14.5282933"><ele>0.0</ele><time>2026-04-25T07:14:57.883Z</time></trkpt><trkpt lat="42.2404883" lon="14.52816"><ele>0.0</ele><time>2026-04-25T07:14:59.884Z</time></trkpt><trkpt lat="42.240555" lon="14.5280267"><ele>0.0</ele><time>2026-04-25T07:15:01.884Z</time></trkpt><trkpt lat="42.240615" lon="14.527895"><ele>0.0</ele><time>2026-04-25T07:15:03.884Z</time></trkpt><trkpt lat="42.240675" lon="14.5277567"><ele>0.0</ele><time>2026-04-25T07:15:05.884Z</time></trkpt><trkpt lat="42.2407317" lon="14.5276267"><ele>0.0</ele><time>2026-04-25T07:15:07.884Z</time></trkpt><trkpt lat="42.240795" lon="14.5275"><ele>0.0</ele><time>2026-04-25T07:15:09.884Z</time></trkpt><trkpt lat="42.240855" lon="14.527365"><ele>0.0</ele><time>2026-04-25T07:15:11.884Z</time></trkpt><trkpt lat="42.2409267" lon="14.527225"><ele>0.0</ele><time>2026-04-25T07:15:13.884Z</time></trkpt><trkpt lat="42.24099" lon="14.5270883"><ele>0.2</ele><time>2026-04-25T07:15:15.884Z</time></trkpt><trkpt lat="42.241025" lon="14.5270167"><ele>0.4</ele><time>2026-04-25T07:15:16.883Z</time></trkpt><trkpt lat="42.2410833" lon="14.5268867"><ele>0.6000000000000001</ele><time>2026-04-25T07:15:18.883Z</time></trkpt><trkpt lat="42.2411433" lon="14.5267483"><ele>0.8</ele><time>2026-04-25T07:15:20.884Z</time></trkpt><trkpt lat="42.2411967" lon="14.526615"><ele>1.0</ele><time>2026-04-25T07:15:22.884Z</time></trkpt><trkpt lat="42.2412633" lon="14.5264783"><ele>1.0</ele><time>2026-04-25T07:15:24.884Z</time></trkpt><trkpt lat="42.2413217" lon="14.5263367"><ele>1.0</ele><time>2026-04-25T07:15:26.884Z</time></trkpt><trkpt lat="42.2413783" lon="14.5262017"><ele>1.0</ele><time>2026-04-25T07:15:28.884Z</time></trkpt><trkpt lat="42.24144" lon="14.5260683"><ele>1.0</ele><time>2026-04-25T07:15:30.884Z</time></trkpt><trkpt lat="42.241505" lon="14.525925"><ele>1.0</ele><time>2026-04-25T07:15:32.884Z</time></trkpt><trkpt lat="42.2415667" lon="14.5257967"><ele>1.0</ele><time>2026-04-25T07:15:34.884Z</time></trkpt><trkpt lat="42.2416283" lon="14.52566"><ele>1.0</ele><time>2026-04-25T07:15:36.884Z</time></trkpt><trkpt lat="42.24169" lon="14.5255167"><ele>1.0</ele><time>2026-04-25T07:15:38.884Z</time></trkpt><trkpt lat="42.2417533" lon="14.5253783"><ele>1.0</ele><time>2026-04-25T07:15:40.883Z</time></trkpt><trkpt lat="42.2418117" lon="14.5252517"><ele>1.0</ele><time>2026-04-25T07:15:42.883Z</time></trkpt><trkpt lat="42.2418717" lon="14.5251233"><ele>1.0</ele><time>2026-04-25T07:15:44.884Z</time></trkpt><trkpt lat="42.2419367" lon="14.52499"><ele>1.0</ele><time>2026-04-25T07:15:46.884Z</time></trkpt><trkpt lat="42.242" lon="14.5248533"><ele>1.0</ele><time>2026-04-25T07:15:48.884Z</time></trkpt><trkpt lat="42.2420567" lon="14.5247167"><ele>1.0</ele><time>2026-04-25T07:15:50.884Z</time></trkpt><trkpt lat="42.2421167" lon="14.5245833"><ele>1.0</ele><time>2026-04-25T07:15:52.884Z</time></trkpt><trkpt lat="42.2421783" lon="14.52445"><ele>1.0</ele><time>2026-04-25T07:15:54.883Z</time></trkpt><trkpt lat="42.2422417" lon="14.52431"><ele>1.25</ele><time>2026-04-25T07:15:56.884Z</time></trkpt><trkpt lat="42.2423033" lon="14.5241767"><ele>1.5</ele><time>2026-04-25T07:15:58.884Z</time></trkpt><trkpt lat="42.2423617" lon="14.52404"><ele>1.75</ele><time>2026-04-25T07:16:00.884Z</time></trkpt><trkpt lat="42.24242" lon="14.5239117"><ele>2.0</ele><time>2026-04-25T07:16:02.884Z</time></trkpt><trkpt lat="42.2424833" lon="14.52378"><ele>1.75</ele><time>2026-04-25T07:16:04.884Z</time></trkpt><trkpt lat="42.2425467" lon="14.523645"><ele>1.5</ele><time>2026-04-25T07:16:06.884Z</time></trkpt><trkpt lat="42.2426083" lon="14.5235083"><ele>1.25</ele><time>2026-04-25T07:16:08.884Z</time></trkpt><trkpt lat="42.2426667" lon="14.5233733"><ele>1.0</ele><time>2026-04-25T07:16:10.884Z</time></trkpt><trkpt lat="42.242725" lon="14.5232383"><ele>1.0</ele><time>2026-04-25T07:16:12.884Z</time></trkpt><trkpt lat="42.2427883" lon="14.5231067"><ele>1.0</ele><time>2026-04-25T07:16:14.884Z</time></trkpt><trkpt lat="42.2428483" lon="14.52297"><ele>1.0</ele><time>2026-04-25T07:16:16.884Z</time></trkpt><trkpt lat="42.2429133" lon="14.52284"><ele>1.0</ele><time>2026-04-25T07:16:18.884Z</time></trkpt><trkpt lat="42.2429783" lon="14.5227083"><ele>1.0</ele><time>2026-04-25T07:16:20.884Z</time></trkpt><trkpt lat="42.243035" lon="14.5225733"><ele>1.0</ele><time>2026-04-25T07:16:22.883Z</time></trkpt><trkpt lat="42.243095" lon="14.5224433"><ele>1.0</ele><time>2026-04-25T07:16:24.884Z</time></trkpt><trkpt lat="42.2431517" lon="14.5223217"><ele>1.0</ele><time>2026-04-25T07:16:26.884Z</time></trkpt><trkpt lat="42.2432" lon="14.52222"><ele>1.0</ele><time>2026-04-25T07:16:28.884Z</time></trkpt><trkpt lat="42.2432533" lon="14.5221267"><ele>1.4</ele><time>2026-04-25T07:16:30.884Z</time></trkpt><trkpt lat="42.2433017" lon="14.522015"><ele>1.8</ele><time>2026-04-25T07:16:32.884Z</time></trkpt><trkpt lat="42.2433583" lon="14.5219"><ele>2.1999999999999997</ele><time>2026-04-25T07:16:34.884Z</time></trkpt><trkpt lat="42.24341" lon="14.521785"><ele>2.6</ele><time>2026-04-25T07:16:36.883Z</time></trkpt><trkpt lat="42.243465" lon="14.5216733"><ele>3.0</ele><time>2026-04-25T07:16:38.884Z</time></trkpt><trkpt lat="42.243515" lon="14.52155"><ele>3.0</ele><time>2026-04-25T07:16:40.884Z</time></trkpt><trkpt lat="42.24358" lon="14.52143"><ele>3.0</ele><time>2026-04-25T07:16:42.884Z</time></trkpt><trkpt lat="42.2436433" lon="14.5212983"><ele>3.0</ele><time>2026-04-25T07:16:44.884Z</time></trkpt><trkpt lat="42.2437017" lon="14.52116"><ele>3.0</ele><time>2026-04-25T07:16:46.884Z</time></trkpt><trkpt lat="42.2437583" lon="14.5210233"><ele>3.5999999999999996</ele><time>2026-04-25T07:16:48.884Z</time></trkpt><trkpt lat="42.2438183" lon="14.5208967"><ele>4.199999999999999</ele><time>2026-04-25T07:16:50.883Z</time></trkpt><trkpt lat="42.24388" lon="14.5207683"><ele>4.8</ele><time>2026-04-25T07:16:52.884Z</time></trkpt><trkpt lat="42.2439433" lon="14.5206267"><ele>5.3999999999999995</ele><time>2026-04-25T07:16:54.884Z</time></trkpt><trkpt lat="42.243995" lon="14.52051"><ele>6.0</ele><time>2026-04-25T07:16:56.884Z</time></trkpt><trkpt lat="42.2440533" lon="14.5203883"><ele>6.6</ele><time>2026-04-25T07:16:58.883Z</time></trkpt><trkpt lat="42.2440917" lon="14.52032"><ele>7.199999999999999</ele><time>2026-04-25T07:16:59.884Z</time></trkpt><trkpt lat="42.244145" lon="14.5201967"><ele>7.800000000000001</ele><time>2026-04-25T07:17:01.884Z</time></trkpt><trkpt lat="42.2442067" lon="14.5200683"><ele>8.4</ele><time>2026-04-25T07:17:03.884Z</time></trkpt><trkpt lat="42.2442667" lon="14.5199267"><ele>9.0</ele><time>2026-04-25T07:17:05.884Z</time></trkpt><trkpt lat="42.244325" lon="14.51979"><ele>9.0</ele><time>2026-04-25T07:17:07.884Z</time></trkpt><trkpt lat="42.2443867" lon="14.5196533"><ele>9.0</ele><time>2026-04-25T07:17:09.883Z</time></trkpt><trkpt lat="42.24442" lon="14.51958"><ele>9.0</ele><time>2026-04-25T07:17:10.884Z</time></trkpt><trkpt lat="42.2444783" lon="14.5194467"><ele>9.0</ele><time>2026-04-25T07:17:12.884Z</time></trkpt><trkpt lat="42.2445367" lon="14.5193117"><ele>9.0</ele><time>2026-04-25T07:17:14.883Z</time></trkpt><trkpt lat="42.2445983" lon="14.5191767"><ele>9.0</ele><time>2026-04-25T07:17:16.884Z</time></trkpt><trkpt lat="42.2446717" lon="14.51904"><ele>9.0</ele><time>2026-04-25T07:17:18.884Z</time></trkpt><trkpt lat="42.24474" lon="14.5189167"><ele>9.0</ele><time>2026-04-25T07:17:20.883Z</time></trkpt><trkpt lat="42.2448" lon="14.5187817"><ele>9.0</ele><time>2026-04-25T07:17:22.884Z</time></trkpt><trkpt lat="42.2448517" lon="14.5186483"><ele>8.5</ele><time>2026-04-25T07:17:24.884Z</time></trkpt><trkpt lat="42.24493" lon="14.51852"><ele>8.0</ele><time>2026-04-25T07:17:26.884Z</time></trkpt><trkpt lat="42.2449833" lon="14.5183917"><ele>7.5</ele><time>2026-04-25T07:17:28.883Z</time></trkpt><trkpt lat="42.2450417" lon="14.5182633"><ele>7.0</ele><time>2026-04-25T07:17:30.883Z</time></trkpt><trkpt lat="42.2451" lon="14.5181383"><ele>7.0</ele><time>2026-04-25T07:17:32.884Z</time></trkpt><trkpt lat="42.2451717" lon="14.5180083"><ele>7.0</ele><time>2026-04-25T07:17:34.884Z</time></trkpt><trkpt lat="42.24524" lon="14.5178783"><ele>7.0</ele><time>2026-04-25T07:17:36.883Z</time></trkpt><trkpt lat="42.2453083" lon="14.5177517"><ele>7.0</ele><time>2026-04-25T07:17:38.884Z</time></trkpt><trkpt lat="42.2453783" lon="14.5176283"><ele>6.75</ele><time>2026-04-25T07:17:40.884Z</time></trkpt><trkpt lat="42.2454483" lon="14.51751"><ele>6.5</ele><time>2026-04-25T07:17:42.883Z</time></trkpt><trkpt lat="42.2455167" lon="14.5173867"><ele>6.25</ele><time>2026-04-25T07:17:44.884Z</time></trkpt><trkpt lat="42.245595" lon="14.51727"><ele>6.0</ele><time>2026-04-25T07:17:46.884Z</time></trkpt><trkpt lat="42.2456717" lon="14.5171483"><ele>6.25</ele><time>2026-04-25T07:17:48.884Z</time></trkpt><trkpt lat="42.245745" lon="14.5170233"><ele>6.5</ele><time>2026-04-25T07:17:50.884Z</time></trkpt><trkpt lat="42.24582" lon="14.5168933"><ele>6.75</ele><time>2026-04-25T07:17:52.884Z</time></trkpt><trkpt lat="42.2458933" lon="14.5167683"><ele>7.0</ele><time>2026-04-25T07:17:54.883Z</time></trkpt><trkpt lat="42.2459683" lon="14.516645"><ele>7.0</ele><time>2026-04-25T07:17:56.884Z</time></trkpt><trkpt lat="42.2460483" lon="14.5165283"><ele>6.999999999999999</ele><time>2026-04-25T07:17:58.884Z</time></trkpt><trkpt lat="42.24613" lon="14.51641"><ele>6.999999999999999</ele><time>2026-04-25T07:18:00.884Z</time></trkpt><trkpt lat="42.2461767" lon="14.5163483"><ele>7.0</ele><time>2026-04-25T07:18:01.884Z</time></trkpt><trkpt lat="42.2462167" lon="14.51628"><ele>7.0</ele><time>2026-04-25T07:18:02.884Z</time></trkpt><trkpt lat="42.2462833" lon="14.516165"><ele>7.25</ele><time>2026-04-25T07:18:04.883Z</time></trkpt><trkpt lat="42.2463583" lon="14.51605"><ele>7.5</ele><time>2026-04-25T07:18:06.883Z</time></trkpt><trkpt lat="42.2464333" lon="14.5159333"><ele>7.75</ele><time>2026-04-25T07:18:08.883Z</time></trkpt><trkpt lat="42.2465083" lon="14.515815"><ele>8.0</ele><time>2026-04-25T07:18:10.884Z</time></trkpt><trkpt lat="42.2465817" lon="14.5156967"><ele>8.0</ele><time>2026-04-25T07:18:12.884Z</time></trkpt><trkpt lat="42.246655" lon="14.5155717"><ele>8.0</ele><time>2026-04-25T07:18:14.884Z</time></trkpt><trkpt lat="42.2467283" lon="14.515455"><ele>8.0</ele><time>2026-04-25T07:18:16.884Z</time></trkpt><trkpt lat="42.2468" lon="14.51534"><ele>8.0</ele><time>2026-04-25T07:18:18.884Z</time></trkpt><trkpt lat="42.2468767" lon="14.5152267"><ele>9.5</ele><time>2026-04-25T07:18:20.884Z</time></trkpt><trkpt lat="42.2469483" lon="14.5151067"><ele>11.0</ele><time>2026-04-25T07:18:22.883Z</time></trkpt><trkpt lat="42.2470233" lon="14.5149783"><ele>12.5</ele><time>2026-04-25T07:18:24.884Z</time></trkpt><trkpt lat="42.247095" lon="14.5148633"><ele>14.0</ele><time>2026-04-25T07:18:26.883Z</time></trkpt><trkpt lat="42.2471667" lon="14.514745"><ele>14.0</ele><time>2026-04-25T07:18:28.883Z</time></trkpt><trkpt lat="42.2472383" lon="14.514625"><ele>14.0</ele><time>2026-04-25T07:18:30.884Z</time></trkpt><trkpt lat="42.247315" lon="14.5145"><ele>14.0</ele><time>2026-04-25T07:18:32.883Z</time></trkpt><trkpt lat="42.247385" lon="14.51438"><ele>14.0</ele><time>2026-04-25T07:18:34.884Z</time></trkpt><trkpt lat="42.2474583" lon="14.51426"><ele>12.5</ele><time>2026-04-25T07:18:36.883Z</time></trkpt><trkpt lat="42.2475367" lon="14.51414"><ele>11.0</ele><time>2026-04-25T07:18:38.884Z</time></trkpt><trkpt lat="42.2476133" lon="14.514015"><ele>9.5</ele><time>2026-04-25T07:18:40.883Z</time></trkpt><trkpt lat="42.2476883" lon="14.5138883"><ele>8.0</ele><time>2026-04-25T07:18:42.883Z</time></trkpt><trkpt lat="42.24776" lon="14.51377"><ele>9.600000000000001</ele><time>2026-04-25T07:18:44.884Z</time></trkpt><trkpt lat="42.2478333" lon="14.51366"><ele>11.200000000000001</ele><time>2026-04-25T07:18:46.884Z</time></trkpt><trkpt lat="42.2479083" lon="14.513535"><ele>12.8</ele><time>2026-04-25T07:18:48.883Z</time></trkpt><trkpt lat="42.2479767" lon="14.513415"><ele>14.4</ele><time>2026-04-25T07:18:50.884Z</time></trkpt><trkpt lat="42.2480183" lon="14.5133467"><ele>16.0</ele><time>2026-04-25T07:18:51.884Z</time></trkpt><trkpt lat="42.2480933" lon="14.513225"><ele>14.5</ele><time>2026-04-25T07:18:53.884Z</time></trkpt><trkpt lat="42.2481683" lon="14.5130933"><ele>13.0</ele><time>2026-04-25T07:18:55.884Z</time></trkpt><trkpt lat="42.2482417" lon="14.5129733"><ele>11.5</ele><time>2026-04-25T07:18:57.884Z</time></trkpt><trkpt lat="42.2483033" lon="14.5128533"><ele>10.0</ele><time>2026-04-25T07:18:59.883Z</time></trkpt><trkpt lat="42.2483783" lon="14.5127333"><ele>10.0</ele><time>2026-04-25T07:19:01.884Z</time></trkpt><trkpt lat="42.24846" lon="14.5126083"><ele>10.0</ele><time>2026-04-25T07:19:03.884Z</time></trkpt><trkpt lat="42.2485317" lon="14.51249"><ele>10.0</ele><time>2026-04-25T07:19:05.884Z</time></trkpt><trkpt lat="42.2485983" lon="14.512365"><ele>10.0</ele><time>2026-04-25T07:19:07.884Z</time></trkpt><trkpt lat="42.2486733" lon="14.512245"><ele>10.0</ele><time>2026-04-25T07:19:09.884Z</time></trkpt><trkpt lat="42.2487567" lon="14.51212"><ele>10.0</ele><time>2026-04-25T07:19:11.884Z</time></trkpt><trkpt lat="42.2488233" lon="14.5120017"><ele>10.0</ele><time>2026-04-25T07:19:13.883Z</time></trkpt><trkpt lat="42.248895" lon="14.511885"><ele>10.0</ele><time>2026-04-25T07:19:15.884Z</time></trkpt><trkpt lat="42.24896" lon="14.511775"><ele>9.2</ele><time>2026-04-25T07:19:17.884Z</time></trkpt><trkpt lat="42.2490333" lon="14.5116617"><ele>8.4</ele><time>2026-04-25T07:19:19.883Z</time></trkpt><trkpt lat="42.2491033" lon="14.5115333"><ele>7.6</ele><time>2026-04-25T07:19:21.884Z</time></trkpt><trkpt lat="42.24914" lon="14.5114633"><ele>6.8</ele><time>2026-04-25T07:19:22.883Z</time></trkpt><trkpt lat="42.24922" lon="14.5113467"><ele>6.0</ele><time>2026-04-25T07:19:24.884Z</time></trkpt><trkpt lat="42.24929" lon="14.5112533"><ele>7.8</ele><time>2026-04-25T07:19:26.884Z</time></trkpt><trkpt lat="42.249335" lon="14.5111933"><ele>9.6</ele><time>2026-04-25T07:19:27.884Z</time></trkpt><trkpt lat="42.24941" lon="14.5110683"><ele>11.4</ele><time>2026-04-25T07:19:29.883Z</time></trkpt><trkpt lat="42.2494817" lon="14.5109467"><ele>13.2</ele><time>2026-04-25T07:19:31.883Z</time></trkpt><trkpt lat="42.249565" lon="14.5108283"><ele>15.0</ele><time>2026-04-25T07:19:33.884Z</time></trkpt><trkpt lat="42.2496383" lon="14.5107033"><ele>15.0</ele><time>2026-04-25T07:19:35.884Z</time></trkpt><trkpt lat="42.2497167" lon="14.510575"><ele>15.0</ele><time>2026-04-25T07:19:37.884Z</time></trkpt><trkpt lat="42.2497967" lon="14.5104583"><ele>15.0</ele><time>2026-04-25T07:19:39.884Z</time></trkpt><trkpt lat="42.2498633" lon="14.5103417"><ele>15.0</ele><time>2026-04-25T07:19:41.884Z</time></trkpt><trkpt lat="42.24994" lon="14.5102317"><ele>14.2</ele><time>2026-04-25T07:19:43.883Z</time></trkpt><trkpt lat="42.2500133" lon="14.51012"><ele>13.4</ele><time>2026-04-25T07:19:45.883Z</time></trkpt><trkpt lat="42.2501" lon="14.5099983"><ele>12.600000000000001</ele><time>2026-04-25T07:19:47.883Z</time></trkpt><trkpt lat="42.250185" lon="14.50989"><ele>11.8</ele><time>2026-04-25T07:19:49.884Z</time></trkpt><trkpt lat="42.25023" lon="14.50983"><ele>11.0</ele><time>2026-04-25T07:19:50.884Z</time></trkpt><trkpt lat="42.25032" lon="14.5097183"><ele>11.0</ele><time>2026-04-25T07:19:52.884Z</time></trkpt><trkpt lat="42.2504067" lon="14.5096033"><ele>11.0</ele><time>2026-04-25T07:19:54.884Z</time></trkpt><trkpt lat="42.2504917" lon="14.5094967"><ele>11.0</ele><time>2026-04-25T07:19:56.884Z</time></trkpt><trkpt lat="42.2505733" lon="14.5094033"><ele>11.0</ele><time>2026-04-25T07:19:58.884Z</time></trkpt><trkpt lat="42.250655" lon="14.509315"><ele>11.0</ele><time>2026-04-25T07:20:00.883Z</time></trkpt><trkpt lat="42.2507433" lon="14.5092267"><ele>11.200000000000001</ele><time>2026-04-25T07:20:02.884Z</time></trkpt><trkpt lat="42.2508217" lon="14.50913"><ele>11.4</ele><time>2026-04-25T07:20:04.884Z</time></trkpt><trkpt lat="42.250915" lon="14.5090417"><ele>11.6</ele><time>2026-04-25T07:20:06.883Z</time></trkpt><trkpt lat="42.251005" lon="14.5089617"><ele>11.8</ele><time>2026-04-25T07:20:08.884Z</time></trkpt><trkpt lat="42.2510917" lon="14.50887"><ele>12.0</ele><time>2026-04-25T07:20:10.884Z</time></trkpt><trkpt lat="42.2511733" lon="14.5087667"><ele>13.0</ele><time>2026-04-25T07:20:12.884Z</time></trkpt><trkpt lat="42.2512617" lon="14.508675"><ele>14.0</ele><time>2026-04-25T07:20:14.884Z</time></trkpt><trkpt lat="42.2513417" lon="14.5085967"><ele>15.0</ele><time>2026-04-25T07:20:16.883Z</time></trkpt><trkpt lat="42.2514183" lon="14.508515"><ele>16.0</ele><time>2026-04-25T07:20:18.884Z</time></trkpt><trkpt lat="42.2514883" lon="14.5084583"><ele>17.0</ele><time>2026-04-25T07:20:20.883Z</time></trkpt><trkpt lat="42.2515517" lon="14.5084667"><ele>15.0</ele><time>2026-04-25T07:20:22.884Z</time></trkpt><trkpt lat="42.25161" lon="14.50855"><ele>13.0</ele><time>2026-04-25T07:20:24.884Z</time></trkpt><trkpt lat="42.2516833" lon="14.5086617"><ele>11.0</ele><time>2026-04-25T07:20:26.884Z</time></trkpt><trkpt lat="42.25174" lon="14.508795"><ele>9.0</ele><time>2026-04-25T07:20:28.883Z</time></trkpt><trkpt lat="42.2517567" lon="14.50888"><ele>7.0</ele><time>2026-04-25T07:20:30.883Z</time></trkpt><trkpt lat="42.2516933" lon="14.5089767"><ele>6.6</ele><time>2026-04-25T07:20:32.884Z</time></trkpt><trkpt lat="42.2516233" lon="14.5090883"><ele>6.199999999999999</ele><time>2026-04-25T07:20:34.884Z</time></trkpt><trkpt lat="42.2515583" lon="14.5092017"><ele>5.8</ele><time>2026-04-25T07:20:36.883Z</time></trkpt><trkpt lat="42.2514817" lon="14.5093067"><ele>5.4</ele><time>2026-04-25T07:20:38.884Z</time></trkpt><trkpt lat="42.2514017" lon="14.5094167"><ele>5.0</ele><time>2026-04-25T07:20:40.884Z</time></trkpt><trkpt lat="42.2513467" lon="14.5094583"><ele>5.0</ele><time>2026-04-25T07:20:41.884Z</time></trkpt><trkpt lat="42.2512967" lon="14.5095117"><ele>5.0</ele><time>2026-04-25T07:20:42.884Z</time></trkpt><trkpt lat="42.2512483" lon="14.509575"><ele>5.0</ele><time>2026-04-25T07:20:43.883Z</time></trkpt><trkpt lat="42.251205" lon="14.5096383"><ele>5.0</ele><time>2026-04-25T07:20:44.884Z</time></trkpt><trkpt lat="42.2511283" lon="14.509755"><ele>5.0</ele><time>2026-04-25T07:20:46.884Z</time></trkpt><trkpt lat="42.2510417" lon="14.50986"><ele>5.0</ele><time>2026-04-25T07:20:48.883Z</time></trkpt><trkpt lat="42.2509717" lon="14.50997"><ele>5.0</ele><time>2026-04-25T07:20:50.884Z</time></trkpt><trkpt lat="42.2509033" lon="14.5100783"><ele>5.0</ele><time>2026-04-25T07:20:52.884Z</time></trkpt><trkpt lat="42.2508217" lon="14.510185"><ele>5.0</ele><time>2026-04-25T07:20:54.883Z</time></trkpt><trkpt lat="42.25074" lon="14.510295"><ele>5.0</ele><time>2026-04-25T07:20:56.883Z</time></trkpt><trkpt lat="42.25067" lon="14.5104033"><ele>5.0</ele><time>2026-04-25T07:20:58.884Z</time></trkpt><trkpt lat="42.2506183" lon="14.5104567"><ele>5.2</ele><time>2026-04-25T07:20:59.884Z</time></trkpt><trkpt lat="42.25053" lon="14.51057"><ele>5.4</ele><time>2026-04-25T07:21:01.883Z</time></trkpt><trkpt lat="42.2504617" lon="14.5106783"><ele>5.6</ele><time>2026-04-25T07:21:03.884Z</time></trkpt><trkpt lat="42.2503833" lon="14.5107833"><ele>5.8</ele><time>2026-04-25T07:21:05.884Z</time></trkpt><trkpt lat="42.250335" lon="14.5108383"><ele>6.0</ele><time>2026-04-25T07:21:06.883Z</time></trkpt><trkpt lat="42.2502867" lon="14.5109"><ele>6.0</ele><time>2026-04-25T07:21:07.884Z</time></trkpt><trkpt lat="42.2502383" lon="14.51096"><ele>6.0</ele><time>2026-04-25T07:21:08.883Z</time></trkpt><trkpt lat="42.2501517" lon="14.51108"><ele>6.0</ele><time>2026-04-25T07:21:10.884Z</time></trkpt><trkpt lat="42.2500767" lon="14.5111933"><ele>6.0</ele><time>2026-04-25T07:21:12.884Z</time></trkpt><trkpt lat="42.2499933" lon="14.51131"><ele>6.0</ele><time>2026-04-25T07:21:14.883Z</time></trkpt><trkpt lat="42.2499117" lon="14.5114317"><ele>6.0</ele><time>2026-04-25T07:21:16.884Z</time></trkpt><trkpt lat="42.2498467" lon="14.5115367"><ele>6.0</ele><time>2026-04-25T07:21:18.884Z</time></trkpt><trkpt lat="42.24975" lon="14.5116333"><ele>6.0</ele><time>2026-04-25T07:21:20.884Z</time></trkpt><trkpt lat="42.2496933" lon="14.51169"><ele>6.0</ele><time>2026-04-25T07:21:21.884Z</time></trkpt><trkpt lat="42.24964" lon="14.5117517"><ele>6.0</ele><time>2026-04-25T07:21:22.884Z</time></trkpt><trkpt lat="42.2495533" lon="14.51187"><ele>6.0</ele><time>2026-04-25T07:21:24.883Z</time></trkpt><trkpt lat="42.2494683" lon="14.5119883"><ele>6.0</ele><time>2026-04-25T07:21:26.884Z</time></trkpt><trkpt lat="42.2493867" lon="14.5120933"><ele>6.0</ele><time>2026-04-25T07:21:28.884Z</time></trkpt><trkpt lat="42.249315" lon="14.51221"><ele>6.0</ele><time>2026-04-25T07:21:30.884Z</time></trkpt><trkpt lat="42.2492633" lon="14.5122633"><ele>6.0</ele><time>2026-04-25T07:21:31.884Z</time></trkpt><trkpt lat="42.2491833" lon="14.512375"><ele>5.25</ele><time>2026-04-25T07:21:33.884Z</time></trkpt><trkpt lat="42.249105" lon="14.51249"><ele>4.5</ele><time>2026-04-25T07:21:35.884Z</time></trkpt><trkpt lat="42.24903" lon="14.5126167"><ele>3.75</ele><time>2026-04-25T07:21:37.884Z</time></trkpt><trkpt lat="42.2489567" lon="14.5127417"><ele>3.0</ele><time>2026-04-25T07:21:39.884Z</time></trkpt><trkpt lat="42.2488783" lon="14.512855"><ele>3.75</ele><time>2026-04-25T07:21:41.884Z</time></trkpt><trkpt lat="42.2488167" lon="14.5129717"><ele>4.5</ele><time>2026-04-25T07:21:43.884Z</time></trkpt><trkpt lat="42.2487433" lon="14.5131"><ele>5.25</ele><time>2026-04-25T07:21:45.884Z</time></trkpt><trkpt lat="42.2486783" lon="14.5132233"><ele>6.0</ele><time>2026-04-25T07:21:47.884Z</time></trkpt><trkpt lat="42.24861" lon="14.5133567"><ele>6.0</ele><time>2026-04-25T07:21:49.884Z</time></trkpt><trkpt lat="42.2485383" lon="14.5134967"><ele>6.0</ele><time>2026-04-25T07:21:51.883Z</time></trkpt><trkpt lat="42.248495" lon="14.5135667"><ele>6.0</ele><time>2026-04-25T07:21:52.883Z</time></trkpt><trkpt lat="42.24845" lon="14.51363"><ele>6.0</ele><time>2026-04-25T07:21:53.883Z</time></trkpt><trkpt lat="42.2483783" lon="14.5137583"><ele>6.0</ele><time>2026-04-25T07:21:55.884Z</time></trkpt><trkpt lat="42.2483267" lon="14.5138767"><ele>6.5</ele><time>2026-04-25T07:21:57.884Z</time></trkpt><trkpt lat="42.2482567" lon="14.5140067"><ele>7.0</ele><time>2026-04-25T07:21:59.884Z</time></trkpt><trkpt lat="42.2481967" lon="14.5141417"><ele>7.5</ele><time>2026-04-25T07:22:01.883Z</time></trkpt><trkpt lat="42.2481367" lon="14.5142683"><ele>8.0</ele><time>2026-04-25T07:22:03.883Z</time></trkpt><trkpt lat="42.2480533" lon="14.5143917"><ele>8.0</ele><time>2026-04-25T07:22:05.884Z</time></trkpt><trkpt lat="42.2479817" lon="14.5145233"><ele>8.0</ele><time>2026-04-25T07:22:07.884Z</time></trkpt><trkpt lat="42.24792" lon="14.5146517"><ele>8.0</ele><time>2026-04-25T07:22:09.883Z</time></trkpt><trkpt lat="42.2478433" lon="14.5147783"><ele>8.0</ele><time>2026-04-25T07:22:11.884Z</time></trkpt><trkpt lat="42.2478017" lon="14.5148433"><ele>8.0</ele><time>2026-04-25T07:22:12.883Z</time></trkpt><trkpt lat="42.2477617" lon="14.5149133"><ele>7.6000000000000005</ele><time>2026-04-25T07:22:13.884Z</time></trkpt><trkpt lat="42.2477217" lon="14.5149817"><ele>7.200000000000001</ele><time>2026-04-25T07:22:14.883Z</time></trkpt><trkpt lat="42.2476833" lon="14.51505"><ele>6.8</ele><time>2026-04-25T07:22:15.884Z</time></trkpt><trkpt lat="42.2476133" lon="14.515185"><ele>6.4</ele><time>2026-04-25T07:22:17.884Z</time></trkpt><trkpt lat="42.2475417" lon="14.5153117"><ele>6.0</ele><time>2026-04-25T07:22:19.883Z</time></trkpt><trkpt lat="42.2474817" lon="14.515445"><ele>6.5</ele><time>2026-04-25T07:22:21.884Z</time></trkpt><trkpt lat="42.2474067" lon="14.5155717"><ele>7.0</ele><time>2026-04-25T07:22:23.884Z</time></trkpt><trkpt lat="42.2473333" lon="14.5156967"><ele>7.5</ele><time>2026-04-25T07:22:25.883Z</time></trkpt><trkpt lat="42.2472633" lon="14.51583"><ele>8.0</ele><time>2026-04-25T07:22:27.884Z</time></trkpt><trkpt lat="42.2471983" lon="14.515965"><ele>8.0</ele><time>2026-04-25T07:22:29.884Z</time></trkpt><trkpt lat="42.247125" lon="14.5160817"><ele>8.0</ele><time>2026-04-25T07:22:31.883Z</time></trkpt><trkpt lat="42.2470567" lon="14.5162117"><ele>8.0</ele><time>2026-04-25T07:22:33.884Z</time></trkpt><trkpt lat="42.2469917" lon="14.51634"><ele>8.0</ele><time>2026-04-25T07:22:35.883Z</time></trkpt><trkpt lat="42.2469267" lon="14.5164667"><ele>7.4</ele><time>2026-04-25T07:22:37.883Z</time></trkpt><trkpt lat="42.2468633" lon="14.5165983"><ele>6.800000000000001</ele><time>2026-04-25T07:22:39.883Z</time></trkpt><trkpt lat="42.2467983" lon="14.5167133"><ele>6.2</ele><time>2026-04-25T07:22:41.883Z</time></trkpt><trkpt lat="42.2467317" lon="14.5168283"><ele>5.6</ele><time>2026-04-25T07:22:43.883Z</time></trkpt><trkpt lat="42.2466617" lon="14.5169467"><ele>5.0</ele><time>2026-04-25T07:22:45.884Z</time></trkpt><trkpt lat="42.2465933" lon="14.5170783"><ele>5.2</ele><time>2026-04-25T07:22:47.884Z</time></trkpt><trkpt lat="42.246535" lon="14.5172083"><ele>5.4</ele><time>2026-04-25T07:22:49.883Z</time></trkpt><trkpt lat="42.2464767" lon="14.5173533"><ele>5.6</ele><time>2026-04-25T07:22:51.884Z</time></trkpt><trkpt lat="42.2464433" lon="14.5174267"><ele>5.8</ele><time>2026-04-25T07:22:52.883Z</time></trkpt><trkpt lat="42.24637" lon="14.5175467"><ele>6.0</ele><time>2026-04-25T07:22:54.884Z</time></trkpt><trkpt lat="42.246295" lon="14.5176633"><ele>6.0</ele><time>2026-04-25T07:22:56.884Z</time></trkpt><trkpt lat="42.2462183" lon="14.5177883"><ele>6.0</ele><time>2026-04-25T07:22:58.883Z</time></trkpt><trkpt lat="42.2461767" lon="14.5178533"><ele>6.0</ele><time>2026-04-25T07:22:59.884Z</time></trkpt><trkpt lat="42.24614" lon="14.5179233"><ele>6.0</ele><time>2026-04-25T07:23:00.884Z</time></trkpt><trkpt lat="42.2460717" lon="14.51805"><ele>6.0</ele><time>2026-04-25T07:23:02.884Z</time></trkpt><trkpt lat="42.24601" lon="14.5181667"><ele>5.5</ele><time>2026-04-25T07:23:04.884Z</time></trkpt><trkpt lat="42.2459383" lon="14.5182817"><ele>5.0</ele><time>2026-04-25T07:23:06.884Z</time></trkpt><trkpt lat="42.24587" lon="14.5184067"><ele>4.5</ele><time>2026-04-25T07:23:08.883Z</time></trkpt><trkpt lat="42.2458017" lon="14.5185333"><ele>4.0</ele><time>2026-04-25T07:23:10.883Z</time></trkpt><trkpt lat="42.2457367" lon="14.5186633"><ele>3.6</ele><time>2026-04-25T07:23:12.884Z</time></trkpt><trkpt lat="42.245675" lon="14.5188"><ele>3.2</ele><time>2026-04-25T07:23:14.884Z</time></trkpt><trkpt lat="42.24561" lon="14.5189317"><ele>2.8000000000000003</ele><time>2026-04-25T07:23:16.884Z</time></trkpt><trkpt lat="42.2455733" lon="14.5190133"><ele>2.4000000000000004</ele><time>2026-04-25T07:23:17.884Z</time></trkpt><trkpt lat="42.2455383" lon="14.519085"><ele>2.0</ele><time>2026-04-25T07:23:18.884Z</time></trkpt><trkpt lat="42.245475" lon="14.5192267"><ele>2.8</ele><time>2026-04-25T07:23:20.884Z</time></trkpt><trkpt lat="42.24541" lon="14.5193683"><ele>3.6</ele><time>2026-04-25T07:23:22.883Z</time></trkpt><trkpt lat="42.24535" lon="14.51951"><ele>4.3999999999999995</ele><time>2026-04-25T07:23:24.884Z</time></trkpt><trkpt lat="42.24532" lon="14.5195883"><ele>5.2</ele><time>2026-04-25T07:23:25.883Z</time></trkpt><trkpt lat="42.2452883" lon="14.5196633"><ele>6.0</ele><time>2026-04-25T07:23:26.884Z</time></trkpt><trkpt lat="42.245225" lon="14.51981"><ele>6.199999999999999</ele><time>2026-04-25T07:23:28.884Z</time></trkpt><trkpt lat="42.24515" lon="14.51995"><ele>6.3999999999999995</ele><time>2026-04-25T07:23:30.884Z</time></trkpt><trkpt lat="42.2450883" lon="14.5200933"><ele>6.6</ele><time>2026-04-25T07:23:32.882Z</time></trkpt><trkpt lat="42.2450483" lon="14.5201617"><ele>6.8</ele><time>2026-04-25T07:23:33.882Z</time></trkpt><trkpt lat="42.244985" lon="14.5202933"><ele>7.0</ele><time>2026-04-25T07:23:35.882Z</time></trkpt><trkpt lat="42.2449117" lon="14.5204267"><ele>6.75</ele><time>2026-04-25T07:23:37.883Z</time></trkpt><trkpt lat="42.24483" lon="14.5205417"><ele>6.5</ele><time>2026-04-25T07:23:39.883Z</time></trkpt><trkpt lat="42.2447517" lon="14.52065"><ele>6.25</ele><time>2026-04-25T07:23:41.883Z</time></trkpt><trkpt lat="42.2446767" lon="14.5207583"><ele>6.0</ele><time>2026-04-25T07:23:43.883Z</time></trkpt><trkpt lat="42.2445933" lon="14.52088"><ele>6.0</ele><time>2026-04-25T07:23:45.883Z</time></trkpt><trkpt lat="42.2445117" lon="14.5210067"><ele>6.0</ele><time>2026-04-25T07:23:47.883Z</time></trkpt><trkpt lat="42.24447" lon="14.5210717"><ele>6.0</ele><time>2026-04-25T07:23:48.883Z</time></trkpt><trkpt lat="42.2443883" lon="14.521195"><ele>6.0</ele><time>2026-04-25T07:23:50.883Z</time></trkpt><trkpt lat="42.2443083" lon="14.521315"><ele>6.0</ele><time>2026-04-25T07:23:52.883Z</time></trkpt><trkpt lat="42.244225" lon="14.521435"><ele>5.3999999999999995</ele><time>2026-04-25T07:23:54.883Z</time></trkpt><trkpt lat="42.2441433" lon="14.5215517"><ele>4.8</ele><time>2026-04-25T07:23:56.883Z</time></trkpt><trkpt lat="42.24406" lon="14.5216733"><ele>4.199999999999999</ele><time>2026-04-25T07:23:58.883Z</time></trkpt><trkpt lat="42.2440167" lon="14.5217367"><ele>3.5999999999999996</ele><time>2026-04-25T07:23:59.883Z</time></trkpt><trkpt lat="42.2439383" lon="14.5218583"><ele>3.0</ele><time>2026-04-25T07:24:01.882Z</time></trkpt><trkpt lat="42.2438567" lon="14.52198"><ele>3.0</ele><time>2026-04-25T07:24:03.882Z</time></trkpt><trkpt lat="42.2438117" lon="14.522045"><ele>3.0</ele><time>2026-04-25T07:24:04.883Z</time></trkpt><trkpt lat="42.243735" lon="14.5221617"><ele>3.0</ele><time>2026-04-25T07:24:06.883Z</time></trkpt><trkpt lat="42.2436533" lon="14.5222617"><ele>3.0</ele><time>2026-04-25T07:24:08.883Z</time></trkpt><trkpt lat="42.2435733" lon="14.52237"><ele>3.0</ele><time>2026-04-25T07:24:10.882Z</time></trkpt><trkpt lat="42.2434983" lon="14.5225017"><ele>2.8</ele><time>2026-04-25T07:24:12.882Z</time></trkpt><trkpt lat="42.24346" lon="14.52257"><ele>2.5999999999999996</ele><time>2026-04-25T07:24:13.883Z</time></trkpt><trkpt lat="42.2434217" lon="14.5226433"><ele>2.4000000000000004</ele><time>2026-04-25T07:24:14.883Z</time></trkpt><trkpt lat="42.243345" lon="14.52277"><ele>2.2</ele><time>2026-04-25T07:24:16.883Z</time></trkpt><trkpt lat="42.2432733" lon="14.5228883"><ele>2.0</ele><time>2026-04-25T07:24:18.883Z</time></trkpt><trkpt lat="42.2431983" lon="14.52301"><ele>1.8</ele><time>2026-04-25T07:24:20.883Z</time></trkpt><trkpt lat="42.2431233" lon="14.523135"><ele>1.6</ele><time>2026-04-25T07:24:22.882Z</time></trkpt><trkpt lat="42.2430483" lon="14.52327"><ele>1.4000000000000001</ele><time>2026-04-25T07:24:24.883Z</time></trkpt><trkpt lat="42.2430117" lon="14.52334"><ele>1.2000000000000002</ele><time>2026-04-25T07:24:25.883Z</time></trkpt><trkpt lat="42.2429433" lon="14.5234783"><ele>1.0</ele><time>2026-04-25T07:24:27.883Z</time></trkpt><trkpt lat="42.2428733" lon="14.523615"><ele>1.25</ele><time>2026-04-25T07:24:29.882Z</time></trkpt><trkpt lat="42.2428017" lon="14.5237417"><ele>1.5</ele><time>2026-04-25T07:24:31.883Z</time></trkpt><trkpt lat="42.242735" lon="14.5238683"><ele>1.75</ele><time>2026-04-25T07:24:33.883Z</time></trkpt><trkpt lat="42.2426767" lon="14.52401"><ele>2.0</ele><time>2026-04-25T07:24:35.883Z</time></trkpt><trkpt lat="42.2426183" lon="14.5241483"><ele>2.0</ele><time>2026-04-25T07:24:37.883Z</time></trkpt><trkpt lat="42.2425633" lon="14.52429"><ele>2.0</ele><time>2026-04-25T07:24:39.883Z</time></trkpt><trkpt lat="42.2425083" lon="14.5244267"><ele>2.0</ele><time>2026-04-25T07:24:41.883Z</time></trkpt><trkpt lat="42.24244" lon="14.524565"><ele>2.0</ele><time>2026-04-25T07:24:43.883Z</time></trkpt><trkpt lat="42.2423767" lon="14.524705"><ele>1.8333333333333333</ele><time>2026-04-25T07:24:45.882Z</time></trkpt><trkpt lat="42.2423467" lon="14.52478"><ele>1.6666666666666665</ele><time>2026-04-25T07:24:46.882Z</time></trkpt><trkpt lat="42.242295" lon="14.5249317"><ele>1.5</ele><time>2026-04-25T07:24:48.883Z</time></trkpt><trkpt lat="42.2422617" lon="14.5250083"><ele>1.3333333333333333</ele><time>2026-04-25T07:24:49.883Z</time></trkpt><trkpt lat="42.2422067" lon="14.52516"><ele>1.1666666666666665</ele><time>2026-04-25T07:24:51.883Z</time></trkpt><trkpt lat="42.2421767" lon="14.5252367"><ele>1.0</ele><time>2026-04-25T07:24:52.883Z</time></trkpt><trkpt lat="42.242125" lon="14.5253867"><ele>1.2000000000000002</ele><time>2026-04-25T07:24:54.883Z</time></trkpt><trkpt lat="42.242095" lon="14.5254633"><ele>1.4000000000000001</ele><time>2026-04-25T07:24:55.883Z</time></trkpt><trkpt lat="42.242035" lon="14.525595"><ele>1.6</ele><time>2026-04-25T07:24:57.883Z</time></trkpt><trkpt lat="42.2419767" lon="14.5257283"><ele>1.8</ele><time>2026-04-25T07:24:59.883Z</time></trkpt><trkpt lat="42.241925" lon="14.525865"><ele>2.0</ele><time>2026-04-25T07:25:01.883Z</time></trkpt><trkpt lat="42.2418683" lon="14.5259967"><ele>2.0</ele><time>2026-04-25T07:25:03.883Z</time></trkpt><trkpt lat="42.2418117" lon="14.5261433"><ele>2.0</ele><time>2026-04-25T07:25:05.882Z</time></trkpt><trkpt lat="42.2417517" lon="14.526285"><ele>2.0</ele><time>2026-04-25T07:25:07.883Z</time></trkpt><trkpt lat="42.241695" lon="14.52643"><ele>2.0</ele><time>2026-04-25T07:25:09.883Z</time></trkpt><trkpt lat="42.2416383" lon="14.5265733"><ele>2.0</ele><time>2026-04-25T07:25:11.882Z</time></trkpt><trkpt lat="42.2415817" lon="14.526715"><ele>2.0</ele><time>2026-04-25T07:25:13.883Z</time></trkpt><trkpt lat="42.2415267" lon="14.5268533"><ele>2.0</ele><time>2026-04-25T07:25:15.882Z</time></trkpt><trkpt lat="42.2414617" lon="14.5269883"><ele>2.0</ele><time>2026-04-25T07:25:17.883Z</time></trkpt><trkpt lat="42.2414033" lon="14.52713"><ele>1.5</ele><time>2026-04-25T07:25:19.883Z</time></trkpt><trkpt lat="42.2413517" lon="14.5272817"><ele>1.0</ele><time>2026-04-25T07:25:21.882Z</time></trkpt><trkpt lat="42.2412983" lon="14.5274317"><ele>0.5</ele><time>2026-04-25T07:25:23.883Z</time></trkpt><trkpt lat="42.2412367" lon="14.5275733"><ele>0.0</ele><time>2026-04-25T07:25:25.882Z</time></trkpt><trkpt lat="42.2411767" lon="14.5277117"><ele>0.0</ele><time>2026-04-25T07:25:27.883Z</time></trkpt><trkpt lat="42.2411183" lon="14.5278533"><ele>0.0</ele><time>2026-04-25T07:25:29.883Z</time></trkpt><trkpt lat="42.2410617" lon="14.5280017"><ele>0.0</ele><time>2026-04-25T07:25:31.883Z</time></trkpt><trkpt lat="42.2410033" lon="14.5281417"><ele>0.0</ele><time>2026-04-25T07:25:33.883Z</time></trkpt><trkpt lat="42.2409733" lon="14.52822"><ele>0.0</ele><time>2026-04-25T07:25:34.882Z</time></trkpt><trkpt lat="42.2409483" lon="14.5283"><ele>0.0</ele><time>2026-04-25T07:25:35.883Z</time></trkpt><trkpt lat="42.2409" lon="14.528455"><ele>0.0</ele><time>2026-04-25T07:25:37.883Z</time></trkpt><trkpt lat="42.2408717" lon="14.5285317"><ele>0.0</ele><time>2026-04-25T07:25:38.882Z</time></trkpt><trkpt lat="42.24081" lon="14.5286717"><ele>0.0</ele><time>2026-04-25T07:25:40.883Z</time></trkpt><trkpt lat="42.2407567" lon="14.5288183"><ele>0.0</ele><time>2026-04-25T07:25:42.883Z</time></trkpt><trkpt lat="42.240705" lon="14.5289517"><ele>0.0</ele><time>2026-04-25T07:25:44.883Z</time></trkpt><trkpt lat="42.2406483" lon="14.5290933"><ele>0.0</ele><time>2026-04-25T07:25:46.882Z</time></trkpt><trkpt lat="42.2405933" lon="14.5292383"><ele>0.0</ele><time>2026-04-25T07:25:48.882Z</time></trkpt><trkpt lat="42.240535" lon="14.5293717"><ele>0.0</ele><time>2026-04-25T07:25:50.882Z</time></trkpt><trkpt lat="42.240475" lon="14.52951"><ele>0.25</ele><time>2026-04-25T07:25:52.883Z</time></trkpt><trkpt lat="42.2404183" lon="14.5296517"><ele>0.5</ele><time>2026-04-25T07:25:54.883Z</time></trkpt><trkpt lat="42.2403567" lon="14.5297783"><ele>0.75</ele><time>2026-04-25T07:25:56.883Z</time></trkpt><trkpt lat="42.2402867" lon="14.5298933"><ele>1.0</ele><time>2026-04-25T07:25:58.883Z</time></trkpt><trkpt lat="42.24021" lon="14.5300067"><ele>1.0</ele><time>2026-04-25T07:26:00.882Z</time></trkpt><trkpt lat="42.2401383" lon="14.5301383"><ele>1.0</ele><time>2026-04-25T07:26:02.883Z</time></trkpt><trkpt lat="42.2400717" lon="14.5302567"><ele>1.0</ele><time>2026-04-25T07:26:04.883Z</time></trkpt><trkpt lat="42.24001" lon="14.530395"><ele>1.0</ele><time>2026-04-25T07:26:06.882Z</time></trkpt><trkpt lat="42.2399517" lon="14.5305233"><ele>1.0</ele><time>2026-04-25T07:26:08.883Z</time></trkpt><trkpt lat="42.2398917" lon="14.53066"><ele>1.0</ele><time>2026-04-25T07:26:10.883Z</time></trkpt><trkpt lat="42.2398367" lon="14.5307917"><ele>1.0</ele><time>2026-04-25T07:26:12.882Z</time></trkpt><trkpt lat="42.2397833" lon="14.5309317"><ele>1.0</ele><time>2026-04-25T07:26:14.883Z</time></trkpt><trkpt lat="42.239725" lon="14.5310767"><ele>0.9999999999999999</ele><time>2026-04-25T07:26:16.883Z</time></trkpt><trkpt lat="42.23966" lon="14.5312183"><ele>1.0</ele><time>2026-04-25T07:26:18.882Z</time></trkpt><trkpt lat="42.2396267" lon="14.5312933"><ele>1.0</ele><time>2026-04-25T07:26:19.882Z</time></trkpt><trkpt lat="42.2395633" lon="14.5314383"><ele>1.0</ele><time>2026-04-25T07:26:21.883Z</time></trkpt><trkpt lat="42.2395283" lon="14.5315117"><ele>0.9999999999999999</ele><time>2026-04-25T07:26:22.882Z</time></trkpt><trkpt lat="42.23949" lon="14.5315817"><ele>1.0</ele><time>2026-04-25T07:26:23.882Z</time></trkpt><trkpt lat="42.2394317" lon="14.53172"><ele>1.0</ele><time>2026-04-25T07:26:25.883Z</time></trkpt><trkpt lat="42.2393683" lon="14.5318383"><ele>1.0</ele><time>2026-04-25T07:26:27.883Z</time></trkpt><trkpt lat="42.23931" lon="14.5319833"><ele>1.0</ele><time>2026-04-25T07:26:29.882Z</time></trkpt><trkpt lat="42.2392483" lon="14.5321233"><ele>1.0</ele><time>2026-04-25T07:26:31.883Z</time></trkpt><trkpt lat="42.2391883" lon="14.5322533"><ele>0.9999999999999999</ele><time>2026-04-25T07:26:33.883Z</time></trkpt><trkpt lat="42.2391483" lon="14.532325"><ele>1.0</ele><time>2026-04-25T07:26:34.883Z</time></trkpt><trkpt lat="42.2391117" lon="14.5324"><ele>1.0</ele><time>2026-04-25T07:26:35.882Z</time></trkpt><trkpt lat="42.23908" lon="14.5324767"><ele>1.0</ele><time>2026-04-25T07:26:36.882Z</time></trkpt><trkpt lat="42.23902" lon="14.5326183"><ele>0.9999999999999999</ele><time>2026-04-25T07:26:38.883Z</time></trkpt><trkpt lat="42.23896" lon="14.5327617"><ele>1.0</ele><time>2026-04-25T07:26:40.883Z</time></trkpt><trkpt lat="42.2389" lon="14.5329017"><ele>1.0</ele><time>2026-04-25T07:26:42.883Z</time></trkpt><trkpt lat="42.2388367" lon="14.5330317"><ele>1.0</ele><time>2026-04-25T07:26:44.882Z</time></trkpt><trkpt lat="42.238775" lon="14.5331667"><ele>1.0</ele><time>2026-04-25T07:26:46.883Z</time></trkpt><trkpt lat="42.2387083" lon="14.5332967"><ele>1.0</ele><time>2026-04-25T07:26:48.883Z</time></trkpt><trkpt lat="42.23865" lon="14.5334283"><ele>1.0</ele><time>2026-04-25T07:26:50.882Z</time></trkpt><trkpt lat="42.2385933" lon="14.533575"><ele>1.0</ele><time>2026-04-25T07:26:52.883Z</time></trkpt><trkpt lat="42.2385283" lon="14.5337167"><ele>1.0</ele><time>2026-04-25T07:26:54.883Z</time></trkpt><trkpt lat="42.2384617" lon="14.5338483"><ele>1.0</ele><time>2026-04-25T07:26:56.883Z</time></trkpt><trkpt lat="42.238405" lon="14.5339833"><ele>1.0</ele><time>2026-04-25T07:26:58.883Z</time></trkpt><trkpt lat="42.2383517" lon="14.5341167"><ele>1.0</ele><time>2026-04-25T07:27:00.883Z</time></trkpt><trkpt lat="42.2382917" lon="14.5342533"><ele>1.0</ele><time>2026-04-25T07:27:02.883Z</time></trkpt><trkpt lat="42.2382533" lon="14.5343233"><ele>1.0</ele><time>2026-04-25T07:27:03.883Z</time></trkpt><trkpt lat="42.2382217" lon="14.5344"><ele>1.0</ele><time>2026-04-25T07:27:04.882Z</time></trkpt><trkpt lat="42.2381567" lon="14.5345367"><ele>1.0</ele><time>2026-04-25T07:27:06.882Z</time></trkpt><trkpt lat="42.2380983" lon="14.534675"><ele>1.0</ele><time>2026-04-25T07:27:08.882Z</time></trkpt><trkpt lat="42.2380333" lon="14.5348167"><ele>1.0</ele><time>2026-04-25T07:27:10.883Z</time></trkpt><trkpt lat="42.2379667" lon="14.5349567"><ele>1.0</ele><time>2026-04-25T07:27:12.882Z</time></trkpt><trkpt lat="42.2379017" lon="14.5350933"><ele>1.0</ele><time>2026-04-25T07:27:14.883Z</time></trkpt><trkpt lat="42.237825" lon="14.53522"><ele>1.0</ele><time>2026-04-25T07:27:16.882Z</time></trkpt><trkpt lat="42.237745" lon="14.5353367"><ele>1.0</ele><time>2026-04-25T07:27:18.883Z</time></trkpt><trkpt lat="42.23766" lon="14.53544"><ele>1.0</ele><time>2026-04-25T07:27:20.883Z</time></trkpt><trkpt lat="42.237575" lon="14.53549"><ele>1.0</ele><time>2026-04-25T07:27:22.882Z</time></trkpt><trkpt lat="42.2374667" lon="14.5354633"><ele>0.8</ele><time>2026-04-25T07:27:24.882Z</time></trkpt><trkpt lat="42.23736" lon="14.5354383"><ele>0.6000000000000001</ele><time>2026-04-25T07:27:26.883Z</time></trkpt><trkpt lat="42.2372617" lon="14.5354233"><ele>0.4</ele><time>2026-04-25T07:27:28.882Z</time></trkpt><trkpt lat="42.237175" lon="14.5354183"><ele>0.2</ele><time>2026-04-25T07:27:30.883Z</time></trkpt><trkpt lat="42.2370983" lon="14.53545"><ele>0.0</ele><time>2026-04-25T07:27:32.883Z</time></trkpt><trkpt lat="42.2370317" lon="14.5355333"><ele>0.6</ele><time>2026-04-25T07:27:34.882Z</time></trkpt><trkpt lat="42.2369733" lon="14.5356533"><ele>1.2</ele><time>2026-04-25T07:27:36.883Z</time></trkpt><trkpt lat="42.2369267" lon="14.53577"><ele>1.7999999999999998</ele><time>2026-04-25T07:27:38.883Z</time></trkpt><trkpt lat="42.2368733" lon="14.5358933"><ele>2.4</ele><time>2026-04-25T07:27:40.883Z</time></trkpt><trkpt lat="42.2368267" lon="14.5360317"><ele>3.0</ele><time>2026-04-25T07:27:42.883Z</time></trkpt><trkpt lat="42.2367683" lon="14.5361567"><ele>2.75</ele><time>2026-04-25T07:27:44.882Z</time></trkpt><trkpt lat="42.236715" lon="14.5362833"><ele>2.5</ele><time>2026-04-25T07:27:46.882Z</time></trkpt><trkpt lat="42.2366617" lon="14.5364233"><ele>2.25</ele><time>2026-04-25T07:27:48.883Z</time></trkpt><trkpt lat="42.2366117" lon="14.5365633"><ele>2.0</ele><time>2026-04-25T07:27:50.883Z</time></trkpt><trkpt lat="42.23656" lon="14.5367067"><ele>2.0</ele><time>2026-04-25T07:27:52.882Z</time></trkpt><trkpt lat="42.2365083" lon="14.536845"><ele>2.0</ele><time>2026-04-25T07:27:54.883Z</time></trkpt><trkpt lat="42.2364533" lon="14.536985"><ele>2.0</ele><time>2026-04-25T07:27:56.882Z</time></trkpt><trkpt lat="42.236395" lon="14.5371233"><ele>2.0</ele><time>2026-04-25T07:27:58.882Z</time></trkpt><trkpt lat="42.236345" lon="14.537255"><ele>2.75</ele><time>2026-04-25T07:28:00.883Z</time></trkpt><trkpt lat="42.2362817" lon="14.5373983"><ele>3.5</ele><time>2026-04-25T07:28:02.883Z</time></trkpt><trkpt lat="42.2362183" lon="14.53753"><ele>4.25</ele><time>2026-04-25T07:28:04.883Z</time></trkpt><trkpt lat="42.236155" lon="14.5376633"><ele>5.0</ele><time>2026-04-25T07:28:06.883Z</time></trkpt><trkpt lat="42.2360917" lon="14.5377983"><ele>5.0</ele><time>2026-04-25T07:28:08.883Z</time></trkpt><trkpt lat="42.2360367" lon="14.53793"><ele>5.0</ele><time>2026-04-25T07:28:10.883Z</time></trkpt><trkpt lat="42.235975" lon="14.538055"><ele>5.0</ele><time>2026-04-25T07:28:12.883Z</time></trkpt><trkpt lat="42.2359167" lon="14.5381783"><ele>5.0</ele><time>2026-04-25T07:28:14.883Z</time></trkpt><trkpt lat="42.2358533" lon="14.5383167"><ele>5.0</ele><time>2026-04-25T07:28:16.882Z</time></trkpt><trkpt lat="42.2357883" lon="14.5384617"><ele>5.0</ele><time>2026-04-25T07:28:18.883Z</time></trkpt><trkpt lat="42.2357267" lon="14.538585"><ele>5.0</ele><time>2026-04-25T07:28:20.883Z</time></trkpt><trkpt lat="42.2356567" lon="14.5387117"><ele>5.0</ele><time>2026-04-25T07:28:22.883Z</time></trkpt><trkpt lat="42.2355933" lon="14.538855"><ele>5.5</ele><time>2026-04-25T07:28:24.882Z</time></trkpt><trkpt lat="42.2355317" lon="14.5389967"><ele>6.0</ele><time>2026-04-25T07:28:26.883Z</time></trkpt><trkpt lat="42.23547" lon="14.5391333"><ele>6.5</ele><time>2026-04-25T07:28:28.883Z</time></trkpt><trkpt lat="42.2354083" lon="14.5392667"><ele>7.0</ele><time>2026-04-25T07:28:30.883Z</time></trkpt><trkpt lat="42.235345" lon="14.5393917"><ele>7.0</ele><time>2026-04-25T07:28:32.883Z</time></trkpt><trkpt lat="42.2352867" lon="14.5395333"><ele>6.999999999999999</ele><time>2026-04-25T07:28:34.883Z</time></trkpt><trkpt lat="42.235225" lon="14.53967"><ele>6.999999999999999</ele><time>2026-04-25T07:28:36.882Z</time></trkpt><trkpt lat="42.2351917" lon="14.5397433"><ele>7.0</ele><time>2026-04-25T07:28:37.883Z</time></trkpt><trkpt lat="42.2351533" lon="14.5398117"><ele>7.0</ele><time>2026-04-25T07:28:38.883Z</time></trkpt><trkpt lat="42.2350917" lon="14.5399517"><ele>6.5</ele><time>2026-04-25T07:28:40.882Z</time></trkpt><trkpt lat="42.23503" lon="14.54009"><ele>6.0</ele><time>2026-04-25T07:28:42.882Z</time></trkpt><trkpt lat="42.2349733" lon="14.5402267"><ele>5.5</ele><time>2026-04-25T07:28:44.883Z</time></trkpt><trkpt lat="42.234915" lon="14.540355"><ele>5.0</ele><time>2026-04-25T07:28:46.883Z</time></trkpt><trkpt lat="42.23485" lon="14.540495"><ele>4.75</ele><time>2026-04-25T07:28:48.883Z</time></trkpt><trkpt lat="42.2347933" lon="14.5406317"><ele>4.5</ele><time>2026-04-25T07:28:50.883Z</time></trkpt><trkpt lat="42.2347267" lon="14.5407633"><ele>4.25</ele><time>2026-04-25T07:28:52.882Z</time></trkpt><trkpt lat="42.2346733" lon="14.540895"><ele>4.0</ele><time>2026-04-25T07:28:54.883Z</time></trkpt><trkpt lat="42.2346133" lon="14.5410233"><ele>4.0</ele><time>2026-04-25T07:28:56.883Z</time></trkpt><trkpt lat="42.2345483" lon="14.541165"><ele>4.0</ele><time>2026-04-25T07:28:58.882Z</time></trkpt><trkpt lat="42.2344833" lon="14.5412967"><ele>4.0</ele><time>2026-04-25T07:29:00.883Z</time></trkpt><trkpt lat="42.2344167" lon="14.5414317"><ele>4.0</ele><time>2026-04-25T07:29:02.883Z</time></trkpt><trkpt lat="42.234355" lon="14.5415633"><ele>4.0</ele><time>2026-04-25T07:29:04.883Z</time></trkpt><trkpt lat="42.234295" lon="14.5416983"><ele>4.0</ele><time>2026-04-25T07:29:06.883Z</time></trkpt><trkpt lat="42.23424" lon="14.541845"><ele>4.0</ele><time>2026-04-25T07:29:08.882Z</time></trkpt><trkpt lat="42.2341817" lon="14.5419717"><ele>4.0</ele><time>2026-04-25T07:29:10.883Z</time></trkpt><trkpt lat="42.2341233" lon="14.5421133"><ele>3.75</ele><time>2026-04-25T07:29:12.883Z</time></trkpt><trkpt lat="42.2340617" lon="14.54225"><ele>3.5</ele><time>2026-04-25T07:29:14.883Z</time></trkpt><trkpt lat="42.2339983" lon="14.5423883"><ele>3.25</ele><time>2026-04-25T07:29:16.882Z</time></trkpt><trkpt lat="42.2339317" lon="14.5425233"><ele>3.0</ele><time>2026-04-25T07:29:18.883Z</time></trkpt><trkpt lat="42.23387" lon="14.5426567"><ele>4.6</ele><time>2026-04-25T07:29:20.883Z</time></trkpt><trkpt lat="42.2338067" lon="14.5427883"><ele>6.2</ele><time>2026-04-25T07:29:22.883Z</time></trkpt><trkpt lat="42.2337417" lon="14.542915"><ele>7.800000000000001</ele><time>2026-04-25T07:29:24.882Z</time></trkpt><trkpt lat="42.2336667" lon="14.54302"><ele>9.4</ele><time>2026-04-25T07:29:26.883Z</time></trkpt><trkpt lat="42.233595" lon="14.5430967"><ele>11.0</ele><time>2026-04-25T07:29:28.882Z</time></trkpt><trkpt lat="42.2335517" lon="14.5431767"><ele>11.0</ele><time>2026-04-25T07:29:30.883Z</time></trkpt><trkpt lat="42.2335233" lon="14.5432867"><ele>11.0</ele><time>2026-04-25T07:29:32.883Z</time></trkpt><trkpt lat="42.2334767" lon="14.543415"><ele>11.0</ele><time>2026-04-25T07:29:34.883Z</time></trkpt><trkpt lat="42.2334133" lon="14.54356"><ele>11.0</ele><time>2026-04-25T07:29:36.883Z</time></trkpt><trkpt lat="42.2333783" lon="14.543635"><ele>11.0</ele><time>2026-04-25T07:29:37.883Z</time></trkpt><trkpt lat="42.2333217" lon="14.5437833"><ele>11.600000000000001</ele><time>2026-04-25T07:29:39.883Z</time></trkpt><trkpt lat="42.2332917" lon="14.5438583"><ele>12.2</ele><time>2026-04-25T07:29:40.883Z</time></trkpt><trkpt lat="42.23326" lon="14.5439333"><ele>12.799999999999999</ele><time>2026-04-25T07:29:41.882Z</time></trkpt><trkpt lat="42.233195" lon="14.5440767"><ele>13.399999999999999</ele><time>2026-04-25T07:29:43.883Z</time></trkpt><trkpt lat="42.233135" lon="14.5442167"><ele>14.0</ele><time>2026-04-25T07:29:45.883Z</time></trkpt><trkpt lat="42.2330717" lon="14.54436"><ele>14.0</ele><time>2026-04-25T07:29:47.883Z</time></trkpt><trkpt lat="42.2330067" lon="14.544495"><ele>14.0</ele><time>2026-04-25T07:29:49.882Z</time></trkpt><trkpt lat="42.2329383" lon="14.5446233"><ele>14.0</ele><time>2026-04-25T07:29:51.882Z</time></trkpt><trkpt lat="42.23287" lon="14.544755"><ele>14.0</ele><time>2026-04-25T07:29:53.883Z</time></trkpt><trkpt lat="42.2328033" lon="14.54488"><ele>11.75</ele><time>2026-04-25T07:29:55.883Z</time></trkpt><trkpt lat="42.23273" lon="14.545"><ele>9.5</ele><time>2026-04-25T07:29:57.883Z</time></trkpt><trkpt lat="42.2326617" lon="14.545125"><ele>7.25</ele><time>2026-04-25T07:29:59.883Z</time></trkpt><trkpt lat="42.23259" lon="14.5452583"><ele>5.0</ele><time>2026-04-25T07:30:01.882Z</time></trkpt><trkpt lat="42.2325167" lon="14.5453917"><ele>4.25</ele><time>2026-04-25T07:30:03.882Z</time></trkpt><trkpt lat="42.2324433" lon="14.545515"><ele>3.5</ele><time>2026-04-25T07:30:05.883Z</time></trkpt><trkpt lat="42.23237" lon="14.5456417"><ele>2.75</ele><time>2026-04-25T07:30:07.882Z</time></trkpt><trkpt lat="42.2322983" lon="14.545765"><ele>2.0</ele><time>2026-04-25T07:30:09.883Z</time></trkpt><trkpt lat="42.2322267" lon="14.54589"><ele>2.0</ele><time>2026-04-25T07:30:11.883Z</time></trkpt><trkpt lat="42.2321533" lon="14.5460183"><ele>2.0</ele><time>2026-04-25T07:30:13.882Z</time></trkpt><trkpt lat="42.23209" lon="14.5461367"><ele>2.0</ele><time>2026-04-25T07:30:15.883Z</time></trkpt><trkpt lat="42.2320183" lon="14.546245"><ele>2.0</ele><time>2026-04-25T07:30:17.883Z</time></trkpt><trkpt lat="42.231945" lon="14.5463683"><ele>2.0</ele><time>2026-04-25T07:30:19.883Z</time></trkpt><trkpt lat="42.2318733" lon="14.54649"><ele>2.0</ele><time>2026-04-25T07:30:21.883Z</time></trkpt><trkpt lat="42.2318017" lon="14.546615"><ele>2.0</ele><time>2026-04-25T07:30:23.883Z</time></trkpt><trkpt lat="42.2317233" lon="14.5467367"><ele>2.0</ele><time>2026-04-25T07:30:25.882Z</time></trkpt><trkpt lat="42.2316533" lon="14.5468583"><ele>2.0</ele><time>2026-04-25T07:30:27.882Z</time></trkpt><trkpt lat="42.2315867" lon="14.546985"><ele>2.0</ele><time>2026-04-25T07:30:29.883Z</time></trkpt><trkpt lat="42.2315117" lon="14.5471117"><ele>2.0</ele><time>2026-04-25T07:30:31.882Z</time></trkpt><trkpt lat="42.2314383" lon="14.5472367"><ele>2.0</ele><time>2026-04-25T07:30:33.882Z</time></trkpt><trkpt lat="42.2313617" lon="14.54737"><ele>2.75</ele><time>2026-04-25T07:30:35.883Z</time></trkpt><trkpt lat="42.2312933" lon="14.547495"><ele>3.5</ele><time>2026-04-25T07:30:37.883Z</time></trkpt><trkpt lat="42.23122" lon="14.5476067"><ele>4.25</ele><time>2026-04-25T07:30:39.882Z</time></trkpt><trkpt lat="42.2311533" lon="14.5477267"><ele>5.0</ele><time>2026-04-25T07:30:41.882Z</time></trkpt><trkpt lat="42.2310817" lon="14.54785"><ele>4.6</ele><time>2026-04-25T07:30:43.883Z</time></trkpt><trkpt lat="42.2310083" lon="14.5479733"><ele>4.2</ele><time>2026-04-25T07:30:45.883Z</time></trkpt><trkpt lat="42.2309683" lon="14.5480417"><ele>3.8</ele><time>2026-04-25T07:30:46.883Z</time></trkpt><trkpt lat="42.230895" lon="14.5481733"><ele>3.4</ele><time>2026-04-25T07:30:48.883Z</time></trkpt><trkpt lat="42.2308267" lon="14.5482983"><ele>3.0</ele><time>2026-04-25T07:30:50.883Z</time></trkpt><trkpt lat="42.23076" lon="14.5484183"><ele>3.0</ele><time>2026-04-25T07:30:52.883Z</time></trkpt><trkpt lat="42.23069" lon="14.5485383"><ele>3.0</ele><time>2026-04-25T07:30:54.882Z</time></trkpt><trkpt lat="42.2306217" lon="14.5486617"><ele>3.0</ele><time>2026-04-25T07:30:56.882Z</time></trkpt><trkpt lat="42.23055" lon="14.54877"><ele>3.0</ele><time>2026-04-25T07:30:58.883Z</time></trkpt><trkpt lat="42.2304733" lon="14.5488883"><ele>3.25</ele><time>2026-04-25T07:31:00.883Z</time></trkpt><trkpt lat="42.230395" lon="14.549"><ele>3.5</ele><time>2026-04-25T07:31:02.883Z</time></trkpt><trkpt lat="42.2303233" lon="14.5491267"><ele>3.75</ele><time>2026-04-25T07:31:04.883Z</time></trkpt><trkpt lat="42.2302517" lon="14.5492567"><ele>4.0</ele><time>2026-04-25T07:31:06.883Z</time></trkpt><trkpt lat="42.2301833" lon="14.549375"><ele>4.0</ele><time>2026-04-25T07:31:08.883Z</time></trkpt><trkpt lat="42.230115" lon="14.5494917"><ele>4.0</ele><time>2026-04-25T07:31:10.883Z</time></trkpt><trkpt lat="42.2300433" lon="14.549615"><ele>4.0</ele><time>2026-04-25T07:31:12.883Z</time></trkpt><trkpt lat="42.2299783" lon="14.5497417"><ele>4.0</ele><time>2026-04-25T07:31:14.883Z</time></trkpt><trkpt lat="42.2299067" lon="14.5498667"><ele>3.0</ele><time>2026-04-25T07:31:16.883Z</time></trkpt><trkpt lat="42.2298383" lon="14.5499967"><ele>2.0</ele><time>2026-04-25T07:31:18.883Z</time></trkpt><trkpt lat="42.22977" lon="14.55012"><ele>1.0</ele><time>2026-04-25T07:31:20.883Z</time></trkpt><trkpt lat="42.2296967" lon="14.5502367"><ele>0.0</ele><time>2026-04-25T07:31:22.883Z</time></trkpt><trkpt lat="42.22963" lon="14.5503583"><ele>1.0</ele><time>2026-04-25T07:31:24.882Z</time></trkpt><trkpt lat="42.2295733" lon="14.5504817"><ele>2.0</ele><time>2026-04-25T07:31:26.882Z</time></trkpt><trkpt lat="42.22952" lon="14.5506283"><ele>3.0</ele><time>2026-04-25T07:31:28.883Z</time></trkpt><trkpt lat="42.229465" lon="14.5507767"><ele>4.0</ele><time>2026-04-25T07:31:30.882Z</time></trkpt><trkpt lat="42.2294317" lon="14.5508517"><ele>5.0</ele><time>2026-04-25T07:31:31.882Z</time></trkpt><trkpt lat="42.2293983" lon="14.550925"><ele>5.0</ele><time>2026-04-25T07:31:32.882Z</time></trkpt><trkpt lat="42.22933" lon="14.55106"><ele>5.0</ele><time>2026-04-25T07:31:34.883Z</time></trkpt><trkpt lat="42.229255" lon="14.55118"><ele>5.0</ele><time>2026-04-25T07:31:36.883Z</time></trkpt><trkpt lat="42.2291833" lon="14.5512983"><ele>5.0</ele><time>2026-04-25T07:31:38.882Z</time></trkpt><trkpt lat="42.2291133" lon="14.5514217"><ele>3.75</ele><time>2026-04-25T07:31:40.883Z</time></trkpt><trkpt lat="42.2290433" lon="14.5515433"><ele>2.5</ele><time>2026-04-25T07:31:42.883Z</time></trkpt><trkpt lat="42.2289733" lon="14.5516683"><ele>1.25</ele><time>2026-04-25T07:31:44.882Z</time></trkpt><trkpt lat="42.228905" lon="14.5517833"><ele>0.0</ele><time>2026-04-25T07:31:46.883Z</time></trkpt><trkpt lat="42.22883" lon="14.5519"><ele>0.6</ele><time>2026-04-25T07:31:48.882Z</time></trkpt><trkpt lat="42.2287583" lon="14.5520217"><ele>1.2</ele><time>2026-04-25T07:31:50.883Z</time></trkpt><trkpt lat="42.22872" lon="14.55209"><ele>1.7999999999999998</ele><time>2026-04-25T07:31:51.883Z</time></trkpt><trkpt lat="42.22865" lon="14.5522183"><ele>2.4</ele><time>2026-04-25T07:31:53.882Z</time></trkpt><trkpt lat="42.2285817" lon="14.5523417"><ele>3.0</ele><time>2026-04-25T07:31:55.883Z</time></trkpt><trkpt lat="42.2285117" lon="14.5524583"><ele>3.0</ele><time>2026-04-25T07:31:57.883Z</time></trkpt><trkpt lat="42.22844" lon="14.5525767"><ele>3.0</ele><time>2026-04-25T07:31:59.882Z</time></trkpt><trkpt lat="42.2283683" lon="14.552695"><ele>3.0</ele><time>2026-04-25T07:32:01.883Z</time></trkpt><trkpt lat="42.2282967" lon="14.5528133"><ele>3.0</ele><time>2026-04-25T07:32:03.883Z</time></trkpt><trkpt lat="42.228235" lon="14.552935"><ele>3.0</ele><time>2026-04-25T07:32:05.883Z</time></trkpt><trkpt lat="42.22816" lon="14.5530533"><ele>5.25</ele><time>2026-04-25T07:32:07.883Z</time></trkpt><trkpt lat="42.2280933" lon="14.5531717"><ele>7.5</ele><time>2026-04-25T07:32:09.883Z</time></trkpt><trkpt lat="42.2280217" lon="14.553305"><ele>9.75</ele><time>2026-04-25T07:32:11.883Z</time></trkpt><trkpt lat="42.2279467" lon="14.55343"><ele>12.0</ele><time>2026-04-25T07:32:13.883Z</time></trkpt><trkpt lat="42.2278783" lon="14.5535283"><ele>12.0</ele><time>2026-04-25T07:32:15.883Z</time></trkpt><trkpt lat="42.2278" lon="14.553645"><ele>12.0</ele><time>2026-04-25T07:32:17.883Z</time></trkpt><trkpt lat="42.2277233" lon="14.55376"><ele>12.0</ele><time>2026-04-25T07:32:19.882Z</time></trkpt><trkpt lat="42.2276467" lon="14.5538717"><ele>12.0</ele><time>2026-04-25T07:32:21.883Z</time></trkpt><trkpt lat="42.2275717" lon="14.553985"><ele>12.2</ele><time>2026-04-25T07:32:23.883Z</time></trkpt><trkpt lat="42.2274917" lon="14.5540933"><ele>12.399999999999999</ele><time>2026-04-25T07:32:25.883Z</time></trkpt><trkpt lat="42.2274133" lon="14.5542"><ele>12.600000000000001</ele><time>2026-04-25T07:32:27.883Z</time></trkpt><trkpt lat="42.2273317" lon="14.5543067"><ele>12.8</ele><time>2026-04-25T07:32:29.883Z</time></trkpt><trkpt lat="42.2272617" lon="14.55442"><ele>13.0</ele><time>2026-04-25T07:32:31.883Z</time></trkpt><trkpt lat="42.2271917" lon="14.55454"><ele>13.0</ele><time>2026-04-25T07:32:33.882Z</time></trkpt><trkpt lat="42.2271183" lon="14.5546583"><ele>13.0</ele><time>2026-04-25T07:32:35.883Z</time></trkpt><trkpt lat="42.2270483" lon="14.554785"><ele>13.0</ele><time>2026-04-25T07:32:37.883Z</time></trkpt><trkpt lat="42.226985" lon="14.5549"><ele>13.0</ele><time>2026-04-25T07:32:39.883Z</time></trkpt><trkpt lat="42.2269217" lon="14.5550183"><ele>13.0</ele><time>2026-04-25T07:32:41.883Z</time></trkpt><trkpt lat="42.22686" lon="14.5551467"><ele>13.0</ele><time>2026-04-25T07:32:43.883Z</time></trkpt><trkpt lat="42.2267917" lon="14.55526"><ele>13.0</ele><time>2026-04-25T07:32:45.883Z</time></trkpt><trkpt lat="42.22672" lon="14.5553817"><ele>13.0</ele><time>2026-04-25T07:32:47.883Z</time></trkpt><trkpt lat="42.2266617" lon="14.555515"><ele>13.0</ele><time>2026-04-25T07:32:49.882Z</time></trkpt><trkpt lat="42.2266067" lon="14.55563"><ele>13.0</ele><time>2026-04-25T07:32:51.883Z</time></trkpt><trkpt lat="42.2265467" lon="14.5557383"><ele>13.75</ele><time>2026-04-25T07:32:53.883Z</time></trkpt><trkpt lat="42.226495" lon="14.55587"><ele>14.5</ele><time>2026-04-25T07:32:55.883Z</time></trkpt><trkpt lat="42.2264383" lon="14.5560117"><ele>15.25</ele><time>2026-04-25T07:32:57.883Z</time></trkpt><trkpt lat="42.2263817" lon="14.556155"><ele>16.0</ele><time>2026-04-25T07:32:59.882Z</time></trkpt><trkpt lat="42.226325" lon="14.556295"><ele>16.0</ele><time>2026-04-25T07:33:01.883Z</time></trkpt><trkpt lat="42.2262683" lon="14.55643"><ele>16.0</ele><time>2026-04-25T07:33:03.883Z</time></trkpt><trkpt lat="42.22621" lon="14.5565617"><ele>16.0</ele><time>2026-04-25T07:33:05.882Z</time></trkpt><trkpt lat="42.22616" lon="14.5567017"><ele>16.0</ele><time>2026-04-25T07:33:07.882Z</time></trkpt><trkpt lat="42.2261117" lon="14.55684"><ele>16.0</ele><time>2026-04-25T07:33:09.882Z</time></trkpt><trkpt lat="42.2260517" lon="14.55698"><ele>16.0</ele><time>2026-04-25T07:33:11.882Z</time></trkpt><trkpt lat="42.226" lon="14.5571033"><ele>16.0</ele><time>2026-04-25T07:33:13.883Z</time></trkpt><trkpt lat="42.2259533" lon="14.5572383"><ele>16.0</ele><time>2026-04-25T07:33:15.883Z</time></trkpt><trkpt lat="42.225895" lon="14.55737"><ele>16.0</ele><time>2026-04-25T07:33:17.883Z</time></trkpt><trkpt lat="42.2258383" lon="14.55751"><ele>15.25</ele><time>2026-04-25T07:33:19.882Z</time></trkpt><trkpt lat="42.2257917" lon="14.5576517"><ele>14.5</ele><time>2026-04-25T07:33:21.883Z</time></trkpt><trkpt lat="42.2257383" lon="14.5577917"><ele>13.75</ele><time>2026-04-25T07:33:23.883Z</time></trkpt><trkpt lat="42.2256883" lon="14.55794"><ele>13.0</ele><time>2026-04-25T07:33:25.883Z</time></trkpt><trkpt lat="42.2256433" lon="14.5580767"><ele>13.0</ele><time>2026-04-25T07:33:27.883Z</time></trkpt><trkpt lat="42.2255933" lon="14.5582117"><ele>13.0</ele><time>2026-04-25T07:33:29.883Z</time></trkpt><trkpt lat="42.2255433" lon="14.5583417"><ele>13.0</ele><time>2026-04-25T07:33:31.883Z</time></trkpt><trkpt lat="42.225495" lon="14.5584683"><ele>13.0</ele><time>2026-04-25T07:33:33.882Z</time></trkpt><trkpt lat="42.22544" lon="14.5586"><ele>13.0</ele><time>2026-04-25T07:33:35.883Z</time></trkpt><trkpt lat="42.225385" lon="14.55873"><ele>12.200000000000001</ele><time>2026-04-25T07:33:37.883Z</time></trkpt><trkpt lat="42.2253417" lon="14.5588417"><ele>11.4</ele><time>2026-04-25T07:33:39.883Z</time></trkpt><trkpt lat="42.2253" lon="14.5589533"><ele>10.600000000000001</ele><time>2026-04-25T07:33:41.883Z</time></trkpt><trkpt lat="42.2252483" lon="14.559085"><ele>9.8</ele><time>2026-04-25T07:33:43.883Z</time></trkpt><trkpt lat="42.2252" lon="14.5592183"><ele>9.0</ele><time>2026-04-25T07:33:45.883Z</time></trkpt><trkpt lat="42.22516" lon="14.559355"><ele>9.0</ele><time>2026-04-25T07:33:47.883Z</time></trkpt><trkpt lat="42.22511" lon="14.5594933"><ele>9.0</ele><time>2026-04-25T07:33:49.883Z</time></trkpt><trkpt lat="42.22506" lon="14.55963"><ele>9.0</ele><time>2026-04-25T07:33:51.883Z</time></trkpt><trkpt lat="42.225005" lon="14.5597633"><ele>9.0</ele><time>2026-04-25T07:33:53.882Z</time></trkpt><trkpt lat="42.224945" lon="14.55989"><ele>8.2</ele><time>2026-04-25T07:33:55.883Z</time></trkpt><trkpt lat="42.224895" lon="14.5600283"><ele>7.4</ele><time>2026-04-25T07:33:57.883Z</time></trkpt><trkpt lat="42.2248483" lon="14.5601633"><ele>6.6</ele><time>2026-04-25T07:33:59.882Z</time></trkpt><trkpt lat="42.2248" lon="14.56029"><ele>5.8</ele><time>2026-04-25T07:34:01.883Z</time></trkpt><trkpt lat="42.2247467" lon="14.560405"><ele>5.0</ele><time>2026-04-25T07:34:03.883Z</time></trkpt><trkpt lat="42.2247017" lon="14.56051"><ele>6.666666666666667</ele><time>2026-04-25T07:34:05.882Z</time></trkpt><trkpt lat="42.2246583" lon="14.5606117"><ele>8.333333333333334</ele><time>2026-04-25T07:34:07.883Z</time></trkpt><trkpt lat="42.2246067" lon="14.5606883"><ele>10.0</ele><time>2026-04-25T07:34:09.883Z</time></trkpt><trkpt lat="42.2245267" lon="14.5607283"><ele>11.666666666666666</ele><time>2026-04-25T07:34:11.882Z</time></trkpt><trkpt lat="42.2244567" lon="14.5607633"><ele>13.333333333333334</ele><time>2026-04-25T07:34:13.883Z</time></trkpt><trkpt lat="42.2243983" lon="14.5608067"><ele>15.0</ele><time>2026-04-25T07:34:15.883Z</time></trkpt><trkpt lat="42.22435" lon="14.5608733"><ele>15.0</ele><time>2026-04-25T07:34:17.883Z</time></trkpt><trkpt lat="42.2242833" lon="14.5609233"><ele>15.0</ele><time>2026-04-25T07:34:19.883Z</time></trkpt><trkpt lat="42.224225" lon="14.561015"><ele>15.0</ele><time>2026-04-25T07:34:21.882Z</time></trkpt><trkpt lat="42.224185" lon="14.5611283"><ele>15.0</ele><time>2026-04-25T07:34:23.882Z</time></trkpt><trkpt lat="42.2241383" lon="14.5612483"><ele>15.0</ele><time>2026-04-25T07:34:25.882Z</time></trkpt><trkpt lat="42.2240983" lon="14.5613667"><ele>16.4</ele><time>2026-04-25T07:34:27.883Z</time></trkpt><trkpt lat="42.2240433" lon="14.5614933"><ele>17.8</ele><time>2026-04-25T07:34:29.883Z</time></trkpt><trkpt lat="42.224" lon="14.5615567"><ele>19.200000000000003</ele><time>2026-04-25T07:34:30.883Z</time></trkpt><trkpt lat="42.2239317" lon="14.5616833"><ele>20.6</ele><time>2026-04-25T07:34:32.882Z</time></trkpt><trkpt lat="42.223875" lon="14.5618167"><ele>22.0</ele><time>2026-04-25T07:34:34.883Z</time></trkpt><trkpt lat="42.2238183" lon="14.56195"><ele>20.75</ele><time>2026-04-25T07:34:36.883Z</time></trkpt><trkpt lat="42.2237483" lon="14.5620767"><ele>19.5</ele><time>2026-04-25T07:34:38.882Z</time></trkpt><trkpt lat="42.2236733" lon="14.5622083"><ele>18.25</ele><time>2026-04-25T07:34:40.883Z</time></trkpt><trkpt lat="42.223605" lon="14.562345"><ele>17.0</ele><time>2026-04-25T07:34:42.882Z</time></trkpt><trkpt lat="42.2235517" lon="14.56249"><ele>17.0</ele><time>2026-04-25T07:34:44.882Z</time></trkpt><trkpt lat="42.2234983" lon="14.56263"><ele>17.0</ele><time>2026-04-25T07:34:46.882Z</time></trkpt><trkpt lat="42.2234433" lon="14.5627683"><ele>17.0</ele><time>2026-04-25T07:34:48.883Z</time></trkpt><trkpt lat="42.2233817" lon="14.562905"><ele>17.0</ele><time>2026-04-25T07:34:50.882Z</time></trkpt><trkpt lat="42.2233183" lon="14.563035"><ele>15.0</ele><time>2026-04-25T07:34:52.883Z</time></trkpt><trkpt lat="42.22325" lon="14.56316"><ele>13.0</ele><time>2026-04-25T07:34:54.882Z</time></trkpt><trkpt lat="42.2231767" lon="14.563295"><ele>11.0</ele><time>2026-04-25T07:34:56.883Z</time></trkpt><trkpt lat="42.22311" lon="14.5634283"><ele>9.0</ele><time>2026-04-25T07:34:58.883Z</time></trkpt><trkpt lat="42.22305" lon="14.563565"><ele>11.25</ele><time>2026-04-25T07:35:00.882Z</time></trkpt><trkpt lat="42.222995" lon="14.5636933"><ele>13.5</ele><time>2026-04-25T07:35:02.882Z</time></trkpt><trkpt lat="42.2229333" lon="14.5638167"><ele>15.75</ele><time>2026-04-25T07:35:04.882Z</time></trkpt><trkpt lat="42.2228717" lon="14.5639633"><ele>18.0</ele><time>2026-04-25T07:35:06.883Z</time></trkpt><trkpt lat="42.2228133" lon="14.5641"><ele>18.0</ele><time>2026-04-25T07:35:08.882Z</time></trkpt><trkpt lat="42.22278" lon="14.5641767"><ele>18.0</ele><time>2026-04-25T07:35:09.883Z</time></trkpt><trkpt lat="42.2227267" lon="14.5643117"><ele>18.0</ele><time>2026-04-25T07:35:11.882Z</time></trkpt><trkpt lat="42.222665" lon="14.5644517"><ele>18.0</ele><time>2026-04-25T07:35:13.883Z</time></trkpt><trkpt lat="42.222605" lon="14.5645783"><ele>18.0</ele><time>2026-04-25T07:35:15.882Z</time></trkpt><trkpt lat="42.2225483" lon="14.5647133"><ele>17.0</ele><time>2026-04-25T07:35:17.883Z</time></trkpt><trkpt lat="42.222485" lon="14.56485"><ele>16.0</ele><time>2026-04-25T07:35:19.882Z</time></trkpt><trkpt lat="42.2224417" lon="14.5649833"><ele>15.0</ele><time>2026-04-25T07:35:21.882Z</time></trkpt><trkpt lat="42.2223867" lon="14.5651167"><ele>14.0</ele><time>2026-04-25T07:35:23.883Z</time></trkpt><trkpt lat="42.2223433" lon="14.5652583"><ele>16.0</ele><time>2026-04-25T07:35:25.883Z</time></trkpt><trkpt lat="42.2222817" lon="14.5653967"><ele>18.0</ele><time>2026-04-25T07:35:27.883Z</time></trkpt><trkpt lat="42.2222117" lon="14.5655333"><ele>20.0</ele><time>2026-04-25T07:35:29.883Z</time></trkpt><trkpt lat="42.222155" lon="14.565665"><ele>22.0</ele><time>2026-04-25T07:35:31.882Z</time></trkpt><trkpt lat="42.222095" lon="14.565795"><ele>22.0</ele><time>2026-04-25T07:35:33.883Z</time></trkpt><trkpt lat="42.222035" lon="14.5659333"><ele>22.0</ele><time>2026-04-25T07:35:35.883Z</time></trkpt><trkpt lat="42.2219667" lon="14.56607"><ele>22.0</ele><time>2026-04-25T07:35:37.883Z</time></trkpt><trkpt lat="42.2219333" lon="14.5661433"><ele>22.0</ele><time>2026-04-25T07:35:38.883Z</time></trkpt><trkpt lat="42.2218983" lon="14.5662167"><ele>22.0</ele><time>2026-04-25T07:35:39.883Z</time></trkpt><trkpt lat="42.2218633" lon="14.5662933"><ele>22.0</ele><time>2026-04-25T07:35:40.882Z</time></trkpt><trkpt lat="42.221795" lon="14.5664417"><ele>18.5</ele><time>2026-04-25T07:35:42.883Z</time></trkpt><trkpt lat="42.2217283" lon="14.5665833"><ele>15.0</ele><time>2026-04-25T07:35:44.882Z</time></trkpt><trkpt lat="42.2216667" lon="14.56672"><ele>11.5</ele><time>2026-04-25T07:35:46.882Z</time></trkpt><trkpt lat="42.2216017" lon="14.5668533"><ele>8.0</ele><time>2026-04-25T07:35:48.883Z</time></trkpt><trkpt lat="42.2215417" lon="14.56699"><ele>7.25</ele><time>2026-04-25T07:35:50.883Z</time></trkpt><trkpt lat="42.2214867" lon="14.567125"><ele>6.5</ele><time>2026-04-25T07:35:52.883Z</time></trkpt><trkpt lat="42.221425" lon="14.5672567"><ele>5.75</ele><time>2026-04-25T07:35:54.883Z</time></trkpt><trkpt lat="42.2213633" lon="14.56739"><ele>5.0</ele><time>2026-04-25T07:35:56.882Z</time></trkpt><trkpt lat="42.2213" lon="14.5675183"><ele>7.0</ele><time>2026-04-25T07:35:58.882Z</time></trkpt><trkpt lat="42.2212433" lon="14.567645"><ele>9.0</ele><time>2026-04-25T07:36:00.883Z</time></trkpt><trkpt lat="42.2211867" lon="14.5677783"><ele>11.0</ele><time>2026-04-25T07:36:02.882Z</time></trkpt><trkpt lat="42.221125" lon="14.5679083"><ele>13.0</ele><time>2026-04-25T07:36:04.883Z</time></trkpt><trkpt lat="42.221065" lon="14.56804"><ele>13.0</ele><time>2026-04-25T07:36:06.883Z</time></trkpt><trkpt lat="42.2210067" lon="14.568175"><ele>13.0</ele><time>2026-04-25T07:36:08.883Z</time></trkpt><trkpt lat="42.2209433" lon="14.5683033"><ele>13.0</ele><time>2026-04-25T07:36:10.882Z</time></trkpt><trkpt lat="42.2208983" lon="14.5684317"><ele>13.0</ele><time>2026-04-25T07:36:12.883Z</time></trkpt><trkpt lat="42.2208567" lon="14.56856"><ele>13.0</ele><time>2026-04-25T07:36:14.883Z</time></trkpt><trkpt lat="42.2208083" lon="14.5686717"><ele>12.4</ele><time>2026-04-25T07:36:16.883Z</time></trkpt><trkpt lat="42.2207583" lon="14.5687917"><ele>11.8</ele><time>2026-04-25T07:36:18.883Z</time></trkpt><trkpt lat="42.220715" lon="14.56891"><ele>11.2</ele><time>2026-04-25T07:36:20.882Z</time></trkpt><trkpt lat="42.2206683" lon="14.5690367"><ele>10.6</ele><time>2026-04-25T07:36:22.882Z</time></trkpt><trkpt lat="42.2206217" lon="14.5691517"><ele>10.0</ele><time>2026-04-25T07:36:24.883Z</time></trkpt><trkpt lat="42.220565" lon="14.5692683"><ele>11.6</ele><time>2026-04-25T07:36:26.883Z</time></trkpt><trkpt lat="42.2205167" lon="14.5693917"><ele>13.2</ele><time>2026-04-25T07:36:28.883Z</time></trkpt><trkpt lat="42.2204567" lon="14.56951"><ele>14.8</ele><time>2026-04-25T07:36:30.882Z</time></trkpt><trkpt lat="42.2204017" lon="14.5696217"><ele>16.4</ele><time>2026-04-25T07:36:32.882Z</time></trkpt><trkpt lat="42.2203467" lon="14.56973"><ele>18.0</ele><time>2026-04-25T07:36:34.882Z</time></trkpt><trkpt lat="42.2202867" lon="14.5698433"><ele>18.0</ele><time>2026-04-25T07:36:36.883Z</time></trkpt><trkpt lat="42.220225" lon="14.5699483"><ele>18.0</ele><time>2026-04-25T07:36:38.882Z</time></trkpt><trkpt lat="42.220155" lon="14.570065"><ele>18.0</ele><time>2026-04-25T07:36:40.883Z</time></trkpt><trkpt lat="42.22009" lon="14.5701767"><ele>18.0</ele><time>2026-04-25T07:36:42.882Z</time></trkpt><trkpt lat="42.2200167" lon="14.5702767"><ele>18.0</ele><time>2026-04-25T07:36:44.883Z</time></trkpt><trkpt lat="42.21993" lon="14.5703717"><ele>18.8</ele><time>2026-04-25T07:36:46.883Z</time></trkpt><trkpt lat="42.2198667" lon="14.5704767"><ele>19.6</ele><time>2026-04-25T07:36:48.882Z</time></trkpt><trkpt lat="42.2197983" lon="14.5705783"><ele>20.400000000000002</ele><time>2026-04-25T07:36:50.883Z</time></trkpt><trkpt lat="42.21973" lon="14.570685"><ele>21.200000000000003</ele><time>2026-04-25T07:36:52.883Z</time></trkpt><trkpt lat="42.2196567" lon="14.57079"><ele>22.0</ele><time>2026-04-25T07:36:54.883Z</time></trkpt><trkpt lat="42.2195817" lon="14.5708883"><ele>22.0</ele><time>2026-04-25T07:36:56.883Z</time></trkpt><trkpt lat="42.2195067" lon="14.5709867"><ele>22.0</ele><time>2026-04-25T07:36:58.882Z</time></trkpt><trkpt lat="42.2194517" lon="14.5710817"><ele>22.0</ele><time>2026-04-25T07:37:00.883Z</time></trkpt><trkpt lat="42.2194217" lon="14.5711717"><ele>22.0</ele><time>2026-04-25T07:37:02.883Z</time></trkpt><trkpt lat="42.2193433" lon="14.57127"><ele>22.0</ele><time>2026-04-25T07:37:04.883Z</time></trkpt><trkpt lat="42.2192633" lon="14.5713617"><ele>21.0</ele><time>2026-04-25T07:37:06.883Z</time></trkpt><trkpt lat="42.2191867" lon="14.57146"><ele>20.0</ele><time>2026-04-25T07:37:08.883Z</time></trkpt><trkpt lat="42.2191367" lon="14.5715217"><ele>19.0</ele><time>2026-04-25T07:37:09.883Z</time></trkpt><trkpt lat="42.21905" lon="14.571635"><ele>18.0</ele><time>2026-04-25T07:37:11.883Z</time></trkpt><trkpt lat="42.21897" lon="14.5717433"><ele>17.0</ele><time>2026-04-25T07:37:13.883Z</time></trkpt><trkpt lat="42.2188917" lon="14.5718583"><ele>17.6</ele><time>2026-04-25T07:37:15.882Z</time></trkpt><trkpt lat="42.21885" lon="14.5719233"><ele>18.2</ele><time>2026-04-25T07:37:16.883Z</time></trkpt><trkpt lat="42.2187783" lon="14.5720533"><ele>18.8</ele><time>2026-04-25T07:37:18.883Z</time></trkpt><trkpt lat="42.21872" lon="14.5721717"><ele>19.4</ele><time>2026-04-25T07:37:20.882Z</time></trkpt><trkpt lat="42.2186633" lon="14.5722833"><ele>20.0</ele><time>2026-04-25T07:37:22.883Z</time></trkpt><trkpt lat="42.21861" lon="14.5723983"><ele>20.0</ele><time>2026-04-25T07:37:24.883Z</time></trkpt><trkpt lat="42.2185617" lon="14.5725217"><ele>20.0</ele><time>2026-04-25T07:37:26.882Z</time></trkpt><trkpt lat="42.218515" lon="14.57264"><ele>20.0</ele><time>2026-04-25T07:37:28.882Z</time></trkpt><trkpt lat="42.218465" lon="14.5727617"><ele>20.0</ele><time>2026-04-25T07:37:30.882Z</time></trkpt><trkpt lat="42.2184183" lon="14.5728783"><ele>20.0</ele><time>2026-04-25T07:37:32.883Z</time></trkpt><trkpt lat="42.2183717" lon="14.5730017"><ele>19.8</ele><time>2026-04-25T07:37:34.883Z</time></trkpt><trkpt lat="42.21833" lon="14.5731217"><ele>19.6</ele><time>2026-04-25T07:37:36.882Z</time></trkpt><trkpt lat="42.2182833" lon="14.5732567"><ele>19.4</ele><time>2026-04-25T07:37:38.883Z</time></trkpt><trkpt lat="42.2182317" lon="14.5733933"><ele>19.2</ele><time>2026-04-25T07:37:40.883Z</time></trkpt><trkpt lat="42.2181833" lon="14.573515"><ele>19.0</ele><time>2026-04-25T07:37:42.882Z</time></trkpt><trkpt lat="42.2181267" lon="14.57363"><ele>20.6</ele><time>2026-04-25T07:37:44.883Z</time></trkpt><trkpt lat="42.2180717" lon="14.5737583"><ele>22.2</ele><time>2026-04-25T07:37:46.883Z</time></trkpt><trkpt lat="42.2180183" lon="14.5738933"><ele>23.800000000000004</ele><time>2026-04-25T07:37:48.883Z</time></trkpt><trkpt lat="42.21797" lon="14.5740083"><ele>25.400000000000002</ele><time>2026-04-25T07:37:50.883Z</time></trkpt><trkpt lat="42.217915" lon="14.574125"><ele>27.0</ele><time>2026-04-25T07:37:52.883Z</time></trkpt><trkpt lat="42.2178533" lon="14.5742283"><ele>27.0</ele><time>2026-04-25T07:37:54.883Z</time></trkpt><trkpt lat="42.2177867" lon="14.5743383"><ele>27.000000000000004</ele><time>2026-04-25T07:37:56.882Z</time></trkpt><trkpt lat="42.2177117" lon="14.5744383"><ele>27.000000000000004</ele><time>2026-04-25T07:37:58.883Z</time></trkpt><trkpt lat="42.217635" lon="14.57454"><ele>27.0</ele><time>2026-04-25T07:38:00.883Z</time></trkpt><trkpt lat="42.2175533" lon="14.574635"><ele>27.0</ele><time>2026-04-25T07:38:02.882Z</time></trkpt><trkpt lat="42.2174733" lon="14.5747117"><ele>27.8</ele><time>2026-04-25T07:38:04.882Z</time></trkpt><trkpt lat="42.21739" lon="14.5747917"><ele>28.6</ele><time>2026-04-25T07:38:06.882Z</time></trkpt><trkpt lat="42.21731" lon="14.5748733"><ele>29.400000000000002</ele><time>2026-04-25T07:38:08.882Z</time></trkpt><trkpt lat="42.2172333" lon="14.5749617"><ele>30.200000000000003</ele><time>2026-04-25T07:38:10.883Z</time></trkpt><trkpt lat="42.217155" lon="14.575055"><ele>31.0</ele><time>2026-04-25T07:38:12.883Z</time></trkpt><trkpt lat="42.217085" lon="14.57517"><ele>31.0</ele><time>2026-04-25T07:38:14.882Z</time></trkpt><trkpt lat="42.217025" lon="14.5752983"><ele>31.0</ele><time>2026-04-25T07:38:16.883Z</time></trkpt><trkpt lat="42.2169867" lon="14.5754333"><ele>31.0</ele><time>2026-04-25T07:38:18.882Z</time></trkpt><trkpt lat="42.21695" lon="14.5755667"><ele>31.0</ele><time>2026-04-25T07:38:20.883Z</time></trkpt><trkpt lat="42.21692" lon="14.5757083"><ele>31.0</ele><time>2026-04-25T07:38:22.882Z</time></trkpt><trkpt lat="42.216915" lon="14.575865"><ele>30.8</ele><time>2026-04-25T07:38:24.883Z</time></trkpt><trkpt lat="42.21691" lon="14.576025"><ele>30.6</ele><time>2026-04-25T07:38:26.882Z</time></trkpt><trkpt lat="42.2169033" lon="14.57611"><ele>30.4</ele><time>2026-04-25T07:38:27.883Z</time></trkpt><trkpt lat="42.2168983" lon="14.57626"><ele>30.2</ele><time>2026-04-25T07:38:29.883Z</time></trkpt><trkpt lat="42.2168917" lon="14.5764083"><ele>30.0</ele><time>2026-04-25T07:38:31.883Z</time></trkpt><trkpt lat="42.216885" lon="14.5765483"><ele>30.0</ele><time>2026-04-25T07:38:33.882Z</time></trkpt><trkpt lat="42.2168617" lon="14.5766933"><ele>30.0</ele><time>2026-04-25T07:38:35.883Z</time></trkpt><trkpt lat="42.21683" lon="14.5768267"><ele>30.0</ele><time>2026-04-25T07:38:37.883Z</time></trkpt><trkpt lat="42.21679" lon="14.5769483"><ele>30.0</ele><time>2026-04-25T07:38:39.882Z</time></trkpt><trkpt lat="42.216745" lon="14.5770617"><ele>30.0</ele><time>2026-04-25T07:38:41.883Z</time></trkpt><trkpt lat="42.2166933" lon="14.5771717"><ele>30.0</ele><time>2026-04-25T07:38:43.883Z</time></trkpt><trkpt lat="42.2166333" lon="14.5772933"><ele>30.0</ele><time>2026-04-25T07:38:45.883Z</time></trkpt><trkpt lat="42.2165717" lon="14.5774283"><ele>30.0</ele><time>2026-04-25T07:38:47.883Z</time></trkpt><trkpt lat="42.216545" lon="14.5775133"><ele>30.0</ele><time>2026-04-25T07:38:48.883Z</time></trkpt><trkpt lat="42.2165183" lon="14.5775967"><ele>30.0</ele><time>2026-04-25T07:38:49.883Z</time></trkpt><trkpt lat="42.216455" lon="14.5777333"><ele>28.0</ele><time>2026-04-25T07:38:51.882Z</time></trkpt><trkpt lat="42.216385" lon="14.577865"><ele>26.0</ele><time>2026-04-25T07:38:53.882Z</time></trkpt><trkpt lat="42.2163233" lon="14.5779983"><ele>24.0</ele><time>2026-04-25T07:38:55.883Z</time></trkpt><trkpt lat="42.216255" lon="14.57812"><ele>22.0</ele><time>2026-04-25T07:38:57.883Z</time></trkpt><trkpt lat="42.2161917" lon="14.578245"><ele>22.0</ele><time>2026-04-25T07:38:59.882Z</time></trkpt><trkpt lat="42.216125" lon="14.5783633"><ele>22.0</ele><time>2026-04-25T07:39:01.882Z</time></trkpt><trkpt lat="42.2160617" lon="14.5784983"><ele>22.0</ele><time>2026-04-25T07:39:03.883Z</time></trkpt><trkpt lat="42.2160033" lon="14.5786267"><ele>22.0</ele><time>2026-04-25T07:39:05.882Z</time></trkpt><trkpt lat="42.2159333" lon="14.57876"><ele>21.5</ele><time>2026-04-25T07:39:07.883Z</time></trkpt><trkpt lat="42.2158717" lon="14.5788967"><ele>21.0</ele><time>2026-04-25T07:39:09.882Z</time></trkpt><trkpt lat="42.215805" lon="14.5790283"><ele>20.5</ele><time>2026-04-25T07:39:11.883Z</time></trkpt><trkpt lat="42.2157383" lon="14.57916"><ele>20.0</ele><time>2026-04-25T07:39:13.883Z</time></trkpt><trkpt lat="42.215675" lon="14.5793"><ele>20.6</ele><time>2026-04-25T07:39:15.882Z</time></trkpt><trkpt lat="42.2156083" lon="14.5794267"><ele>21.2</ele><time>2026-04-25T07:39:17.882Z</time></trkpt><trkpt lat="42.21553" lon="14.5795483"><ele>21.799999999999997</ele><time>2026-04-25T07:39:19.883Z</time></trkpt><trkpt lat="42.2154617" lon="14.5796867"><ele>22.4</ele><time>2026-04-25T07:39:21.882Z</time></trkpt><trkpt lat="42.2154283" lon="14.57976"><ele>23.0</ele><time>2026-04-25T07:39:22.882Z</time></trkpt><trkpt lat="42.2153917" lon="14.5798317"><ele>23.0</ele><time>2026-04-25T07:39:23.882Z</time></trkpt><trkpt lat="42.21532" lon="14.579965"><ele>23.0</ele><time>2026-04-25T07:39:25.882Z</time></trkpt><trkpt lat="42.2152533" lon="14.5800967"><ele>23.0</ele><time>2026-04-25T07:39:27.882Z</time></trkpt><trkpt lat="42.2151867" lon="14.5802233"><ele>23.0</ele><time>2026-04-25T07:39:29.883Z</time></trkpt><trkpt lat="42.21512" lon="14.580355"><ele>22.2</ele><time>2026-04-25T07:39:31.883Z</time></trkpt><trkpt lat="42.21506" lon="14.5804817"><ele>21.4</ele><time>2026-04-25T07:39:33.883Z</time></trkpt><trkpt lat="42.2150067" lon="14.5806067"><ele>20.599999999999998</ele><time>2026-04-25T07:39:35.882Z</time></trkpt><trkpt lat="42.214955" lon="14.5807333"><ele>19.799999999999997</ele><time>2026-04-25T07:39:37.883Z</time></trkpt><trkpt lat="42.2148867" lon="14.5808733"><ele>19.0</ele><time>2026-04-25T07:39:39.883Z</time></trkpt><trkpt lat="42.214845" lon="14.5809433"><ele>20.5</ele><time>2026-04-25T07:39:40.883Z</time></trkpt><trkpt lat="42.214775" lon="14.5810817"><ele>22.0</ele><time>2026-04-25T07:39:42.883Z</time></trkpt><trkpt lat="42.2147" lon="14.5812133"><ele>23.5</ele><time>2026-04-25T07:39:44.883Z</time></trkpt><trkpt lat="42.21463" lon="14.5813383"><ele>25.0</ele><time>2026-04-25T07:39:46.883Z</time></trkpt><trkpt lat="42.2145717" lon="14.58147"><ele>25.0</ele><time>2026-04-25T07:39:48.883Z</time></trkpt><trkpt lat="42.2145367" lon="14.5815417"><ele>25.0</ele><time>2026-04-25T07:39:49.882Z</time></trkpt><trkpt lat="42.2144617" lon="14.58167"><ele>25.0</ele><time>2026-04-25T07:39:51.883Z</time></trkpt><trkpt lat="42.2143983" lon="14.5817933"><ele>25.0</ele><time>2026-04-25T07:39:53.883Z</time></trkpt><trkpt lat="42.2143383" lon="14.5819133"><ele>25.0</ele><time>2026-04-25T07:39:55.883Z</time></trkpt><trkpt lat="42.2142767" lon="14.582025"><ele>24.000000000000004</ele><time>2026-04-25T07:39:57.883Z</time></trkpt><trkpt lat="42.214225" lon="14.5821367"><ele>23.0</ele><time>2026-04-25T07:39:59.882Z</time></trkpt><trkpt lat="42.2141767" lon="14.582245"><ele>22.0</ele><time>2026-04-25T07:40:01.883Z</time></trkpt><trkpt lat="42.2141333" lon="14.5823583"><ele>21.0</ele><time>2026-04-25T07:40:03.883Z</time></trkpt><trkpt lat="42.21413" lon="14.5824583"><ele>20.0</ele><time>2026-04-25T07:40:05.883Z</time></trkpt><trkpt lat="42.21421" lon="14.582435"><ele>19.0</ele><time>2026-04-25T07:40:08.883Z</time></trkpt><trkpt lat="42.2142783" lon="14.582355"><ele>19.0</ele><time>2026-04-25T07:40:10.883Z</time></trkpt><trkpt lat="42.2143883" lon="14.5823517"><ele>19.0</ele><time>2026-04-25T07:40:12.882Z</time></trkpt><trkpt lat="42.2144867" lon="14.5824233"><ele>19.0</ele><time>2026-04-25T07:40:14.883Z</time></trkpt><trkpt lat="42.214595" lon="14.5825117"><ele>19.0</ele><time>2026-04-25T07:40:16.883Z</time></trkpt><trkpt lat="42.2146583" lon="14.5825383"><ele>19.0</ele><time>2026-04-25T07:40:17.883Z</time></trkpt><trkpt lat="42.2147633" lon="14.5825267"><ele>19.0</ele><time>2026-04-25T07:40:19.882Z</time></trkpt><trkpt lat="42.2148333" lon="14.5824817"><ele>19.0</ele><time>2026-04-25T07:40:21.883Z</time></trkpt><trkpt lat="42.2147683" lon="14.5825783"><ele>19.0</ele><time>2026-04-25T07:40:29.883Z</time></trkpt><trkpt lat="42.2147083" lon="14.58267"><ele>19.0</ele><time>2026-04-25T07:40:31.883Z</time></trkpt><trkpt lat="42.2146467" lon="14.5827967"><ele>19.0</ele><time>2026-04-25T07:40:33.882Z</time></trkpt><trkpt lat="42.2145817" lon="14.5829283"><ele>18.2</ele><time>2026-04-25T07:40:35.883Z</time></trkpt><trkpt lat="42.2145217" lon="14.5830583"><ele>17.4</ele><time>2026-04-25T07:40:37.882Z</time></trkpt><trkpt lat="42.2144533" lon="14.5831817"><ele>16.6</ele><time>2026-04-25T07:40:39.883Z</time></trkpt><trkpt lat="42.21442" lon="14.583255"><ele>15.8</ele><time>2026-04-25T07:40:40.883Z</time></trkpt><trkpt lat="42.2143567" lon="14.5833767"><ele>15.0</ele><time>2026-04-25T07:40:42.882Z</time></trkpt><trkpt lat="42.2142933" lon="14.5834933"><ele>15.0</ele><time>2026-04-25T07:40:44.883Z</time></trkpt><trkpt lat="42.21422" lon="14.5836017"><ele>15.0</ele><time>2026-04-25T07:40:46.882Z</time></trkpt><trkpt lat="42.214145" lon="14.5837133"><ele>15.0</ele><time>2026-04-25T07:40:48.883Z</time></trkpt><trkpt lat="42.21407" lon="14.5838267"><ele>15.0</ele><time>2026-04-25T07:40:50.883Z</time></trkpt><trkpt lat="42.2139817" lon="14.5839383"><ele>16.75</ele><time>2026-04-25T07:40:52.883Z</time></trkpt><trkpt lat="42.2139017" lon="14.58405"><ele>18.5</ele><time>2026-04-25T07:40:54.883Z</time></trkpt><trkpt lat="42.21382" lon="14.5841683"><ele>20.25</ele><time>2026-04-25T07:40:56.882Z</time></trkpt><trkpt lat="42.21374" lon="14.5842967"><ele>22.0</ele><time>2026-04-25T07:40:58.883Z</time></trkpt><trkpt lat="42.213665" lon="14.5844183"><ele>19.5</ele><time>2026-04-25T07:41:00.882Z</time></trkpt><trkpt lat="42.2135933" lon="14.5845383"><ele>17.0</ele><time>2026-04-25T07:41:02.882Z</time></trkpt><trkpt lat="42.21352" lon="14.5846583"><ele>14.5</ele><time>2026-04-25T07:41:04.882Z</time></trkpt><trkpt lat="42.21344" lon="14.5847817"><ele>12.0</ele><time>2026-04-25T07:41:06.883Z</time></trkpt><trkpt lat="42.21337" lon="14.5849067"><ele>12.0</ele><time>2026-04-25T07:41:08.882Z</time></trkpt><trkpt lat="42.2133033" lon="14.5850367"><ele>12.0</ele><time>2026-04-25T07:41:10.883Z</time></trkpt><trkpt lat="42.2132717" lon="14.5851133"><ele>12.0</ele><time>2026-04-25T07:41:11.883Z</time></trkpt><trkpt lat="42.213215" lon="14.58525"><ele>12.0</ele><time>2026-04-25T07:41:13.883Z</time></trkpt><trkpt lat="42.2131533" lon="14.5853883"><ele>12.0</ele><time>2026-04-25T07:41:15.883Z</time></trkpt><trkpt lat="42.2130933" lon="14.5855317"><ele>12.8</ele><time>2026-04-25T07:41:17.882Z</time></trkpt><trkpt lat="42.2130583" lon="14.5856067"><ele>13.6</ele><time>2026-04-25T07:41:18.883Z</time></trkpt><trkpt lat="42.2129917" lon="14.58574"><ele>14.400000000000002</ele><time>2026-04-25T07:41:20.882Z</time></trkpt><trkpt lat="42.21293" lon="14.5858667"><ele>15.200000000000001</ele><time>2026-04-25T07:41:22.883Z</time></trkpt><trkpt lat="42.212875" lon="14.5859967"><ele>16.0</ele><time>2026-04-25T07:41:24.883Z</time></trkpt><trkpt lat="42.212815" lon="14.5861233"><ele>14.25</ele><time>2026-04-25T07:41:26.882Z</time></trkpt><trkpt lat="42.2127517" lon="14.5862483"><ele>12.5</ele><time>2026-04-25T07:41:28.883Z</time></trkpt><trkpt lat="42.21268" lon="14.5863817"><ele>10.75</ele><time>2026-04-25T07:41:30.883Z</time></trkpt><trkpt lat="42.2126067" lon="14.5865217"><ele>9.0</ele><time>2026-04-25T07:41:32.883Z</time></trkpt><trkpt lat="42.2125317" lon="14.5866517"><ele>9.0</ele><time>2026-04-25T07:41:34.883Z</time></trkpt><trkpt lat="42.212465" lon="14.5867967"><ele>9.0</ele><time>2026-04-25T07:41:36.882Z</time></trkpt><trkpt lat="42.2124067" lon="14.58694"><ele>9.0</ele><time>2026-04-25T07:41:38.882Z</time></trkpt><trkpt lat="42.21234" lon="14.5870783"><ele>9.0</ele><time>2026-04-25T07:41:40.882Z</time></trkpt><trkpt lat="42.2123033" lon="14.5871483"><ele>9.0</ele><time>2026-04-25T07:41:41.882Z</time></trkpt><trkpt lat="42.21224" lon="14.5872767"><ele>11.75</ele><time>2026-04-25T07:41:43.882Z</time></trkpt><trkpt lat="42.21217" lon="14.587405"><ele>14.5</ele><time>2026-04-25T07:41:45.882Z</time></trkpt><trkpt lat="42.21211" lon="14.5875383"><ele>17.25</ele><time>2026-04-25T07:41:47.883Z</time></trkpt><trkpt lat="42.2120433" lon="14.587675"><ele>20.0</ele><time>2026-04-25T07:41:49.883Z</time></trkpt><trkpt lat="42.2119783" lon="14.5878067"><ele>19.0</ele><time>2026-04-25T07:41:51.882Z</time></trkpt><trkpt lat="42.211915" lon="14.5879433"><ele>18.0</ele><time>2026-04-25T07:41:53.882Z</time></trkpt><trkpt lat="42.2118583" lon="14.5880733"><ele>17.0</ele><time>2026-04-25T07:41:55.883Z</time></trkpt><trkpt lat="42.211805" lon="14.5881983"><ele>16.0</ele><time>2026-04-25T07:41:57.883Z</time></trkpt><trkpt lat="42.2117467" lon="14.588325"><ele>15.0</ele><time>2026-04-25T07:41:59.883Z</time></trkpt><trkpt lat="42.2116783" lon="14.5884517"><ele>15.0</ele><time>2026-04-25T07:42:01.882Z</time></trkpt><trkpt lat="42.211615" lon="14.5885833"><ele>15.0</ele><time>2026-04-25T07:42:03.883Z</time></trkpt><trkpt lat="42.2115533" lon="14.5887233"><ele>15.0</ele><time>2026-04-25T07:42:05.883Z</time></trkpt><trkpt lat="42.2114817" lon="14.5888617"><ele>15.0</ele><time>2026-04-25T07:42:07.883Z</time></trkpt><trkpt lat="42.21142" lon="14.5890083"><ele>14.75</ele><time>2026-04-25T07:42:09.882Z</time></trkpt><trkpt lat="42.2113567" lon="14.5891483"><ele>14.5</ele><time>2026-04-25T07:42:11.883Z</time></trkpt><trkpt lat="42.2112983" lon="14.5892933"><ele>14.25</ele><time>2026-04-25T07:42:13.882Z</time></trkpt><trkpt lat="42.211245" lon="14.5894333"><ele>14.0</ele><time>2026-04-25T07:42:15.883Z</time></trkpt><trkpt lat="42.2111917" lon="14.5895683"><ele>14.0</ele><time>2026-04-25T07:42:17.883Z</time></trkpt><trkpt lat="42.2111383" lon="14.5897167"><ele>13.999999999999998</ele><time>2026-04-25T07:42:19.882Z</time></trkpt><trkpt lat="42.2110833" lon="14.589865"><ele>13.999999999999998</ele><time>2026-04-25T07:42:21.882Z</time></trkpt><trkpt lat="42.2110467" lon="14.589935"><ele>14.0</ele><time>2026-04-25T07:42:22.883Z</time></trkpt><trkpt lat="42.2109783" lon="14.5900767"><ele>14.0</ele><time>2026-04-25T07:42:24.882Z</time></trkpt><trkpt lat="42.2109183" lon="14.59022"><ele>12.2</ele><time>2026-04-25T07:42:26.882Z</time></trkpt><trkpt lat="42.2108633" lon="14.59036"><ele>10.399999999999999</ele><time>2026-04-25T07:42:28.883Z</time></trkpt><trkpt lat="42.21081" lon="14.5904967"><ele>8.6</ele><time>2026-04-25T07:42:30.882Z</time></trkpt><trkpt lat="42.2107533" lon="14.590635"><ele>6.8</ele><time>2026-04-25T07:42:32.883Z</time></trkpt><trkpt lat="42.210715" lon="14.5907183"><ele>5.0</ele><time>2026-04-25T07:42:33.883Z</time></trkpt><trkpt lat="42.2106683" lon="14.5908517"><ele>7.0</ele><time>2026-04-25T07:42:35.883Z</time></trkpt><trkpt lat="42.2106383" lon="14.59093"><ele>9.0</ele><time>2026-04-25T07:42:36.882Z</time></trkpt><trkpt lat="42.2105867" lon="14.5910667"><ele>11.0</ele><time>2026-04-25T07:42:38.883Z</time></trkpt><trkpt lat="42.21054" lon="14.5912"><ele>13.0</ele><time>2026-04-25T07:42:40.883Z</time></trkpt><trkpt lat="42.210475" lon="14.591335"><ele>15.0</ele><time>2026-04-25T07:42:42.883Z</time></trkpt><trkpt lat="42.21044" lon="14.5914067"><ele>15.0</ele><time>2026-04-25T07:42:43.883Z</time></trkpt><trkpt lat="42.2103817" lon="14.5915433"><ele>15.0</ele><time>2026-04-25T07:42:45.882Z</time></trkpt><trkpt lat="42.21032" lon="14.591685"><ele>15.0</ele><time>2026-04-25T07:42:47.883Z</time></trkpt><trkpt lat="42.21026" lon="14.5918217"><ele>15.0</ele><time>2026-04-25T07:42:49.882Z</time></trkpt><trkpt lat="42.210195" lon="14.591955"><ele>13.0</ele><time>2026-04-25T07:42:51.883Z</time></trkpt><trkpt lat="42.2101367" lon="14.5921067"><ele>11.0</ele><time>2026-04-25T07:42:53.883Z</time></trkpt><trkpt lat="42.2100717" lon="14.5922433"><ele>9.0</ele><time>2026-04-25T07:42:55.883Z</time></trkpt><trkpt lat="42.2100033" lon="14.59238"><ele>7.0</ele><time>2026-04-25T07:42:57.883Z</time></trkpt><trkpt lat="42.2099283" lon="14.59251"><ele>7.0</ele><time>2026-04-25T07:42:59.882Z</time></trkpt><trkpt lat="42.2098867" lon="14.5925783"><ele>6.999999999999999</ele><time>2026-04-25T07:43:00.883Z</time></trkpt><trkpt lat="42.20982" lon="14.5927117"><ele>6.999999999999999</ele><time>2026-04-25T07:43:02.883Z</time></trkpt><trkpt lat="42.20974" lon="14.592835"><ele>7.0</ele><time>2026-04-25T07:43:04.882Z</time></trkpt><trkpt lat="42.2096617" lon="14.59296"><ele>7.0</ele><time>2026-04-25T07:43:06.882Z</time></trkpt><trkpt lat="42.2095933" lon="14.5930817"><ele>8.5</ele><time>2026-04-25T07:43:08.883Z</time></trkpt><trkpt lat="42.2095233" lon="14.5932133"><ele>10.0</ele><time>2026-04-25T07:43:10.883Z</time></trkpt><trkpt lat="42.2094533" lon="14.5933467"><ele>11.5</ele><time>2026-04-25T07:43:12.882Z</time></trkpt><trkpt lat="42.2093783" lon="14.5934767"><ele>13.0</ele><time>2026-04-25T07:43:14.882Z</time></trkpt><trkpt lat="42.2093083" lon="14.5936067"><ele>11.25</ele><time>2026-04-25T07:43:16.883Z</time></trkpt><trkpt lat="42.2092333" lon="14.5937383"><ele>9.5</ele><time>2026-04-25T07:43:18.882Z</time></trkpt><trkpt lat="42.2091583" lon="14.593865"><ele>7.75</ele><time>2026-04-25T07:43:20.883Z</time></trkpt><trkpt lat="42.2090817" lon="14.59399"><ele>6.0</ele><time>2026-04-25T07:43:22.882Z</time></trkpt><trkpt lat="42.2090067" lon="14.5941117"><ele>7.6</ele><time>2026-04-25T07:43:24.882Z</time></trkpt><trkpt lat="42.2089333" lon="14.5942367"><ele>9.2</ele><time>2026-04-25T07:43:26.883Z</time></trkpt><trkpt lat="42.2088633" lon="14.5943517"><ele>10.799999999999999</ele><time>2026-04-25T07:43:28.883Z</time></trkpt><trkpt lat="42.2087867" lon="14.5944733"><ele>12.399999999999999</ele><time>2026-04-25T07:43:30.883Z</time></trkpt><trkpt lat="42.2087433" lon="14.5945367"><ele>14.0</ele><time>2026-04-25T07:43:31.883Z</time></trkpt><trkpt lat="42.2086733" lon="14.59466"><ele>14.0</ele><time>2026-04-25T07:43:33.883Z</time></trkpt><trkpt lat="42.208605" lon="14.5947817"><ele>14.0</ele><time>2026-04-25T07:43:35.883Z</time></trkpt><trkpt lat="42.2085333" lon="14.5949083"><ele>14.0</ele><time>2026-04-25T07:43:37.883Z</time></trkpt><trkpt lat="42.20846" lon="14.595045"><ele>14.0</ele><time>2026-04-25T07:43:39.882Z</time></trkpt><trkpt lat="42.2083867" lon="14.59517"><ele>14.0</ele><time>2026-04-25T07:43:41.883Z</time></trkpt><trkpt lat="42.2083167" lon="14.5953033"><ele>14.0</ele><time>2026-04-25T07:43:43.883Z</time></trkpt><trkpt lat="42.20825" lon="14.595425"><ele>14.0</ele><time>2026-04-25T07:43:45.882Z</time></trkpt><trkpt lat="42.2081733" lon="14.595555"><ele>14.0</ele><time>2026-04-25T07:43:47.882Z</time></trkpt><trkpt lat="42.208115" lon="14.5956983"><ele>14.0</ele><time>2026-04-25T07:43:49.883Z</time></trkpt><trkpt lat="42.20805" lon="14.595825"><ele>14.0</ele><time>2026-04-25T07:43:51.883Z</time></trkpt><trkpt lat="42.207985" lon="14.5959517"><ele>14.0</ele><time>2026-04-25T07:43:53.883Z</time></trkpt><trkpt lat="42.2079217" lon="14.59609"><ele>14.0</ele><time>2026-04-25T07:43:55.883Z</time></trkpt><trkpt lat="42.2078583" lon="14.5962283"><ele>14.0</ele><time>2026-04-25T07:43:57.882Z</time></trkpt><trkpt lat="42.2078" lon="14.5963667"><ele>14.0</ele><time>2026-04-25T07:43:59.882Z</time></trkpt><trkpt lat="42.207745" lon="14.5965"><ele>14.0</ele><time>2026-04-25T07:44:01.883Z</time></trkpt><trkpt lat="42.20769" lon="14.5966267"><ele>14.0</ele><time>2026-04-25T07:44:03.882Z</time></trkpt><trkpt lat="42.207635" lon="14.5967683"><ele>14.0</ele><time>2026-04-25T07:44:05.882Z</time></trkpt><trkpt lat="42.2076083" lon="14.5968467"><ele>13.999999999999998</ele><time>2026-04-25T07:44:06.883Z</time></trkpt><trkpt lat="42.2075717" lon="14.596985"><ele>13.999999999999998</ele><time>2026-04-25T07:44:08.883Z</time></trkpt><trkpt lat="42.207525" lon="14.5971167"><ele>14.0</ele><time>2026-04-25T07:44:10.882Z</time></trkpt><trkpt lat="42.2074733" lon="14.597245"><ele>14.0</ele><time>2026-04-25T07:44:12.883Z</time></trkpt><trkpt lat="42.2074183" lon="14.5973617"><ele>14.2</ele><time>2026-04-25T07:44:14.883Z</time></trkpt><trkpt lat="42.207385" lon="14.5974383"><ele>14.399999999999999</ele><time>2026-04-25T07:44:15.882Z</time></trkpt><trkpt lat="42.20732" lon="14.5975833"><ele>14.6</ele><time>2026-04-25T07:44:17.883Z</time></trkpt><trkpt lat="42.20726" lon="14.59773"><ele>14.8</ele><time>2026-04-25T07:44:19.883Z</time></trkpt><trkpt lat="42.207205" lon="14.5978517"><ele>15.0</ele><time>2026-04-25T07:44:21.883Z</time></trkpt><trkpt lat="42.207175" lon="14.5979283"><ele>15.0</ele><time>2026-04-25T07:44:22.882Z</time></trkpt><trkpt lat="42.2071433" lon="14.5980067"><ele>15.0</ele><time>2026-04-25T07:44:23.883Z</time></trkpt><trkpt lat="42.20708" lon="14.59812"><ele>15.0</ele><time>2026-04-25T07:44:25.883Z</time></trkpt><trkpt lat="42.207015" lon="14.59824"><ele>15.0</ele><time>2026-04-25T07:44:27.883Z</time></trkpt><trkpt lat="42.206955" lon="14.59837"><ele>15.0</ele><time>2026-04-25T07:44:29.883Z</time></trkpt><trkpt lat="42.2068933" lon="14.5984967"><ele>15.0</ele><time>2026-04-25T07:44:31.882Z</time></trkpt><trkpt lat="42.2068367" lon="14.59863"><ele>15.0</ele><time>2026-04-25T07:44:33.883Z</time></trkpt><trkpt lat="42.2067733" lon="14.5987583"><ele>15.0</ele><time>2026-04-25T07:44:35.883Z</time></trkpt><trkpt lat="42.2067383" lon="14.59883"><ele>15.0</ele><time>2026-04-25T07:44:36.883Z</time></trkpt><trkpt lat="42.206675" lon="14.598965"><ele>15.0</ele><time>2026-04-25T07:44:38.883Z</time></trkpt><trkpt lat="42.2066117" lon="14.5991"><ele>14.2</ele><time>2026-04-25T07:44:40.882Z</time></trkpt><trkpt lat="42.2065667" lon="14.5992367"><ele>13.4</ele><time>2026-04-25T07:44:42.883Z</time></trkpt><trkpt lat="42.206515" lon="14.599375"><ele>12.600000000000001</ele><time>2026-04-25T07:44:44.883Z</time></trkpt><trkpt lat="42.206495" lon="14.5994567"><ele>11.8</ele><time>2026-04-25T07:44:45.883Z</time></trkpt><trkpt lat="42.2064367" lon="14.5995917"><ele>11.0</ele><time>2026-04-25T07:44:47.882Z</time></trkpt><trkpt lat="42.2063733" lon="14.5997217"><ele>11.0</ele><time>2026-04-25T07:44:49.883Z</time></trkpt><trkpt lat="42.2063183" lon="14.599845"><ele>11.0</ele><time>2026-04-25T07:44:51.882Z</time></trkpt><trkpt lat="42.2062583" lon="14.599965"><ele>11.0</ele><time>2026-04-25T07:44:53.883Z</time></trkpt><trkpt lat="42.206195" lon="14.6000983"><ele>11.0</ele><time>2026-04-25T07:44:55.883Z</time></trkpt><trkpt lat="42.2061667" lon="14.600175"><ele>11.0</ele><time>2026-04-25T07:44:56.883Z</time></trkpt><trkpt lat="42.2061383" lon="14.6002517"><ele>10.25</ele><time>2026-04-25T07:44:57.882Z</time></trkpt><trkpt lat="42.2060817" lon="14.600395"><ele>9.5</ele><time>2026-04-25T07:44:59.882Z</time></trkpt><trkpt lat="42.2060217" lon="14.6005383"><ele>8.75</ele><time>2026-04-25T07:45:01.883Z</time></trkpt><trkpt lat="42.20595" lon="14.60067"><ele>8.0</ele><time>2026-04-25T07:45:03.883Z</time></trkpt><trkpt lat="42.2058917" lon="14.6008067"><ele>8.0</ele><time>2026-04-25T07:45:05.882Z</time></trkpt><trkpt lat="42.205835" lon="14.6009433"><ele>8.0</ele><time>2026-04-25T07:45:07.883Z</time></trkpt><trkpt lat="42.205775" lon="14.601085"><ele>8.0</ele><time>2026-04-25T07:45:09.883Z</time></trkpt><trkpt lat="42.205745" lon="14.6011617"><ele>8.0</ele><time>2026-04-25T07:45:10.882Z</time></trkpt><trkpt lat="42.205685" lon="14.6012733"><ele>8.0</ele><time>2026-04-25T07:45:12.882Z</time></trkpt><trkpt lat="42.20562" lon="14.6014"><ele>7.800000000000001</ele><time>2026-04-25T07:45:14.883Z</time></trkpt><trkpt lat="42.2055617" lon="14.6015183"><ele>7.6000000000000005</ele><time>2026-04-25T07:45:16.882Z</time></trkpt><trkpt lat="42.2055017" lon="14.6016467"><ele>7.3999999999999995</ele><time>2026-04-25T07:45:18.882Z</time></trkpt><trkpt lat="42.20544" lon="14.6017683"><ele>7.199999999999999</ele><time>2026-04-25T07:45:20.883Z</time></trkpt><trkpt lat="42.2053783" lon="14.6019"><ele>7.0</ele><time>2026-04-25T07:45:22.883Z</time></trkpt><trkpt lat="42.20532" lon="14.6020433"><ele>7.0</ele><time>2026-04-25T07:45:24.883Z</time></trkpt><trkpt lat="42.2052567" lon="14.602185"><ele>6.999999999999999</ele><time>2026-04-25T07:45:26.883Z</time></trkpt><trkpt lat="42.2052217" lon="14.6022667"><ele>6.999999999999999</ele><time>2026-04-25T07:45:27.883Z</time></trkpt><trkpt lat="42.20517" lon="14.602405"><ele>7.0</ele><time>2026-04-25T07:45:29.883Z</time></trkpt><trkpt lat="42.205115" lon="14.6025417"><ele>7.0</ele><time>2026-04-25T07:45:31.882Z</time></trkpt><trkpt lat="42.20506" lon="14.602685"><ele>7.0</ele><time>2026-04-25T07:45:33.883Z</time></trkpt><trkpt lat="42.205005" lon="14.6028283"><ele>7.0</ele><time>2026-04-25T07:45:35.883Z</time></trkpt><trkpt lat="42.2049433" lon="14.60296"><ele>7.0</ele><time>2026-04-25T07:45:37.882Z</time></trkpt><trkpt lat="42.2048817" lon="14.6030933"><ele>7.0</ele><time>2026-04-25T07:45:39.882Z</time></trkpt><trkpt lat="42.2048217" lon="14.6032267"><ele>5.8</ele><time>2026-04-25T07:45:41.883Z</time></trkpt><trkpt lat="42.2047583" lon="14.6033617"><ele>4.6</ele><time>2026-04-25T07:45:43.882Z</time></trkpt><trkpt lat="42.2047283" lon="14.6034367"><ele>3.4</ele><time>2026-04-25T07:45:44.883Z</time></trkpt><trkpt lat="42.2046617" lon="14.6035517"><ele>2.2</ele><time>2026-04-25T07:45:46.883Z</time></trkpt><trkpt lat="42.204585" lon="14.6036533"><ele>1.0</ele><time>2026-04-25T07:45:48.883Z</time></trkpt><trkpt lat="42.2045233" lon="14.6037817"><ele>0.8</ele><time>2026-04-25T07:45:50.883Z</time></trkpt><trkpt lat="42.2044683" lon="14.603915"><ele>0.6000000000000001</ele><time>2026-04-25T07:45:52.882Z</time></trkpt><trkpt lat="42.20444" lon="14.6039933"><ele>0.4</ele><time>2026-04-25T07:45:53.883Z</time></trkpt><trkpt lat="42.2043833" lon="14.60413"><ele>0.2</ele><time>2026-04-25T07:45:55.883Z</time></trkpt><trkpt lat="42.2043283" lon="14.6042667"><ele>0.0</ele><time>2026-04-25T07:45:57.883Z</time></trkpt><trkpt lat="42.2042667" lon="14.6043983"><ele>0.25</ele><time>2026-04-25T07:45:59.883Z</time></trkpt><trkpt lat="42.2042083" lon="14.6045233"><ele>0.5</ele><time>2026-04-25T07:46:01.883Z</time></trkpt><trkpt lat="42.2041483" lon="14.60466"><ele>0.75</ele><time>2026-04-25T07:46:03.883Z</time></trkpt><trkpt lat="42.2040933" lon="14.604795"><ele>1.0</ele><time>2026-04-25T07:46:05.882Z</time></trkpt><trkpt lat="42.2040333" lon="14.6049333"><ele>1.0</ele><time>2026-04-25T07:46:07.883Z</time></trkpt><trkpt lat="42.2039733" lon="14.605065"><ele>1.0</ele><time>2026-04-25T07:46:09.883Z</time></trkpt><trkpt lat="42.203915" lon="14.6051967"><ele>1.0</ele><time>2026-04-25T07:46:11.883Z</time></trkpt><trkpt lat="42.2038633" lon="14.60533"><ele>1.0</ele><time>2026-04-25T07:46:13.882Z</time></trkpt><trkpt lat="42.2038033" lon="14.6054567"><ele>0.75</ele><time>2026-04-25T07:46:15.882Z</time></trkpt><trkpt lat="42.2037433" lon="14.6055883"><ele>0.5</ele><time>2026-04-25T07:46:17.883Z</time></trkpt><trkpt lat="42.203685" lon="14.605715"><ele>0.25</ele><time>2026-04-25T07:46:19.882Z</time></trkpt><trkpt lat="42.20363" lon="14.6058383"><ele>0.0</ele><time>2026-04-25T07:46:21.882Z</time></trkpt><trkpt lat="42.2035683" lon="14.605975"><ele>0.0</ele><time>2026-04-25T07:46:23.883Z</time></trkpt><trkpt lat="42.20351" lon="14.6061117"><ele>0.0</ele><time>2026-04-25T07:46:25.883Z</time></trkpt><trkpt lat="42.20345" lon="14.6062483"><ele>0.0</ele><time>2026-04-25T07:46:27.882Z</time></trkpt><trkpt lat="42.2033917" lon="14.606385"><ele>0.0</ele><time>2026-04-25T07:46:29.883Z</time></trkpt><trkpt lat="42.2033283" lon="14.6065267"><ele>0.25</ele><time>2026-04-25T07:46:31.883Z</time></trkpt><trkpt lat="42.20327" lon="14.6066617"><ele>0.5</ele><time>2026-04-25T07:46:33.883Z</time></trkpt><trkpt lat="42.2032117" lon="14.6067917"><ele>0.75</ele><time>2026-04-25T07:46:35.883Z</time></trkpt><trkpt lat="42.2031517" lon="14.6069283"><ele>1.0</ele><time>2026-04-25T07:46:37.882Z</time></trkpt><trkpt lat="42.2030967" lon="14.6070633"><ele>1.5</ele><time>2026-04-25T07:46:39.883Z</time></trkpt><trkpt lat="42.2030383" lon="14.6071967"><ele>2.0</ele><time>2026-04-25T07:46:41.883Z</time></trkpt><trkpt lat="42.202975" lon="14.6073317"><ele>2.5</ele><time>2026-04-25T07:46:43.882Z</time></trkpt><trkpt lat="42.2029133" lon="14.6074733"><ele>3.0</ele><time>2026-04-25T07:46:45.882Z</time></trkpt><trkpt lat="42.2028567" lon="14.6076083"><ele>3.0</ele><time>2026-04-25T07:46:47.882Z</time></trkpt><trkpt lat="42.2027917" lon="14.6077417"><ele>3.0</ele><time>2026-04-25T07:46:49.882Z</time></trkpt><trkpt lat="42.2027283" lon="14.6078717"><ele>3.0</ele><time>2026-04-25T07:46:51.883Z</time></trkpt><trkpt lat="42.202675" lon="14.6080017"><ele>3.0</ele><time>2026-04-25T07:46:53.882Z</time></trkpt><trkpt lat="42.20262" lon="14.6081417"><ele>3.2</ele><time>2026-04-25T07:46:55.883Z</time></trkpt><trkpt lat="42.2025683" lon="14.6082917"><ele>3.4</ele><time>2026-04-25T07:46:57.883Z</time></trkpt><trkpt lat="42.202515" lon="14.6084333"><ele>3.6000000000000005</ele><time>2026-04-25T07:46:59.883Z</time></trkpt><trkpt lat="42.2024583" lon="14.60857"><ele>3.8000000000000003</ele><time>2026-04-25T07:47:01.883Z</time></trkpt><trkpt lat="42.2024267" lon="14.608645"><ele>4.0</ele><time>2026-04-25T07:47:02.882Z</time></trkpt><trkpt lat="42.2023967" lon="14.6087217"><ele>4.25</ele><time>2026-04-25T07:47:03.883Z</time></trkpt><trkpt lat="42.2023417" lon="14.6088617"><ele>4.5</ele><time>2026-04-25T07:47:05.883Z</time></trkpt><trkpt lat="42.2022917" lon="14.6089983"><ele>4.75</ele><time>2026-04-25T07:47:07.883Z</time></trkpt><trkpt lat="42.2022333" lon="14.609135"><ele>5.0</ele><time>2026-04-25T07:47:09.883Z</time></trkpt><trkpt lat="42.202175" lon="14.609275"><ele>4.5</ele><time>2026-04-25T07:47:11.883Z</time></trkpt><trkpt lat="42.202115" lon="14.6094133"><ele>4.0</ele><time>2026-04-25T07:47:13.882Z</time></trkpt><trkpt lat="42.202055" lon="14.6095467"><ele>3.5</ele><time>2026-04-25T07:47:15.882Z</time></trkpt><trkpt lat="42.202" lon="14.6096817"><ele>3.0</ele><time>2026-04-25T07:47:17.883Z</time></trkpt><trkpt lat="42.201955" lon="14.60982"><ele>3.0</ele><time>2026-04-25T07:47:19.883Z</time></trkpt><trkpt lat="42.2019183" lon="14.60997"><ele>3.0</ele><time>2026-04-25T07:47:21.883Z</time></trkpt><trkpt lat="42.20192" lon="14.6101133"><ele>3.0</ele><time>2026-04-25T07:47:23.883Z</time></trkpt><trkpt lat="42.2019267" lon="14.6102267"><ele>3.0</ele><time>2026-04-25T07:47:25.883Z</time></trkpt><trkpt lat="42.2019183" lon="14.6103333"><ele>3.0</ele><time>2026-04-25T07:47:28.883Z</time></trkpt><trkpt lat="42.2019417" lon="14.6104133"><ele>2.9999999999999996</ele><time>2026-04-25T07:47:32.883Z</time></trkpt><trkpt lat="42.201945" lon="14.6103167"><ele>3.0</ele><time>2026-04-25T07:47:37.883Z</time></trkpt><trkpt lat="42.201945" lon="14.6101983"><ele>3.0</ele><time>2026-04-25T07:47:40.882Z</time></trkpt><trkpt lat="42.2019483" lon="14.6101"><ele>3.0</ele><time>2026-04-25T07:47:42.882Z</time></trkpt><trkpt lat="42.2019467" lon="14.610005"><ele>3.0</ele><time>2026-04-25T07:47:44.883Z</time></trkpt><trkpt lat="42.2019567" lon="14.609905"><ele>2.9999999999999996</ele><time>2026-04-25T07:47:46.882Z</time></trkpt><trkpt lat="42.2019883" lon="14.60982"><ele>3.0</ele><time>2026-04-25T07:47:48.882Z</time></trkpt><trkpt lat="42.2020283" lon="14.6097483"><ele>3.0</ele><time>2026-04-25T07:47:50.883Z</time></trkpt><trkpt lat="42.2020667" lon="14.6096467"><ele>3.0</ele><time>2026-04-25T07:47:52.883Z</time></trkpt><trkpt lat="42.202105" lon="14.60954"><ele>3.0</ele><time>2026-04-25T07:47:54.883Z</time></trkpt><trkpt lat="42.20214" lon="14.6094433"><ele>3.0</ele><time>2026-04-25T07:47:56.882Z</time></trkpt><trkpt lat="42.2021783" lon="14.6093533"><ele>3.0</ele><time>2026-04-25T07:47:58.882Z</time></trkpt><trkpt lat="42.202215" lon="14.609255"><ele>3.0</ele><time>2026-04-25T07:48:00.882Z</time></trkpt><trkpt lat="42.202255" lon="14.6091533"><ele>3.0</ele><time>2026-04-25T07:48:02.883Z</time></trkpt><trkpt lat="42.2023017" lon="14.6090433"><ele>3.0</ele><time>2026-04-25T07:48:04.882Z</time></trkpt><trkpt lat="42.20235" lon="14.60894"><ele>3.0</ele><time>2026-04-25T07:48:06.883Z</time></trkpt><trkpt lat="42.20239" lon="14.6088183"><ele>3.0</ele><time>2026-04-25T07:48:08.882Z</time></trkpt><trkpt lat="42.202435" lon="14.6086983"><ele>3.0</ele><time>2026-04-25T07:48:10.882Z</time></trkpt><trkpt lat="42.2024733" lon="14.6085867"><ele>3.2</ele><time>2026-04-25T07:48:12.883Z</time></trkpt><trkpt lat="42.2025167" lon="14.60848"><ele>3.4</ele><time>2026-04-25T07:48:14.882Z</time></trkpt><trkpt lat="42.20257" lon="14.6083717"><ele>3.6000000000000005</ele><time>2026-04-25T07:48:16.883Z</time></trkpt><trkpt lat="42.2026183" lon="14.608255"><ele>3.8000000000000003</ele><time>2026-04-25T07:48:18.882Z</time></trkpt><trkpt lat="42.202665" lon="14.60814"><ele>4.0</ele><time>2026-04-25T07:48:20.883Z</time></trkpt><trkpt lat="42.202715" lon="14.6080233"><ele>4.0</ele><time>2026-04-25T07:48:22.883Z</time></trkpt><trkpt lat="42.202765" lon="14.607905"><ele>4.0</ele><time>2026-04-25T07:48:24.882Z</time></trkpt><trkpt lat="42.202815" lon="14.6077967"><ele>4.0</ele><time>2026-04-25T07:48:26.883Z</time></trkpt><trkpt lat="42.2028733" lon="14.6076817"><ele>4.0</ele><time>2026-04-25T07:48:28.883Z</time></trkpt><trkpt lat="42.20292" lon="14.6075583"><ele>4.0</ele><time>2026-04-25T07:48:30.883Z</time></trkpt><trkpt lat="42.2029767" lon="14.6074367"><ele>3.8000000000000003</ele><time>2026-04-25T07:48:32.883Z</time></trkpt><trkpt lat="42.20303" lon="14.6073167"><ele>3.6000000000000005</ele><time>2026-04-25T07:48:34.883Z</time></trkpt><trkpt lat="42.2030767" lon="14.6071967"><ele>3.4</ele><time>2026-04-25T07:48:36.883Z</time></trkpt><trkpt lat="42.2031333" lon="14.60707"><ele>3.2</ele><time>2026-04-25T07:48:38.882Z</time></trkpt><trkpt lat="42.2031867" lon="14.6069417"><ele>3.0</ele><time>2026-04-25T07:48:40.883Z</time></trkpt><trkpt lat="42.2032383" lon="14.6068267"><ele>2.6</ele><time>2026-04-25T07:48:42.882Z</time></trkpt><trkpt lat="42.2032933" lon="14.606705"><ele>2.1999999999999997</ele><time>2026-04-25T07:48:44.882Z</time></trkpt><trkpt lat="42.2033483" lon="14.60658"><ele>1.8</ele><time>2026-04-25T07:48:46.883Z</time></trkpt><trkpt lat="42.2034067" lon="14.606455"><ele>1.4</ele><time>2026-04-25T07:48:48.883Z</time></trkpt><trkpt lat="42.2034667" lon="14.60632"><ele>1.0</ele><time>2026-04-25T07:48:50.882Z</time></trkpt><trkpt lat="42.20352" lon="14.6061817"><ele>0.8</ele><time>2026-04-25T07:48:52.882Z</time></trkpt><trkpt lat="42.20357" lon="14.60606"><ele>0.6000000000000001</ele><time>2026-04-25T07:48:54.883Z</time></trkpt><trkpt lat="42.2036267" lon="14.6059517"><ele>0.4</ele><time>2026-04-25T07:48:56.882Z</time></trkpt><trkpt lat="42.203685" lon="14.6058433"><ele>0.2</ele><time>2026-04-25T07:48:58.883Z</time></trkpt><trkpt lat="42.2037317" lon="14.60573"><ele>0.0</ele><time>2026-04-25T07:49:00.883Z</time></trkpt><trkpt lat="42.2037733" lon="14.6056167"><ele>0.0</ele><time>2026-04-25T07:49:02.882Z</time></trkpt><trkpt lat="42.2038267" lon="14.6054817"><ele>0.0</ele><time>2026-04-25T07:49:04.882Z</time></trkpt><trkpt lat="42.2038917" lon="14.6053317"><ele>0.0</ele><time>2026-04-25T07:49:06.882Z</time></trkpt><trkpt lat="42.2039217" lon="14.605255"><ele>0.0</ele><time>2026-04-25T07:49:07.883Z</time></trkpt><trkpt lat="42.2039867" lon="14.6051183"><ele>0.0</ele><time>2026-04-25T07:49:09.882Z</time></trkpt><trkpt lat="42.204045" lon="14.604975"><ele>0.0</ele><time>2026-04-25T07:49:11.883Z</time></trkpt><trkpt lat="42.2041117" lon="14.6048333"><ele>0.0</ele><time>2026-04-25T07:49:13.883Z</time></trkpt><trkpt lat="42.2041717" lon="14.604695"><ele>0.0</ele><time>2026-04-25T07:49:15.883Z</time></trkpt><trkpt lat="42.20422" lon="14.6045717"><ele>0.0</ele><time>2026-04-25T07:49:17.882Z</time></trkpt><trkpt lat="42.20426" lon="14.6044533"><ele>0.0</ele><time>2026-04-25T07:49:19.883Z</time></trkpt><trkpt lat="42.2043117" lon="14.6043317"><ele>0.0</ele><time>2026-04-25T07:49:21.883Z</time></trkpt><trkpt lat="42.2043417" lon="14.6042567"><ele>0.0</ele><time>2026-04-25T07:49:22.883Z</time></trkpt><trkpt lat="42.2044017" lon="14.6041133"><ele>0.0</ele><time>2026-04-25T07:49:24.883Z</time></trkpt><trkpt lat="42.2044567" lon="14.603975"><ele>0.0</ele><time>2026-04-25T07:49:26.883Z</time></trkpt><trkpt lat="42.2045067" lon="14.603845"><ele>0.0</ele><time>2026-04-25T07:49:28.882Z</time></trkpt><trkpt lat="42.2045817" lon="14.6037183"><ele>0.25</ele><time>2026-04-25T07:49:30.883Z</time></trkpt><trkpt lat="42.20466" lon="14.6036017"><ele>0.5</ele><time>2026-04-25T07:49:32.882Z</time></trkpt><trkpt lat="42.204725" lon="14.603475"><ele>0.75</ele><time>2026-04-25T07:49:34.883Z</time></trkpt><trkpt lat="42.2047817" lon="14.6033467"><ele>1.0</ele><time>2026-04-25T07:49:36.883Z</time></trkpt><trkpt lat="42.204835" lon="14.6032183"><ele>1.6</ele><time>2026-04-25T07:49:38.882Z</time></trkpt><trkpt lat="42.2048967" lon="14.6030833"><ele>2.2</ele><time>2026-04-25T07:49:40.883Z</time></trkpt><trkpt lat="42.2049567" lon="14.6029517"><ele>2.8000000000000003</ele><time>2026-04-25T07:49:42.882Z</time></trkpt><trkpt lat="42.20502" lon="14.6027983"><ele>3.4000000000000004</ele><time>2026-04-25T07:49:44.883Z</time></trkpt><trkpt lat="42.20505" lon="14.6027217"><ele>4.0</ele><time>2026-04-25T07:49:45.883Z</time></trkpt><trkpt lat="42.205085" lon="14.6026467"><ele>4.6</ele><time>2026-04-25T07:49:46.883Z</time></trkpt><trkpt lat="42.20512" lon="14.6025717"><ele>5.2</ele><time>2026-04-25T07:49:47.883Z</time></trkpt><trkpt lat="42.2051817" lon="14.60243"><ele>5.799999999999999</ele><time>2026-04-25T07:49:49.883Z</time></trkpt><trkpt lat="42.2052417" lon="14.6023083"><ele>6.3999999999999995</ele><time>2026-04-25T07:49:51.883Z</time></trkpt><trkpt lat="42.2052983" lon="14.6021883"><ele>7.0</ele><time>2026-04-25T07:49:53.883Z</time></trkpt><trkpt lat="42.205345" lon="14.6020683"><ele>7.666666666666667</ele><time>2026-04-25T07:49:55.882Z</time></trkpt><trkpt lat="42.2054017" lon="14.601945"><ele>8.333333333333334</ele><time>2026-04-25T07:49:57.882Z</time></trkpt><trkpt lat="42.205465" lon="14.6018"><ele>9.0</ele><time>2026-04-25T07:49:59.883Z</time></trkpt><trkpt lat="42.2054967" lon="14.601725"><ele>9.666666666666666</ele><time>2026-04-25T07:50:00.883Z</time></trkpt><trkpt lat="42.2055333" lon="14.6016467"><ele>10.333333333333332</ele><time>2026-04-25T07:50:01.882Z</time></trkpt><trkpt lat="42.2055633" lon="14.60157"><ele>11.0</ele><time>2026-04-25T07:50:02.883Z</time></trkpt><trkpt lat="42.2055967" lon="14.6014933"><ele>11.0</ele><time>2026-04-25T07:50:03.882Z</time></trkpt><trkpt lat="42.20563" lon="14.6014183"><ele>11.0</ele><time>2026-04-25T07:50:04.883Z</time></trkpt><trkpt lat="42.2056933" lon="14.6012767"><ele>11.0</ele><time>2026-04-25T07:50:06.883Z</time></trkpt><trkpt lat="42.2057467" lon="14.601135"><ele>11.0</ele><time>2026-04-25T07:50:08.883Z</time></trkpt><trkpt lat="42.2058033" lon="14.601"><ele>11.0</ele><time>2026-04-25T07:50:10.883Z</time></trkpt><trkpt lat="42.2058667" lon="14.6008767"><ele>11.0</ele><time>2026-04-25T07:50:12.883Z</time></trkpt><trkpt lat="42.2058983" lon="14.6007983"><ele>11.0</ele><time>2026-04-25T07:50:13.882Z</time></trkpt><trkpt lat="42.2059617" lon="14.600655"><ele>11.0</ele><time>2026-04-25T07:50:15.883Z</time></trkpt><trkpt lat="42.2060233" lon="14.6005283"><ele>11.0</ele><time>2026-04-25T07:50:17.883Z</time></trkpt><trkpt lat="42.2060867" lon="14.6004017"><ele>11.0</ele><time>2026-04-25T07:50:19.883Z</time></trkpt><trkpt lat="42.2061483" lon="14.6002917"><ele>11.0</ele><time>2026-04-25T07:50:21.882Z</time></trkpt><trkpt lat="42.2062117" lon="14.600165"><ele>11.0</ele><time>2026-04-25T07:50:23.882Z</time></trkpt><trkpt lat="42.20627" lon="14.60001"><ele>11.0</ele><time>2026-04-25T07:50:25.883Z</time></trkpt><trkpt lat="42.20633" lon="14.5998683"><ele>11.0</ele><time>2026-04-25T07:50:27.882Z</time></trkpt><trkpt lat="42.20636" lon="14.5997917"><ele>11.0</ele><time>2026-04-25T07:50:28.882Z</time></trkpt><trkpt lat="42.2064183" lon="14.5996483"><ele>11.0</ele><time>2026-04-25T07:50:30.883Z</time></trkpt><trkpt lat="42.2064767" lon="14.5995083"><ele>11.0</ele><time>2026-04-25T07:50:32.883Z</time></trkpt><trkpt lat="42.206535" lon="14.5993667"><ele>11.0</ele><time>2026-04-25T07:50:34.882Z</time></trkpt><trkpt lat="42.2066033" lon="14.5992267"><ele>11.0</ele><time>2026-04-25T07:50:36.883Z</time></trkpt><trkpt lat="42.206655" lon="14.5990833"><ele>10.25</ele><time>2026-04-25T07:50:38.883Z</time></trkpt><trkpt lat="42.2067133" lon="14.5989467"><ele>9.5</ele><time>2026-04-25T07:50:40.883Z</time></trkpt><trkpt lat="42.2067733" lon="14.5988133"><ele>8.75</ele><time>2026-04-25T07:50:42.883Z</time></trkpt><trkpt lat="42.206835" lon="14.5986833"><ele>8.0</ele><time>2026-04-25T07:50:44.883Z</time></trkpt><trkpt lat="42.2068983" lon="14.5985417"><ele>9.4</ele><time>2026-04-25T07:50:46.883Z</time></trkpt><trkpt lat="42.2069333" lon="14.5984683"><ele>10.8</ele><time>2026-04-25T07:50:47.883Z</time></trkpt><trkpt lat="42.2069917" lon="14.5983333"><ele>12.2</ele><time>2026-04-25T07:50:49.883Z</time></trkpt><trkpt lat="42.207045" lon="14.5982"><ele>13.6</ele><time>2026-04-25T07:50:51.883Z</time></trkpt><trkpt lat="42.20708" lon="14.5981267"><ele>15.0</ele><time>2026-04-25T07:50:52.883Z</time></trkpt><trkpt lat="42.2071383" lon="14.5979883"><ele>15.0</ele><time>2026-04-25T07:50:54.883Z</time></trkpt><trkpt lat="42.20719" lon="14.59785"><ele>15.0</ele><time>2026-04-25T07:50:56.883Z</time></trkpt><trkpt lat="42.2072217" lon="14.5977717"><ele>15.0</ele><time>2026-04-25T07:50:57.882Z</time></trkpt><trkpt lat="42.2072817" lon="14.5976367"><ele>15.0</ele><time>2026-04-25T07:50:59.882Z</time></trkpt><trkpt lat="42.20734" lon="14.5975067"><ele>15.0</ele><time>2026-04-25T07:51:01.882Z</time></trkpt><trkpt lat="42.207405" lon="14.5973783"><ele>14.75</ele><time>2026-04-25T07:51:03.883Z</time></trkpt><trkpt lat="42.2074583" lon="14.59724"><ele>14.5</ele><time>2026-04-25T07:51:05.882Z</time></trkpt><trkpt lat="42.2075233" lon="14.5971033"><ele>14.25</ele><time>2026-04-25T07:51:07.883Z</time></trkpt><trkpt lat="42.20757" lon="14.5969683"><ele>14.0</ele><time>2026-04-25T07:51:09.883Z</time></trkpt><trkpt lat="42.2076083" lon="14.5968183"><ele>14.0</ele><time>2026-04-25T07:51:11.882Z</time></trkpt><trkpt lat="42.2076633" lon="14.5966733"><ele>14.0</ele><time>2026-04-25T07:51:13.882Z</time></trkpt><trkpt lat="42.20773" lon="14.596545"><ele>14.0</ele><time>2026-04-25T07:51:15.882Z</time></trkpt><trkpt lat="42.2077933" lon="14.5964133"><ele>14.0</ele><time>2026-04-25T07:51:17.883Z</time></trkpt><trkpt lat="42.207855" lon="14.5962767"><ele>15.0</ele><time>2026-04-25T07:51:19.883Z</time></trkpt><trkpt lat="42.2079233" lon="14.59614"><ele>16.0</ele><time>2026-04-25T07:51:21.882Z</time></trkpt><trkpt lat="42.2079783" lon="14.5960083"><ele>17.0</ele><time>2026-04-25T07:51:23.883Z</time></trkpt><trkpt lat="42.2080317" lon="14.5958733"><ele>18.0</ele><time>2026-04-25T07:51:25.882Z</time></trkpt><trkpt lat="42.208095" lon="14.5957367"><ele>18.0</ele><time>2026-04-25T07:51:27.883Z</time></trkpt><trkpt lat="42.2081583" lon="14.5956133"><ele>18.0</ele><time>2026-04-25T07:51:29.882Z</time></trkpt><trkpt lat="42.2082217" lon="14.5954833"><ele>18.0</ele><time>2026-04-25T07:51:31.883Z</time></trkpt><trkpt lat="42.2082867" lon="14.5953533"><ele>18.0</ele><time>2026-04-25T07:51:33.883Z</time></trkpt><trkpt lat="42.2083567" lon="14.5952217"><ele>17.0</ele><time>2026-04-25T07:51:35.883Z</time></trkpt><trkpt lat="42.2084267" lon="14.5951"><ele>16.0</ele><time>2026-04-25T07:51:37.883Z</time></trkpt><trkpt lat="42.2085" lon="14.594975"><ele>15.0</ele><time>2026-04-25T07:51:39.883Z</time></trkpt><trkpt lat="42.2085667" lon="14.5948483"><ele>14.0</ele><time>2026-04-25T07:51:41.882Z</time></trkpt><trkpt lat="42.2086383" lon="14.5947267"><ele>14.0</ele><time>2026-04-25T07:51:43.882Z</time></trkpt><trkpt lat="42.2087083" lon="14.5946"><ele>14.0</ele><time>2026-04-25T07:51:45.882Z</time></trkpt><trkpt lat="42.208785" lon="14.5944833"><ele>14.0</ele><time>2026-04-25T07:51:47.882Z</time></trkpt><trkpt lat="42.2088617" lon="14.5943633"><ele>14.0</ele><time>2026-04-25T07:51:49.883Z</time></trkpt><trkpt lat="42.2089383" lon="14.59424"><ele>12.0</ele><time>2026-04-25T07:51:51.883Z</time></trkpt><trkpt lat="42.209005" lon="14.5941283"><ele>10.0</ele><time>2026-04-25T07:51:53.883Z</time></trkpt><trkpt lat="42.209075" lon="14.594005"><ele>8.0</ele><time>2026-04-25T07:51:55.882Z</time></trkpt><trkpt lat="42.2091483" lon="14.5938867"><ele>6.0</ele><time>2026-04-25T07:51:57.882Z</time></trkpt><trkpt lat="42.209225" lon="14.5937667"><ele>7.4</ele><time>2026-04-25T07:51:59.883Z</time></trkpt><trkpt lat="42.2093017" lon="14.593645"><ele>8.8</ele><time>2026-04-25T07:52:01.883Z</time></trkpt><trkpt lat="42.2093717" lon="14.593515"><ele>10.200000000000001</ele><time>2026-04-25T07:52:03.882Z</time></trkpt><trkpt lat="42.2094367" lon="14.5933917"><ele>11.6</ele><time>2026-04-25T07:52:05.883Z</time></trkpt><trkpt lat="42.2094717" lon="14.59332"><ele>13.0</ele><time>2026-04-25T07:52:06.883Z</time></trkpt><trkpt lat="42.20951" lon="14.5932517"><ele>13.0</ele><time>2026-04-25T07:52:07.882Z</time></trkpt><trkpt lat="42.2095933" lon="14.59313"><ele>13.0</ele><time>2026-04-25T07:52:09.882Z</time></trkpt><trkpt lat="42.20965" lon="14.5930133"><ele>13.0</ele><time>2026-04-25T07:52:11.882Z</time></trkpt><trkpt lat="42.2097167" lon="14.5929117"><ele>13.0</ele><time>2026-04-25T07:52:13.883Z</time></trkpt><trkpt lat="42.2097867" lon="14.592785"><ele>13.0</ele><time>2026-04-25T07:52:15.883Z</time></trkpt><trkpt lat="42.2098583" lon="14.5926533"><ele>11.5</ele><time>2026-04-25T07:52:17.882Z</time></trkpt><trkpt lat="42.2099267" lon="14.592525"><ele>10.0</ele><time>2026-04-25T07:52:19.883Z</time></trkpt><trkpt lat="42.2099933" lon="14.5923917"><ele>8.5</ele><time>2026-04-25T07:52:21.883Z</time></trkpt><trkpt lat="42.2100583" lon="14.59226"><ele>7.0</ele><time>2026-04-25T07:52:23.883Z</time></trkpt><trkpt lat="42.2101233" lon="14.5921283"><ele>9.0</ele><time>2026-04-25T07:52:25.883Z</time></trkpt><trkpt lat="42.2101883" lon="14.591995"><ele>11.0</ele><time>2026-04-25T07:52:27.882Z</time></trkpt><trkpt lat="42.21025" lon="14.5918633"><ele>13.0</ele><time>2026-04-25T07:52:29.882Z</time></trkpt><trkpt lat="42.210305" lon="14.5917417"><ele>15.0</ele><time>2026-04-25T07:52:31.883Z</time></trkpt><trkpt lat="42.210365" lon="14.5916083"><ele>15.0</ele><time>2026-04-25T07:52:33.883Z</time></trkpt><trkpt lat="42.2104233" lon="14.5914717"><ele>15.0</ele><time>2026-04-25T07:52:35.883Z</time></trkpt><trkpt lat="42.2104833" lon="14.5913317"><ele>15.0</ele><time>2026-04-25T07:52:37.883Z</time></trkpt><trkpt lat="42.2105383" lon="14.5911867"><ele>15.0</ele><time>2026-04-25T07:52:39.883Z</time></trkpt><trkpt lat="42.2105983" lon="14.5910467"><ele>17.0</ele><time>2026-04-25T07:52:41.883Z</time></trkpt><trkpt lat="42.2106483" lon="14.59091"><ele>19.0</ele><time>2026-04-25T07:52:43.883Z</time></trkpt><trkpt lat="42.2107" lon="14.5907733"><ele>21.0</ele><time>2026-04-25T07:52:45.883Z</time></trkpt><trkpt lat="42.2107583" lon="14.590635"><ele>23.0</ele><time>2026-04-25T07:52:47.883Z</time></trkpt><trkpt lat="42.210805" lon="14.5904983"><ele>20.75</ele><time>2026-04-25T07:52:49.882Z</time></trkpt><trkpt lat="42.2108567" lon="14.5903633"><ele>18.5</ele><time>2026-04-25T07:52:51.883Z</time></trkpt><trkpt lat="42.2109117" lon="14.5902217"><ele>16.25</ele><time>2026-04-25T07:52:53.882Z</time></trkpt><trkpt lat="42.2109667" lon="14.59008"><ele>14.0</ele><time>2026-04-25T07:52:55.883Z</time></trkpt><trkpt lat="42.21102" lon="14.5899483"><ele>14.0</ele><time>2026-04-25T07:52:57.882Z</time></trkpt><trkpt lat="42.2110717" lon="14.5898233"><ele>13.999999999999998</ele><time>2026-04-25T07:52:59.883Z</time></trkpt><trkpt lat="42.2111283" lon="14.5896883"><ele>13.999999999999998</ele><time>2026-04-25T07:53:01.882Z</time></trkpt><trkpt lat="42.2111583" lon="14.5896117"><ele>14.0</ele><time>2026-04-25T07:53:02.882Z</time></trkpt><trkpt lat="42.2112133" lon="14.5894767"><ele>14.0</ele><time>2026-04-25T07:53:04.883Z</time></trkpt><trkpt lat="42.2112683" lon="14.5893467"><ele>12.25</ele><time>2026-04-25T07:53:06.882Z</time></trkpt><trkpt lat="42.21133" lon="14.5892067"><ele>10.5</ele><time>2026-04-25T07:53:08.882Z</time></trkpt><trkpt lat="42.2113833" lon="14.5890617"><ele>8.75</ele><time>2026-04-25T07:53:10.883Z</time></trkpt><trkpt lat="42.21144" lon="14.5889333"><ele>7.0</ele><time>2026-04-25T07:53:12.883Z</time></trkpt><trkpt lat="42.2114917" lon="14.58881"><ele>7.0</ele><time>2026-04-25T07:53:14.882Z</time></trkpt><trkpt lat="42.2115583" lon="14.588685"><ele>7.0</ele><time>2026-04-25T07:53:16.883Z</time></trkpt><trkpt lat="42.2116333" lon="14.588565"><ele>7.0</ele><time>2026-04-25T07:53:18.882Z</time></trkpt><trkpt lat="42.2117083" lon="14.5884433"><ele>7.0</ele><time>2026-04-25T07:53:20.882Z</time></trkpt><trkpt lat="42.211775" lon="14.5883233"><ele>8.6</ele><time>2026-04-25T07:53:22.883Z</time></trkpt><trkpt lat="42.2118433" lon="14.5881983"><ele>10.2</ele><time>2026-04-25T07:53:24.883Z</time></trkpt><trkpt lat="42.2118783" lon="14.5881267"><ele>11.8</ele><time>2026-04-25T07:53:25.883Z</time></trkpt><trkpt lat="42.2119367" lon="14.5879933"><ele>13.4</ele><time>2026-04-25T07:53:27.883Z</time></trkpt><trkpt lat="42.2119867" lon="14.587855"><ele>15.0</ele><time>2026-04-25T07:53:29.883Z</time></trkpt><trkpt lat="42.21205" lon="14.5877117"><ele>16.25</ele><time>2026-04-25T07:53:31.882Z</time></trkpt><trkpt lat="42.2121217" lon="14.5875783"><ele>17.5</ele><time>2026-04-25T07:53:33.883Z</time></trkpt><trkpt lat="42.2121867" lon="14.5874417"><ele>18.75</ele><time>2026-04-25T07:53:35.883Z</time></trkpt><trkpt lat="42.2122433" lon="14.587305"><ele>20.0</ele><time>2026-04-25T07:53:37.883Z</time></trkpt><trkpt lat="42.2123083" lon="14.5871667"><ele>17.25</ele><time>2026-04-25T07:53:39.883Z</time></trkpt><trkpt lat="42.212365" lon="14.58704"><ele>14.5</ele><time>2026-04-25T07:53:41.882Z</time></trkpt><trkpt lat="42.2124317" lon="14.586905"><ele>11.75</ele><time>2026-04-25T07:53:43.882Z</time></trkpt><trkpt lat="42.2124933" lon="14.5867817"><ele>9.0</ele><time>2026-04-25T07:53:45.883Z</time></trkpt><trkpt lat="42.2125533" lon="14.5866567"><ele>9.0</ele><time>2026-04-25T07:53:47.883Z</time></trkpt><trkpt lat="42.2126017" lon="14.5865517"><ele>9.0</ele><time>2026-04-25T07:53:49.883Z</time></trkpt><trkpt lat="42.2126483" lon="14.5864583"><ele>9.0</ele><time>2026-04-25T07:53:51.883Z</time></trkpt><trkpt lat="42.2126983" lon="14.5863667"><ele>9.0</ele><time>2026-04-25T07:53:53.883Z</time></trkpt><trkpt lat="42.21276" lon="14.58624"><ele>9.0</ele><time>2026-04-25T07:53:55.883Z</time></trkpt><trkpt lat="42.212815" lon="14.5860967"><ele>10.4</ele><time>2026-04-25T07:53:57.883Z</time></trkpt><trkpt lat="42.212875" lon="14.5859717"><ele>11.8</ele><time>2026-04-25T07:53:59.883Z</time></trkpt><trkpt lat="42.2129383" lon="14.58585"><ele>13.200000000000001</ele><time>2026-04-25T07:54:01.883Z</time></trkpt><trkpt lat="42.213005" lon="14.58572"><ele>14.600000000000001</ele><time>2026-04-25T07:54:03.883Z</time></trkpt><trkpt lat="42.21306" lon="14.58559"><ele>16.0</ele><time>2026-04-25T07:54:05.883Z</time></trkpt><trkpt lat="42.21312" lon="14.585465"><ele>15.200000000000001</ele><time>2026-04-25T07:54:07.883Z</time></trkpt><trkpt lat="42.2131817" lon="14.5853417"><ele>14.400000000000002</ele><time>2026-04-25T07:54:09.883Z</time></trkpt><trkpt lat="42.2132567" lon="14.58522"><ele>13.6</ele><time>2026-04-25T07:54:11.883Z</time></trkpt><trkpt lat="42.2133183" lon="14.585095"><ele>12.8</ele><time>2026-04-25T07:54:13.883Z</time></trkpt><trkpt lat="42.21338" lon="14.5849733"><ele>12.0</ele><time>2026-04-25T07:54:15.882Z</time></trkpt><trkpt lat="42.2134467" lon="14.584845"><ele>12.0</ele><time>2026-04-25T07:54:17.883Z</time></trkpt><trkpt lat="42.2135167" lon="14.58472"><ele>12.0</ele><time>2026-04-25T07:54:19.883Z</time></trkpt><trkpt lat="42.2135883" lon="14.5845983"><ele>12.0</ele><time>2026-04-25T07:54:21.883Z</time></trkpt><trkpt lat="42.213665" lon="14.5844767"><ele>12.0</ele><time>2026-04-25T07:54:23.883Z</time></trkpt><trkpt lat="42.2137383" lon="14.58436"><ele>10.75</ele><time>2026-04-25T07:54:25.883Z</time></trkpt><trkpt lat="42.2138133" lon="14.58425"><ele>9.5</ele><time>2026-04-25T07:54:27.883Z</time></trkpt><trkpt lat="42.2138783" lon="14.5841367"><ele>8.25</ele><time>2026-04-25T07:54:29.883Z</time></trkpt><trkpt lat="42.21395" lon="14.5840217"><ele>7.0</ele><time>2026-04-25T07:54:31.882Z</time></trkpt><trkpt lat="42.2140333" lon="14.5838967"><ele>7.0</ele><time>2026-04-25T07:54:33.882Z</time></trkpt><trkpt lat="42.21411" lon="14.5837783"><ele>7.0</ele><time>2026-04-25T07:54:35.882Z</time></trkpt><trkpt lat="42.2141883" lon="14.5836717"><ele>7.0</ele><time>2026-04-25T07:54:37.882Z</time></trkpt><trkpt lat="42.21426" lon="14.5835633"><ele>7.0</ele><time>2026-04-25T07:54:39.882Z</time></trkpt><trkpt lat="42.2143333" lon="14.583445"><ele>8.6</ele><time>2026-04-25T07:54:41.883Z</time></trkpt><trkpt lat="42.2144017" lon="14.583325"><ele>10.2</ele><time>2026-04-25T07:54:43.883Z</time></trkpt><trkpt lat="42.2144683" lon="14.5832133"><ele>11.8</ele><time>2026-04-25T07:54:45.883Z</time></trkpt><trkpt lat="42.2145417" lon="14.5830983"><ele>13.4</ele><time>2026-04-25T07:54:47.883Z</time></trkpt><trkpt lat="42.214605" lon="14.5829933"><ele>15.0</ele><time>2026-04-25T07:54:49.883Z</time></trkpt><trkpt lat="42.214665" lon="14.5828833"><ele>15.666666666666666</ele><time>2026-04-25T07:54:51.882Z</time></trkpt><trkpt lat="42.21472" lon="14.5827917"><ele>16.333333333333332</ele><time>2026-04-25T07:54:53.883Z</time></trkpt><trkpt lat="42.21476" lon="14.5827133"><ele>17.0</ele><time>2026-04-25T07:54:55.883Z</time></trkpt><trkpt lat="42.2148" lon="14.5826283"><ele>17.666666666666664</ele><time>2026-04-25T07:54:58.883Z</time></trkpt><trkpt lat="42.214845" lon="14.58256"><ele>18.333333333333332</ele><time>2026-04-25T07:55:01.883Z</time></trkpt><trkpt lat="42.2148783" lon="14.5824867"><ele>19.0</ele><time>2026-04-25T07:55:03.883Z</time></trkpt><trkpt lat="42.2147917" lon="14.5824833"><ele>19.0</ele><time>2026-04-25T07:55:08.882Z</time></trkpt><trkpt lat="42.214715" lon="14.58248"><ele>19.0</ele><time>2026-04-25T07:55:11.883Z</time></trkpt><trkpt lat="42.2146433" lon="14.582445"><ele>19.0</ele><time>2026-04-25T07:55:14.882Z</time></trkpt><trkpt lat="42.2145583" lon="14.5823967"><ele>19.0</ele><time>2026-04-25T07:55:17.883Z</time></trkpt><trkpt lat="42.214485" lon="14.5823483"><ele>19.0</ele><time>2026-04-25T07:55:20.882Z</time></trkpt><trkpt lat="42.2144183" lon="14.582325"><ele>19.0</ele><time>2026-04-25T07:55:23.883Z</time></trkpt><trkpt lat="42.214345" lon="14.5823333"><ele>19.0</ele><time>2026-04-25T07:55:26.883Z</time></trkpt><trkpt lat="42.21428" lon="14.5823433"><ele>19.0</ele><time>2026-04-25T07:55:29.882Z</time></trkpt><trkpt lat="42.2142217" lon="14.5824217"><ele>19.0</ele><time>2026-04-25T07:55:32.883Z</time></trkpt><trkpt lat="42.2142" lon="14.5823283"><ele>19.0</ele><time>2026-04-25T07:55:38.882Z</time></trkpt><trkpt lat="42.2142417" lon="14.5822467"><ele>19.0</ele><time>2026-04-25T07:55:40.883Z</time></trkpt><trkpt lat="42.2142683" lon="14.5821633"><ele>19.0</ele><time>2026-04-25T07:55:42.883Z</time></trkpt><trkpt lat="42.2143067" lon="14.58207"><ele>19.0</ele><time>2026-04-25T07:55:44.883Z</time></trkpt><trkpt lat="42.2143517" lon="14.5819867"><ele>20.0</ele><time>2026-04-25T07:55:46.882Z</time></trkpt><trkpt lat="42.2144183" lon="14.5818933"><ele>21.0</ele><time>2026-04-25T07:55:48.883Z</time></trkpt><trkpt lat="42.2144667" lon="14.5817967"><ele>22.0</ele><time>2026-04-25T07:55:50.883Z</time></trkpt><trkpt lat="42.21452" lon="14.5817017"><ele>23.0</ele><time>2026-04-25T07:55:52.882Z</time></trkpt><trkpt lat="42.2145667" lon="14.5816033"><ele>24.000000000000004</ele><time>2026-04-25T07:55:54.882Z</time></trkpt><trkpt lat="42.2146067" lon="14.5815067"><ele>25.0</ele><time>2026-04-25T07:55:56.882Z</time></trkpt><trkpt lat="42.21466" lon="14.581405"><ele>25.0</ele><time>2026-04-25T07:55:58.883Z</time></trkpt><trkpt lat="42.214715" lon="14.581305"><ele>25.0</ele><time>2026-04-25T07:56:00.883Z</time></trkpt><trkpt lat="42.21477" lon="14.5812067"><ele>25.0</ele><time>2026-04-25T07:56:02.883Z</time></trkpt><trkpt lat="42.2148233" lon="14.5810967"><ele>25.0</ele><time>2026-04-25T07:56:04.883Z</time></trkpt><trkpt lat="42.2148733" lon="14.58099"><ele>25.0</ele><time>2026-04-25T07:56:06.883Z</time></trkpt><trkpt lat="42.214925" lon="14.5808867"><ele>24.666666666666668</ele><time>2026-04-25T07:56:08.882Z</time></trkpt><trkpt lat="42.21497" lon="14.5807983"><ele>24.333333333333336</ele><time>2026-04-25T07:56:10.883Z</time></trkpt><trkpt lat="42.2150167" lon="14.5807117"><ele>24.0</ele><time>2026-04-25T07:56:12.882Z</time></trkpt><trkpt lat="42.2150617" lon="14.58062"><ele>23.666666666666668</ele><time>2026-04-25T07:56:14.883Z</time></trkpt><trkpt lat="42.2151133" lon="14.5805117"><ele>23.333333333333336</ele><time>2026-04-25T07:56:16.883Z</time></trkpt><trkpt lat="42.21516" lon="14.5804183"><ele>23.0</ele><time>2026-04-25T07:56:18.883Z</time></trkpt><trkpt lat="42.2152133" lon="14.58032"><ele>23.0</ele><time>2026-04-25T07:56:20.883Z</time></trkpt><trkpt lat="42.215265" lon="14.5802133"><ele>23.0</ele><time>2026-04-25T07:56:22.883Z</time></trkpt><trkpt lat="42.21532" lon="14.58011"><ele>23.0</ele><time>2026-04-25T07:56:24.882Z</time></trkpt><trkpt lat="42.215375" lon="14.5800083"><ele>23.0</ele><time>2026-04-25T07:56:26.883Z</time></trkpt><trkpt lat="42.2154267" lon="14.5799033"><ele>23.0</ele><time>2026-04-25T07:56:28.883Z</time></trkpt><trkpt lat="42.2154733" lon="14.5797967"><ele>23.0</ele><time>2026-04-25T07:56:30.882Z</time></trkpt><trkpt lat="42.2155267" lon="14.5796983"><ele>23.0</ele><time>2026-04-25T07:56:32.882Z</time></trkpt><trkpt lat="42.2155833" lon="14.579595"><ele>23.0</ele><time>2026-04-25T07:56:34.883Z</time></trkpt><trkpt lat="42.2156367" lon="14.5794867"><ele>23.0</ele><time>2026-04-25T07:56:36.883Z</time></trkpt><trkpt lat="42.215695" lon="14.579375"><ele>23.0</ele><time>2026-04-25T07:56:38.883Z</time></trkpt><trkpt lat="42.2157533" lon="14.5792733"><ele>22.4</ele><time>2026-04-25T07:56:40.882Z</time></trkpt><trkpt lat="42.215805" lon="14.5791717"><ele>21.799999999999997</ele><time>2026-04-25T07:56:42.883Z</time></trkpt><trkpt lat="42.2158567" lon="14.579055"><ele>21.2</ele><time>2026-04-25T07:56:44.883Z</time></trkpt><trkpt lat="42.215915" lon="14.57895"><ele>20.6</ele><time>2026-04-25T07:56:46.882Z</time></trkpt><trkpt lat="42.2159683" lon="14.5788517"><ele>20.0</ele><time>2026-04-25T07:56:48.883Z</time></trkpt><trkpt lat="42.2160183" lon="14.5787483"><ele>20.4</ele><time>2026-04-25T07:56:50.882Z</time></trkpt><trkpt lat="42.216075" lon="14.5786367"><ele>20.8</ele><time>2026-04-25T07:56:52.883Z</time></trkpt><trkpt lat="42.2161383" lon="14.57852"><ele>21.200000000000003</ele><time>2026-04-25T07:56:54.883Z</time></trkpt><trkpt lat="42.216195" lon="14.5784067"><ele>21.6</ele><time>2026-04-25T07:56:56.883Z</time></trkpt><trkpt lat="42.216255" lon="14.57829"><ele>22.0</ele><time>2026-04-25T07:56:58.883Z</time></trkpt><trkpt lat="42.2163117" lon="14.5781667"><ele>22.0</ele><time>2026-04-25T07:57:00.883Z</time></trkpt><trkpt lat="42.2163733" lon="14.57805"><ele>22.0</ele><time>2026-04-25T07:57:02.883Z</time></trkpt><trkpt lat="42.2164317" lon="14.577935"><ele>22.0</ele><time>2026-04-25T07:57:04.883Z</time></trkpt><trkpt lat="42.2164883" lon="14.5778217"><ele>22.0</ele><time>2026-04-25T07:57:06.882Z</time></trkpt><trkpt lat="42.21655" lon="14.5777033"><ele>22.0</ele><time>2026-04-25T07:57:08.882Z</time></trkpt><trkpt lat="42.21661" lon="14.5775967"><ele>21.6</ele><time>2026-04-25T07:57:10.882Z</time></trkpt><trkpt lat="42.216665" lon="14.577475"><ele>21.200000000000003</ele><time>2026-04-25T07:57:12.883Z</time></trkpt><trkpt lat="42.2167233" lon="14.57736"><ele>20.8</ele><time>2026-04-25T07:57:14.883Z</time></trkpt><trkpt lat="42.2167833" lon="14.5772383"><ele>20.4</ele><time>2026-04-25T07:57:16.883Z</time></trkpt><trkpt lat="42.2168333" lon="14.57712"><ele>20.0</ele><time>2026-04-25T07:57:18.883Z</time></trkpt><trkpt lat="42.2168833" lon="14.5769867"><ele>22.0</ele><time>2026-04-25T07:57:20.883Z</time></trkpt><trkpt lat="42.216915" lon="14.5768467"><ele>24.0</ele><time>2026-04-25T07:57:22.883Z</time></trkpt><trkpt lat="42.21694" lon="14.5766983"><ele>26.0</ele><time>2026-04-25T07:57:24.883Z</time></trkpt><trkpt lat="42.21695" lon="14.5765533"><ele>28.0</ele><time>2026-04-25T07:57:26.883Z</time></trkpt><trkpt lat="42.2169517" lon="14.5764017"><ele>30.0</ele><time>2026-04-25T07:57:28.883Z</time></trkpt><trkpt lat="42.21696" lon="14.5762433"><ele>30.0</ele><time>2026-04-25T07:57:30.883Z</time></trkpt><trkpt lat="42.2169717" lon="14.57608"><ele>30.0</ele><time>2026-04-25T07:57:32.882Z</time></trkpt><trkpt lat="42.21698" lon="14.5759233"><ele>30.0</ele><time>2026-04-25T07:57:34.883Z</time></trkpt><trkpt lat="42.2169917" lon="14.5757533"><ele>30.0</ele><time>2026-04-25T07:57:36.882Z</time></trkpt><trkpt lat="42.2170033" lon="14.575665"><ele>30.0</ele><time>2026-04-25T07:57:37.883Z</time></trkpt><trkpt lat="42.21702" lon="14.5755817"><ele>30.0</ele><time>2026-04-25T07:57:38.883Z</time></trkpt><trkpt lat="42.2170417" lon="14.575495"><ele>30.0</ele><time>2026-04-25T07:57:39.883Z</time></trkpt><trkpt lat="42.2170633" lon="14.5754133"><ele>30.0</ele><time>2026-04-25T07:57:40.883Z</time></trkpt><trkpt lat="42.21712" lon="14.5752717"><ele>30.0</ele><time>2026-04-25T07:57:42.882Z</time></trkpt><trkpt lat="42.2171583" lon="14.5752017"><ele>30.0</ele><time>2026-04-25T07:57:43.883Z</time></trkpt><trkpt lat="42.2172033" lon="14.57513"><ele>30.0</ele><time>2026-04-25T07:57:44.882Z</time></trkpt><trkpt lat="42.21725" lon="14.5750633"><ele>30.166666666666668</ele><time>2026-04-25T07:57:45.883Z</time></trkpt><trkpt lat="42.2173" lon="14.5750017"><ele>30.333333333333336</ele><time>2026-04-25T07:57:46.883Z</time></trkpt><trkpt lat="42.21735" lon="14.57495"><ele>30.5</ele><time>2026-04-25T07:57:47.883Z</time></trkpt><trkpt lat="42.2174017" lon="14.5749"><ele>30.666666666666668</ele><time>2026-04-25T07:57:48.883Z</time></trkpt><trkpt lat="42.217505" lon="14.5747983"><ele>30.833333333333336</ele><time>2026-04-25T07:57:50.883Z</time></trkpt><trkpt lat="42.2175567" lon="14.5747483"><ele>31.0</ele><time>2026-04-25T07:57:51.883Z</time></trkpt><trkpt lat="42.21761" lon="14.574695"><ele>30.200000000000003</ele><time>2026-04-25T07:57:52.883Z</time></trkpt><trkpt lat="42.21766" lon="14.5746367"><ele>29.400000000000002</ele><time>2026-04-25T07:57:53.883Z</time></trkpt><trkpt lat="42.217755" lon="14.5745267"><ele>28.6</ele><time>2026-04-25T07:57:55.882Z</time></trkpt><trkpt lat="42.21784" lon="14.5744083"><ele>27.8</ele><time>2026-04-25T07:57:57.883Z</time></trkpt><trkpt lat="42.2179183" lon="14.5742883"><ele>27.0</ele><time>2026-04-25T07:57:59.882Z</time></trkpt><trkpt lat="42.2179867" lon="14.5741483"><ele>27.0</ele><time>2026-04-25T07:58:01.882Z</time></trkpt><trkpt lat="42.2180217" lon="14.574075"><ele>27.0</ele><time>2026-04-25T07:58:02.883Z</time></trkpt><trkpt lat="42.2180583" lon="14.573995"><ele>27.0</ele><time>2026-04-25T07:58:03.883Z</time></trkpt><trkpt lat="42.21809" lon="14.573915"><ele>27.0</ele><time>2026-04-25T07:58:04.883Z</time></trkpt><trkpt lat="42.218125" lon="14.5738317"><ele>27.0</ele><time>2026-04-25T07:58:05.883Z</time></trkpt><trkpt lat="42.2181617" lon="14.5737517"><ele>27.0</ele><time>2026-04-25T07:58:06.883Z</time></trkpt><trkpt lat="42.218195" lon="14.5736633"><ele>27.0</ele><time>2026-04-25T07:58:07.882Z</time></trkpt><trkpt lat="42.2182283" lon="14.5735767"><ele>25.857142857142858</ele><time>2026-04-25T07:58:08.883Z</time></trkpt><trkpt lat="42.2182617" lon="14.5734983"><ele>24.714285714285715</ele><time>2026-04-25T07:58:09.883Z</time></trkpt><trkpt lat="42.218295" lon="14.5734133"><ele>23.57142857142857</ele><time>2026-04-25T07:58:10.882Z</time></trkpt><trkpt lat="42.2183317" lon="14.5733267"><ele>22.42857142857143</ele><time>2026-04-25T07:58:11.883Z</time></trkpt><trkpt lat="42.2183667" lon="14.573235"><ele>21.28571428571429</ele><time>2026-04-25T07:58:12.883Z</time></trkpt><trkpt lat="42.2183967" lon="14.573155"><ele>20.142857142857142</ele><time>2026-04-25T07:58:13.882Z</time></trkpt><trkpt lat="42.2184283" lon="14.5730783"><ele>19.0</ele><time>2026-04-25T07:58:14.883Z</time></trkpt><trkpt lat="42.21846" lon="14.5729967"><ele>19.0</ele><time>2026-04-25T07:58:15.882Z</time></trkpt><trkpt lat="42.2184933" lon="14.57292"><ele>19.0</ele><time>2026-04-25T07:58:16.883Z</time></trkpt><trkpt lat="42.2185217" lon="14.57284"><ele>19.0</ele><time>2026-04-25T07:58:17.883Z</time></trkpt><trkpt lat="42.2185533" lon="14.5727617"><ele>19.0</ele><time>2026-04-25T07:58:18.883Z</time></trkpt><trkpt lat="42.2185883" lon="14.5726717"><ele>19.0</ele><time>2026-04-25T07:58:19.883Z</time></trkpt><trkpt lat="42.2186217" lon="14.572585"><ele>19.0</ele><time>2026-04-25T07:58:20.883Z</time></trkpt><trkpt lat="42.218655" lon="14.5724983"><ele>19.0</ele><time>2026-04-25T07:58:21.882Z</time></trkpt><trkpt lat="42.21869" lon="14.5724133"><ele>19.142857142857142</ele><time>2026-04-25T07:58:22.882Z</time></trkpt><trkpt lat="42.2187233" lon="14.57233"><ele>19.28571428571429</ele><time>2026-04-25T07:58:23.883Z</time></trkpt><trkpt lat="42.2187583" lon="14.5722467"><ele>19.42857142857143</ele><time>2026-04-25T07:58:24.883Z</time></trkpt><trkpt lat="42.2187917" lon="14.572165"><ele>19.57142857142857</ele><time>2026-04-25T07:58:25.882Z</time></trkpt><trkpt lat="42.2188283" lon="14.572085"><ele>19.714285714285715</ele><time>2026-04-25T07:58:26.883Z</time></trkpt><trkpt lat="42.21887" lon="14.57201"><ele>19.857142857142858</ele><time>2026-04-25T07:58:27.883Z</time></trkpt><trkpt lat="42.218915" lon="14.57194"><ele>20.0</ele><time>2026-04-25T07:58:28.883Z</time></trkpt><trkpt lat="42.218955" lon="14.5718683"><ele>19.57142857142857</ele><time>2026-04-25T07:58:29.883Z</time></trkpt><trkpt lat="42.2189967" lon="14.5718"><ele>19.142857142857142</ele><time>2026-04-25T07:58:30.883Z</time></trkpt><trkpt lat="42.2190417" lon="14.5717317"><ele>18.714285714285715</ele><time>2026-04-25T07:58:31.882Z</time></trkpt><trkpt lat="42.2190917" lon="14.571665"><ele>18.285714285714285</ele><time>2026-04-25T07:58:32.883Z</time></trkpt><trkpt lat="42.2191367" lon="14.5715967"><ele>17.857142857142858</ele><time>2026-04-25T07:58:33.883Z</time></trkpt><trkpt lat="42.2191833" lon="14.5715267"><ele>17.428571428571427</ele><time>2026-04-25T07:58:34.883Z</time></trkpt><trkpt lat="42.2192283" lon="14.57146"><ele>17.0</ele><time>2026-04-25T07:58:35.883Z</time></trkpt><trkpt lat="42.2192783" lon="14.5713983"><ele>17.0</ele><time>2026-04-25T07:58:36.883Z</time></trkpt><trkpt lat="42.2193217" lon="14.5713317"><ele>17.0</ele><time>2026-04-25T07:58:37.883Z</time></trkpt><trkpt lat="42.2193667" lon="14.5712633"><ele>17.0</ele><time>2026-04-25T07:58:38.883Z</time></trkpt><trkpt lat="42.21941" lon="14.5711983"><ele>17.0</ele><time>2026-04-25T07:58:39.883Z</time></trkpt><trkpt lat="42.2194967" lon="14.5710783"><ele>17.0</ele><time>2026-04-25T07:58:41.882Z</time></trkpt><trkpt lat="42.219575" lon="14.570965"><ele>17.0</ele><time>2026-04-25T07:58:43.882Z</time></trkpt><trkpt lat="42.2196217" lon="14.5709017"><ele>16.333333333333336</ele><time>2026-04-25T07:58:44.883Z</time></trkpt><trkpt lat="42.2196783" lon="14.5708367"><ele>15.666666666666668</ele><time>2026-04-25T07:58:45.882Z</time></trkpt><trkpt lat="42.2197333" lon="14.570775"><ele>15.0</ele><time>2026-04-25T07:58:46.882Z</time></trkpt><trkpt lat="42.2197867" lon="14.5707"><ele>14.333333333333332</ele><time>2026-04-25T07:58:47.883Z</time></trkpt><trkpt lat="42.21984" lon="14.5706233"><ele>13.666666666666666</ele><time>2026-04-25T07:58:48.883Z</time></trkpt><trkpt lat="42.21989" lon="14.5705533"><ele>13.0</ele><time>2026-04-25T07:58:49.882Z</time></trkpt><trkpt lat="42.2199417" lon="14.570475"><ele>12.999999999999998</ele><time>2026-04-25T07:58:50.883Z</time></trkpt><trkpt lat="42.2199917" lon="14.5703967"><ele>13.0</ele><time>2026-04-25T07:58:51.883Z</time></trkpt><trkpt lat="42.2200467" lon="14.5703183"><ele>13.0</ele><time>2026-04-25T07:58:52.883Z</time></trkpt><trkpt lat="42.220095" lon="14.57024"><ele>13.0</ele><time>2026-04-25T07:58:53.883Z</time></trkpt><trkpt lat="42.2201467" lon="14.57016"><ele>12.999999999999998</ele><time>2026-04-25T07:58:54.883Z</time></trkpt><trkpt lat="42.2201917" lon="14.5700833"><ele>13.0</ele><time>2026-04-25T07:58:55.883Z</time></trkpt><trkpt lat="42.220245" lon="14.5700033"><ele>13.833333333333332</ele><time>2026-04-25T07:58:56.883Z</time></trkpt><trkpt lat="42.2202933" lon="14.5699133"><ele>14.666666666666666</ele><time>2026-04-25T07:58:57.883Z</time></trkpt><trkpt lat="42.2203367" lon="14.5698317"><ele>15.5</ele><time>2026-04-25T07:58:58.883Z</time></trkpt><trkpt lat="42.2203833" lon="14.5697517"><ele>16.333333333333332</ele><time>2026-04-25T07:58:59.882Z</time></trkpt><trkpt lat="42.2204217" lon="14.5696767"><ele>17.166666666666668</ele><time>2026-04-25T07:59:00.883Z</time></trkpt><trkpt lat="42.2204633" lon="14.56959"><ele>18.0</ele><time>2026-04-25T07:59:01.883Z</time></trkpt><trkpt lat="42.2205033" lon="14.569505"><ele>19.0</ele><time>2026-04-25T07:59:02.883Z</time></trkpt><trkpt lat="42.2205433" lon="14.5694183"><ele>20.0</ele><time>2026-04-25T07:59:03.883Z</time></trkpt><trkpt lat="42.2205833" lon="14.56932"><ele>21.0</ele><time>2026-04-25T07:59:04.882Z</time></trkpt><trkpt lat="42.220625" lon="14.569225"><ele>22.0</ele><time>2026-04-25T07:59:05.883Z</time></trkpt><trkpt lat="42.2206667" lon="14.5691333"><ele>23.0</ele><time>2026-04-25T07:59:06.883Z</time></trkpt><trkpt lat="42.220705" lon="14.56904"><ele>24.0</ele><time>2026-04-25T07:59:07.882Z</time></trkpt><trkpt lat="42.2207467" lon="14.568955"><ele>22.166666666666668</ele><time>2026-04-25T07:59:08.883Z</time></trkpt><trkpt lat="42.220785" lon="14.5688667"><ele>20.333333333333332</ele><time>2026-04-25T07:59:09.882Z</time></trkpt><trkpt lat="42.220825" lon="14.5687767"><ele>18.5</ele><time>2026-04-25T07:59:10.882Z</time></trkpt><trkpt lat="42.22087" lon="14.5686883"><ele>16.666666666666664</ele><time>2026-04-25T07:59:11.882Z</time></trkpt><trkpt lat="42.2209083" lon="14.5685983"><ele>14.833333333333332</ele><time>2026-04-25T07:59:12.882Z</time></trkpt><trkpt lat="42.2209467" lon="14.5685117"><ele>13.0</ele><time>2026-04-25T07:59:13.882Z</time></trkpt><trkpt lat="42.2209867" lon="14.5684233"><ele>13.0</ele><time>2026-04-25T07:59:14.883Z</time></trkpt><trkpt lat="42.221025" lon="14.5683333"><ele>13.0</ele><time>2026-04-25T07:59:15.883Z</time></trkpt><trkpt lat="42.22106" lon="14.56825"><ele>13.0</ele><time>2026-04-25T07:59:16.883Z</time></trkpt><trkpt lat="42.2210983" lon="14.56816"><ele>13.0</ele><time>2026-04-25T07:59:17.883Z</time></trkpt><trkpt lat="42.2211333" lon="14.5680767"><ele>13.0</ele><time>2026-04-25T07:59:18.883Z</time></trkpt><trkpt lat="42.2211683" lon="14.5679933"><ele>13.0</ele><time>2026-04-25T07:59:19.882Z</time></trkpt><trkpt lat="42.2212033" lon="14.5679083"><ele>13.0</ele><time>2026-04-25T07:59:20.883Z</time></trkpt><trkpt lat="42.2212367" lon="14.567825"><ele>13.428571428571427</ele><time>2026-04-25T07:59:21.883Z</time></trkpt><trkpt lat="42.2212733" lon="14.5677467"><ele>13.857142857142858</ele><time>2026-04-25T07:59:22.883Z</time></trkpt><trkpt lat="42.22131" lon="14.56766"><ele>14.285714285714285</ele><time>2026-04-25T07:59:23.882Z</time></trkpt><trkpt lat="42.2213483" lon="14.5675733"><ele>14.714285714285714</ele><time>2026-04-25T07:59:24.883Z</time></trkpt><trkpt lat="42.221385" lon="14.5674917"><ele>15.142857142857142</ele><time>2026-04-25T07:59:25.883Z</time></trkpt><trkpt lat="42.221425" lon="14.56741"><ele>15.571428571428571</ele><time>2026-04-25T07:59:26.883Z</time></trkpt><trkpt lat="42.221465" lon="14.56733"><ele>16.0</ele><time>2026-04-25T07:59:27.882Z</time></trkpt><trkpt lat="42.2214983" lon="14.56725"><ele>14.666666666666666</ele><time>2026-04-25T07:59:28.883Z</time></trkpt><trkpt lat="42.2215317" lon="14.567175"><ele>13.333333333333332</ele><time>2026-04-25T07:59:29.883Z</time></trkpt><trkpt lat="42.2215967" lon="14.5670333"><ele>12.0</ele><time>2026-04-25T07:59:31.883Z</time></trkpt><trkpt lat="42.2216317" lon="14.5669583"><ele>10.666666666666666</ele><time>2026-04-25T07:59:32.882Z</time></trkpt><trkpt lat="42.2216967" lon="14.566815"><ele>9.333333333333332</ele><time>2026-04-25T07:59:34.883Z</time></trkpt><trkpt lat="42.2217317" lon="14.5667367"><ele>8.0</ele><time>2026-04-25T07:59:35.883Z</time></trkpt><trkpt lat="42.2217717" lon="14.5666567"><ele>7.999999999999999</ele><time>2026-04-25T07:59:36.882Z</time></trkpt><trkpt lat="42.2218033" lon="14.566575"><ele>8.0</ele><time>2026-04-25T07:59:37.882Z</time></trkpt><trkpt lat="42.22184" lon="14.5664933"><ele>8.0</ele><time>2026-04-25T07:59:38.882Z</time></trkpt><trkpt lat="42.2218733" lon="14.5664117"><ele>8.0</ele><time>2026-04-25T07:59:39.883Z</time></trkpt><trkpt lat="42.2219033" lon="14.566335"><ele>7.999999999999999</ele><time>2026-04-25T07:59:40.883Z</time></trkpt><trkpt lat="42.221965" lon="14.56619"><ele>8.0</ele><time>2026-04-25T07:59:42.883Z</time></trkpt><trkpt lat="42.2220183" lon="14.56605"><ele>10.8</ele><time>2026-04-25T07:59:44.883Z</time></trkpt><trkpt lat="42.2220883" lon="14.5659"><ele>13.600000000000001</ele><time>2026-04-25T07:59:46.883Z</time></trkpt><trkpt lat="42.222155" lon="14.5657533"><ele>16.400000000000002</ele><time>2026-04-25T07:59:48.883Z</time></trkpt><trkpt lat="42.22219" lon="14.5656817"><ele>19.200000000000003</ele><time>2026-04-25T07:59:49.883Z</time></trkpt><trkpt lat="42.222225" lon="14.5656033"><ele>22.0</ele><time>2026-04-25T07:59:50.883Z</time></trkpt><trkpt lat="42.2222617" lon="14.5655267"><ele>22.0</ele><time>2026-04-25T07:59:51.883Z</time></trkpt><trkpt lat="42.2222967" lon="14.5654517"><ele>22.0</ele><time>2026-04-25T07:59:52.883Z</time></trkpt><trkpt lat="42.2223317" lon="14.56538"><ele>22.0</ele><time>2026-04-25T07:59:53.883Z</time></trkpt><trkpt lat="42.2223617" lon="14.5652933"><ele>22.0</ele><time>2026-04-25T07:59:54.883Z</time></trkpt><trkpt lat="42.2224217" lon="14.565145"><ele>22.0</ele><time>2026-04-25T07:59:56.883Z</time></trkpt><trkpt lat="42.2225017" lon="14.565005"><ele>21.333333333333332</ele><time>2026-04-25T07:59:58.882Z</time></trkpt><trkpt lat="42.2225383" lon="14.5649333"><ele>20.666666666666664</ele><time>2026-04-25T07:59:59.883Z</time></trkpt><trkpt lat="42.22257" lon="14.564855"><ele>20.0</ele><time>2026-04-25T08:00:00.883Z</time></trkpt><trkpt lat="42.22263" lon="14.5647017"><ele>19.333333333333332</ele><time>2026-04-25T08:00:02.883Z</time></trkpt><trkpt lat="42.22266" lon="14.5646233"><ele>18.666666666666668</ele><time>2026-04-25T08:00:03.883Z</time></trkpt><trkpt lat="42.2226933" lon="14.564545"><ele>18.0</ele><time>2026-04-25T08:00:04.883Z</time></trkpt><trkpt lat="42.2227267" lon="14.5644683"><ele>18.0</ele><time>2026-04-25T08:00:05.883Z</time></trkpt><trkpt lat="42.22276" lon="14.564395"><ele>18.0</ele><time>2026-04-25T08:00:06.883Z</time></trkpt><trkpt lat="42.2227967" lon="14.56432"><ele>18.0</ele><time>2026-04-25T08:00:07.883Z</time></trkpt><trkpt lat="42.22286" lon="14.5641733"><ele>18.0</ele><time>2026-04-25T08:00:09.883Z</time></trkpt><trkpt lat="42.2229217" lon="14.5640233"><ele>18.0</ele><time>2026-04-25T08:00:11.883Z</time></trkpt><trkpt lat="42.2229567" lon="14.5639467"><ele>18.0</ele><time>2026-04-25T08:00:12.883Z</time></trkpt><trkpt lat="42.2229933" lon="14.56387"><ele>18.0</ele><time>2026-04-25T08:00:13.882Z</time></trkpt><trkpt lat="42.2230217" lon="14.56379"><ele>18.0</ele><time>2026-04-25T08:00:14.883Z</time></trkpt><trkpt lat="42.22306" lon="14.5637083"><ele>18.0</ele><time>2026-04-25T08:00:15.882Z</time></trkpt><trkpt lat="42.2231283" lon="14.5635567"><ele>18.0</ele><time>2026-04-25T08:00:17.883Z</time></trkpt><trkpt lat="42.2231617" lon="14.5634833"><ele>18.0</ele><time>2026-04-25T08:00:18.883Z</time></trkpt><trkpt lat="42.2231967" lon="14.5634117"><ele>16.714285714285715</ele><time>2026-04-25T08:00:19.883Z</time></trkpt><trkpt lat="42.22323" lon="14.5633317"><ele>15.428571428571429</ele><time>2026-04-25T08:00:20.882Z</time></trkpt><trkpt lat="42.2232583" lon="14.5632517"><ele>14.142857142857144</ele><time>2026-04-25T08:00:21.882Z</time></trkpt><trkpt lat="42.2232967" lon="14.5631817"><ele>12.857142857142858</ele><time>2026-04-25T08:00:22.883Z</time></trkpt><trkpt lat="42.2233333" lon="14.5631067"><ele>11.571428571428573</ele><time>2026-04-25T08:00:23.883Z</time></trkpt><trkpt lat="42.2233667" lon="14.56303"><ele>10.285714285714286</ele><time>2026-04-25T08:00:24.882Z</time></trkpt><trkpt lat="42.2234033" lon="14.5629567"><ele>9.0</ele><time>2026-04-25T08:00:25.883Z</time></trkpt><trkpt lat="42.2234367" lon="14.5628767"><ele>10.142857142857144</ele><time>2026-04-25T08:00:26.883Z</time></trkpt><trkpt lat="42.2234733" lon="14.5628017"><ele>11.285714285714285</ele><time>2026-04-25T08:00:27.883Z</time></trkpt><trkpt lat="42.2235067" lon="14.5627267"><ele>12.428571428571427</ele><time>2026-04-25T08:00:28.882Z</time></trkpt><trkpt lat="42.2235383" lon="14.56265"><ele>13.571428571428571</ele><time>2026-04-25T08:00:29.883Z</time></trkpt><trkpt lat="42.223575" lon="14.562575"><ele>14.714285714285714</ele><time>2026-04-25T08:00:30.883Z</time></trkpt><trkpt lat="42.2236133" lon="14.5624917"><ele>15.857142857142856</ele><time>2026-04-25T08:00:31.882Z</time></trkpt><trkpt lat="42.2236483" lon="14.562415"><ele>17.0</ele><time>2026-04-25T08:00:32.882Z</time></trkpt><trkpt lat="42.22368" lon="14.56233"><ele>16.999999999999996</ele><time>2026-04-25T08:00:33.883Z</time></trkpt><trkpt lat="42.2237183" lon="14.5622517"><ele>17.0</ele><time>2026-04-25T08:00:34.882Z</time></trkpt><trkpt lat="42.2237517" lon="14.5621733"><ele>17.0</ele><time>2026-04-25T08:00:35.882Z</time></trkpt><trkpt lat="42.2237817" lon="14.5620967"><ele>17.0</ele><time>2026-04-25T08:00:36.883Z</time></trkpt><trkpt lat="42.2238183" lon="14.5620217"><ele>17.0</ele><time>2026-04-25T08:00:37.883Z</time></trkpt><trkpt lat="42.2238583" lon="14.5619517"><ele>16.999999999999996</ele><time>2026-04-25T08:00:38.883Z</time></trkpt><trkpt lat="42.2238917" lon="14.5618767"><ele>17.0</ele><time>2026-04-25T08:00:39.882Z</time></trkpt><trkpt lat="42.223925" lon="14.5617983"><ele>17.833333333333336</ele><time>2026-04-25T08:00:40.882Z</time></trkpt><trkpt lat="42.2239583" lon="14.56172"><ele>18.666666666666668</ele><time>2026-04-25T08:00:41.882Z</time></trkpt><trkpt lat="42.2239933" lon="14.5616433"><ele>19.5</ele><time>2026-04-25T08:00:42.883Z</time></trkpt><trkpt lat="42.224025" lon="14.5615617"><ele>20.333333333333332</ele><time>2026-04-25T08:00:43.882Z</time></trkpt><trkpt lat="42.2240617" lon="14.5614817"><ele>21.166666666666664</ele><time>2026-04-25T08:00:44.882Z</time></trkpt><trkpt lat="42.2240967" lon="14.5614083"><ele>22.0</ele><time>2026-04-25T08:00:45.882Z</time></trkpt><trkpt lat="42.2241617" lon="14.5612667"><ele>20.6</ele><time>2026-04-25T08:00:47.882Z</time></trkpt><trkpt lat="42.2242017" lon="14.5611917"><ele>19.200000000000003</ele><time>2026-04-25T08:00:48.883Z</time></trkpt><trkpt lat="42.22424" lon="14.5611167"><ele>17.8</ele><time>2026-04-25T08:00:49.882Z</time></trkpt><trkpt lat="42.2243067" lon="14.56098"><ele>16.4</ele><time>2026-04-25T08:00:51.883Z</time></trkpt><trkpt lat="42.2243833" lon="14.560865"><ele>15.0</ele><time>2026-04-25T08:00:53.883Z</time></trkpt><trkpt lat="42.2244717" lon="14.5607983"><ele>15.0</ele><time>2026-04-25T08:00:55.883Z</time></trkpt><trkpt lat="42.2245933" lon="14.5607483"><ele>15.0</ele><time>2026-04-25T08:00:57.883Z</time></trkpt><trkpt lat="42.224675" lon="14.560625"><ele>15.0</ele><time>2026-04-25T08:00:59.882Z</time></trkpt><trkpt lat="42.2247333" lon="14.5604783"><ele>15.0</ele><time>2026-04-25T08:01:01.882Z</time></trkpt><trkpt lat="42.2247633" lon="14.5603917"><ele>15.0</ele><time>2026-04-25T08:01:02.883Z</time></trkpt><trkpt lat="42.2247983" lon="14.560305"><ele>13.333333333333334</ele><time>2026-04-25T08:01:03.883Z</time></trkpt><trkpt lat="42.224835" lon="14.5602183"><ele>11.666666666666666</ele><time>2026-04-25T08:01:04.883Z</time></trkpt><trkpt lat="42.2248733" lon="14.5601367"><ele>10.0</ele><time>2026-04-25T08:01:05.883Z</time></trkpt><trkpt lat="42.2249117" lon="14.5600633"><ele>8.333333333333334</ele><time>2026-04-25T08:01:06.883Z</time></trkpt><trkpt lat="42.224975" lon="14.559905"><ele>6.666666666666667</ele><time>2026-04-25T08:01:08.883Z</time></trkpt><trkpt lat="42.2250033" lon="14.5598233"><ele>5.0</ele><time>2026-04-25T08:01:09.882Z</time></trkpt><trkpt lat="42.2250633" lon="14.5596717"><ele>5.0</ele><time>2026-04-25T08:01:11.883Z</time></trkpt><trkpt lat="42.22509" lon="14.559585"><ele>5.0</ele><time>2026-04-25T08:01:12.883Z</time></trkpt><trkpt lat="42.2251133" lon="14.5595"><ele>5.0</ele><time>2026-04-25T08:01:13.883Z</time></trkpt><trkpt lat="42.2251667" lon="14.55935"><ele>5.0</ele><time>2026-04-25T08:01:15.883Z</time></trkpt><trkpt lat="42.2251967" lon="14.559275"><ele>5.0</ele><time>2026-04-25T08:01:16.882Z</time></trkpt><trkpt lat="42.2252367" lon="14.5591317"><ele>5.0</ele><time>2026-04-25T08:01:18.883Z</time></trkpt><trkpt lat="42.225295" lon="14.5589917"><ele>5.8</ele><time>2026-04-25T08:01:20.883Z</time></trkpt><trkpt lat="42.2253667" lon="14.5588483"><ele>6.6</ele><time>2026-04-25T08:01:22.883Z</time></trkpt><trkpt lat="42.225405" lon="14.5587767"><ele>7.4</ele><time>2026-04-25T08:01:23.883Z</time></trkpt><trkpt lat="42.22544" lon="14.5586967"><ele>8.2</ele><time>2026-04-25T08:01:24.883Z</time></trkpt><trkpt lat="42.2254983" lon="14.558545"><ele>9.0</ele><time>2026-04-25T08:01:26.882Z</time></trkpt><trkpt lat="42.225555" lon="14.5584033"><ele>9.0</ele><time>2026-04-25T08:01:28.882Z</time></trkpt><trkpt lat="42.2256067" lon="14.5582583"><ele>9.0</ele><time>2026-04-25T08:01:30.882Z</time></trkpt><trkpt lat="42.2256633" lon="14.5581117"><ele>9.0</ele><time>2026-04-25T08:01:32.882Z</time></trkpt><trkpt lat="42.2257183" lon="14.5579633"><ele>9.0</ele><time>2026-04-25T08:01:34.883Z</time></trkpt><trkpt lat="42.2257767" lon="14.55781"><ele>9.0</ele><time>2026-04-25T08:01:36.882Z</time></trkpt><trkpt lat="42.2258067" lon="14.55773"><ele>9.0</ele><time>2026-04-25T08:01:37.883Z</time></trkpt><trkpt lat="42.225835" lon="14.5576517"><ele>9.0</ele><time>2026-04-25T08:01:38.882Z</time></trkpt><trkpt lat="42.2258817" lon="14.5575017"><ele>9.0</ele><time>2026-04-25T08:01:40.882Z</time></trkpt><trkpt lat="42.2259383" lon="14.55735"><ele>9.0</ele><time>2026-04-25T08:01:42.882Z</time></trkpt><trkpt lat="42.2259983" lon="14.5572083"><ele>9.0</ele><time>2026-04-25T08:01:44.883Z</time></trkpt><trkpt lat="42.2260283" lon="14.5571317"><ele>9.0</ele><time>2026-04-25T08:01:45.883Z</time></trkpt><trkpt lat="42.226075" lon="14.5569883"><ele>9.0</ele><time>2026-04-25T08:01:47.883Z</time></trkpt><trkpt lat="42.22613" lon="14.5568517"><ele>9.0</ele><time>2026-04-25T08:01:49.883Z</time></trkpt><trkpt lat="42.2261983" lon="14.5567017"><ele>9.0</ele><time>2026-04-25T08:01:51.883Z</time></trkpt><trkpt lat="42.2262567" lon="14.556565"><ele>8.25</ele><time>2026-04-25T08:01:53.882Z</time></trkpt><trkpt lat="42.226315" lon="14.5564167"><ele>7.5</ele><time>2026-04-25T08:01:55.883Z</time></trkpt><trkpt lat="42.2263733" lon="14.5562767"><ele>6.75</ele><time>2026-04-25T08:01:57.882Z</time></trkpt><trkpt lat="42.226435" lon="14.5561333"><ele>6.0</ele><time>2026-04-25T08:01:59.883Z</time></trkpt><trkpt lat="42.2265067" lon="14.55599"><ele>6.0</ele><time>2026-04-25T08:02:01.883Z</time></trkpt><trkpt lat="42.2265633" lon="14.5558517"><ele>6.0</ele><time>2026-04-25T08:02:03.882Z</time></trkpt><trkpt lat="42.2266133" lon="14.55573"><ele>6.0</ele><time>2026-04-25T08:02:05.883Z</time></trkpt><trkpt lat="42.226665" lon="14.5556167"><ele>6.0</ele><time>2026-04-25T08:02:07.883Z</time></trkpt><trkpt lat="42.2267283" lon="14.5555033"><ele>6.0</ele><time>2026-04-25T08:02:09.883Z</time></trkpt><trkpt lat="42.2267983" lon="14.5553717"><ele>7.166666666666666</ele><time>2026-04-25T08:02:11.883Z</time></trkpt><trkpt lat="42.2268767" lon="14.5552317"><ele>8.333333333333332</ele><time>2026-04-25T08:02:13.882Z</time></trkpt><trkpt lat="42.2269183" lon="14.555155"><ele>9.5</ele><time>2026-04-25T08:02:14.883Z</time></trkpt><trkpt lat="42.226955" lon="14.5550833"><ele>10.666666666666666</ele><time>2026-04-25T08:02:15.882Z</time></trkpt><trkpt lat="42.2269917" lon="14.5549983"><ele>11.833333333333332</ele><time>2026-04-25T08:02:16.883Z</time></trkpt><trkpt lat="42.2270267" lon="14.5549267"><ele>13.0</ele><time>2026-04-25T08:02:17.882Z</time></trkpt><trkpt lat="42.2270983" lon="14.55479"><ele>13.0</ele><time>2026-04-25T08:02:19.883Z</time></trkpt><trkpt lat="42.2271667" lon="14.554665"><ele>13.0</ele><time>2026-04-25T08:02:21.883Z</time></trkpt><trkpt lat="42.2272383" lon="14.5545533"><ele>13.0</ele><time>2026-04-25T08:02:23.883Z</time></trkpt><trkpt lat="42.2273133" lon="14.55443"><ele>13.0</ele><time>2026-04-25T08:02:25.882Z</time></trkpt><trkpt lat="42.2273933" lon="14.55431"><ele>11.0</ele><time>2026-04-25T08:02:27.883Z</time></trkpt><trkpt lat="42.2274783" lon="14.5541967"><ele>9.0</ele><time>2026-04-25T08:02:29.883Z</time></trkpt><trkpt lat="42.2275583" lon="14.5540783"><ele>7.0</ele><time>2026-04-25T08:02:31.882Z</time></trkpt><trkpt lat="42.2276417" lon="14.5539683"><ele>5.0</ele><time>2026-04-25T08:02:33.883Z</time></trkpt><trkpt lat="42.2277233" lon="14.5538517"><ele>5.0</ele><time>2026-04-25T08:02:35.882Z</time></trkpt><trkpt lat="42.2278033" lon="14.553725"><ele>5.0</ele><time>2026-04-25T08:02:37.883Z</time></trkpt><trkpt lat="42.227845" lon="14.5536533"><ele>5.0</ele><time>2026-04-25T08:02:38.882Z</time></trkpt><trkpt lat="42.2278883" lon="14.5535883"><ele>5.0</ele><time>2026-04-25T08:02:39.883Z</time></trkpt><trkpt lat="42.22796" lon="14.5534617"><ele>5.0</ele><time>2026-04-25T08:02:41.883Z</time></trkpt><trkpt lat="42.228025" lon="14.55335"><ele>4.6</ele><time>2026-04-25T08:02:43.882Z</time></trkpt><trkpt lat="42.2281067" lon="14.5532217"><ele>4.2</ele><time>2026-04-25T08:02:45.883Z</time></trkpt><trkpt lat="42.2281867" lon="14.5531033"><ele>3.8</ele><time>2026-04-25T08:02:47.883Z</time></trkpt><trkpt lat="42.2282283" lon="14.5530367"><ele>3.4</ele><time>2026-04-25T08:02:48.883Z</time></trkpt><trkpt lat="42.2283" lon="14.5529033"><ele>3.0</ele><time>2026-04-25T08:02:50.882Z</time></trkpt><trkpt lat="42.2283433" lon="14.552835"><ele>3.0</ele><time>2026-04-25T08:02:51.883Z</time></trkpt><trkpt lat="42.2284167" lon="14.5527233"><ele>3.0</ele><time>2026-04-25T08:02:53.883Z</time></trkpt><trkpt lat="42.2284783" lon="14.552595"><ele>3.0</ele><time>2026-04-25T08:02:55.883Z</time></trkpt><trkpt lat="42.2285167" lon="14.5525217"><ele>3.0</ele><time>2026-04-25T08:02:56.882Z</time></trkpt><trkpt lat="42.228555" lon="14.5524467"><ele>3.0</ele><time>2026-04-25T08:02:57.882Z</time></trkpt><trkpt lat="42.2285983" lon="14.552375"><ele>3.0</ele><time>2026-04-25T08:02:58.883Z</time></trkpt><trkpt lat="42.22864" lon="14.55231"><ele>3.0</ele><time>2026-04-25T08:02:59.883Z</time></trkpt><trkpt lat="42.22868" lon="14.5522417"><ele>3.0</ele><time>2026-04-25T08:03:00.882Z</time></trkpt><trkpt lat="42.2287567" lon="14.5521217"><ele>3.0</ele><time>2026-04-25T08:03:02.883Z</time></trkpt><trkpt lat="42.2288333" lon="14.5519833"><ele>3.0</ele><time>2026-04-25T08:03:04.883Z</time></trkpt><trkpt lat="42.228905" lon="14.5518633"><ele>3.0</ele><time>2026-04-25T08:03:06.883Z</time></trkpt><trkpt lat="42.2289767" lon="14.5517367"><ele>2.25</ele><time>2026-04-25T08:03:08.882Z</time></trkpt><trkpt lat="42.2290517" lon="14.551615"><ele>1.5</ele><time>2026-04-25T08:03:10.882Z</time></trkpt><trkpt lat="42.2291267" lon="14.5514867"><ele>0.75</ele><time>2026-04-25T08:03:12.883Z</time></trkpt><trkpt lat="42.2291983" lon="14.5513583"><ele>0.0</ele><time>2026-04-25T08:03:14.882Z</time></trkpt><trkpt lat="42.229275" lon="14.551235"><ele>1.0</ele><time>2026-04-25T08:03:16.882Z</time></trkpt><trkpt lat="42.2293483" lon="14.5511067"><ele>2.0</ele><time>2026-04-25T08:03:18.883Z</time></trkpt><trkpt lat="42.22942" lon="14.5509767"><ele>3.0</ele><time>2026-04-25T08:03:20.883Z</time></trkpt><trkpt lat="42.2294917" lon="14.5508467"><ele>4.0</ele><time>2026-04-25T08:03:22.882Z</time></trkpt><trkpt lat="42.2295283" lon="14.5507767"><ele>5.0</ele><time>2026-04-25T08:03:23.882Z</time></trkpt><trkpt lat="42.22959" lon="14.5506267"><ele>5.0</ele><time>2026-04-25T08:03:25.882Z</time></trkpt><trkpt lat="42.2296367" lon="14.5504767"><ele>5.0</ele><time>2026-04-25T08:03:27.883Z</time></trkpt><trkpt lat="42.229695" lon="14.5503417"><ele>5.0</ele><time>2026-04-25T08:03:29.883Z</time></trkpt><trkpt lat="42.2297667" lon="14.5502083"><ele>5.0</ele><time>2026-04-25T08:03:31.882Z</time></trkpt><trkpt lat="42.2298483" lon="14.550075"><ele>3.75</ele><time>2026-04-25T08:03:33.883Z</time></trkpt><trkpt lat="42.2299217" lon="14.549945"><ele>2.5</ele><time>2026-04-25T08:03:35.882Z</time></trkpt><trkpt lat="42.22999" lon="14.5498233"><ele>1.25</ele><time>2026-04-25T08:03:37.883Z</time></trkpt><trkpt lat="42.2300667" lon="14.5497"><ele>0.0</ele><time>2026-04-25T08:03:39.883Z</time></trkpt><trkpt lat="42.2301383" lon="14.5495817"><ele>1.0</ele><time>2026-04-25T08:03:41.883Z</time></trkpt><trkpt lat="42.2302183" lon="14.5494583"><ele>2.0</ele><time>2026-04-25T08:03:43.883Z</time></trkpt><trkpt lat="42.2302933" lon="14.5493333"><ele>3.0</ele><time>2026-04-25T08:03:45.882Z</time></trkpt><trkpt lat="42.2303617" lon="14.5492067"><ele>4.0</ele><time>2026-04-25T08:03:47.883Z</time></trkpt><trkpt lat="42.2304133" lon="14.5490817"><ele>4.0</ele><time>2026-04-25T08:03:49.883Z</time></trkpt><trkpt lat="42.23048" lon="14.54898"><ele>4.0</ele><time>2026-04-25T08:03:51.882Z</time></trkpt><trkpt lat="42.2305533" lon="14.5488633"><ele>4.0</ele><time>2026-04-25T08:03:53.883Z</time></trkpt><trkpt lat="42.2305933" lon="14.5487967"><ele>4.0</ele><time>2026-04-25T08:03:54.883Z</time></trkpt><trkpt lat="42.23067" lon="14.54867"><ele>4.0</ele><time>2026-04-25T08:03:56.882Z</time></trkpt><trkpt lat="42.23071" lon="14.5486033"><ele>3.833333333333333</ele><time>2026-04-25T08:03:57.883Z</time></trkpt><trkpt lat="42.2307517" lon="14.5485333"><ele>3.6666666666666665</ele><time>2026-04-25T08:03:58.883Z</time></trkpt><trkpt lat="42.2307917" lon="14.5484617"><ele>3.5</ele><time>2026-04-25T08:03:59.883Z</time></trkpt><trkpt lat="42.23087" lon="14.5483283"><ele>3.333333333333333</ele><time>2026-04-25T08:04:01.882Z</time></trkpt><trkpt lat="42.2309083" lon="14.5482583"><ele>3.1666666666666665</ele><time>2026-04-25T08:04:02.882Z</time></trkpt><trkpt lat="42.2309817" lon="14.5481317"><ele>3.0</ele><time>2026-04-25T08:04:04.882Z</time></trkpt><trkpt lat="42.2310533" lon="14.548015"><ele>3.0</ele><time>2026-04-25T08:04:06.882Z</time></trkpt><trkpt lat="42.23113" lon="14.5478833"><ele>3.0</ele><time>2026-04-25T08:04:08.882Z</time></trkpt><trkpt lat="42.23117" lon="14.54781"><ele>3.0</ele><time>2026-04-25T08:04:09.882Z</time></trkpt><trkpt lat="42.2312133" lon="14.5477333"><ele>3.0</ele><time>2026-04-25T08:04:10.883Z</time></trkpt><trkpt lat="42.2312533" lon="14.54766"><ele>3.0</ele><time>2026-04-25T08:04:11.882Z</time></trkpt><trkpt lat="42.2312967" lon="14.5475867"><ele>3.0</ele><time>2026-04-25T08:04:12.882Z</time></trkpt><trkpt lat="42.2313417" lon="14.5475167"><ele>2.8</ele><time>2026-04-25T08:04:13.882Z</time></trkpt><trkpt lat="42.23138" lon="14.547445"><ele>2.5999999999999996</ele><time>2026-04-25T08:04:14.883Z</time></trkpt><trkpt lat="42.2314183" lon="14.5473733"><ele>2.4000000000000004</ele><time>2026-04-25T08:04:15.882Z</time></trkpt><trkpt lat="42.2314917" lon="14.54725"><ele>2.2</ele><time>2026-04-25T08:04:17.882Z</time></trkpt><trkpt lat="42.2315517" lon="14.5471333"><ele>2.0</ele><time>2026-04-25T08:04:19.883Z</time></trkpt><trkpt lat="42.2316283" lon="14.54701"><ele>2.0</ele><time>2026-04-25T08:04:21.883Z</time></trkpt><trkpt lat="42.2317" lon="14.5468867"><ele>2.0</ele><time>2026-04-25T08:04:23.882Z</time></trkpt><trkpt lat="42.2317767" lon="14.5467533"><ele>2.0</ele><time>2026-04-25T08:04:25.883Z</time></trkpt><trkpt lat="42.2318583" lon="14.5466233"><ele>2.0</ele><time>2026-04-25T08:04:27.883Z</time></trkpt><trkpt lat="42.2318967" lon="14.5465517"><ele>2.0</ele><time>2026-04-25T08:04:28.883Z</time></trkpt><trkpt lat="42.2319367" lon="14.5464833"><ele>2.0</ele><time>2026-04-25T08:04:29.883Z</time></trkpt><trkpt lat="42.2320167" lon="14.5463467"><ele>2.0</ele><time>2026-04-25T08:04:31.883Z</time></trkpt><trkpt lat="42.2320567" lon="14.5462783"><ele>2.0</ele><time>2026-04-25T08:04:32.882Z</time></trkpt><trkpt lat="42.2321283" lon="14.5461483"><ele>2.0</ele><time>2026-04-25T08:04:34.883Z</time></trkpt><trkpt lat="42.2321967" lon="14.5460333"><ele>2.0</ele><time>2026-04-25T08:04:36.883Z</time></trkpt><trkpt lat="42.2322383" lon="14.5459683"><ele>2.0</ele><time>2026-04-25T08:04:37.883Z</time></trkpt><trkpt lat="42.232315" lon="14.5458383"><ele>2.0</ele><time>2026-04-25T08:04:39.883Z</time></trkpt><trkpt lat="42.2323817" lon="14.5457083"><ele>2.0</ele><time>2026-04-25T08:04:41.883Z</time></trkpt><trkpt lat="42.2324633" lon="14.5455767"><ele>2.0</ele><time>2026-04-25T08:04:43.883Z</time></trkpt><trkpt lat="42.2325367" lon="14.5454467"><ele>2.75</ele><time>2026-04-25T08:04:45.882Z</time></trkpt><trkpt lat="42.232605" lon="14.5453117"><ele>3.5</ele><time>2026-04-25T08:04:47.883Z</time></trkpt><trkpt lat="42.2326833" lon="14.5451867"><ele>4.25</ele><time>2026-04-25T08:04:49.883Z</time></trkpt><trkpt lat="42.2327567" lon="14.5450833"><ele>5.0</ele><time>2026-04-25T08:04:51.882Z</time></trkpt><trkpt lat="42.2328317" lon="14.5449717"><ele>5.0</ele><time>2026-04-25T08:04:53.883Z</time></trkpt><trkpt lat="42.2329" lon="14.544845"><ele>5.0</ele><time>2026-04-25T08:04:55.883Z</time></trkpt><trkpt lat="42.2329667" lon="14.5447233"><ele>5.0</ele><time>2026-04-25T08:04:57.883Z</time></trkpt><trkpt lat="42.2330283" lon="14.544605"><ele>5.0</ele><time>2026-04-25T08:04:59.882Z</time></trkpt><trkpt lat="42.2330967" lon="14.544455"><ele>4.8</ele><time>2026-04-25T08:05:01.883Z</time></trkpt><trkpt lat="42.2331333" lon="14.544375"><ele>4.6</ele><time>2026-04-25T08:05:02.883Z</time></trkpt><trkpt lat="42.2331667" lon="14.5443017"><ele>4.4</ele><time>2026-04-25T08:05:03.882Z</time></trkpt><trkpt lat="42.2332267" lon="14.5441567"><ele>4.2</ele><time>2026-04-25T08:05:05.883Z</time></trkpt><trkpt lat="42.233275" lon="14.544035"><ele>4.0</ele><time>2026-04-25T08:05:07.883Z</time></trkpt><trkpt lat="42.233335" lon="14.5439067"><ele>4.0</ele><time>2026-04-25T08:05:09.882Z</time></trkpt><trkpt lat="42.2333967" lon="14.5437783"><ele>4.0</ele><time>2026-04-25T08:05:11.883Z</time></trkpt><trkpt lat="42.2334467" lon="14.54366"><ele>4.0</ele><time>2026-04-25T08:05:13.882Z</time></trkpt><trkpt lat="42.2334983" lon="14.5435517"><ele>4.0</ele><time>2026-04-25T08:05:15.883Z</time></trkpt><trkpt lat="42.2335383" lon="14.5434567"><ele>4.0</ele><time>2026-04-25T08:05:17.882Z</time></trkpt><trkpt lat="42.2335717" lon="14.54337"><ele>5.166666666666666</ele><time>2026-04-25T08:05:19.883Z</time></trkpt><trkpt lat="42.2335867" lon="14.5432833"><ele>6.333333333333333</ele><time>2026-04-25T08:05:21.883Z</time></trkpt><trkpt lat="42.2336167" lon="14.5432"><ele>7.5</ele><time>2026-04-25T08:05:23.883Z</time></trkpt><trkpt lat="42.233675" lon="14.5431233"><ele>8.666666666666666</ele><time>2026-04-25T08:05:25.882Z</time></trkpt><trkpt lat="42.2337417" lon="14.5430133"><ele>9.833333333333332</ele><time>2026-04-25T08:05:27.883Z</time></trkpt><trkpt lat="42.2338067" lon="14.542895"><ele>11.0</ele><time>2026-04-25T08:05:29.883Z</time></trkpt><trkpt lat="42.2338583" lon="14.5427717"><ele>9.4</ele><time>2026-04-25T08:05:31.883Z</time></trkpt><trkpt lat="42.23392" lon="14.5426517"><ele>7.800000000000001</ele><time>2026-04-25T08:05:33.883Z</time></trkpt><trkpt lat="42.2339733" lon="14.5425383"><ele>6.2</ele><time>2026-04-25T08:05:35.883Z</time></trkpt><trkpt lat="42.2340217" lon="14.5424233"><ele>4.6</ele><time>2026-04-25T08:05:37.882Z</time></trkpt><trkpt lat="42.2340883" lon="14.5423133"><ele>3.0</ele><time>2026-04-25T08:05:39.883Z</time></trkpt><trkpt lat="42.2341467" lon="14.5422067"><ele>3.0</ele><time>2026-04-25T08:05:41.883Z</time></trkpt><trkpt lat="42.2341967" lon="14.5420917"><ele>3.0</ele><time>2026-04-25T08:05:43.883Z</time></trkpt><trkpt lat="42.23425" lon="14.5419733"><ele>3.0</ele><time>2026-04-25T08:05:45.883Z</time></trkpt><trkpt lat="42.2343017" lon="14.5418567"><ele>3.0</ele><time>2026-04-25T08:05:47.883Z</time></trkpt><trkpt lat="42.23436" lon="14.5417433"><ele>3.0</ele><time>2026-04-25T08:05:49.882Z</time></trkpt><trkpt lat="42.2344083" lon="14.54162"><ele>3.25</ele><time>2026-04-25T08:05:51.883Z</time></trkpt><trkpt lat="42.2344633" lon="14.54149"><ele>3.5</ele><time>2026-04-25T08:05:53.883Z</time></trkpt><trkpt lat="42.2345217" lon="14.5413433"><ele>3.75</ele><time>2026-04-25T08:05:55.882Z</time></trkpt><trkpt lat="42.2345783" lon="14.5412067"><ele>4.0</ele><time>2026-04-25T08:05:57.882Z</time></trkpt><trkpt lat="42.234635" lon="14.5410633"><ele>4.0</ele><time>2026-04-25T08:05:59.883Z</time></trkpt><trkpt lat="42.2346967" lon="14.54093"><ele>4.0</ele><time>2026-04-25T08:06:01.883Z</time></trkpt><trkpt lat="42.23475" lon="14.540795"><ele>4.0</ele><time>2026-04-25T08:06:03.883Z</time></trkpt><trkpt lat="42.234805" lon="14.5406717"><ele>4.0</ele><time>2026-04-25T08:06:05.883Z</time></trkpt><trkpt lat="42.2348583" lon="14.5405517"><ele>4.0</ele><time>2026-04-25T08:06:07.883Z</time></trkpt><trkpt lat="42.2349233" lon="14.5404117"><ele>4.2</ele><time>2026-04-25T08:06:09.883Z</time></trkpt><trkpt lat="42.234985" lon="14.5403"><ele>4.4</ele><time>2026-04-25T08:06:11.883Z</time></trkpt><trkpt lat="42.2350383" lon="14.540175"><ele>4.6</ele><time>2026-04-25T08:06:13.883Z</time></trkpt><trkpt lat="42.2351" lon="14.540045"><ele>4.8</ele><time>2026-04-25T08:06:15.883Z</time></trkpt><trkpt lat="42.2351583" lon="14.5399167"><ele>5.0</ele><time>2026-04-25T08:06:17.882Z</time></trkpt><trkpt lat="42.2352083" lon="14.5397867"><ele>5.0</ele><time>2026-04-25T08:06:19.883Z</time></trkpt><trkpt lat="42.2352667" lon="14.539655"><ele>5.0</ele><time>2026-04-25T08:06:21.883Z</time></trkpt><trkpt lat="42.2353317" lon="14.539525"><ele>5.0</ele><time>2026-04-25T08:06:23.883Z</time></trkpt><trkpt lat="42.2353933" lon="14.5393917"><ele>5.0</ele><time>2026-04-25T08:06:25.882Z</time></trkpt><trkpt lat="42.2354517" lon="14.539265"><ele>5.5</ele><time>2026-04-25T08:06:27.883Z</time></trkpt><trkpt lat="42.23551" lon="14.5391333"><ele>6.0</ele><time>2026-04-25T08:06:29.882Z</time></trkpt><trkpt lat="42.2355717" lon="14.5390067"><ele>6.5</ele><time>2026-04-25T08:06:31.883Z</time></trkpt><trkpt lat="42.2356317" lon="14.5388783"><ele>7.0</ele><time>2026-04-25T08:06:33.882Z</time></trkpt><trkpt lat="42.2356883" lon="14.538745"><ele>6.6</ele><time>2026-04-25T08:06:35.882Z</time></trkpt><trkpt lat="42.23574" lon="14.538625"><ele>6.199999999999999</ele><time>2026-04-25T08:06:37.883Z</time></trkpt><trkpt lat="42.2357883" lon="14.5385083"><ele>5.8</ele><time>2026-04-25T08:06:39.883Z</time></trkpt><trkpt lat="42.235845" lon="14.538385"><ele>5.4</ele><time>2026-04-25T08:06:41.882Z</time></trkpt><trkpt lat="42.2359133" lon="14.5382533"><ele>5.0</ele><time>2026-04-25T08:06:43.883Z</time></trkpt><trkpt lat="42.235975" lon="14.5381217"><ele>5.0</ele><time>2026-04-25T08:06:45.882Z</time></trkpt><trkpt lat="42.2360467" lon="14.5379867"><ele>5.0</ele><time>2026-04-25T08:06:47.883Z</time></trkpt><trkpt lat="42.2361033" lon="14.537855"><ele>5.0</ele><time>2026-04-25T08:06:49.883Z</time></trkpt><trkpt lat="42.2361583" lon="14.53772"><ele>5.0</ele><time>2026-04-25T08:06:51.882Z</time></trkpt><trkpt lat="42.2362267" lon="14.537595"><ele>5.0</ele><time>2026-04-25T08:06:53.883Z</time></trkpt><trkpt lat="42.2362983" lon="14.5374767"><ele>5.0</ele><time>2026-04-25T08:06:55.883Z</time></trkpt><trkpt lat="42.23636" lon="14.537355"><ele>5.0</ele><time>2026-04-25T08:06:57.883Z</time></trkpt><trkpt lat="42.236415" lon="14.5372317"><ele>5.0</ele><time>2026-04-25T08:06:59.883Z</time></trkpt><trkpt lat="42.2364633" lon="14.5370967"><ele>5.0</ele><time>2026-04-25T08:07:01.883Z</time></trkpt><trkpt lat="42.2365133" lon="14.536955"><ele>4.25</ele><time>2026-04-25T08:07:03.882Z</time></trkpt><trkpt lat="42.236565" lon="14.536815"><ele>3.5</ele><time>2026-04-25T08:07:05.883Z</time></trkpt><trkpt lat="42.23662" lon="14.5366667"><ele>2.75</ele><time>2026-04-25T08:07:07.883Z</time></trkpt><trkpt lat="42.23668" lon="14.5365217"><ele>2.0</ele><time>2026-04-25T08:07:09.883Z</time></trkpt><trkpt lat="42.236735" lon="14.5363783"><ele>2.0</ele><time>2026-04-25T08:07:11.882Z</time></trkpt><trkpt lat="42.2367883" lon="14.5362467"><ele>2.0</ele><time>2026-04-25T08:07:13.883Z</time></trkpt><trkpt lat="42.23684" lon="14.5361167"><ele>2.0</ele><time>2026-04-25T08:07:15.883Z</time></trkpt><trkpt lat="42.2368917" lon="14.5359883"><ele>2.0</ele><time>2026-04-25T08:07:17.883Z</time></trkpt><trkpt lat="42.23694" lon="14.535855"><ele>2.0</ele><time>2026-04-25T08:07:19.883Z</time></trkpt><trkpt lat="42.2369817" lon="14.5357233"><ele>2.142857142857143</ele><time>2026-04-25T08:07:21.883Z</time></trkpt><trkpt lat="42.237025" lon="14.53563"><ele>2.2857142857142856</ele><time>2026-04-25T08:07:23.882Z</time></trkpt><trkpt lat="42.2370717" lon="14.5355617"><ele>2.4285714285714284</ele><time>2026-04-25T08:07:25.882Z</time></trkpt><trkpt lat="42.2371317" lon="14.5355233"><ele>2.571428571428571</ele><time>2026-04-25T08:07:28.883Z</time></trkpt><trkpt lat="42.23719" lon="14.535465"><ele>2.7142857142857144</ele><time>2026-04-25T08:07:32.883Z</time></trkpt><trkpt lat="42.2371317" lon="14.5354067"><ele>2.8571428571428568</ele><time>2026-04-25T08:07:35.882Z</time></trkpt><trkpt lat="42.2370817" lon="14.535465"><ele>3.0</ele><time>2026-04-25T08:07:37.883Z</time></trkpt><trkpt lat="42.2370383" lon="14.5355517"><ele>3.0</ele><time>2026-04-25T08:07:39.882Z</time></trkpt><trkpt lat="42.23699" lon="14.53565"><ele>3.0</ele><time>2026-04-25T08:07:41.883Z</time></trkpt><trkpt lat="42.2369383" lon="14.5357483"><ele>3.0</ele><time>2026-04-25T08:07:43.883Z</time></trkpt><trkpt lat="42.2368917" lon="14.5358633"><ele>3.0</ele><time>2026-04-25T08:07:45.883Z</time></trkpt><trkpt lat="42.2368467" lon="14.5359917"><ele>3.0</ele><time>2026-04-25T08:07:47.882Z</time></trkpt><trkpt lat="42.2367917" lon="14.536135"><ele>2.75</ele><time>2026-04-25T08:07:49.883Z</time></trkpt><trkpt lat="42.23674" lon="14.5362717"><ele>2.5</ele><time>2026-04-25T08:07:51.883Z</time></trkpt><trkpt lat="42.236685" lon="14.536405"><ele>2.25</ele><time>2026-04-25T08:07:53.883Z</time></trkpt><trkpt lat="42.23663" lon="14.5365367"><ele>2.0</ele><time>2026-04-25T08:07:55.883Z</time></trkpt><trkpt lat="42.236575" lon="14.5366683"><ele>2.0</ele><time>2026-04-25T08:07:57.883Z</time></trkpt><trkpt lat="42.2365217" lon="14.536785"><ele>2.0</ele><time>2026-04-25T08:07:59.882Z</time></trkpt><trkpt lat="42.23647" lon="14.5369083"><ele>2.0</ele><time>2026-04-25T08:08:01.882Z</time></trkpt><trkpt lat="42.23642" lon="14.5370233"><ele>2.0</ele><time>2026-04-25T08:08:03.882Z</time></trkpt><trkpt lat="42.2363633" lon="14.5371583"><ele>2.0</ele><time>2026-04-25T08:08:05.881Z</time></trkpt><trkpt lat="42.23631" lon="14.5372817"><ele>2.6</ele><time>2026-04-25T08:08:07.882Z</time></trkpt><trkpt lat="42.2362583" lon="14.5374033"><ele>3.2</ele><time>2026-04-25T08:08:09.882Z</time></trkpt><trkpt lat="42.2362283" lon="14.5374833"><ele>3.8</ele><time>2026-04-25T08:08:10.881Z</time></trkpt><trkpt lat="42.2361667" lon="14.53762"><ele>4.4</ele><time>2026-04-25T08:08:12.882Z</time></trkpt><trkpt lat="42.2361067" lon="14.537755"><ele>5.0</ele><time>2026-04-25T08:08:14.881Z</time></trkpt><trkpt lat="42.23605" lon="14.5378767"><ele>5.0</ele><time>2026-04-25T08:08:16.881Z</time></trkpt><trkpt lat="42.2359917" lon="14.5380067"><ele>5.0</ele><time>2026-04-25T08:08:18.882Z</time></trkpt><trkpt lat="42.2359217" lon="14.5381383"><ele>5.0</ele><time>2026-04-25T08:08:20.882Z</time></trkpt><trkpt lat="42.235855" lon="14.5382767"><ele>5.0</ele><time>2026-04-25T08:08:22.881Z</time></trkpt><trkpt lat="42.23579" lon="14.5384083"><ele>5.0</ele><time>2026-04-25T08:08:24.882Z</time></trkpt><trkpt lat="42.2357333" lon="14.5385517"><ele>5.0</ele><time>2026-04-25T08:08:26.882Z</time></trkpt><trkpt lat="42.2357017" lon="14.5386267"><ele>5.0</ele><time>2026-04-25T08:08:27.881Z</time></trkpt><trkpt lat="42.23567" lon="14.5387017"><ele>5.0</ele><time>2026-04-25T08:08:28.882Z</time></trkpt><trkpt lat="42.2356333" lon="14.538775"><ele>5.0</ele><time>2026-04-25T08:08:29.882Z</time></trkpt><trkpt lat="42.2355683" lon="14.53891"><ele>5.0</ele><time>2026-04-25T08:08:31.881Z</time></trkpt><trkpt lat="42.23551" lon="14.5390417"><ele>5.0</ele><time>2026-04-25T08:08:33.882Z</time></trkpt><trkpt lat="42.2354533" lon="14.5391783"><ele>5.0</ele><time>2026-04-25T08:08:35.882Z</time></trkpt><trkpt lat="42.2353967" lon="14.5393033"><ele>5.0</ele><time>2026-04-25T08:08:37.882Z</time></trkpt><trkpt lat="42.2353333" lon="14.5394367"><ele>5.0</ele><time>2026-04-25T08:08:39.882Z</time></trkpt><trkpt lat="42.2352783" lon="14.5395667"><ele>5.0</ele><time>2026-04-25T08:08:41.882Z</time></trkpt><trkpt lat="42.2352167" lon="14.5397033"><ele>5.0</ele><time>2026-04-25T08:08:43.881Z</time></trkpt><trkpt lat="42.235155" lon="14.5398217"><ele>5.0</ele><time>2026-04-25T08:08:45.882Z</time></trkpt><trkpt lat="42.2351033" lon="14.53995"><ele>5.0</ele><time>2026-04-25T08:08:47.882Z</time></trkpt><trkpt lat="42.2350417" lon="14.5400767"><ele>5.0</ele><time>2026-04-25T08:08:49.882Z</time></trkpt><trkpt lat="42.23498" lon="14.5402133"><ele>5.0</ele><time>2026-04-25T08:08:51.881Z</time></trkpt><trkpt lat="42.23492" lon="14.54035"><ele>5.0</ele><time>2026-04-25T08:08:53.881Z</time></trkpt><trkpt lat="42.23486" lon="14.5404833"><ele>5.0</ele><time>2026-04-25T08:08:55.882Z</time></trkpt><trkpt lat="42.234795" lon="14.5406083"><ele>5.0</ele><time>2026-04-25T08:08:57.882Z</time></trkpt><trkpt lat="42.2347333" lon="14.5407383"><ele>4.8</ele><time>2026-04-25T08:08:59.882Z</time></trkpt><trkpt lat="42.234675" lon="14.5408717"><ele>4.6</ele><time>2026-04-25T08:09:01.881Z</time></trkpt><trkpt lat="42.2346183" lon="14.54099"><ele>4.4</ele><time>2026-04-25T08:09:03.882Z</time></trkpt><trkpt lat="42.234565" lon="14.5411133"><ele>4.2</ele><time>2026-04-25T08:09:05.881Z</time></trkpt><trkpt lat="42.2344983" lon="14.5412467"><ele>4.0</ele><time>2026-04-25T08:09:07.882Z</time></trkpt><trkpt lat="42.234435" lon="14.5413783"><ele>4.0</ele><time>2026-04-25T08:09:09.882Z</time></trkpt><trkpt lat="42.234375" lon="14.5415117"><ele>4.0</ele><time>2026-04-25T08:09:11.882Z</time></trkpt><trkpt lat="42.2343183" lon="14.5416433"><ele>4.0</ele><time>2026-04-25T08:09:13.881Z</time></trkpt><trkpt lat="42.2342617" lon="14.54177"><ele>4.0</ele><time>2026-04-25T08:09:15.882Z</time></trkpt><trkpt lat="42.234205" lon="14.5418983"><ele>4.0</ele><time>2026-04-25T08:09:17.881Z</time></trkpt><trkpt lat="42.2341467" lon="14.542015"><ele>3.75</ele><time>2026-04-25T08:09:19.882Z</time></trkpt><trkpt lat="42.2340867" lon="14.5421417"><ele>3.5</ele><time>2026-04-25T08:09:21.882Z</time></trkpt><trkpt lat="42.2340167" lon="14.5422683"><ele>3.25</ele><time>2026-04-25T08:09:23.882Z</time></trkpt><trkpt lat="42.2339517" lon="14.5423883"><ele>3.0</ele><time>2026-04-25T08:09:25.882Z</time></trkpt><trkpt lat="42.2338983" lon="14.5425233"><ele>4.6</ele><time>2026-04-25T08:09:27.881Z</time></trkpt><trkpt lat="42.2338683" lon="14.5425983"><ele>6.2</ele><time>2026-04-25T08:09:28.881Z</time></trkpt><trkpt lat="42.23381" lon="14.5427433"><ele>7.800000000000001</ele><time>2026-04-25T08:09:30.881Z</time></trkpt><trkpt lat="42.233775" lon="14.542815"><ele>9.4</ele><time>2026-04-25T08:09:31.881Z</time></trkpt><trkpt lat="42.2336933" lon="14.5429367"><ele>11.0</ele><time>2026-04-25T08:09:33.882Z</time></trkpt><trkpt lat="42.2336117" lon="14.5430367"><ele>11.0</ele><time>2026-04-25T08:09:35.882Z</time></trkpt><trkpt lat="42.233545" lon="14.5431117"><ele>11.0</ele><time>2026-04-25T08:09:37.881Z</time></trkpt><trkpt lat="42.233505" lon="14.5432533"><ele>11.0</ele><time>2026-04-25T08:09:39.882Z</time></trkpt><trkpt lat="42.23348" lon="14.5433983"><ele>11.0</ele><time>2026-04-25T08:09:41.881Z</time></trkpt><trkpt lat="42.2334533" lon="14.5434767"><ele>11.0</ele><time>2026-04-25T08:09:42.882Z</time></trkpt><trkpt lat="42.2334217" lon="14.5435533"><ele>11.0</ele><time>2026-04-25T08:09:43.882Z</time></trkpt><trkpt lat="42.23339" lon="14.54364"><ele>9.833333333333332</ele><time>2026-04-25T08:09:44.882Z</time></trkpt><trkpt lat="42.2333583" lon="14.5437167"><ele>8.666666666666666</ele><time>2026-04-25T08:09:45.882Z</time></trkpt><trkpt lat="42.23332" lon="14.5437933"><ele>7.5</ele><time>2026-04-25T08:09:46.882Z</time></trkpt><trkpt lat="42.2332883" lon="14.5438683"><ele>6.333333333333333</ele><time>2026-04-25T08:09:47.882Z</time></trkpt><trkpt lat="42.2332233" lon="14.5440133"><ele>5.166666666666666</ele><time>2026-04-25T08:09:49.882Z</time></trkpt><trkpt lat="42.233195" lon="14.5440917"><ele>4.0</ele><time>2026-04-25T08:09:50.882Z</time></trkpt><trkpt lat="42.2331583" lon="14.5441633"><ele>4.2</ele><time>2026-04-25T08:09:51.882Z</time></trkpt><trkpt lat="42.233125" lon="14.5442367"><ele>4.4</ele><time>2026-04-25T08:09:52.882Z</time></trkpt><trkpt lat="42.2330633" lon="14.5443767"><ele>4.6</ele><time>2026-04-25T08:09:54.882Z</time></trkpt><trkpt lat="42.2329983" lon="14.5445133"><ele>4.8</ele><time>2026-04-25T08:09:56.882Z</time></trkpt><trkpt lat="42.2329317" lon="14.5446517"><ele>5.0</ele><time>2026-04-25T08:09:58.881Z</time></trkpt><trkpt lat="42.2328617" lon="14.5447717"><ele>5.0</ele><time>2026-04-25T08:10:00.882Z</time></trkpt><trkpt lat="42.2327833" lon="14.5448917"><ele>5.0</ele><time>2026-04-25T08:10:02.881Z</time></trkpt><trkpt lat="42.2327133" lon="14.5450117"><ele>5.0</ele><time>2026-04-25T08:10:04.881Z</time></trkpt><trkpt lat="42.2326417" lon="14.5451233"><ele>5.0</ele><time>2026-04-25T08:10:06.881Z</time></trkpt><trkpt lat="42.2325767" lon="14.5452383"><ele>5.0</ele><time>2026-04-25T08:10:08.882Z</time></trkpt><trkpt lat="42.2325" lon="14.5453717"><ele>4.5</ele><time>2026-04-25T08:10:10.881Z</time></trkpt><trkpt lat="42.2324233" lon="14.5455"><ele>4.0</ele><time>2026-04-25T08:10:12.882Z</time></trkpt><trkpt lat="42.232385" lon="14.5455733"><ele>3.5</ele><time>2026-04-25T08:10:13.882Z</time></trkpt><trkpt lat="42.2323467" lon="14.5456417"><ele>3.0</ele><time>2026-04-25T08:10:14.882Z</time></trkpt><trkpt lat="42.2323033" lon="14.54571"><ele>2.5</ele><time>2026-04-25T08:10:15.882Z</time></trkpt><trkpt lat="42.232265" lon="14.54579"><ele>2.0</ele><time>2026-04-25T08:10:16.881Z</time></trkpt><trkpt lat="42.2322283" lon="14.545865"><ele>2.0</ele><time>2026-04-25T08:10:17.882Z</time></trkpt><trkpt lat="42.2321933" lon="14.5459367"><ele>2.0</ele><time>2026-04-25T08:10:18.882Z</time></trkpt><trkpt lat="42.232125" lon="14.546065"><ele>2.0</ele><time>2026-04-25T08:10:20.881Z</time></trkpt><trkpt lat="42.2320883" lon="14.546135"><ele>2.0</ele><time>2026-04-25T08:10:21.881Z</time></trkpt><trkpt lat="42.2320267" lon="14.5462567"><ele>2.0</ele><time>2026-04-25T08:10:23.882Z</time></trkpt><trkpt lat="42.231955" lon="14.5463817"><ele>2.0</ele><time>2026-04-25T08:10:25.882Z</time></trkpt><trkpt lat="42.2319167" lon="14.5464517"><ele>2.0</ele><time>2026-04-25T08:10:26.882Z</time></trkpt><trkpt lat="42.2318433" lon="14.54657"><ele>2.0</ele><time>2026-04-25T08:10:28.882Z</time></trkpt><trkpt lat="42.231765" lon="14.5467033"><ele>2.0</ele><time>2026-04-25T08:10:30.882Z</time></trkpt><trkpt lat="42.2316883" lon="14.5468317"><ele>2.0</ele><time>2026-04-25T08:10:32.881Z</time></trkpt><trkpt lat="42.23161" lon="14.5469617"><ele>1.6</ele><time>2026-04-25T08:10:34.882Z</time></trkpt><trkpt lat="42.2315333" lon="14.5470833"><ele>1.2000000000000002</ele><time>2026-04-25T08:10:36.882Z</time></trkpt><trkpt lat="42.2314633" lon="14.5471867"><ele>0.8</ele><time>2026-04-25T08:10:38.882Z</time></trkpt><trkpt lat="42.23142" lon="14.5472517"><ele>0.4</ele><time>2026-04-25T08:10:39.882Z</time></trkpt><trkpt lat="42.231345" lon="14.5473783"><ele>0.0</ele><time>2026-04-25T08:10:41.881Z</time></trkpt><trkpt lat="42.2312667" lon="14.5475067"><ele>0.6</ele><time>2026-04-25T08:10:43.882Z</time></trkpt><trkpt lat="42.231185" lon="14.5476383"><ele>1.2</ele><time>2026-04-25T08:10:45.882Z</time></trkpt><trkpt lat="42.2311117" lon="14.547765"><ele>1.7999999999999998</ele><time>2026-04-25T08:10:47.882Z</time></trkpt><trkpt lat="42.2310367" lon="14.5478967"><ele>2.4</ele><time>2026-04-25T08:10:49.881Z</time></trkpt><trkpt lat="42.230995" lon="14.5479633"><ele>3.0</ele><time>2026-04-25T08:10:50.881Z</time></trkpt><trkpt lat="42.2309533" lon="14.5480383"><ele>3.0</ele><time>2026-04-25T08:10:51.882Z</time></trkpt><trkpt lat="42.2309083" lon="14.5481"><ele>3.0</ele><time>2026-04-25T08:10:52.882Z</time></trkpt><trkpt lat="42.2308333" lon="14.54823"><ele>3.0</ele><time>2026-04-25T08:10:54.881Z</time></trkpt><trkpt lat="42.2307933" lon="14.5482967"><ele>3.0</ele><time>2026-04-25T08:10:55.882Z</time></trkpt><trkpt lat="42.2307167" lon="14.5484333"><ele>3.0</ele><time>2026-04-25T08:10:57.882Z</time></trkpt><trkpt lat="42.230645" lon="14.5485617"><ele>3.1666666666666665</ele><time>2026-04-25T08:10:59.881Z</time></trkpt><trkpt lat="42.230605" lon="14.54863"><ele>3.333333333333333</ele><time>2026-04-25T08:11:00.882Z</time></trkpt><trkpt lat="42.230535" lon="14.5487683"><ele>3.5</ele><time>2026-04-25T08:11:02.881Z</time></trkpt><trkpt lat="42.2305" lon="14.5488467"><ele>3.6666666666666665</ele><time>2026-04-25T08:11:03.882Z</time></trkpt><trkpt lat="42.2304633" lon="14.5489233"><ele>3.833333333333333</ele><time>2026-04-25T08:11:04.882Z</time></trkpt><trkpt lat="42.2304217" lon="14.548995"><ele>4.0</ele><time>2026-04-25T08:11:05.882Z</time></trkpt><trkpt lat="42.2303783" lon="14.5490617"><ele>4.0</ele><time>2026-04-25T08:11:06.882Z</time></trkpt><trkpt lat="42.23034" lon="14.5491367"><ele>3.9999999999999996</ele><time>2026-04-25T08:11:07.882Z</time></trkpt><trkpt lat="42.2303017" lon="14.5492083"><ele>4.0</ele><time>2026-04-25T08:11:08.882Z</time></trkpt><trkpt lat="42.2302617" lon="14.5492783"><ele>4.0</ele><time>2026-04-25T08:11:09.882Z</time></trkpt><trkpt lat="42.230225" lon="14.5493517"><ele>3.9999999999999996</ele><time>2026-04-25T08:11:10.882Z</time></trkpt><trkpt lat="42.2301883" lon="14.5494233"><ele>4.0</ele><time>2026-04-25T08:11:11.881Z</time></trkpt><trkpt lat="42.23015" lon="14.549495"><ele>4.0</ele><time>2026-04-25T08:11:12.881Z</time></trkpt><trkpt lat="42.2301133" lon="14.549565"><ele>3.333333333333333</ele><time>2026-04-25T08:11:13.881Z</time></trkpt><trkpt lat="42.23007" lon="14.54963"><ele>2.6666666666666665</ele><time>2026-04-25T08:11:14.882Z</time></trkpt><trkpt lat="42.2300283" lon="14.5496967"><ele>2.0</ele><time>2026-04-25T08:11:15.881Z</time></trkpt><trkpt lat="42.2299467" lon="14.54983"><ele>1.3333333333333333</ele><time>2026-04-25T08:11:17.881Z</time></trkpt><trkpt lat="42.2299033" lon="14.5498967"><ele>0.6666666666666666</ele><time>2026-04-25T08:11:18.882Z</time></trkpt><trkpt lat="42.2298617" lon="14.5499667"><ele>0.0</ele><time>2026-04-25T08:11:19.882Z</time></trkpt><trkpt lat="42.22982" lon="14.55004"><ele>0.8333333333333334</ele><time>2026-04-25T08:11:20.882Z</time></trkpt><trkpt lat="42.2297817" lon="14.55011"><ele>1.6666666666666667</ele><time>2026-04-25T08:11:21.881Z</time></trkpt><trkpt lat="42.2297433" lon="14.5501817"><ele>2.5</ele><time>2026-04-25T08:11:22.881Z</time></trkpt><trkpt lat="42.2297017" lon="14.5502483"><ele>3.3333333333333335</ele><time>2026-04-25T08:11:23.881Z</time></trkpt><trkpt lat="42.2296617" lon="14.5503217"><ele>4.166666666666667</ele><time>2026-04-25T08:11:24.882Z</time></trkpt><trkpt lat="42.229625" lon="14.5503967"><ele>5.0</ele><time>2026-04-25T08:11:25.882Z</time></trkpt><trkpt lat="42.229565" lon="14.55055"><ele>5.0</ele><time>2026-04-25T08:11:27.882Z</time></trkpt><trkpt lat="42.2295417" lon="14.55063"><ele>5.0</ele><time>2026-04-25T08:11:28.881Z</time></trkpt><trkpt lat="42.2294783" lon="14.550775"><ele>5.0</ele><time>2026-04-25T08:11:30.882Z</time></trkpt><trkpt lat="42.22944" lon="14.5508467"><ele>5.0</ele><time>2026-04-25T08:11:31.882Z</time></trkpt><trkpt lat="42.2294017" lon="14.55092"><ele>5.0</ele><time>2026-04-25T08:11:32.882Z</time></trkpt><trkpt lat="42.22936" lon="14.5509917"><ele>5.0</ele><time>2026-04-25T08:11:33.881Z</time></trkpt><trkpt lat="42.2293217" lon="14.5510633"><ele>5.0</ele><time>2026-04-25T08:11:34.882Z</time></trkpt><trkpt lat="42.2292833" lon="14.5511333"><ele>5.0</ele><time>2026-04-25T08:11:35.882Z</time></trkpt><trkpt lat="42.2292417" lon="14.5512017"><ele>5.0</ele><time>2026-04-25T08:11:36.881Z</time></trkpt><trkpt lat="42.2292" lon="14.5512683"><ele>5.0</ele><time>2026-04-25T08:11:37.881Z</time></trkpt><trkpt lat="42.22916" lon="14.5513367"><ele>5.0</ele><time>2026-04-25T08:11:38.882Z</time></trkpt><trkpt lat="42.2291217" lon="14.5514083"><ele>5.0</ele><time>2026-04-25T08:11:39.882Z</time></trkpt><trkpt lat="42.22908" lon="14.5514783"><ele>5.0</ele><time>2026-04-25T08:11:40.882Z</time></trkpt><trkpt lat="42.2290017" lon="14.5516083"><ele>4.666666666666667</ele><time>2026-04-25T08:11:42.882Z</time></trkpt><trkpt lat="42.2289617" lon="14.551675"><ele>4.333333333333334</ele><time>2026-04-25T08:11:43.881Z</time></trkpt><trkpt lat="42.2288833" lon="14.551805"><ele>4.0</ele><time>2026-04-25T08:11:45.881Z</time></trkpt><trkpt lat="42.2288433" lon="14.5518717"><ele>3.666666666666667</ele><time>2026-04-25T08:11:46.882Z</time></trkpt><trkpt lat="42.2288017" lon="14.55194"><ele>3.3333333333333335</ele><time>2026-04-25T08:11:47.882Z</time></trkpt><trkpt lat="42.2287633" lon="14.5520167"><ele>3.0</ele><time>2026-04-25T08:11:48.882Z</time></trkpt><trkpt lat="42.2287233" lon="14.55209"><ele>3.0</ele><time>2026-04-25T08:11:49.882Z</time></trkpt><trkpt lat="42.2286833" lon="14.5521617"><ele>3.0</ele><time>2026-04-25T08:11:50.881Z</time></trkpt><trkpt lat="42.2286417" lon="14.5522317"><ele>3.0</ele><time>2026-04-25T08:11:51.882Z</time></trkpt><trkpt lat="42.2286017" lon="14.5523033"><ele>3.0</ele><time>2026-04-25T08:11:52.882Z</time></trkpt><trkpt lat="42.22856" lon="14.5523767"><ele>3.0</ele><time>2026-04-25T08:11:53.882Z</time></trkpt><trkpt lat="42.2284833" lon="14.5525083"><ele>3.0</ele><time>2026-04-25T08:11:55.882Z</time></trkpt><trkpt lat="42.2284417" lon="14.5525733"><ele>2.9999999999999996</ele><time>2026-04-25T08:11:56.882Z</time></trkpt><trkpt lat="42.2284" lon="14.55264"><ele>3.0</ele><time>2026-04-25T08:11:57.882Z</time></trkpt><trkpt lat="42.22836" lon="14.5527083"><ele>3.0</ele><time>2026-04-25T08:11:58.881Z</time></trkpt><trkpt lat="42.2283183" lon="14.552775"><ele>3.0</ele><time>2026-04-25T08:11:59.882Z</time></trkpt><trkpt lat="42.2282783" lon="14.5528433"><ele>3.0</ele><time>2026-04-25T08:12:00.882Z</time></trkpt><trkpt lat="42.2282383" lon="14.55291"><ele>2.9999999999999996</ele><time>2026-04-25T08:12:01.882Z</time></trkpt><trkpt lat="42.2281983" lon="14.5529817"><ele>3.0</ele><time>2026-04-25T08:12:02.882Z</time></trkpt><trkpt lat="42.2281583" lon="14.55305"><ele>4.5</ele><time>2026-04-25T08:12:03.882Z</time></trkpt><trkpt lat="42.22812" lon="14.5531233"><ele>6.0</ele><time>2026-04-25T08:12:04.882Z</time></trkpt><trkpt lat="42.22808" lon="14.5531967"><ele>7.5</ele><time>2026-04-25T08:12:05.881Z</time></trkpt><trkpt lat="42.2280033" lon="14.55333"><ele>9.0</ele><time>2026-04-25T08:12:07.882Z</time></trkpt><trkpt lat="42.2279617" lon="14.5534017"><ele>10.5</ele><time>2026-04-25T08:12:08.881Z</time></trkpt><trkpt lat="42.2278733" lon="14.5535167"><ele>12.0</ele><time>2026-04-25T08:12:10.881Z</time></trkpt><trkpt lat="42.2278317" lon="14.5535867"><ele>12.0</ele><time>2026-04-25T08:12:11.882Z</time></trkpt><trkpt lat="42.2277883" lon="14.5536533"><ele>12.0</ele><time>2026-04-25T08:12:12.882Z</time></trkpt><trkpt lat="42.2277067" lon="14.5537833"><ele>12.0</ele><time>2026-04-25T08:12:14.881Z</time></trkpt><trkpt lat="42.227665" lon="14.5538533"><ele>12.0</ele><time>2026-04-25T08:12:15.881Z</time></trkpt><trkpt lat="42.2275733" lon="14.553995"><ele>12.0</ele><time>2026-04-25T08:12:17.881Z</time></trkpt><trkpt lat="42.2274917" lon="14.554115"><ele>12.2</ele><time>2026-04-25T08:12:19.881Z</time></trkpt><trkpt lat="42.2274483" lon="14.55418"><ele>12.399999999999999</ele><time>2026-04-25T08:12:20.882Z</time></trkpt><trkpt lat="42.2273633" lon="14.55429"><ele>12.600000000000001</ele><time>2026-04-25T08:12:22.882Z</time></trkpt><trkpt lat="42.2272733" lon="14.5544083"><ele>12.8</ele><time>2026-04-25T08:12:24.881Z</time></trkpt><trkpt lat="42.227195" lon="14.55453"><ele>13.0</ele><time>2026-04-25T08:12:26.882Z</time></trkpt><trkpt lat="42.227125" lon="14.55465"><ele>13.0</ele><time>2026-04-25T08:12:28.882Z</time></trkpt><trkpt lat="42.227055" lon="14.5547667"><ele>13.0</ele><time>2026-04-25T08:12:30.881Z</time></trkpt><trkpt lat="42.2269917" lon="14.554885"><ele>13.0</ele><time>2026-04-25T08:12:32.881Z</time></trkpt><trkpt lat="42.2269483" lon="14.55495"><ele>13.0</ele><time>2026-04-25T08:12:33.882Z</time></trkpt><trkpt lat="42.2269" lon="14.5550683"><ele>13.0</ele><time>2026-04-25T08:12:35.881Z</time></trkpt><trkpt lat="42.2268467" lon="14.555175"><ele>12.999999999999998</ele><time>2026-04-25T08:12:37.882Z</time></trkpt><trkpt lat="42.2267883" lon="14.55528"><ele>13.0</ele><time>2026-04-25T08:12:39.881Z</time></trkpt><trkpt lat="42.226725" lon="14.555375"><ele>13.0</ele><time>2026-04-25T08:12:41.881Z</time></trkpt><trkpt lat="42.2266683" lon="14.555435"><ele>13.0</ele><time>2026-04-25T08:12:43.882Z</time></trkpt><trkpt lat="42.226605" lon="14.5554967"><ele>12.999999999999998</ele><time>2026-04-25T08:12:45.882Z</time></trkpt><trkpt lat="42.2265333" lon="14.5556017"><ele>13.0</ele><time>2026-04-25T08:12:47.882Z</time></trkpt><trkpt lat="42.226475" lon="14.5557317"><ele>13.600000000000001</ele><time>2026-04-25T08:12:49.882Z</time></trkpt><trkpt lat="42.2264383" lon="14.5558867"><ele>14.200000000000001</ele><time>2026-04-25T08:12:51.881Z</time></trkpt><trkpt lat="42.226385" lon="14.556025"><ele>14.8</ele><time>2026-04-25T08:12:53.881Z</time></trkpt><trkpt lat="42.22635" lon="14.5561167"><ele>15.4</ele><time>2026-04-25T08:12:54.882Z</time></trkpt><trkpt lat="42.2263217" lon="14.5561933"><ele>16.0</ele><time>2026-04-25T08:12:55.881Z</time></trkpt><trkpt lat="42.2262867" lon="14.5562817"><ele>15.999999999999998</ele><time>2026-04-25T08:12:56.882Z</time></trkpt><trkpt lat="42.2262583" lon="14.5563667"><ele>16.0</ele><time>2026-04-25T08:12:57.881Z</time></trkpt><trkpt lat="42.22623" lon="14.5564533"><ele>16.0</ele><time>2026-04-25T08:12:58.882Z</time></trkpt><trkpt lat="42.226205" lon="14.556535"><ele>16.0</ele><time>2026-04-25T08:12:59.881Z</time></trkpt><trkpt lat="42.2261533" lon="14.556685"><ele>15.999999999999998</ele><time>2026-04-25T08:13:01.882Z</time></trkpt><trkpt lat="42.2261217" lon="14.55676"><ele>16.0</ele><time>2026-04-25T08:13:02.882Z</time></trkpt><trkpt lat="42.226065" lon="14.5569"><ele>16.0</ele><time>2026-04-25T08:13:04.882Z</time></trkpt><trkpt lat="42.2260167" lon="14.5570233"><ele>16.0</ele><time>2026-04-25T08:13:06.881Z</time></trkpt><trkpt lat="42.2259667" lon="14.55715"><ele>16.0</ele><time>2026-04-25T08:13:08.882Z</time></trkpt><trkpt lat="42.2259083" lon="14.5572917"><ele>16.0</ele><time>2026-04-25T08:13:10.881Z</time></trkpt><trkpt lat="42.225845" lon="14.5574517"><ele>15.4</ele><time>2026-04-25T08:13:12.882Z</time></trkpt><trkpt lat="42.2257883" lon="14.5576017"><ele>14.8</ele><time>2026-04-25T08:13:14.881Z</time></trkpt><trkpt lat="42.225735" lon="14.5577583"><ele>14.200000000000001</ele><time>2026-04-25T08:13:16.881Z</time></trkpt><trkpt lat="42.225705" lon="14.5578333"><ele>13.600000000000001</ele><time>2026-04-25T08:13:17.882Z</time></trkpt><trkpt lat="42.2256533" lon="14.557975"><ele>13.0</ele><time>2026-04-25T08:13:19.882Z</time></trkpt><trkpt lat="42.2256033" lon="14.5581167"><ele>13.0</ele><time>2026-04-25T08:13:21.881Z</time></trkpt><trkpt lat="42.2255533" lon="14.558265"><ele>13.0</ele><time>2026-04-25T08:13:23.881Z</time></trkpt><trkpt lat="42.2255233" lon="14.55834"><ele>13.0</ele><time>2026-04-25T08:13:24.882Z</time></trkpt><trkpt lat="42.225465" lon="14.55849"><ele>13.0</ele><time>2026-04-25T08:13:26.882Z</time></trkpt><trkpt lat="42.2254367" lon="14.5585667"><ele>13.0</ele><time>2026-04-25T08:13:27.881Z</time></trkpt><trkpt lat="42.225385" lon="14.5587117"><ele>12.0</ele><time>2026-04-25T08:13:29.881Z</time></trkpt><trkpt lat="42.2253317" lon="14.5588567"><ele>11.0</ele><time>2026-04-25T08:13:31.882Z</time></trkpt><trkpt lat="42.2252783" lon="14.55899"><ele>10.0</ele><time>2026-04-25T08:13:33.882Z</time></trkpt><trkpt lat="42.225225" lon="14.55913"><ele>9.0</ele><time>2026-04-25T08:13:35.882Z</time></trkpt><trkpt lat="42.2251683" lon="14.559275"><ele>9.0</ele><time>2026-04-25T08:13:37.882Z</time></trkpt><trkpt lat="42.2251383" lon="14.5593533"><ele>9.0</ele><time>2026-04-25T08:13:38.881Z</time></trkpt><trkpt lat="42.2250783" lon="14.55949"><ele>9.0</ele><time>2026-04-25T08:13:40.881Z</time></trkpt><trkpt lat="42.2250217" lon="14.559635"><ele>9.0</ele><time>2026-04-25T08:13:42.882Z</time></trkpt><trkpt lat="42.2249683" lon="14.55977"><ele>9.0</ele><time>2026-04-25T08:13:44.882Z</time></trkpt><trkpt lat="42.2249133" lon="14.5599133"><ele>8.2</ele><time>2026-04-25T08:13:46.882Z</time></trkpt><trkpt lat="42.2248717" lon="14.5600433"><ele>7.4</ele><time>2026-04-25T08:13:48.882Z</time></trkpt><trkpt lat="42.2248233" lon="14.5601817"><ele>6.6</ele><time>2026-04-25T08:13:50.882Z</time></trkpt><trkpt lat="42.2247717" lon="14.5603033"><ele>5.8</ele><time>2026-04-25T08:13:52.881Z</time></trkpt><trkpt lat="42.224725" lon="14.5604217"><ele>5.0</ele><time>2026-04-25T08:13:54.881Z</time></trkpt><trkpt lat="42.2246833" lon="14.560535"><ele>6.666666666666667</ele><time>2026-04-25T08:13:56.882Z</time></trkpt><trkpt lat="42.224635" lon="14.560645"><ele>8.333333333333334</ele><time>2026-04-25T08:13:58.881Z</time></trkpt><trkpt lat="42.2245883" lon="14.5607233"><ele>10.0</ele><time>2026-04-25T08:14:00.882Z</time></trkpt><trkpt lat="42.2245017" lon="14.5607433"><ele>11.666666666666666</ele><time>2026-04-25T08:14:03.882Z</time></trkpt><trkpt lat="42.2244267" lon="14.5607733"><ele>13.333333333333334</ele><time>2026-04-25T08:14:07.882Z</time></trkpt><trkpt lat="42.2243717" lon="14.560825"><ele>15.0</ele><time>2026-04-25T08:14:10.881Z</time></trkpt><trkpt lat="42.22432" lon="14.560875"><ele>15.0</ele><time>2026-04-25T08:14:12.881Z</time></trkpt><trkpt lat="42.2242567" lon="14.5609467"><ele>15.0</ele><time>2026-04-25T08:14:14.882Z</time></trkpt><trkpt lat="42.2242067" lon="14.561055"><ele>15.0</ele><time>2026-04-25T08:14:16.882Z</time></trkpt><trkpt lat="42.2241583" lon="14.56119"><ele>15.0</ele><time>2026-04-25T08:14:18.881Z</time></trkpt><trkpt lat="42.2240983" lon="14.5613267"><ele>15.0</ele><time>2026-04-25T08:14:20.882Z</time></trkpt><trkpt lat="42.2240433" lon="14.561475"><ele>16.4</ele><time>2026-04-25T08:14:22.881Z</time></trkpt><trkpt lat="42.2240117" lon="14.56155"><ele>17.8</ele><time>2026-04-25T08:14:23.882Z</time></trkpt><trkpt lat="42.2239333" lon="14.5616917"><ele>19.200000000000003</ele><time>2026-04-25T08:14:25.881Z</time></trkpt><trkpt lat="42.2238883" lon="14.5617633"><ele>20.6</ele><time>2026-04-25T08:14:26.881Z</time></trkpt><trkpt lat="42.2238233" lon="14.5619033"><ele>22.0</ele><time>2026-04-25T08:14:28.882Z</time></trkpt><trkpt lat="42.2237917" lon="14.5619783"><ele>21.166666666666664</ele><time>2026-04-25T08:14:29.882Z</time></trkpt><trkpt lat="42.2237283" lon="14.5621233"><ele>20.333333333333332</ele><time>2026-04-25T08:14:31.881Z</time></trkpt><trkpt lat="42.223685" lon="14.5622017"><ele>19.5</ele><time>2026-04-25T08:14:32.882Z</time></trkpt><trkpt lat="42.2236467" lon="14.5622767"><ele>18.666666666666668</ele><time>2026-04-25T08:14:33.881Z</time></trkpt><trkpt lat="42.2236117" lon="14.56235"><ele>17.833333333333336</ele><time>2026-04-25T08:14:34.882Z</time></trkpt><trkpt lat="42.22357" lon="14.562425"><ele>17.0</ele><time>2026-04-25T08:14:35.882Z</time></trkpt><trkpt lat="42.2235167" lon="14.5625133"><ele>17.0</ele><time>2026-04-25T08:14:36.881Z</time></trkpt><trkpt lat="42.2234533" lon="14.56266"><ele>17.0</ele><time>2026-04-25T08:14:38.882Z</time></trkpt><trkpt lat="42.2233967" lon="14.5628083"><ele>17.0</ele><time>2026-04-25T08:14:40.882Z</time></trkpt><trkpt lat="42.223365" lon="14.5628867"><ele>17.0</ele><time>2026-04-25T08:14:41.882Z</time></trkpt><trkpt lat="42.2233317" lon="14.562965"><ele>17.0</ele><time>2026-04-25T08:14:42.882Z</time></trkpt><trkpt lat="42.2232967" lon="14.5630433"><ele>15.857142857142856</ele><time>2026-04-25T08:14:43.881Z</time></trkpt><trkpt lat="42.2232583" lon="14.563115"><ele>14.714285714285714</ele><time>2026-04-25T08:14:44.882Z</time></trkpt><trkpt lat="42.22322" lon="14.5631933"><ele>13.571428571428571</ele><time>2026-04-25T08:14:45.881Z</time></trkpt><trkpt lat="42.2231833" lon="14.5632733"><ele>12.428571428571427</ele><time>2026-04-25T08:14:46.881Z</time></trkpt><trkpt lat="42.2231433" lon="14.56335"><ele>11.285714285714285</ele><time>2026-04-25T08:14:47.882Z</time></trkpt><trkpt lat="42.223105" lon="14.5634283"><ele>10.142857142857144</ele><time>2026-04-25T08:14:48.882Z</time></trkpt><trkpt lat="42.2230633" lon="14.5635167"><ele>9.0</ele><time>2026-04-25T08:14:49.882Z</time></trkpt><trkpt lat="42.223025" lon="14.5636017"><ele>10.285714285714286</ele><time>2026-04-25T08:14:50.882Z</time></trkpt><trkpt lat="42.2229917" lon="14.563685"><ele>11.571428571428573</ele><time>2026-04-25T08:14:51.881Z</time></trkpt><trkpt lat="42.222955" lon="14.5637717"><ele>12.857142857142858</ele><time>2026-04-25T08:14:52.882Z</time></trkpt><trkpt lat="42.22292" lon="14.563855"><ele>14.142857142857144</ele><time>2026-04-25T08:14:53.882Z</time></trkpt><trkpt lat="42.2228867" lon="14.5639433"><ele>15.428571428571429</ele><time>2026-04-25T08:14:54.881Z</time></trkpt><trkpt lat="42.22285" lon="14.5640317"><ele>16.714285714285715</ele><time>2026-04-25T08:14:55.882Z</time></trkpt><trkpt lat="42.2228117" lon="14.5641217"><ele>18.0</ele><time>2026-04-25T08:14:56.881Z</time></trkpt><trkpt lat="42.2227783" lon="14.5642033"><ele>18.000000000000004</ele><time>2026-04-25T08:14:57.882Z</time></trkpt><trkpt lat="42.2227417" lon="14.5642833"><ele>18.0</ele><time>2026-04-25T08:14:58.882Z</time></trkpt><trkpt lat="42.22271" lon="14.564365"><ele>18.0</ele><time>2026-04-25T08:14:59.882Z</time></trkpt><trkpt lat="42.2226767" lon="14.564445"><ele>18.0</ele><time>2026-04-25T08:15:00.882Z</time></trkpt><trkpt lat="42.2226417" lon="14.5645267"><ele>18.0</ele><time>2026-04-25T08:15:01.882Z</time></trkpt><trkpt lat="42.2226017" lon="14.56461"><ele>18.000000000000004</ele><time>2026-04-25T08:15:02.881Z</time></trkpt><trkpt lat="42.22256" lon="14.5646967"><ele>18.0</ele><time>2026-04-25T08:15:03.881Z</time></trkpt><trkpt lat="42.22252" lon="14.5647833"><ele>17.42857142857143</ele><time>2026-04-25T08:15:04.882Z</time></trkpt><trkpt lat="42.2224833" lon="14.5648683"><ele>16.857142857142858</ele><time>2026-04-25T08:15:05.881Z</time></trkpt><trkpt lat="42.222445" lon="14.56495"><ele>16.285714285714285</ele><time>2026-04-25T08:15:06.882Z</time></trkpt><trkpt lat="42.22241" lon="14.5650333"><ele>15.714285714285715</ele><time>2026-04-25T08:15:07.881Z</time></trkpt><trkpt lat="42.222375" lon="14.5651183"><ele>15.142857142857142</ele><time>2026-04-25T08:15:08.882Z</time></trkpt><trkpt lat="42.22234" lon="14.565205"><ele>14.571428571428571</ele><time>2026-04-25T08:15:09.882Z</time></trkpt><trkpt lat="42.2223067" lon="14.5652933"><ele>14.0</ele><time>2026-04-25T08:15:10.882Z</time></trkpt><trkpt lat="42.2222683" lon="14.56538"><ele>15.142857142857142</ele><time>2026-04-25T08:15:11.882Z</time></trkpt><trkpt lat="42.222235" lon="14.56546"><ele>16.285714285714285</ele><time>2026-04-25T08:15:12.882Z</time></trkpt><trkpt lat="42.2222017" lon="14.5655383"><ele>17.42857142857143</ele><time>2026-04-25T08:15:13.882Z</time></trkpt><trkpt lat="42.222165" lon="14.5656183"><ele>18.57142857142857</ele><time>2026-04-25T08:15:14.882Z</time></trkpt><trkpt lat="42.2221267" lon="14.565705"><ele>19.714285714285715</ele><time>2026-04-25T08:15:15.882Z</time></trkpt><trkpt lat="42.22208" lon="14.5657967"><ele>20.857142857142858</ele><time>2026-04-25T08:15:16.881Z</time></trkpt><trkpt lat="42.2220433" lon="14.5658867"><ele>22.0</ele><time>2026-04-25T08:15:17.881Z</time></trkpt><trkpt lat="42.2220017" lon="14.56597"><ele>22.0</ele><time>2026-04-25T08:15:18.882Z</time></trkpt><trkpt lat="42.2219583" lon="14.5660533"><ele>22.0</ele><time>2026-04-25T08:15:19.882Z</time></trkpt><trkpt lat="42.2219167" lon="14.5661433"><ele>22.0</ele><time>2026-04-25T08:15:20.881Z</time></trkpt><trkpt lat="42.221875" lon="14.5662367"><ele>22.0</ele><time>2026-04-25T08:15:21.881Z</time></trkpt><trkpt lat="42.221835" lon="14.5663283"><ele>22.0</ele><time>2026-04-25T08:15:22.882Z</time></trkpt><trkpt lat="42.2217983" lon="14.5664183"><ele>22.0</ele><time>2026-04-25T08:15:23.882Z</time></trkpt><trkpt lat="42.2217617" lon="14.5665133"><ele>19.666666666666664</ele><time>2026-04-25T08:15:24.881Z</time></trkpt><trkpt lat="42.2217183" lon="14.5666083"><ele>17.333333333333332</ele><time>2026-04-25T08:15:25.881Z</time></trkpt><trkpt lat="42.2216817" lon="14.5666933"><ele>15.0</ele><time>2026-04-25T08:15:26.881Z</time></trkpt><trkpt lat="42.221645" lon="14.5667817"><ele>12.666666666666666</ele><time>2026-04-25T08:15:27.881Z</time></trkpt><trkpt lat="42.221605" lon="14.56687"><ele>10.333333333333332</ele><time>2026-04-25T08:15:28.882Z</time></trkpt><trkpt lat="42.2215667" lon="14.56696"><ele>8.0</ele><time>2026-04-25T08:15:29.882Z</time></trkpt><trkpt lat="42.221525" lon="14.56705"><ele>7.499999999999999</ele><time>2026-04-25T08:15:30.881Z</time></trkpt><trkpt lat="42.2214867" lon="14.56714"><ele>7.0</ele><time>2026-04-25T08:15:31.881Z</time></trkpt><trkpt lat="42.221445" lon="14.5672283"><ele>6.5</ele><time>2026-04-25T08:15:32.882Z</time></trkpt><trkpt lat="42.221405" lon="14.5673183"><ele>6.0</ele><time>2026-04-25T08:15:33.882Z</time></trkpt><trkpt lat="42.2213633" lon="14.5674133"><ele>5.5</ele><time>2026-04-25T08:15:34.881Z</time></trkpt><trkpt lat="42.2213217" lon="14.567505"><ele>5.0</ele><time>2026-04-25T08:15:35.882Z</time></trkpt><trkpt lat="42.2212833" lon="14.5675933"><ele>6.142857142857142</ele><time>2026-04-25T08:15:36.882Z</time></trkpt><trkpt lat="42.2212417" lon="14.5676817"><ele>7.2857142857142865</ele><time>2026-04-25T08:15:37.881Z</time></trkpt><trkpt lat="42.2212" lon="14.5677717"><ele>8.428571428571429</ele><time>2026-04-25T08:15:38.882Z</time></trkpt><trkpt lat="42.221165" lon="14.5678567"><ele>9.571428571428571</ele><time>2026-04-25T08:15:39.882Z</time></trkpt><trkpt lat="42.2211267" lon="14.56794"><ele>10.714285714285715</ele><time>2026-04-25T08:15:40.881Z</time></trkpt><trkpt lat="42.2210917" lon="14.568025"><ele>11.857142857142856</ele><time>2026-04-25T08:15:41.882Z</time></trkpt><trkpt lat="42.221055" lon="14.5681117"><ele>13.0</ele><time>2026-04-25T08:15:42.881Z</time></trkpt><trkpt lat="42.2210217" lon="14.5681883"><ele>13.0</ele><time>2026-04-25T08:15:43.882Z</time></trkpt><trkpt lat="42.22099" lon="14.5682633"><ele>13.0</ele><time>2026-04-25T08:15:44.882Z</time></trkpt><trkpt lat="42.2209317" lon="14.5683967"><ele>13.0</ele><time>2026-04-25T08:15:46.882Z</time></trkpt><trkpt lat="42.2208767" lon="14.5685317"><ele>13.0</ele><time>2026-04-25T08:15:48.882Z</time></trkpt><trkpt lat="42.2208183" lon="14.5686683"><ele>13.0</ele><time>2026-04-25T08:15:50.882Z</time></trkpt><trkpt lat="42.22076" lon="14.5688017"><ele>12.25</ele><time>2026-04-25T08:15:52.881Z</time></trkpt><trkpt lat="42.2207" lon="14.568935"><ele>11.5</ele><time>2026-04-25T08:15:54.882Z</time></trkpt><trkpt lat="42.220635" lon="14.5690717"><ele>10.75</ele><time>2026-04-25T08:15:56.882Z</time></trkpt><trkpt lat="42.22057" lon="14.569205"><ele>10.0</ele><time>2026-04-25T08:15:58.882Z</time></trkpt><trkpt lat="42.2205167" lon="14.569335"><ele>11.6</ele><time>2026-04-25T08:16:00.882Z</time></trkpt><trkpt lat="42.2204667" lon="14.5694733"><ele>13.2</ele><time>2026-04-25T08:16:02.882Z</time></trkpt><trkpt lat="42.2204067" lon="14.5696083"><ele>14.8</ele><time>2026-04-25T08:16:04.882Z</time></trkpt><trkpt lat="42.2203517" lon="14.5697333"><ele>16.4</ele><time>2026-04-25T08:16:06.882Z</time></trkpt><trkpt lat="42.2202917" lon="14.56985"><ele>18.0</ele><time>2026-04-25T08:16:08.881Z</time></trkpt><trkpt lat="42.2202217" lon="14.5699617"><ele>18.0</ele><time>2026-04-25T08:16:10.882Z</time></trkpt><trkpt lat="42.2201567" lon="14.5700617"><ele>18.0</ele><time>2026-04-25T08:16:12.882Z</time></trkpt><trkpt lat="42.22008" lon="14.5701617"><ele>18.0</ele><time>2026-04-25T08:16:14.882Z</time></trkpt><trkpt lat="42.2199967" lon="14.5702717"><ele>18.0</ele><time>2026-04-25T08:16:16.881Z</time></trkpt><trkpt lat="42.2199233" lon="14.5703767"><ele>18.0</ele><time>2026-04-25T08:16:18.882Z</time></trkpt><trkpt lat="42.21985" lon="14.570485"><ele>18.8</ele><time>2026-04-25T08:16:20.882Z</time></trkpt><trkpt lat="42.219785" lon="14.5705917"><ele>19.6</ele><time>2026-04-25T08:16:22.882Z</time></trkpt><trkpt lat="42.2197067" lon="14.5707017"><ele>20.400000000000002</ele><time>2026-04-25T08:16:24.882Z</time></trkpt><trkpt lat="42.219635" lon="14.5708017"><ele>21.200000000000003</ele><time>2026-04-25T08:16:26.882Z</time></trkpt><trkpt lat="42.2195633" lon="14.5708917"><ele>22.0</ele><time>2026-04-25T08:16:28.882Z</time></trkpt><trkpt lat="42.219485" lon="14.5709933"><ele>22.0</ele><time>2026-04-25T08:16:30.881Z</time></trkpt><trkpt lat="42.2194217" lon="14.571105"><ele>22.0</ele><time>2026-04-25T08:16:32.882Z</time></trkpt><trkpt lat="42.2193567" lon="14.57121"><ele>22.0</ele><time>2026-04-25T08:16:34.882Z</time></trkpt><trkpt lat="42.2192667" lon="14.5713233"><ele>22.0</ele><time>2026-04-25T08:16:36.882Z</time></trkpt><trkpt lat="42.2192183" lon="14.5713833"><ele>22.0</ele><time>2026-04-25T08:16:37.881Z</time></trkpt><trkpt lat="42.219135" lon="14.5714917"><ele>20.75</ele><time>2026-04-25T08:16:39.882Z</time></trkpt><trkpt lat="42.2190533" lon="14.5716033"><ele>19.5</ele><time>2026-04-25T08:16:41.881Z</time></trkpt><trkpt lat="42.2189783" lon="14.5717167"><ele>18.25</ele><time>2026-04-25T08:16:43.882Z</time></trkpt><trkpt lat="42.2189033" lon="14.571835"><ele>17.0</ele><time>2026-04-25T08:16:45.882Z</time></trkpt><trkpt lat="42.2188333" lon="14.57195"><ele>17.6</ele><time>2026-04-25T08:16:47.882Z</time></trkpt><trkpt lat="42.21877" lon="14.5720633"><ele>18.2</ele><time>2026-04-25T08:16:49.882Z</time></trkpt><trkpt lat="42.218715" lon="14.5721867"><ele>18.8</ele><time>2026-04-25T08:16:51.882Z</time></trkpt><trkpt lat="42.21868" lon="14.5722583"><ele>19.4</ele><time>2026-04-25T08:16:52.882Z</time></trkpt><trkpt lat="42.2186233" lon="14.572395"><ele>20.0</ele><time>2026-04-25T08:16:54.882Z</time></trkpt><trkpt lat="42.21858" lon="14.5725317"><ele>20.0</ele><time>2026-04-25T08:16:56.882Z</time></trkpt><trkpt lat="42.21853" lon="14.572665"><ele>20.0</ele><time>2026-04-25T08:16:58.882Z</time></trkpt><trkpt lat="42.2184733" lon="14.5727917"><ele>20.0</ele><time>2026-04-25T08:17:00.882Z</time></trkpt><trkpt lat="42.2184133" lon="14.572925"><ele>20.0</ele><time>2026-04-25T08:17:02.882Z</time></trkpt><trkpt lat="42.2183667" lon="14.5730567"><ele>20.0</ele><time>2026-04-25T08:17:04.881Z</time></trkpt><trkpt lat="42.2183167" lon="14.5731883"><ele>19.8</ele><time>2026-04-25T08:17:06.881Z</time></trkpt><trkpt lat="42.21827" lon="14.5733183"><ele>19.6</ele><time>2026-04-25T08:17:08.882Z</time></trkpt><trkpt lat="42.2182167" lon="14.5734633"><ele>19.4</ele><time>2026-04-25T08:17:10.882Z</time></trkpt><trkpt lat="42.2181867" lon="14.57354"><ele>19.2</ele><time>2026-04-25T08:17:11.882Z</time></trkpt><trkpt lat="42.2181283" lon="14.5736883"><ele>19.0</ele><time>2026-04-25T08:17:13.882Z</time></trkpt><trkpt lat="42.2180733" lon="14.57383"><ele>20.333333333333332</ele><time>2026-04-25T08:17:15.881Z</time></trkpt><trkpt lat="42.2180133" lon="14.5739767"><ele>21.666666666666664</ele><time>2026-04-25T08:17:17.882Z</time></trkpt><trkpt lat="42.21798" lon="14.5740533"><ele>23.0</ele><time>2026-04-25T08:17:18.882Z</time></trkpt><trkpt lat="42.217945" lon="14.5741267"><ele>24.333333333333332</ele><time>2026-04-25T08:17:19.881Z</time></trkpt><trkpt lat="42.2178667" lon="14.5742617"><ele>25.666666666666668</ele><time>2026-04-25T08:17:21.881Z</time></trkpt><trkpt lat="42.2178233" lon="14.5743283"><ele>27.0</ele><time>2026-04-25T08:17:22.882Z</time></trkpt><trkpt lat="42.2177733" lon="14.574395"><ele>27.0</ele><time>2026-04-25T08:17:23.882Z</time></trkpt><trkpt lat="42.2177233" lon="14.5744617"><ele>27.0</ele><time>2026-04-25T08:17:24.881Z</time></trkpt><trkpt lat="42.2176667" lon="14.5745283"><ele>27.0</ele><time>2026-04-25T08:17:25.882Z</time></trkpt><trkpt lat="42.21761" lon="14.5745917"><ele>27.0</ele><time>2026-04-25T08:17:26.881Z</time></trkpt><trkpt lat="42.2175567" lon="14.57465"><ele>27.0</ele><time>2026-04-25T08:17:27.881Z</time></trkpt><trkpt lat="42.2175033" lon="14.5747033"><ele>27.0</ele><time>2026-04-25T08:17:28.882Z</time></trkpt><trkpt lat="42.217415" lon="14.5748017"><ele>27.8</ele><time>2026-04-25T08:17:30.882Z</time></trkpt><trkpt lat="42.21731" lon="14.5749"><ele>28.6</ele><time>2026-04-25T08:17:32.882Z</time></trkpt><trkpt lat="42.21721" lon="14.57501"><ele>29.400000000000002</ele><time>2026-04-25T08:17:34.881Z</time></trkpt><trkpt lat="42.2171617" lon="14.5750767"><ele>30.200000000000003</ele><time>2026-04-25T08:17:35.881Z</time></trkpt><trkpt lat="42.2171217" lon="14.5751433"><ele>31.0</ele><time>2026-04-25T08:17:36.881Z</time></trkpt><trkpt lat="42.2170817" lon="14.57521"><ele>31.0</ele><time>2026-04-25T08:17:37.882Z</time></trkpt><trkpt lat="42.2170483" lon="14.5752867"><ele>31.000000000000004</ele><time>2026-04-25T08:17:38.881Z</time></trkpt><trkpt lat="42.2170167" lon="14.5753633"><ele>31.0</ele><time>2026-04-25T08:17:39.882Z</time></trkpt><trkpt lat="42.2169883" lon="14.57544"><ele>31.0</ele><time>2026-04-25T08:17:40.881Z</time></trkpt><trkpt lat="42.2169667" lon="14.5755217"><ele>31.000000000000004</ele><time>2026-04-25T08:17:41.882Z</time></trkpt><trkpt lat="42.2169483" lon="14.575605"><ele>31.0</ele><time>2026-04-25T08:17:42.882Z</time></trkpt><trkpt lat="42.2169283" lon="14.5757617"><ele>31.0</ele><time>2026-04-25T08:17:44.882Z</time></trkpt><trkpt lat="42.2169217" lon="14.5758517"><ele>30.857142857142858</ele><time>2026-04-25T08:17:45.881Z</time></trkpt><trkpt lat="42.2169167" lon="14.5759417"><ele>30.714285714285715</ele><time>2026-04-25T08:17:46.882Z</time></trkpt><trkpt lat="42.2169133" lon="14.5760333"><ele>30.571428571428573</ele><time>2026-04-25T08:17:47.881Z</time></trkpt><trkpt lat="42.2169117" lon="14.5761183"><ele>30.42857142857143</ele><time>2026-04-25T08:17:48.882Z</time></trkpt><trkpt lat="42.2169083" lon="14.576205"><ele>30.285714285714285</ele><time>2026-04-25T08:17:49.882Z</time></trkpt><trkpt lat="42.2169017" lon="14.5762933"><ele>30.142857142857146</ele><time>2026-04-25T08:17:50.882Z</time></trkpt><trkpt lat="42.2168967" lon="14.5763817"><ele>30.0</ele><time>2026-04-25T08:17:51.882Z</time></trkpt><trkpt lat="42.21689" lon="14.5764667"><ele>30.0</ele><time>2026-04-25T08:17:52.882Z</time></trkpt><trkpt lat="42.2168817" lon="14.5765567"><ele>30.0</ele><time>2026-04-25T08:17:53.882Z</time></trkpt><trkpt lat="42.216875" lon="14.5766417"><ele>30.0</ele><time>2026-04-25T08:17:54.882Z</time></trkpt><trkpt lat="42.2168633" lon="14.5767317"><ele>30.0</ele><time>2026-04-25T08:17:55.882Z</time></trkpt><trkpt lat="42.2168283" lon="14.576895"><ele>30.0</ele><time>2026-04-25T08:17:57.882Z</time></trkpt><trkpt lat="42.2167817" lon="14.577055"><ele>28.571428571428573</ele><time>2026-04-25T08:17:59.881Z</time></trkpt><trkpt lat="42.2167517" lon="14.5771383"><ele>27.142857142857142</ele><time>2026-04-25T08:18:00.881Z</time></trkpt><trkpt lat="42.216725" lon="14.5772183"><ele>25.714285714285715</ele><time>2026-04-25T08:18:01.881Z</time></trkpt><trkpt lat="42.21669" lon="14.577305"><ele>24.285714285714285</ele><time>2026-04-25T08:18:02.882Z</time></trkpt><trkpt lat="42.216645" lon="14.5773817"><ele>22.857142857142858</ele><time>2026-04-25T08:18:03.882Z</time></trkpt><trkpt lat="42.216605" lon="14.577465"><ele>21.428571428571427</ele><time>2026-04-25T08:18:04.882Z</time></trkpt><trkpt lat="42.2165617" lon="14.577535"><ele>20.0</ele><time>2026-04-25T08:18:05.881Z</time></trkpt><trkpt lat="42.21652" lon="14.5776117"><ele>20.285714285714285</ele><time>2026-04-25T08:18:06.882Z</time></trkpt><trkpt lat="42.216475" lon="14.5777017"><ele>20.571428571428573</ele><time>2026-04-25T08:18:07.882Z</time></trkpt><trkpt lat="42.2164333" lon="14.577785"><ele>20.857142857142858</ele><time>2026-04-25T08:18:08.882Z</time></trkpt><trkpt lat="42.2163917" lon="14.5778667"><ele>21.142857142857142</ele><time>2026-04-25T08:18:09.882Z</time></trkpt><trkpt lat="42.2163533" lon="14.5779467"><ele>21.428571428571427</ele><time>2026-04-25T08:18:10.882Z</time></trkpt><trkpt lat="42.2163133" lon="14.5780283"><ele>21.714285714285715</ele><time>2026-04-25T08:18:11.882Z</time></trkpt><trkpt lat="42.21627" lon="14.57811"><ele>22.0</ele><time>2026-04-25T08:18:12.882Z</time></trkpt><trkpt lat="42.21623" lon="14.5781883"><ele>22.0</ele><time>2026-04-25T08:18:13.882Z</time></trkpt><trkpt lat="42.2161883" lon="14.5782733"><ele>22.0</ele><time>2026-04-25T08:18:14.882Z</time></trkpt><trkpt lat="42.2161483" lon="14.5783633"><ele>22.0</ele><time>2026-04-25T08:18:15.882Z</time></trkpt><trkpt lat="42.2161083" lon="14.5784433"><ele>22.0</ele><time>2026-04-25T08:18:16.882Z</time></trkpt><trkpt lat="42.2160617" lon="14.5785267"><ele>22.0</ele><time>2026-04-25T08:18:17.882Z</time></trkpt><trkpt lat="42.2160183" lon="14.57861"><ele>22.0</ele><time>2026-04-25T08:18:18.882Z</time></trkpt><trkpt lat="42.2159767" lon="14.5786983"><ele>21.666666666666664</ele><time>2026-04-25T08:18:19.882Z</time></trkpt><trkpt lat="42.21593" lon="14.578775"><ele>21.333333333333332</ele><time>2026-04-25T08:18:20.881Z</time></trkpt><trkpt lat="42.2158883" lon="14.57886"><ele>21.0</ele><time>2026-04-25T08:18:21.881Z</time></trkpt><trkpt lat="42.2158467" lon="14.5789433"><ele>20.666666666666668</ele><time>2026-04-25T08:18:22.882Z</time></trkpt><trkpt lat="42.2158033" lon="14.5790333"><ele>20.333333333333336</ele><time>2026-04-25T08:18:23.882Z</time></trkpt><trkpt lat="42.21576" lon="14.57912"><ele>20.0</ele><time>2026-04-25T08:18:24.882Z</time></trkpt><trkpt lat="42.2157167" lon="14.5792133"><ele>20.0</ele><time>2026-04-25T08:18:25.882Z</time></trkpt><trkpt lat="42.21567" lon="14.5792983"><ele>20.0</ele><time>2026-04-25T08:18:26.881Z</time></trkpt><trkpt lat="42.2156267" lon="14.579385"><ele>20.0</ele><time>2026-04-25T08:18:27.881Z</time></trkpt><trkpt lat="42.21558" lon="14.5794717"><ele>20.0</ele><time>2026-04-25T08:18:28.882Z</time></trkpt><trkpt lat="42.2155367" lon="14.579555"><ele>20.0</ele><time>2026-04-25T08:18:29.881Z</time></trkpt><trkpt lat="42.21549" lon="14.57964"><ele>20.0</ele><time>2026-04-25T08:18:30.882Z</time></trkpt><trkpt lat="42.2154417" lon="14.5797267"><ele>20.5</ele><time>2026-04-25T08:18:31.882Z</time></trkpt><trkpt lat="42.2153967" lon="14.579815"><ele>21.0</ele><time>2026-04-25T08:18:32.881Z</time></trkpt><trkpt lat="42.2153567" lon="14.5799017"><ele>21.5</ele><time>2026-04-25T08:18:33.882Z</time></trkpt><trkpt lat="42.2153167" lon="14.5799817"><ele>22.0</ele><time>2026-04-25T08:18:34.881Z</time></trkpt><trkpt lat="42.2152767" lon="14.5800583"><ele>22.5</ele><time>2026-04-25T08:18:35.881Z</time></trkpt><trkpt lat="42.2152317" lon="14.580145"><ele>23.0</ele><time>2026-04-25T08:18:36.882Z</time></trkpt><trkpt lat="42.2151917" lon="14.5802367"><ele>23.0</ele><time>2026-04-25T08:18:37.881Z</time></trkpt><trkpt lat="42.215145" lon="14.5803317"><ele>23.0</ele><time>2026-04-25T08:18:38.881Z</time></trkpt><trkpt lat="42.2150967" lon="14.58042"><ele>23.0</ele><time>2026-04-25T08:18:39.882Z</time></trkpt><trkpt lat="42.2150517" lon="14.5805083"><ele>23.0</ele><time>2026-04-25T08:18:40.882Z</time></trkpt><trkpt lat="42.2150083" lon="14.5805933"><ele>23.0</ele><time>2026-04-25T08:18:41.882Z</time></trkpt><trkpt lat="42.2149683" lon="14.5806867"><ele>23.0</ele><time>2026-04-25T08:18:42.881Z</time></trkpt><trkpt lat="42.214925" lon="14.5807767"><ele>23.333333333333336</ele><time>2026-04-25T08:18:43.881Z</time></trkpt><trkpt lat="42.2148833" lon="14.580865"><ele>23.666666666666668</ele><time>2026-04-25T08:18:44.882Z</time></trkpt><trkpt lat="42.214845" lon="14.5809533"><ele>24.0</ele><time>2026-04-25T08:18:45.882Z</time></trkpt><trkpt lat="42.2148033" lon="14.5810433"><ele>24.333333333333336</ele><time>2026-04-25T08:18:46.881Z</time></trkpt><trkpt lat="42.21476" lon="14.5811283"><ele>24.666666666666668</ele><time>2026-04-25T08:18:47.882Z</time></trkpt><trkpt lat="42.2147117" lon="14.58121"><ele>25.0</ele><time>2026-04-25T08:18:48.881Z</time></trkpt><trkpt lat="42.2146617" lon="14.5812917"><ele>25.000000000000004</ele><time>2026-04-25T08:18:49.882Z</time></trkpt><trkpt lat="42.2146133" lon="14.5813683"><ele>25.0</ele><time>2026-04-25T08:18:50.881Z</time></trkpt><trkpt lat="42.2145767" lon="14.5814467"><ele>25.0</ele><time>2026-04-25T08:18:51.881Z</time></trkpt><trkpt lat="42.21454" lon="14.5815283"><ele>25.0</ele><time>2026-04-25T08:18:52.882Z</time></trkpt><trkpt lat="42.2144983" lon="14.5816017"><ele>25.0</ele><time>2026-04-25T08:18:53.882Z</time></trkpt><trkpt lat="42.21447" lon="14.5816817"><ele>25.000000000000004</ele><time>2026-04-25T08:18:54.882Z</time></trkpt><trkpt lat="42.214435" lon="14.5817583"><ele>25.0</ele><time>2026-04-25T08:18:55.881Z</time></trkpt><trkpt lat="42.2143983" lon="14.5818317"><ele>25.000000000000004</ele><time>2026-04-25T08:18:56.882Z</time></trkpt><trkpt lat="42.2143633" lon="14.58191"><ele>25.0</ele><time>2026-04-25T08:18:57.882Z</time></trkpt><trkpt lat="42.2143233" lon="14.5819867"><ele>25.0</ele><time>2026-04-25T08:18:58.881Z</time></trkpt><trkpt lat="42.2142817" lon="14.58206"><ele>25.0</ele><time>2026-04-25T08:18:59.882Z</time></trkpt><trkpt lat="42.2142433" lon="14.58213"><ele>25.000000000000004</ele><time>2026-04-25T08:19:00.882Z</time></trkpt><trkpt lat="42.21417" lon="14.5822483"><ele>25.0</ele><time>2026-04-25T08:19:02.882Z</time></trkpt><trkpt lat="42.2141117" lon="14.5823783"><ele>23.8</ele><time>2026-04-25T08:19:04.882Z</time></trkpt><trkpt lat="42.214105" lon="14.582485"><ele>22.6</ele><time>2026-04-25T08:19:06.881Z</time></trkpt><trkpt lat="42.2141933" lon="14.5824683"><ele>21.4</ele><time>2026-04-25T08:19:09.882Z</time></trkpt><trkpt lat="42.2142583" lon="14.5823717"><ele>20.2</ele><time>2026-04-25T08:19:11.881Z</time></trkpt><trkpt lat="42.214355" lon="14.58232"><ele>19.0</ele><time>2026-04-25T08:19:13.882Z</time></trkpt><trkpt lat="42.2144617" lon="14.5823417"><ele>19.0</ele><time>2026-04-25T08:19:15.882Z</time></trkpt><trkpt lat="42.2145533" lon="14.5824483"><ele>19.0</ele><time>2026-04-25T08:19:17.881Z</time></trkpt><trkpt lat="42.2146383" lon="14.582505"><ele>19.0</ele><time>2026-04-25T08:19:19.882Z</time></trkpt><trkpt lat="42.2147117" lon="14.5825367"><ele>19.0</ele><time>2026-04-25T08:19:21.881Z</time></trkpt><trkpt lat="42.2147917" lon="14.5825083"><ele>19.0</ele><time>2026-04-25T08:19:23.882Z</time></trkpt><trkpt lat="42.214855" lon="14.582475"><ele>19.0</ele><time>2026-04-25T08:19:25.881Z</time></trkpt><trkpt lat="42.2148017" lon="14.5825867"><ele>19.0</ele><time>2026-04-25T08:19:30.881Z</time></trkpt><trkpt lat="42.21474" lon="14.582685"><ele>19.0</ele><time>2026-04-25T08:19:32.882Z</time></trkpt><trkpt lat="42.2146783" lon="14.5827983"><ele>19.0</ele><time>2026-04-25T08:19:34.882Z</time></trkpt><trkpt lat="42.2146167" lon="14.5829317"><ele>19.0</ele><time>2026-04-25T08:19:36.882Z</time></trkpt><trkpt lat="42.2145483" lon="14.5830533"><ele>19.0</ele><time>2026-04-25T08:19:38.882Z</time></trkpt><trkpt lat="42.2144817" lon="14.58316"><ele>18.2</ele><time>2026-04-25T08:19:40.882Z</time></trkpt><trkpt lat="42.2144117" lon="14.58323"><ele>17.4</ele><time>2026-04-25T08:19:42.882Z</time></trkpt><trkpt lat="42.2143467" lon="14.5833067"><ele>16.6</ele><time>2026-04-25T08:19:44.882Z</time></trkpt><trkpt lat="42.214285" lon="14.58339"><ele>15.8</ele><time>2026-04-25T08:19:46.882Z</time></trkpt><trkpt lat="42.2142083" lon="14.5834833"><ele>15.0</ele><time>2026-04-25T08:19:48.882Z</time></trkpt><trkpt lat="42.214135" lon="14.5835867"><ele>16.4</ele><time>2026-04-25T08:19:50.882Z</time></trkpt><trkpt lat="42.21409" lon="14.5836817"><ele>17.8</ele><time>2026-04-25T08:19:52.882Z</time></trkpt><trkpt lat="42.214025" lon="14.5838033"><ele>19.200000000000003</ele><time>2026-04-25T08:19:54.881Z</time></trkpt><trkpt lat="42.2139583" lon="14.5839233"><ele>20.6</ele><time>2026-04-25T08:19:56.881Z</time></trkpt><trkpt lat="42.2138867" lon="14.58405"><ele>22.0</ele><time>2026-04-25T08:19:58.882Z</time></trkpt><trkpt lat="42.2138083" lon="14.584185"><ele>22.0</ele><time>2026-04-25T08:20:00.882Z</time></trkpt><trkpt lat="42.2137683" lon="14.5842767"><ele>22.0</ele><time>2026-04-25T08:20:01.881Z</time></trkpt><trkpt lat="42.2137267" lon="14.5843633"><ele>22.0</ele><time>2026-04-25T08:20:02.882Z</time></trkpt><trkpt lat="42.21368" lon="14.584445"><ele>22.0</ele><time>2026-04-25T08:20:03.882Z</time></trkpt><trkpt lat="42.213635" lon="14.584525"><ele>22.0</ele><time>2026-04-25T08:20:04.881Z</time></trkpt><trkpt lat="42.2135917" lon="14.5845983"><ele>22.0</ele><time>2026-04-25T08:20:05.882Z</time></trkpt><trkpt lat="42.2135533" lon="14.5846683"><ele>22.0</ele><time>2026-04-25T08:20:06.882Z</time></trkpt><trkpt lat="42.2134783" lon="14.5848033"><ele>19.5</ele><time>2026-04-25T08:20:08.882Z</time></trkpt><trkpt lat="42.2134" lon="14.5849283"><ele>17.0</ele><time>2026-04-25T08:20:10.882Z</time></trkpt><trkpt lat="42.2133317" lon="14.5850517"><ele>14.5</ele><time>2026-04-25T08:20:12.882Z</time></trkpt><trkpt lat="42.2132683" lon="14.5851783"><ele>12.0</ele><time>2026-04-25T08:20:14.882Z</time></trkpt><trkpt lat="42.2131967" lon="14.5853083"><ele>12.8</ele><time>2026-04-25T08:20:16.881Z</time></trkpt><trkpt lat="42.213125" lon="14.5854267"><ele>13.6</ele><time>2026-04-25T08:20:18.881Z</time></trkpt><trkpt lat="42.213065" lon="14.5855383"><ele>14.400000000000002</ele><time>2026-04-25T08:20:20.882Z</time></trkpt><trkpt lat="42.2130083" lon="14.58566"><ele>15.200000000000001</ele><time>2026-04-25T08:20:22.882Z</time></trkpt><trkpt lat="42.2129283" lon="14.5857817"><ele>16.0</ele><time>2026-04-25T08:20:24.882Z</time></trkpt><trkpt lat="42.212875" lon="14.5859217"><ele>15.999999999999998</ele><time>2026-04-25T08:20:26.881Z</time></trkpt><trkpt lat="42.2128117" lon="14.586035"><ele>16.0</ele><time>2026-04-25T08:20:28.882Z</time></trkpt><trkpt lat="42.2127467" lon="14.586175"><ele>16.0</ele><time>2026-04-25T08:20:30.882Z</time></trkpt><trkpt lat="42.21271" lon="14.5862633"><ele>16.0</ele><time>2026-04-25T08:20:31.882Z</time></trkpt><trkpt lat="42.2126717" lon="14.5863433"><ele>15.999999999999998</ele><time>2026-04-25T08:20:32.882Z</time></trkpt><trkpt lat="42.2126367" lon="14.5864183"><ele>16.0</ele><time>2026-04-25T08:20:33.882Z</time></trkpt><trkpt lat="42.2125983" lon="14.5864983"><ele>14.833333333333332</ele><time>2026-04-25T08:20:34.882Z</time></trkpt><trkpt lat="42.2125633" lon="14.5865817"><ele>13.666666666666666</ele><time>2026-04-25T08:20:35.882Z</time></trkpt><trkpt lat="42.2125267" lon="14.5866633"><ele>12.5</ele><time>2026-04-25T08:20:36.882Z</time></trkpt><trkpt lat="42.2124883" lon="14.58674"><ele>11.333333333333332</ele><time>2026-04-25T08:20:37.881Z</time></trkpt><trkpt lat="42.2124533" lon="14.5868167"><ele>10.166666666666666</ele><time>2026-04-25T08:20:38.882Z</time></trkpt><trkpt lat="42.2123883" lon="14.5869617"><ele>9.0</ele><time>2026-04-25T08:20:40.882Z</time></trkpt><trkpt lat="42.2123283" lon="14.5871017"><ele>10.833333333333334</ele><time>2026-04-25T08:20:42.882Z</time></trkpt><trkpt lat="42.21226" lon="14.5872383"><ele>12.666666666666668</ele><time>2026-04-25T08:20:44.882Z</time></trkpt><trkpt lat="42.2122233" lon="14.587315"><ele>14.5</ele><time>2026-04-25T08:20:45.882Z</time></trkpt><trkpt lat="42.21219" lon="14.5873917"><ele>16.333333333333336</ele><time>2026-04-25T08:20:46.881Z</time></trkpt><trkpt lat="42.2121483" lon="14.58747"><ele>18.166666666666668</ele><time>2026-04-25T08:20:47.882Z</time></trkpt><trkpt lat="42.21211" lon="14.5875483"><ele>20.0</ele><time>2026-04-25T08:20:48.881Z</time></trkpt><trkpt lat="42.21207" lon="14.5876183"><ele>20.0</ele><time>2026-04-25T08:20:49.882Z</time></trkpt><trkpt lat="42.2120367" lon="14.5877"><ele>20.0</ele><time>2026-04-25T08:20:50.882Z</time></trkpt><trkpt lat="42.2120033" lon="14.5877767"><ele>20.0</ele><time>2026-04-25T08:20:51.882Z</time></trkpt><trkpt lat="42.2119367" lon="14.5879133"><ele>20.0</ele><time>2026-04-25T08:20:53.882Z</time></trkpt><trkpt lat="42.2118617" lon="14.5880467"><ele>20.0</ele><time>2026-04-25T08:20:55.882Z</time></trkpt><trkpt lat="42.2117883" lon="14.5881817"><ele>19.166666666666668</ele><time>2026-04-25T08:20:57.882Z</time></trkpt><trkpt lat="42.21172" lon="14.5883183"><ele>18.333333333333336</ele><time>2026-04-25T08:20:59.882Z</time></trkpt><trkpt lat="42.2116617" lon="14.5884517"><ele>17.5</ele><time>2026-04-25T08:21:01.882Z</time></trkpt><trkpt lat="42.2116283" lon="14.5885283"><ele>16.666666666666668</ele><time>2026-04-25T08:21:02.882Z</time></trkpt><trkpt lat="42.21159" lon="14.5886033"><ele>15.833333333333334</ele><time>2026-04-25T08:21:03.882Z</time></trkpt><trkpt lat="42.2115533" lon="14.588685"><ele>15.0</ele><time>2026-04-25T08:21:04.882Z</time></trkpt><trkpt lat="42.21152" lon="14.5887683"><ele>16.285714285714285</ele><time>2026-04-25T08:21:05.882Z</time></trkpt><trkpt lat="42.211485" lon="14.5888483"><ele>17.57142857142857</ele><time>2026-04-25T08:21:06.882Z</time></trkpt><trkpt lat="42.2114517" lon="14.5889233"><ele>18.857142857142854</ele><time>2026-04-25T08:21:07.882Z</time></trkpt><trkpt lat="42.211385" lon="14.5890583"><ele>20.142857142857142</ele><time>2026-04-25T08:21:09.881Z</time></trkpt><trkpt lat="42.2113467" lon="14.58913"><ele>21.428571428571427</ele><time>2026-04-25T08:21:10.882Z</time></trkpt><trkpt lat="42.21131" lon="14.5892"><ele>22.71428571428571</ele><time>2026-04-25T08:21:11.882Z</time></trkpt><trkpt lat="42.2112767" lon="14.5892767"><ele>24.0</ele><time>2026-04-25T08:21:12.881Z</time></trkpt><trkpt lat="42.211215" lon="14.58943"><ele>22.57142857142857</ele><time>2026-04-25T08:21:14.882Z</time></trkpt><trkpt lat="42.2111867" lon="14.5895133"><ele>21.142857142857142</ele><time>2026-04-25T08:21:15.882Z</time></trkpt><trkpt lat="42.2111583" lon="14.589595"><ele>19.714285714285715</ele><time>2026-04-25T08:21:16.882Z</time></trkpt><trkpt lat="42.211125" lon="14.589675"><ele>18.285714285714285</ele><time>2026-04-25T08:21:17.882Z</time></trkpt><trkpt lat="42.211095" lon="14.5897517"><ele>16.857142857142858</ele><time>2026-04-25T08:21:18.881Z</time></trkpt><trkpt lat="42.2110667" lon="14.5898283"><ele>15.428571428571429</ele><time>2026-04-25T08:21:19.882Z</time></trkpt><trkpt lat="42.2110383" lon="14.5899133"><ele>14.0</ele><time>2026-04-25T08:21:20.882Z</time></trkpt><trkpt lat="42.2110117" lon="14.5899967"><ele>14.0</ele><time>2026-04-25T08:21:21.882Z</time></trkpt><trkpt lat="42.2109817" lon="14.5900717"><ele>13.999999999999998</ele><time>2026-04-25T08:21:22.882Z</time></trkpt><trkpt lat="42.21092" lon="14.590205"><ele>13.999999999999998</ele><time>2026-04-25T08:21:24.881Z</time></trkpt><trkpt lat="42.210855" lon="14.5903367"><ele>14.0</ele><time>2026-04-25T08:21:26.882Z</time></trkpt><trkpt lat="42.210825" lon="14.5904117"><ele>14.0</ele><time>2026-04-25T08:21:27.881Z</time></trkpt><trkpt lat="42.210755" lon="14.5905567"><ele>12.500000000000002</ele><time>2026-04-25T08:21:29.882Z</time></trkpt><trkpt lat="42.2107017" lon="14.5907183"><ele>11.0</ele><time>2026-04-25T08:21:31.881Z</time></trkpt><trkpt lat="42.2106733" lon="14.5907983"><ele>9.5</ele><time>2026-04-25T08:21:32.881Z</time></trkpt><trkpt lat="42.2106433" lon="14.5908783"><ele>8.0</ele><time>2026-04-25T08:21:33.882Z</time></trkpt><trkpt lat="42.2106167" lon="14.5909583"><ele>6.5</ele><time>2026-04-25T08:21:34.882Z</time></trkpt><trkpt lat="42.2105783" lon="14.5910417"><ele>5.0</ele><time>2026-04-25T08:21:35.881Z</time></trkpt><trkpt lat="42.2105417" lon="14.5911233"><ele>7.0</ele><time>2026-04-25T08:21:36.882Z</time></trkpt><trkpt lat="42.21051" lon="14.5912017"><ele>9.0</ele><time>2026-04-25T08:21:37.882Z</time></trkpt><trkpt lat="42.2104483" lon="14.59135"><ele>11.0</ele><time>2026-04-25T08:21:39.881Z</time></trkpt><trkpt lat="42.2103917" lon="14.5915033"><ele>13.0</ele><time>2026-04-25T08:21:41.882Z</time></trkpt><trkpt lat="42.2103583" lon="14.5915833"><ele>15.0</ele><time>2026-04-25T08:21:42.882Z</time></trkpt><trkpt lat="42.210325" lon="14.5916633"><ele>15.0</ele><time>2026-04-25T08:21:43.882Z</time></trkpt><trkpt lat="42.21029" lon="14.59174"><ele>15.0</ele><time>2026-04-25T08:21:44.882Z</time></trkpt><trkpt lat="42.2102517" lon="14.5918183"><ele>15.0</ele><time>2026-04-25T08:21:45.882Z</time></trkpt><trkpt lat="42.2102217" lon="14.591895"><ele>15.0</ele><time>2026-04-25T08:21:46.882Z</time></trkpt><trkpt lat="42.2101867" lon="14.5919717"><ele>15.0</ele><time>2026-04-25T08:21:47.882Z</time></trkpt><trkpt lat="42.21015" lon="14.5920483"><ele>15.0</ele><time>2026-04-25T08:21:48.881Z</time></trkpt><trkpt lat="42.2101117" lon="14.5921217"><ele>15.0</ele><time>2026-04-25T08:21:49.881Z</time></trkpt><trkpt lat="42.21007" lon="14.5921983"><ele>13.666666666666666</ele><time>2026-04-25T08:21:50.882Z</time></trkpt><trkpt lat="42.2100333" lon="14.5922767"><ele>12.333333333333334</ele><time>2026-04-25T08:21:51.882Z</time></trkpt><trkpt lat="42.20997" lon="14.5924217"><ele>11.0</ele><time>2026-04-25T08:21:53.881Z</time></trkpt><trkpt lat="42.2099317" lon="14.59249"><ele>9.666666666666668</ele><time>2026-04-25T08:21:54.882Z</time></trkpt><trkpt lat="42.2098933" lon="14.5925617"><ele>8.333333333333334</ele><time>2026-04-25T08:21:55.882Z</time></trkpt><trkpt lat="42.2098533" lon="14.5926317"><ele>7.0</ele><time>2026-04-25T08:21:56.882Z</time></trkpt><trkpt lat="42.20978" lon="14.592765"><ele>8.5</ele><time>2026-04-25T08:21:58.882Z</time></trkpt><trkpt lat="42.209695" lon="14.5928933"><ele>10.0</ele><time>2026-04-25T08:22:00.881Z</time></trkpt><trkpt lat="42.2096183" lon="14.5930083"><ele>11.5</ele><time>2026-04-25T08:22:02.882Z</time></trkpt><trkpt lat="42.2095433" lon="14.5931083"><ele>13.0</ele><time>2026-04-25T08:22:04.882Z</time></trkpt><trkpt lat="42.2094683" lon="14.5932117"><ele>13.0</ele><time>2026-04-25T08:22:06.881Z</time></trkpt><trkpt lat="42.2094267" lon="14.5932833"><ele>13.0</ele><time>2026-04-25T08:22:07.882Z</time></trkpt><trkpt lat="42.209385" lon="14.5933567"><ele>13.0</ele><time>2026-04-25T08:22:08.882Z</time></trkpt><trkpt lat="42.2093467" lon="14.5934283"><ele>13.0</ele><time>2026-04-25T08:22:09.881Z</time></trkpt><trkpt lat="42.2093083" lon="14.5935083"><ele>13.0</ele><time>2026-04-25T08:22:10.882Z</time></trkpt><trkpt lat="42.2092717" lon="14.5935867"><ele>13.0</ele><time>2026-04-25T08:22:11.882Z</time></trkpt><trkpt lat="42.20924" lon="14.593675"><ele>13.0</ele><time>2026-04-25T08:22:12.882Z</time></trkpt><trkpt lat="42.2092017" lon="14.59376"><ele>13.714285714285714</ele><time>2026-04-25T08:22:13.881Z</time></trkpt><trkpt lat="42.2091667" lon="14.5938433"><ele>14.42857142857143</ele><time>2026-04-25T08:22:14.882Z</time></trkpt><trkpt lat="42.209135" lon="14.5939233"><ele>15.142857142857144</ele><time>2026-04-25T08:22:15.881Z</time></trkpt><trkpt lat="42.2090933" lon="14.5940033"><ele>15.857142857142858</ele><time>2026-04-25T08:22:16.881Z</time></trkpt><trkpt lat="42.20905" lon="14.5940733"><ele>16.571428571428573</ele><time>2026-04-25T08:22:17.882Z</time></trkpt><trkpt lat="42.2090033" lon="14.5941433"><ele>17.28571428571429</ele><time>2026-04-25T08:22:18.882Z</time></trkpt><trkpt lat="42.20896" lon="14.59421"><ele>18.0</ele><time>2026-04-25T08:22:19.882Z</time></trkpt><trkpt lat="42.208915" lon="14.5942833"><ele>18.0</ele><time>2026-04-25T08:22:20.882Z</time></trkpt><trkpt lat="42.2088683" lon="14.5943483"><ele>18.0</ele><time>2026-04-25T08:22:21.882Z</time></trkpt><trkpt lat="42.2088267" lon="14.5944183"><ele>18.0</ele><time>2026-04-25T08:22:22.882Z</time></trkpt><trkpt lat="42.2087517" lon="14.5945483"><ele>18.0</ele><time>2026-04-25T08:22:24.882Z</time></trkpt><trkpt lat="42.2087117" lon="14.594615"><ele>18.0</ele><time>2026-04-25T08:22:25.882Z</time></trkpt><trkpt lat="42.2086733" lon="14.594685"><ele>18.0</ele><time>2026-04-25T08:22:26.881Z</time></trkpt><trkpt lat="42.20863" lon="14.5947533"><ele>17.2</ele><time>2026-04-25T08:22:27.882Z</time></trkpt><trkpt lat="42.2085883" lon="14.59483"><ele>16.4</ele><time>2026-04-25T08:22:28.882Z</time></trkpt><trkpt lat="42.20855" lon="14.5949"><ele>15.599999999999998</ele><time>2026-04-25T08:22:29.881Z</time></trkpt><trkpt lat="42.20851" lon="14.59497"><ele>14.799999999999999</ele><time>2026-04-25T08:22:30.882Z</time></trkpt><trkpt lat="42.20844" lon="14.5951083"><ele>14.0</ele><time>2026-04-25T08:22:32.882Z</time></trkpt><trkpt lat="42.208365" lon="14.5952517"><ele>14.799999999999999</ele><time>2026-04-25T08:22:34.881Z</time></trkpt><trkpt lat="42.208275" lon="14.595385"><ele>15.599999999999998</ele><time>2026-04-25T08:22:36.882Z</time></trkpt><trkpt lat="42.20823" lon="14.5954533"><ele>16.4</ele><time>2026-04-25T08:22:37.882Z</time></trkpt><trkpt lat="42.208185" lon="14.5955183"><ele>17.2</ele><time>2026-04-25T08:22:38.882Z</time></trkpt><trkpt lat="42.208115" lon="14.5956367"><ele>18.0</ele><time>2026-04-25T08:22:40.881Z</time></trkpt><trkpt lat="42.2080467" lon="14.5957733"><ele>18.0</ele><time>2026-04-25T08:22:42.882Z</time></trkpt><trkpt lat="42.2080167" lon="14.59585"><ele>18.0</ele><time>2026-04-25T08:22:43.882Z</time></trkpt><trkpt lat="42.2079617" lon="14.5960017"><ele>18.0</ele><time>2026-04-25T08:22:45.882Z</time></trkpt><trkpt lat="42.2079133" lon="14.5961083"><ele>18.0</ele><time>2026-04-25T08:22:47.882Z</time></trkpt><trkpt lat="42.2078533" lon="14.5962283"><ele>18.0</ele><time>2026-04-25T08:22:49.881Z</time></trkpt><trkpt lat="42.207785" lon="14.5963767"><ele>17.42857142857143</ele><time>2026-04-25T08:22:51.882Z</time></trkpt><trkpt lat="42.2077583" lon="14.5964617"><ele>16.857142857142858</ele><time>2026-04-25T08:22:52.882Z</time></trkpt><trkpt lat="42.2077267" lon="14.59654"><ele>16.285714285714285</ele><time>2026-04-25T08:22:53.882Z</time></trkpt><trkpt lat="42.2076983" lon="14.5966183"><ele>15.714285714285715</ele><time>2026-04-25T08:22:54.882Z</time></trkpt><trkpt lat="42.2076667" lon="14.5967"><ele>15.142857142857142</ele><time>2026-04-25T08:22:55.882Z</time></trkpt><trkpt lat="42.2076367" lon="14.5967833"><ele>14.571428571428571</ele><time>2026-04-25T08:22:56.882Z</time></trkpt><trkpt lat="42.2076017" lon="14.5968633"><ele>14.0</ele><time>2026-04-25T08:22:57.882Z</time></trkpt><trkpt lat="42.2075617" lon="14.5970117"><ele>15.0</ele><time>2026-04-25T08:22:59.882Z</time></trkpt><trkpt lat="42.2075017" lon="14.5971617"><ele>15.999999999999998</ele><time>2026-04-25T08:23:01.882Z</time></trkpt><trkpt lat="42.2074433" lon="14.5973017"><ele>17.0</ele><time>2026-04-25T08:23:03.881Z</time></trkpt><trkpt lat="42.207375" lon="14.5974467"><ele>18.0</ele><time>2026-04-25T08:23:05.881Z</time></trkpt><trkpt lat="42.2073383" lon="14.5975267"><ele>19.0</ele><time>2026-04-25T08:23:06.882Z</time></trkpt><trkpt lat="42.2072667" lon="14.5976667"><ele>19.0</ele><time>2026-04-25T08:23:08.881Z</time></trkpt><trkpt lat="42.207205" lon="14.5978083"><ele>19.0</ele><time>2026-04-25T08:23:10.882Z</time></trkpt><trkpt lat="42.207145" lon="14.59794"><ele>19.0</ele><time>2026-04-25T08:23:12.881Z</time></trkpt><trkpt lat="42.2070767" lon="14.5980867"><ele>19.0</ele><time>2026-04-25T08:23:14.881Z</time></trkpt><trkpt lat="42.2070083" lon="14.5982283"><ele>18.2</ele><time>2026-04-25T08:23:16.882Z</time></trkpt><trkpt lat="42.2069433" lon="14.5983683"><ele>17.4</ele><time>2026-04-25T08:23:18.881Z</time></trkpt><trkpt lat="42.20688" lon="14.5985117"><ele>16.6</ele><time>2026-04-25T08:23:20.882Z</time></trkpt><trkpt lat="42.2068183" lon="14.598645"><ele>15.8</ele><time>2026-04-25T08:23:22.881Z</time></trkpt><trkpt lat="42.2067867" lon="14.59872"><ele>15.0</ele><time>2026-04-25T08:23:23.882Z</time></trkpt><trkpt lat="42.2067283" lon="14.5988617"><ele>14.333333333333334</ele><time>2026-04-25T08:23:25.882Z</time></trkpt><trkpt lat="42.2067017" lon="14.59894"><ele>13.666666666666666</ele><time>2026-04-25T08:23:26.882Z</time></trkpt><trkpt lat="42.2066733" lon="14.599025"><ele>13.0</ele><time>2026-04-25T08:23:27.882Z</time></trkpt><trkpt lat="42.2066417" lon="14.5991033"><ele>12.333333333333332</ele><time>2026-04-25T08:23:28.882Z</time></trkpt><trkpt lat="42.2065883" lon="14.5992433"><ele>11.666666666666666</ele><time>2026-04-25T08:23:30.882Z</time></trkpt><trkpt lat="42.2065267" lon="14.5993833"><ele>11.0</ele><time>2026-04-25T08:23:32.882Z</time></trkpt><trkpt lat="42.2064683" lon="14.59952"><ele>11.0</ele><time>2026-04-25T08:23:34.882Z</time></trkpt><trkpt lat="42.20641" lon="14.59965"><ele>11.0</ele><time>2026-04-25T08:23:36.882Z</time></trkpt><trkpt lat="42.2063783" lon="14.599725"><ele>11.0</ele><time>2026-04-25T08:23:37.882Z</time></trkpt><trkpt lat="42.206315" lon="14.5998633"><ele>11.0</ele><time>2026-04-25T08:23:39.882Z</time></trkpt><trkpt lat="42.2062517" lon="14.6"><ele>11.0</ele><time>2026-04-25T08:23:41.882Z</time></trkpt><trkpt lat="42.206185" lon="14.6001367"><ele>11.0</ele><time>2026-04-25T08:23:43.881Z</time></trkpt><trkpt lat="42.20612" lon="14.6002783"><ele>11.0</ele><time>2026-04-25T08:23:45.882Z</time></trkpt><trkpt lat="42.206085" lon="14.6003533"><ele>11.0</ele><time>2026-04-25T08:23:46.882Z</time></trkpt><trkpt lat="42.2060533" lon="14.60043"><ele>11.0</ele><time>2026-04-25T08:23:47.882Z</time></trkpt><trkpt lat="42.20599" lon="14.6005667"><ele>11.0</ele><time>2026-04-25T08:23:49.882Z</time></trkpt><trkpt lat="42.2059283" lon="14.6007033"><ele>10.25</ele><time>2026-04-25T08:23:51.881Z</time></trkpt><trkpt lat="42.2058667" lon="14.6008533"><ele>9.5</ele><time>2026-04-25T08:23:53.882Z</time></trkpt><trkpt lat="42.205805" lon="14.6009917"><ele>8.75</ele><time>2026-04-25T08:23:55.881Z</time></trkpt><trkpt lat="42.2057433" lon="14.6011283"><ele>8.0</ele><time>2026-04-25T08:23:57.881Z</time></trkpt><trkpt lat="42.205685" lon="14.60127"><ele>8.600000000000001</ele><time>2026-04-25T08:23:59.882Z</time></trkpt><trkpt lat="42.2056133" lon="14.601405"><ele>9.200000000000001</ele><time>2026-04-25T08:24:01.882Z</time></trkpt><trkpt lat="42.2055783" lon="14.6014867"><ele>9.8</ele><time>2026-04-25T08:24:02.882Z</time></trkpt><trkpt lat="42.2055117" lon="14.6016233"><ele>10.4</ele><time>2026-04-25T08:24:04.882Z</time></trkpt><trkpt lat="42.2054467" lon="14.60176"><ele>11.0</ele><time>2026-04-25T08:24:06.881Z</time></trkpt><trkpt lat="42.2053917" lon="14.6018983"><ele>10.200000000000001</ele><time>2026-04-25T08:24:08.882Z</time></trkpt><trkpt lat="42.2053267" lon="14.6020367"><ele>9.4</ele><time>2026-04-25T08:24:10.881Z</time></trkpt><trkpt lat="42.2052933" lon="14.60211"><ele>8.6</ele><time>2026-04-25T08:24:11.882Z</time></trkpt><trkpt lat="42.2052567" lon="14.6021883"><ele>7.8</ele><time>2026-04-25T08:24:12.882Z</time></trkpt><trkpt lat="42.2051917" lon="14.60233"><ele>7.0</ele><time>2026-04-25T08:24:14.882Z</time></trkpt><trkpt lat="42.2051283" lon="14.6024833"><ele>7.0</ele><time>2026-04-25T08:24:16.882Z</time></trkpt><trkpt lat="42.205075" lon="14.6026267"><ele>7.0</ele><time>2026-04-25T08:24:18.882Z</time></trkpt><trkpt lat="42.2050133" lon="14.6027717"><ele>7.0</ele><time>2026-04-25T08:24:20.881Z</time></trkpt><trkpt lat="42.204955" lon="14.602915"><ele>7.0</ele><time>2026-04-25T08:24:22.882Z</time></trkpt><trkpt lat="42.2048883" lon="14.6030533"><ele>5.5</ele><time>2026-04-25T08:24:24.882Z</time></trkpt><trkpt lat="42.2048233" lon="14.6031867"><ele>4.0</ele><time>2026-04-25T08:24:26.881Z</time></trkpt><trkpt lat="42.2047667" lon="14.6033167"><ele>2.5</ele><time>2026-04-25T08:24:28.882Z</time></trkpt><trkpt lat="42.2047067" lon="14.60344"><ele>1.0</ele><time>2026-04-25T08:24:30.881Z</time></trkpt><trkpt lat="42.2046417" lon="14.6035633"><ele>0.8</ele><time>2026-04-25T08:24:32.881Z</time></trkpt><trkpt lat="42.2045733" lon="14.6037067"><ele>0.6000000000000001</ele><time>2026-04-25T08:24:34.882Z</time></trkpt><trkpt lat="42.2045067" lon="14.60385"><ele>0.4</ele><time>2026-04-25T08:24:36.882Z</time></trkpt><trkpt lat="42.2044467" lon="14.603995"><ele>0.2</ele><time>2026-04-25T08:24:38.882Z</time></trkpt><trkpt lat="42.204415" lon="14.60407"><ele>0.0</ele><time>2026-04-25T08:24:39.882Z</time></trkpt><trkpt lat="42.2043467" lon="14.6042183"><ele>0.0</ele><time>2026-04-25T08:24:41.882Z</time></trkpt><trkpt lat="42.204315" lon="14.6042933"><ele>0.0</ele><time>2026-04-25T08:24:42.882Z</time></trkpt><trkpt lat="42.2042517" lon="14.60444"><ele>0.0</ele><time>2026-04-25T08:24:44.882Z</time></trkpt><trkpt lat="42.20422" lon="14.6045167"><ele>0.0</ele><time>2026-04-25T08:24:45.881Z</time></trkpt><trkpt lat="42.2041883" lon="14.604595"><ele>0.0</ele><time>2026-04-25T08:24:46.882Z</time></trkpt><trkpt lat="42.2041317" lon="14.604735"><ele>0.0</ele><time>2026-04-25T08:24:48.882Z</time></trkpt><trkpt lat="42.20407" lon="14.6048717"><ele>0.0</ele><time>2026-04-25T08:24:50.882Z</time></trkpt><trkpt lat="42.2040033" lon="14.6050117"><ele>0.0</ele><time>2026-04-25T08:24:52.882Z</time></trkpt><trkpt lat="42.203945" lon="14.6051617"><ele>0.0</ele><time>2026-04-25T08:24:54.881Z</time></trkpt><trkpt lat="42.20388" lon="14.6053033"><ele>0.0</ele><time>2026-04-25T08:24:56.882Z</time></trkpt><trkpt lat="42.2038133" lon="14.605435"><ele>0.0</ele><time>2026-04-25T08:24:58.882Z</time></trkpt><trkpt lat="42.2037517" lon="14.6055733"><ele>0.0</ele><time>2026-04-25T08:25:00.881Z</time></trkpt><trkpt lat="42.2036917" lon="14.6057133"><ele>0.0</ele><time>2026-04-25T08:25:02.882Z</time></trkpt><trkpt lat="42.20366" lon="14.60579"><ele>0.0</ele><time>2026-04-25T08:25:03.882Z</time></trkpt><trkpt lat="42.20363" lon="14.6058667"><ele>0.0</ele><time>2026-04-25T08:25:04.882Z</time></trkpt><trkpt lat="42.20357" lon="14.606"><ele>0.0</ele><time>2026-04-25T08:25:06.881Z</time></trkpt><trkpt lat="42.2035133" lon="14.606145"><ele>0.0</ele><time>2026-04-25T08:25:08.882Z</time></trkpt><trkpt lat="42.2034483" lon="14.6062817"><ele>0.0</ele><time>2026-04-25T08:25:10.881Z</time></trkpt><trkpt lat="42.203385" lon="14.6064283"><ele>0.0</ele><time>2026-04-25T08:25:12.881Z</time></trkpt><trkpt lat="42.2033233" lon="14.6065717"><ele>0.2</ele><time>2026-04-25T08:25:14.882Z</time></trkpt><trkpt lat="42.2032583" lon="14.6067133"><ele>0.4</ele><time>2026-04-25T08:25:16.882Z</time></trkpt><trkpt lat="42.2032" lon="14.6068517"><ele>0.6000000000000001</ele><time>2026-04-25T08:25:18.881Z</time></trkpt><trkpt lat="42.2031383" lon="14.6069967"><ele>0.8</ele><time>2026-04-25T08:25:20.882Z</time></trkpt><trkpt lat="42.2031033" lon="14.60707"><ele>1.0</ele><time>2026-04-25T08:25:21.882Z</time></trkpt><trkpt lat="42.20304" lon="14.6072167"><ele>1.4</ele><time>2026-04-25T08:25:23.881Z</time></trkpt><trkpt lat="42.2029733" lon="14.6073617"><ele>1.8</ele><time>2026-04-25T08:25:25.882Z</time></trkpt><trkpt lat="42.2029117" lon="14.6075033"><ele>2.1999999999999997</ele><time>2026-04-25T08:25:27.882Z</time></trkpt><trkpt lat="42.2028783" lon="14.6075767"><ele>2.6</ele><time>2026-04-25T08:25:28.882Z</time></trkpt><trkpt lat="42.20282" lon="14.60772"><ele>3.0</ele><time>2026-04-25T08:25:30.882Z</time></trkpt><trkpt lat="42.202785" lon="14.6077967"><ele>3.2</ele><time>2026-04-25T08:25:31.882Z</time></trkpt><trkpt lat="42.20275" lon="14.60787"><ele>3.4</ele><time>2026-04-25T08:25:32.881Z</time></trkpt><trkpt lat="42.20269" lon="14.6080133"><ele>3.6000000000000005</ele><time>2026-04-25T08:25:34.882Z</time></trkpt><trkpt lat="42.2026317" lon="14.6081617"><ele>3.8000000000000003</ele><time>2026-04-25T08:25:36.881Z</time></trkpt><trkpt lat="42.2025733" lon="14.6083033"><ele>4.0</ele><time>2026-04-25T08:25:38.882Z</time></trkpt><trkpt lat="42.2025117" lon="14.6084433"><ele>4.0</ele><time>2026-04-25T08:25:40.882Z</time></trkpt><trkpt lat="42.2024533" lon="14.608575"><ele>4.0</ele><time>2026-04-25T08:25:42.882Z</time></trkpt><trkpt lat="42.202395" lon="14.60871"><ele>4.0</ele><time>2026-04-25T08:25:44.881Z</time></trkpt><trkpt lat="42.2023433" lon="14.608845"><ele>4.0</ele><time>2026-04-25T08:25:46.882Z</time></trkpt><trkpt lat="42.2022867" lon="14.6089883"><ele>3.75</ele><time>2026-04-25T08:25:48.882Z</time></trkpt><trkpt lat="42.2022317" lon="14.6091283"><ele>3.5</ele><time>2026-04-25T08:25:50.881Z</time></trkpt><trkpt lat="42.2021767" lon="14.6092667"><ele>3.25</ele><time>2026-04-25T08:25:52.882Z</time></trkpt><trkpt lat="42.2021233" lon="14.6094067"><ele>3.0</ele><time>2026-04-25T08:25:54.882Z</time></trkpt><trkpt lat="42.2020733" lon="14.6095317"><ele>3.0</ele><time>2026-04-25T08:25:56.882Z</time></trkpt><trkpt lat="42.2020217" lon="14.60966"><ele>3.0</ele><time>2026-04-25T08:25:58.881Z</time></trkpt><trkpt lat="42.201975" lon="14.60978"><ele>3.0</ele><time>2026-04-25T08:26:00.882Z</time></trkpt><trkpt lat="42.201935" lon="14.60991"><ele>3.0</ele><time>2026-04-25T08:26:02.882Z</time></trkpt><trkpt lat="42.201925" lon="14.610045"><ele>3.0</ele><time>2026-04-25T08:26:04.882Z</time></trkpt><trkpt lat="42.2019217" lon="14.61022"><ele>2.9999999999999996</ele><time>2026-04-25T08:26:06.882Z</time></trkpt><trkpt lat="42.2019217" lon="14.6103167"><ele>3.0</ele><time>2026-04-25T08:26:07.881Z</time></trkpt><trkpt lat="42.2019233" lon="14.6104117"><ele>3.0</ele><time>2026-04-25T08:26:08.882Z</time></trkpt><trkpt lat="42.20191" lon="14.6105017"><ele>3.0</ele><time>2026-04-25T08:26:09.881Z</time></trkpt><trkpt lat="42.201885" lon="14.6105833"><ele>3.0</ele><time>2026-04-25T08:26:10.882Z</time></trkpt><trkpt lat="42.2018533" lon="14.6106617"><ele>2.9999999999999996</ele><time>2026-04-25T08:26:11.881Z</time></trkpt><trkpt lat="42.201825" lon="14.6107467"><ele>3.0</ele><time>2026-04-25T08:26:12.882Z</time></trkpt><trkpt lat="42.2018017" lon="14.610845"><ele>3.2857142857142856</ele><time>2026-04-25T08:26:13.881Z</time></trkpt><trkpt lat="42.2017783" lon="14.6109283"><ele>3.571428571428571</ele><time>2026-04-25T08:26:14.881Z</time></trkpt><trkpt lat="42.2017517" lon="14.6110117"><ele>3.8571428571428568</ele><time>2026-04-25T08:26:15.882Z</time></trkpt><trkpt lat="42.2017233" lon="14.611105"><ele>4.142857142857142</ele><time>2026-04-25T08:26:16.881Z</time></trkpt><trkpt lat="42.2016933" lon="14.6111933"><ele>4.428571428571429</ele><time>2026-04-25T08:26:17.881Z</time></trkpt><trkpt lat="42.2016633" lon="14.6112817"><ele>4.714285714285714</ele><time>2026-04-25T08:26:18.882Z</time></trkpt><trkpt lat="42.2016333" lon="14.6113667"><ele>5.0</ele><time>2026-04-25T08:26:19.882Z</time></trkpt><trkpt lat="42.2016033" lon="14.6114533"><ele>5.0</ele><time>2026-04-25T08:26:20.881Z</time></trkpt><trkpt lat="42.2015783" lon="14.6115383"><ele>5.0</ele><time>2026-04-25T08:26:21.881Z</time></trkpt><trkpt lat="42.20155" lon="14.6116233"><ele>5.0</ele><time>2026-04-25T08:26:22.881Z</time></trkpt><trkpt lat="42.20152" lon="14.6117133"><ele>5.0</ele><time>2026-04-25T08:26:23.882Z</time></trkpt><trkpt lat="42.2015" lon="14.6117983"><ele>5.0</ele><time>2026-04-25T08:26:24.882Z</time></trkpt><trkpt lat="42.2014533" lon="14.6119517"><ele>5.0</ele><time>2026-04-25T08:26:26.882Z</time></trkpt><trkpt lat="42.2014283" lon="14.612035"><ele>5.25</ele><time>2026-04-25T08:26:27.882Z</time></trkpt><trkpt lat="42.2013783" lon="14.6121917"><ele>5.5</ele><time>2026-04-25T08:26:29.881Z</time></trkpt><trkpt lat="42.201325" lon="14.61234"><ele>5.75</ele><time>2026-04-25T08:26:31.882Z</time></trkpt><trkpt lat="42.2012733" lon="14.612495"><ele>6.0</ele><time>2026-04-25T08:26:33.882Z</time></trkpt><trkpt lat="42.2012317" lon="14.6126467"><ele>6.0</ele><time>2026-04-25T08:26:35.882Z</time></trkpt><trkpt lat="42.201195" lon="14.6127717"><ele>6.0</ele><time>2026-04-25T08:26:37.882Z</time></trkpt><trkpt lat="42.2011533" lon="14.6128917"><ele>6.0</ele><time>2026-04-25T08:26:39.882Z</time></trkpt><trkpt lat="42.2011167" lon="14.61303"><ele>6.0</ele><time>2026-04-25T08:26:41.882Z</time></trkpt><trkpt lat="42.20108" lon="14.61316"><ele>6.0</ele><time>2026-04-25T08:26:43.882Z</time></trkpt><trkpt lat="42.2010367" lon="14.6132817"><ele>6.199999999999999</ele><time>2026-04-25T08:26:45.881Z</time></trkpt><trkpt lat="42.20099" lon="14.61341"><ele>6.3999999999999995</ele><time>2026-04-25T08:26:47.882Z</time></trkpt><trkpt lat="42.2009467" lon="14.6135367"><ele>6.6</ele><time>2026-04-25T08:26:49.882Z</time></trkpt><trkpt lat="42.2009133" lon="14.6136617"><ele>6.8</ele><time>2026-04-25T08:26:51.882Z</time></trkpt><trkpt lat="42.2008783" lon="14.6137717"><ele>7.0</ele><time>2026-04-25T08:26:53.882Z</time></trkpt><trkpt lat="42.2008583" lon="14.6138767"><ele>6.6</ele><time>2026-04-25T08:26:55.882Z</time></trkpt><trkpt lat="42.2008333" lon="14.6139933"><ele>6.199999999999999</ele><time>2026-04-25T08:26:57.882Z</time></trkpt><trkpt lat="42.20081" lon="14.614115"><ele>5.8</ele><time>2026-04-25T08:26:59.882Z</time></trkpt><trkpt lat="42.200775" lon="14.61423"><ele>5.4</ele><time>2026-04-25T08:27:01.882Z</time></trkpt><trkpt lat="42.2007433" lon="14.6143317"><ele>5.0</ele><time>2026-04-25T08:27:03.882Z</time></trkpt><trkpt lat="42.2006983" lon="14.61445"><ele>4.6</ele><time>2026-04-25T08:27:05.882Z</time></trkpt><trkpt lat="42.2006667" lon="14.6145633"><ele>4.2</ele><time>2026-04-25T08:27:07.881Z</time></trkpt><trkpt lat="42.20065" lon="14.614695"><ele>3.8</ele><time>2026-04-25T08:27:09.882Z</time></trkpt><trkpt lat="42.20066" lon="14.6148267"><ele>3.4</ele><time>2026-04-25T08:27:11.881Z</time></trkpt><trkpt lat="42.2006417" lon="14.6149567"><ele>3.0</ele><time>2026-04-25T08:27:13.881Z</time></trkpt><trkpt lat="42.2005867" lon="14.6150933"><ele>3.2</ele><time>2026-04-25T08:27:15.882Z</time></trkpt><trkpt lat="42.200545" lon="14.6151583"><ele>3.4</ele><time>2026-04-25T08:27:16.882Z</time></trkpt><trkpt lat="42.2004733" lon="14.61526"><ele>3.6000000000000005</ele><time>2026-04-25T08:27:18.881Z</time></trkpt><trkpt lat="42.2004117" lon="14.6153633"><ele>3.8000000000000003</ele><time>2026-04-25T08:27:20.882Z</time></trkpt><trkpt lat="42.2003633" lon="14.61548"><ele>4.0</ele><time>2026-04-25T08:27:22.881Z</time></trkpt><trkpt lat="42.20031" lon="14.615595"><ele>3.9999999999999996</ele><time>2026-04-25T08:27:24.882Z</time></trkpt><trkpt lat="42.200265" lon="14.6157033"><ele>4.0</ele><time>2026-04-25T08:27:26.881Z</time></trkpt><trkpt lat="42.2002283" lon="14.6157867"><ele>4.0</ele><time>2026-04-25T08:27:28.882Z</time></trkpt><trkpt lat="42.2001867" lon="14.6158983"><ele>4.0</ele><time>2026-04-25T08:27:31.882Z</time></trkpt><trkpt lat="42.2001383" lon="14.6159883"><ele>3.9999999999999996</ele><time>2026-04-25T08:27:34.881Z</time></trkpt><trkpt lat="42.2001067" lon="14.6160833"><ele>4.0</ele><time>2026-04-25T08:27:37.881Z</time></trkpt><trkpt lat="42.1999733" lon="14.6160317"><ele>3.4999999999999996</ele><time>2026-04-25T08:28:43.142Z</time></trkpt><trkpt lat="42.200065" lon="14.61616"><ele>3.0</ele><time>2026-04-25T08:28:46.388Z</time></trkpt><trkpt lat="42.2000317" lon="14.6162567"><ele>2.5</ele><time>2026-04-25T08:29:09.889Z</time></trkpt><trkpt lat="42.2000117" lon="14.616345"><ele>2.0</ele><time>2026-04-25T08:29:11.889Z</time></trkpt><trkpt lat="42.199995" lon="14.6164333"><ele>1.5</ele><time>2026-04-25T08:29:13.889Z</time></trkpt><trkpt lat="42.1999717" lon="14.61652"><ele>1.0</ele><time>2026-04-25T08:29:15.889Z</time></trkpt><trkpt lat="42.19994" lon="14.616615"><ele>1.0</ele><time>2026-04-25T08:29:17.888Z</time></trkpt><trkpt lat="42.1999117" lon="14.616705"><ele>0.9999999999999999</ele><time>2026-04-25T08:29:19.889Z</time></trkpt><trkpt lat="42.199885" lon="14.6167917"><ele>1.0</ele><time>2026-04-25T08:29:21.889Z</time></trkpt><trkpt lat="42.1998583" lon="14.6168717"><ele>1.0</ele><time>2026-04-25T08:29:23.889Z</time></trkpt><trkpt lat="42.1998217" lon="14.6169817"><ele>0.9999999999999999</ele><time>2026-04-25T08:29:26.889Z</time></trkpt><trkpt lat="42.199785" lon="14.6170883"><ele>1.0</ele><time>2026-04-25T08:29:29.889Z</time></trkpt><trkpt lat="42.19976" lon="14.6171683"><ele>1.0</ele><time>2026-04-25T08:29:31.889Z</time></trkpt><trkpt lat="42.1997267" lon="14.61726"><ele>1.3333333333333333</ele><time>2026-04-25T08:29:33.889Z</time></trkpt><trkpt lat="42.1996967" lon="14.6173533"><ele>1.6666666666666665</ele><time>2026-04-25T08:29:35.888Z</time></trkpt><trkpt lat="42.19966" lon="14.6174533"><ele>2.0</ele><time>2026-04-25T08:29:37.888Z</time></trkpt><trkpt lat="42.1996233" lon="14.6175617"><ele>2.3333333333333335</ele><time>2026-04-25T08:29:39.889Z</time></trkpt><trkpt lat="42.1995867" lon="14.617675"><ele>2.6666666666666665</ele><time>2026-04-25T08:29:41.889Z</time></trkpt><trkpt lat="42.1995483" lon="14.6177933"><ele>3.0</ele><time>2026-04-25T08:29:43.888Z</time></trkpt><trkpt lat="42.1995117" lon="14.617905"><ele>3.0</ele><time>2026-04-25T08:29:45.888Z</time></trkpt><trkpt lat="42.199475" lon="14.61802"><ele>3.0</ele><time>2026-04-25T08:29:47.889Z</time></trkpt><trkpt lat="42.1994367" lon="14.6181367"><ele>3.0</ele><time>2026-04-25T08:29:49.889Z</time></trkpt><trkpt lat="42.1993983" lon="14.6182567"><ele>3.0</ele><time>2026-04-25T08:29:51.888Z</time></trkpt><trkpt lat="42.1993617" lon="14.618375"><ele>3.0</ele><time>2026-04-25T08:29:53.889Z</time></trkpt><trkpt lat="42.19932" lon="14.61849"><ele>3.0</ele><time>2026-04-25T08:29:55.888Z</time></trkpt><trkpt lat="42.19928" lon="14.618605"><ele>3.0</ele><time>2026-04-25T08:29:57.889Z</time></trkpt><trkpt lat="42.1992367" lon="14.618705"><ele>3.0</ele><time>2026-04-25T08:29:59.889Z</time></trkpt><trkpt lat="42.19921" lon="14.61881"><ele>3.0</ele><time>2026-04-25T08:30:01.889Z</time></trkpt><trkpt lat="42.199175" lon="14.61892"><ele>3.0</ele><time>2026-04-25T08:30:03.889Z</time></trkpt><trkpt lat="42.1991383" lon="14.619035"><ele>3.0</ele><time>2026-04-25T08:30:05.889Z</time></trkpt><trkpt lat="42.1990983" lon="14.6191483"><ele>2.8</ele><time>2026-04-25T08:30:07.889Z</time></trkpt><trkpt lat="42.1990533" lon="14.619265"><ele>2.5999999999999996</ele><time>2026-04-25T08:30:09.889Z</time></trkpt><trkpt lat="42.1990133" lon="14.61938"><ele>2.4000000000000004</ele><time>2026-04-25T08:30:11.889Z</time></trkpt><trkpt lat="42.1989733" lon="14.6194933"><ele>2.2</ele><time>2026-04-25T08:30:13.889Z</time></trkpt><trkpt lat="42.1989367" lon="14.6196067"><ele>2.0</ele><time>2026-04-25T08:30:15.889Z</time></trkpt><trkpt lat="42.1988983" lon="14.61973"><ele>3.4000000000000004</ele><time>2026-04-25T08:30:17.889Z</time></trkpt><trkpt lat="42.1988567" lon="14.61985"><ele>4.800000000000001</ele><time>2026-04-25T08:30:19.889Z</time></trkpt><trkpt lat="42.198815" lon="14.61997"><ele>6.2</ele><time>2026-04-25T08:30:21.889Z</time></trkpt><trkpt lat="42.1987817" lon="14.6200917"><ele>7.6000000000000005</ele><time>2026-04-25T08:30:23.889Z</time></trkpt><trkpt lat="42.198745" lon="14.620215"><ele>9.0</ele><time>2026-04-25T08:30:25.889Z</time></trkpt><trkpt lat="42.1987067" lon="14.620345"><ele>9.0</ele><time>2026-04-25T08:30:27.889Z</time></trkpt><trkpt lat="42.1986633" lon="14.620475"><ele>9.0</ele><time>2026-04-25T08:30:29.888Z</time></trkpt><trkpt lat="42.1986117" lon="14.6205983"><ele>9.0</ele><time>2026-04-25T08:30:31.889Z</time></trkpt><trkpt lat="42.19857" lon="14.6207267"><ele>9.0</ele><time>2026-04-25T08:30:33.888Z</time></trkpt><trkpt lat="42.1985383" lon="14.6208583"><ele>9.0</ele><time>2026-04-25T08:30:35.889Z</time></trkpt><trkpt lat="42.1985083" lon="14.6209967"><ele>9.0</ele><time>2026-04-25T08:30:37.889Z</time></trkpt><trkpt lat="42.1984767" lon="14.6211433"><ele>9.0</ele><time>2026-04-25T08:30:39.889Z</time></trkpt><trkpt lat="42.19844" lon="14.6212867"><ele>9.0</ele><time>2026-04-25T08:30:41.889Z</time></trkpt><trkpt lat="42.198385" lon="14.6214267"><ele>9.0</ele><time>2026-04-25T08:30:43.889Z</time></trkpt><trkpt lat="42.198345" lon="14.62155"><ele>9.0</ele><time>2026-04-25T08:30:45.889Z</time></trkpt><trkpt lat="42.198315" lon="14.62168"><ele>8.8</ele><time>2026-04-25T08:30:47.889Z</time></trkpt><trkpt lat="42.1982883" lon="14.62181"><ele>8.600000000000001</ele><time>2026-04-25T08:30:49.888Z</time></trkpt><trkpt lat="42.1982583" lon="14.6219467"><ele>8.4</ele><time>2026-04-25T08:30:51.889Z</time></trkpt><trkpt lat="42.1982217" lon="14.6220817"><ele>8.200000000000001</ele><time>2026-04-25T08:30:53.889Z</time></trkpt><trkpt lat="42.198185" lon="14.6222267"><ele>8.0</ele><time>2026-04-25T08:30:55.889Z</time></trkpt><trkpt lat="42.1981483" lon="14.6223617"><ele>8.600000000000001</ele><time>2026-04-25T08:30:57.889Z</time></trkpt><trkpt lat="42.198105" lon="14.6224967"><ele>9.200000000000001</ele><time>2026-04-25T08:30:59.888Z</time></trkpt><trkpt lat="42.1980567" lon="14.6226433"><ele>9.8</ele><time>2026-04-25T08:31:01.889Z</time></trkpt><trkpt lat="42.1980217" lon="14.6227783"><ele>10.4</ele><time>2026-04-25T08:31:03.889Z</time></trkpt><trkpt lat="42.1979783" lon="14.62291"><ele>11.0</ele><time>2026-04-25T08:31:05.889Z</time></trkpt><trkpt lat="42.197935" lon="14.623045"><ele>11.0</ele><time>2026-04-25T08:31:07.889Z</time></trkpt><trkpt lat="42.19789" lon="14.6231783"><ele>11.0</ele><time>2026-04-25T08:31:09.889Z</time></trkpt><trkpt lat="42.1978483" lon="14.6233133"><ele>11.0</ele><time>2026-04-25T08:31:11.889Z</time></trkpt><trkpt lat="42.1978083" lon="14.6234483"><ele>11.0</ele><time>2026-04-25T08:31:13.889Z</time></trkpt><trkpt lat="42.19777" lon="14.6235867"><ele>11.0</ele><time>2026-04-25T08:31:15.889Z</time></trkpt><trkpt lat="42.1977367" lon="14.6237117"><ele>10.600000000000001</ele><time>2026-04-25T08:31:17.888Z</time></trkpt><trkpt lat="42.197695" lon="14.623845"><ele>10.200000000000001</ele><time>2026-04-25T08:31:19.889Z</time></trkpt><trkpt lat="42.1976567" lon="14.6239817"><ele>9.8</ele><time>2026-04-25T08:31:21.889Z</time></trkpt><trkpt lat="42.1976233" lon="14.6241267"><ele>9.4</ele><time>2026-04-25T08:31:23.889Z</time></trkpt><trkpt lat="42.19758" lon="14.624265"><ele>9.0</ele><time>2026-04-25T08:31:25.889Z</time></trkpt><trkpt lat="42.1975383" lon="14.624405"><ele>8.2</ele><time>2026-04-25T08:31:27.889Z</time></trkpt><trkpt lat="42.1974917" lon="14.624535"><ele>7.4</ele><time>2026-04-25T08:31:29.888Z</time></trkpt><trkpt lat="42.19744" lon="14.6246483"><ele>6.6</ele><time>2026-04-25T08:31:31.889Z</time></trkpt><trkpt lat="42.197395" lon="14.62478"><ele>5.8</ele><time>2026-04-25T08:31:33.889Z</time></trkpt><trkpt lat="42.197345" lon="14.62491"><ele>5.0</ele><time>2026-04-25T08:31:35.888Z</time></trkpt><trkpt lat="42.197295" lon="14.6250483"><ele>5.4</ele><time>2026-04-25T08:31:37.889Z</time></trkpt><trkpt lat="42.1972467" lon="14.6251767"><ele>5.8</ele><time>2026-04-25T08:31:39.888Z</time></trkpt><trkpt lat="42.1972033" lon="14.6253083"><ele>6.199999999999999</ele><time>2026-04-25T08:31:41.889Z</time></trkpt><trkpt lat="42.1971683" lon="14.6254417"><ele>6.6</ele><time>2026-04-25T08:31:43.889Z</time></trkpt><trkpt lat="42.1971233" lon="14.6255833"><ele>7.0</ele><time>2026-04-25T08:31:45.889Z</time></trkpt><trkpt lat="42.1970817" lon="14.6257267"><ele>7.0</ele><time>2026-04-25T08:31:47.889Z</time></trkpt><trkpt lat="42.1970383" lon="14.6258683"><ele>7.0</ele><time>2026-04-25T08:31:49.889Z</time></trkpt><trkpt lat="42.196985" lon="14.626"><ele>7.0</ele><time>2026-04-25T08:31:51.888Z</time></trkpt><trkpt lat="42.1969383" lon="14.626135"><ele>7.0</ele><time>2026-04-25T08:31:53.888Z</time></trkpt><trkpt lat="42.19689" lon="14.6262767"><ele>5.6</ele><time>2026-04-25T08:31:55.889Z</time></trkpt><trkpt lat="42.19684" lon="14.6264167"><ele>4.199999999999999</ele><time>2026-04-25T08:31:57.889Z</time></trkpt><trkpt lat="42.1967867" lon="14.626545"><ele>2.8</ele><time>2026-04-25T08:31:59.888Z</time></trkpt><trkpt lat="42.19674" lon="14.6266817"><ele>1.4</ele><time>2026-04-25T08:32:01.889Z</time></trkpt><trkpt lat="42.1966933" lon="14.6268183"><ele>0.0</ele><time>2026-04-25T08:32:03.888Z</time></trkpt><trkpt lat="42.1966433" lon="14.6269533"><ele>0.4</ele><time>2026-04-25T08:32:05.889Z</time></trkpt><trkpt lat="42.1965933" lon="14.6270867"><ele>0.8</ele><time>2026-04-25T08:32:07.888Z</time></trkpt><trkpt lat="42.1965417" lon="14.6272183"><ele>1.2000000000000002</ele><time>2026-04-25T08:32:09.888Z</time></trkpt><trkpt lat="42.1964933" lon="14.6273567"><ele>1.6</ele><time>2026-04-25T08:32:11.889Z</time></trkpt><trkpt lat="42.1964533" lon="14.6274817"><ele>2.0</ele><time>2026-04-25T08:32:13.888Z</time></trkpt><trkpt lat="42.1964083" lon="14.6276033"><ele>2.333333333333333</ele><time>2026-04-25T08:32:15.889Z</time></trkpt><trkpt lat="42.1963683" lon="14.6277267"><ele>2.6666666666666665</ele><time>2026-04-25T08:32:17.889Z</time></trkpt><trkpt lat="42.1963333" lon="14.6278317"><ele>3.0</ele><time>2026-04-25T08:32:19.888Z</time></trkpt><trkpt lat="42.19629" lon="14.6279417"><ele>3.333333333333333</ele><time>2026-04-25T08:32:22.888Z</time></trkpt><trkpt lat="42.19626" lon="14.62806"><ele>3.6666666666666665</ele><time>2026-04-25T08:32:25.889Z</time></trkpt><trkpt lat="42.1962217" lon="14.62815"><ele>4.0</ele><time>2026-04-25T08:32:27.888Z</time></trkpt><trkpt lat="42.1961883" lon="14.6282383"><ele>3.9999999999999996</ele><time>2026-04-25T08:32:29.889Z</time></trkpt><trkpt lat="42.196155" lon="14.62833"><ele>4.0</ele><time>2026-04-25T08:32:31.888Z</time></trkpt><trkpt lat="42.1961367" lon="14.6284167"><ele>4.0</ele><time>2026-04-25T08:32:33.889Z</time></trkpt><trkpt lat="42.1961217" lon="14.6285167"><ele>4.0</ele><time>2026-04-25T08:32:35.888Z</time></trkpt><trkpt lat="42.1961117" lon="14.62862"><ele>3.9999999999999996</ele><time>2026-04-25T08:32:37.889Z</time></trkpt><trkpt lat="42.1960917" lon="14.6287083"><ele>4.0</ele><time>2026-04-25T08:32:39.888Z</time></trkpt><trkpt lat="42.19606" lon="14.6288233"><ele>3.9999999999999996</ele><time>2026-04-25T08:32:42.889Z</time></trkpt><trkpt lat="42.196045" lon="14.62891"><ele>4.0</ele><time>2026-04-25T08:32:44.888Z</time></trkpt><trkpt lat="42.19603" lon="14.6290233"><ele>4.0</ele><time>2026-04-25T08:32:47.889Z</time></trkpt><trkpt lat="42.1960467" lon="14.6291317"><ele>4.0</ele><time>2026-04-25T08:32:50.889Z</time></trkpt><trkpt lat="42.1960167" lon="14.6292583"><ele>3.9999999999999996</ele><time>2026-04-25T08:32:53.888Z</time></trkpt><trkpt lat="42.195975" lon="14.6293417"><ele>4.0</ele><time>2026-04-25T08:32:55.889Z</time></trkpt><trkpt lat="42.19593" lon="14.6294217"><ele>3.8571428571428568</ele><time>2026-04-25T08:32:57.889Z</time></trkpt><trkpt lat="42.1958883" lon="14.629515"><ele>3.714285714285714</ele><time>2026-04-25T08:32:59.889Z</time></trkpt><trkpt lat="42.1958567" lon="14.6296083"><ele>3.571428571428571</ele><time>2026-04-25T08:33:01.889Z</time></trkpt><trkpt lat="42.1958333" lon="14.6296967"><ele>3.4285714285714284</ele><time>2026-04-25T08:33:03.889Z</time></trkpt><trkpt lat="42.19581" lon="14.6297917"><ele>3.2857142857142856</ele><time>2026-04-25T08:33:05.889Z</time></trkpt><trkpt lat="42.19579" lon="14.629885"><ele>3.1428571428571423</ele><time>2026-04-25T08:33:07.889Z</time></trkpt><trkpt lat="42.1957583" lon="14.629965"><ele>3.0</ele><time>2026-04-25T08:33:09.888Z</time></trkpt><trkpt lat="42.19572" lon="14.6300633"><ele>3.0</ele><time>2026-04-25T08:33:11.888Z</time></trkpt><trkpt lat="42.195685" lon="14.630155"><ele>3.0</ele><time>2026-04-25T08:33:13.888Z</time></trkpt><trkpt lat="42.1956567" lon="14.630245"><ele>3.0</ele><time>2026-04-25T08:33:15.889Z</time></trkpt><trkpt lat="42.1956283" lon="14.630335"><ele>3.0</ele><time>2026-04-25T08:33:17.888Z</time></trkpt><trkpt lat="42.1956" lon="14.63043"><ele>3.0</ele><time>2026-04-25T08:33:19.889Z</time></trkpt><trkpt lat="42.1955733" lon="14.6305317"><ele>3.0</ele><time>2026-04-25T08:33:21.888Z</time></trkpt><trkpt lat="42.195555" lon="14.63066"><ele>3.1666666666666665</ele><time>2026-04-25T08:33:23.889Z</time></trkpt><trkpt lat="42.1955267" lon="14.630805"><ele>3.333333333333333</ele><time>2026-04-25T08:33:25.889Z</time></trkpt><trkpt lat="42.1954967" lon="14.6309167"><ele>3.5</ele><time>2026-04-25T08:33:27.888Z</time></trkpt><trkpt lat="42.1954683" lon="14.6310317"><ele>3.6666666666666665</ele><time>2026-04-25T08:33:29.889Z</time></trkpt><trkpt lat="42.1954383" lon="14.6311283"><ele>3.833333333333333</ele><time>2026-04-25T08:33:31.889Z</time></trkpt><trkpt lat="42.1954183" lon="14.6312217"><ele>4.0</ele><time>2026-04-25T08:33:33.888Z</time></trkpt><trkpt lat="42.19539" lon="14.63134"><ele>3.9999999999999996</ele><time>2026-04-25T08:33:35.889Z</time></trkpt><trkpt lat="42.19536" lon="14.631435"><ele>4.0</ele><time>2026-04-25T08:33:37.888Z</time></trkpt><trkpt lat="42.1953283" lon="14.6315467"><ele>4.0</ele><time>2026-04-25T08:33:39.888Z</time></trkpt><trkpt lat="42.1953" lon="14.6316317"><ele>4.0</ele><time>2026-04-25T08:33:41.889Z</time></trkpt><trkpt lat="42.1952667" lon="14.631715"><ele>3.9999999999999996</ele><time>2026-04-25T08:33:43.888Z</time></trkpt><trkpt lat="42.1952267" lon="14.6318133"><ele>4.0</ele><time>2026-04-25T08:33:45.889Z</time></trkpt><trkpt lat="42.1951967" lon="14.6319183"><ele>4.166666666666666</ele><time>2026-04-25T08:33:47.889Z</time></trkpt><trkpt lat="42.1951683" lon="14.6320367"><ele>4.333333333333333</ele><time>2026-04-25T08:33:49.889Z</time></trkpt><trkpt lat="42.1951383" lon="14.63215"><ele>4.5</ele><time>2026-04-25T08:33:51.889Z</time></trkpt><trkpt lat="42.1951083" lon="14.6322633"><ele>4.666666666666667</ele><time>2026-04-25T08:33:53.889Z</time></trkpt><trkpt lat="42.195085" lon="14.6323717"><ele>4.833333333333334</ele><time>2026-04-25T08:33:55.889Z</time></trkpt><trkpt lat="42.1950533" lon="14.6324733"><ele>5.0</ele><time>2026-04-25T08:33:57.889Z</time></trkpt><trkpt lat="42.1950267" lon="14.63258"><ele>5.0</ele><time>2026-04-25T08:33:59.889Z</time></trkpt><trkpt lat="42.194995" lon="14.6326783"><ele>5.0</ele><time>2026-04-25T08:34:01.889Z</time></trkpt><trkpt lat="42.19497" lon="14.6327683"><ele>5.0</ele><time>2026-04-25T08:34:03.889Z</time></trkpt><trkpt lat="42.194955" lon="14.6328517"><ele>5.0</ele><time>2026-04-25T08:34:05.889Z</time></trkpt><trkpt lat="42.1949267" lon="14.632955"><ele>5.0</ele><time>2026-04-25T08:34:08.889Z</time></trkpt><trkpt lat="42.1949" lon="14.633055"><ele>5.0</ele><time>2026-04-25T08:34:11.889Z</time></trkpt><trkpt lat="42.1948783" lon="14.6331833"><ele>5.2</ele><time>2026-04-25T08:34:14.888Z</time></trkpt><trkpt lat="42.19485" lon="14.633295"><ele>5.4</ele><time>2026-04-25T08:34:16.889Z</time></trkpt><trkpt lat="42.1948117" lon="14.6334117"><ele>5.6</ele><time>2026-04-25T08:34:18.888Z</time></trkpt><trkpt lat="42.1947767" lon="14.6335283"><ele>5.8</ele><time>2026-04-25T08:34:20.888Z</time></trkpt><trkpt lat="42.1947383" lon="14.6336533"><ele>6.0</ele><time>2026-04-25T08:34:22.888Z</time></trkpt><trkpt lat="42.1947017" lon="14.633765"><ele>5.6</ele><time>2026-04-25T08:34:24.889Z</time></trkpt><trkpt lat="42.1946683" lon="14.6338817"><ele>5.199999999999999</ele><time>2026-04-25T08:34:26.888Z</time></trkpt><trkpt lat="42.1946317" lon="14.6340017"><ele>4.800000000000001</ele><time>2026-04-25T08:34:28.888Z</time></trkpt><trkpt lat="42.1945917" lon="14.6341133"><ele>4.4</ele><time>2026-04-25T08:34:30.889Z</time></trkpt><trkpt lat="42.194545" lon="14.6342283"><ele>4.0</ele><time>2026-04-25T08:34:32.889Z</time></trkpt><trkpt lat="42.1945" lon="14.6343383"><ele>3.9999999999999996</ele><time>2026-04-25T08:34:34.888Z</time></trkpt><trkpt lat="42.19447" lon="14.634455"><ele>4.0</ele><time>2026-04-25T08:34:36.889Z</time></trkpt><trkpt lat="42.1944483" lon="14.6345567"><ele>4.0</ele><time>2026-04-25T08:34:38.889Z</time></trkpt><trkpt lat="42.194415" lon="14.6346717"><ele>4.0</ele><time>2026-04-25T08:34:40.888Z</time></trkpt><trkpt lat="42.1943783" lon="14.6347933"><ele>3.9999999999999996</ele><time>2026-04-25T08:34:42.889Z</time></trkpt><trkpt lat="42.1943533" lon="14.6349067"><ele>4.0</ele><time>2026-04-25T08:34:44.888Z</time></trkpt><trkpt lat="42.1943217" lon="14.63502"><ele>3.6</ele><time>2026-04-25T08:34:46.889Z</time></trkpt><trkpt lat="42.1943033" lon="14.6351433"><ele>3.2</ele><time>2026-04-25T08:34:48.889Z</time></trkpt><trkpt lat="42.1942733" lon="14.6352533"><ele>2.8000000000000003</ele><time>2026-04-25T08:34:50.889Z</time></trkpt><trkpt lat="42.1942367" lon="14.6353633"><ele>2.4000000000000004</ele><time>2026-04-25T08:34:52.889Z</time></trkpt><trkpt lat="42.1941983" lon="14.6354817"><ele>2.0</ele><time>2026-04-25T08:34:54.889Z</time></trkpt><trkpt lat="42.194165" lon="14.6356017"><ele>2.0</ele><time>2026-04-25T08:34:56.889Z</time></trkpt><trkpt lat="42.1941217" lon="14.6357383"><ele>2.0</ele><time>2026-04-25T08:34:58.889Z</time></trkpt><trkpt lat="42.1940767" lon="14.6358817"><ele>2.0</ele><time>2026-04-25T08:35:00.889Z</time></trkpt><trkpt lat="42.1940367" lon="14.6360167"><ele>2.0</ele><time>2026-04-25T08:35:02.888Z</time></trkpt><trkpt lat="42.193995" lon="14.63615"><ele>2.0</ele><time>2026-04-25T08:35:04.889Z</time></trkpt><trkpt lat="42.1939617" lon="14.636285"><ele>2.0</ele><time>2026-04-25T08:35:06.889Z</time></trkpt><trkpt lat="42.1939217" lon="14.6364317"><ele>2.0</ele><time>2026-04-25T08:35:08.889Z</time></trkpt><trkpt lat="42.19388" lon="14.6365783"><ele>2.0</ele><time>2026-04-25T08:35:10.888Z</time></trkpt><trkpt lat="42.19383" lon="14.6367217"><ele>2.0</ele><time>2026-04-25T08:35:12.888Z</time></trkpt><trkpt lat="42.1937883" lon="14.6368683"><ele>1.75</ele><time>2026-04-25T08:35:14.888Z</time></trkpt><trkpt lat="42.1937467" lon="14.6370117"><ele>1.5</ele><time>2026-04-25T08:35:16.889Z</time></trkpt><trkpt lat="42.1937017" lon="14.6371533"><ele>1.25</ele><time>2026-04-25T08:35:18.889Z</time></trkpt><trkpt lat="42.1936683" lon="14.6373067"><ele>1.0</ele><time>2026-04-25T08:35:20.888Z</time></trkpt><trkpt lat="42.1936317" lon="14.6374567"><ele>1.0</ele><time>2026-04-25T08:35:22.888Z</time></trkpt><trkpt lat="42.1935917" lon="14.6376033"><ele>1.0</ele><time>2026-04-25T08:35:24.889Z</time></trkpt><trkpt lat="42.1935483" lon="14.637745"><ele>1.0</ele><time>2026-04-25T08:35:26.888Z</time></trkpt><trkpt lat="42.19351" lon="14.6378783"><ele>1.0</ele><time>2026-04-25T08:35:28.889Z</time></trkpt><trkpt lat="42.1934783" lon="14.638005"><ele>1.0</ele><time>2026-04-25T08:35:30.888Z</time></trkpt><trkpt lat="42.1934383" lon="14.638135"><ele>1.0</ele><time>2026-04-25T08:35:32.889Z</time></trkpt><trkpt lat="42.1934033" lon="14.638265"><ele>1.0</ele><time>2026-04-25T08:35:34.889Z</time></trkpt><trkpt lat="42.1933667" lon="14.6383967"><ele>1.0</ele><time>2026-04-25T08:35:36.889Z</time></trkpt><trkpt lat="42.1933167" lon="14.6385233"><ele>1.0</ele><time>2026-04-25T08:35:38.888Z</time></trkpt><trkpt lat="42.1932683" lon="14.6386583"><ele>1.0</ele><time>2026-04-25T08:35:40.888Z</time></trkpt><trkpt lat="42.193225" lon="14.6387917"><ele>1.0</ele><time>2026-04-25T08:35:42.889Z</time></trkpt><trkpt lat="42.19319" lon="14.6389467"><ele>1.0</ele><time>2026-04-25T08:35:44.889Z</time></trkpt><trkpt lat="42.1931533" lon="14.6391017"><ele>1.0</ele><time>2026-04-25T08:35:46.888Z</time></trkpt><trkpt lat="42.19311" lon="14.6392533"><ele>1.0</ele><time>2026-04-25T08:35:48.889Z</time></trkpt><trkpt lat="42.19307" lon="14.6394083"><ele>0.6000000000000001</ele><time>2026-04-25T08:35:50.889Z</time></trkpt><trkpt lat="42.19303" lon="14.6395617"><ele>0.20000000000000007</ele><time>2026-04-25T08:35:52.889Z</time></trkpt><trkpt lat="42.1929867" lon="14.6396983"><ele>-0.20000000000000007</ele><time>2026-04-25T08:35:54.888Z</time></trkpt><trkpt lat="42.192945" lon="14.6398367"><ele>-0.6000000000000001</ele><time>2026-04-25T08:35:56.889Z</time></trkpt><trkpt lat="42.1929067" lon="14.6399717"><ele>-1.0</ele><time>2026-04-25T08:35:58.888Z</time></trkpt><trkpt lat="42.192865" lon="14.64011"><ele>-1.0</ele><time>2026-04-25T08:36:00.889Z</time></trkpt><trkpt lat="42.1928317" lon="14.6402667"><ele>-1.0</ele><time>2026-04-25T08:36:02.888Z</time></trkpt><trkpt lat="42.1928183" lon="14.64035"><ele>-1.0</ele><time>2026-04-25T08:36:03.888Z</time></trkpt><trkpt lat="42.1927917" lon="14.6405133"><ele>-1.0</ele><time>2026-04-25T08:36:05.888Z</time></trkpt><trkpt lat="42.1927733" lon="14.6406"><ele>-1.0</ele><time>2026-04-25T08:36:06.889Z</time></trkpt><trkpt lat="42.1927367" lon="14.6407583"><ele>-0.8</ele><time>2026-04-25T08:36:08.889Z</time></trkpt><trkpt lat="42.1927033" lon="14.64091"><ele>-0.6000000000000001</ele><time>2026-04-25T08:36:10.888Z</time></trkpt><trkpt lat="42.192685" lon="14.6409967"><ele>-0.4</ele><time>2026-04-25T08:36:11.888Z</time></trkpt><trkpt lat="42.1926517" lon="14.64114"><ele>-0.2</ele><time>2026-04-25T08:36:13.888Z</time></trkpt><trkpt lat="42.1926183" lon="14.6412817"><ele>0.0</ele><time>2026-04-25T08:36:15.889Z</time></trkpt><trkpt lat="42.1925817" lon="14.641415"><ele>0.0</ele><time>2026-04-25T08:36:17.888Z</time></trkpt><trkpt lat="42.192545" lon="14.6415483"><ele>0.0</ele><time>2026-04-25T08:36:19.889Z</time></trkpt><trkpt lat="42.1925133" lon="14.6416867"><ele>0.0</ele><time>2026-04-25T08:36:21.889Z</time></trkpt><trkpt lat="42.1924783" lon="14.64182"><ele>0.0</ele><time>2026-04-25T08:36:23.889Z</time></trkpt><trkpt lat="42.1924433" lon="14.6419517"><ele>0.0</ele><time>2026-04-25T08:36:25.888Z</time></trkpt><trkpt lat="42.1924067" lon="14.6420867"><ele>0.0</ele><time>2026-04-25T08:36:27.889Z</time></trkpt><trkpt lat="42.192375" lon="14.6422217"><ele>0.0</ele><time>2026-04-25T08:36:29.888Z</time></trkpt><trkpt lat="42.192345" lon="14.642345"><ele>0.0</ele><time>2026-04-25T08:36:31.889Z</time></trkpt><trkpt lat="42.1922967" lon="14.64246"><ele>0.0</ele><time>2026-04-25T08:36:33.889Z</time></trkpt><trkpt lat="42.1922333" lon="14.64255"><ele>0.0</ele><time>2026-04-25T08:36:35.888Z</time></trkpt><trkpt lat="42.1921517" lon="14.6426283"><ele>0.0</ele><time>2026-04-25T08:36:37.889Z</time></trkpt><trkpt lat="42.1920683" lon="14.6427283"><ele>0.0</ele><time>2026-04-25T08:36:39.889Z</time></trkpt><trkpt lat="42.1919867" lon="14.6428483"><ele>0.0</ele><time>2026-04-25T08:36:41.888Z</time></trkpt><trkpt lat="42.191915" lon="14.6429567"><ele>0.0</ele><time>2026-04-25T08:36:43.889Z</time></trkpt><trkpt lat="42.1918367" lon="14.64305"><ele>0.0</ele><time>2026-04-25T08:36:45.889Z</time></trkpt><trkpt lat="42.1917583" lon="14.643135"><ele>0.0</ele><time>2026-04-25T08:36:47.888Z</time></trkpt><trkpt lat="42.1916717" lon="14.6432233"><ele>0.0</ele><time>2026-04-25T08:36:49.889Z</time></trkpt><trkpt lat="42.1915917" lon="14.64331"><ele>0.0</ele><time>2026-04-25T08:36:51.889Z</time></trkpt><trkpt lat="42.1915133" lon="14.6434067"><ele>0.0</ele><time>2026-04-25T08:36:53.889Z</time></trkpt><trkpt lat="42.1914433" lon="14.64352"><ele>0.0</ele><time>2026-04-25T08:36:55.888Z</time></trkpt><trkpt lat="42.1913783" lon="14.643635"><ele>0.4</ele><time>2026-04-25T08:36:57.889Z</time></trkpt><trkpt lat="42.1913217" lon="14.6437533"><ele>0.8</ele><time>2026-04-25T08:36:59.889Z</time></trkpt><trkpt lat="42.1912617" lon="14.6438767"><ele>1.2000000000000002</ele><time>2026-04-25T08:37:01.889Z</time></trkpt><trkpt lat="42.191205" lon="14.643995"><ele>1.6</ele><time>2026-04-25T08:37:03.888Z</time></trkpt><trkpt lat="42.1911433" lon="14.644115"><ele>2.0</ele><time>2026-04-25T08:37:05.888Z</time></trkpt><trkpt lat="42.191075" lon="14.6442283"><ele>2.0</ele><time>2026-04-25T08:37:07.889Z</time></trkpt><trkpt lat="42.1909933" lon="14.6443033"><ele>2.0</ele><time>2026-04-25T08:37:09.889Z</time></trkpt><trkpt lat="42.1908967" lon="14.6443567"><ele>2.0</ele><time>2026-04-25T08:37:11.889Z</time></trkpt><trkpt lat="42.1907933" lon="14.644395"><ele>2.0</ele><time>2026-04-25T08:37:13.888Z</time></trkpt><trkpt lat="42.1907" lon="14.644425"><ele>2.0</ele><time>2026-04-25T08:37:15.889Z</time></trkpt><trkpt lat="42.1906033" lon="14.644455"><ele>2.1666666666666665</ele><time>2026-04-25T08:37:17.888Z</time></trkpt><trkpt lat="42.190515" lon="14.6444833"><ele>2.333333333333333</ele><time>2026-04-25T08:37:19.889Z</time></trkpt><trkpt lat="42.1904333" lon="14.644515"><ele>2.5</ele><time>2026-04-25T08:37:21.889Z</time></trkpt><trkpt lat="42.1903567" lon="14.64454"><ele>2.6666666666666665</ele><time>2026-04-25T08:37:23.888Z</time></trkpt><trkpt lat="42.1902867" lon="14.644565"><ele>2.8333333333333335</ele><time>2026-04-25T08:37:25.888Z</time></trkpt><trkpt lat="42.190235" lon="14.64462"><ele>3.0</ele><time>2026-04-25T08:37:27.889Z</time></trkpt><trkpt lat="42.1902083" lon="14.644705"><ele>3.0</ele><time>2026-04-25T08:37:29.888Z</time></trkpt><trkpt lat="42.1901867" lon="14.644805"><ele>3.0</ele><time>2026-04-25T08:37:31.889Z</time></trkpt><trkpt lat="42.19016" lon="14.644905"><ele>3.0</ele><time>2026-04-25T08:37:33.888Z</time></trkpt><trkpt lat="42.1901217" lon="14.6449917"><ele>3.0</ele><time>2026-04-25T08:37:35.889Z</time></trkpt><trkpt lat="42.190085" lon="14.6451017"><ele>3.0</ele><time>2026-04-25T08:37:38.888Z</time></trkpt><trkpt lat="42.1900517" lon="14.645215"><ele>3.0</ele><time>2026-04-25T08:37:41.889Z</time></trkpt><trkpt lat="42.1900083" lon="14.6453217"><ele>3.0</ele><time>2026-04-25T08:37:44.888Z</time></trkpt><trkpt lat="42.1899567" lon="14.645415"><ele>3.0</ele><time>2026-04-25T08:37:47.889Z</time></trkpt><trkpt lat="42.1899117" lon="14.6454983"><ele>3.0</ele><time>2026-04-25T08:37:50.889Z</time></trkpt><trkpt lat="42.1898783" lon="14.6455817"><ele>3.0</ele><time>2026-04-25T08:37:53.888Z</time></trkpt><trkpt lat="42.189845" lon="14.6456783"><ele>3.0</ele><time>2026-04-25T08:37:56.889Z</time></trkpt><trkpt lat="42.1898083" lon="14.6457917"><ele>3.0</ele><time>2026-04-25T08:37:59.889Z</time></trkpt><trkpt lat="42.1897867" lon="14.6458767"><ele>2.9999999999999996</ele><time>2026-04-25T08:38:01.888Z</time></trkpt><trkpt lat="42.1897667" lon="14.6459633"><ele>3.0</ele><time>2026-04-25T08:38:03.889Z</time></trkpt><trkpt lat="42.1897483" lon="14.6460483"><ele>3.0</ele><time>2026-04-25T08:38:05.888Z</time></trkpt><trkpt lat="42.1897483" lon="14.6461333"><ele>3.0</ele><time>2026-04-25T08:38:07.889Z</time></trkpt><trkpt lat="42.1897517" lon="14.6462267"><ele>3.0</ele><time>2026-04-25T08:38:09.888Z</time></trkpt><trkpt lat="42.1897467" lon="14.6463283"><ele>2.9999999999999996</ele><time>2026-04-25T08:38:11.889Z</time></trkpt><trkpt lat="42.1897267" lon="14.6464317"><ele>3.0</ele><time>2026-04-25T08:38:13.889Z</time></trkpt><trkpt lat="42.18972" lon="14.6465483"><ele>3.1666666666666665</ele><time>2026-04-25T08:38:15.889Z</time></trkpt><trkpt lat="42.1897133" lon="14.64666"><ele>3.333333333333333</ele><time>2026-04-25T08:38:17.889Z</time></trkpt><trkpt lat="42.189715" lon="14.6467767"><ele>3.5</ele><time>2026-04-25T08:38:19.889Z</time></trkpt><trkpt lat="42.1897017" lon="14.6468867"><ele>3.6666666666666665</ele><time>2026-04-25T08:38:21.889Z</time></trkpt><trkpt lat="42.1896883" lon="14.647"><ele>3.833333333333333</ele><time>2026-04-25T08:38:23.889Z</time></trkpt><trkpt lat="42.18969" lon="14.6471267"><ele>4.0</ele><time>2026-04-25T08:38:25.889Z</time></trkpt><trkpt lat="42.189685" lon="14.6472467"><ele>3.9999999999999996</ele><time>2026-04-25T08:38:27.888Z</time></trkpt><trkpt lat="42.1896817" lon="14.6473617"><ele>4.0</ele><time>2026-04-25T08:38:29.888Z</time></trkpt><trkpt lat="42.1896783" lon="14.6474783"><ele>4.0</ele><time>2026-04-25T08:38:31.889Z</time></trkpt><trkpt lat="42.1896783" lon="14.64759"><ele>4.0</ele><time>2026-04-25T08:38:33.889Z</time></trkpt><trkpt lat="42.1896733" lon="14.6477083"><ele>3.9999999999999996</ele><time>2026-04-25T08:38:35.889Z</time></trkpt><trkpt lat="42.1896717" lon="14.647825"><ele>4.0</ele><time>2026-04-25T08:38:37.889Z</time></trkpt><trkpt lat="42.1896733" lon="14.6479417"><ele>4.5</ele><time>2026-04-25T08:38:39.889Z</time></trkpt><trkpt lat="42.1896733" lon="14.64805"><ele>5.0</ele><time>2026-04-25T08:38:41.889Z</time></trkpt><trkpt lat="42.189675" lon="14.64815"><ele>5.5</ele><time>2026-04-25T08:38:43.888Z</time></trkpt><trkpt lat="42.1896783" lon="14.648255"><ele>6.0</ele><time>2026-04-25T08:38:45.888Z</time></trkpt><trkpt lat="42.18968" lon="14.648365"><ele>6.500000000000001</ele><time>2026-04-25T08:38:47.889Z</time></trkpt><trkpt lat="42.18968" lon="14.6484817"><ele>7.0</ele><time>2026-04-25T08:38:49.889Z</time></trkpt><trkpt lat="42.1896717" lon="14.6486033"><ele>7.666666666666667</ele><time>2026-04-25T08:38:51.888Z</time></trkpt><trkpt lat="42.18967" lon="14.6487133"><ele>8.333333333333334</ele><time>2026-04-25T08:38:53.889Z</time></trkpt><trkpt lat="42.189675" lon="14.6488183"><ele>9.0</ele><time>2026-04-25T08:38:55.889Z</time></trkpt><trkpt lat="42.1896667" lon="14.6489283"><ele>9.666666666666666</ele><time>2026-04-25T08:38:57.888Z</time></trkpt><trkpt lat="42.1896567" lon="14.6490333"><ele>10.333333333333332</ele><time>2026-04-25T08:38:59.889Z</time></trkpt><trkpt lat="42.18965" lon="14.6491267"><ele>11.0</ele><time>2026-04-25T08:39:01.889Z</time></trkpt><trkpt lat="42.1896433" lon="14.649215"><ele>11.0</ele><time>2026-04-25T08:39:03.888Z</time></trkpt><trkpt lat="42.1896367" lon="14.64931"><ele>11.0</ele><time>2026-04-25T08:39:05.889Z</time></trkpt><trkpt lat="42.1896117" lon="14.649425"><ele>11.0</ele><time>2026-04-25T08:39:08.889Z</time></trkpt><trkpt lat="42.18955" lon="14.6494983"><ele>11.0</ele><time>2026-04-25T08:39:11.889Z</time></trkpt><trkpt lat="42.189495" lon="14.6495717"><ele>11.0</ele><time>2026-04-25T08:39:15.889Z</time></trkpt><trkpt lat="42.1894417" lon="14.64962"><ele>11.0</ele><time>2026-04-25T08:39:18.888Z</time></trkpt><trkpt lat="42.1893867" lon="14.6496633"><ele>11.0</ele><time>2026-04-25T08:39:21.888Z</time></trkpt><trkpt lat="42.1893467" lon="14.6497483"><ele>12.571428571428571</ele><time>2026-04-25T08:39:26.889Z</time></trkpt><trkpt lat="42.189335" lon="14.6498333"><ele>14.142857142857142</ele><time>2026-04-25T08:39:29.889Z</time></trkpt><trkpt lat="42.18933" lon="14.6499267"><ele>15.714285714285715</ele><time>2026-04-25T08:39:34.889Z</time></trkpt><trkpt lat="42.1892967" lon="14.6500017"><ele>17.285714285714285</ele><time>2026-04-25T08:39:41.888Z</time></trkpt><trkpt lat="42.189255" lon="14.65007"><ele>18.857142857142858</ele><time>2026-04-25T08:39:46.889Z</time></trkpt><trkpt lat="42.18923" lon="14.6501533"><ele>20.42857142857143</ele><time>2026-04-25T08:39:52.889Z</time></trkpt><trkpt lat="42.189195" lon="14.6502267"><ele>22.0</ele><time>2026-04-25T08:39:58.889Z</time></trkpt><trkpt lat="42.18917" lon="14.650315"><ele>22.857142857142858</ele><time>2026-04-25T08:40:03.889Z</time></trkpt><trkpt lat="42.1891533" lon="14.650405"><ele>23.714285714285715</ele><time>2026-04-25T08:40:07.888Z</time></trkpt><trkpt lat="42.189145" lon="14.650495"><ele>24.57142857142857</ele><time>2026-04-25T08:40:10.889Z</time></trkpt><trkpt lat="42.1891167" lon="14.6505783"><ele>25.42857142857143</ele><time>2026-04-25T08:40:14.889Z</time></trkpt><trkpt lat="42.1891" lon="14.650675"><ele>26.285714285714285</ele><time>2026-04-25T08:40:18.888Z</time></trkpt><trkpt lat="42.18907" lon="14.6507633"><ele>27.142857142857142</ele><time>2026-04-25T08:40:22.888Z</time></trkpt><trkpt lat="42.1890383" lon="14.65086"><ele>28.0</ele><time>2026-04-25T08:40:25.889Z</time></trkpt><trkpt lat="42.1890067" lon="14.6509617"><ele>30.857142857142858</ele><time>2026-04-25T08:40:29.888Z</time></trkpt><trkpt lat="42.18898" lon="14.6510567"><ele>33.714285714285715</ele><time>2026-04-25T08:40:33.889Z</time></trkpt><trkpt lat="42.1889467" lon="14.6511417"><ele>36.57142857142857</ele><time>2026-04-25T08:40:37.889Z</time></trkpt><trkpt lat="42.188915" lon="14.65124"><ele>39.42857142857143</ele><time>2026-04-25T08:40:41.889Z</time></trkpt><trkpt lat="42.1888717" lon="14.65132"><ele>42.285714285714285</ele><time>2026-04-25T08:40:45.889Z</time></trkpt><trkpt lat="42.1888167" lon="14.6514033"><ele>45.14285714285714</ele><time>2026-04-25T08:40:48.889Z</time></trkpt><trkpt lat="42.1887933" lon="14.6514833"><ele>48.0</ele><time>2026-04-25T08:40:51.889Z</time></trkpt><trkpt lat="42.1887817" lon="14.6515733"><ele>48.0</ele><time>2026-04-25T08:40:54.889Z</time></trkpt><trkpt lat="42.1887617" lon="14.6516833"><ele>48.0</ele><time>2026-04-25T08:40:58.888Z</time></trkpt><trkpt lat="42.188745" lon="14.6517833"><ele>48.0</ele><time>2026-04-25T08:41:02.888Z</time></trkpt><trkpt lat="42.1887267" lon="14.651895"><ele>48.0</ele><time>2026-04-25T08:41:05.889Z</time></trkpt><trkpt lat="42.1887067" lon="14.651995"><ele>48.0</ele><time>2026-04-25T08:41:07.889Z</time></trkpt><trkpt lat="42.1886817" lon="14.6521067"><ele>48.0</ele><time>2026-04-25T08:41:09.889Z</time></trkpt><trkpt lat="42.18865" lon="14.6521933"><ele>47.166666666666664</ele><time>2026-04-25T08:41:11.888Z</time></trkpt><trkpt lat="42.188605" lon="14.6522717"><ele>46.333333333333336</ele><time>2026-04-25T08:41:13.889Z</time></trkpt><trkpt lat="42.18857" lon="14.652365"><ele>45.5</ele><time>2026-04-25T08:41:15.889Z</time></trkpt><trkpt lat="42.1885183" lon="14.6524467"><ele>44.66666666666667</ele><time>2026-04-25T08:41:19.889Z</time></trkpt><trkpt lat="42.1884867" lon="14.65256"><ele>43.833333333333336</ele><time>2026-04-25T08:41:23.889Z</time></trkpt><trkpt lat="42.1884467" lon="14.6526733"><ele>43.0</ele><time>2026-04-25T08:41:27.889Z</time></trkpt><trkpt lat="42.1884167" lon="14.6527617"><ele>44.16666666666667</ele><time>2026-04-25T08:41:30.889Z</time></trkpt><trkpt lat="42.1883733" lon="14.6528283"><ele>45.333333333333336</ele><time>2026-04-25T08:41:33.889Z</time></trkpt><trkpt lat="42.1883333" lon="14.6529133"><ele>46.5</ele><time>2026-04-25T08:41:37.889Z</time></trkpt><trkpt lat="42.1882733" lon="14.653005"><ele>47.66666666666667</ele><time>2026-04-25T08:41:40.889Z</time></trkpt><trkpt lat="42.1882167" lon="14.6530533"><ele>48.833333333333336</ele><time>2026-04-25T08:41:42.889Z</time></trkpt><trkpt lat="42.1881633" lon="14.65312"><ele>50.0</ele><time>2026-04-25T08:41:46.889Z</time></trkpt><trkpt lat="42.1880967" lon="14.6531867"><ele>50.00000000000001</ele><time>2026-04-25T08:41:50.889Z</time></trkpt><trkpt lat="42.18804" lon="14.65324"><ele>50.0</ele><time>2026-04-25T08:41:53.889Z</time></trkpt><trkpt lat="42.1879983" lon="14.6533267"><ele>50.0</ele><time>2026-04-25T08:41:58.889Z</time></trkpt><trkpt lat="42.187945" lon="14.6533783"><ele>50.0</ele><time>2026-04-25T08:42:03.889Z</time></trkpt><trkpt lat="42.1878917" lon="14.6534333"><ele>50.0</ele><time>2026-04-25T08:42:06.888Z</time></trkpt><trkpt lat="42.187835" lon="14.653475"><ele>50.00000000000001</ele><time>2026-04-25T08:42:08.888Z</time></trkpt><trkpt lat="42.1877633" lon="14.6535467"><ele>50.0</ele><time>2026-04-25T08:42:11.889Z</time></trkpt><trkpt lat="42.1876983" lon="14.6535917"><ele>49.16666666666667</ele><time>2026-04-25T08:42:14.888Z</time></trkpt><trkpt lat="42.187655" lon="14.653655"><ele>48.333333333333336</ele><time>2026-04-25T08:42:17.889Z</time></trkpt><trkpt lat="42.1876167" lon="14.6537533"><ele>47.5</ele><time>2026-04-25T08:42:20.889Z</time></trkpt><trkpt lat="42.1875783" lon="14.6538417"><ele>46.66666666666667</ele><time>2026-04-25T08:42:23.889Z</time></trkpt><trkpt lat="42.1875217" lon="14.6539067"><ele>45.833333333333336</ele><time>2026-04-25T08:42:26.889Z</time></trkpt><trkpt lat="42.1874483" lon="14.6539767"><ele>45.0</ele><time>2026-04-25T08:42:29.889Z</time></trkpt><trkpt lat="42.1874" lon="14.654045"><ele>45.0</ele><time>2026-04-25T08:42:31.889Z</time></trkpt><trkpt lat="42.1873667" lon="14.6541183"><ele>45.0</ele><time>2026-04-25T08:42:33.889Z</time></trkpt><trkpt lat="42.1873383" lon="14.6542"><ele>45.0</ele><time>2026-04-25T08:42:35.889Z</time></trkpt><trkpt lat="42.1873117" lon="14.654295"><ele>45.0</ele><time>2026-04-25T08:42:37.889Z</time></trkpt><trkpt lat="42.1872783" lon="14.65439"><ele>45.0</ele><time>2026-04-25T08:42:39.888Z</time></trkpt><trkpt lat="42.1872383" lon="14.6544733"><ele>45.0</ele><time>2026-04-25T08:42:41.888Z</time></trkpt><trkpt lat="42.187195" lon="14.6545683"><ele>45.0</ele><time>2026-04-25T08:42:43.889Z</time></trkpt><trkpt lat="42.1871417" lon="14.65467"><ele>46.0</ele><time>2026-04-25T08:42:45.888Z</time></trkpt><trkpt lat="42.1870833" lon="14.6547533"><ele>47.0</ele><time>2026-04-25T08:42:47.888Z</time></trkpt><trkpt lat="42.1870033" lon="14.65481"><ele>48.0</ele><time>2026-04-25T08:42:49.889Z</time></trkpt><trkpt lat="42.1869133" lon="14.6548283"><ele>49.0</ele><time>2026-04-25T08:42:51.889Z</time></trkpt><trkpt lat="42.1868333" lon="14.6548267"><ele>50.0</ele><time>2026-04-25T08:42:53.888Z</time></trkpt><trkpt lat="42.1867667" lon="14.6548083"><ele>51.0</ele><time>2026-04-25T08:42:55.889Z</time></trkpt><trkpt lat="42.1867167" lon="14.6547533"><ele>51.0</ele><time>2026-04-25T08:42:57.889Z</time></trkpt><trkpt lat="42.186685" lon="14.6546783"><ele>51.0</ele><time>2026-04-25T08:42:59.889Z</time></trkpt><trkpt lat="42.186635" lon="14.654575"><ele>51.0</ele><time>2026-04-25T08:43:02.889Z</time></trkpt><trkpt lat="42.1865983" lon="14.654505"><ele>51.0</ele><time>2026-04-25T08:43:04.889Z</time></trkpt><trkpt lat="42.1865667" lon="14.6544283"><ele>51.0</ele><time>2026-04-25T08:43:06.888Z</time></trkpt><trkpt lat="42.1865333" lon="14.654355"><ele>51.0</ele><time>2026-04-25T08:43:08.889Z</time></trkpt><trkpt lat="42.1864967" lon="14.6542767"><ele>51.0</ele><time>2026-04-25T08:43:10.889Z</time></trkpt><trkpt lat="42.18646" lon="14.6542017"><ele>51.285714285714285</ele><time>2026-04-25T08:43:12.888Z</time></trkpt><trkpt lat="42.1864233" lon="14.654125"><ele>51.57142857142857</ele><time>2026-04-25T08:43:14.889Z</time></trkpt><trkpt lat="42.1863883" lon="14.65405"><ele>51.85714285714286</ele><time>2026-04-25T08:43:16.888Z</time></trkpt><trkpt lat="42.1863417" lon="14.653945"><ele>52.14285714285714</ele><time>2026-04-25T08:43:19.888Z</time></trkpt><trkpt lat="42.186305" lon="14.6538667"><ele>52.42857142857142</ele><time>2026-04-25T08:43:21.889Z</time></trkpt><trkpt lat="42.1862733" lon="14.6537883"><ele>52.714285714285715</ele><time>2026-04-25T08:43:23.889Z</time></trkpt><trkpt lat="42.1862417" lon="14.6537083"><ele>53.0</ele><time>2026-04-25T08:43:25.889Z</time></trkpt><trkpt lat="42.1862117" lon="14.6536317"><ele>53.16666666666667</ele><time>2026-04-25T08:43:27.889Z</time></trkpt><trkpt lat="42.1861717" lon="14.6535233"><ele>53.333333333333336</ele><time>2026-04-25T08:43:30.889Z</time></trkpt><trkpt lat="42.1861317" lon="14.6534083"><ele>53.5</ele><time>2026-04-25T08:43:33.889Z</time></trkpt><trkpt lat="42.1861017" lon="14.6532883"><ele>53.66666666666667</ele><time>2026-04-25T08:43:36.888Z</time></trkpt><trkpt lat="42.1860767" lon="14.6532067"><ele>53.833333333333336</ele><time>2026-04-25T08:43:38.888Z</time></trkpt><trkpt lat="42.186045" lon="14.65311"><ele>54.0</ele><time>2026-04-25T08:43:41.888Z</time></trkpt><trkpt lat="42.185985" lon="14.6530683"><ele>54.0</ele><time>2026-04-25T08:43:45.889Z</time></trkpt><trkpt lat="42.18602" lon="14.652995"><ele>54.0</ele><time>2026-04-25T08:45:00.889Z</time></trkpt><trkpt lat="42.1860533" lon="14.652915"><ele>54.0</ele><time>2026-04-25T08:45:03.889Z</time></trkpt><trkpt lat="42.18609" lon="14.65283"><ele>54.0</ele><time>2026-04-25T08:45:07.888Z</time></trkpt><trkpt lat="42.1861233" lon="14.6527467"><ele>54.0</ele><time>2026-04-25T08:45:11.889Z</time></trkpt><trkpt lat="42.1861433" lon="14.6526633"><ele>54.0</ele><time>2026-04-25T08:45:17.888Z</time></trkpt><trkpt lat="42.1861067" lon="14.652745"><ele>54.0</ele><time>2026-04-25T08:48:47.885Z</time></trkpt><trkpt lat="42.18606" lon="14.65285"><ele>54.0</ele><time>2026-04-25T08:48:50.884Z</time></trkpt><trkpt lat="42.1860267" lon="14.6529267"><ele>54.0</ele><time>2026-04-25T08:48:52.884Z</time></trkpt><trkpt lat="42.1859917" lon="14.6530067"><ele>54.0</ele><time>2026-04-25T08:48:54.885Z</time></trkpt><trkpt lat="42.1859517" lon="14.6530767"><ele>54.0</ele><time>2026-04-25T08:48:56.885Z</time></trkpt><trkpt lat="42.1859033" lon="14.653145"><ele>54.0</ele><time>2026-04-25T08:48:58.885Z</time></trkpt><trkpt lat="42.1858533" lon="14.65322"><ele>54.0</ele><time>2026-04-25T08:49:00.884Z</time></trkpt><trkpt lat="42.1857883" lon="14.6533083"><ele>54.0</ele><time>2026-04-25T08:49:02.885Z</time></trkpt><trkpt lat="42.1857183" lon="14.6534017"><ele>54.0</ele><time>2026-04-25T08:49:04.884Z</time></trkpt><trkpt lat="42.1856467" lon="14.65347"><ele>54.0</ele><time>2026-04-25T08:49:06.885Z</time></trkpt><trkpt lat="42.18556" lon="14.65353"><ele>54.0</ele><time>2026-04-25T08:49:08.884Z</time></trkpt><trkpt lat="42.185485" lon="14.65359"><ele>54.0</ele><time>2026-04-25T08:49:10.885Z</time></trkpt><trkpt lat="42.185415" lon="14.6536467"><ele>54.0</ele><time>2026-04-25T08:49:12.884Z</time></trkpt><trkpt lat="42.1853467" lon="14.6536967"><ele>54.0</ele><time>2026-04-25T08:49:14.885Z</time></trkpt><trkpt lat="42.1852783" lon="14.65375"><ele>53.800000000000004</ele><time>2026-04-25T08:49:16.885Z</time></trkpt><trkpt lat="42.1852067" lon="14.65381"><ele>53.60000000000001</ele><time>2026-04-25T08:49:18.885Z</time></trkpt><trkpt lat="42.1851367" lon="14.6538667"><ele>53.4</ele><time>2026-04-25T08:49:20.884Z</time></trkpt><trkpt lat="42.1850633" lon="14.65393"><ele>53.2</ele><time>2026-04-25T08:49:22.884Z</time></trkpt><trkpt lat="42.1849767" lon="14.6539983"><ele>53.0</ele><time>2026-04-25T08:49:24.885Z</time></trkpt><trkpt lat="42.1848883" lon="14.654065"><ele>53.4</ele><time>2026-04-25T08:49:26.884Z</time></trkpt><trkpt lat="42.1847933" lon="14.65414"><ele>53.8</ele><time>2026-04-25T08:49:28.884Z</time></trkpt><trkpt lat="42.1847117" lon="14.65421"><ele>54.2</ele><time>2026-04-25T08:49:30.885Z</time></trkpt><trkpt lat="42.18463" lon="14.6542767"><ele>54.6</ele><time>2026-04-25T08:49:32.884Z</time></trkpt><trkpt lat="42.1845433" lon="14.6543567"><ele>55.0</ele><time>2026-04-25T08:49:34.884Z</time></trkpt><trkpt lat="42.18445" lon="14.65443"><ele>54.8</ele><time>2026-04-25T08:49:36.885Z</time></trkpt><trkpt lat="42.1843583" lon="14.6545017"><ele>54.6</ele><time>2026-04-25T08:49:38.885Z</time></trkpt><trkpt lat="42.1842767" lon="14.6545767"><ele>54.400000000000006</ele><time>2026-04-25T08:49:40.884Z</time></trkpt><trkpt lat="42.1842" lon="14.6546433"><ele>54.2</ele><time>2026-04-25T08:49:42.885Z</time></trkpt><trkpt lat="42.1841217" lon="14.6547083"><ele>54.0</ele><time>2026-04-25T08:49:44.884Z</time></trkpt><trkpt lat="42.1840433" lon="14.65476"><ele>53.800000000000004</ele><time>2026-04-25T08:49:46.884Z</time></trkpt><trkpt lat="42.1839617" lon="14.65483"><ele>53.60000000000001</ele><time>2026-04-25T08:49:48.884Z</time></trkpt><trkpt lat="42.1838817" lon="14.6548883"><ele>53.4</ele><time>2026-04-25T08:49:50.885Z</time></trkpt><trkpt lat="42.1838067" lon="14.6549483"><ele>53.2</ele><time>2026-04-25T08:49:52.884Z</time></trkpt><trkpt lat="42.1837283" lon="14.6550167"><ele>53.0</ele><time>2026-04-25T08:49:54.885Z</time></trkpt><trkpt lat="42.183645" lon="14.6550883"><ele>53.0</ele><time>2026-04-25T08:49:56.884Z</time></trkpt><trkpt lat="42.1835633" lon="14.6551567"><ele>53.0</ele><time>2026-04-25T08:49:58.884Z</time></trkpt><trkpt lat="42.18348" lon="14.6552333"><ele>53.0</ele><time>2026-04-25T08:50:00.885Z</time></trkpt><trkpt lat="42.1833917" lon="14.6553033"><ele>53.0</ele><time>2026-04-25T08:50:02.885Z</time></trkpt><trkpt lat="42.1833067" lon="14.65538"><ele>53.0</ele><time>2026-04-25T08:50:04.885Z</time></trkpt><trkpt lat="42.1832167" lon="14.655445"><ele>53.2</ele><time>2026-04-25T08:50:06.885Z</time></trkpt><trkpt lat="42.18313" lon="14.65551"><ele>53.4</ele><time>2026-04-25T08:50:08.885Z</time></trkpt><trkpt lat="42.1830567" lon="14.6555833"><ele>53.60000000000001</ele><time>2026-04-25T08:50:10.885Z</time></trkpt><trkpt lat="42.1829767" lon="14.655655"><ele>53.800000000000004</ele><time>2026-04-25T08:50:12.885Z</time></trkpt><trkpt lat="42.1828917" lon="14.6557217"><ele>54.0</ele><time>2026-04-25T08:50:14.885Z</time></trkpt><trkpt lat="42.1828033" lon="14.65579"><ele>54.0</ele><time>2026-04-25T08:50:16.885Z</time></trkpt><trkpt lat="42.182715" lon="14.6558617"><ele>54.00000000000001</ele><time>2026-04-25T08:50:18.884Z</time></trkpt><trkpt lat="42.1826183" lon="14.6559333"><ele>54.00000000000001</ele><time>2026-04-25T08:50:20.884Z</time></trkpt><trkpt lat="42.1825267" lon="14.656015"><ele>54.0</ele><time>2026-04-25T08:50:22.885Z</time></trkpt><trkpt lat="42.1824483" lon="14.6560883"><ele>54.0</ele><time>2026-04-25T08:50:24.885Z</time></trkpt><trkpt lat="42.1823783" lon="14.65616"><ele>54.2</ele><time>2026-04-25T08:50:26.885Z</time></trkpt><trkpt lat="42.1823033" lon="14.6562433"><ele>54.400000000000006</ele><time>2026-04-25T08:50:28.884Z</time></trkpt><trkpt lat="42.18223" lon="14.656335"><ele>54.6</ele><time>2026-04-25T08:50:30.885Z</time></trkpt><trkpt lat="42.1821483" lon="14.6564167"><ele>54.8</ele><time>2026-04-25T08:50:32.884Z</time></trkpt><trkpt lat="42.1820717" lon="14.656495"><ele>55.0</ele><time>2026-04-25T08:50:34.884Z</time></trkpt><trkpt lat="42.181995" lon="14.6565783"><ele>55.0</ele><time>2026-04-25T08:50:36.885Z</time></trkpt><trkpt lat="42.1819217" lon="14.65666"><ele>55.0</ele><time>2026-04-25T08:50:38.885Z</time></trkpt><trkpt lat="42.181845" lon="14.656745"><ele>55.0</ele><time>2026-04-25T08:50:40.885Z</time></trkpt><trkpt lat="42.1817733" lon="14.6568283"><ele>55.0</ele><time>2026-04-25T08:50:42.885Z</time></trkpt><trkpt lat="42.1817" lon="14.6569133"><ele>55.0</ele><time>2026-04-25T08:50:44.885Z</time></trkpt><trkpt lat="42.1816233" lon="14.6570017"><ele>55.0</ele><time>2026-04-25T08:50:46.884Z</time></trkpt><trkpt lat="42.181545" lon="14.6570883"><ele>55.0</ele><time>2026-04-25T08:50:48.885Z</time></trkpt><trkpt lat="42.1814633" lon="14.6571783"><ele>55.0</ele><time>2026-04-25T08:50:50.885Z</time></trkpt><trkpt lat="42.1813817" lon="14.6572683"><ele>55.0</ele><time>2026-04-25T08:50:52.884Z</time></trkpt><trkpt lat="42.1813" lon="14.6573633"><ele>55.0</ele><time>2026-04-25T08:50:54.884Z</time></trkpt><trkpt lat="42.1812133" lon="14.6574517"><ele>55.0</ele><time>2026-04-25T08:50:56.885Z</time></trkpt><trkpt lat="42.18113" lon="14.6575367"><ele>55.0</ele><time>2026-04-25T08:50:58.884Z</time></trkpt><trkpt lat="42.1810517" lon="14.6576183"><ele>55.0</ele><time>2026-04-25T08:51:00.885Z</time></trkpt><trkpt lat="42.180975" lon="14.6576933"><ele>55.0</ele><time>2026-04-25T08:51:02.885Z</time></trkpt><trkpt lat="42.1808967" lon="14.6577733"><ele>55.0</ele><time>2026-04-25T08:51:04.885Z</time></trkpt><trkpt lat="42.1808117" lon="14.657855"><ele>54.8</ele><time>2026-04-25T08:51:06.885Z</time></trkpt><trkpt lat="42.1807167" lon="14.657925"><ele>54.6</ele><time>2026-04-25T08:51:08.885Z</time></trkpt><trkpt lat="42.1806217" lon="14.6579917"><ele>54.400000000000006</ele><time>2026-04-25T08:51:10.885Z</time></trkpt><trkpt lat="42.1805317" lon="14.6580617"><ele>54.2</ele><time>2026-04-25T08:51:12.885Z</time></trkpt><trkpt lat="42.1804483" lon="14.6581383"><ele>54.0</ele><time>2026-04-25T08:51:14.885Z</time></trkpt><trkpt lat="42.1803667" lon="14.6582167"><ele>54.0</ele><time>2026-04-25T08:51:16.885Z</time></trkpt><trkpt lat="42.1803017" lon="14.6583133"><ele>54.00000000000001</ele><time>2026-04-25T08:51:18.885Z</time></trkpt><trkpt lat="42.1802367" lon="14.6584317"><ele>54.00000000000001</ele><time>2026-04-25T08:51:20.885Z</time></trkpt><trkpt lat="42.1801567" lon="14.6585567"><ele>54.0</ele><time>2026-04-25T08:51:22.885Z</time></trkpt><trkpt lat="42.1801133" lon="14.6586233"><ele>54.0</ele><time>2026-04-25T08:51:23.884Z</time></trkpt><trkpt lat="42.1800617" lon="14.65869"><ele>53.857142857142854</ele><time>2026-04-25T08:51:24.885Z</time></trkpt><trkpt lat="42.1800167" lon="14.6587617"><ele>53.71428571428571</ele><time>2026-04-25T08:51:25.884Z</time></trkpt><trkpt lat="42.179975" lon="14.6588333"><ele>53.57142857142857</ele><time>2026-04-25T08:51:26.885Z</time></trkpt><trkpt lat="42.179935" lon="14.658905"><ele>53.42857142857143</ele><time>2026-04-25T08:51:27.884Z</time></trkpt><trkpt lat="42.1799017" lon="14.6589783"><ele>53.285714285714285</ele><time>2026-04-25T08:51:28.885Z</time></trkpt><trkpt lat="42.1798617" lon="14.659055"><ele>53.142857142857146</ele><time>2026-04-25T08:51:29.885Z</time></trkpt><trkpt lat="42.1798233" lon="14.6591267"><ele>53.0</ele><time>2026-04-25T08:51:30.884Z</time></trkpt><trkpt lat="42.1797467" lon="14.65926"><ele>52.75</ele><time>2026-04-25T08:51:32.884Z</time></trkpt><trkpt lat="42.1796767" lon="14.659395"><ele>52.5</ele><time>2026-04-25T08:51:34.884Z</time></trkpt><trkpt lat="42.1796167" lon="14.6595233"><ele>52.25</ele><time>2026-04-25T08:51:36.884Z</time></trkpt><trkpt lat="42.1795433" lon="14.659655"><ele>52.0</ele><time>2026-04-25T08:51:38.885Z</time></trkpt><trkpt lat="42.1794667" lon="14.6597867"><ele>51.5</ele><time>2026-04-25T08:51:40.884Z</time></trkpt><trkpt lat="42.1793883" lon="14.6599167"><ele>51.0</ele><time>2026-04-25T08:51:42.884Z</time></trkpt><trkpt lat="42.1793033" lon="14.6600583"><ele>50.5</ele><time>2026-04-25T08:51:44.884Z</time></trkpt><trkpt lat="42.1792633" lon="14.6601267"><ele>50.0</ele><time>2026-04-25T08:51:45.884Z</time></trkpt><trkpt lat="42.1791833" lon="14.6602583"><ele>50.0</ele><time>2026-04-25T08:51:47.885Z</time></trkpt><trkpt lat="42.1791017" lon="14.6603883"><ele>50.0</ele><time>2026-04-25T08:51:49.885Z</time></trkpt><trkpt lat="42.1790633" lon="14.6604583"><ele>50.0</ele><time>2026-04-25T08:51:50.885Z</time></trkpt><trkpt lat="42.1789933" lon="14.6605817"><ele>50.0</ele><time>2026-04-25T08:51:52.885Z</time></trkpt><trkpt lat="42.1789333" lon="14.6607033"><ele>50.0</ele><time>2026-04-25T08:51:54.885Z</time></trkpt><trkpt lat="42.17888" lon="14.6608333"><ele>50.0</ele><time>2026-04-25T08:51:56.885Z</time></trkpt><trkpt lat="42.1788417" lon="14.6609617"><ele>50.0</ele><time>2026-04-25T08:51:58.885Z</time></trkpt><trkpt lat="42.1788067" lon="14.6610983"><ele>50.0</ele><time>2026-04-25T08:52:00.884Z</time></trkpt><trkpt lat="42.1787817" lon="14.6612533"><ele>50.0</ele><time>2026-04-25T08:52:02.884Z</time></trkpt><trkpt lat="42.1787567" lon="14.6614017"><ele>50.0</ele><time>2026-04-25T08:52:04.885Z</time></trkpt><trkpt lat="42.178725" lon="14.6615533"><ele>50.2</ele><time>2026-04-25T08:52:06.885Z</time></trkpt><trkpt lat="42.1787017" lon="14.6617067"><ele>50.4</ele><time>2026-04-25T08:52:08.885Z</time></trkpt><trkpt lat="42.1786817" lon="14.6618483"><ele>50.599999999999994</ele><time>2026-04-25T08:52:10.884Z</time></trkpt><trkpt lat="42.17866" lon="14.661985"><ele>50.8</ele><time>2026-04-25T08:52:12.885Z</time></trkpt><trkpt lat="42.1786417" lon="14.6621217"><ele>51.0</ele><time>2026-04-25T08:52:14.884Z</time></trkpt><trkpt lat="42.1786217" lon="14.6622467"><ele>50.599999999999994</ele><time>2026-04-25T08:52:16.884Z</time></trkpt><trkpt lat="42.1785917" lon="14.6623767"><ele>50.2</ele><time>2026-04-25T08:52:18.885Z</time></trkpt><trkpt lat="42.1785583" lon="14.6625167"><ele>49.8</ele><time>2026-04-25T08:52:20.885Z</time></trkpt><trkpt lat="42.1785283" lon="14.66263"><ele>49.400000000000006</ele><time>2026-04-25T08:52:22.885Z</time></trkpt><trkpt lat="42.178485" lon="14.66275"><ele>49.0</ele><time>2026-04-25T08:52:24.885Z</time></trkpt><trkpt lat="42.1784283" lon="14.6628833"><ele>49.0</ele><time>2026-04-25T08:52:26.884Z</time></trkpt><trkpt lat="42.1783767" lon="14.6630017"><ele>49.0</ele><time>2026-04-25T08:52:28.885Z</time></trkpt><trkpt lat="42.1783217" lon="14.663115"><ele>49.0</ele><time>2026-04-25T08:52:30.885Z</time></trkpt><trkpt lat="42.1782683" lon="14.6632367"><ele>49.0</ele><time>2026-04-25T08:52:32.885Z</time></trkpt><trkpt lat="42.1782117" lon="14.66334"><ele>49.0</ele><time>2026-04-25T08:52:34.885Z</time></trkpt><trkpt lat="42.1781633" lon="14.6634417"><ele>49.0</ele><time>2026-04-25T08:52:36.885Z</time></trkpt><trkpt lat="42.1781083" lon="14.663545"><ele>49.0</ele><time>2026-04-25T08:52:38.885Z</time></trkpt><trkpt lat="42.1780483" lon="14.6636517"><ele>49.0</ele><time>2026-04-25T08:52:40.884Z</time></trkpt><trkpt lat="42.1779933" lon="14.663765"><ele>49.0</ele><time>2026-04-25T08:52:42.885Z</time></trkpt><trkpt lat="42.17793" lon="14.6638833"><ele>49.0</ele><time>2026-04-25T08:52:44.885Z</time></trkpt><trkpt lat="42.17787" lon="14.6640033"><ele>48.800000000000004</ele><time>2026-04-25T08:52:46.885Z</time></trkpt><trkpt lat="42.17781" lon="14.66412"><ele>48.6</ele><time>2026-04-25T08:52:48.884Z</time></trkpt><trkpt lat="42.17776" lon="14.6642317"><ele>48.4</ele><time>2026-04-25T08:52:50.885Z</time></trkpt><trkpt lat="42.1777033" lon="14.6643433"><ele>48.2</ele><time>2026-04-25T08:52:52.885Z</time></trkpt><trkpt lat="42.1776433" lon="14.66445"><ele>48.0</ele><time>2026-04-25T08:52:54.885Z</time></trkpt><trkpt lat="42.177565" lon="14.664555"><ele>47.8</ele><time>2026-04-25T08:52:56.885Z</time></trkpt><trkpt lat="42.1774917" lon="14.6646583"><ele>47.599999999999994</ele><time>2026-04-25T08:52:58.885Z</time></trkpt><trkpt lat="42.177415" lon="14.66476"><ele>47.400000000000006</ele><time>2026-04-25T08:53:00.885Z</time></trkpt><trkpt lat="42.177335" lon="14.6648517"><ele>47.2</ele><time>2026-04-25T08:53:02.884Z</time></trkpt><trkpt lat="42.1772717" lon="14.6649283"><ele>47.0</ele><time>2026-04-25T08:53:04.885Z</time></trkpt><trkpt lat="42.177195" lon="14.66501"><ele>47.400000000000006</ele><time>2026-04-25T08:53:06.885Z</time></trkpt><trkpt lat="42.1771183" lon="14.66511"><ele>47.800000000000004</ele><time>2026-04-25T08:53:08.885Z</time></trkpt><trkpt lat="42.1770333" lon="14.6652017"><ele>48.2</ele><time>2026-04-25T08:53:10.885Z</time></trkpt><trkpt lat="42.1769517" lon="14.6652983"><ele>48.6</ele><time>2026-04-25T08:53:12.885Z</time></trkpt><trkpt lat="42.176875" lon="14.6653883"><ele>49.0</ele><time>2026-04-25T08:53:14.885Z</time></trkpt><trkpt lat="42.1768033" lon="14.665465"><ele>49.0</ele><time>2026-04-25T08:53:16.885Z</time></trkpt><trkpt lat="42.1767267" lon="14.665555"><ele>49.0</ele><time>2026-04-25T08:53:18.884Z</time></trkpt><trkpt lat="42.1766467" lon="14.6656483"><ele>49.0</ele><time>2026-04-25T08:53:20.885Z</time></trkpt><trkpt lat="42.176585" lon="14.6657317"><ele>49.0</ele><time>2026-04-25T08:53:22.885Z</time></trkpt><trkpt lat="42.1765117" lon="14.6658117"><ele>49.0</ele><time>2026-04-25T08:53:24.885Z</time></trkpt><trkpt lat="42.1764433" lon="14.6658867"><ele>49.0</ele><time>2026-04-25T08:53:26.884Z</time></trkpt><trkpt lat="42.1763733" lon="14.6659683"><ele>49.0</ele><time>2026-04-25T08:53:28.884Z</time></trkpt><trkpt lat="42.1763" lon="14.6660367"><ele>49.0</ele><time>2026-04-25T08:53:30.884Z</time></trkpt><trkpt lat="42.1762117" lon="14.6661217"><ele>49.0</ele><time>2026-04-25T08:53:32.884Z</time></trkpt><trkpt lat="42.1761217" lon="14.6661967"><ele>49.0</ele><time>2026-04-25T08:53:34.884Z</time></trkpt><trkpt lat="42.1760117" lon="14.6662667"><ele>48.49999999999999</ele><time>2026-04-25T08:53:36.883Z</time></trkpt><trkpt lat="42.17595" lon="14.6663067"><ele>48.0</ele><time>2026-04-25T08:53:37.883Z</time></trkpt><trkpt lat="42.1758867" lon="14.66635"><ele>47.5</ele><time>2026-04-25T08:53:38.884Z</time></trkpt><trkpt lat="42.1758267" lon="14.6663883"><ele>47.0</ele><time>2026-04-25T08:53:39.883Z</time></trkpt><trkpt lat="42.1757533" lon="14.6664383"><ele>46.5</ele><time>2026-04-25T08:53:40.883Z</time></trkpt><trkpt lat="42.17568" lon="14.6664917"><ele>46.0</ele><time>2026-04-25T08:53:41.884Z</time></trkpt><trkpt lat="42.17561" lon="14.6665583"><ele>45.4</ele><time>2026-04-25T08:53:42.884Z</time></trkpt><trkpt lat="42.1755417" lon="14.6666267"><ele>44.8</ele><time>2026-04-25T08:53:43.884Z</time></trkpt><trkpt lat="42.1754683" lon="14.6666967"><ele>44.199999999999996</ele><time>2026-04-25T08:53:44.883Z</time></trkpt><trkpt lat="42.1754017" lon="14.6667717"><ele>43.599999999999994</ele><time>2026-04-25T08:53:45.883Z</time></trkpt><trkpt lat="42.1753217" lon="14.6668567"><ele>43.0</ele><time>2026-04-25T08:53:46.884Z</time></trkpt><trkpt lat="42.1752417" lon="14.6669517"><ele>42.599999999999994</ele><time>2026-04-25T08:53:47.884Z</time></trkpt><trkpt lat="42.1751583" lon="14.6670383"><ele>42.199999999999996</ele><time>2026-04-25T08:53:48.884Z</time></trkpt><trkpt lat="42.1750767" lon="14.6671267"><ele>41.8</ele><time>2026-04-25T08:53:49.883Z</time></trkpt><trkpt lat="42.175" lon="14.6672167"><ele>41.4</ele><time>2026-04-25T08:53:50.884Z</time></trkpt><trkpt lat="42.1749217" lon="14.6673067"><ele>41.0</ele><time>2026-04-25T08:53:51.883Z</time></trkpt><trkpt lat="42.1748467" lon="14.6673917"><ele>41.666666666666664</ele><time>2026-04-25T08:53:52.884Z</time></trkpt><trkpt lat="42.1747767" lon="14.6674717"><ele>42.33333333333333</ele><time>2026-04-25T08:53:53.884Z</time></trkpt><trkpt lat="42.1747117" lon="14.667545"><ele>43.0</ele><time>2026-04-25T08:53:54.884Z</time></trkpt><trkpt lat="42.174655" lon="14.66762"><ele>43.666666666666664</ele><time>2026-04-25T08:53:55.884Z</time></trkpt><trkpt lat="42.1746" lon="14.667685"><ele>44.333333333333336</ele><time>2026-04-25T08:53:56.883Z</time></trkpt><trkpt lat="42.1745433" lon="14.66775"><ele>45.0</ele><time>2026-04-25T08:53:57.883Z</time></trkpt><trkpt lat="42.17449" lon="14.6678083"><ele>45.4</ele><time>2026-04-25T08:53:58.883Z</time></trkpt><trkpt lat="42.1744083" lon="14.6679117"><ele>45.8</ele><time>2026-04-25T08:54:00.884Z</time></trkpt><trkpt lat="42.174355" lon="14.668"><ele>46.2</ele><time>2026-04-25T08:54:02.884Z</time></trkpt><trkpt lat="42.1743233" lon="14.6681017"><ele>46.6</ele><time>2026-04-25T08:54:04.884Z</time></trkpt><trkpt lat="42.1742983" lon="14.668215"><ele>47.0</ele><time>2026-04-25T08:54:06.884Z</time></trkpt><trkpt lat="42.1742867" lon="14.6683317"><ele>47.0</ele><time>2026-04-25T08:54:08.884Z</time></trkpt><trkpt lat="42.1742733" lon="14.668445"><ele>47.0</ele><time>2026-04-25T08:54:10.884Z</time></trkpt><trkpt lat="42.1742683" lon="14.66855"><ele>47.0</ele><time>2026-04-25T08:54:12.883Z</time></trkpt><trkpt lat="42.1742533" lon="14.6686433"><ele>47.0</ele><time>2026-04-25T08:54:14.884Z</time></trkpt><trkpt lat="42.1742367" lon="14.6687533"><ele>47.0</ele><time>2026-04-25T08:54:16.884Z</time></trkpt><trkpt lat="42.1742183" lon="14.6688617"><ele>47.0</ele><time>2026-04-25T08:54:18.883Z</time></trkpt><trkpt lat="42.1741933" lon="14.6689733"><ele>47.0</ele><time>2026-04-25T08:54:20.883Z</time></trkpt><trkpt lat="42.1741683" lon="14.6691"><ele>47.0</ele><time>2026-04-25T08:54:22.883Z</time></trkpt><trkpt lat="42.1741383" lon="14.66922"><ele>47.0</ele><time>2026-04-25T08:54:24.884Z</time></trkpt><trkpt lat="42.1741" lon="14.66934"><ele>47.0</ele><time>2026-04-25T08:54:26.884Z</time></trkpt><trkpt lat="42.1740617" lon="14.66945"><ele>47.0</ele><time>2026-04-25T08:54:28.883Z</time></trkpt><trkpt lat="42.1740183" lon="14.6695567"><ele>47.2</ele><time>2026-04-25T08:54:30.883Z</time></trkpt><trkpt lat="42.1739717" lon="14.6696733"><ele>47.400000000000006</ele><time>2026-04-25T08:54:32.883Z</time></trkpt><trkpt lat="42.173925" lon="14.6697917"><ele>47.599999999999994</ele><time>2026-04-25T08:54:34.884Z</time></trkpt><trkpt lat="42.1738717" lon="14.669915"><ele>47.8</ele><time>2026-04-25T08:54:36.884Z</time></trkpt><trkpt lat="42.1738167" lon="14.6700417"><ele>48.0</ele><time>2026-04-25T08:54:38.883Z</time></trkpt><trkpt lat="42.1737617" lon="14.6701633"><ele>47.8</ele><time>2026-04-25T08:54:40.883Z</time></trkpt><trkpt lat="42.17372" lon="14.670285"><ele>47.599999999999994</ele><time>2026-04-25T08:54:42.883Z</time></trkpt><trkpt lat="42.17368" lon="14.6703967"><ele>47.400000000000006</ele><time>2026-04-25T08:54:44.883Z</time></trkpt><trkpt lat="42.17363" lon="14.6705233"><ele>47.2</ele><time>2026-04-25T08:54:46.884Z</time></trkpt><trkpt lat="42.17357" lon="14.6706517"><ele>47.0</ele><time>2026-04-25T08:54:48.883Z</time></trkpt><trkpt lat="42.1735117" lon="14.6707917"><ele>47.0</ele><time>2026-04-25T08:54:50.884Z</time></trkpt><trkpt lat="42.1734517" lon="14.670945"><ele>47.0</ele><time>2026-04-25T08:54:52.884Z</time></trkpt><trkpt lat="42.1734183" lon="14.6710217"><ele>47.0</ele><time>2026-04-25T08:54:53.884Z</time></trkpt><trkpt lat="42.1733867" lon="14.6711017"><ele>47.0</ele><time>2026-04-25T08:54:54.884Z</time></trkpt><trkpt lat="42.1733517" lon="14.6711783"><ele>47.0</ele><time>2026-04-25T08:54:55.884Z</time></trkpt><trkpt lat="42.1733183" lon="14.6712617"><ele>47.0</ele><time>2026-04-25T08:54:56.883Z</time></trkpt><trkpt lat="42.1732867" lon="14.6713517"><ele>46.5</ele><time>2026-04-25T08:54:57.883Z</time></trkpt><trkpt lat="42.17325" lon="14.6714417"><ele>46.0</ele><time>2026-04-25T08:54:58.884Z</time></trkpt><trkpt lat="42.1732033" lon="14.6715283"><ele>45.5</ele><time>2026-04-25T08:54:59.884Z</time></trkpt><trkpt lat="42.1731567" lon="14.67162"><ele>45.0</ele><time>2026-04-25T08:55:00.884Z</time></trkpt><trkpt lat="42.1731133" lon="14.6717167"><ele>44.5</ele><time>2026-04-25T08:55:01.883Z</time></trkpt><trkpt lat="42.1730733" lon="14.6718133"><ele>44.0</ele><time>2026-04-25T08:55:02.884Z</time></trkpt><trkpt lat="42.17303" lon="14.6719183"><ele>44.0</ele><time>2026-04-25T08:55:03.884Z</time></trkpt><trkpt lat="42.1729817" lon="14.67202"><ele>44.0</ele><time>2026-04-25T08:55:04.884Z</time></trkpt><trkpt lat="42.1729417" lon="14.672115"><ele>44.0</ele><time>2026-04-25T08:55:05.883Z</time></trkpt><trkpt lat="42.1729" lon="14.6722117"><ele>44.0</ele><time>2026-04-25T08:55:06.883Z</time></trkpt><trkpt lat="42.17286" lon="14.672305"><ele>44.0</ele><time>2026-04-25T08:55:07.884Z</time></trkpt><trkpt lat="42.17282" lon="14.6724017"><ele>44.0</ele><time>2026-04-25T08:55:08.884Z</time></trkpt><trkpt lat="42.1727783" lon="14.6725067"><ele>44.0</ele><time>2026-04-25T08:55:09.884Z</time></trkpt><trkpt lat="42.1727383" lon="14.6725983"><ele>44.0</ele><time>2026-04-25T08:55:10.884Z</time></trkpt><trkpt lat="42.1726933" lon="14.6726867"><ele>44.0</ele><time>2026-04-25T08:55:11.883Z</time></trkpt><trkpt lat="42.1726517" lon="14.672765"><ele>44.0</ele><time>2026-04-25T08:55:12.884Z</time></trkpt><trkpt lat="42.1726167" lon="14.6728383"><ele>44.0</ele><time>2026-04-25T08:55:13.884Z</time></trkpt><trkpt lat="42.1725467" lon="14.6729483"><ele>44.0</ele><time>2026-04-25T08:55:15.883Z</time></trkpt><trkpt lat="42.1724567" lon="14.6730533"><ele>44.0</ele><time>2026-04-25T08:55:17.884Z</time></trkpt><trkpt lat="42.1723733" lon="14.67315"><ele>44.0</ele><time>2026-04-25T08:55:19.884Z</time></trkpt><trkpt lat="42.172295" lon="14.673245"><ele>44.0</ele><time>2026-04-25T08:55:21.884Z</time></trkpt><trkpt lat="42.172225" lon="14.6733367"><ele>44.0</ele><time>2026-04-25T08:55:23.884Z</time></trkpt><trkpt lat="42.17216" lon="14.6734317"><ele>44.0</ele><time>2026-04-25T08:55:25.884Z</time></trkpt><trkpt lat="42.1721033" lon="14.6735217"><ele>44.6</ele><time>2026-04-25T08:55:27.884Z</time></trkpt><trkpt lat="42.172035" lon="14.673625"><ele>45.2</ele><time>2026-04-25T08:55:29.884Z</time></trkpt><trkpt lat="42.1719733" lon="14.673725"><ele>45.800000000000004</ele><time>2026-04-25T08:55:31.884Z</time></trkpt><trkpt lat="42.1719183" lon="14.6738417"><ele>46.400000000000006</ele><time>2026-04-25T08:55:33.883Z</time></trkpt><trkpt lat="42.1718667" lon="14.67395"><ele>47.0</ele><time>2026-04-25T08:55:35.884Z</time></trkpt><trkpt lat="42.1718117" lon="14.6740583"><ele>47.0</ele><time>2026-04-25T08:55:37.883Z</time></trkpt><trkpt lat="42.1717583" lon="14.67417"><ele>47.0</ele><time>2026-04-25T08:55:39.884Z</time></trkpt><trkpt lat="42.1717033" lon="14.6742817"><ele>47.0</ele><time>2026-04-25T08:55:41.884Z</time></trkpt><trkpt lat="42.1716483" lon="14.6743967"><ele>47.0</ele><time>2026-04-25T08:55:43.884Z</time></trkpt><trkpt lat="42.1715867" lon="14.6745083"><ele>47.0</ele><time>2026-04-25T08:55:45.884Z</time></trkpt><trkpt lat="42.1715267" lon="14.6746117"><ele>47.2</ele><time>2026-04-25T08:55:47.883Z</time></trkpt><trkpt lat="42.1714583" lon="14.67471"><ele>47.400000000000006</ele><time>2026-04-25T08:55:49.883Z</time></trkpt><trkpt lat="42.17139" lon="14.6748"><ele>47.599999999999994</ele><time>2026-04-25T08:55:51.883Z</time></trkpt><trkpt lat="42.17131" lon="14.6748817"><ele>47.8</ele><time>2026-04-25T08:55:53.884Z</time></trkpt><trkpt lat="42.1712233" lon="14.6749633"><ele>48.0</ele><time>2026-04-25T08:55:55.884Z</time></trkpt><trkpt lat="42.1711367" lon="14.67504"><ele>48.0</ele><time>2026-04-25T08:55:57.883Z</time></trkpt><trkpt lat="42.1710433" lon="14.675125"><ele>48.0</ele><time>2026-04-25T08:55:59.883Z</time></trkpt><trkpt lat="42.1709533" lon="14.6752033"><ele>48.0</ele><time>2026-04-25T08:56:01.883Z</time></trkpt><trkpt lat="42.17086" lon="14.6752867"><ele>48.0</ele><time>2026-04-25T08:56:03.884Z</time></trkpt><trkpt lat="42.1707633" lon="14.6753767"><ele>48.0</ele><time>2026-04-25T08:56:05.883Z</time></trkpt><trkpt lat="42.1706717" lon="14.6754617"><ele>48.599999999999994</ele><time>2026-04-25T08:56:07.884Z</time></trkpt><trkpt lat="42.1705833" lon="14.6755417"><ele>49.199999999999996</ele><time>2026-04-25T08:56:09.883Z</time></trkpt><trkpt lat="42.1704933" lon="14.6756283"><ele>49.8</ele><time>2026-04-25T08:56:11.884Z</time></trkpt><trkpt lat="42.1704017" lon="14.6757133"><ele>50.4</ele><time>2026-04-25T08:56:13.884Z</time></trkpt><trkpt lat="42.17031" lon="14.6757917"><ele>51.0</ele><time>2026-04-25T08:56:15.884Z</time></trkpt><trkpt lat="42.1702167" lon="14.6758717"><ele>51.0</ele><time>2026-04-25T08:56:17.884Z</time></trkpt><trkpt lat="42.17013" lon="14.6759517"><ele>51.0</ele><time>2026-04-25T08:56:19.884Z</time></trkpt><trkpt lat="42.1700433" lon="14.6760333"><ele>51.0</ele><time>2026-04-25T08:56:21.884Z</time></trkpt><trkpt lat="42.1699567" lon="14.6761167"><ele>51.0</ele><time>2026-04-25T08:56:23.884Z</time></trkpt><trkpt lat="42.16987" lon="14.67619"><ele>51.0</ele><time>2026-04-25T08:56:25.883Z</time></trkpt><trkpt lat="42.16978" lon="14.6762717"><ele>50.599999999999994</ele><time>2026-04-25T08:56:27.883Z</time></trkpt><trkpt lat="42.169695" lon="14.6763467"><ele>50.2</ele><time>2026-04-25T08:56:29.884Z</time></trkpt><trkpt lat="42.1696083" lon="14.676425"><ele>49.8</ele><time>2026-04-25T08:56:31.883Z</time></trkpt><trkpt lat="42.169515" lon="14.6765083"><ele>49.400000000000006</ele><time>2026-04-25T08:56:33.883Z</time></trkpt><trkpt lat="42.1694267" lon="14.676595"><ele>49.0</ele><time>2026-04-25T08:56:35.883Z</time></trkpt><trkpt lat="42.1693383" lon="14.676685"><ele>49.0</ele><time>2026-04-25T08:56:37.884Z</time></trkpt><trkpt lat="42.1692483" lon="14.6767617"><ele>49.0</ele><time>2026-04-25T08:56:39.883Z</time></trkpt><trkpt lat="42.1691617" lon="14.676845"><ele>49.0</ele><time>2026-04-25T08:56:41.884Z</time></trkpt><trkpt lat="42.1690633" lon="14.6769383"><ele>49.0</ele><time>2026-04-25T08:56:43.884Z</time></trkpt><trkpt lat="42.1689633" lon="14.6770283"><ele>49.400000000000006</ele><time>2026-04-25T08:56:45.884Z</time></trkpt><trkpt lat="42.1688717" lon="14.67711"><ele>49.8</ele><time>2026-04-25T08:56:47.884Z</time></trkpt><trkpt lat="42.1687817" lon="14.6771917"><ele>50.2</ele><time>2026-04-25T08:56:49.884Z</time></trkpt><trkpt lat="42.1687067" lon="14.6772817"><ele>50.599999999999994</ele><time>2026-04-25T08:56:51.884Z</time></trkpt><trkpt lat="42.1686283" lon="14.6773683"><ele>51.0</ele><time>2026-04-25T08:56:53.884Z</time></trkpt><trkpt lat="42.1685567" lon="14.6774467"><ele>51.0</ele><time>2026-04-25T08:56:55.884Z</time></trkpt><trkpt lat="42.1684933" lon="14.6775267"><ele>51.0</ele><time>2026-04-25T08:56:57.884Z</time></trkpt><trkpt lat="42.1684283" lon="14.6776117"><ele>51.0</ele><time>2026-04-25T08:56:59.884Z</time></trkpt><trkpt lat="42.1683467" lon="14.6777083"><ele>51.0</ele><time>2026-04-25T08:57:01.883Z</time></trkpt><trkpt lat="42.168265" lon="14.6778067"><ele>51.0</ele><time>2026-04-25T08:57:03.884Z</time></trkpt><trkpt lat="42.1681833" lon="14.6779"><ele>50.199999999999996</ele><time>2026-04-25T08:57:05.884Z</time></trkpt><trkpt lat="42.1681083" lon="14.6779983"><ele>49.4</ele><time>2026-04-25T08:57:07.884Z</time></trkpt><trkpt lat="42.168035" lon="14.6780867"><ele>48.6</ele><time>2026-04-25T08:57:09.883Z</time></trkpt><trkpt lat="42.16796" lon="14.678185"><ele>47.8</ele><time>2026-04-25T08:57:11.884Z</time></trkpt><trkpt lat="42.167865" lon="14.67829"><ele>47.0</ele><time>2026-04-25T08:57:13.883Z</time></trkpt><trkpt lat="42.167815" lon="14.6783467"><ele>47.0</ele><time>2026-04-25T08:57:14.884Z</time></trkpt><trkpt lat="42.16776" lon="14.6783967"><ele>47.0</ele><time>2026-04-25T08:57:15.883Z</time></trkpt><trkpt lat="42.1677" lon="14.6784467"><ele>47.0</ele><time>2026-04-25T08:57:16.884Z</time></trkpt><trkpt lat="42.16764" lon="14.6784933"><ele>47.0</ele><time>2026-04-25T08:57:17.883Z</time></trkpt><trkpt lat="42.16757" lon="14.6785367"><ele>47.0</ele><time>2026-04-25T08:57:18.884Z</time></trkpt><trkpt lat="42.16749" lon="14.6785817"><ele>47.0</ele><time>2026-04-25T08:57:19.884Z</time></trkpt><trkpt lat="42.167405" lon="14.6786133"><ele>46.33333333333333</ele><time>2026-04-25T08:57:20.883Z</time></trkpt><trkpt lat="42.1673167" lon="14.6786267"><ele>45.666666666666664</ele><time>2026-04-25T08:57:21.884Z</time></trkpt><trkpt lat="42.1672317" lon="14.6786317"><ele>45.0</ele><time>2026-04-25T08:57:22.883Z</time></trkpt><trkpt lat="42.167155" lon="14.6786333"><ele>44.333333333333336</ele><time>2026-04-25T08:57:23.883Z</time></trkpt><trkpt lat="42.167085" lon="14.6786317"><ele>43.66666666666667</ele><time>2026-04-25T08:57:24.883Z</time></trkpt><trkpt lat="42.1670133" lon="14.6786367"><ele>43.0</ele><time>2026-04-25T08:57:25.883Z</time></trkpt><trkpt lat="42.1669467" lon="14.678645"><ele>43.0</ele><time>2026-04-25T08:57:26.883Z</time></trkpt><trkpt lat="42.1668783" lon="14.67867"><ele>43.0</ele><time>2026-04-25T08:57:27.883Z</time></trkpt><trkpt lat="42.1667717" lon="14.6787633"><ele>43.0</ele><time>2026-04-25T08:57:29.884Z</time></trkpt><trkpt lat="42.166725" lon="14.6789117"><ele>43.0</ele><time>2026-04-25T08:57:31.884Z</time></trkpt><trkpt lat="42.16674" lon="14.6790767"><ele>43.0</ele><time>2026-04-25T08:57:33.884Z</time></trkpt><trkpt lat="42.166795" lon="14.6792433"><ele>43.0</ele><time>2026-04-25T08:57:35.883Z</time></trkpt><trkpt lat="42.1668367" lon="14.67933"><ele>43.0</ele><time>2026-04-25T08:57:36.884Z</time></trkpt><trkpt lat="42.1668733" lon="14.6794083"><ele>43.0</ele><time>2026-04-25T08:57:37.884Z</time></trkpt><trkpt lat="42.166915" lon="14.6794983"><ele>43.0</ele><time>2026-04-25T08:57:38.884Z</time></trkpt><trkpt lat="42.1669517" lon="14.6795917"><ele>43.0</ele><time>2026-04-25T08:57:39.883Z</time></trkpt><trkpt lat="42.1669817" lon="14.679685"><ele>43.0</ele><time>2026-04-25T08:57:40.884Z</time></trkpt><trkpt lat="42.1669983" lon="14.67978"><ele>43.4</ele><time>2026-04-25T08:57:41.883Z</time></trkpt><trkpt lat="42.1670017" lon="14.6798767"><ele>43.8</ele><time>2026-04-25T08:57:42.884Z</time></trkpt><trkpt lat="42.166995" lon="14.6799617"><ele>44.2</ele><time>2026-04-25T08:57:43.884Z</time></trkpt><trkpt lat="42.1669867" lon="14.6800567"><ele>44.6</ele><time>2026-04-25T08:57:44.884Z</time></trkpt><trkpt lat="42.166955" lon="14.6802317"><ele>45.0</ele><time>2026-04-25T08:57:46.884Z</time></trkpt><trkpt lat="42.1669217" lon="14.6803867"><ele>45.0</ele><time>2026-04-25T08:57:48.884Z</time></trkpt><trkpt lat="42.1668883" lon="14.68053"><ele>45.0</ele><time>2026-04-25T08:57:50.884Z</time></trkpt><trkpt lat="42.16685" lon="14.6806433"><ele>45.0</ele><time>2026-04-25T08:57:52.884Z</time></trkpt><trkpt lat="42.1668233" lon="14.6807517"><ele>45.0</ele><time>2026-04-25T08:57:54.884Z</time></trkpt><trkpt lat="42.1667833" lon="14.6808667"><ele>45.0</ele><time>2026-04-25T08:57:56.884Z</time></trkpt><trkpt lat="42.1667383" lon="14.6809917"><ele>45.4</ele><time>2026-04-25T08:57:58.883Z</time></trkpt><trkpt lat="42.16668" lon="14.6811183"><ele>45.8</ele><time>2026-04-25T08:58:00.883Z</time></trkpt><trkpt lat="42.1666167" lon="14.681235"><ele>46.2</ele><time>2026-04-25T08:58:02.884Z</time></trkpt><trkpt lat="42.166575" lon="14.6813483"><ele>46.6</ele><time>2026-04-25T08:58:04.884Z</time></trkpt><trkpt lat="42.1665417" lon="14.6814617"><ele>47.0</ele><time>2026-04-25T08:58:06.884Z</time></trkpt><trkpt lat="42.166525" lon="14.6815767"><ele>47.57142857142857</ele><time>2026-04-25T08:58:08.884Z</time></trkpt><trkpt lat="42.16651" lon="14.6816817"><ele>48.14285714285714</ele><time>2026-04-25T08:58:10.883Z</time></trkpt><trkpt lat="42.1665" lon="14.681775"><ele>48.714285714285715</ele><time>2026-04-25T08:58:12.884Z</time></trkpt><trkpt lat="42.1664917" lon="14.6818733"><ele>49.285714285714285</ele><time>2026-04-25T08:58:14.883Z</time></trkpt><trkpt lat="42.1664883" lon="14.681975"><ele>49.85714285714286</ele><time>2026-04-25T08:58:16.884Z</time></trkpt><trkpt lat="42.1664883" lon="14.6820767"><ele>50.42857142857143</ele><time>2026-04-25T08:58:18.883Z</time></trkpt><trkpt lat="42.1664833" lon="14.6821733"><ele>51.0</ele><time>2026-04-25T08:58:20.884Z</time></trkpt><trkpt lat="42.166475" lon="14.6822583"><ele>51.0</ele><time>2026-04-25T08:58:22.884Z</time></trkpt><trkpt lat="42.1664717" lon="14.682345"><ele>51.0</ele><time>2026-04-25T08:58:24.884Z</time></trkpt><trkpt lat="42.1664633" lon="14.6824533"><ele>51.0</ele><time>2026-04-25T08:58:26.884Z</time></trkpt><trkpt lat="42.1664533" lon="14.6825767"><ele>51.0</ele><time>2026-04-25T08:58:28.884Z</time></trkpt><trkpt lat="42.16642" lon="14.682685"><ele>51.0</ele><time>2026-04-25T08:58:30.883Z</time></trkpt><trkpt lat="42.16638" lon="14.682785"><ele>51.0</ele><time>2026-04-25T08:58:32.884Z</time></trkpt><trkpt lat="42.1663433" lon="14.6828617"><ele>50.5</ele><time>2026-04-25T08:58:34.883Z</time></trkpt><trkpt lat="42.16633" lon="14.6829633"><ele>50.0</ele><time>2026-04-25T08:58:38.884Z</time></trkpt><trkpt lat="42.166525" lon="14.6831767"><ele>49.5</ele><time>2026-04-25T08:59:43.127Z</time></trkpt><trkpt lat="42.16646" lon="14.6831033"><ele>49.0</ele><time>2026-04-25T08:59:45.386Z</time></trkpt><trkpt lat="42.1664618" lon="14.6830102"><ele>48.99999999999999</ele><time>2026-04-25T09:01:03.885Z</time></trkpt><trkpt lat="42.166436" lon="14.6830884"><ele>49.0</ele><time>2026-04-25T09:01:16.886Z</time></trkpt><trkpt lat="42.1664779" lon="14.6829669"><ele>49.0</ele><time>2026-04-25T09:03:33.885Z</time></trkpt><trkpt lat="42.1664233" lon="14.6830102"><ele>49.0</ele><time>2026-04-25T09:03:41.885Z</time></trkpt><trkpt lat="42.1664875" lon="14.682945"><ele>48.99999999999999</ele><time>2026-04-25T09:14:08.886Z</time></trkpt><trkpt lat="42.1665384" lon="14.6829992"><ele>49.0</ele><time>2026-04-25T09:14:23.886Z</time></trkpt><trkpt lat="42.1664455" lon="14.6830004"><ele>48.99999999999999</ele><time>2026-04-25T09:14:42.886Z</time></trkpt><trkpt lat="42.1663886" lon="14.6829634"><ele>49.0</ele><time>2026-04-25T09:17:20.387Z</time></trkpt><trkpt lat="42.166309" lon="14.6830582"><ele>49.0</ele><time>2026-04-25T09:21:31.884Z</time></trkpt><trkpt lat="42.1662717" lon="14.683145"><ele>49.0</ele><time>2026-04-25T09:21:34.884Z</time></trkpt><trkpt lat="42.1662468" lon="14.6832645"><ele>48.99999999999999</ele><time>2026-04-25T09:21:37.885Z</time></trkpt><trkpt lat="42.1662421" lon="14.6833555"><ele>49.0</ele><time>2026-04-25T09:21:39.884Z</time></trkpt><trkpt lat="42.1662517" lon="14.6834594"><ele>48.99999999999999</ele><time>2026-04-25T09:21:41.884Z</time></trkpt><trkpt lat="42.1662679" lon="14.6835569"><ele>49.0</ele><time>2026-04-25T09:21:43.885Z</time></trkpt><trkpt lat="42.166297" lon="14.6836768"><ele>49.0</ele><time>2026-04-25T09:21:45.885Z</time></trkpt><trkpt lat="42.1663312" lon="14.6837932"><ele>49.0</ele><time>2026-04-25T09:21:47.884Z</time></trkpt><trkpt lat="42.166363" lon="14.6839084"><ele>48.99999999999999</ele><time>2026-04-25T09:21:49.884Z</time></trkpt><trkpt lat="42.1663944" lon="14.6840175"><ele>49.0</ele><time>2026-04-25T09:21:51.885Z</time></trkpt><trkpt lat="42.1664261" lon="14.6841281"><ele>49.2</ele><time>2026-04-25T09:21:53.885Z</time></trkpt><trkpt lat="42.1664575" lon="14.6842419"><ele>49.400000000000006</ele><time>2026-04-25T09:21:55.885Z</time></trkpt><trkpt lat="42.1664876" lon="14.6843514"><ele>49.6</ele><time>2026-04-25T09:21:57.884Z</time></trkpt><trkpt lat="42.1665195" lon="14.6844638"><ele>49.8</ele><time>2026-04-25T09:21:59.885Z</time></trkpt><trkpt lat="42.1665479" lon="14.684579"><ele>50.0</ele><time>2026-04-25T09:22:01.885Z</time></trkpt><trkpt lat="42.1665783" lon="14.6847017"><ele>49.66666666666667</ele><time>2026-04-25T09:22:03.885Z</time></trkpt><trkpt lat="42.1666" lon="14.6848183"><ele>49.333333333333336</ele><time>2026-04-25T09:22:05.884Z</time></trkpt><trkpt lat="42.1666217" lon="14.6849283"><ele>49.0</ele><time>2026-04-25T09:22:07.885Z</time></trkpt><trkpt lat="42.166635" lon="14.685035"><ele>48.66666666666667</ele><time>2026-04-25T09:22:09.884Z</time></trkpt><trkpt lat="42.166645" lon="14.68516"><ele>48.333333333333336</ele><time>2026-04-25T09:22:11.885Z</time></trkpt><trkpt lat="42.1666517" lon="14.6852867"><ele>48.0</ele><time>2026-04-25T09:22:13.885Z</time></trkpt><trkpt lat="42.1666533" lon="14.6854117"><ele>48.0</ele><time>2026-04-25T09:22:15.885Z</time></trkpt><trkpt lat="42.1666533" lon="14.68554"><ele>48.0</ele><time>2026-04-25T09:22:17.885Z</time></trkpt><trkpt lat="42.1666517" lon="14.6856817"><ele>48.0</ele><time>2026-04-25T09:22:19.884Z</time></trkpt><trkpt lat="42.1666517" lon="14.685825"><ele>48.0</ele><time>2026-04-25T09:22:21.885Z</time></trkpt><trkpt lat="42.1666567" lon="14.685975"><ele>48.0</ele><time>2026-04-25T09:22:23.885Z</time></trkpt><trkpt lat="42.1666633" lon="14.6861333"><ele>47.8</ele><time>2026-04-25T09:22:25.885Z</time></trkpt><trkpt lat="42.16666" lon="14.686275"><ele>47.599999999999994</ele><time>2026-04-25T09:22:27.884Z</time></trkpt><trkpt lat="42.1666617" lon="14.686415"><ele>47.400000000000006</ele><time>2026-04-25T09:22:29.884Z</time></trkpt><trkpt lat="42.166665" lon="14.6865567"><ele>47.2</ele><time>2026-04-25T09:22:31.885Z</time></trkpt><trkpt lat="42.1666667" lon="14.686715"><ele>47.0</ele><time>2026-04-25T09:22:33.885Z</time></trkpt><trkpt lat="42.1666733" lon="14.6868567"><ele>46.8</ele><time>2026-04-25T09:22:35.884Z</time></trkpt><trkpt lat="42.1666717" lon="14.687005"><ele>46.6</ele><time>2026-04-25T09:22:37.885Z</time></trkpt><trkpt lat="42.1666717" lon="14.6871567"><ele>46.4</ele><time>2026-04-25T09:22:39.885Z</time></trkpt><trkpt lat="42.1666683" lon="14.687245"><ele>46.199999999999996</ele><time>2026-04-25T09:22:40.885Z</time></trkpt><trkpt lat="42.1666733" lon="14.6874033"><ele>46.0</ele><time>2026-04-25T09:22:42.885Z</time></trkpt><trkpt lat="42.16668" lon="14.687565"><ele>46.0</ele><time>2026-04-25T09:22:44.885Z</time></trkpt><trkpt lat="42.1666867" lon="14.6877183"><ele>46.0</ele><time>2026-04-25T09:22:46.884Z</time></trkpt><trkpt lat="42.1666933" lon="14.68787"><ele>46.0</ele><time>2026-04-25T09:22:48.884Z</time></trkpt><trkpt lat="42.1667" lon="14.688025"><ele>46.0</ele><time>2026-04-25T09:22:50.884Z</time></trkpt><trkpt lat="42.1667083" lon="14.68818"><ele>46.0</ele><time>2026-04-25T09:22:52.885Z</time></trkpt><trkpt lat="42.1667167" lon="14.6883367"><ele>46.0</ele><time>2026-04-25T09:22:54.884Z</time></trkpt><trkpt lat="42.16673" lon="14.688495"><ele>46.0</ele><time>2026-04-25T09:22:56.885Z</time></trkpt><trkpt lat="42.166745" lon="14.688645"><ele>46.0</ele><time>2026-04-25T09:22:58.885Z</time></trkpt><trkpt lat="42.166755" lon="14.6887917"><ele>45.8</ele><time>2026-04-25T09:23:00.884Z</time></trkpt><trkpt lat="42.1667683" lon="14.688935"><ele>45.599999999999994</ele><time>2026-04-25T09:23:02.885Z</time></trkpt><trkpt lat="42.1667833" lon="14.6890833"><ele>45.4</ele><time>2026-04-25T09:23:04.885Z</time></trkpt><trkpt lat="42.1668" lon="14.689235"><ele>45.2</ele><time>2026-04-25T09:23:06.884Z</time></trkpt><trkpt lat="42.1668183" lon="14.6893917"><ele>45.0</ele><time>2026-04-25T09:23:08.885Z</time></trkpt><trkpt lat="42.16683" lon="14.6895383"><ele>45.0</ele><time>2026-04-25T09:23:10.884Z</time></trkpt><trkpt lat="42.166835" lon="14.6897067"><ele>45.0</ele><time>2026-04-25T09:23:12.885Z</time></trkpt><trkpt lat="42.1668467" lon="14.6898683"><ele>45.0</ele><time>2026-04-25T09:23:14.884Z</time></trkpt><trkpt lat="42.1668633" lon="14.69002"><ele>45.0</ele><time>2026-04-25T09:23:16.885Z</time></trkpt><trkpt lat="42.1668767" lon="14.690175"><ele>44.75</ele><time>2026-04-25T09:23:18.884Z</time></trkpt><trkpt lat="42.1668883" lon="14.6903267"><ele>44.5</ele><time>2026-04-25T09:23:20.885Z</time></trkpt><trkpt lat="42.1668983" lon="14.69048"><ele>44.25</ele><time>2026-04-25T09:23:22.884Z</time></trkpt><trkpt lat="42.166915" lon="14.690635"><ele>44.0</ele><time>2026-04-25T09:23:24.885Z</time></trkpt><trkpt lat="42.1669333" lon="14.6907867"><ele>44.0</ele><time>2026-04-25T09:23:26.885Z</time></trkpt><trkpt lat="42.1669433" lon="14.6909433"><ele>44.0</ele><time>2026-04-25T09:23:28.885Z</time></trkpt><trkpt lat="42.1669533" lon="14.6911"><ele>44.0</ele><time>2026-04-25T09:23:30.885Z</time></trkpt><trkpt lat="42.1669733" lon="14.691255"><ele>44.0</ele><time>2026-04-25T09:23:32.885Z</time></trkpt><trkpt lat="42.1669933" lon="14.6914167"><ele>43.5</ele><time>2026-04-25T09:23:34.885Z</time></trkpt><trkpt lat="42.16702" lon="14.6915683"><ele>43.0</ele><time>2026-04-25T09:23:36.885Z</time></trkpt><trkpt lat="42.167045" lon="14.6917267"><ele>42.5</ele><time>2026-04-25T09:23:38.885Z</time></trkpt><trkpt lat="42.1670733" lon="14.6918767"><ele>42.0</ele><time>2026-04-25T09:23:40.885Z</time></trkpt><trkpt lat="42.167105" lon="14.692025"><ele>42.0</ele><time>2026-04-25T09:23:42.885Z</time></trkpt><trkpt lat="42.167135" lon="14.6921733"><ele>42.0</ele><time>2026-04-25T09:23:44.884Z</time></trkpt><trkpt lat="42.1671683" lon="14.692315"><ele>42.0</ele><time>2026-04-25T09:23:46.885Z</time></trkpt><trkpt lat="42.1672" lon="14.6924567"><ele>42.0</ele><time>2026-04-25T09:23:48.885Z</time></trkpt><trkpt lat="42.1672333" lon="14.6926017"><ele>42.0</ele><time>2026-04-25T09:23:50.885Z</time></trkpt><trkpt lat="42.1672683" lon="14.6927483"><ele>42.0</ele><time>2026-04-25T09:23:52.885Z</time></trkpt><trkpt lat="42.167295" lon="14.6928283"><ele>42.0</ele><time>2026-04-25T09:23:53.885Z</time></trkpt><trkpt lat="42.167335" lon="14.6929833"><ele>42.0</ele><time>2026-04-25T09:23:55.885Z</time></trkpt><trkpt lat="42.1673767" lon="14.6931317"><ele>42.0</ele><time>2026-04-25T09:23:57.885Z</time></trkpt><trkpt lat="42.1674167" lon="14.6932783"><ele>42.0</ele><time>2026-04-25T09:23:59.884Z</time></trkpt><trkpt lat="42.167455" lon="14.6934233"><ele>42.0</ele><time>2026-04-25T09:24:01.885Z</time></trkpt><trkpt lat="42.1675" lon="14.6935733"><ele>42.0</ele><time>2026-04-25T09:24:03.885Z</time></trkpt><trkpt lat="42.16753" lon="14.6936583"><ele>42.0</ele><time>2026-04-25T09:24:04.884Z</time></trkpt><trkpt lat="42.1675883" lon="14.6937983"><ele>42.0</ele><time>2026-04-25T09:24:06.885Z</time></trkpt><trkpt lat="42.1676683" lon="14.6939317"><ele>42.0</ele><time>2026-04-25T09:24:08.885Z</time></trkpt><trkpt lat="42.1677517" lon="14.6940533"><ele>41.8</ele><time>2026-04-25T09:24:10.885Z</time></trkpt><trkpt lat="42.1678433" lon="14.694165"><ele>41.6</ele><time>2026-04-25T09:24:12.884Z</time></trkpt><trkpt lat="42.1679283" lon="14.6942633"><ele>41.4</ele><time>2026-04-25T09:24:14.885Z</time></trkpt><trkpt lat="42.1680083" lon="14.6943517"><ele>41.199999999999996</ele><time>2026-04-25T09:24:16.885Z</time></trkpt><trkpt lat="42.1680833" lon="14.6944417"><ele>41.0</ele><time>2026-04-25T09:24:18.885Z</time></trkpt><trkpt lat="42.1681583" lon="14.694515"><ele>40.5</ele><time>2026-04-25T09:24:20.885Z</time></trkpt><trkpt lat="42.1682367" lon="14.69458"><ele>40.0</ele><time>2026-04-25T09:24:22.884Z</time></trkpt><trkpt lat="42.1683033" lon="14.6946217"><ele>39.5</ele><time>2026-04-25T09:24:24.884Z</time></trkpt><trkpt lat="42.16837" lon="14.69467"><ele>39.0</ele><time>2026-04-25T09:24:27.885Z</time></trkpt><trkpt lat="42.1684417" lon="14.6947467"><ele>38.5</ele><time>2026-04-25T09:24:31.885Z</time></trkpt><trkpt lat="42.1685133" lon="14.694815"><ele>38.0</ele><time>2026-04-25T09:24:33.885Z</time></trkpt><trkpt lat="42.1686117" lon="14.6948983"><ele>38.0</ele><time>2026-04-25T09:24:35.885Z</time></trkpt><trkpt lat="42.168725" lon="14.6949717"><ele>38.0</ele><time>2026-04-25T09:24:37.884Z</time></trkpt><trkpt lat="42.1687917" lon="14.6950117"><ele>38.0</ele><time>2026-04-25T09:24:38.885Z</time></trkpt><trkpt lat="42.1688567" lon="14.69505"><ele>38.0</ele><time>2026-04-25T09:24:39.884Z</time></trkpt><trkpt lat="42.1689167" lon="14.6950917"><ele>38.0</ele><time>2026-04-25T09:24:40.885Z</time></trkpt><trkpt lat="42.1689767" lon="14.69513"><ele>38.0</ele><time>2026-04-25T09:24:41.885Z</time></trkpt><trkpt lat="42.1690367" lon="14.6951633"><ele>37.6</ele><time>2026-04-25T09:24:42.885Z</time></trkpt><trkpt lat="42.1691017" lon="14.6951917"><ele>37.199999999999996</ele><time>2026-04-25T09:24:43.885Z</time></trkpt><trkpt lat="42.1692083" lon="14.6952667"><ele>36.8</ele><time>2026-04-25T09:24:45.885Z</time></trkpt><trkpt lat="42.1693" lon="14.6953567"><ele>36.4</ele><time>2026-04-25T09:24:47.884Z</time></trkpt><trkpt lat="42.1693717" lon="14.6954833"><ele>36.0</ele><time>2026-04-25T09:24:49.885Z</time></trkpt><trkpt lat="42.1694183" lon="14.6956233"><ele>36.0</ele><time>2026-04-25T09:24:51.885Z</time></trkpt><trkpt lat="42.169445" lon="14.6957867"><ele>36.0</ele><time>2026-04-25T09:24:53.884Z</time></trkpt><trkpt lat="42.1694467" lon="14.6958733"><ele>36.0</ele><time>2026-04-25T09:24:54.885Z</time></trkpt><trkpt lat="42.1694267" lon="14.696035"><ele>36.0</ele><time>2026-04-25T09:24:56.885Z</time></trkpt><trkpt lat="42.1694033" lon="14.696115"><ele>36.0</ele><time>2026-04-25T09:24:57.885Z</time></trkpt><trkpt lat="42.169365" lon="14.6962633"><ele>36.25</ele><time>2026-04-25T09:24:59.884Z</time></trkpt><trkpt lat="42.1693333" lon="14.6964067"><ele>36.5</ele><time>2026-04-25T09:25:01.884Z</time></trkpt><trkpt lat="42.169295" lon="14.69656"><ele>36.75</ele><time>2026-04-25T09:25:03.885Z</time></trkpt><trkpt lat="42.1692633" lon="14.6967233"><ele>37.0</ele><time>2026-04-25T09:25:05.885Z</time></trkpt><trkpt lat="42.16923" lon="14.6968833"><ele>37.0</ele><time>2026-04-25T09:25:07.885Z</time></trkpt><trkpt lat="42.1691917" lon="14.69704"><ele>37.0</ele><time>2026-04-25T09:25:09.884Z</time></trkpt><trkpt lat="42.1691517" lon="14.697205"><ele>37.0</ele><time>2026-04-25T09:25:11.885Z</time></trkpt><trkpt lat="42.1691367" lon="14.6972917"><ele>37.0</ele><time>2026-04-25T09:25:12.885Z</time></trkpt><trkpt lat="42.1691217" lon="14.697375"><ele>37.0</ele><time>2026-04-25T09:25:13.885Z</time></trkpt><trkpt lat="42.169085" lon="14.6975333"><ele>37.0</ele><time>2026-04-25T09:25:15.885Z</time></trkpt><trkpt lat="42.1690517" lon="14.6976867"><ele>37.0</ele><time>2026-04-25T09:25:17.885Z</time></trkpt><trkpt lat="42.1690133" lon="14.6978483"><ele>37.0</ele><time>2026-04-25T09:25:19.884Z</time></trkpt><trkpt lat="42.1689917" lon="14.6979283"><ele>37.0</ele><time>2026-04-25T09:25:20.885Z</time></trkpt><trkpt lat="42.16897" lon="14.6980117"><ele>37.0</ele><time>2026-04-25T09:25:21.884Z</time></trkpt><trkpt lat="42.1689533" lon="14.6981017"><ele>37.0</ele><time>2026-04-25T09:25:22.885Z</time></trkpt><trkpt lat="42.1689317" lon="14.69819"><ele>36.714285714285715</ele><time>2026-04-25T09:25:23.884Z</time></trkpt><trkpt lat="42.1688933" lon="14.6983533"><ele>36.42857142857143</ele><time>2026-04-25T09:25:25.885Z</time></trkpt><trkpt lat="42.168875" lon="14.698435"><ele>36.14285714285714</ele><time>2026-04-25T09:25:26.885Z</time></trkpt><trkpt lat="42.1688617" lon="14.6985217"><ele>35.85714285714286</ele><time>2026-04-25T09:25:27.885Z</time></trkpt><trkpt lat="42.1688483" lon="14.698605"><ele>35.57142857142857</ele><time>2026-04-25T09:25:28.885Z</time></trkpt><trkpt lat="42.1688333" lon="14.6986917"><ele>35.285714285714285</ele><time>2026-04-25T09:25:29.884Z</time></trkpt><trkpt lat="42.1688167" lon="14.698775"><ele>35.0</ele><time>2026-04-25T09:25:30.885Z</time></trkpt><trkpt lat="42.1688017" lon="14.6988633"><ele>35.0</ele><time>2026-04-25T09:25:31.885Z</time></trkpt><trkpt lat="42.168795" lon="14.6989483"><ele>35.0</ele><time>2026-04-25T09:25:32.884Z</time></trkpt><trkpt lat="42.1687917" lon="14.6990333"><ele>35.0</ele><time>2026-04-25T09:25:33.885Z</time></trkpt><trkpt lat="42.1687967" lon="14.6991283"><ele>35.0</ele><time>2026-04-25T09:25:34.884Z</time></trkpt><trkpt lat="42.1688067" lon="14.6992267"><ele>35.0</ele><time>2026-04-25T09:25:35.885Z</time></trkpt><trkpt lat="42.1688233" lon="14.6993233"><ele>35.0</ele><time>2026-04-25T09:25:36.885Z</time></trkpt><trkpt lat="42.16884" lon="14.6994167"><ele>35.0</ele><time>2026-04-25T09:25:37.885Z</time></trkpt><trkpt lat="42.16886" lon="14.699515"><ele>35.0</ele><time>2026-04-25T09:25:38.884Z</time></trkpt><trkpt lat="42.1688717" lon="14.6996167"><ele>35.0</ele><time>2026-04-25T09:25:39.885Z</time></trkpt><trkpt lat="42.1688867" lon="14.699715"><ele>35.0</ele><time>2026-04-25T09:25:40.885Z</time></trkpt><trkpt lat="42.168905" lon="14.6998117"><ele>35.0</ele><time>2026-04-25T09:25:41.885Z</time></trkpt><trkpt lat="42.1689183" lon="14.6998983"><ele>35.0</ele><time>2026-04-25T09:25:42.885Z</time></trkpt><trkpt lat="42.1689333" lon="14.6999867"><ele>35.0</ele><time>2026-04-25T09:25:43.885Z</time></trkpt><trkpt lat="42.1689433" lon="14.700075"><ele>35.0</ele><time>2026-04-25T09:25:44.885Z</time></trkpt><trkpt lat="42.1689667" lon="14.7002467"><ele>34.714285714285715</ele><time>2026-04-25T09:25:46.885Z</time></trkpt><trkpt lat="42.16898" lon="14.7003433"><ele>34.42857142857143</ele><time>2026-04-25T09:25:47.884Z</time></trkpt><trkpt lat="42.1689967" lon="14.7004367"><ele>34.14285714285714</ele><time>2026-04-25T09:25:48.885Z</time></trkpt><trkpt lat="42.1690083" lon="14.7005283"><ele>33.85714285714286</ele><time>2026-04-25T09:25:49.885Z</time></trkpt><trkpt lat="42.16903" lon="14.7006267"><ele>33.57142857142857</ele><time>2026-04-25T09:25:50.885Z</time></trkpt><trkpt lat="42.16905" lon="14.7007217"><ele>33.285714285714285</ele><time>2026-04-25T09:25:51.885Z</time></trkpt><trkpt lat="42.169065" lon="14.7008183"><ele>33.0</ele><time>2026-04-25T09:25:52.885Z</time></trkpt><trkpt lat="42.16908" lon="14.700915"><ele>33.0</ele><time>2026-04-25T09:25:53.884Z</time></trkpt><trkpt lat="42.1690917" lon="14.70101"><ele>33.0</ele><time>2026-04-25T09:25:54.884Z</time></trkpt><trkpt lat="42.169105" lon="14.7011083"><ele>33.0</ele><time>2026-04-25T09:25:55.885Z</time></trkpt><trkpt lat="42.169115" lon="14.701205"><ele>33.0</ele><time>2026-04-25T09:25:56.884Z</time></trkpt><trkpt lat="42.1691283" lon="14.7013"><ele>33.0</ele><time>2026-04-25T09:25:57.885Z</time></trkpt><trkpt lat="42.1691433" lon="14.7013933"><ele>33.0</ele><time>2026-04-25T09:25:58.885Z</time></trkpt><trkpt lat="42.1691567" lon="14.70148"><ele>33.0</ele><time>2026-04-25T09:25:59.885Z</time></trkpt><trkpt lat="42.1691683" lon="14.701575"><ele>32.42857142857143</ele><time>2026-04-25T09:26:00.885Z</time></trkpt><trkpt lat="42.1691833" lon="14.701665"><ele>31.85714285714286</ele><time>2026-04-25T09:26:01.885Z</time></trkpt><trkpt lat="42.1692033" lon="14.7017617"><ele>31.28571428571429</ele><time>2026-04-25T09:26:02.885Z</time></trkpt><trkpt lat="42.1692233" lon="14.701855"><ele>30.714285714285715</ele><time>2026-04-25T09:26:03.884Z</time></trkpt><trkpt lat="42.1692483" lon="14.7019433"><ele>30.142857142857146</ele><time>2026-04-25T09:26:04.885Z</time></trkpt><trkpt lat="42.1692717" lon="14.7020317"><ele>29.571428571428577</ele><time>2026-04-25T09:26:05.885Z</time></trkpt><trkpt lat="42.1693" lon="14.7021283"><ele>29.000000000000004</ele><time>2026-04-25T09:26:06.885Z</time></trkpt><trkpt lat="42.1693283" lon="14.7022233"><ele>28.666666666666664</ele><time>2026-04-25T09:26:07.885Z</time></trkpt><trkpt lat="42.1693567" lon="14.7023167"><ele>28.333333333333332</ele><time>2026-04-25T09:26:08.884Z</time></trkpt><trkpt lat="42.169385" lon="14.70241"><ele>28.0</ele><time>2026-04-25T09:26:09.884Z</time></trkpt><trkpt lat="42.1694217" lon="14.7025033"><ele>27.666666666666664</ele><time>2026-04-25T09:26:10.885Z</time></trkpt><trkpt lat="42.1694633" lon="14.7026"><ele>27.333333333333332</ele><time>2026-04-25T09:26:11.885Z</time></trkpt><trkpt lat="42.169505" lon="14.7026917"><ele>27.0</ele><time>2026-04-25T09:26:12.884Z</time></trkpt><trkpt lat="42.16955" lon="14.7027833"><ele>26.333333333333332</ele><time>2026-04-25T09:26:13.885Z</time></trkpt><trkpt lat="42.16959" lon="14.7028767"><ele>25.666666666666668</ele><time>2026-04-25T09:26:14.884Z</time></trkpt><trkpt lat="42.1696367" lon="14.702965"><ele>25.0</ele><time>2026-04-25T09:26:15.885Z</time></trkpt><trkpt lat="42.1696783" lon="14.7030517"><ele>24.333333333333336</ele><time>2026-04-25T09:26:16.885Z</time></trkpt><trkpt lat="42.1697233" lon="14.7031417"><ele>23.666666666666668</ele><time>2026-04-25T09:26:17.885Z</time></trkpt><trkpt lat="42.1697733" lon="14.703225"><ele>23.0</ele><time>2026-04-25T09:26:18.884Z</time></trkpt><trkpt lat="42.1698183" lon="14.7033067"><ele>22.833333333333336</ele><time>2026-04-25T09:26:19.885Z</time></trkpt><trkpt lat="42.169865" lon="14.70339"><ele>22.666666666666668</ele><time>2026-04-25T09:26:20.885Z</time></trkpt><trkpt lat="42.169915" lon="14.70348"><ele>22.5</ele><time>2026-04-25T09:26:21.885Z</time></trkpt><trkpt lat="42.169965" lon="14.7035683"><ele>22.333333333333332</ele><time>2026-04-25T09:26:22.885Z</time></trkpt><trkpt lat="42.1700167" lon="14.7036517"><ele>22.166666666666664</ele><time>2026-04-25T09:26:23.885Z</time></trkpt><trkpt lat="42.1700617" lon="14.70373"><ele>22.0</ele><time>2026-04-25T09:26:24.885Z</time></trkpt><trkpt lat="42.1701233" lon="14.7038633"><ele>21.666666666666664</ele><time>2026-04-25T09:26:26.885Z</time></trkpt><trkpt lat="42.1701583" lon="14.703955"><ele>21.333333333333332</ele><time>2026-04-25T09:26:28.884Z</time></trkpt><trkpt lat="42.1701967" lon="14.7040367"><ele>21.0</ele><time>2026-04-25T09:26:31.885Z</time></trkpt><trkpt lat="42.1702633" lon="14.70408"><ele>20.666666666666668</ele><time>2026-04-25T09:26:35.885Z</time></trkpt><trkpt lat="42.1703183" lon="14.7041867"><ele>20.333333333333336</ele><time>2026-04-25T09:28:50.886Z</time></trkpt><trkpt lat="42.17033" lon="14.704305"><ele>20.0</ele><time>2026-04-25T09:28:53.886Z</time></trkpt><trkpt lat="42.1703517" lon="14.70441"><ele>19.4</ele><time>2026-04-25T09:28:55.886Z</time></trkpt><trkpt lat="42.1703867" lon="14.7045317"><ele>18.8</ele><time>2026-04-25T09:28:57.885Z</time></trkpt><trkpt lat="42.17041" lon="14.7046533"><ele>18.2</ele><time>2026-04-25T09:28:59.885Z</time></trkpt><trkpt lat="42.17044" lon="14.7047917"><ele>17.6</ele><time>2026-04-25T09:29:01.886Z</time></trkpt><trkpt lat="42.1704533" lon="14.704915"><ele>17.0</ele><time>2026-04-25T09:29:03.885Z</time></trkpt><trkpt lat="42.1704717" lon="14.7050567"><ele>17.0</ele><time>2026-04-25T09:29:05.886Z</time></trkpt><trkpt lat="42.1704867" lon="14.7051933"><ele>17.0</ele><time>2026-04-25T09:29:07.885Z</time></trkpt><trkpt lat="42.1704967" lon="14.7053283"><ele>17.0</ele><time>2026-04-25T09:29:09.886Z</time></trkpt><trkpt lat="42.1705117" lon="14.705475"><ele>17.0</ele><time>2026-04-25T09:29:11.886Z</time></trkpt><trkpt lat="42.1705367" lon="14.70563"><ele>17.0</ele><time>2026-04-25T09:29:13.886Z</time></trkpt><trkpt lat="42.1705567" lon="14.7057833"><ele>17.4</ele><time>2026-04-25T09:29:15.886Z</time></trkpt><trkpt lat="42.1705767" lon="14.7059567"><ele>17.799999999999997</ele><time>2026-04-25T09:29:17.885Z</time></trkpt><trkpt lat="42.170585" lon="14.7060467"><ele>18.2</ele><time>2026-04-25T09:29:18.886Z</time></trkpt><trkpt lat="42.1705917" lon="14.7061333"><ele>18.599999999999998</ele><time>2026-04-25T09:29:19.885Z</time></trkpt><trkpt lat="42.1706117" lon="14.70631"><ele>19.0</ele><time>2026-04-25T09:29:21.886Z</time></trkpt><trkpt lat="42.1706183" lon="14.7063983"><ele>19.0</ele><time>2026-04-25T09:29:22.886Z</time></trkpt><trkpt lat="42.170625" lon="14.7064867"><ele>19.0</ele><time>2026-04-25T09:29:23.886Z</time></trkpt><trkpt lat="42.1706367" lon="14.7065767"><ele>19.0</ele><time>2026-04-25T09:29:24.886Z</time></trkpt><trkpt lat="42.1706483" lon="14.706665"><ele>19.0</ele><time>2026-04-25T09:29:25.886Z</time></trkpt><trkpt lat="42.1706617" lon="14.7067517"><ele>19.0</ele><time>2026-04-25T09:29:26.885Z</time></trkpt><trkpt lat="42.1706717" lon="14.7068417"><ele>19.0</ele><time>2026-04-25T09:29:27.886Z</time></trkpt><trkpt lat="42.1706833" lon="14.7069317"><ele>19.0</ele><time>2026-04-25T09:29:28.886Z</time></trkpt><trkpt lat="42.170695" lon="14.70703"><ele>19.0</ele><time>2026-04-25T09:29:29.886Z</time></trkpt><trkpt lat="42.1707033" lon="14.7071167"><ele>19.0</ele><time>2026-04-25T09:29:30.886Z</time></trkpt><trkpt lat="42.1707083" lon="14.7072067"><ele>19.0</ele><time>2026-04-25T09:29:31.886Z</time></trkpt><trkpt lat="42.1707183" lon="14.707295"><ele>19.0</ele><time>2026-04-25T09:29:32.885Z</time></trkpt><trkpt lat="42.17073" lon="14.7073817"><ele>19.0</ele><time>2026-04-25T09:29:33.885Z</time></trkpt><trkpt lat="42.1707433" lon="14.70747"><ele>19.0</ele><time>2026-04-25T09:29:34.885Z</time></trkpt><trkpt lat="42.1707533" lon="14.7075683"><ele>19.0</ele><time>2026-04-25T09:29:35.886Z</time></trkpt><trkpt lat="42.1707617" lon="14.70766"><ele>18.857142857142858</ele><time>2026-04-25T09:29:36.886Z</time></trkpt><trkpt lat="42.17077" lon="14.7077533"><ele>18.714285714285715</ele><time>2026-04-25T09:29:37.886Z</time></trkpt><trkpt lat="42.17078" lon="14.7078467"><ele>18.571428571428573</ele><time>2026-04-25T09:29:38.885Z</time></trkpt><trkpt lat="42.1707883" lon="14.7079367"><ele>18.42857142857143</ele><time>2026-04-25T09:29:39.886Z</time></trkpt><trkpt lat="42.1708" lon="14.7080267"><ele>18.285714285714285</ele><time>2026-04-25T09:29:40.885Z</time></trkpt><trkpt lat="42.1708083" lon="14.7081133"><ele>18.142857142857146</ele><time>2026-04-25T09:29:41.885Z</time></trkpt><trkpt lat="42.1708067" lon="14.7082"><ele>18.0</ele><time>2026-04-25T09:29:42.885Z</time></trkpt><trkpt lat="42.1708083" lon="14.70829"><ele>18.0</ele><time>2026-04-25T09:29:43.885Z</time></trkpt><trkpt lat="42.1708133" lon="14.708375"><ele>18.0</ele><time>2026-04-25T09:29:44.885Z</time></trkpt><trkpt lat="42.1708117" lon="14.70854"><ele>18.0</ele><time>2026-04-25T09:29:46.885Z</time></trkpt><trkpt lat="42.17081" lon="14.708695"><ele>18.0</ele><time>2026-04-25T09:29:48.886Z</time></trkpt><trkpt lat="42.17081" lon="14.7087833"><ele>18.0</ele><time>2026-04-25T09:29:49.886Z</time></trkpt><trkpt lat="42.17081" lon="14.7088683"><ele>18.0</ele><time>2026-04-25T09:29:50.885Z</time></trkpt><trkpt lat="42.17081" lon="14.709035"><ele>17.5</ele><time>2026-04-25T09:29:52.886Z</time></trkpt><trkpt lat="42.17081" lon="14.7092"><ele>17.0</ele><time>2026-04-25T09:29:54.886Z</time></trkpt><trkpt lat="42.1708017" lon="14.7093567"><ele>16.5</ele><time>2026-04-25T09:29:56.886Z</time></trkpt><trkpt lat="42.1708017" lon="14.7095067"><ele>16.0</ele><time>2026-04-25T09:29:58.886Z</time></trkpt><trkpt lat="42.170795" lon="14.70965"><ele>15.600000000000001</ele><time>2026-04-25T09:30:00.885Z</time></trkpt><trkpt lat="42.1707867" lon="14.709795"><ele>15.200000000000001</ele><time>2026-04-25T09:30:02.885Z</time></trkpt><trkpt lat="42.1707933" lon="14.7099417"><ele>14.799999999999999</ele><time>2026-04-25T09:30:04.885Z</time></trkpt><trkpt lat="42.1708" lon="14.7100883"><ele>14.399999999999999</ele><time>2026-04-25T09:30:06.886Z</time></trkpt><trkpt lat="42.1708033" lon="14.710225"><ele>14.0</ele><time>2026-04-25T09:30:08.886Z</time></trkpt><trkpt lat="42.1708017" lon="14.7103483"><ele>14.000000000000002</ele><time>2026-04-25T09:30:10.885Z</time></trkpt><trkpt lat="42.1707883" lon="14.710455"><ele>14.0</ele><time>2026-04-25T09:30:12.886Z</time></trkpt><trkpt lat="42.170765" lon="14.71054"><ele>14.0</ele><time>2026-04-25T09:30:14.885Z</time></trkpt><trkpt lat="42.1707267" lon="14.710625"><ele>14.0</ele><time>2026-04-25T09:30:16.886Z</time></trkpt><trkpt lat="42.1706583" lon="14.7107067"><ele>14.000000000000002</ele><time>2026-04-25T09:30:18.886Z</time></trkpt><trkpt lat="42.1705567" lon="14.71077"><ele>14.0</ele><time>2026-04-25T09:30:20.885Z</time></trkpt><trkpt lat="42.17048" lon="14.71088"><ele>14.2</ele><time>2026-04-25T09:30:22.885Z</time></trkpt><trkpt lat="42.1704333" lon="14.7110017"><ele>14.399999999999999</ele><time>2026-04-25T09:30:24.885Z</time></trkpt><trkpt lat="42.1703533" lon="14.7110817"><ele>14.6</ele><time>2026-04-25T09:30:26.885Z</time></trkpt><trkpt lat="42.1702417" lon="14.7111217"><ele>14.8</ele><time>2026-04-25T09:30:28.885Z</time></trkpt><trkpt lat="42.170175" lon="14.7111383"><ele>15.0</ele><time>2026-04-25T09:30:29.886Z</time></trkpt><trkpt lat="42.170055" lon="14.711195"><ele>15.0</ele><time>2026-04-25T09:30:31.885Z</time></trkpt><trkpt lat="42.1699967" lon="14.7112433"><ele>15.0</ele><time>2026-04-25T09:30:32.886Z</time></trkpt><trkpt lat="42.16994" lon="14.7113"><ele>15.0</ele><time>2026-04-25T09:30:33.886Z</time></trkpt><trkpt lat="42.1698783" lon="14.711365"><ele>15.0</ele><time>2026-04-25T09:30:34.886Z</time></trkpt><trkpt lat="42.16982" lon="14.7114333"><ele>15.0</ele><time>2026-04-25T09:30:35.885Z</time></trkpt><trkpt lat="42.16976" lon="14.7115033"><ele>15.0</ele><time>2026-04-25T09:30:36.886Z</time></trkpt><trkpt lat="42.1697" lon="14.71157"><ele>14.666666666666666</ele><time>2026-04-25T09:30:37.885Z</time></trkpt><trkpt lat="42.169645" lon="14.7116383"><ele>14.333333333333332</ele><time>2026-04-25T09:30:38.885Z</time></trkpt><trkpt lat="42.1695917" lon="14.7117133"><ele>14.0</ele><time>2026-04-25T09:30:39.886Z</time></trkpt><trkpt lat="42.169535" lon="14.7117833"><ele>13.666666666666666</ele><time>2026-04-25T09:30:40.886Z</time></trkpt><trkpt lat="42.1694817" lon="14.711855"><ele>13.333333333333332</ele><time>2026-04-25T09:30:41.886Z</time></trkpt><trkpt lat="42.1694233" lon="14.7119233"><ele>13.0</ele><time>2026-04-25T09:30:42.886Z</time></trkpt><trkpt lat="42.1693683" lon="14.711995"><ele>12.999999999999998</ele><time>2026-04-25T09:30:43.885Z</time></trkpt><trkpt lat="42.16931" lon="14.7120617"><ele>13.0</ele><time>2026-04-25T09:30:44.886Z</time></trkpt><trkpt lat="42.1692533" lon="14.712125"><ele>13.0</ele><time>2026-04-25T09:30:45.886Z</time></trkpt><trkpt lat="42.1691917" lon="14.71219"><ele>13.0</ele><time>2026-04-25T09:30:46.886Z</time></trkpt><trkpt lat="42.1691367" lon="14.7122583"><ele>12.999999999999998</ele><time>2026-04-25T09:30:47.886Z</time></trkpt><trkpt lat="42.1690783" lon="14.7123283"><ele>13.0</ele><time>2026-04-25T09:30:48.885Z</time></trkpt><trkpt lat="42.1690167" lon="14.7124033"><ele>12.333333333333332</ele><time>2026-04-25T09:30:49.886Z</time></trkpt><trkpt lat="42.1689567" lon="14.712475"><ele>11.666666666666666</ele><time>2026-04-25T09:30:50.886Z</time></trkpt><trkpt lat="42.1688933" lon="14.7125583"><ele>11.0</ele><time>2026-04-25T09:30:51.886Z</time></trkpt><trkpt lat="42.1688267" lon="14.7126333"><ele>10.333333333333332</ele><time>2026-04-25T09:30:52.886Z</time></trkpt><trkpt lat="42.1687633" lon="14.7127167"><ele>9.666666666666666</ele><time>2026-04-25T09:30:53.885Z</time></trkpt><trkpt lat="42.1687" lon="14.7127967"><ele>9.0</ele><time>2026-04-25T09:30:54.885Z</time></trkpt><trkpt lat="42.1686333" lon="14.71288"><ele>9.0</ele><time>2026-04-25T09:30:55.886Z</time></trkpt><trkpt lat="42.1685717" lon="14.7129567"><ele>9.0</ele><time>2026-04-25T09:30:56.886Z</time></trkpt><trkpt lat="42.1685117" lon="14.7130383"><ele>9.0</ele><time>2026-04-25T09:30:57.886Z</time></trkpt><trkpt lat="42.1684483" lon="14.7131183"><ele>9.0</ele><time>2026-04-25T09:30:58.886Z</time></trkpt><trkpt lat="42.16839" lon="14.7131983"><ele>9.0</ele><time>2026-04-25T09:30:59.886Z</time></trkpt><trkpt lat="42.1683367" lon="14.7132783"><ele>9.0</ele><time>2026-04-25T09:31:00.886Z</time></trkpt><trkpt lat="42.1682767" lon="14.7133583"><ele>9.0</ele><time>2026-04-25T09:31:01.886Z</time></trkpt><trkpt lat="42.16822" lon="14.71344"><ele>9.0</ele><time>2026-04-25T09:31:02.886Z</time></trkpt><trkpt lat="42.168165" lon="14.7135217"><ele>9.0</ele><time>2026-04-25T09:31:03.886Z</time></trkpt><trkpt lat="42.1681117" lon="14.7135983"><ele>9.0</ele><time>2026-04-25T09:31:04.886Z</time></trkpt><trkpt lat="42.1680583" lon="14.7136783"><ele>9.0</ele><time>2026-04-25T09:31:05.885Z</time></trkpt><trkpt lat="42.168005" lon="14.71376"><ele>9.0</ele><time>2026-04-25T09:31:06.885Z</time></trkpt><trkpt lat="42.1679467" lon="14.7138367"><ele>8.5</ele><time>2026-04-25T09:31:07.885Z</time></trkpt><trkpt lat="42.1678867" lon="14.7139067"><ele>8.0</ele><time>2026-04-25T09:31:08.885Z</time></trkpt><trkpt lat="42.1678217" lon="14.7139783"><ele>7.5</ele><time>2026-04-25T09:31:09.885Z</time></trkpt><trkpt lat="42.1677567" lon="14.7140567"><ele>7.0</ele><time>2026-04-25T09:31:10.886Z</time></trkpt><trkpt lat="42.1676917" lon="14.7141233"><ele>6.5</ele><time>2026-04-25T09:31:11.885Z</time></trkpt><trkpt lat="42.1676283" lon="14.7141867"><ele>6.0</ele><time>2026-04-25T09:31:12.886Z</time></trkpt><trkpt lat="42.16757" lon="14.7142533"><ele>6.0</ele><time>2026-04-25T09:31:13.886Z</time></trkpt><trkpt lat="42.1675217" lon="14.7143117"><ele>6.0</ele><time>2026-04-25T09:31:14.885Z</time></trkpt><trkpt lat="42.1674167" lon="14.71441"><ele>6.0</ele><time>2026-04-25T09:31:16.885Z</time></trkpt><trkpt lat="42.1673583" lon="14.7144567"><ele>6.0</ele><time>2026-04-25T09:31:17.886Z</time></trkpt><trkpt lat="42.1673033" lon="14.7145"><ele>6.0</ele><time>2026-04-25T09:31:18.886Z</time></trkpt><trkpt lat="42.1672483" lon="14.7145467"><ele>6.0</ele><time>2026-04-25T09:31:19.886Z</time></trkpt><trkpt lat="42.16719" lon="14.7145933"><ele>5.999999999999999</ele><time>2026-04-25T09:31:20.886Z</time></trkpt><trkpt lat="42.1671283" lon="14.7146383"><ele>6.0</ele><time>2026-04-25T09:31:21.886Z</time></trkpt><trkpt lat="42.1670667" lon="14.71469"><ele>6.0</ele><time>2026-04-25T09:31:22.886Z</time></trkpt><trkpt lat="42.16701" lon="14.7147333"><ele>6.0</ele><time>2026-04-25T09:31:23.886Z</time></trkpt><trkpt lat="42.1669433" lon="14.7147817"><ele>6.0</ele><time>2026-04-25T09:31:24.886Z</time></trkpt><trkpt lat="42.1668817" lon="14.714835"><ele>5.999999999999999</ele><time>2026-04-25T09:31:25.886Z</time></trkpt><trkpt lat="42.1668233" lon="14.714875"><ele>6.0</ele><time>2026-04-25T09:31:26.885Z</time></trkpt><trkpt lat="42.166765" lon="14.7149167"><ele>6.0</ele><time>2026-04-25T09:31:27.886Z</time></trkpt><trkpt lat="42.166705" lon="14.7149583"><ele>6.0</ele><time>2026-04-25T09:31:28.886Z</time></trkpt><trkpt lat="42.1666383" lon="14.714995"><ele>6.0</ele><time>2026-04-25T09:31:29.886Z</time></trkpt><trkpt lat="42.1665733" lon="14.715035"><ele>6.0</ele><time>2026-04-25T09:31:30.886Z</time></trkpt><trkpt lat="42.1665133" lon="14.7150683"><ele>6.0</ele><time>2026-04-25T09:31:31.885Z</time></trkpt><trkpt lat="42.1664517" lon="14.7150983"><ele>6.0</ele><time>2026-04-25T09:31:32.886Z</time></trkpt><trkpt lat="42.1663433" lon="14.7151367"><ele>6.0</ele><time>2026-04-25T09:31:34.886Z</time></trkpt><trkpt lat="42.1662433" lon="14.7151733"><ele>6.0</ele><time>2026-04-25T09:31:36.886Z</time></trkpt><trkpt lat="42.1661567" lon="14.715215"><ele>6.0</ele><time>2026-04-25T09:31:38.886Z</time></trkpt><trkpt lat="42.1660783" lon="14.7152367"><ele>6.0</ele><time>2026-04-25T09:31:40.886Z</time></trkpt><trkpt lat="42.16601" lon="14.7152583"><ele>6.0</ele><time>2026-04-25T09:31:42.886Z</time></trkpt><trkpt lat="42.16594" lon="14.71528"><ele>6.0</ele><time>2026-04-25T09:31:44.886Z</time></trkpt><trkpt lat="42.16587" lon="14.7153"><ele>6.0</ele><time>2026-04-25T09:31:46.885Z</time></trkpt><trkpt lat="42.165785" lon="14.7153267"><ele>6.0</ele><time>2026-04-25T09:31:49.886Z</time></trkpt><trkpt lat="42.16571" lon="14.7153417"><ele>6.0</ele><time>2026-04-25T09:31:51.885Z</time></trkpt><trkpt lat="42.1656333" lon="14.715365"><ele>6.0</ele><time>2026-04-25T09:31:53.886Z</time></trkpt><trkpt lat="42.165555" lon="14.7153917"><ele>6.0</ele><time>2026-04-25T09:31:55.886Z</time></trkpt><trkpt lat="42.16548" lon="14.7154167"><ele>6.0</ele><time>2026-04-25T09:31:57.886Z</time></trkpt><trkpt lat="42.1654067" lon="14.7154433"><ele>7.142857142857142</ele><time>2026-04-25T09:31:59.886Z</time></trkpt><trkpt lat="42.1653383" lon="14.7154667"><ele>8.285714285714285</ele><time>2026-04-25T09:32:01.886Z</time></trkpt><trkpt lat="42.1652683" lon="14.71549"><ele>9.428571428571429</ele><time>2026-04-25T09:32:03.885Z</time></trkpt><trkpt lat="42.165205" lon="14.71551"><ele>10.571428571428571</ele><time>2026-04-25T09:32:05.886Z</time></trkpt><trkpt lat="42.1651417" lon="14.71553"><ele>11.714285714285714</ele><time>2026-04-25T09:32:07.885Z</time></trkpt><trkpt lat="42.1650783" lon="14.7155467"><ele>12.857142857142858</ele><time>2026-04-25T09:32:09.885Z</time></trkpt><trkpt lat="42.1650117" lon="14.71557"><ele>14.0</ele><time>2026-04-25T09:32:11.886Z</time></trkpt><trkpt lat="42.1649267" lon="14.7156033"><ele>14.0</ele><time>2026-04-25T09:32:14.886Z</time></trkpt><trkpt lat="42.164865" lon="14.715625"><ele>14.0</ele><time>2026-04-25T09:32:16.886Z</time></trkpt><trkpt lat="42.1647933" lon="14.715645"><ele>14.0</ele><time>2026-04-25T09:32:18.885Z</time></trkpt><trkpt lat="42.1647217" lon="14.7156667"><ele>14.0</ele><time>2026-04-25T09:32:20.886Z</time></trkpt><trkpt lat="42.1646417" lon="14.715695"><ele>14.0</ele><time>2026-04-25T09:32:22.886Z</time></trkpt><trkpt lat="42.1645767" lon="14.7157117"><ele>14.0</ele><time>2026-04-25T09:32:24.885Z</time></trkpt><trkpt lat="42.1645083" lon="14.7157333"><ele>14.0</ele><time>2026-04-25T09:32:26.886Z</time></trkpt><trkpt lat="42.1644217" lon="14.71576"><ele>15.285714285714285</ele><time>2026-04-25T09:32:29.885Z</time></trkpt><trkpt lat="42.1643567" lon="14.7157733"><ele>16.57142857142857</ele><time>2026-04-25T09:32:31.885Z</time></trkpt><trkpt lat="42.1642833" lon="14.7157983"><ele>17.857142857142858</ele><time>2026-04-25T09:32:33.885Z</time></trkpt><trkpt lat="42.1642217" lon="14.7158183"><ele>19.142857142857142</ele><time>2026-04-25T09:32:35.885Z</time></trkpt><trkpt lat="42.1641533" lon="14.7158467"><ele>20.428571428571427</ele><time>2026-04-25T09:32:37.885Z</time></trkpt><trkpt lat="42.1640617" lon="14.7158717"><ele>21.714285714285715</ele><time>2026-04-25T09:32:40.886Z</time></trkpt><trkpt lat="42.163995" lon="14.7158917"><ele>23.0</ele><time>2026-04-25T09:32:42.886Z</time></trkpt><trkpt lat="42.1639117" lon="14.7159217"><ele>23.5</ele><time>2026-04-25T09:32:45.885Z</time></trkpt><trkpt lat="42.163845" lon="14.7159367"><ele>24.0</ele><time>2026-04-25T09:32:47.885Z</time></trkpt><trkpt lat="42.163755" lon="14.715965"><ele>24.5</ele><time>2026-04-25T09:32:50.886Z</time></trkpt><trkpt lat="42.1636883" lon="14.7159883"><ele>25.0</ele><time>2026-04-25T09:32:52.886Z</time></trkpt><trkpt lat="42.1636217" lon="14.71601"><ele>25.499999999999996</ele><time>2026-04-25T09:32:54.885Z</time></trkpt><trkpt lat="42.1635483" lon="14.7160217"><ele>26.0</ele><time>2026-04-25T09:32:56.886Z</time></trkpt><trkpt lat="42.163465" lon="14.7160317"><ele>25.999999999999996</ele><time>2026-04-25T09:32:58.885Z</time></trkpt><trkpt lat="42.16338" lon="14.7160417"><ele>26.0</ele><time>2026-04-25T09:33:00.886Z</time></trkpt><trkpt lat="42.16331" lon="14.7160517"><ele>26.0</ele><time>2026-04-25T09:33:02.886Z</time></trkpt><trkpt lat="42.1632233" lon="14.716065"><ele>26.0</ele><time>2026-04-25T09:33:04.886Z</time></trkpt><trkpt lat="42.1631367" lon="14.7160767"><ele>25.999999999999996</ele><time>2026-04-25T09:33:06.886Z</time></trkpt><trkpt lat="42.1630483" lon="14.71609"><ele>26.0</ele><time>2026-04-25T09:33:08.886Z</time></trkpt><trkpt lat="42.16296" lon="14.7160983"><ele>25.666666666666664</ele><time>2026-04-25T09:33:10.886Z</time></trkpt><trkpt lat="42.1628717" lon="14.7161033"><ele>25.333333333333332</ele><time>2026-04-25T09:33:12.886Z</time></trkpt><trkpt lat="42.1627817" lon="14.716115"><ele>25.0</ele><time>2026-04-25T09:33:14.885Z</time></trkpt><trkpt lat="42.16269" lon="14.7161317"><ele>24.666666666666664</ele><time>2026-04-25T09:33:16.885Z</time></trkpt><trkpt lat="42.1625983" lon="14.7161383"><ele>24.333333333333332</ele><time>2026-04-25T09:33:18.886Z</time></trkpt><trkpt lat="42.162515" lon="14.7161417"><ele>24.0</ele><time>2026-04-25T09:33:20.886Z</time></trkpt><trkpt lat="42.162425" lon="14.716155"><ele>24.0</ele><time>2026-04-25T09:33:22.886Z</time></trkpt><trkpt lat="42.162335" lon="14.7161633"><ele>24.0</ele><time>2026-04-25T09:33:24.886Z</time></trkpt><trkpt lat="42.1622517" lon="14.7161667"><ele>24.0</ele><time>2026-04-25T09:33:26.885Z</time></trkpt><trkpt lat="42.1621633" lon="14.71617"><ele>24.0</ele><time>2026-04-25T09:33:28.886Z</time></trkpt><trkpt lat="42.162075" lon="14.71618"><ele>24.0</ele><time>2026-04-25T09:33:30.886Z</time></trkpt><trkpt lat="42.161975" lon="14.7161933"><ele>24.0</ele><time>2026-04-25T09:33:32.886Z</time></trkpt><trkpt lat="42.161875" lon="14.7161967"><ele>24.0</ele><time>2026-04-25T09:33:34.886Z</time></trkpt><trkpt lat="42.1617767" lon="14.7162067"><ele>24.0</ele><time>2026-04-25T09:33:36.886Z</time></trkpt><trkpt lat="42.1616783" lon="14.7162233"><ele>24.0</ele><time>2026-04-25T09:33:38.886Z</time></trkpt><trkpt lat="42.1615917" lon="14.7162367"><ele>24.0</ele><time>2026-04-25T09:33:40.885Z</time></trkpt><trkpt lat="42.1615033" lon="14.7162417"><ele>24.0</ele><time>2026-04-25T09:33:42.885Z</time></trkpt><trkpt lat="42.161415" lon="14.7162533"><ele>24.0</ele><time>2026-04-25T09:33:44.886Z</time></trkpt><trkpt lat="42.1613233" lon="14.7162583"><ele>24.0</ele><time>2026-04-25T09:33:46.886Z</time></trkpt><trkpt lat="42.1612233" lon="14.7162633"><ele>24.0</ele><time>2026-04-25T09:33:48.885Z</time></trkpt><trkpt lat="42.1611267" lon="14.7162717"><ele>24.0</ele><time>2026-04-25T09:33:50.886Z</time></trkpt><trkpt lat="42.1610333" lon="14.7162883"><ele>24.0</ele><time>2026-04-25T09:33:52.886Z</time></trkpt><trkpt lat="42.1609317" lon="14.7163017"><ele>24.0</ele><time>2026-04-25T09:33:54.886Z</time></trkpt><trkpt lat="42.16083" lon="14.71631"><ele>24.0</ele><time>2026-04-25T09:33:56.885Z</time></trkpt><trkpt lat="42.1607283" lon="14.716315"><ele>24.0</ele><time>2026-04-25T09:33:58.886Z</time></trkpt><trkpt lat="42.160635" lon="14.7163267"><ele>24.0</ele><time>2026-04-25T09:34:00.886Z</time></trkpt><trkpt lat="42.160545" lon="14.716335"><ele>24.0</ele><time>2026-04-25T09:34:02.885Z</time></trkpt><trkpt lat="42.1604483" lon="14.7163383"><ele>24.0</ele><time>2026-04-25T09:34:04.886Z</time></trkpt><trkpt lat="42.1603467" lon="14.7163467"><ele>24.0</ele><time>2026-04-25T09:34:06.886Z</time></trkpt><trkpt lat="42.160235" lon="14.7163583"><ele>24.0</ele><time>2026-04-25T09:34:08.886Z</time></trkpt><trkpt lat="42.160135" lon="14.7163667"><ele>24.0</ele><time>2026-04-25T09:34:10.886Z</time></trkpt><trkpt lat="42.1600383" lon="14.7163733"><ele>24.0</ele><time>2026-04-25T09:34:12.885Z</time></trkpt><trkpt lat="42.15994" lon="14.7163883"><ele>24.0</ele><time>2026-04-25T09:34:14.886Z</time></trkpt><trkpt lat="42.159835" lon="14.7164017"><ele>24.0</ele><time>2026-04-25T09:34:16.886Z</time></trkpt><trkpt lat="42.159735" lon="14.7164117"><ele>24.0</ele><time>2026-04-25T09:34:18.886Z</time></trkpt><trkpt lat="42.1596333" lon="14.7164217"><ele>24.0</ele><time>2026-04-25T09:34:20.886Z</time></trkpt><trkpt lat="42.15954" lon="14.7164267"><ele>25.2</ele><time>2026-04-25T09:34:22.885Z</time></trkpt><trkpt lat="42.1594333" lon="14.716435"><ele>26.4</ele><time>2026-04-25T09:34:24.886Z</time></trkpt><trkpt lat="42.15933" lon="14.71645"><ele>27.6</ele><time>2026-04-25T09:34:26.885Z</time></trkpt><trkpt lat="42.1592267" lon="14.7164583"><ele>28.8</ele><time>2026-04-25T09:34:28.886Z</time></trkpt><trkpt lat="42.1591267" lon="14.7164733"><ele>30.0</ele><time>2026-04-25T09:34:30.886Z</time></trkpt><trkpt lat="42.1590233" lon="14.71648"><ele>30.0</ele><time>2026-04-25T09:34:32.886Z</time></trkpt><trkpt lat="42.1589217" lon="14.71649"><ele>30.0</ele><time>2026-04-25T09:34:34.886Z</time></trkpt><trkpt lat="42.15881" lon="14.7164983"><ele>30.0</ele><time>2026-04-25T09:34:36.886Z</time></trkpt><trkpt lat="42.1587067" lon="14.7165133"><ele>30.0</ele><time>2026-04-25T09:34:38.886Z</time></trkpt><trkpt lat="42.1585983" lon="14.7165283"><ele>30.0</ele><time>2026-04-25T09:34:40.886Z</time></trkpt><trkpt lat="42.1585017" lon="14.7165333"><ele>30.0</ele><time>2026-04-25T09:34:42.886Z</time></trkpt><trkpt lat="42.1583983" lon="14.71654"><ele>30.0</ele><time>2026-04-25T09:34:44.885Z</time></trkpt><trkpt lat="42.1582917" lon="14.7165517"><ele>30.0</ele><time>2026-04-25T09:34:46.885Z</time></trkpt><trkpt lat="42.1581867" lon="14.716555"><ele>30.0</ele><time>2026-04-25T09:34:48.884Z</time></trkpt><trkpt lat="42.1580817" lon="14.7165683"><ele>30.0</ele><time>2026-04-25T09:34:50.885Z</time></trkpt><trkpt lat="42.1579767" lon="14.7165783"><ele>30.0</ele><time>2026-04-25T09:34:52.884Z</time></trkpt><trkpt lat="42.1578733" lon="14.716595"><ele>30.0</ele><time>2026-04-25T09:34:54.885Z</time></trkpt><trkpt lat="42.157765" lon="14.71661"><ele>30.0</ele><time>2026-04-25T09:34:56.885Z</time></trkpt><trkpt lat="42.1576583" lon="14.7166183"><ele>30.0</ele><time>2026-04-25T09:34:58.885Z</time></trkpt><trkpt lat="42.1575533" lon="14.71663"><ele>30.0</ele><time>2026-04-25T09:35:00.885Z</time></trkpt><trkpt lat="42.1574517" lon="14.716635"><ele>29.8</ele><time>2026-04-25T09:35:02.885Z</time></trkpt><trkpt lat="42.1573417" lon="14.7166467"><ele>29.6</ele><time>2026-04-25T09:35:04.885Z</time></trkpt><trkpt lat="42.1572333" lon="14.7166583"><ele>29.4</ele><time>2026-04-25T09:35:06.885Z</time></trkpt><trkpt lat="42.1571283" lon="14.716665"><ele>29.2</ele><time>2026-04-25T09:35:08.885Z</time></trkpt><trkpt lat="42.1570167" lon="14.7166833"><ele>29.0</ele><time>2026-04-25T09:35:10.885Z</time></trkpt><trkpt lat="42.1569067" lon="14.71668"><ele>29.0</ele><time>2026-04-25T09:35:12.885Z</time></trkpt><trkpt lat="42.1567933" lon="14.7166767"><ele>29.0</ele><time>2026-04-25T09:35:14.884Z</time></trkpt><trkpt lat="42.1566783" lon="14.7166533"><ele>29.0</ele><time>2026-04-25T09:35:16.885Z</time></trkpt><trkpt lat="42.1565633" lon="14.7166183"><ele>29.0</ele><time>2026-04-25T09:35:18.884Z</time></trkpt><trkpt lat="42.1564533" lon="14.7165833"><ele>28.75</ele><time>2026-04-25T09:35:20.884Z</time></trkpt><trkpt lat="42.1563383" lon="14.7165417"><ele>28.5</ele><time>2026-04-25T09:35:22.885Z</time></trkpt><trkpt lat="42.1562267" lon="14.7164867"><ele>28.25</ele><time>2026-04-25T09:35:24.884Z</time></trkpt><trkpt lat="42.1561183" lon="14.71644"><ele>28.0</ele><time>2026-04-25T09:35:26.885Z</time></trkpt><trkpt lat="42.1560167" lon="14.7163867"><ele>28.0</ele><time>2026-04-25T09:35:28.885Z</time></trkpt><trkpt lat="42.1559117" lon="14.716335"><ele>28.0</ele><time>2026-04-25T09:35:30.885Z</time></trkpt><trkpt lat="42.1558033" lon="14.7162867"><ele>28.0</ele><time>2026-04-25T09:35:32.884Z</time></trkpt><trkpt lat="42.15569" lon="14.7162417"><ele>28.0</ele><time>2026-04-25T09:35:34.884Z</time></trkpt><trkpt lat="42.155585" lon="14.71619"><ele>28.599999999999998</ele><time>2026-04-25T09:35:36.885Z</time></trkpt><trkpt lat="42.1554767" lon="14.71614"><ele>29.199999999999996</ele><time>2026-04-25T09:35:38.884Z</time></trkpt><trkpt lat="42.15537" lon="14.7160917"><ele>29.8</ele><time>2026-04-25T09:35:40.885Z</time></trkpt><trkpt lat="42.15527" lon="14.71604"><ele>30.4</ele><time>2026-04-25T09:35:42.884Z</time></trkpt><trkpt lat="42.1551717" lon="14.7159917"><ele>31.0</ele><time>2026-04-25T09:35:44.885Z</time></trkpt><trkpt lat="42.155075" lon="14.715945"><ele>31.0</ele><time>2026-04-25T09:35:46.885Z</time></trkpt><trkpt lat="42.15498" lon="14.7158983"><ele>31.0</ele><time>2026-04-25T09:35:48.885Z</time></trkpt><trkpt lat="42.1548783" lon="14.7158517"><ele>31.0</ele><time>2026-04-25T09:35:50.884Z</time></trkpt><trkpt lat="42.1547767" lon="14.7158117"><ele>31.0</ele><time>2026-04-25T09:35:52.885Z</time></trkpt><trkpt lat="42.1546833" lon="14.7157667"><ele>31.0</ele><time>2026-04-25T09:35:54.885Z</time></trkpt><trkpt lat="42.1545983" lon="14.7157183"><ele>31.4</ele><time>2026-04-25T09:35:56.885Z</time></trkpt><trkpt lat="42.1545083" lon="14.71568"><ele>31.8</ele><time>2026-04-25T09:35:58.884Z</time></trkpt><trkpt lat="42.1544117" lon="14.7156367"><ele>32.199999999999996</ele><time>2026-04-25T09:36:00.885Z</time></trkpt><trkpt lat="42.15431" lon="14.7156"><ele>32.6</ele><time>2026-04-25T09:36:02.885Z</time></trkpt><trkpt lat="42.154215" lon="14.7155533"><ele>33.0</ele><time>2026-04-25T09:36:04.884Z</time></trkpt><trkpt lat="42.15412" lon="14.7155117"><ele>33.199999999999996</ele><time>2026-04-25T09:36:06.885Z</time></trkpt><trkpt lat="42.1540333" lon="14.7154683"><ele>33.4</ele><time>2026-04-25T09:36:08.885Z</time></trkpt><trkpt lat="42.1539433" lon="14.7154283"><ele>33.599999999999994</ele><time>2026-04-25T09:36:10.884Z</time></trkpt><trkpt lat="42.1538517" lon="14.7153867"><ele>33.8</ele><time>2026-04-25T09:36:12.885Z</time></trkpt><trkpt lat="42.1537617" lon="14.7153417"><ele>34.0</ele><time>2026-04-25T09:36:14.884Z</time></trkpt><trkpt lat="42.1536733" lon="14.7153"><ele>34.0</ele><time>2026-04-25T09:36:16.885Z</time></trkpt><trkpt lat="42.1535817" lon="14.7152533"><ele>34.0</ele><time>2026-04-25T09:36:18.885Z</time></trkpt><trkpt lat="42.15348" lon="14.7152033"><ele>34.0</ele><time>2026-04-25T09:36:20.885Z</time></trkpt><trkpt lat="42.153385" lon="14.7151617"><ele>34.0</ele><time>2026-04-25T09:36:22.885Z</time></trkpt><trkpt lat="42.1532933" lon="14.715125"><ele>34.0</ele><time>2026-04-25T09:36:24.885Z</time></trkpt><trkpt lat="42.1531967" lon="14.7150783"><ele>34.6</ele><time>2026-04-25T09:36:26.884Z</time></trkpt><trkpt lat="42.153105" lon="14.715025"><ele>35.2</ele><time>2026-04-25T09:36:28.884Z</time></trkpt><trkpt lat="42.153005" lon="14.7149833"><ele>35.800000000000004</ele><time>2026-04-25T09:36:30.884Z</time></trkpt><trkpt lat="42.1529117" lon="14.7149483"><ele>36.4</ele><time>2026-04-25T09:36:32.885Z</time></trkpt><trkpt lat="42.1528183" lon="14.7149117"><ele>37.0</ele><time>2026-04-25T09:36:34.884Z</time></trkpt><trkpt lat="42.15273" lon="14.71487"><ele>37.0</ele><time>2026-04-25T09:36:36.885Z</time></trkpt><trkpt lat="42.1526333" lon="14.7148317"><ele>37.0</ele><time>2026-04-25T09:36:38.885Z</time></trkpt><trkpt lat="42.1525417" lon="14.7147967"><ele>37.0</ele><time>2026-04-25T09:36:40.884Z</time></trkpt><trkpt lat="42.1524483" lon="14.7147517"><ele>37.0</ele><time>2026-04-25T09:36:42.885Z</time></trkpt><trkpt lat="42.1523717" lon="14.7147117"><ele>37.0</ele><time>2026-04-25T09:36:44.885Z</time></trkpt><trkpt lat="42.152285" lon="14.7146633"><ele>36.800000000000004</ele><time>2026-04-25T09:36:46.884Z</time></trkpt><trkpt lat="42.1522017" lon="14.7145933"><ele>36.6</ele><time>2026-04-25T09:36:48.885Z</time></trkpt><trkpt lat="42.15213" lon="14.714505"><ele>36.400000000000006</ele><time>2026-04-25T09:36:50.885Z</time></trkpt><trkpt lat="42.1520883" lon="14.7144033"><ele>36.2</ele><time>2026-04-25T09:36:52.884Z</time></trkpt><trkpt lat="42.1520817" lon="14.7142683"><ele>36.0</ele><time>2026-04-25T09:36:54.884Z</time></trkpt><trkpt lat="42.1520717" lon="14.7141417"><ele>36.0</ele><time>2026-04-25T09:36:56.885Z</time></trkpt><trkpt lat="42.1520617" lon="14.7140183"><ele>36.0</ele><time>2026-04-25T09:36:58.885Z</time></trkpt><trkpt lat="42.1520533" lon="14.7139167"><ele>36.0</ele><time>2026-04-25T09:37:00.885Z</time></trkpt><trkpt lat="42.1520417" lon="14.71382"><ele>36.0</ele><time>2026-04-25T09:37:02.885Z</time></trkpt><trkpt lat="42.15204" lon="14.7137233"><ele>36.0</ele><time>2026-04-25T09:37:04.885Z</time></trkpt><trkpt lat="42.152025" lon="14.713625"><ele>36.0</ele><time>2026-04-25T09:37:07.885Z</time></trkpt><trkpt lat="42.1519817" lon="14.713545"><ele>36.5</ele><time>2026-04-25T09:37:10.885Z</time></trkpt><trkpt lat="42.1519233" lon="14.71349"><ele>37.0</ele><time>2026-04-25T09:37:12.885Z</time></trkpt><trkpt lat="42.151835" lon="14.7134817"><ele>37.5</ele><time>2026-04-25T09:37:14.885Z</time></trkpt><trkpt lat="42.1517383" lon="14.71349"><ele>38.0</ele><time>2026-04-25T09:37:16.885Z</time></trkpt><trkpt lat="42.1516467" lon="14.7135067"><ele>38.5</ele><time>2026-04-25T09:37:18.885Z</time></trkpt><trkpt lat="42.1515633" lon="14.71351"><ele>39.0</ele><time>2026-04-25T09:37:20.885Z</time></trkpt><trkpt lat="42.1514783" lon="14.7135117"><ele>39.333333333333336</ele><time>2026-04-25T09:37:22.885Z</time></trkpt><trkpt lat="42.1513983" lon="14.71352"><ele>39.666666666666664</ele><time>2026-04-25T09:37:24.885Z</time></trkpt><trkpt lat="42.1513117" lon="14.713535"><ele>40.0</ele><time>2026-04-25T09:37:26.885Z</time></trkpt><trkpt lat="42.15123" lon="14.7135467"><ele>40.33333333333333</ele><time>2026-04-25T09:37:28.885Z</time></trkpt><trkpt lat="42.1511467" lon="14.7135567"><ele>40.666666666666664</ele><time>2026-04-25T09:37:30.885Z</time></trkpt><trkpt lat="42.15107" lon="14.7135567"><ele>41.0</ele><time>2026-04-25T09:37:32.885Z</time></trkpt><trkpt lat="42.1509867" lon="14.7135583"><ele>41.0</ele><time>2026-04-25T09:37:34.884Z</time></trkpt><trkpt lat="42.1508967" lon="14.7135717"><ele>41.0</ele><time>2026-04-25T09:37:36.885Z</time></trkpt><trkpt lat="42.1508133" lon="14.7135867"><ele>41.0</ele><time>2026-04-25T09:37:38.885Z</time></trkpt><trkpt lat="42.1507367" lon="14.7135933"><ele>41.0</ele><time>2026-04-25T09:37:40.885Z</time></trkpt><trkpt lat="42.150655" lon="14.7136017"><ele>41.0</ele><time>2026-04-25T09:37:42.885Z</time></trkpt><trkpt lat="42.15057" lon="14.7136167"><ele>41.0</ele><time>2026-04-25T09:37:44.885Z</time></trkpt><trkpt lat="42.1504833" lon="14.713625"><ele>40.166666666666664</ele><time>2026-04-25T09:37:46.884Z</time></trkpt><trkpt lat="42.1504017" lon="14.7136333"><ele>39.33333333333333</ele><time>2026-04-25T09:37:48.885Z</time></trkpt><trkpt lat="42.1503233" lon="14.7136383"><ele>38.5</ele><time>2026-04-25T09:37:50.885Z</time></trkpt><trkpt lat="42.15024" lon="14.7136483"><ele>37.666666666666664</ele><time>2026-04-25T09:37:52.885Z</time></trkpt><trkpt lat="42.1501617" lon="14.71365"><ele>36.833333333333336</ele><time>2026-04-25T09:37:54.885Z</time></trkpt><trkpt lat="42.1500733" lon="14.7136517"><ele>36.0</ele><time>2026-04-25T09:37:56.884Z</time></trkpt><trkpt lat="42.1499867" lon="14.713665"><ele>36.0</ele><time>2026-04-25T09:37:58.885Z</time></trkpt><trkpt lat="42.1499" lon="14.7136883"><ele>36.0</ele><time>2026-04-25T09:38:00.885Z</time></trkpt><trkpt lat="42.1498183" lon="14.713705"><ele>36.0</ele><time>2026-04-25T09:38:02.885Z</time></trkpt><trkpt lat="42.1497417" lon="14.7137117"><ele>36.0</ele><time>2026-04-25T09:38:04.885Z</time></trkpt><trkpt lat="42.1496583" lon="14.7137233"><ele>36.0</ele><time>2026-04-25T09:38:06.885Z</time></trkpt><trkpt lat="42.149575" lon="14.71373"><ele>36.0</ele><time>2026-04-25T09:38:08.885Z</time></trkpt><trkpt lat="42.1494817" lon="14.7137367"><ele>36.666666666666664</ele><time>2026-04-25T09:38:10.885Z</time></trkpt><trkpt lat="42.1494033" lon="14.71375"><ele>37.333333333333336</ele><time>2026-04-25T09:38:12.885Z</time></trkpt><trkpt lat="42.1493233" lon="14.713765"><ele>38.0</ele><time>2026-04-25T09:38:14.885Z</time></trkpt><trkpt lat="42.1492383" lon="14.7137833"><ele>38.66666666666667</ele><time>2026-04-25T09:38:16.885Z</time></trkpt><trkpt lat="42.1491533" lon="14.7137917"><ele>39.333333333333336</ele><time>2026-04-25T09:38:18.885Z</time></trkpt><trkpt lat="42.1490767" lon="14.7137983"><ele>40.0</ele><time>2026-04-25T09:38:20.884Z</time></trkpt><trkpt lat="42.1489883" lon="14.7138017"><ele>40.2</ele><time>2026-04-25T09:38:22.885Z</time></trkpt><trkpt lat="42.1488967" lon="14.7138067"><ele>40.4</ele><time>2026-04-25T09:38:24.885Z</time></trkpt><trkpt lat="42.1488167" lon="14.7137917"><ele>40.599999999999994</ele><time>2026-04-25T09:38:26.885Z</time></trkpt><trkpt lat="42.148735" lon="14.713775"><ele>40.8</ele><time>2026-04-25T09:38:28.885Z</time></trkpt><trkpt lat="42.1486383" lon="14.713735"><ele>41.0</ele><time>2026-04-25T09:38:30.885Z</time></trkpt><trkpt lat="42.1485517" lon="14.71368"><ele>41.0</ele><time>2026-04-25T09:38:32.885Z</time></trkpt><trkpt lat="42.1484683" lon="14.7136417"><ele>41.0</ele><time>2026-04-25T09:38:34.885Z</time></trkpt><trkpt lat="42.14839" lon="14.7136"><ele>41.0</ele><time>2026-04-25T09:38:36.884Z</time></trkpt><trkpt lat="42.1483317" lon="14.713565"><ele>41.0</ele><time>2026-04-25T09:38:38.885Z</time></trkpt><trkpt lat="42.1481433" lon="14.7135067"><ele>41.0</ele><time>2026-04-25T09:39:47.387Z</time></trkpt><trkpt lat="42.148185" lon="14.7135767"><ele>41.857142857142854</ele><time>2026-04-25T09:39:49.387Z</time></trkpt><trkpt lat="42.148245" lon="14.7135317"><ele>42.714285714285715</ele><time>2026-04-25T09:39:59.887Z</time></trkpt><trkpt lat="42.1482017" lon="14.7134667"><ele>43.57142857142857</ele><time>2026-04-25T09:43:04.885Z</time></trkpt><trkpt lat="42.14813" lon="14.713435"><ele>44.42857142857143</ele><time>2026-04-25T09:43:07.886Z</time></trkpt><trkpt lat="42.1480433" lon="14.713395"><ele>45.285714285714285</ele><time>2026-04-25T09:43:10.886Z</time></trkpt><trkpt lat="42.1479783" lon="14.7133583"><ele>46.14285714285714</ele><time>2026-04-25T09:43:12.886Z</time></trkpt><trkpt lat="42.147915" lon="14.7133217"><ele>47.0</ele><time>2026-04-25T09:43:14.886Z</time></trkpt><trkpt lat="42.1478483" lon="14.71329"><ele>47.0</ele><time>2026-04-25T09:43:16.886Z</time></trkpt><trkpt lat="42.1477783" lon="14.713255"><ele>47.0</ele><time>2026-04-25T09:43:18.885Z</time></trkpt><trkpt lat="42.1477067" lon="14.7132233"><ele>47.0</ele><time>2026-04-25T09:43:20.886Z</time></trkpt><trkpt lat="42.14763" lon="14.7132"><ele>47.0</ele><time>2026-04-25T09:43:22.885Z</time></trkpt><trkpt lat="42.1475467" lon="14.713165"><ele>47.0</ele><time>2026-04-25T09:43:24.885Z</time></trkpt><trkpt lat="42.1474617" lon="14.713135"><ele>47.0</ele><time>2026-04-25T09:43:26.886Z</time></trkpt><trkpt lat="42.1473833" lon="14.7131"><ele>47.33333333333333</ele><time>2026-04-25T09:43:28.886Z</time></trkpt><trkpt lat="42.14731" lon="14.7130683"><ele>47.666666666666664</ele><time>2026-04-25T09:43:30.885Z</time></trkpt><trkpt lat="42.14724" lon="14.7130333"><ele>48.0</ele><time>2026-04-25T09:43:32.885Z</time></trkpt><trkpt lat="42.1471667" lon="14.7129983"><ele>48.33333333333333</ele><time>2026-04-25T09:43:34.886Z</time></trkpt><trkpt lat="42.1470883" lon="14.7129633"><ele>48.666666666666664</ele><time>2026-04-25T09:43:36.885Z</time></trkpt><trkpt lat="42.1470167" lon="14.71293"><ele>49.0</ele><time>2026-04-25T09:43:38.886Z</time></trkpt><trkpt lat="42.146935" lon="14.7128933"><ele>48.99999999999999</ele><time>2026-04-25T09:43:40.886Z</time></trkpt><trkpt lat="42.1468467" lon="14.7128617"><ele>49.0</ele><time>2026-04-25T09:43:42.886Z</time></trkpt><trkpt lat="42.1467733" lon="14.712825"><ele>49.0</ele><time>2026-04-25T09:43:44.885Z</time></trkpt><trkpt lat="42.1467033" lon="14.7127933"><ele>49.0</ele><time>2026-04-25T09:43:46.886Z</time></trkpt><trkpt lat="42.1466333" lon="14.71276"><ele>48.99999999999999</ele><time>2026-04-25T09:43:48.886Z</time></trkpt><trkpt lat="42.1465633" lon="14.712725"><ele>49.0</ele><time>2026-04-25T09:43:50.886Z</time></trkpt><trkpt lat="42.146495" lon="14.7126883"><ele>49.83333333333333</ele><time>2026-04-25T09:43:52.886Z</time></trkpt><trkpt lat="42.1464233" lon="14.7126533"><ele>50.666666666666664</ele><time>2026-04-25T09:43:54.886Z</time></trkpt><trkpt lat="42.14635" lon="14.7126117"><ele>51.5</ele><time>2026-04-25T09:43:56.886Z</time></trkpt><trkpt lat="42.1462717" lon="14.7125733"><ele>52.33333333333333</ele><time>2026-04-25T09:43:58.886Z</time></trkpt><trkpt lat="42.1461983" lon="14.7125367"><ele>53.166666666666664</ele><time>2026-04-25T09:44:00.885Z</time></trkpt><trkpt lat="42.1461233" lon="14.7125"><ele>54.0</ele><time>2026-04-25T09:44:02.886Z</time></trkpt><trkpt lat="42.1460333" lon="14.7124633"><ele>54.0</ele><time>2026-04-25T09:44:04.885Z</time></trkpt><trkpt lat="42.14596" lon="14.71243"><ele>54.0</ele><time>2026-04-25T09:44:06.885Z</time></trkpt><trkpt lat="42.1458983" lon="14.712395"><ele>54.0</ele><time>2026-04-25T09:44:08.885Z</time></trkpt><trkpt lat="42.1458317" lon="14.7123683"><ele>54.0</ele><time>2026-04-25T09:44:10.885Z</time></trkpt><trkpt lat="42.14577" lon="14.71234"><ele>54.0</ele><time>2026-04-25T09:44:12.886Z</time></trkpt><trkpt lat="42.1456983" lon="14.7123083"><ele>54.0</ele><time>2026-04-25T09:44:14.885Z</time></trkpt><trkpt lat="42.1455933" lon="14.71228"><ele>54.0</ele><time>2026-04-25T09:44:16.886Z</time></trkpt><trkpt lat="42.14551" lon="14.7122517"><ele>54.0</ele><time>2026-04-25T09:44:18.885Z</time></trkpt><trkpt lat="42.1454333" lon="14.7122133"><ele>54.0</ele><time>2026-04-25T09:44:20.886Z</time></trkpt><trkpt lat="42.1453567" lon="14.7121717"><ele>54.0</ele><time>2026-04-25T09:44:22.885Z</time></trkpt><trkpt lat="42.1452817" lon="14.7121317"><ele>54.0</ele><time>2026-04-25T09:44:24.886Z</time></trkpt><trkpt lat="42.145195" lon="14.7120867"><ele>54.0</ele><time>2026-04-25T09:44:26.886Z</time></trkpt><trkpt lat="42.14511" lon="14.7120467"><ele>54.0</ele><time>2026-04-25T09:44:28.886Z</time></trkpt><trkpt lat="42.14502" lon="14.7120083"><ele>54.0</ele><time>2026-04-25T09:44:30.886Z</time></trkpt><trkpt lat="42.1449383" lon="14.7119683"><ele>54.0</ele><time>2026-04-25T09:44:32.886Z</time></trkpt><trkpt lat="42.1448583" lon="14.7119283"><ele>54.0</ele><time>2026-04-25T09:44:34.886Z</time></trkpt><trkpt lat="42.14478" lon="14.7118967"><ele>54.0</ele><time>2026-04-25T09:44:36.886Z</time></trkpt><trkpt lat="42.1446983" lon="14.711865"><ele>54.0</ele><time>2026-04-25T09:44:38.886Z</time></trkpt><trkpt lat="42.1446183" lon="14.71183"><ele>54.666666666666664</ele><time>2026-04-25T09:44:40.885Z</time></trkpt><trkpt lat="42.1445383" lon="14.7117917"><ele>55.33333333333333</ele><time>2026-04-25T09:44:42.886Z</time></trkpt><trkpt lat="42.144465" lon="14.711755"><ele>56.0</ele><time>2026-04-25T09:44:44.886Z</time></trkpt><trkpt lat="42.144395" lon="14.711715"><ele>56.666666666666664</ele><time>2026-04-25T09:44:46.886Z</time></trkpt><trkpt lat="42.1443233" lon="14.7116767"><ele>57.33333333333333</ele><time>2026-04-25T09:44:48.885Z</time></trkpt><trkpt lat="42.1442483" lon="14.71164"><ele>58.0</ele><time>2026-04-25T09:44:50.885Z</time></trkpt><trkpt lat="42.1441683" lon="14.711595"><ele>58.0</ele><time>2026-04-25T09:44:52.886Z</time></trkpt><trkpt lat="42.1440833" lon="14.7115633"><ele>58.0</ele><time>2026-04-25T09:44:54.886Z</time></trkpt><trkpt lat="42.1440033" lon="14.711525"><ele>58.0</ele><time>2026-04-25T09:44:56.885Z</time></trkpt><trkpt lat="42.1439233" lon="14.711485"><ele>58.0</ele><time>2026-04-25T09:44:58.886Z</time></trkpt><trkpt lat="42.1438267" lon="14.7114417"><ele>58.0</ele><time>2026-04-25T09:45:00.885Z</time></trkpt><trkpt lat="42.1437333" lon="14.7113983"><ele>58.4</ele><time>2026-04-25T09:45:02.886Z</time></trkpt><trkpt lat="42.14365" lon="14.7113633"><ele>58.8</ele><time>2026-04-25T09:45:04.885Z</time></trkpt><trkpt lat="42.143565" lon="14.7113217"><ele>59.2</ele><time>2026-04-25T09:45:06.886Z</time></trkpt><trkpt lat="42.14348" lon="14.711275"><ele>59.6</ele><time>2026-04-25T09:45:08.885Z</time></trkpt><trkpt lat="42.143385" lon="14.71124"><ele>60.0</ele><time>2026-04-25T09:45:10.886Z</time></trkpt><trkpt lat="42.1433017" lon="14.7111983"><ele>60.0</ele><time>2026-04-25T09:45:12.886Z</time></trkpt><trkpt lat="42.1432183" lon="14.7111517"><ele>60.0</ele><time>2026-04-25T09:45:14.886Z</time></trkpt><trkpt lat="42.14314" lon="14.7111167"><ele>60.0</ele><time>2026-04-25T09:45:16.886Z</time></trkpt><trkpt lat="42.1430633" lon="14.7110867"><ele>60.0</ele><time>2026-04-25T09:45:18.886Z</time></trkpt><trkpt lat="42.1429767" lon="14.7110533"><ele>60.0</ele><time>2026-04-25T09:45:20.886Z</time></trkpt><trkpt lat="42.1428933" lon="14.7110183"><ele>60.0</ele><time>2026-04-25T09:45:22.886Z</time></trkpt><trkpt lat="42.142795" lon="14.71099"><ele>60.8</ele><time>2026-04-25T09:45:24.886Z</time></trkpt><trkpt lat="42.1427" lon="14.7109667"><ele>61.6</ele><time>2026-04-25T09:45:26.886Z</time></trkpt><trkpt lat="42.1426017" lon="14.7109367"><ele>62.400000000000006</ele><time>2026-04-25T09:45:28.886Z</time></trkpt><trkpt lat="42.142505" lon="14.7109167"><ele>63.2</ele><time>2026-04-25T09:45:30.885Z</time></trkpt><trkpt lat="42.1424017" lon="14.7109"><ele>64.0</ele><time>2026-04-25T09:45:32.885Z</time></trkpt><trkpt lat="42.1423067" lon="14.710895"><ele>64.60000000000001</ele><time>2026-04-25T09:45:34.886Z</time></trkpt><trkpt lat="42.1422117" lon="14.7108933"><ele>65.2</ele><time>2026-04-25T09:45:36.886Z</time></trkpt><trkpt lat="42.1421167" lon="14.710895"><ele>65.80000000000001</ele><time>2026-04-25T09:45:38.885Z</time></trkpt><trkpt lat="42.1420217" lon="14.7108933"><ele>66.4</ele><time>2026-04-25T09:45:40.886Z</time></trkpt><trkpt lat="42.1419317" lon="14.7108833"><ele>67.0</ele><time>2026-04-25T09:45:42.885Z</time></trkpt><trkpt lat="42.141835" lon="14.7108817"><ele>67.0</ele><time>2026-04-25T09:45:44.886Z</time></trkpt><trkpt lat="42.1417433" lon="14.7108833"><ele>67.0</ele><time>2026-04-25T09:45:46.886Z</time></trkpt><trkpt lat="42.1416517" lon="14.7108917"><ele>67.0</ele><time>2026-04-25T09:45:48.885Z</time></trkpt><trkpt lat="42.1415633" lon="14.7108883"><ele>67.0</ele><time>2026-04-25T09:45:50.886Z</time></trkpt><trkpt lat="42.1414783" lon="14.710885"><ele>67.0</ele><time>2026-04-25T09:45:52.886Z</time></trkpt><trkpt lat="42.14139" lon="14.7108867"><ele>67.0</ele><time>2026-04-25T09:45:54.885Z</time></trkpt><trkpt lat="42.1413017" lon="14.7108967"><ele>67.4</ele><time>2026-04-25T09:45:56.885Z</time></trkpt><trkpt lat="42.1412133" lon="14.7108983"><ele>67.80000000000001</ele><time>2026-04-25T09:45:58.886Z</time></trkpt><trkpt lat="42.14112" lon="14.7108933"><ele>68.2</ele><time>2026-04-25T09:46:00.886Z</time></trkpt><trkpt lat="42.1410167" lon="14.7108933"><ele>68.60000000000001</ele><time>2026-04-25T09:46:02.886Z</time></trkpt><trkpt lat="42.1409183" lon="14.7108967"><ele>69.0</ele><time>2026-04-25T09:46:04.886Z</time></trkpt><trkpt lat="42.140825" lon="14.7109017"><ele>69.0</ele><time>2026-04-25T09:46:06.886Z</time></trkpt><trkpt lat="42.140735" lon="14.710905"><ele>69.0</ele><time>2026-04-25T09:46:08.886Z</time></trkpt><trkpt lat="42.14064" lon="14.71091"><ele>69.0</ele><time>2026-04-25T09:46:10.886Z</time></trkpt><trkpt lat="42.1405417" lon="14.71091"><ele>69.0</ele><time>2026-04-25T09:46:12.886Z</time></trkpt><trkpt lat="42.1404467" lon="14.7109117"><ele>69.0</ele><time>2026-04-25T09:46:14.885Z</time></trkpt><trkpt lat="42.1403567" lon="14.7109083"><ele>69.4</ele><time>2026-04-25T09:46:16.886Z</time></trkpt><trkpt lat="42.1402667" lon="14.710915"><ele>69.80000000000001</ele><time>2026-04-25T09:46:18.886Z</time></trkpt><trkpt lat="42.1401733" lon="14.710915"><ele>70.19999999999999</ele><time>2026-04-25T09:46:20.885Z</time></trkpt><trkpt lat="42.14008" lon="14.7109133"><ele>70.6</ele><time>2026-04-25T09:46:22.886Z</time></trkpt><trkpt lat="42.1399917" lon="14.7109217"><ele>71.0</ele><time>2026-04-25T09:46:24.886Z</time></trkpt><trkpt lat="42.1399" lon="14.7109217"><ele>71.8</ele><time>2026-04-25T09:46:26.885Z</time></trkpt><trkpt lat="42.1398133" lon="14.7109233"><ele>72.6</ele><time>2026-04-25T09:46:28.886Z</time></trkpt><trkpt lat="42.1397233" lon="14.7109283"><ele>73.4</ele><time>2026-04-25T09:46:30.886Z</time></trkpt><trkpt lat="42.1396267" lon="14.7109283"><ele>74.2</ele><time>2026-04-25T09:46:32.886Z</time></trkpt><trkpt lat="42.1395283" lon="14.7109267"><ele>75.0</ele><time>2026-04-25T09:46:34.886Z</time></trkpt><trkpt lat="42.1394283" lon="14.7109267"><ele>75.0</ele><time>2026-04-25T09:46:36.886Z</time></trkpt><trkpt lat="42.139335" lon="14.7109267"><ele>75.0</ele><time>2026-04-25T09:46:38.886Z</time></trkpt><trkpt lat="42.139245" lon="14.710925"><ele>75.0</ele><time>2026-04-25T09:46:40.886Z</time></trkpt><trkpt lat="42.1391583" lon="14.7109283"><ele>75.0</ele><time>2026-04-25T09:46:42.885Z</time></trkpt><trkpt lat="42.1390717" lon="14.71093"><ele>75.0</ele><time>2026-04-25T09:46:44.885Z</time></trkpt><trkpt lat="42.13898" lon="14.7109317"><ele>75.0</ele><time>2026-04-25T09:46:46.886Z</time></trkpt><trkpt lat="42.1388833" lon="14.7109317"><ele>75.6</ele><time>2026-04-25T09:46:48.885Z</time></trkpt><trkpt lat="42.138795" lon="14.710935"><ele>76.2</ele><time>2026-04-25T09:46:50.886Z</time></trkpt><trkpt lat="42.138705" lon="14.71094"><ele>76.8</ele><time>2026-04-25T09:46:52.886Z</time></trkpt><trkpt lat="42.1386133" lon="14.71094"><ele>77.4</ele><time>2026-04-25T09:46:54.885Z</time></trkpt><trkpt lat="42.13852" lon="14.71094"><ele>78.0</ele><time>2026-04-25T09:46:56.885Z</time></trkpt><trkpt lat="42.1384283" lon="14.7109417"><ele>78.0</ele><time>2026-04-25T09:46:58.886Z</time></trkpt><trkpt lat="42.1383333" lon="14.7109317"><ele>78.0</ele><time>2026-04-25T09:47:00.886Z</time></trkpt><trkpt lat="42.1382333" lon="14.7109283"><ele>78.0</ele><time>2026-04-25T09:47:02.885Z</time></trkpt><trkpt lat="42.1381317" lon="14.7109367"><ele>78.0</ele><time>2026-04-25T09:47:04.885Z</time></trkpt><trkpt lat="42.1380317" lon="14.710945"><ele>78.0</ele><time>2026-04-25T09:47:06.886Z</time></trkpt><trkpt lat="42.13794" lon="14.7109517"><ele>78.4</ele><time>2026-04-25T09:47:08.885Z</time></trkpt><trkpt lat="42.137845" lon="14.7109533"><ele>78.8</ele><time>2026-04-25T09:47:10.886Z</time></trkpt><trkpt lat="42.1377533" lon="14.710955"><ele>79.2</ele><time>2026-04-25T09:47:12.886Z</time></trkpt><trkpt lat="42.137665" lon="14.710955"><ele>79.6</ele><time>2026-04-25T09:47:14.886Z</time></trkpt><trkpt lat="42.1375817" lon="14.710955"><ele>80.0</ele><time>2026-04-25T09:47:16.886Z</time></trkpt><trkpt lat="42.13749" lon="14.7109617"><ele>80.0</ele><time>2026-04-25T09:47:18.886Z</time></trkpt><trkpt lat="42.1373983" lon="14.710965"><ele>80.0</ele><time>2026-04-25T09:47:20.886Z</time></trkpt><trkpt lat="42.137305" lon="14.7109733"><ele>80.0</ele><time>2026-04-25T09:47:22.885Z</time></trkpt><trkpt lat="42.1372133" lon="14.710975"><ele>80.0</ele><time>2026-04-25T09:47:24.886Z</time></trkpt><trkpt lat="42.1371133" lon="14.71097"><ele>80.0</ele><time>2026-04-25T09:47:26.886Z</time></trkpt><trkpt lat="42.1370167" lon="14.7109733"><ele>80.4</ele><time>2026-04-25T09:47:28.886Z</time></trkpt><trkpt lat="42.136925" lon="14.710975"><ele>80.8</ele><time>2026-04-25T09:47:30.886Z</time></trkpt><trkpt lat="42.13683" lon="14.7109783"><ele>81.19999999999999</ele><time>2026-04-25T09:47:32.885Z</time></trkpt><trkpt lat="42.1367433" lon="14.7109783"><ele>81.6</ele><time>2026-04-25T09:47:34.885Z</time></trkpt><trkpt lat="42.1366567" lon="14.71098"><ele>82.0</ele><time>2026-04-25T09:47:36.886Z</time></trkpt><trkpt lat="42.136565" lon="14.7109767"><ele>82.6</ele><time>2026-04-25T09:47:38.886Z</time></trkpt><trkpt lat="42.1364767" lon="14.710975"><ele>83.19999999999999</ele><time>2026-04-25T09:47:40.886Z</time></trkpt><trkpt lat="42.136385" lon="14.710975"><ele>83.8</ele><time>2026-04-25T09:47:42.886Z</time></trkpt><trkpt lat="42.1362833" lon="14.7109867"><ele>84.4</ele><time>2026-04-25T09:47:44.886Z</time></trkpt><trkpt lat="42.1362" lon="14.710995"><ele>85.0</ele><time>2026-04-25T09:47:46.885Z</time></trkpt><trkpt lat="42.1361133" lon="14.7109983"><ele>85.0</ele><time>2026-04-25T09:47:48.886Z</time></trkpt><trkpt lat="42.136015" lon="14.711005"><ele>85.0</ele><time>2026-04-25T09:47:50.885Z</time></trkpt><trkpt lat="42.135935" lon="14.711"><ele>85.0</ele><time>2026-04-25T09:47:52.886Z</time></trkpt><trkpt lat="42.135845" lon="14.7109933"><ele>85.0</ele><time>2026-04-25T09:47:54.886Z</time></trkpt><trkpt lat="42.1357517" lon="14.71099"><ele>85.0</ele><time>2026-04-25T09:47:56.886Z</time></trkpt><trkpt lat="42.1356667" lon="14.7109883"><ele>85.0</ele><time>2026-04-25T09:47:58.885Z</time></trkpt><trkpt lat="42.1355783" lon="14.7109867"><ele>85.4</ele><time>2026-04-25T09:48:00.885Z</time></trkpt><trkpt lat="42.1354917" lon="14.7109817"><ele>85.8</ele><time>2026-04-25T09:48:02.886Z</time></trkpt><trkpt lat="42.1354" lon="14.7109783"><ele>86.19999999999999</ele><time>2026-04-25T09:48:04.886Z</time></trkpt><trkpt lat="42.1352967" lon="14.7109683"><ele>86.6</ele><time>2026-04-25T09:48:06.886Z</time></trkpt><trkpt lat="42.1351867" lon="14.7109617"><ele>87.0</ele><time>2026-04-25T09:48:08.885Z</time></trkpt><trkpt lat="42.135085" lon="14.7109583"><ele>87.0</ele><time>2026-04-25T09:48:10.886Z</time></trkpt><trkpt lat="42.1349867" lon="14.7109633"><ele>87.0</ele><time>2026-04-25T09:48:12.886Z</time></trkpt><trkpt lat="42.1348933" lon="14.710955"><ele>87.0</ele><time>2026-04-25T09:48:14.886Z</time></trkpt><trkpt lat="42.1347967" lon="14.71095"><ele>87.0</ele><time>2026-04-25T09:48:16.886Z</time></trkpt><trkpt lat="42.1347" lon="14.7109483"><ele>87.0</ele><time>2026-04-25T09:48:18.886Z</time></trkpt><trkpt lat="42.1346017" lon="14.710955"><ele>87.6</ele><time>2026-04-25T09:48:20.886Z</time></trkpt><trkpt lat="42.1345067" lon="14.7109683"><ele>88.19999999999999</ele><time>2026-04-25T09:48:22.885Z</time></trkpt><trkpt lat="42.134415" lon="14.7109783"><ele>88.8</ele><time>2026-04-25T09:48:24.886Z</time></trkpt><trkpt lat="42.134325" lon="14.7109767"><ele>89.4</ele><time>2026-04-25T09:48:26.886Z</time></trkpt><trkpt lat="42.1342367" lon="14.7109767"><ele>90.0</ele><time>2026-04-25T09:48:28.886Z</time></trkpt><trkpt lat="42.13414" lon="14.7109783"><ele>90.2</ele><time>2026-04-25T09:48:30.885Z</time></trkpt><trkpt lat="42.1340417" lon="14.710975"><ele>90.4</ele><time>2026-04-25T09:48:32.886Z</time></trkpt><trkpt lat="42.13395" lon="14.7109783"><ele>90.6</ele><time>2026-04-25T09:48:34.886Z</time></trkpt><trkpt lat="42.13386" lon="14.7109733"><ele>90.8</ele><time>2026-04-25T09:48:36.885Z</time></trkpt><trkpt lat="42.1337683" lon="14.7109733"><ele>91.0</ele><time>2026-04-25T09:48:38.886Z</time></trkpt><trkpt lat="42.1336817" lon="14.7109733"><ele>91.0</ele><time>2026-04-25T09:48:40.886Z</time></trkpt><trkpt lat="42.1335967" lon="14.71097"><ele>91.0</ele><time>2026-04-25T09:48:42.886Z</time></trkpt><trkpt lat="42.133515" lon="14.7109717"><ele>91.0</ele><time>2026-04-25T09:48:44.886Z</time></trkpt><trkpt lat="42.1334383" lon="14.710975"><ele>91.0</ele><time>2026-04-25T09:48:46.885Z</time></trkpt><trkpt lat="42.13335" lon="14.71097"><ele>91.0</ele><time>2026-04-25T09:48:48.886Z</time></trkpt><trkpt lat="42.1332783" lon="14.71097"><ele>91.0</ele><time>2026-04-25T09:48:50.886Z</time></trkpt><trkpt lat="42.1331783" lon="14.710965"><ele>91.5</ele><time>2026-04-25T09:48:53.885Z</time></trkpt><trkpt lat="42.1330917" lon="14.7109617"><ele>92.0</ele><time>2026-04-25T09:48:55.885Z</time></trkpt><trkpt lat="42.133" lon="14.7109617"><ele>92.5</ele><time>2026-04-25T09:48:57.886Z</time></trkpt><trkpt lat="42.132905" lon="14.710955"><ele>93.0</ele><time>2026-04-25T09:48:59.886Z</time></trkpt><trkpt lat="42.1328233" lon="14.7109533"><ele>93.5</ele><time>2026-04-25T09:49:01.886Z</time></trkpt><trkpt lat="42.1327567" lon="14.71095"><ele>94.0</ele><time>2026-04-25T09:49:03.886Z</time></trkpt><trkpt lat="42.1326667" lon="14.7109417"><ele>94.0</ele><time>2026-04-25T09:49:06.885Z</time></trkpt><trkpt lat="42.1325783" lon="14.7109483"><ele>94.0</ele><time>2026-04-25T09:49:08.886Z</time></trkpt><trkpt lat="42.132485" lon="14.710955"><ele>94.0</ele><time>2026-04-25T09:49:10.886Z</time></trkpt><trkpt lat="42.1323917" lon="14.710955"><ele>94.0</ele><time>2026-04-25T09:49:12.886Z</time></trkpt><trkpt lat="42.1322933" lon="14.7109633"><ele>94.0</ele><time>2026-04-25T09:49:14.885Z</time></trkpt><trkpt lat="42.1321967" lon="14.7109667"><ele>94.80000000000001</ele><time>2026-04-25T09:49:16.885Z</time></trkpt><trkpt lat="42.1321017" lon="14.71097"><ele>95.60000000000001</ele><time>2026-04-25T09:49:18.886Z</time></trkpt><trkpt lat="42.1320017" lon="14.7109717"><ele>96.4</ele><time>2026-04-25T09:49:20.886Z</time></trkpt><trkpt lat="42.1319017" lon="14.7109683"><ele>97.2</ele><time>2026-04-25T09:49:22.885Z</time></trkpt><trkpt lat="42.1318" lon="14.7109733"><ele>98.0</ele><time>2026-04-25T09:49:24.885Z</time></trkpt><trkpt lat="42.1316917" lon="14.7109717"><ele>98.0</ele><time>2026-04-25T09:49:26.886Z</time></trkpt><trkpt lat="42.131595" lon="14.7109683"><ele>98.0</ele><time>2026-04-25T09:49:28.886Z</time></trkpt><trkpt lat="42.1314933" lon="14.71097"><ele>98.0</ele><time>2026-04-25T09:49:30.886Z</time></trkpt><trkpt lat="42.1314017" lon="14.7109733"><ele>98.0</ele><time>2026-04-25T09:49:32.885Z</time></trkpt><trkpt lat="42.13133" lon="14.710975"><ele>98.0</ele><time>2026-04-25T09:49:34.886Z</time></trkpt><trkpt lat="42.1312333" lon="14.7109767"><ele>98.80000000000001</ele><time>2026-04-25T09:49:36.886Z</time></trkpt><trkpt lat="42.13113" lon="14.7109667"><ele>99.6</ele><time>2026-04-25T09:49:38.886Z</time></trkpt><trkpt lat="42.1310283" lon="14.7109667"><ele>100.4</ele><time>2026-04-25T09:49:40.886Z</time></trkpt><trkpt lat="42.1309317" lon="14.7109567"><ele>101.19999999999999</ele><time>2026-04-25T09:49:42.886Z</time></trkpt><trkpt lat="42.1308333" lon="14.71095"><ele>102.0</ele><time>2026-04-25T09:49:44.885Z</time></trkpt><trkpt lat="42.1307417" lon="14.710945"><ele>102.0</ele><time>2026-04-25T09:49:46.885Z</time></trkpt><trkpt lat="42.1306433" lon="14.710955"><ele>102.0</ele><time>2026-04-25T09:49:48.886Z</time></trkpt><trkpt lat="42.1305333" lon="14.7109767"><ele>102.0</ele><time>2026-04-25T09:49:50.885Z</time></trkpt><trkpt lat="42.13043" lon="14.7109917"><ele>102.0</ele><time>2026-04-25T09:49:52.885Z</time></trkpt><trkpt lat="42.1303267" lon="14.7110017"><ele>102.0</ele><time>2026-04-25T09:49:54.886Z</time></trkpt><trkpt lat="42.130245" lon="14.71098"><ele>102.0</ele><time>2026-04-25T09:49:56.886Z</time></trkpt><trkpt lat="42.13017" lon="14.7109567"><ele>102.0</ele><time>2026-04-25T09:49:58.886Z</time></trkpt><trkpt lat="42.1300767" lon="14.7109383"><ele>102.0</ele><time>2026-04-25T09:50:01.886Z</time></trkpt><trkpt lat="42.1300067" lon="14.7109367"><ele>102.0</ele><time>2026-04-25T09:50:03.886Z</time></trkpt><trkpt lat="42.1299317" lon="14.7109333"><ele>102.0</ele><time>2026-04-25T09:50:06.886Z</time></trkpt><trkpt lat="42.1298483" lon="14.7109317"><ele>102.0</ele><time>2026-04-25T09:50:14.885Z</time></trkpt><trkpt lat="42.1297833" lon="14.71093"><ele>102.0</ele><time>2026-04-25T09:50:16.885Z</time></trkpt><trkpt lat="42.1297183" lon="14.7109283"><ele>102.0</ele><time>2026-04-25T09:50:18.885Z</time></trkpt><trkpt lat="42.1296483" lon="14.7109283"><ele>102.0</ele><time>2026-04-25T09:50:20.886Z</time></trkpt><trkpt lat="42.1295767" lon="14.7109283"><ele>102.0</ele><time>2026-04-25T09:50:22.886Z</time></trkpt><trkpt lat="42.1294967" lon="14.7109283"><ele>102.0</ele><time>2026-04-25T09:50:24.886Z</time></trkpt><trkpt lat="42.1294133" lon="14.710925"><ele>102.0</ele><time>2026-04-25T09:50:26.886Z</time></trkpt><trkpt lat="42.1293417" lon="14.710925"><ele>102.0</ele><time>2026-04-25T09:50:28.886Z</time></trkpt><trkpt lat="42.129265" lon="14.7109233"><ele>102.0</ele><time>2026-04-25T09:50:30.886Z</time></trkpt><trkpt lat="42.1291967" lon="14.710915"><ele>102.0</ele><time>2026-04-25T09:50:32.886Z</time></trkpt><trkpt lat="42.1291167" lon="14.7109067"><ele>102.0</ele><time>2026-04-25T09:50:34.886Z</time></trkpt><trkpt lat="42.1290483" lon="14.7109017"><ele>102.0</ele><time>2026-04-25T09:50:36.886Z</time></trkpt><trkpt lat="42.128955" lon="14.7108867"><ele>102.0</ele><time>2026-04-25T09:50:39.885Z</time></trkpt><trkpt lat="42.1288867" lon="14.7108767"><ele>102.0</ele><time>2026-04-25T09:50:41.886Z</time></trkpt><trkpt lat="42.1287983" lon="14.710865"><ele>102.16666666666667</ele><time>2026-04-25T09:50:44.886Z</time></trkpt><trkpt lat="42.1286967" lon="14.7108667"><ele>102.33333333333334</ele><time>2026-04-25T09:50:47.886Z</time></trkpt><trkpt lat="42.12863" lon="14.7108717"><ele>102.5</ele><time>2026-04-25T09:50:49.885Z</time></trkpt><trkpt lat="42.12855" lon="14.7108867"><ele>102.66666666666667</ele><time>2026-04-25T09:50:51.886Z</time></trkpt><trkpt lat="42.12848" lon="14.710885"><ele>102.83333333333334</ele><time>2026-04-25T09:50:53.885Z</time></trkpt><trkpt lat="42.1284133" lon="14.710885"><ele>103.0</ele><time>2026-04-25T09:50:58.885Z</time></trkpt><trkpt lat="42.1283367" lon="14.710885"><ele>103.00000000000001</ele><time>2026-04-25T09:51:02.886Z</time></trkpt><trkpt lat="42.1282717" lon="14.710885"><ele>103.0</ele><time>2026-04-25T09:51:06.886Z</time></trkpt><trkpt lat="42.1282017" lon="14.710885"><ele>103.0</ele><time>2026-04-25T09:51:09.886Z</time></trkpt><trkpt lat="42.1281367" lon="14.710885"><ele>103.0</ele><time>2026-04-25T09:51:11.886Z</time></trkpt><trkpt lat="42.1280567" lon="14.710885"><ele>103.00000000000001</ele><time>2026-04-25T09:51:13.886Z</time></trkpt><trkpt lat="42.127965" lon="14.7108967"><ele>103.0</ele><time>2026-04-25T09:51:15.885Z</time></trkpt><trkpt lat="42.12788" lon="14.71093"><ele>103.60000000000001</ele><time>2026-04-25T09:51:17.886Z</time></trkpt><trkpt lat="42.1277933" lon="14.71094"><ele>104.2</ele><time>2026-04-25T09:51:19.886Z</time></trkpt><trkpt lat="42.1276867" lon="14.710945"><ele>104.8</ele><time>2026-04-25T09:51:21.886Z</time></trkpt><trkpt lat="42.1275867" lon="14.7109167"><ele>105.4</ele><time>2026-04-25T09:51:23.886Z</time></trkpt><trkpt lat="42.1275083" lon="14.7108683"><ele>106.0</ele><time>2026-04-25T09:51:25.886Z</time></trkpt><trkpt lat="42.1274433" lon="14.71081"><ele>105.83333333333334</ele><time>2026-04-25T09:51:27.886Z</time></trkpt><trkpt lat="42.127385" lon="14.7107383"><ele>105.66666666666667</ele><time>2026-04-25T09:51:29.886Z</time></trkpt><trkpt lat="42.1273383" lon="14.7106667"><ele>105.5</ele><time>2026-04-25T09:51:31.886Z</time></trkpt><trkpt lat="42.1273" lon="14.710565"><ele>105.33333333333334</ele><time>2026-04-25T09:51:33.885Z</time></trkpt><trkpt lat="42.1272583" lon="14.7104683"><ele>105.16666666666667</ele><time>2026-04-25T09:51:35.886Z</time></trkpt><trkpt lat="42.1272117" lon="14.7103717"><ele>105.0</ele><time>2026-04-25T09:51:37.886Z</time></trkpt><trkpt lat="42.1271617" lon="14.7102683"><ele>105.6</ele><time>2026-04-25T09:51:39.885Z</time></trkpt><trkpt lat="42.1271133" lon="14.7101533"><ele>106.2</ele><time>2026-04-25T09:51:41.886Z</time></trkpt><trkpt lat="42.1270617" lon="14.7100583"><ele>106.80000000000001</ele><time>2026-04-25T09:51:43.885Z</time></trkpt><trkpt lat="42.1270067" lon="14.70997"><ele>107.4</ele><time>2026-04-25T09:51:45.886Z</time></trkpt><trkpt lat="42.1269467" lon="14.709885"><ele>108.0</ele><time>2026-04-25T09:51:47.885Z</time></trkpt><trkpt lat="42.1268867" lon="14.70978"><ele>108.0</ele><time>2026-04-25T09:51:49.885Z</time></trkpt><trkpt lat="42.1268267" lon="14.7096817"><ele>108.0</ele><time>2026-04-25T09:51:51.886Z</time></trkpt><trkpt lat="42.12678" lon="14.7095783"><ele>108.0</ele><time>2026-04-25T09:51:53.885Z</time></trkpt><trkpt lat="42.1267367" lon="14.70948"><ele>108.0</ele><time>2026-04-25T09:51:55.885Z</time></trkpt><trkpt lat="42.12668" lon="14.7093933"><ele>108.0</ele><time>2026-04-25T09:51:57.885Z</time></trkpt><trkpt lat="42.126625" lon="14.7093"><ele>108.0</ele><time>2026-04-25T09:51:59.886Z</time></trkpt><trkpt lat="42.126575" lon="14.7092133"><ele>107.83333333333333</ele><time>2026-04-25T09:52:01.886Z</time></trkpt><trkpt lat="42.1265217" lon="14.7091367"><ele>107.66666666666666</ele><time>2026-04-25T09:52:03.886Z</time></trkpt><trkpt lat="42.1264633" lon="14.7090583"><ele>107.5</ele><time>2026-04-25T09:52:05.886Z</time></trkpt><trkpt lat="42.1264067" lon="14.7089717"><ele>107.33333333333333</ele><time>2026-04-25T09:52:07.886Z</time></trkpt><trkpt lat="42.1263517" lon="14.7088733"><ele>107.16666666666666</ele><time>2026-04-25T09:52:09.886Z</time></trkpt><trkpt lat="42.1263017" lon="14.7087867"><ele>107.0</ele><time>2026-04-25T09:52:11.886Z</time></trkpt><trkpt lat="42.12625" lon="14.708685"><ele>108.19999999999999</ele><time>2026-04-25T09:52:13.885Z</time></trkpt><trkpt lat="42.1261933" lon="14.708575"><ele>109.39999999999999</ele><time>2026-04-25T09:52:15.886Z</time></trkpt><trkpt lat="42.1261283" lon="14.70845"><ele>110.60000000000001</ele><time>2026-04-25T09:52:17.886Z</time></trkpt><trkpt lat="42.126035" lon="14.70837"><ele>111.80000000000001</ele><time>2026-04-25T09:52:19.886Z</time></trkpt><trkpt lat="42.12595" lon="14.7082983"><ele>113.0</ele><time>2026-04-25T09:52:21.886Z</time></trkpt><trkpt lat="42.1258717" lon="14.708235"><ele>112.99999999999999</ele><time>2026-04-25T09:52:23.886Z</time></trkpt><trkpt lat="42.1257867" lon="14.7081667"><ele>113.0</ele><time>2026-04-25T09:52:25.886Z</time></trkpt><trkpt lat="42.1257067" lon="14.7081167"><ele>113.0</ele><time>2026-04-25T09:52:27.886Z</time></trkpt><trkpt lat="42.125625" lon="14.7080733"><ele>113.0</ele><time>2026-04-25T09:52:29.885Z</time></trkpt><trkpt lat="42.12556" lon="14.708045"><ele>112.99999999999999</ele><time>2026-04-25T09:52:31.886Z</time></trkpt><trkpt lat="42.1254667" lon="14.7080333"><ele>113.0</ele><time>2026-04-25T09:52:33.886Z</time></trkpt><trkpt lat="42.125385" lon="14.7080033"><ele>113.71428571428572</ele><time>2026-04-25T09:52:35.886Z</time></trkpt><trkpt lat="42.1253067" lon="14.7079767"><ele>114.42857142857142</ele><time>2026-04-25T09:52:37.885Z</time></trkpt><trkpt lat="42.1252283" lon="14.70793"><ele>115.14285714285714</ele><time>2026-04-25T09:52:39.885Z</time></trkpt><trkpt lat="42.1251617" lon="14.7078817"><ele>115.85714285714286</ele><time>2026-04-25T09:52:41.886Z</time></trkpt><trkpt lat="42.1251033" lon="14.7078417"><ele>116.57142857142858</ele><time>2026-04-25T09:52:43.886Z</time></trkpt><trkpt lat="42.125045" lon="14.7078033"><ele>117.28571428571428</ele><time>2026-04-25T09:52:45.885Z</time></trkpt><trkpt lat="42.124985" lon="14.70776"><ele>118.0</ele><time>2026-04-25T09:52:47.886Z</time></trkpt><trkpt lat="42.1249267" lon="14.7077167"><ele>118.57142857142857</ele><time>2026-04-25T09:52:49.885Z</time></trkpt><trkpt lat="42.12486" lon="14.707675"><ele>119.14285714285714</ele><time>2026-04-25T09:52:51.885Z</time></trkpt><trkpt lat="42.1247933" lon="14.70763"><ele>119.71428571428571</ele><time>2026-04-25T09:52:53.886Z</time></trkpt><trkpt lat="42.1247367" lon="14.7075817"><ele>120.28571428571428</ele><time>2026-04-25T09:52:55.886Z</time></trkpt><trkpt lat="42.1246867" lon="14.707525"><ele>120.85714285714286</ele><time>2026-04-25T09:52:57.885Z</time></trkpt><trkpt lat="42.12463" lon="14.70747"><ele>121.42857142857142</ele><time>2026-04-25T09:52:59.886Z</time></trkpt><trkpt lat="42.124575" lon="14.7074267"><ele>121.99999999999999</ele><time>2026-04-25T09:53:01.885Z</time></trkpt><trkpt lat="42.124535" lon="14.7073533"><ele>121.99999999999999</ele><time>2026-04-25T09:53:03.886Z</time></trkpt><trkpt lat="42.1245283" lon="14.7072667"><ele>122.0</ele><time>2026-04-25T09:53:05.886Z</time></trkpt><trkpt lat="42.12455" lon="14.7071783"><ele>122.0</ele><time>2026-04-25T09:53:07.885Z</time></trkpt><trkpt lat="42.124575" lon="14.7070917"><ele>122.0</ele><time>2026-04-25T09:53:09.885Z</time></trkpt><trkpt lat="42.1246017" lon="14.706995"><ele>121.99999999999999</ele><time>2026-04-25T09:53:11.885Z</time></trkpt><trkpt lat="42.1246283" lon="14.70688"><ele>122.0</ele><time>2026-04-25T09:53:13.885Z</time></trkpt><trkpt lat="42.1246533" lon="14.7067683"><ele>122.19999999999999</ele><time>2026-04-25T09:53:15.886Z</time></trkpt><trkpt lat="42.12469" lon="14.706655"><ele>122.39999999999999</ele><time>2026-04-25T09:53:17.886Z</time></trkpt><trkpt lat="42.1247317" lon="14.7065417"><ele>122.60000000000001</ele><time>2026-04-25T09:53:19.886Z</time></trkpt><trkpt lat="42.124785" lon="14.7064367"><ele>122.80000000000001</ele><time>2026-04-25T09:53:21.886Z</time></trkpt><trkpt lat="42.124845" lon="14.7063383"><ele>123.0</ele><time>2026-04-25T09:53:23.886Z</time></trkpt><trkpt lat="42.1249" lon="14.7062417"><ele>122.5</ele><time>2026-04-25T09:53:25.885Z</time></trkpt><trkpt lat="42.1249567" lon="14.7061467"><ele>122.0</ele><time>2026-04-25T09:53:27.886Z</time></trkpt><trkpt lat="42.1250233" lon="14.7060683"><ele>121.5</ele><time>2026-04-25T09:53:29.886Z</time></trkpt><trkpt lat="42.1250933" lon="14.7060267"><ele>121.0</ele><time>2026-04-25T09:53:31.886Z</time></trkpt><trkpt lat="42.1251633" lon="14.7059633"><ele>120.5</ele><time>2026-04-25T09:53:34.885Z</time></trkpt><trkpt lat="42.1252133" lon="14.7058983"><ele>120.0</ele><time>2026-04-25T09:53:37.886Z</time></trkpt><trkpt lat="42.12525" lon="14.7058183"><ele>121.16666666666667</ele><time>2026-04-25T09:53:42.886Z</time></trkpt><trkpt lat="42.1252967" lon="14.7057433"><ele>122.33333333333334</ele><time>2026-04-25T09:53:47.886Z</time></trkpt><trkpt lat="42.1253583" lon="14.7057"><ele>123.5</ele><time>2026-04-25T09:53:49.886Z</time></trkpt><trkpt lat="42.1254317" lon="14.7056567"><ele>124.66666666666667</ele><time>2026-04-25T09:53:51.885Z</time></trkpt><trkpt lat="42.1255167" lon="14.7056417"><ele>125.83333333333334</ele><time>2026-04-25T09:53:53.886Z</time></trkpt><trkpt lat="42.1256267" lon="14.7056367"><ele>127.0</ele><time>2026-04-25T09:53:55.886Z</time></trkpt><trkpt lat="42.12569" lon="14.7056417"><ele>126.8</ele><time>2026-04-25T09:53:56.886Z</time></trkpt><trkpt lat="42.1258067" lon="14.7056617"><ele>126.6</ele><time>2026-04-25T09:53:58.886Z</time></trkpt><trkpt lat="42.1259217" lon="14.70568"><ele>126.39999999999999</ele><time>2026-04-25T09:54:00.885Z</time></trkpt><trkpt lat="42.1260283" lon="14.7056767"><ele>126.19999999999999</ele><time>2026-04-25T09:54:02.886Z</time></trkpt><trkpt lat="42.12613" lon="14.7056617"><ele>126.0</ele><time>2026-04-25T09:54:04.885Z</time></trkpt><trkpt lat="42.1262317" lon="14.70565"><ele>126.0</ele><time>2026-04-25T09:54:06.886Z</time></trkpt><trkpt lat="42.1263183" lon="14.70565"><ele>126.0</ele><time>2026-04-25T09:54:08.885Z</time></trkpt><trkpt lat="42.1264083" lon="14.7056267"><ele>126.0</ele><time>2026-04-25T09:54:10.886Z</time></trkpt><trkpt lat="42.1264883" lon="14.7055683"><ele>126.0</ele><time>2026-04-25T09:54:12.885Z</time></trkpt><trkpt lat="42.1265317" lon="14.7054983"><ele>126.0</ele><time>2026-04-25T09:54:14.885Z</time></trkpt><trkpt lat="42.126565" lon="14.7054167"><ele>126.0</ele><time>2026-04-25T09:54:17.886Z</time></trkpt><trkpt lat="42.1266183" lon="14.7053433"><ele>126.19999999999999</ele><time>2026-04-25T09:54:20.885Z</time></trkpt><trkpt lat="42.126685" lon="14.7053133"><ele>126.39999999999999</ele><time>2026-04-25T09:54:22.886Z</time></trkpt><trkpt lat="42.1267667" lon="14.7053067"><ele>126.6</ele><time>2026-04-25T09:54:24.886Z</time></trkpt><trkpt lat="42.12687" lon="14.70533"><ele>126.8</ele><time>2026-04-25T09:54:26.886Z</time></trkpt><trkpt lat="42.12698" lon="14.705365"><ele>127.0</ele><time>2026-04-25T09:54:28.885Z</time></trkpt><trkpt lat="42.1270783" lon="14.7053833"><ele>127.00000000000001</ele><time>2026-04-25T09:54:30.886Z</time></trkpt><trkpt lat="42.1271583" lon="14.7053967"><ele>127.0</ele><time>2026-04-25T09:54:32.885Z</time></trkpt><trkpt lat="42.127225" lon="14.705385"><ele>127.0</ele><time>2026-04-25T09:54:34.886Z</time></trkpt><trkpt lat="42.1272967" lon="14.7053"><ele>127.0</ele><time>2026-04-25T09:54:37.885Z</time></trkpt><trkpt lat="42.1273267" lon="14.70519"><ele>127.00000000000001</ele><time>2026-04-25T09:54:39.886Z</time></trkpt><trkpt lat="42.12737" lon="14.7050667"><ele>127.0</ele><time>2026-04-25T09:54:41.886Z</time></trkpt><trkpt lat="42.1274383" lon="14.7049467"><ele>126.6</ele><time>2026-04-25T09:54:43.886Z</time></trkpt><trkpt lat="42.1275217" lon="14.7048267"><ele>126.19999999999999</ele><time>2026-04-25T09:54:45.886Z</time></trkpt><trkpt lat="42.1276067" lon="14.7047033"><ele>125.8</ele><time>2026-04-25T09:54:47.886Z</time></trkpt><trkpt lat="42.1276517" lon="14.7046417"><ele>125.4</ele><time>2026-04-25T09:54:48.886Z</time></trkpt><trkpt lat="42.1277367" lon="14.7045183"><ele>125.0</ele><time>2026-04-25T09:54:50.886Z</time></trkpt><trkpt lat="42.1278183" lon="14.7043983"><ele>124.8</ele><time>2026-04-25T09:54:52.885Z</time></trkpt><trkpt lat="42.127905" lon="14.7042833"><ele>124.6</ele><time>2026-04-25T09:54:54.885Z</time></trkpt><trkpt lat="42.1279883" lon="14.70418"><ele>124.4</ele><time>2026-04-25T09:54:56.886Z</time></trkpt><trkpt lat="42.1280367" lon="14.7041017"><ele>124.2</ele><time>2026-04-25T09:54:58.886Z</time></trkpt><trkpt lat="42.1280733" lon="14.70402"><ele>124.0</ele><time>2026-04-25T09:55:00.885Z</time></trkpt><trkpt lat="42.1280783" lon="14.7039017"><ele>124.0</ele><time>2026-04-25T09:55:02.885Z</time></trkpt><trkpt lat="42.1280583" lon="14.7037783"><ele>124.0</ele><time>2026-04-25T09:55:04.885Z</time></trkpt><trkpt lat="42.128025" lon="14.703655"><ele>124.0</ele><time>2026-04-25T09:55:06.886Z</time></trkpt><trkpt lat="42.1279917" lon="14.703545"><ele>124.0</ele><time>2026-04-25T09:55:08.886Z</time></trkpt><trkpt lat="42.1279583" lon="14.7034367"><ele>124.0</ele><time>2026-04-25T09:55:10.886Z</time></trkpt><trkpt lat="42.1279167" lon="14.7033217"><ele>125.0</ele><time>2026-04-25T09:55:12.885Z</time></trkpt><trkpt lat="42.1278783" lon="14.7032133"><ele>126.0</ele><time>2026-04-25T09:55:14.885Z</time></trkpt><trkpt lat="42.1278383" lon="14.7030967"><ele>127.0</ele><time>2026-04-25T09:55:16.886Z</time></trkpt><trkpt lat="42.127795" lon="14.70297"><ele>128.0</ele><time>2026-04-25T09:55:18.885Z</time></trkpt><trkpt lat="42.1277433" lon="14.7028517"><ele>129.0</ele><time>2026-04-25T09:55:20.886Z</time></trkpt><trkpt lat="42.1276967" lon="14.70275"><ele>129.16666666666666</ele><time>2026-04-25T09:55:22.885Z</time></trkpt><trkpt lat="42.127655" lon="14.702645"><ele>129.33333333333334</ele><time>2026-04-25T09:55:24.886Z</time></trkpt><trkpt lat="42.1276083" lon="14.7025467"><ele>129.5</ele><time>2026-04-25T09:55:26.885Z</time></trkpt><trkpt lat="42.1275733" lon="14.7024533"><ele>129.66666666666669</ele><time>2026-04-25T09:55:28.886Z</time></trkpt><trkpt lat="42.1275333" lon="14.7023517"><ele>129.83333333333334</ele><time>2026-04-25T09:55:31.885Z</time></trkpt><trkpt lat="42.1275283" lon="14.7022583"><ele>130.0</ele><time>2026-04-25T09:55:34.886Z</time></trkpt><trkpt lat="42.1275567" lon="14.7021817"><ele>130.0</ele><time>2026-04-25T09:55:36.886Z</time></trkpt><trkpt lat="42.1276133" lon="14.7021017"><ele>130.0</ele><time>2026-04-25T09:55:38.886Z</time></trkpt><trkpt lat="42.12771" lon="14.702025"><ele>130.0</ele><time>2026-04-25T09:55:40.886Z</time></trkpt><trkpt lat="42.1278083" lon="14.7019233"><ele>130.0</ele><time>2026-04-25T09:55:42.886Z</time></trkpt><trkpt lat="42.12787" lon="14.7018783"><ele>130.0</ele><time>2026-04-25T09:55:43.886Z</time></trkpt><trkpt lat="42.1279217" lon="14.7018283"><ele>130.0</ele><time>2026-04-25T09:55:44.885Z</time></trkpt><trkpt lat="42.1280267" lon="14.7017333"><ele>130.0</ele><time>2026-04-25T09:55:46.886Z</time></trkpt><trkpt lat="42.1280833" lon="14.7016767"><ele>130.0</ele><time>2026-04-25T09:55:47.886Z</time></trkpt><trkpt lat="42.1281417" lon="14.701625"><ele>130.0</ele><time>2026-04-25T09:55:48.885Z</time></trkpt><trkpt lat="42.1282" lon="14.70157"><ele>130.0</ele><time>2026-04-25T09:55:49.886Z</time></trkpt><trkpt lat="42.128255" lon="14.7015167"><ele>130.0</ele><time>2026-04-25T09:55:50.886Z</time></trkpt><trkpt lat="42.1283133" lon="14.701465"><ele>129.66666666666669</ele><time>2026-04-25T09:55:51.886Z</time></trkpt><trkpt lat="42.1283733" lon="14.7014167"><ele>129.33333333333334</ele><time>2026-04-25T09:55:52.885Z</time></trkpt><trkpt lat="42.1284367" lon="14.7013667"><ele>129.0</ele><time>2026-04-25T09:55:53.885Z</time></trkpt><trkpt lat="42.1285033" lon="14.701315"><ele>128.66666666666666</ele><time>2026-04-25T09:55:54.886Z</time></trkpt><trkpt lat="42.1285717" lon="14.7012633"><ele>128.33333333333331</ele><time>2026-04-25T09:55:55.886Z</time></trkpt><trkpt lat="42.1286367" lon="14.7012"><ele>128.0</ele><time>2026-04-25T09:55:56.886Z</time></trkpt><trkpt lat="42.1287017" lon="14.70114"><ele>127.99999999999999</ele><time>2026-04-25T09:55:57.885Z</time></trkpt><trkpt lat="42.1287733" lon="14.701095"><ele>128.0</ele><time>2026-04-25T09:55:58.886Z</time></trkpt><trkpt lat="42.1288433" lon="14.701045"><ele>128.0</ele><time>2026-04-25T09:55:59.886Z</time></trkpt><trkpt lat="42.1289117" lon="14.7009983"><ele>128.0</ele><time>2026-04-25T09:56:00.886Z</time></trkpt><trkpt lat="42.1289817" lon="14.700955"><ele>127.99999999999999</ele><time>2026-04-25T09:56:01.886Z</time></trkpt><trkpt lat="42.12905" lon="14.7009083"><ele>128.0</ele><time>2026-04-25T09:56:02.886Z</time></trkpt><trkpt lat="42.1291183" lon="14.70086"><ele>127.28571428571428</ele><time>2026-04-25T09:56:03.886Z</time></trkpt><trkpt lat="42.1291817" lon="14.7008167"><ele>126.57142857142856</ele><time>2026-04-25T09:56:04.885Z</time></trkpt><trkpt lat="42.1292483" lon="14.7007733"><ele>125.85714285714286</ele><time>2026-04-25T09:56:05.885Z</time></trkpt><trkpt lat="42.1293133" lon="14.700725"><ele>125.14285714285714</ele><time>2026-04-25T09:56:06.886Z</time></trkpt><trkpt lat="42.12938" lon="14.7006733"><ele>124.42857142857143</ele><time>2026-04-25T09:56:07.885Z</time></trkpt><trkpt lat="42.1294467" lon="14.7006217"><ele>123.71428571428572</ele><time>2026-04-25T09:56:08.886Z</time></trkpt><trkpt lat="42.1295067" lon="14.7005683"><ele>123.00000000000001</ele><time>2026-04-25T09:56:09.886Z</time></trkpt><trkpt lat="42.1295783" lon="14.7005217"><ele>123.0</ele><time>2026-04-25T09:56:10.886Z</time></trkpt><trkpt lat="42.12965" lon="14.7004683"><ele>123.0</ele><time>2026-04-25T09:56:11.886Z</time></trkpt><trkpt lat="42.1297183" lon="14.700415"><ele>123.0</ele><time>2026-04-25T09:56:12.885Z</time></trkpt><trkpt lat="42.1297867" lon="14.7003667"><ele>123.0</ele><time>2026-04-25T09:56:13.886Z</time></trkpt><trkpt lat="42.1298533" lon="14.700315"><ele>123.0</ele><time>2026-04-25T09:56:14.886Z</time></trkpt><trkpt lat="42.129925" lon="14.7002667"><ele>123.0</ele><time>2026-04-25T09:56:15.886Z</time></trkpt><trkpt lat="42.1299983" lon="14.7002183"><ele>122.66666666666667</ele><time>2026-04-25T09:56:16.885Z</time></trkpt><trkpt lat="42.1300717" lon="14.7001683"><ele>122.33333333333334</ele><time>2026-04-25T09:56:17.886Z</time></trkpt><trkpt lat="42.1301417" lon="14.7001217"><ele>122.0</ele><time>2026-04-25T09:56:18.885Z</time></trkpt><trkpt lat="42.1302133" lon="14.7000883"><ele>121.66666666666667</ele><time>2026-04-25T09:56:19.885Z</time></trkpt><trkpt lat="42.1302917" lon="14.7000567"><ele>121.33333333333334</ele><time>2026-04-25T09:56:20.886Z</time></trkpt><trkpt lat="42.1303667" lon="14.7000233"><ele>121.0</ele><time>2026-04-25T09:56:21.885Z</time></trkpt><trkpt lat="42.1304433" lon="14.6999867"><ele>121.00000000000001</ele><time>2026-04-25T09:56:22.886Z</time></trkpt><trkpt lat="42.1305183" lon="14.69996"><ele>121.0</ele><time>2026-04-25T09:56:23.886Z</time></trkpt><trkpt lat="42.1305983" lon="14.6999267"><ele>121.0</ele><time>2026-04-25T09:56:24.886Z</time></trkpt><trkpt lat="42.1306733" lon="14.6998883"><ele>121.0</ele><time>2026-04-25T09:56:25.886Z</time></trkpt><trkpt lat="42.1307367" lon="14.69985"><ele>121.00000000000001</ele><time>2026-04-25T09:56:26.886Z</time></trkpt><trkpt lat="42.1308083" lon="14.6998217"><ele>121.0</ele><time>2026-04-25T09:56:27.885Z</time></trkpt><trkpt lat="42.13088" lon="14.6997883"><ele>120.50000000000001</ele><time>2026-04-25T09:56:28.886Z</time></trkpt><trkpt lat="42.1309467" lon="14.6997567"><ele>120.0</ele><time>2026-04-25T09:56:29.886Z</time></trkpt><trkpt lat="42.1310133" lon="14.6997317"><ele>119.5</ele><time>2026-04-25T09:56:30.886Z</time></trkpt><trkpt lat="42.1310783" lon="14.699705"><ele>119.0</ele><time>2026-04-25T09:56:31.886Z</time></trkpt><trkpt lat="42.13114" lon="14.699675"><ele>118.50000000000001</ele><time>2026-04-25T09:56:32.886Z</time></trkpt><trkpt lat="42.1312033" lon="14.69965"><ele>118.0</ele><time>2026-04-25T09:56:33.886Z</time></trkpt><trkpt lat="42.13132" lon="14.6996133"><ele>118.0</ele><time>2026-04-25T09:56:35.885Z</time></trkpt><trkpt lat="42.1314367" lon="14.6995783"><ele>118.0</ele><time>2026-04-25T09:56:37.886Z</time></trkpt><trkpt lat="42.1315483" lon="14.6995267"><ele>118.0</ele><time>2026-04-25T09:56:39.886Z</time></trkpt><trkpt lat="42.131655" lon="14.6994783"><ele>118.0</ele><time>2026-04-25T09:56:41.886Z</time></trkpt><trkpt lat="42.131755" lon="14.6994283"><ele>118.75</ele><time>2026-04-25T09:56:43.886Z</time></trkpt><trkpt lat="42.1318583" lon="14.6994017"><ele>119.5</ele><time>2026-04-25T09:56:45.886Z</time></trkpt><trkpt lat="42.1319767" lon="14.6993467"><ele>120.25</ele><time>2026-04-25T09:56:47.886Z</time></trkpt><trkpt lat="42.1320917" lon="14.699315"><ele>121.0</ele><time>2026-04-25T09:56:49.885Z</time></trkpt><trkpt lat="42.132215" lon="14.6992783"><ele>121.0</ele><time>2026-04-25T09:56:51.886Z</time></trkpt><trkpt lat="42.13234" lon="14.6992483"><ele>121.0</ele><time>2026-04-25T09:56:53.886Z</time></trkpt><trkpt lat="42.1324683" lon="14.6992117"><ele>121.0</ele><time>2026-04-25T09:56:55.885Z</time></trkpt><trkpt lat="42.132535" lon="14.69919"><ele>121.0</ele><time>2026-04-25T09:56:56.885Z</time></trkpt><trkpt lat="42.1326017" lon="14.6991783"><ele>121.0</ele><time>2026-04-25T09:56:57.886Z</time></trkpt><trkpt lat="42.1327267" lon="14.6991533"><ele>120.66666666666667</ele><time>2026-04-25T09:56:59.885Z</time></trkpt><trkpt lat="42.1328533" lon="14.699125"><ele>120.33333333333334</ele><time>2026-04-25T09:57:01.886Z</time></trkpt><trkpt lat="42.1329183" lon="14.69911"><ele>120.0</ele><time>2026-04-25T09:57:02.885Z</time></trkpt><trkpt lat="42.1329817" lon="14.6990983"><ele>119.66666666666666</ele><time>2026-04-25T09:57:03.886Z</time></trkpt><trkpt lat="42.1330483" lon="14.6990867"><ele>119.33333333333333</ele><time>2026-04-25T09:57:04.886Z</time></trkpt><trkpt lat="42.133115" lon="14.69907"><ele>119.0</ele><time>2026-04-25T09:57:05.886Z</time></trkpt><trkpt lat="42.1331833" lon="14.6990533"><ele>118.66666666666666</ele><time>2026-04-25T09:57:06.886Z</time></trkpt><trkpt lat="42.1333083" lon="14.6990317"><ele>118.33333333333333</ele><time>2026-04-25T09:57:08.885Z</time></trkpt><trkpt lat="42.1333767" lon="14.69902"><ele>118.0</ele><time>2026-04-25T09:57:09.886Z</time></trkpt><trkpt lat="42.1334417" lon="14.6989967"><ele>117.66666666666666</ele><time>2026-04-25T09:57:10.886Z</time></trkpt><trkpt lat="42.1335083" lon="14.6989833"><ele>117.33333333333333</ele><time>2026-04-25T09:57:11.886Z</time></trkpt><trkpt lat="42.1335733" lon="14.698975"><ele>117.0</ele><time>2026-04-25T09:57:12.885Z</time></trkpt><trkpt lat="42.13364" lon="14.698965"><ele>117.0</ele><time>2026-04-25T09:57:13.886Z</time></trkpt><trkpt lat="42.1337033" lon="14.698955"><ele>117.00000000000001</ele><time>2026-04-25T09:57:14.886Z</time></trkpt><trkpt lat="42.13377" lon="14.69894"><ele>117.0</ele><time>2026-04-25T09:57:15.886Z</time></trkpt><trkpt lat="42.133835" lon="14.6989267"><ele>117.0</ele><time>2026-04-25T09:57:16.886Z</time></trkpt><trkpt lat="42.1338967" lon="14.6989067"><ele>117.00000000000001</ele><time>2026-04-25T09:57:17.885Z</time></trkpt><trkpt lat="42.1339667" lon="14.6988883"><ele>117.0</ele><time>2026-04-25T09:57:18.885Z</time></trkpt><trkpt lat="42.1340383" lon="14.6988717"><ele>117.0</ele><time>2026-04-25T09:57:19.886Z</time></trkpt><trkpt lat="42.1341083" lon="14.6988517"><ele>116.33333333333333</ele><time>2026-04-25T09:57:20.885Z</time></trkpt><trkpt lat="42.13418" lon="14.69882"><ele>115.66666666666666</ele><time>2026-04-25T09:57:21.886Z</time></trkpt><trkpt lat="42.13424" lon="14.698785"><ele>115.0</ele><time>2026-04-25T09:57:22.885Z</time></trkpt><trkpt lat="42.1343033" lon="14.6987617"><ele>114.33333333333333</ele><time>2026-04-25T09:57:23.886Z</time></trkpt><trkpt lat="42.13437" lon="14.6987433"><ele>113.66666666666666</ele><time>2026-04-25T09:57:24.886Z</time></trkpt><trkpt lat="42.1344333" lon="14.6987217"><ele>113.0</ele><time>2026-04-25T09:57:25.886Z</time></trkpt><trkpt lat="42.1345533" lon="14.6986583"><ele>113.0</ele><time>2026-04-25T09:57:27.886Z</time></trkpt><trkpt lat="42.1346183" lon="14.6986267"><ele>113.0</ele><time>2026-04-25T09:57:28.886Z</time></trkpt><trkpt lat="42.1346817" lon="14.698595"><ele>113.0</ele><time>2026-04-25T09:57:29.886Z</time></trkpt><trkpt lat="42.134745" lon="14.6985667"><ele>113.0</ele><time>2026-04-25T09:57:30.886Z</time></trkpt><trkpt lat="42.1348083" lon="14.6985433"><ele>113.0</ele><time>2026-04-25T09:57:31.886Z</time></trkpt><trkpt lat="42.13487" lon="14.698515"><ele>113.0</ele><time>2026-04-25T09:57:32.885Z</time></trkpt><trkpt lat="42.1349317" lon="14.69848"><ele>113.0</ele><time>2026-04-25T09:57:33.886Z</time></trkpt><trkpt lat="42.1349967" lon="14.6984433"><ele>113.14285714285714</ele><time>2026-04-25T09:57:34.886Z</time></trkpt><trkpt lat="42.1350633" lon="14.6984067"><ele>113.28571428571428</ele><time>2026-04-25T09:57:35.886Z</time></trkpt><trkpt lat="42.1351267" lon="14.6983717"><ele>113.42857142857142</ele><time>2026-04-25T09:57:36.886Z</time></trkpt><trkpt lat="42.1351967" lon="14.6983467"><ele>113.57142857142857</ele><time>2026-04-25T09:57:37.886Z</time></trkpt><trkpt lat="42.135275" lon="14.6983283"><ele>113.7142857142857</ele><time>2026-04-25T09:57:38.885Z</time></trkpt><trkpt lat="42.1353467" lon="14.698305"><ele>113.85714285714285</ele><time>2026-04-25T09:57:39.886Z</time></trkpt><trkpt lat="42.1354133" lon="14.698275"><ele>114.0</ele><time>2026-04-25T09:57:40.886Z</time></trkpt><trkpt lat="42.13548" lon="14.6982417"><ele>114.0</ele><time>2026-04-25T09:57:41.886Z</time></trkpt><trkpt lat="42.1355867" lon="14.69818"><ele>114.0</ele><time>2026-04-25T09:57:43.886Z</time></trkpt><trkpt lat="42.1357083" lon="14.698135"><ele>114.0</ele><time>2026-04-25T09:57:45.885Z</time></trkpt><trkpt lat="42.1357733" lon="14.698095"><ele>114.0</ele><time>2026-04-25T09:57:46.886Z</time></trkpt><trkpt lat="42.1358433" lon="14.6980617"><ele>114.0</ele><time>2026-04-25T09:57:47.886Z</time></trkpt><trkpt lat="42.13591" lon="14.69804"><ele>113.28571428571428</ele><time>2026-04-25T09:57:48.885Z</time></trkpt><trkpt lat="42.1359783" lon="14.6980183"><ele>112.57142857142856</ele><time>2026-04-25T09:57:49.886Z</time></trkpt><trkpt lat="42.1360417" lon="14.6980017"><ele>111.85714285714286</ele><time>2026-04-25T09:57:50.886Z</time></trkpt><trkpt lat="42.136105" lon="14.6979883"><ele>111.14285714285714</ele><time>2026-04-25T09:57:51.886Z</time></trkpt><trkpt lat="42.1361717" lon="14.697975"><ele>110.42857142857143</ele><time>2026-04-25T09:57:52.886Z</time></trkpt><trkpt lat="42.1362367" lon="14.697965"><ele>109.71428571428572</ele><time>2026-04-25T09:57:53.885Z</time></trkpt><trkpt lat="42.1363" lon="14.6979533"><ele>109.0</ele><time>2026-04-25T09:57:54.885Z</time></trkpt><trkpt lat="42.136365" lon="14.6979467"><ele>109.00000000000001</ele><time>2026-04-25T09:57:55.886Z</time></trkpt><trkpt lat="42.13643" lon="14.6979383"><ele>109.0</ele><time>2026-04-25T09:57:56.885Z</time></trkpt><trkpt lat="42.136495" lon="14.69793"><ele>109.0</ele><time>2026-04-25T09:57:57.886Z</time></trkpt><trkpt lat="42.1366183" lon="14.69791"><ele>109.0</ele><time>2026-04-25T09:57:59.885Z</time></trkpt><trkpt lat="42.1366817" lon="14.6979"><ele>109.00000000000001</ele><time>2026-04-25T09:58:00.886Z</time></trkpt><trkpt lat="42.1367433" lon="14.69788"><ele>109.0</ele><time>2026-04-25T09:58:01.885Z</time></trkpt><trkpt lat="42.1368117" lon="14.6978617"><ele>108.57142857142857</ele><time>2026-04-25T09:58:02.885Z</time></trkpt><trkpt lat="42.13688" lon="14.697855"><ele>108.14285714285714</ele><time>2026-04-25T09:58:03.885Z</time></trkpt><trkpt lat="42.1369517" lon="14.6978517"><ele>107.71428571428572</ele><time>2026-04-25T09:58:04.885Z</time></trkpt><trkpt lat="42.13702" lon="14.6978483"><ele>107.28571428571428</ele><time>2026-04-25T09:58:05.886Z</time></trkpt><trkpt lat="42.1370867" lon="14.6978433"><ele>106.85714285714285</ele><time>2026-04-25T09:58:06.886Z</time></trkpt><trkpt lat="42.1371567" lon="14.6978383"><ele>106.42857142857143</ele><time>2026-04-25T09:58:07.886Z</time></trkpt><trkpt lat="42.137225" lon="14.6978317"><ele>106.0</ele><time>2026-04-25T09:58:08.886Z</time></trkpt><trkpt lat="42.1372917" lon="14.6978183"><ele>106.0</ele><time>2026-04-25T09:58:09.885Z</time></trkpt><trkpt lat="42.137365" lon="14.6978117"><ele>106.0</ele><time>2026-04-25T09:58:10.886Z</time></trkpt><trkpt lat="42.1374317" lon="14.6978033"><ele>106.0</ele><time>2026-04-25T09:58:11.886Z</time></trkpt><trkpt lat="42.1374967" lon="14.697795"><ele>106.0</ele><time>2026-04-25T09:58:12.885Z</time></trkpt><trkpt lat="42.13756" lon="14.697795"><ele>106.0</ele><time>2026-04-25T09:58:13.886Z</time></trkpt><trkpt lat="42.1376233" lon="14.6977933"><ele>106.0</ele><time>2026-04-25T09:58:14.885Z</time></trkpt><trkpt lat="42.13769" lon="14.69779"><ele>106.0</ele><time>2026-04-25T09:58:15.885Z</time></trkpt><trkpt lat="42.1377533" lon="14.6977917"><ele>106.00000000000001</ele><time>2026-04-25T09:58:16.886Z</time></trkpt><trkpt lat="42.1378833" lon="14.6977783"><ele>106.0</ele><time>2026-04-25T09:58:18.886Z</time></trkpt><trkpt lat="42.1379483" lon="14.6977683"><ele>106.0</ele><time>2026-04-25T09:58:19.886Z</time></trkpt><trkpt lat="42.1380167" lon="14.697755"><ele>106.0</ele><time>2026-04-25T09:58:20.885Z</time></trkpt><trkpt lat="42.1380867" lon="14.6977433"><ele>106.00000000000001</ele><time>2026-04-25T09:58:21.885Z</time></trkpt><trkpt lat="42.1381567" lon="14.6977333"><ele>106.0</ele><time>2026-04-25T09:58:22.886Z</time></trkpt><trkpt lat="42.1382283" lon="14.6977217"><ele>106.14285714285715</ele><time>2026-04-25T09:58:23.886Z</time></trkpt><trkpt lat="42.1382983" lon="14.697715"><ele>106.28571428571428</ele><time>2026-04-25T09:58:24.885Z</time></trkpt><trkpt lat="42.13837" lon="14.6977033"><ele>106.42857142857143</ele><time>2026-04-25T09:58:25.886Z</time></trkpt><trkpt lat="42.138445" lon="14.697695"><ele>106.57142857142858</ele><time>2026-04-25T09:58:26.886Z</time></trkpt><trkpt lat="42.138515" lon="14.6976833"><ele>106.71428571428572</ele><time>2026-04-25T09:58:27.885Z</time></trkpt><trkpt lat="42.1385833" lon="14.6976733"><ele>106.85714285714286</ele><time>2026-04-25T09:58:28.886Z</time></trkpt><trkpt lat="42.1386533" lon="14.6976617"><ele>107.0</ele><time>2026-04-25T09:58:29.885Z</time></trkpt><trkpt lat="42.1387217" lon="14.6976517"><ele>107.00000000000001</ele><time>2026-04-25T09:58:30.886Z</time></trkpt><trkpt lat="42.13879" lon="14.69765"><ele>107.0</ele><time>2026-04-25T09:58:31.885Z</time></trkpt><trkpt lat="42.1388583" lon="14.6976467"><ele>107.0</ele><time>2026-04-25T09:58:32.886Z</time></trkpt><trkpt lat="42.13893" lon="14.69764"><ele>107.0</ele><time>2026-04-25T09:58:33.886Z</time></trkpt><trkpt lat="42.1389983" lon="14.697645"><ele>107.0</ele><time>2026-04-25T09:58:34.886Z</time></trkpt><trkpt lat="42.1390667" lon="14.6976583"><ele>107.00000000000001</ele><time>2026-04-25T09:58:35.886Z</time></trkpt><trkpt lat="42.139135" lon="14.6976717"><ele>107.0</ele><time>2026-04-25T09:58:36.886Z</time></trkpt><trkpt lat="42.139205" lon="14.69769"><ele>106.57142857142858</ele><time>2026-04-25T09:58:37.885Z</time></trkpt><trkpt lat="42.1392767" lon="14.6977117"><ele>106.14285714285714</ele><time>2026-04-25T09:58:38.886Z</time></trkpt><trkpt lat="42.13935" lon="14.6977317"><ele>105.71428571428572</ele><time>2026-04-25T09:58:39.885Z</time></trkpt><trkpt lat="42.13942" lon="14.6977517"><ele>105.28571428571429</ele><time>2026-04-25T09:58:40.885Z</time></trkpt><trkpt lat="42.13949" lon="14.6977717"><ele>104.85714285714286</ele><time>2026-04-25T09:58:41.886Z</time></trkpt><trkpt lat="42.1395617" lon="14.6977917"><ele>104.42857142857143</ele><time>2026-04-25T09:58:42.886Z</time></trkpt><trkpt lat="42.1396333" lon="14.69781"><ele>104.0</ele><time>2026-04-25T09:58:43.886Z</time></trkpt><trkpt lat="42.1397067" lon="14.697835"><ele>103.66666666666666</ele><time>2026-04-25T09:58:44.885Z</time></trkpt><trkpt lat="42.13978" lon="14.6978617"><ele>103.33333333333333</ele><time>2026-04-25T09:58:45.886Z</time></trkpt><trkpt lat="42.139855" lon="14.69789"><ele>103.0</ele><time>2026-04-25T09:58:46.886Z</time></trkpt><trkpt lat="42.13993" lon="14.6979133"><ele>102.66666666666666</ele><time>2026-04-25T09:58:47.886Z</time></trkpt><trkpt lat="42.1400067" lon="14.69794"><ele>102.33333333333333</ele><time>2026-04-25T09:58:48.885Z</time></trkpt><trkpt lat="42.1400833" lon="14.6979667"><ele>102.0</ele><time>2026-04-25T09:58:49.885Z</time></trkpt><trkpt lat="42.14016" lon="14.6979917"><ele>101.33333333333333</ele><time>2026-04-25T09:58:50.886Z</time></trkpt><trkpt lat="42.1402383" lon="14.698015"><ele>100.66666666666666</ele><time>2026-04-25T09:58:51.886Z</time></trkpt><trkpt lat="42.14032" lon="14.6980367"><ele>100.0</ele><time>2026-04-25T09:58:52.885Z</time></trkpt><trkpt lat="42.1404017" lon="14.6980583"><ele>99.33333333333333</ele><time>2026-04-25T09:58:53.886Z</time></trkpt><trkpt lat="42.1404833" lon="14.6980867"><ele>98.66666666666666</ele><time>2026-04-25T09:58:54.885Z</time></trkpt><trkpt lat="42.1405683" lon="14.6981183"><ele>98.0</ele><time>2026-04-25T09:58:55.886Z</time></trkpt><trkpt lat="42.1406517" lon="14.69815"><ele>97.49999999999999</ele><time>2026-04-25T09:58:56.885Z</time></trkpt><trkpt lat="42.1407333" lon="14.6981767"><ele>97.0</ele><time>2026-04-25T09:58:57.886Z</time></trkpt><trkpt lat="42.1408133" lon="14.6982033"><ele>96.5</ele><time>2026-04-25T09:58:58.885Z</time></trkpt><trkpt lat="42.140895" lon="14.6982317"><ele>96.0</ele><time>2026-04-25T09:58:59.885Z</time></trkpt><trkpt lat="42.140975" lon="14.6982633"><ele>95.5</ele><time>2026-04-25T09:59:00.886Z</time></trkpt><trkpt lat="42.141055" lon="14.6983017"><ele>95.0</ele><time>2026-04-25T09:59:01.886Z</time></trkpt><trkpt lat="42.1411317" lon="14.6983417"><ele>95.0</ele><time>2026-04-25T09:59:02.885Z</time></trkpt><trkpt lat="42.141205" lon="14.698385"><ele>95.0</ele><time>2026-04-25T09:59:03.886Z</time></trkpt><trkpt lat="42.14128" lon="14.6984283"><ele>95.0</ele><time>2026-04-25T09:59:04.885Z</time></trkpt><trkpt lat="42.1413583" lon="14.6984717"><ele>95.0</ele><time>2026-04-25T09:59:05.886Z</time></trkpt><trkpt lat="42.1414333" lon="14.6985167"><ele>95.0</ele><time>2026-04-25T09:59:06.886Z</time></trkpt><trkpt lat="42.1415083" lon="14.6985583"><ele>95.0</ele><time>2026-04-25T09:59:07.886Z</time></trkpt><trkpt lat="42.1415867" lon="14.6986"><ele>94.33333333333334</ele><time>2026-04-25T09:59:08.886Z</time></trkpt><trkpt lat="42.1416617" lon="14.698645"><ele>93.66666666666667</ele><time>2026-04-25T09:59:09.886Z</time></trkpt><trkpt lat="42.14174" lon="14.6986867"><ele>93.0</ele><time>2026-04-25T09:59:10.886Z</time></trkpt><trkpt lat="42.14182" lon="14.69872"><ele>92.33333333333333</ele><time>2026-04-25T09:59:11.885Z</time></trkpt><trkpt lat="42.1419" lon="14.6987433"><ele>91.66666666666666</ele><time>2026-04-25T09:59:12.886Z</time></trkpt><trkpt lat="42.1419817" lon="14.6987633"><ele>91.0</ele><time>2026-04-25T09:59:13.886Z</time></trkpt><trkpt lat="42.1420683" lon="14.6987733"><ele>91.0</ele><time>2026-04-25T09:59:14.885Z</time></trkpt><trkpt lat="42.1421483" lon="14.6987817"><ele>91.0</ele><time>2026-04-25T09:59:15.886Z</time></trkpt><trkpt lat="42.14223" lon="14.69878"><ele>91.0</ele><time>2026-04-25T09:59:16.886Z</time></trkpt><trkpt lat="42.1423117" lon="14.698765"><ele>91.0</ele><time>2026-04-25T09:59:17.886Z</time></trkpt><trkpt lat="42.1423933" lon="14.6987417"><ele>91.0</ele><time>2026-04-25T09:59:18.886Z</time></trkpt><trkpt lat="42.1424733" lon="14.698725"><ele>91.0</ele><time>2026-04-25T09:59:19.886Z</time></trkpt><trkpt lat="42.1425617" lon="14.6987033"><ele>90.5</ele><time>2026-04-25T09:59:20.885Z</time></trkpt><trkpt lat="42.14265" lon="14.6986883"><ele>90.0</ele><time>2026-04-25T09:59:21.885Z</time></trkpt><trkpt lat="42.142735" lon="14.6986833"><ele>89.5</ele><time>2026-04-25T09:59:22.885Z</time></trkpt><trkpt lat="42.1428183" lon="14.6986767"><ele>89.0</ele><time>2026-04-25T09:59:23.886Z</time></trkpt><trkpt lat="42.1429033" lon="14.69867"><ele>88.5</ele><time>2026-04-25T09:59:24.885Z</time></trkpt><trkpt lat="42.14299" lon="14.698665"><ele>88.0</ele><time>2026-04-25T09:59:25.886Z</time></trkpt><trkpt lat="42.1430767" lon="14.69866"><ele>88.0</ele><time>2026-04-25T09:59:26.885Z</time></trkpt><trkpt lat="42.1431617" lon="14.6986517"><ele>88.0</ele><time>2026-04-25T09:59:27.885Z</time></trkpt><trkpt lat="42.14325" lon="14.6986367"><ele>88.0</ele><time>2026-04-25T09:59:28.886Z</time></trkpt><trkpt lat="42.1433367" lon="14.6986267"><ele>88.0</ele><time>2026-04-25T09:59:29.886Z</time></trkpt><trkpt lat="42.1434233" lon="14.6986133"><ele>88.0</ele><time>2026-04-25T09:59:30.886Z</time></trkpt><trkpt lat="42.143515" lon="14.698595"><ele>88.0</ele><time>2026-04-25T09:59:31.886Z</time></trkpt><trkpt lat="42.1436033" lon="14.6985783"><ele>87.5</ele><time>2026-04-25T09:59:32.886Z</time></trkpt><trkpt lat="42.14369" lon="14.6985717"><ele>87.0</ele><time>2026-04-25T09:59:33.886Z</time></trkpt><trkpt lat="42.1437733" lon="14.69856"><ele>86.5</ele><time>2026-04-25T09:59:34.885Z</time></trkpt><trkpt lat="42.1438567" lon="14.6985517"><ele>86.0</ele><time>2026-04-25T09:59:35.886Z</time></trkpt><trkpt lat="42.143945" lon="14.6985383"><ele>85.5</ele><time>2026-04-25T09:59:36.885Z</time></trkpt><trkpt lat="42.14403" lon="14.6985317"><ele>85.0</ele><time>2026-04-25T09:59:37.885Z</time></trkpt><trkpt lat="42.1441167" lon="14.6985167"><ele>84.66666666666666</ele><time>2026-04-25T09:59:38.886Z</time></trkpt><trkpt lat="42.1441983" lon="14.698505"><ele>84.33333333333333</ele><time>2026-04-25T09:59:39.886Z</time></trkpt><trkpt lat="42.144275" lon="14.6984833"><ele>84.0</ele><time>2026-04-25T09:59:40.886Z</time></trkpt><trkpt lat="42.1443517" lon="14.6984567"><ele>83.66666666666667</ele><time>2026-04-25T09:59:41.886Z</time></trkpt><trkpt lat="42.144435" lon="14.698435"><ele>83.33333333333334</ele><time>2026-04-25T09:59:42.886Z</time></trkpt><trkpt lat="42.1445117" lon="14.6984017"><ele>83.0</ele><time>2026-04-25T09:59:43.886Z</time></trkpt><trkpt lat="42.1445883" lon="14.6983733"><ele>83.0</ele><time>2026-04-25T09:59:44.885Z</time></trkpt><trkpt lat="42.14466" lon="14.6983433"><ele>83.0</ele><time>2026-04-25T09:59:45.886Z</time></trkpt><trkpt lat="42.1447333" lon="14.698315"><ele>83.0</ele><time>2026-04-25T09:59:46.886Z</time></trkpt><trkpt lat="42.1448067" lon="14.69829"><ele>83.0</ele><time>2026-04-25T09:59:47.886Z</time></trkpt><trkpt lat="42.1448783" lon="14.6982667"><ele>83.0</ele><time>2026-04-25T09:59:48.886Z</time></trkpt><trkpt lat="42.144945" lon="14.6982417"><ele>83.0</ele><time>2026-04-25T09:59:49.886Z</time></trkpt><trkpt lat="42.1450083" lon="14.6982167"><ele>83.0</ele><time>2026-04-25T09:59:50.885Z</time></trkpt><trkpt lat="42.1450717" lon="14.6981917"><ele>82.75</ele><time>2026-04-25T09:59:51.886Z</time></trkpt><trkpt lat="42.1451883" lon="14.69814"><ele>82.5</ele><time>2026-04-25T09:59:53.886Z</time></trkpt><trkpt lat="42.1453" lon="14.6980967"><ele>82.25</ele><time>2026-04-25T09:59:55.885Z</time></trkpt><trkpt lat="42.1454133" lon="14.69805"><ele>82.0</ele><time>2026-04-25T09:59:57.885Z</time></trkpt><trkpt lat="42.1455367" lon="14.698"><ele>82.0</ele><time>2026-04-25T09:59:59.886Z</time></trkpt><trkpt lat="42.1456483" lon="14.6979517"><ele>82.0</ele><time>2026-04-25T10:00:01.886Z</time></trkpt><trkpt lat="42.1457567" lon="14.6979267"><ele>82.0</ele><time>2026-04-25T10:00:03.885Z</time></trkpt><trkpt lat="42.1458617" lon="14.6978917"><ele>82.0</ele><time>2026-04-25T10:00:05.886Z</time></trkpt><trkpt lat="42.145935" lon="14.6978"><ele>82.0</ele><time>2026-04-25T10:00:07.885Z</time></trkpt><trkpt lat="42.1460067" lon="14.6976883"><ele>81.5</ele><time>2026-04-25T10:00:09.885Z</time></trkpt><trkpt lat="42.1461017" lon="14.6976033"><ele>81.0</ele><time>2026-04-25T10:00:11.885Z</time></trkpt><trkpt lat="42.14619" lon="14.6975267"><ele>80.5</ele><time>2026-04-25T10:00:13.886Z</time></trkpt><trkpt lat="42.1462867" lon="14.6974317"><ele>80.0</ele><time>2026-04-25T10:00:15.886Z</time></trkpt><trkpt lat="42.1463933" lon="14.6973467"><ele>80.0</ele><time>2026-04-25T10:00:17.886Z</time></trkpt><trkpt lat="42.146495" lon="14.6972733"><ele>80.0</ele><time>2026-04-25T10:00:19.886Z</time></trkpt><trkpt lat="42.14659" lon="14.6971983"><ele>80.0</ele><time>2026-04-25T10:00:21.886Z</time></trkpt><trkpt lat="42.146685" lon="14.6971117"><ele>80.0</ele><time>2026-04-25T10:00:23.886Z</time></trkpt><trkpt lat="42.14678" lon="14.697035"><ele>79.8</ele><time>2026-04-25T10:00:25.886Z</time></trkpt><trkpt lat="42.14688" lon="14.69695"><ele>79.6</ele><time>2026-04-25T10:00:27.885Z</time></trkpt><trkpt lat="42.146975" lon="14.6968733"><ele>79.4</ele><time>2026-04-25T10:00:29.886Z</time></trkpt><trkpt lat="42.1470717" lon="14.6968017"><ele>79.2</ele><time>2026-04-25T10:00:31.885Z</time></trkpt><trkpt lat="42.1471617" lon="14.6967317"><ele>79.0</ele><time>2026-04-25T10:00:33.886Z</time></trkpt><trkpt lat="42.14725" lon="14.6966533"><ele>79.0</ele><time>2026-04-25T10:00:35.885Z</time></trkpt><trkpt lat="42.1473483" lon="14.6965567"><ele>79.0</ele><time>2026-04-25T10:00:37.885Z</time></trkpt><trkpt lat="42.14744" lon="14.6964667"><ele>79.0</ele><time>2026-04-25T10:00:39.885Z</time></trkpt><trkpt lat="42.1475267" lon="14.69638"><ele>79.0</ele><time>2026-04-25T10:00:41.886Z</time></trkpt><trkpt lat="42.1476167" lon="14.69629"><ele>79.6</ele><time>2026-04-25T10:00:43.886Z</time></trkpt><trkpt lat="42.1477" lon="14.6961867"><ele>80.2</ele><time>2026-04-25T10:00:45.886Z</time></trkpt><trkpt lat="42.14779" lon="14.6960783"><ele>80.8</ele><time>2026-04-25T10:00:47.886Z</time></trkpt><trkpt lat="42.14784" lon="14.6960267"><ele>81.39999999999999</ele><time>2026-04-25T10:00:48.886Z</time></trkpt><trkpt lat="42.1479433" lon="14.6959433"><ele>82.0</ele><time>2026-04-25T10:00:50.886Z</time></trkpt><trkpt lat="42.1480467" lon="14.6958683"><ele>82.0</ele><time>2026-04-25T10:00:52.886Z</time></trkpt><trkpt lat="42.148155" lon="14.6957917"><ele>82.0</ele><time>2026-04-25T10:00:54.886Z</time></trkpt><trkpt lat="42.14826" lon="14.695715"><ele>82.0</ele><time>2026-04-25T10:00:56.886Z</time></trkpt><trkpt lat="42.1483617" lon="14.6956433"><ele>82.0</ele><time>2026-04-25T10:00:58.885Z</time></trkpt><trkpt lat="42.148475" lon="14.69557"><ele>82.0</ele><time>2026-04-25T10:01:00.885Z</time></trkpt><trkpt lat="42.1485833" lon="14.695495"><ele>82.0</ele><time>2026-04-25T10:01:02.885Z</time></trkpt><trkpt lat="42.14864" lon="14.6954567"><ele>82.0</ele><time>2026-04-25T10:01:03.885Z</time></trkpt><trkpt lat="42.148695" lon="14.695415"><ele>82.0</ele><time>2026-04-25T10:01:04.885Z</time></trkpt><trkpt lat="42.1487983" lon="14.6953367"><ele>82.0</ele><time>2026-04-25T10:01:06.886Z</time></trkpt><trkpt lat="42.1488533" lon="14.69529"><ele>82.0</ele><time>2026-04-25T10:01:07.885Z</time></trkpt><trkpt lat="42.1489583" lon="14.6952033"><ele>82.16666666666666</ele><time>2026-04-25T10:01:09.886Z</time></trkpt><trkpt lat="42.149015" lon="14.69516"><ele>82.33333333333333</ele><time>2026-04-25T10:01:10.885Z</time></trkpt><trkpt lat="42.149125" lon="14.6950733"><ele>82.5</ele><time>2026-04-25T10:01:12.886Z</time></trkpt><trkpt lat="42.1491867" lon="14.6950233"><ele>82.66666666666667</ele><time>2026-04-25T10:01:13.886Z</time></trkpt><trkpt lat="42.149245" lon="14.6949717"><ele>82.83333333333334</ele><time>2026-04-25T10:01:14.886Z</time></trkpt><trkpt lat="42.1493033" lon="14.6949317"><ele>83.0</ele><time>2026-04-25T10:01:15.885Z</time></trkpt><trkpt lat="42.14941" lon="14.694845"><ele>82.60000000000001</ele><time>2026-04-25T10:01:17.885Z</time></trkpt><trkpt lat="42.149515" lon="14.69476"><ele>82.2</ele><time>2026-04-25T10:01:19.886Z</time></trkpt><trkpt lat="42.14957" lon="14.6947167"><ele>81.8</ele><time>2026-04-25T10:01:20.886Z</time></trkpt><trkpt lat="42.149675" lon="14.6946383"><ele>81.4</ele><time>2026-04-25T10:01:22.886Z</time></trkpt><trkpt lat="42.1497817" lon="14.69456"><ele>81.0</ele><time>2026-04-25T10:01:24.885Z</time></trkpt><trkpt lat="42.1498883" lon="14.6944933"><ele>80.75</ele><time>2026-04-25T10:01:26.885Z</time></trkpt><trkpt lat="42.1499967" lon="14.6944183"><ele>80.5</ele><time>2026-04-25T10:01:28.886Z</time></trkpt><trkpt lat="42.150105" lon="14.6943383"><ele>80.25</ele><time>2026-04-25T10:01:30.886Z</time></trkpt><trkpt lat="42.1502017" lon="14.6942667"><ele>80.0</ele><time>2026-04-25T10:01:32.885Z</time></trkpt><trkpt lat="42.1503083" lon="14.6941933"><ele>80.0</ele><time>2026-04-25T10:01:34.886Z</time></trkpt><trkpt lat="42.1504117" lon="14.6941083"><ele>80.0</ele><time>2026-04-25T10:01:36.886Z</time></trkpt><trkpt lat="42.1505167" lon="14.6940333"><ele>80.0</ele><time>2026-04-25T10:01:38.886Z</time></trkpt><trkpt lat="42.150575" lon="14.6939933"><ele>80.0</ele><time>2026-04-25T10:01:39.886Z</time></trkpt><trkpt lat="42.150685" lon="14.69391"><ele>80.0</ele><time>2026-04-25T10:01:41.885Z</time></trkpt><trkpt lat="42.1507917" lon="14.693835"><ele>79.5</ele><time>2026-04-25T10:01:43.886Z</time></trkpt><trkpt lat="42.150895" lon="14.6937617"><ele>79.0</ele><time>2026-04-25T10:01:45.886Z</time></trkpt><trkpt lat="42.1509983" lon="14.693685"><ele>78.5</ele><time>2026-04-25T10:01:47.886Z</time></trkpt><trkpt lat="42.1510983" lon="14.6936083"><ele>78.0</ele><time>2026-04-25T10:01:49.886Z</time></trkpt><trkpt lat="42.1512" lon="14.6935283"><ele>78.0</ele><time>2026-04-25T10:01:51.886Z</time></trkpt><trkpt lat="42.1513033" lon="14.6934417"><ele>78.0</ele><time>2026-04-25T10:01:53.885Z</time></trkpt><trkpt lat="42.1514117" lon="14.69336"><ele>78.0</ele><time>2026-04-25T10:01:55.886Z</time></trkpt><trkpt lat="42.151465" lon="14.6933117"><ele>78.0</ele><time>2026-04-25T10:01:56.885Z</time></trkpt><trkpt lat="42.15152" lon="14.6932633"><ele>78.0</ele><time>2026-04-25T10:01:57.886Z</time></trkpt><trkpt lat="42.1516267" lon="14.6931917"><ele>77.6</ele><time>2026-04-25T10:01:59.886Z</time></trkpt><trkpt lat="42.15172" lon="14.693125"><ele>77.19999999999999</ele><time>2026-04-25T10:02:01.886Z</time></trkpt><trkpt lat="42.1518233" lon="14.6930533"><ele>76.8</ele><time>2026-04-25T10:02:03.886Z</time></trkpt><trkpt lat="42.151935" lon="14.6929833"><ele>76.39999999999999</ele><time>2026-04-25T10:02:05.886Z</time></trkpt><trkpt lat="42.1519917" lon="14.692945"><ele>76.0</ele><time>2026-04-25T10:02:06.886Z</time></trkpt><trkpt lat="42.1520967" lon="14.6928833"><ele>76.0</ele><time>2026-04-25T10:02:08.886Z</time></trkpt><trkpt lat="42.1522" lon="14.6928117"><ele>76.0</ele><time>2026-04-25T10:02:10.886Z</time></trkpt><trkpt lat="42.15231" lon="14.6927517"><ele>76.0</ele><time>2026-04-25T10:02:12.886Z</time></trkpt><trkpt lat="42.15242" lon="14.6926933"><ele>76.0</ele><time>2026-04-25T10:02:14.886Z</time></trkpt><trkpt lat="42.15253" lon="14.6926267"><ele>75.66666666666666</ele><time>2026-04-25T10:02:16.885Z</time></trkpt><trkpt lat="42.1525917" lon="14.6925917"><ele>75.33333333333333</ele><time>2026-04-25T10:02:17.886Z</time></trkpt><trkpt lat="42.15265" lon="14.6925583"><ele>75.0</ele><time>2026-04-25T10:02:18.886Z</time></trkpt><trkpt lat="42.1527567" lon="14.6925033"><ele>74.66666666666667</ele><time>2026-04-25T10:02:20.886Z</time></trkpt><trkpt lat="42.1528167" lon="14.6924683"><ele>74.33333333333334</ele><time>2026-04-25T10:02:21.885Z</time></trkpt><trkpt lat="42.1529317" lon="14.692425"><ele>74.0</ele><time>2026-04-25T10:02:23.886Z</time></trkpt><trkpt lat="42.153045" lon="14.69238"><ele>74.0</ele><time>2026-04-25T10:02:25.885Z</time></trkpt><trkpt lat="42.15316" lon="14.6923367"><ele>74.0</ele><time>2026-04-25T10:02:27.885Z</time></trkpt><trkpt lat="42.1532817" lon="14.69231"><ele>74.0</ele><time>2026-04-25T10:02:29.886Z</time></trkpt><trkpt lat="42.1533433" lon="14.692285"><ele>74.0</ele><time>2026-04-25T10:02:30.886Z</time></trkpt><trkpt lat="42.15346" lon="14.6922533"><ele>74.0</ele><time>2026-04-25T10:02:32.886Z</time></trkpt><trkpt lat="42.1535767" lon="14.6922183"><ele>73.25</ele><time>2026-04-25T10:02:34.886Z</time></trkpt><trkpt lat="42.1536933" lon="14.6921817"><ele>72.5</ele><time>2026-04-25T10:02:36.885Z</time></trkpt><trkpt lat="42.1538067" lon="14.692155"><ele>71.75</ele><time>2026-04-25T10:02:38.885Z</time></trkpt><trkpt lat="42.1539233" lon="14.6921333"><ele>71.0</ele><time>2026-04-25T10:02:40.886Z</time></trkpt><trkpt lat="42.15404" lon="14.6921167"><ele>70.25</ele><time>2026-04-25T10:02:42.886Z</time></trkpt><trkpt lat="42.154155" lon="14.6921067"><ele>69.5</ele><time>2026-04-25T10:02:44.886Z</time></trkpt><trkpt lat="42.1542683" lon="14.6920917"><ele>68.75</ele><time>2026-04-25T10:02:46.886Z</time></trkpt><trkpt lat="42.1543867" lon="14.6920883"><ele>68.0</ele><time>2026-04-25T10:02:48.886Z</time></trkpt><trkpt lat="42.1544983" lon="14.69208"><ele>68.0</ele><time>2026-04-25T10:02:50.885Z</time></trkpt><trkpt lat="42.15461" lon="14.6920817"><ele>68.0</ele><time>2026-04-25T10:02:52.886Z</time></trkpt><trkpt lat="42.1547217" lon="14.692085"><ele>68.0</ele><time>2026-04-25T10:02:54.886Z</time></trkpt><trkpt lat="42.154835" lon="14.692085"><ele>68.0</ele><time>2026-04-25T10:02:56.885Z</time></trkpt><trkpt lat="42.154945" lon="14.6920883"><ele>68.0</ele><time>2026-04-25T10:02:58.886Z</time></trkpt><trkpt lat="42.1550583" lon="14.6920867"><ele>68.0</ele><time>2026-04-25T10:03:00.886Z</time></trkpt><trkpt lat="42.15517" lon="14.6920783"><ele>68.0</ele><time>2026-04-25T10:03:02.885Z</time></trkpt><trkpt lat="42.1552883" lon="14.69208"><ele>68.0</ele><time>2026-04-25T10:03:04.886Z</time></trkpt><trkpt lat="42.1554033" lon="14.6920733"><ele>68.0</ele><time>2026-04-25T10:03:06.885Z</time></trkpt><trkpt lat="42.1555183" lon="14.6920683"><ele>68.0</ele><time>2026-04-25T10:03:08.886Z</time></trkpt><trkpt lat="42.1556417" lon="14.69207"><ele>68.0</ele><time>2026-04-25T10:03:10.886Z</time></trkpt><trkpt lat="42.155765" lon="14.6920667"><ele>68.0</ele><time>2026-04-25T10:03:12.885Z</time></trkpt><trkpt lat="42.1558867" lon="14.6920517"><ele>68.0</ele><time>2026-04-25T10:03:14.886Z</time></trkpt><trkpt lat="42.1559983" lon="14.6920467"><ele>67.5</ele><time>2026-04-25T10:03:16.886Z</time></trkpt><trkpt lat="42.156115" lon="14.6920383"><ele>67.0</ele><time>2026-04-25T10:03:18.886Z</time></trkpt><trkpt lat="42.1562317" lon="14.6920217"><ele>66.5</ele><time>2026-04-25T10:03:20.886Z</time></trkpt><trkpt lat="42.1563483" lon="14.692"><ele>66.0</ele><time>2026-04-25T10:03:22.886Z</time></trkpt><trkpt lat="42.1564667" lon="14.691965"><ele>65.75</ele><time>2026-04-25T10:03:24.886Z</time></trkpt><trkpt lat="42.1565833" lon="14.6919283"><ele>65.5</ele><time>2026-04-25T10:03:26.886Z</time></trkpt><trkpt lat="42.1566967" lon="14.6918717"><ele>65.25</ele><time>2026-04-25T10:03:28.885Z</time></trkpt><trkpt lat="42.1568117" lon="14.691815"><ele>65.0</ele><time>2026-04-25T10:03:30.886Z</time></trkpt><trkpt lat="42.1569217" lon="14.69176"><ele>65.0</ele><time>2026-04-25T10:03:32.886Z</time></trkpt><trkpt lat="42.1570383" lon="14.6916967"><ele>65.0</ele><time>2026-04-25T10:03:34.885Z</time></trkpt><trkpt lat="42.1570983" lon="14.691655"><ele>65.0</ele><time>2026-04-25T10:03:35.886Z</time></trkpt><trkpt lat="42.1571633" lon="14.691615"><ele>65.0</ele><time>2026-04-25T10:03:36.886Z</time></trkpt><trkpt lat="42.1572283" lon="14.691575"><ele>65.0</ele><time>2026-04-25T10:03:37.885Z</time></trkpt><trkpt lat="42.1572883" lon="14.6915367"><ele>65.0</ele><time>2026-04-25T10:03:38.886Z</time></trkpt><trkpt lat="42.1573483" lon="14.6914983"><ele>64.71428571428572</ele><time>2026-04-25T10:03:39.886Z</time></trkpt><trkpt lat="42.1574083" lon="14.6914517"><ele>64.42857142857143</ele><time>2026-04-25T10:03:40.886Z</time></trkpt><trkpt lat="42.15747" lon="14.6914017"><ele>64.14285714285714</ele><time>2026-04-25T10:03:41.886Z</time></trkpt><trkpt lat="42.1575283" lon="14.6913517"><ele>63.85714285714286</ele><time>2026-04-25T10:03:42.886Z</time></trkpt><trkpt lat="42.1575833" lon="14.6912967"><ele>63.57142857142857</ele><time>2026-04-25T10:03:43.886Z</time></trkpt><trkpt lat="42.1576367" lon="14.6912283"><ele>63.285714285714285</ele><time>2026-04-25T10:03:44.886Z</time></trkpt><trkpt lat="42.1576833" lon="14.691155"><ele>63.0</ele><time>2026-04-25T10:03:45.886Z</time></trkpt><trkpt lat="42.157725" lon="14.6910733"><ele>62.833333333333336</ele><time>2026-04-25T10:03:46.886Z</time></trkpt><trkpt lat="42.1577633" lon="14.6909883"><ele>62.66666666666667</ele><time>2026-04-25T10:03:47.886Z</time></trkpt><trkpt lat="42.1577983" lon="14.6908883"><ele>62.5</ele><time>2026-04-25T10:03:48.885Z</time></trkpt><trkpt lat="42.1578217" lon="14.6907767"><ele>62.333333333333336</ele><time>2026-04-25T10:03:49.886Z</time></trkpt><trkpt lat="42.1578433" lon="14.6906683"><ele>62.16666666666667</ele><time>2026-04-25T10:03:50.885Z</time></trkpt><trkpt lat="42.15787" lon="14.69055"><ele>62.0</ele><time>2026-04-25T10:03:51.886Z</time></trkpt><trkpt lat="42.1579067" lon="14.6904233"><ele>62.0</ele><time>2026-04-25T10:03:52.886Z</time></trkpt><trkpt lat="42.15794" lon="14.6902967"><ele>62.0</ele><time>2026-04-25T10:03:53.886Z</time></trkpt><trkpt lat="42.1579717" lon="14.69017"><ele>62.0</ele><time>2026-04-25T10:03:54.886Z</time></trkpt><trkpt lat="42.158005" lon="14.69004"><ele>62.0</ele><time>2026-04-25T10:03:55.885Z</time></trkpt><trkpt lat="42.158035" lon="14.6899133"><ele>62.0</ele><time>2026-04-25T10:03:56.886Z</time></trkpt><trkpt lat="42.1580617" lon="14.68979"><ele>61.400000000000006</ele><time>2026-04-25T10:03:57.886Z</time></trkpt><trkpt lat="42.1580883" lon="14.68966"><ele>60.800000000000004</ele><time>2026-04-25T10:03:58.885Z</time></trkpt><trkpt lat="42.1581133" lon="14.6895283"><ele>60.2</ele><time>2026-04-25T10:03:59.885Z</time></trkpt><trkpt lat="42.1581367" lon="14.6894"><ele>59.6</ele><time>2026-04-25T10:04:00.886Z</time></trkpt><trkpt lat="42.158145" lon="14.6892583"><ele>59.0</ele><time>2026-04-25T10:04:01.886Z</time></trkpt><trkpt lat="42.1581517" lon="14.689125"><ele>56.6</ele><time>2026-04-25T10:04:02.886Z</time></trkpt><trkpt lat="42.1581267" lon="14.6890033"><ele>54.2</ele><time>2026-04-25T10:04:03.886Z</time></trkpt><trkpt lat="42.1580883" lon="14.6888883"><ele>51.800000000000004</ele><time>2026-04-25T10:04:04.885Z</time></trkpt><trkpt lat="42.1580367" lon="14.688805"><ele>49.400000000000006</ele><time>2026-04-25T10:04:05.886Z</time></trkpt><trkpt lat="42.1579633" lon="14.6887467"><ele>47.0</ele><time>2026-04-25T10:04:06.885Z</time></trkpt><trkpt lat="42.1578633" lon="14.6887133"><ele>47.0</ele><time>2026-04-25T10:04:07.886Z</time></trkpt><trkpt lat="42.1577633" lon="14.6886967"><ele>47.0</ele><time>2026-04-25T10:04:08.885Z</time></trkpt><trkpt lat="42.1576567" lon="14.688685"><ele>47.0</ele><time>2026-04-25T10:04:09.886Z</time></trkpt><trkpt lat="42.157545" lon="14.6886767"><ele>47.0</ele><time>2026-04-25T10:04:10.886Z</time></trkpt><trkpt lat="42.15743" lon="14.688655"><ele>47.0</ele><time>2026-04-25T10:04:11.885Z</time></trkpt><trkpt lat="42.1573267" lon="14.6886317"><ele>46.0</ele><time>2026-04-25T10:04:12.885Z</time></trkpt><trkpt lat="42.1572267" lon="14.6885983"><ele>45.0</ele><time>2026-04-25T10:04:13.886Z</time></trkpt><trkpt lat="42.1571367" lon="14.6885683"><ele>44.0</ele><time>2026-04-25T10:04:14.884Z</time></trkpt><trkpt lat="42.1570517" lon="14.6885283"><ele>43.0</ele><time>2026-04-25T10:04:15.885Z</time></trkpt><trkpt lat="42.1569717" lon="14.6884883"><ele>42.0</ele><time>2026-04-25T10:04:16.885Z</time></trkpt><trkpt lat="42.156895" lon="14.68845"><ele>40.5</ele><time>2026-04-25T10:04:17.885Z</time></trkpt><trkpt lat="42.1568183" lon="14.6884017"><ele>39.0</ele><time>2026-04-25T10:04:18.885Z</time></trkpt><trkpt lat="42.156765" lon="14.6883317"><ele>37.5</ele><time>2026-04-25T10:04:19.885Z</time></trkpt><trkpt lat="42.1567233" lon="14.6882417"><ele>36.0</ele><time>2026-04-25T10:04:20.885Z</time></trkpt><trkpt lat="42.1567083" lon="14.6881283"><ele>34.5</ele><time>2026-04-25T10:04:21.884Z</time></trkpt><trkpt lat="42.1567" lon="14.6880067"><ele>33.0</ele><time>2026-04-25T10:04:22.885Z</time></trkpt><trkpt lat="42.1566867" lon="14.687885"><ele>33.0</ele><time>2026-04-25T10:04:23.885Z</time></trkpt><trkpt lat="42.15667" lon="14.6877733"><ele>33.0</ele><time>2026-04-25T10:04:24.885Z</time></trkpt><trkpt lat="42.1566517" lon="14.687665"><ele>33.0</ele><time>2026-04-25T10:04:25.884Z</time></trkpt><trkpt lat="42.1566367" lon="14.6875633"><ele>33.0</ele><time>2026-04-25T10:04:26.885Z</time></trkpt><trkpt lat="42.1566267" lon="14.68746"><ele>33.0</ele><time>2026-04-25T10:04:27.885Z</time></trkpt><trkpt lat="42.15662" lon="14.68736"><ele>33.0</ele><time>2026-04-25T10:04:28.885Z</time></trkpt><trkpt lat="42.1566133" lon="14.6872633"><ele>32.833333333333336</ele><time>2026-04-25T10:04:29.884Z</time></trkpt><trkpt lat="42.1566183" lon="14.687175"><ele>32.666666666666664</ele><time>2026-04-25T10:04:30.885Z</time></trkpt><trkpt lat="42.156645" lon="14.68709"><ele>32.5</ele><time>2026-04-25T10:04:31.885Z</time></trkpt><trkpt lat="42.1566883" lon="14.6870233"><ele>32.33333333333333</ele><time>2026-04-25T10:04:32.885Z</time></trkpt><trkpt lat="42.1567783" lon="14.6869317"><ele>32.166666666666664</ele><time>2026-04-25T10:04:34.885Z</time></trkpt><trkpt lat="42.1568667" lon="14.68688"><ele>32.0</ele><time>2026-04-25T10:04:36.885Z</time></trkpt><trkpt lat="42.15697" lon="14.6868467"><ele>32.4</ele><time>2026-04-25T10:04:38.885Z</time></trkpt><trkpt lat="42.1570717" lon="14.686815"><ele>32.800000000000004</ele><time>2026-04-25T10:04:40.885Z</time></trkpt><trkpt lat="42.1571733" lon="14.6867833"><ele>33.2</ele><time>2026-04-25T10:04:42.884Z</time></trkpt><trkpt lat="42.157285" lon="14.6867817"><ele>33.6</ele><time>2026-04-25T10:04:44.885Z</time></trkpt><trkpt lat="42.1574" lon="14.6867817"><ele>34.0</ele><time>2026-04-25T10:04:46.884Z</time></trkpt><trkpt lat="42.157515" lon="14.6867633"><ele>34.0</ele><time>2026-04-25T10:04:48.885Z</time></trkpt><trkpt lat="42.15763" lon="14.68675"><ele>34.0</ele><time>2026-04-25T10:04:50.885Z</time></trkpt><trkpt lat="42.15775" lon="14.6867367"><ele>34.0</ele><time>2026-04-25T10:04:52.885Z</time></trkpt><trkpt lat="42.15787" lon="14.68672"><ele>34.0</ele><time>2026-04-25T10:04:54.884Z</time></trkpt><trkpt lat="42.1579333" lon="14.6867133"><ele>34.0</ele><time>2026-04-25T10:04:55.885Z</time></trkpt><trkpt lat="42.1579983" lon="14.6867067"><ele>34.0</ele><time>2026-04-25T10:04:56.884Z</time></trkpt><trkpt lat="42.1580633" lon="14.6867"><ele>34.0</ele><time>2026-04-25T10:04:57.884Z</time></trkpt><trkpt lat="42.1581267" lon="14.6866933"><ele>34.0</ele><time>2026-04-25T10:04:58.885Z</time></trkpt><trkpt lat="42.1582533" lon="14.6866833"><ele>34.0</ele><time>2026-04-25T10:05:00.884Z</time></trkpt><trkpt lat="42.1583167" lon="14.6866783"><ele>34.0</ele><time>2026-04-25T10:05:01.885Z</time></trkpt><trkpt lat="42.1584383" lon="14.686665"><ele>34.0</ele><time>2026-04-25T10:05:03.885Z</time></trkpt><trkpt lat="42.1585583" lon="14.6866517"><ele>33.99999999999999</ele><time>2026-04-25T10:05:05.884Z</time></trkpt><trkpt lat="42.1586783" lon="14.68665"><ele>34.0</ele><time>2026-04-25T10:05:07.885Z</time></trkpt><trkpt lat="42.1587433" lon="14.68665"><ele>34.0</ele><time>2026-04-25T10:05:08.884Z</time></trkpt><trkpt lat="42.1588067" lon="14.6866417"><ele>34.0</ele><time>2026-04-25T10:05:09.884Z</time></trkpt><trkpt lat="42.15887" lon="14.6866367"><ele>34.0</ele><time>2026-04-25T10:05:10.885Z</time></trkpt><trkpt lat="42.1589333" lon="14.6866383"><ele>33.99999999999999</ele><time>2026-04-25T10:05:11.884Z</time></trkpt><trkpt lat="42.159" lon="14.6866383"><ele>34.0</ele><time>2026-04-25T10:05:12.884Z</time></trkpt><trkpt lat="42.15913" lon="14.6866267"><ele>33.333333333333336</ele><time>2026-04-25T10:05:14.884Z</time></trkpt><trkpt lat="42.1591967" lon="14.6866167"><ele>32.66666666666667</ele><time>2026-04-25T10:05:15.884Z</time></trkpt><trkpt lat="42.1592633" lon="14.686615"><ele>32.0</ele><time>2026-04-25T10:05:16.885Z</time></trkpt><trkpt lat="42.1593283" lon="14.6866183"><ele>31.333333333333336</ele><time>2026-04-25T10:05:17.885Z</time></trkpt><trkpt lat="42.1594567" lon="14.686615"><ele>30.666666666666668</ele><time>2026-04-25T10:05:19.885Z</time></trkpt><trkpt lat="42.1595217" lon="14.6866183"><ele>30.0</ele><time>2026-04-25T10:05:20.885Z</time></trkpt><trkpt lat="42.1596367" lon="14.68665"><ele>30.0</ele><time>2026-04-25T10:05:22.884Z</time></trkpt><trkpt lat="42.15975" lon="14.6866917"><ele>30.0</ele><time>2026-04-25T10:05:24.885Z</time></trkpt><trkpt lat="42.1598717" lon="14.68673"><ele>30.0</ele><time>2026-04-25T10:05:26.885Z</time></trkpt><trkpt lat="42.15999" lon="14.686765"><ele>30.0</ele><time>2026-04-25T10:05:28.884Z</time></trkpt><trkpt lat="42.1600983" lon="14.6868183"><ele>29.6</ele><time>2026-04-25T10:05:30.884Z</time></trkpt><trkpt lat="42.1602" lon="14.6868683"><ele>29.2</ele><time>2026-04-25T10:05:32.884Z</time></trkpt><trkpt lat="42.16031" lon="14.6869133"><ele>28.799999999999997</ele><time>2026-04-25T10:05:34.885Z</time></trkpt><trkpt lat="42.1604183" lon="14.6869517"><ele>28.4</ele><time>2026-04-25T10:05:36.884Z</time></trkpt><trkpt lat="42.1605233" lon="14.6869917"><ele>28.0</ele><time>2026-04-25T10:05:38.885Z</time></trkpt><trkpt lat="42.16063" lon="14.6870333"><ele>27.599999999999998</ele><time>2026-04-25T10:05:40.884Z</time></trkpt><trkpt lat="42.1607283" lon="14.68708"><ele>27.199999999999996</ele><time>2026-04-25T10:05:42.885Z</time></trkpt><trkpt lat="42.16083" lon="14.687125"><ele>26.8</ele><time>2026-04-25T10:05:44.884Z</time></trkpt><trkpt lat="42.160935" lon="14.6871633"><ele>26.4</ele><time>2026-04-25T10:05:46.884Z</time></trkpt><trkpt lat="42.1610367" lon="14.6871967"><ele>26.0</ele><time>2026-04-25T10:05:48.884Z</time></trkpt><trkpt lat="42.161135" lon="14.6872367"><ele>26.0</ele><time>2026-04-25T10:05:50.885Z</time></trkpt><trkpt lat="42.1612333" lon="14.687275"><ele>26.0</ele><time>2026-04-25T10:05:52.885Z</time></trkpt><trkpt lat="42.16133" lon="14.6873167"><ele>26.0</ele><time>2026-04-25T10:05:54.885Z</time></trkpt><trkpt lat="42.1614217" lon="14.6873617"><ele>26.0</ele><time>2026-04-25T10:05:56.885Z</time></trkpt><trkpt lat="42.1615083" lon="14.6873983"><ele>26.0</ele><time>2026-04-25T10:05:58.884Z</time></trkpt><trkpt lat="42.161585" lon="14.6874333"><ele>26.666666666666664</ele><time>2026-04-25T10:06:00.884Z</time></trkpt><trkpt lat="42.1616633" lon="14.6874717"><ele>27.333333333333332</ele><time>2026-04-25T10:06:02.884Z</time></trkpt><trkpt lat="42.1617467" lon="14.6875067"><ele>28.0</ele><time>2026-04-25T10:06:04.885Z</time></trkpt><trkpt lat="42.16183" lon="14.6875233"><ele>28.666666666666664</ele><time>2026-04-25T10:06:06.885Z</time></trkpt><trkpt lat="42.161905" lon="14.6875333"><ele>29.333333333333332</ele><time>2026-04-25T10:06:08.885Z</time></trkpt><trkpt lat="42.16199" lon="14.68754"><ele>30.0</ele><time>2026-04-25T10:06:10.885Z</time></trkpt><trkpt lat="42.1620767" lon="14.6875333"><ele>30.0</ele><time>2026-04-25T10:06:12.884Z</time></trkpt><trkpt lat="42.1621533" lon="14.6875117"><ele>30.0</ele><time>2026-04-25T10:06:14.885Z</time></trkpt><trkpt lat="42.1622233" lon="14.687475"><ele>30.0</ele><time>2026-04-25T10:06:16.884Z</time></trkpt><trkpt lat="42.162295" lon="14.68742"><ele>30.0</ele><time>2026-04-25T10:06:18.885Z</time></trkpt><trkpt lat="42.16236" lon="14.6873567"><ele>30.0</ele><time>2026-04-25T10:06:20.885Z</time></trkpt><trkpt lat="42.1624167" lon="14.6872967"><ele>30.0</ele><time>2026-04-25T10:06:22.884Z</time></trkpt><trkpt lat="42.1624783" lon="14.687255"><ele>30.833333333333332</ele><time>2026-04-25T10:06:24.885Z</time></trkpt><trkpt lat="42.1625567" lon="14.687195"><ele>31.666666666666664</ele><time>2026-04-25T10:06:26.885Z</time></trkpt><trkpt lat="42.1626317" lon="14.6871367"><ele>32.5</ele><time>2026-04-25T10:06:28.885Z</time></trkpt><trkpt lat="42.1627033" lon="14.6870633"><ele>33.33333333333333</ele><time>2026-04-25T10:06:30.885Z</time></trkpt><trkpt lat="42.1627733" lon="14.6869917"><ele>34.166666666666664</ele><time>2026-04-25T10:06:32.885Z</time></trkpt><trkpt lat="42.162845" lon="14.68691"><ele>35.0</ele><time>2026-04-25T10:06:34.885Z</time></trkpt><trkpt lat="42.16292" lon="14.6868367"><ele>36.166666666666664</ele><time>2026-04-25T10:06:36.885Z</time></trkpt><trkpt lat="42.1629867" lon="14.6867683"><ele>37.33333333333333</ele><time>2026-04-25T10:06:38.885Z</time></trkpt><trkpt lat="42.1630433" lon="14.6866933"><ele>38.5</ele><time>2026-04-25T10:06:40.884Z</time></trkpt><trkpt lat="42.163105" lon="14.6866383"><ele>39.666666666666664</ele><time>2026-04-25T10:06:42.884Z</time></trkpt><trkpt lat="42.1631633" lon="14.6865817"><ele>40.833333333333336</ele><time>2026-04-25T10:06:44.885Z</time></trkpt><trkpt lat="42.1632217" lon="14.686515"><ele>42.0</ele><time>2026-04-25T10:06:46.885Z</time></trkpt><trkpt lat="42.163285" lon="14.68644"><ele>42.833333333333336</ele><time>2026-04-25T10:06:48.885Z</time></trkpt><trkpt lat="42.1633433" lon="14.6863567"><ele>43.666666666666664</ele><time>2026-04-25T10:06:50.885Z</time></trkpt><trkpt lat="42.1633967" lon="14.6862633"><ele>44.5</ele><time>2026-04-25T10:06:52.885Z</time></trkpt><trkpt lat="42.1634533" lon="14.686175"><ele>45.33333333333333</ele><time>2026-04-25T10:06:54.885Z</time></trkpt><trkpt lat="42.163515" lon="14.686085"><ele>46.166666666666664</ele><time>2026-04-25T10:06:56.884Z</time></trkpt><trkpt lat="42.1635817" lon="14.6859967"><ele>47.0</ele><time>2026-04-25T10:06:58.885Z</time></trkpt><trkpt lat="42.16365" lon="14.685915"><ele>47.666666666666664</ele><time>2026-04-25T10:07:00.885Z</time></trkpt><trkpt lat="42.1637067" lon="14.6858283"><ele>48.33333333333333</ele><time>2026-04-25T10:07:02.885Z</time></trkpt><trkpt lat="42.1637233" lon="14.6857417"><ele>49.0</ele><time>2026-04-25T10:07:04.885Z</time></trkpt><trkpt lat="42.163685" lon="14.6856683"><ele>49.666666666666664</ele><time>2026-04-25T10:07:06.885Z</time></trkpt><trkpt lat="42.1636117" lon="14.6856283"><ele>50.333333333333336</ele><time>2026-04-25T10:07:08.885Z</time></trkpt><trkpt lat="42.163555" lon="14.6855433"><ele>51.0</ele><time>2026-04-25T10:07:10.885Z</time></trkpt><trkpt lat="42.1634967" lon="14.68544"><ele>51.0</ele><time>2026-04-25T10:07:12.885Z</time></trkpt><trkpt lat="42.1634267" lon="14.68533"><ele>51.0</ele><time>2026-04-25T10:07:14.884Z</time></trkpt><trkpt lat="42.1633583" lon="14.68523"><ele>51.0</ele><time>2026-04-25T10:07:16.885Z</time></trkpt><trkpt lat="42.163285" lon="14.6851267"><ele>51.0</ele><time>2026-04-25T10:07:18.885Z</time></trkpt><trkpt lat="42.1632283" lon="14.6850133"><ele>51.0</ele><time>2026-04-25T10:07:20.885Z</time></trkpt><trkpt lat="42.1631767" lon="14.6848917"><ele>51.599999999999994</ele><time>2026-04-25T10:07:22.885Z</time></trkpt><trkpt lat="42.1631217" lon="14.6847883"><ele>52.2</ele><time>2026-04-25T10:07:24.885Z</time></trkpt><trkpt lat="42.1630783" lon="14.6846733"><ele>52.800000000000004</ele><time>2026-04-25T10:07:26.884Z</time></trkpt><trkpt lat="42.163025" lon="14.68457"><ele>53.400000000000006</ele><time>2026-04-25T10:07:28.885Z</time></trkpt><trkpt lat="42.16297" lon="14.6844717"><ele>54.0</ele><time>2026-04-25T10:07:30.885Z</time></trkpt><trkpt lat="42.16293" lon="14.6843583"><ele>54.400000000000006</ele><time>2026-04-25T10:07:32.884Z</time></trkpt><trkpt lat="42.1628867" lon="14.6842367"><ele>54.800000000000004</ele><time>2026-04-25T10:07:34.885Z</time></trkpt><trkpt lat="42.1628433" lon="14.6841233"><ele>55.199999999999996</ele><time>2026-04-25T10:07:36.885Z</time></trkpt><trkpt lat="42.1628" lon="14.684015"><ele>55.599999999999994</ele><time>2026-04-25T10:07:38.884Z</time></trkpt><trkpt lat="42.1627533" lon="14.6839017"><ele>56.0</ele><time>2026-04-25T10:07:40.885Z</time></trkpt><trkpt lat="42.162715" lon="14.6837817"><ele>56.0</ele><time>2026-04-25T10:07:42.885Z</time></trkpt><trkpt lat="42.16267" lon="14.6836617"><ele>55.99999999999999</ele><time>2026-04-25T10:07:44.885Z</time></trkpt><trkpt lat="42.1626167" lon="14.683545"><ele>55.99999999999999</ele><time>2026-04-25T10:07:46.884Z</time></trkpt><trkpt lat="42.1625633" lon="14.6834167"><ele>56.0</ele><time>2026-04-25T10:07:48.884Z</time></trkpt><trkpt lat="42.16251" lon="14.6833017"><ele>56.0</ele><time>2026-04-25T10:07:50.884Z</time></trkpt><trkpt lat="42.1624567" lon="14.68318"><ele>56.199999999999996</ele><time>2026-04-25T10:07:52.885Z</time></trkpt><trkpt lat="42.1624083" lon="14.6830617"><ele>56.39999999999999</ele><time>2026-04-25T10:07:54.885Z</time></trkpt><trkpt lat="42.162365" lon="14.682945"><ele>56.6</ele><time>2026-04-25T10:07:56.884Z</time></trkpt><trkpt lat="42.1623183" lon="14.6828283"><ele>56.8</ele><time>2026-04-25T10:07:58.884Z</time></trkpt><trkpt lat="42.1622767" lon="14.6827183"><ele>57.0</ele><time>2026-04-25T10:08:00.885Z</time></trkpt><trkpt lat="42.162225" lon="14.682605"><ele>57.6</ele><time>2026-04-25T10:08:02.884Z</time></trkpt><trkpt lat="42.1621767" lon="14.6824817"><ele>58.2</ele><time>2026-04-25T10:08:04.884Z</time></trkpt><trkpt lat="42.16213" lon="14.6823683"><ele>58.8</ele><time>2026-04-25T10:08:06.885Z</time></trkpt><trkpt lat="42.1620883" lon="14.68226"><ele>59.4</ele><time>2026-04-25T10:08:08.885Z</time></trkpt><trkpt lat="42.162045" lon="14.6821417"><ele>60.0</ele><time>2026-04-25T10:08:10.884Z</time></trkpt><trkpt lat="42.16199" lon="14.6820317"><ele>60.4</ele><time>2026-04-25T10:08:12.884Z</time></trkpt><trkpt lat="42.1619417" lon="14.6819217"><ele>60.8</ele><time>2026-04-25T10:08:14.884Z</time></trkpt><trkpt lat="42.1618967" lon="14.681805"><ele>61.2</ele><time>2026-04-25T10:08:16.885Z</time></trkpt><trkpt lat="42.1618517" lon="14.6816883"><ele>61.6</ele><time>2026-04-25T10:08:18.884Z</time></trkpt><trkpt lat="42.1618117" lon="14.681575"><ele>62.0</ele><time>2026-04-25T10:08:20.885Z</time></trkpt><trkpt lat="42.1617567" lon="14.68145"><ele>62.0</ele><time>2026-04-25T10:08:22.885Z</time></trkpt><trkpt lat="42.1617033" lon="14.68133"><ele>62.0</ele><time>2026-04-25T10:08:24.885Z</time></trkpt><trkpt lat="42.161655" lon="14.68121"><ele>62.0</ele><time>2026-04-25T10:08:26.885Z</time></trkpt><trkpt lat="42.16161" lon="14.6811033"><ele>62.0</ele><time>2026-04-25T10:08:28.885Z</time></trkpt><trkpt lat="42.1615717" lon="14.680985"><ele>62.0</ele><time>2026-04-25T10:08:30.885Z</time></trkpt><trkpt lat="42.1615333" lon="14.6808633"><ele>62.400000000000006</ele><time>2026-04-25T10:08:32.885Z</time></trkpt><trkpt lat="42.1614933" lon="14.680745"><ele>62.800000000000004</ele><time>2026-04-25T10:08:34.885Z</time></trkpt><trkpt lat="42.16145" lon="14.6806367"><ele>63.2</ele><time>2026-04-25T10:08:36.885Z</time></trkpt><trkpt lat="42.1614067" lon="14.6805167"><ele>63.6</ele><time>2026-04-25T10:08:38.885Z</time></trkpt><trkpt lat="42.1613633" lon="14.6804017"><ele>64.0</ele><time>2026-04-25T10:08:40.884Z</time></trkpt><trkpt lat="42.1613167" lon="14.680275"><ele>64.4</ele><time>2026-04-25T10:08:42.884Z</time></trkpt><trkpt lat="42.1612767" lon="14.6801517"><ele>64.80000000000001</ele><time>2026-04-25T10:08:44.885Z</time></trkpt><trkpt lat="42.1612333" lon="14.680035"><ele>65.19999999999999</ele><time>2026-04-25T10:08:46.884Z</time></trkpt><trkpt lat="42.16119" lon="14.6799183"><ele>65.6</ele><time>2026-04-25T10:08:48.885Z</time></trkpt><trkpt lat="42.1611483" lon="14.6798083"><ele>66.0</ele><time>2026-04-25T10:08:50.885Z</time></trkpt><trkpt lat="42.1611033" lon="14.67969"><ele>66.0</ele><time>2026-04-25T10:08:52.885Z</time></trkpt><trkpt lat="42.1610583" lon="14.6795667"><ele>66.0</ele><time>2026-04-25T10:08:54.884Z</time></trkpt><trkpt lat="42.1610167" lon="14.6794483"><ele>66.0</ele><time>2026-04-25T10:08:56.884Z</time></trkpt><trkpt lat="42.160975" lon="14.679335"><ele>66.0</ele><time>2026-04-25T10:08:58.884Z</time></trkpt><trkpt lat="42.1609183" lon="14.6792317"><ele>66.0</ele><time>2026-04-25T10:09:00.885Z</time></trkpt><trkpt lat="42.160855" lon="14.6791433"><ele>66.2</ele><time>2026-04-25T10:09:02.885Z</time></trkpt><trkpt lat="42.1607867" lon="14.67906"><ele>66.39999999999999</ele><time>2026-04-25T10:09:04.884Z</time></trkpt><trkpt lat="42.1607033" lon="14.6789817"><ele>66.6</ele><time>2026-04-25T10:09:06.884Z</time></trkpt><trkpt lat="42.1606233" lon="14.6789083"><ele>66.8</ele><time>2026-04-25T10:09:08.884Z</time></trkpt><trkpt lat="42.16055" lon="14.6788183"><ele>67.0</ele><time>2026-04-25T10:09:10.884Z</time></trkpt><trkpt lat="42.16047" lon="14.6787233"><ele>67.4</ele><time>2026-04-25T10:09:12.885Z</time></trkpt><trkpt lat="42.1603883" lon="14.67863"><ele>67.80000000000001</ele><time>2026-04-25T10:09:14.884Z</time></trkpt><trkpt lat="42.1603117" lon="14.6785433"><ele>68.2</ele><time>2026-04-25T10:09:16.885Z</time></trkpt><trkpt lat="42.1602367" lon="14.678455"><ele>68.60000000000001</ele><time>2026-04-25T10:09:18.885Z</time></trkpt><trkpt lat="42.1601617" lon="14.6783667"><ele>69.0</ele><time>2026-04-25T10:09:20.885Z</time></trkpt><trkpt lat="42.1600833" lon="14.67828"><ele>69.60000000000001</ele><time>2026-04-25T10:09:22.885Z</time></trkpt><trkpt lat="42.1600133" lon="14.67819"><ele>70.2</ele><time>2026-04-25T10:09:24.885Z</time></trkpt><trkpt lat="42.159935" lon="14.6781033"><ele>70.80000000000001</ele><time>2026-04-25T10:09:26.885Z</time></trkpt><trkpt lat="42.1598583" lon="14.678015"><ele>71.4</ele><time>2026-04-25T10:09:28.885Z</time></trkpt><trkpt lat="42.1597783" lon="14.6779333"><ele>72.0</ele><time>2026-04-25T10:09:30.885Z</time></trkpt><trkpt lat="42.159695" lon="14.677855"><ele>72.0</ele><time>2026-04-25T10:09:32.884Z</time></trkpt><trkpt lat="42.1596133" lon="14.677785"><ele>72.0</ele><time>2026-04-25T10:09:34.884Z</time></trkpt><trkpt lat="42.1595267" lon="14.67772"><ele>72.0</ele><time>2026-04-25T10:09:36.885Z</time></trkpt><trkpt lat="42.1594417" lon="14.677655"><ele>72.0</ele><time>2026-04-25T10:09:38.884Z</time></trkpt><trkpt lat="42.1593567" lon="14.67759"><ele>72.0</ele><time>2026-04-25T10:09:40.884Z</time></trkpt><trkpt lat="42.1592683" lon="14.6775217"><ele>72.2</ele><time>2026-04-25T10:09:42.885Z</time></trkpt><trkpt lat="42.15918" lon="14.677455"><ele>72.4</ele><time>2026-04-25T10:09:44.885Z</time></trkpt><trkpt lat="42.1591017" lon="14.67739"><ele>72.6</ele><time>2026-04-25T10:09:46.885Z</time></trkpt><trkpt lat="42.159035" lon="14.6773317"><ele>72.8</ele><time>2026-04-25T10:09:48.885Z</time></trkpt><trkpt lat="42.158945" lon="14.6772717"><ele>73.0</ele><time>2026-04-25T10:09:50.884Z</time></trkpt><trkpt lat="42.1588583" lon="14.67719"><ele>73.4</ele><time>2026-04-25T10:09:52.885Z</time></trkpt><trkpt lat="42.1587683" lon="14.677125"><ele>73.8</ele><time>2026-04-25T10:09:54.884Z</time></trkpt><trkpt lat="42.1586767" lon="14.6770617"><ele>74.2</ele><time>2026-04-25T10:09:56.884Z</time></trkpt><trkpt lat="42.1585867" lon="14.6770067"><ele>74.6</ele><time>2026-04-25T10:09:58.885Z</time></trkpt><trkpt lat="42.158495" lon="14.67695"><ele>75.0</ele><time>2026-04-25T10:10:00.885Z</time></trkpt><trkpt lat="42.1583867" lon="14.676895"><ele>75.4</ele><time>2026-04-25T10:10:02.885Z</time></trkpt><trkpt lat="42.1582867" lon="14.67686"><ele>75.8</ele><time>2026-04-25T10:10:04.885Z</time></trkpt><trkpt lat="42.1581933" lon="14.67682"><ele>76.2</ele><time>2026-04-25T10:10:06.885Z</time></trkpt><trkpt lat="42.1581067" lon="14.6767767"><ele>76.6</ele><time>2026-04-25T10:10:08.885Z</time></trkpt><trkpt lat="42.15803" lon="14.6767283"><ele>77.0</ele><time>2026-04-25T10:10:10.885Z</time></trkpt><trkpt lat="42.1579533" lon="14.67667"><ele>77.2</ele><time>2026-04-25T10:10:12.885Z</time></trkpt><trkpt lat="42.1578667" lon="14.676625"><ele>77.4</ele><time>2026-04-25T10:10:14.885Z</time></trkpt><trkpt lat="42.1577767" lon="14.67658"><ele>77.6</ele><time>2026-04-25T10:10:16.885Z</time></trkpt><trkpt lat="42.1576833" lon="14.67653"><ele>77.8</ele><time>2026-04-25T10:10:18.884Z</time></trkpt><trkpt lat="42.1575883" lon="14.6764833"><ele>78.0</ele><time>2026-04-25T10:10:20.885Z</time></trkpt><trkpt lat="42.157495" lon="14.6764367"><ele>78.0</ele><time>2026-04-25T10:10:22.885Z</time></trkpt><trkpt lat="42.1573983" lon="14.6763917"><ele>78.0</ele><time>2026-04-25T10:10:24.885Z</time></trkpt><trkpt lat="42.1573033" lon="14.676345"><ele>78.0</ele><time>2026-04-25T10:10:26.885Z</time></trkpt><trkpt lat="42.1572167" lon="14.6763017"><ele>78.0</ele><time>2026-04-25T10:10:28.885Z</time></trkpt><trkpt lat="42.1571233" lon="14.6762467"><ele>78.0</ele><time>2026-04-25T10:10:30.885Z</time></trkpt><trkpt lat="42.1570883" lon="14.6761433"><ele>78.6</ele><time>2026-04-25T10:10:32.885Z</time></trkpt><trkpt lat="42.157095" lon="14.676035"><ele>79.19999999999999</ele><time>2026-04-25T10:10:34.885Z</time></trkpt><trkpt lat="42.15712" lon="14.67592"><ele>79.8</ele><time>2026-04-25T10:10:36.884Z</time></trkpt><trkpt lat="42.1571483" lon="14.6757983"><ele>80.39999999999999</ele><time>2026-04-25T10:10:38.884Z</time></trkpt><trkpt lat="42.1571717" lon="14.6756783"><ele>81.0</ele><time>2026-04-25T10:10:40.885Z</time></trkpt><trkpt lat="42.157205" lon="14.6755567"><ele>81.0</ele><time>2026-04-25T10:10:42.884Z</time></trkpt><trkpt lat="42.1572467" lon="14.6754467"><ele>81.0</ele><time>2026-04-25T10:10:44.885Z</time></trkpt><trkpt lat="42.1572867" lon="14.6753483"><ele>81.0</ele><time>2026-04-25T10:10:46.885Z</time></trkpt><trkpt lat="42.15733" lon="14.6752517"><ele>81.0</ele><time>2026-04-25T10:10:48.884Z</time></trkpt><trkpt lat="42.157375" lon="14.67516"><ele>81.0</ele><time>2026-04-25T10:10:50.884Z</time></trkpt><trkpt lat="42.1574233" lon="14.6750667"><ele>81.0</ele><time>2026-04-25T10:10:52.885Z</time></trkpt><trkpt lat="42.1574817" lon="14.674965"><ele>81.0</ele><time>2026-04-25T10:10:54.885Z</time></trkpt><trkpt lat="42.1575517" lon="14.6748667"><ele>81.0</ele><time>2026-04-25T10:10:56.885Z</time></trkpt><trkpt lat="42.157615" lon="14.6747583"><ele>81.0</ele><time>2026-04-25T10:10:58.884Z</time></trkpt><trkpt lat="42.157695" lon="14.67465"><ele>81.0</ele><time>2026-04-25T10:11:00.885Z</time></trkpt><trkpt lat="42.15778" lon="14.6745267"><ele>81.0</ele><time>2026-04-25T10:11:02.885Z</time></trkpt><trkpt lat="42.157825" lon="14.6744583"><ele>80.5</ele><time>2026-04-25T10:11:03.885Z</time></trkpt><trkpt lat="42.157875" lon="14.6743867"><ele>80.0</ele><time>2026-04-25T10:11:04.885Z</time></trkpt><trkpt lat="42.1579283" lon="14.6743167"><ele>79.5</ele><time>2026-04-25T10:11:05.885Z</time></trkpt><trkpt lat="42.1579883" lon="14.67425"><ele>79.0</ele><time>2026-04-25T10:11:06.885Z</time></trkpt><trkpt lat="42.1580517" lon="14.6741717"><ele>78.5</ele><time>2026-04-25T10:11:07.884Z</time></trkpt><trkpt lat="42.158115" lon="14.6741067"><ele>78.0</ele><time>2026-04-25T10:11:08.884Z</time></trkpt><trkpt lat="42.158185" lon="14.674045"><ele>77.66666666666667</ele><time>2026-04-25T10:11:09.884Z</time></trkpt><trkpt lat="42.1582567" lon="14.67399"><ele>77.33333333333333</ele><time>2026-04-25T10:11:10.885Z</time></trkpt><trkpt lat="42.1583317" lon="14.6739367"><ele>77.0</ele><time>2026-04-25T10:11:11.884Z</time></trkpt><trkpt lat="42.1584083" lon="14.6738883"><ele>76.66666666666666</ele><time>2026-04-25T10:11:12.884Z</time></trkpt><trkpt lat="42.1584867" lon="14.673835"><ele>76.33333333333333</ele><time>2026-04-25T10:11:13.884Z</time></trkpt><trkpt lat="42.1585683" lon="14.6737767"><ele>76.0</ele><time>2026-04-25T10:11:14.885Z</time></trkpt><trkpt lat="42.1586533" lon="14.6737083"><ele>76.0</ele><time>2026-04-25T10:11:15.885Z</time></trkpt><trkpt lat="42.1587417" lon="14.67363"><ele>76.0</ele><time>2026-04-25T10:11:16.885Z</time></trkpt><trkpt lat="42.158825" lon="14.6735417"><ele>76.0</ele><time>2026-04-25T10:11:17.885Z</time></trkpt><trkpt lat="42.1589083" lon="14.6734517"><ele>76.0</ele><time>2026-04-25T10:11:18.885Z</time></trkpt><trkpt lat="42.1589933" lon="14.67335"><ele>76.0</ele><time>2026-04-25T10:11:19.885Z</time></trkpt><trkpt lat="42.1590683" lon="14.6732367"><ele>75.66666666666666</ele><time>2026-04-25T10:11:20.885Z</time></trkpt><trkpt lat="42.1591133" lon="14.673135"><ele>75.33333333333333</ele><time>2026-04-25T10:11:21.884Z</time></trkpt><trkpt lat="42.15915" lon="14.67305"><ele>75.0</ele><time>2026-04-25T10:11:22.884Z</time></trkpt><trkpt lat="42.1591983" lon="14.6729417"><ele>74.66666666666667</ele><time>2026-04-25T10:11:24.884Z</time></trkpt><trkpt lat="42.1592317" lon="14.6728667"><ele>74.33333333333334</ele><time>2026-04-25T10:11:26.885Z</time></trkpt><trkpt lat="42.1592833" lon="14.6727633"><ele>74.0</ele><time>2026-04-25T10:11:29.885Z</time></trkpt><trkpt lat="42.159325" lon="14.6726917"><ele>74.0</ele><time>2026-04-25T10:11:31.885Z</time></trkpt><trkpt lat="42.159375" lon="14.672615"><ele>74.0</ele><time>2026-04-25T10:11:33.884Z</time></trkpt><trkpt lat="42.1594217" lon="14.6725417"><ele>74.0</ele><time>2026-04-25T10:11:35.884Z</time></trkpt><trkpt lat="42.1594717" lon="14.6724767"><ele>74.0</ele><time>2026-04-25T10:11:37.884Z</time></trkpt><trkpt lat="42.1595183" lon="14.672405"><ele>74.0</ele><time>2026-04-25T10:11:39.884Z</time></trkpt><trkpt lat="42.15956" lon="14.672335"><ele>74.0</ele><time>2026-04-25T10:11:41.885Z</time></trkpt><trkpt lat="42.1596067" lon="14.672265"><ele>74.0</ele><time>2026-04-25T10:11:43.884Z</time></trkpt><trkpt lat="42.1596567" lon="14.6721983"><ele>74.0</ele><time>2026-04-25T10:11:45.885Z</time></trkpt><trkpt lat="42.1597067" lon="14.6721333"><ele>74.0</ele><time>2026-04-25T10:11:47.884Z</time></trkpt><trkpt lat="42.15975" lon="14.6720617"><ele>74.0</ele><time>2026-04-25T10:11:49.884Z</time></trkpt><trkpt lat="42.1598067" lon="14.6719733"><ele>74.0</ele><time>2026-04-25T10:11:52.884Z</time></trkpt><trkpt lat="42.1598733" lon="14.6719433"><ele>74.0</ele><time>2026-04-25T10:11:54.885Z</time></trkpt><trkpt lat="42.159955" lon="14.6720433"><ele>74.0</ele><time>2026-04-25T10:11:57.885Z</time></trkpt><trkpt lat="42.1600167" lon="14.6721267"><ele>74.8</ele><time>2026-04-25T10:11:59.885Z</time></trkpt><trkpt lat="42.1600817" lon="14.672215"><ele>75.60000000000001</ele><time>2026-04-25T10:12:01.885Z</time></trkpt><trkpt lat="42.1601467" lon="14.67231"><ele>76.4</ele><time>2026-04-25T10:12:03.885Z</time></trkpt><trkpt lat="42.1602117" lon="14.6724183"><ele>77.2</ele><time>2026-04-25T10:12:05.885Z</time></trkpt><trkpt lat="42.1602833" lon="14.67252"><ele>78.0</ele><time>2026-04-25T10:12:07.884Z</time></trkpt><trkpt lat="42.1603417" lon="14.67263"><ele>78.0</ele><time>2026-04-25T10:12:09.885Z</time></trkpt><trkpt lat="42.1604283" lon="14.672735"><ele>78.0</ele><time>2026-04-25T10:12:11.885Z</time></trkpt><trkpt lat="42.1605217" lon="14.6728183"><ele>78.0</ele><time>2026-04-25T10:12:13.885Z</time></trkpt><trkpt lat="42.160625" lon="14.6728833"><ele>78.0</ele><time>2026-04-25T10:12:15.884Z</time></trkpt><trkpt lat="42.16074" lon="14.6729283"><ele>77.66666666666667</ele><time>2026-04-25T10:12:17.885Z</time></trkpt><trkpt lat="42.1608033" lon="14.6729483"><ele>77.33333333333333</ele><time>2026-04-25T10:12:18.884Z</time></trkpt><trkpt lat="42.16087" lon="14.6729683"><ele>77.0</ele><time>2026-04-25T10:12:19.885Z</time></trkpt><trkpt lat="42.1609333" lon="14.672975"><ele>76.66666666666666</ele><time>2026-04-25T10:12:20.884Z</time></trkpt><trkpt lat="42.1610467" lon="14.6729583"><ele>76.33333333333333</ele><time>2026-04-25T10:12:22.885Z</time></trkpt><trkpt lat="42.161145" lon="14.6729033"><ele>76.0</ele><time>2026-04-25T10:12:24.885Z</time></trkpt><trkpt lat="42.1612083" lon="14.672795"><ele>76.0</ele><time>2026-04-25T10:12:26.885Z</time></trkpt><trkpt lat="42.1612467" lon="14.6726467"><ele>76.0</ele><time>2026-04-25T10:12:28.885Z</time></trkpt><trkpt lat="42.16128" lon="14.6725033"><ele>76.0</ele><time>2026-04-25T10:12:30.885Z</time></trkpt><trkpt lat="42.16131" lon="14.6723733"><ele>76.0</ele><time>2026-04-25T10:12:32.885Z</time></trkpt><trkpt lat="42.1613483" lon="14.6722483"><ele>76.0</ele><time>2026-04-25T10:12:34.884Z</time></trkpt><trkpt lat="42.1613883" lon="14.6721233"><ele>76.0</ele><time>2026-04-25T10:12:36.884Z</time></trkpt><trkpt lat="42.1614283" lon="14.672005"><ele>76.0</ele><time>2026-04-25T10:12:38.885Z</time></trkpt><trkpt lat="42.1614733" lon="14.67188"><ele>76.0</ele><time>2026-04-25T10:12:40.884Z</time></trkpt><trkpt lat="42.16153" lon="14.6717667"><ele>76.0</ele><time>2026-04-25T10:12:42.885Z</time></trkpt><trkpt lat="42.161595" lon="14.67166"><ele>76.0</ele><time>2026-04-25T10:12:44.885Z</time></trkpt><trkpt lat="42.1616667" lon="14.6715317"><ele>75.8</ele><time>2026-04-25T10:12:46.884Z</time></trkpt><trkpt lat="42.1617117" lon="14.6714017"><ele>75.6</ele><time>2026-04-25T10:12:48.885Z</time></trkpt><trkpt lat="42.1617533" lon="14.6712933"><ele>75.4</ele><time>2026-04-25T10:12:50.885Z</time></trkpt><trkpt lat="42.1617883" lon="14.6711717"><ele>75.2</ele><time>2026-04-25T10:12:52.884Z</time></trkpt><trkpt lat="42.161825" lon="14.671065"><ele>75.0</ele><time>2026-04-25T10:12:54.884Z</time></trkpt><trkpt lat="42.161865" lon="14.6709733"><ele>75.5</ele><time>2026-04-25T10:12:56.885Z</time></trkpt><trkpt lat="42.1619233" lon="14.670885"><ele>76.0</ele><time>2026-04-25T10:12:58.885Z</time></trkpt><trkpt lat="42.1619883" lon="14.67082"><ele>76.5</ele><time>2026-04-25T10:13:00.884Z</time></trkpt><trkpt lat="42.1620717" lon="14.6707717"><ele>77.0</ele><time>2026-04-25T10:13:02.885Z</time></trkpt><trkpt lat="42.162145" lon="14.67072"><ele>77.5</ele><time>2026-04-25T10:13:04.884Z</time></trkpt><trkpt lat="42.162215" lon="14.6706483"><ele>78.0</ele><time>2026-04-25T10:13:06.885Z</time></trkpt><trkpt lat="42.1622667" lon="14.670565"><ele>78.0</ele><time>2026-04-25T10:13:08.885Z</time></trkpt><trkpt lat="42.1623233" lon="14.6704583"><ele>78.0</ele><time>2026-04-25T10:13:10.884Z</time></trkpt><trkpt lat="42.1623767" lon="14.670355"><ele>78.0</ele><time>2026-04-25T10:13:12.884Z</time></trkpt><trkpt lat="42.1624433" lon="14.6702233"><ele>78.0</ele><time>2026-04-25T10:13:14.884Z</time></trkpt><trkpt lat="42.162475" lon="14.6701433"><ele>78.0</ele><time>2026-04-25T10:13:15.884Z</time></trkpt><trkpt lat="42.1625333" lon="14.6700117"><ele>78.0</ele><time>2026-04-25T10:13:17.885Z</time></trkpt><trkpt lat="42.1625767" lon="14.66988"><ele>78.0</ele><time>2026-04-25T10:13:19.884Z</time></trkpt><trkpt lat="42.1626233" lon="14.6697467"><ele>78.0</ele><time>2026-04-25T10:13:21.885Z</time></trkpt><trkpt lat="42.1626783" lon="14.66961"><ele>78.0</ele><time>2026-04-25T10:13:23.884Z</time></trkpt><trkpt lat="42.1627333" lon="14.66949"><ele>78.0</ele><time>2026-04-25T10:13:25.885Z</time></trkpt><trkpt lat="42.16282" lon="14.6694"><ele>78.0</ele><time>2026-04-25T10:13:27.885Z</time></trkpt><trkpt lat="42.1629017" lon="14.6693117"><ele>78.0</ele><time>2026-04-25T10:13:29.885Z</time></trkpt><trkpt lat="42.1629633" lon="14.6691983"><ele>78.0</ele><time>2026-04-25T10:13:31.885Z</time></trkpt><trkpt lat="42.1630233" lon="14.669095"><ele>78.0</ele><time>2026-04-25T10:13:33.885Z</time></trkpt><trkpt lat="42.1630933" lon="14.6689633"><ele>78.0</ele><time>2026-04-25T10:13:35.885Z</time></trkpt><trkpt lat="42.163165" lon="14.66884"><ele>77.25</ele><time>2026-04-25T10:13:37.884Z</time></trkpt><trkpt lat="42.16325" lon="14.6687283"><ele>76.5</ele><time>2026-04-25T10:13:39.885Z</time></trkpt><trkpt lat="42.1633383" lon="14.6686217"><ele>75.75</ele><time>2026-04-25T10:13:41.885Z</time></trkpt><trkpt lat="42.163425" lon="14.6685117"><ele>75.0</ele><time>2026-04-25T10:13:43.885Z</time></trkpt><trkpt lat="42.1635" lon="14.6683983"><ele>75.0</ele><time>2026-04-25T10:13:45.885Z</time></trkpt><trkpt lat="42.16357" lon="14.668275"><ele>75.0</ele><time>2026-04-25T10:13:47.885Z</time></trkpt><trkpt lat="42.1636217" lon="14.6681617"><ele>75.0</ele><time>2026-04-25T10:13:49.884Z</time></trkpt><trkpt lat="42.1636633" lon="14.6680467"><ele>75.0</ele><time>2026-04-25T10:13:51.884Z</time></trkpt><trkpt lat="42.1637" lon="14.6679017"><ele>75.0</ele><time>2026-04-25T10:13:53.885Z</time></trkpt><trkpt lat="42.1637367" lon="14.6677517"><ele>75.5</ele><time>2026-04-25T10:13:55.885Z</time></trkpt><trkpt lat="42.16377" lon="14.6675933"><ele>76.0</ele><time>2026-04-25T10:13:57.885Z</time></trkpt><trkpt lat="42.1637983" lon="14.667435"><ele>76.5</ele><time>2026-04-25T10:13:59.885Z</time></trkpt><trkpt lat="42.163825" lon="14.6672767"><ele>77.0</ele><time>2026-04-25T10:14:01.884Z</time></trkpt><trkpt lat="42.1638417" lon="14.66712"><ele>77.0</ele><time>2026-04-25T10:14:03.885Z</time></trkpt><trkpt lat="42.1638617" lon="14.6669717"><ele>77.0</ele><time>2026-04-25T10:14:05.885Z</time></trkpt><trkpt lat="42.1638883" lon="14.66682"><ele>77.0</ele><time>2026-04-25T10:14:07.884Z</time></trkpt><trkpt lat="42.1639017" lon="14.6666817"><ele>77.0</ele><time>2026-04-25T10:14:09.885Z</time></trkpt><trkpt lat="42.1639067" lon="14.6665517"><ele>77.0</ele><time>2026-04-25T10:14:11.885Z</time></trkpt><trkpt lat="42.16392" lon="14.666425"><ele>77.0</ele><time>2026-04-25T10:14:13.885Z</time></trkpt><trkpt lat="42.16394" lon="14.6663183"><ele>77.0</ele><time>2026-04-25T10:14:15.885Z</time></trkpt><trkpt lat="42.16397" lon="14.66621"><ele>77.0</ele><time>2026-04-25T10:14:17.884Z</time></trkpt><trkpt lat="42.1639867" lon="14.666095"><ele>77.0</ele><time>2026-04-25T10:14:19.885Z</time></trkpt><trkpt lat="42.16401" lon="14.665965"><ele>77.0</ele><time>2026-04-25T10:14:21.884Z</time></trkpt><trkpt lat="42.16403" lon="14.6658183"><ele>76.8</ele><time>2026-04-25T10:14:23.885Z</time></trkpt><trkpt lat="42.1640383" lon="14.6656917"><ele>76.6</ele><time>2026-04-25T10:14:25.884Z</time></trkpt><trkpt lat="42.1640467" lon="14.6655733"><ele>76.39999999999999</ele><time>2026-04-25T10:14:27.885Z</time></trkpt><trkpt lat="42.1640517" lon="14.6654567"><ele>76.2</ele><time>2026-04-25T10:14:29.885Z</time></trkpt><trkpt lat="42.1640683" lon="14.6653017"><ele>76.0</ele><time>2026-04-25T10:14:31.885Z</time></trkpt><trkpt lat="42.1640817" lon="14.6651317"><ele>76.6</ele><time>2026-04-25T10:14:33.885Z</time></trkpt><trkpt lat="42.1640783" lon="14.664985"><ele>77.19999999999999</ele><time>2026-04-25T10:14:35.884Z</time></trkpt><trkpt lat="42.164065" lon="14.6648583"><ele>77.80000000000001</ele><time>2026-04-25T10:14:37.884Z</time></trkpt><trkpt lat="42.1640267" lon="14.66474"><ele>78.4</ele><time>2026-04-25T10:14:39.885Z</time></trkpt><trkpt lat="42.1639733" lon="14.66464"><ele>79.0</ele><time>2026-04-25T10:14:41.885Z</time></trkpt><trkpt lat="42.1639217" lon="14.6645467"><ele>79.2</ele><time>2026-04-25T10:14:43.884Z</time></trkpt><trkpt lat="42.1638667" lon="14.6644467"><ele>79.4</ele><time>2026-04-25T10:14:45.885Z</time></trkpt><trkpt lat="42.1638083" lon="14.6643433"><ele>79.6</ele><time>2026-04-25T10:14:47.884Z</time></trkpt><trkpt lat="42.16375" lon="14.66424"><ele>79.8</ele><time>2026-04-25T10:14:49.885Z</time></trkpt><trkpt lat="42.1636933" lon="14.6641317"><ele>80.0</ele><time>2026-04-25T10:14:51.885Z</time></trkpt><trkpt lat="42.16364" lon="14.6640367"><ele>80.4</ele><time>2026-04-25T10:14:53.885Z</time></trkpt><trkpt lat="42.1635833" lon="14.66393"><ele>80.8</ele><time>2026-04-25T10:14:55.884Z</time></trkpt><trkpt lat="42.1635267" lon="14.6638183"><ele>81.19999999999999</ele><time>2026-04-25T10:14:57.884Z</time></trkpt><trkpt lat="42.1634733" lon="14.6636983"><ele>81.6</ele><time>2026-04-25T10:14:59.884Z</time></trkpt><trkpt lat="42.163425" lon="14.6635867"><ele>82.0</ele><time>2026-04-25T10:15:01.884Z</time></trkpt><trkpt lat="42.1633733" lon="14.66348"><ele>82.6</ele><time>2026-04-25T10:15:03.885Z</time></trkpt><trkpt lat="42.1633283" lon="14.663365"><ele>83.19999999999999</ele><time>2026-04-25T10:15:05.885Z</time></trkpt><trkpt lat="42.1632767" lon="14.6632533"><ele>83.8</ele><time>2026-04-25T10:15:07.884Z</time></trkpt><trkpt lat="42.1632283" lon="14.663135"><ele>84.4</ele><time>2026-04-25T10:15:09.885Z</time></trkpt><trkpt lat="42.1631733" lon="14.6630267"><ele>85.0</ele><time>2026-04-25T10:15:11.885Z</time></trkpt><trkpt lat="42.1631117" lon="14.66292"><ele>85.6</ele><time>2026-04-25T10:15:13.885Z</time></trkpt><trkpt lat="42.1630467" lon="14.66282"><ele>86.2</ele><time>2026-04-25T10:15:15.884Z</time></trkpt><trkpt lat="42.162975" lon="14.6627317"><ele>86.80000000000001</ele><time>2026-04-25T10:15:17.884Z</time></trkpt><trkpt lat="42.1629033" lon="14.662645"><ele>87.4</ele><time>2026-04-25T10:15:19.884Z</time></trkpt><trkpt lat="42.162835" lon="14.6625517"><ele>88.0</ele><time>2026-04-25T10:15:21.885Z</time></trkpt><trkpt lat="42.16276" lon="14.6624683"><ele>88.0</ele><time>2026-04-25T10:15:23.885Z</time></trkpt><trkpt lat="42.1626767" lon="14.662385"><ele>88.0</ele><time>2026-04-25T10:15:25.885Z</time></trkpt><trkpt lat="42.1626" lon="14.6622967"><ele>88.0</ele><time>2026-04-25T10:15:27.884Z</time></trkpt><trkpt lat="42.1625317" lon="14.6622033"><ele>88.0</ele><time>2026-04-25T10:15:29.885Z</time></trkpt><trkpt lat="42.1624683" lon="14.662105"><ele>88.0</ele><time>2026-04-25T10:15:31.885Z</time></trkpt><trkpt lat="42.1624017" lon="14.6620033"><ele>89.0</ele><time>2026-04-25T10:15:33.885Z</time></trkpt><trkpt lat="42.1623433" lon="14.6619"><ele>90.0</ele><time>2026-04-25T10:15:35.884Z</time></trkpt><trkpt lat="42.162295" lon="14.6617883"><ele>91.0</ele><time>2026-04-25T10:15:37.884Z</time></trkpt><trkpt lat="42.1622517" lon="14.66167"><ele>92.0</ele><time>2026-04-25T10:15:39.885Z</time></trkpt><trkpt lat="42.1622017" lon="14.66155"><ele>93.0</ele><time>2026-04-25T10:15:41.885Z</time></trkpt><trkpt lat="42.1621533" lon="14.661435"><ele>93.0</ele><time>2026-04-25T10:15:43.884Z</time></trkpt><trkpt lat="42.1621183" lon="14.6613083"><ele>93.0</ele><time>2026-04-25T10:15:45.884Z</time></trkpt><trkpt lat="42.1620833" lon="14.66119"><ele>93.0</ele><time>2026-04-25T10:15:47.885Z</time></trkpt><trkpt lat="42.162055" lon="14.6610683"><ele>93.0</ele><time>2026-04-25T10:15:49.885Z</time></trkpt><trkpt lat="42.162035" lon="14.6609467"><ele>93.0</ele><time>2026-04-25T10:15:51.885Z</time></trkpt><trkpt lat="42.1619983" lon="14.6608333"><ele>93.0</ele><time>2026-04-25T10:15:53.885Z</time></trkpt><trkpt lat="42.1619767" lon="14.660715"><ele>93.0</ele><time>2026-04-25T10:15:55.885Z</time></trkpt><trkpt lat="42.161955" lon="14.6606083"><ele>93.0</ele><time>2026-04-25T10:15:57.885Z</time></trkpt><trkpt lat="42.1619283" lon="14.6604983"><ele>93.0</ele><time>2026-04-25T10:15:59.885Z</time></trkpt><trkpt lat="42.1619017" lon="14.660385"><ele>93.0</ele><time>2026-04-25T10:16:01.885Z</time></trkpt><trkpt lat="42.1618733" lon="14.66028"><ele>93.0</ele><time>2026-04-25T10:16:03.885Z</time></trkpt><trkpt lat="42.161845" lon="14.66017"><ele>93.16666666666667</ele><time>2026-04-25T10:16:05.885Z</time></trkpt><trkpt lat="42.1618233" lon="14.6600583"><ele>93.33333333333333</ele><time>2026-04-25T10:16:07.885Z</time></trkpt><trkpt lat="42.161805" lon="14.6599383"><ele>93.5</ele><time>2026-04-25T10:16:09.885Z</time></trkpt><trkpt lat="42.161785" lon="14.6598183"><ele>93.66666666666666</ele><time>2026-04-25T10:16:11.884Z</time></trkpt><trkpt lat="42.161765" lon="14.6597017"><ele>93.83333333333333</ele><time>2026-04-25T10:16:13.884Z</time></trkpt><trkpt lat="42.1617467" lon="14.6595867"><ele>94.0</ele><time>2026-04-25T10:16:15.885Z</time></trkpt><trkpt lat="42.1617217" lon="14.6594683"><ele>94.28571428571428</ele><time>2026-04-25T10:16:17.884Z</time></trkpt><trkpt lat="42.161695" lon="14.659365"><ele>94.57142857142857</ele><time>2026-04-25T10:16:19.885Z</time></trkpt><trkpt lat="42.1616633" lon="14.6592617"><ele>94.85714285714286</ele><time>2026-04-25T10:16:21.885Z</time></trkpt><trkpt lat="42.1616433" lon="14.6591617"><ele>95.14285714285714</ele><time>2026-04-25T10:16:23.884Z</time></trkpt><trkpt lat="42.1616467" lon="14.6590767"><ele>95.42857142857143</ele><time>2026-04-25T10:16:25.885Z</time></trkpt><trkpt lat="42.1616683" lon="14.6589917"><ele>95.71428571428571</ele><time>2026-04-25T10:16:27.884Z</time></trkpt><trkpt lat="42.1616833" lon="14.658905"><ele>96.0</ele><time>2026-04-25T10:16:29.885Z</time></trkpt><trkpt lat="42.1616767" lon="14.6587983"><ele>96.0</ele><time>2026-04-25T10:16:31.884Z</time></trkpt><trkpt lat="42.1616483" lon="14.6587017"><ele>96.0</ele><time>2026-04-25T10:16:33.92Z</time></trkpt><trkpt lat="42.1615933" lon="14.6586233"><ele>96.0</ele><time>2026-04-25T10:16:34.887Z</time></trkpt><trkpt lat="42.1615283" lon="14.658465"><ele>96.0</ele><time>2026-04-25T10:16:37.387Z</time></trkpt><trkpt lat="42.1614817" lon="14.6583483"><ele>96.0</ele><time>2026-04-25T10:16:38.887Z</time></trkpt><trkpt lat="42.1614283" lon="14.658255"><ele>96.0</ele><time>2026-04-25T10:16:40.888Z</time></trkpt><trkpt lat="42.1614117" lon="14.6581517"><ele>96.0</ele><time>2026-04-25T10:16:43.888Z</time></trkpt><trkpt lat="42.1614617" lon="14.6581"><ele>96.0</ele><time>2026-04-25T10:16:47.888Z</time></trkpt><trkpt lat="42.1615633" lon="14.6580833"><ele>96.0</ele><time>2026-04-25T10:16:50.887Z</time></trkpt><trkpt lat="42.1616433" lon="14.6580767"><ele>96.0</ele><time>2026-04-25T10:16:52.887Z</time></trkpt><trkpt lat="42.1617417" lon="14.6580733"><ele>96.0</ele><time>2026-04-25T10:16:54.887Z</time></trkpt><trkpt lat="42.1618467" lon="14.6580567"><ele>95.5</ele><time>2026-04-25T10:16:56.888Z</time></trkpt><trkpt lat="42.1619333" lon="14.65802"><ele>95.0</ele><time>2026-04-25T10:16:58.888Z</time></trkpt><trkpt lat="42.16203" lon="14.6579967"><ele>94.5</ele><time>2026-04-25T10:17:00.888Z</time></trkpt><trkpt lat="42.1621267" lon="14.6579833"><ele>94.0</ele><time>2026-04-25T10:17:02.888Z</time></trkpt><trkpt lat="42.1622033" lon="14.657965"><ele>93.5</ele><time>2026-04-25T10:17:04.888Z</time></trkpt><trkpt lat="42.1622783" lon="14.6579383"><ele>93.0</ele><time>2026-04-25T10:17:06.888Z</time></trkpt><trkpt lat="42.16233" lon="14.6578767"><ele>92.4</ele><time>2026-04-25T10:17:09.887Z</time></trkpt><trkpt lat="42.1623283" lon="14.6577733"><ele>91.80000000000001</ele><time>2026-04-25T10:17:14.887Z</time></trkpt><trkpt lat="42.1623767" lon="14.6576783"><ele>91.2</ele><time>2026-04-25T10:17:17.887Z</time></trkpt><trkpt lat="42.1624467" lon="14.6575933"><ele>90.6</ele><time>2026-04-25T10:17:19.887Z</time></trkpt><trkpt lat="42.16253" lon="14.6574867"><ele>90.0</ele><time>2026-04-25T10:17:21.886Z</time></trkpt><trkpt lat="42.162625" lon="14.6573817"><ele>89.6</ele><time>2026-04-25T10:17:23.887Z</time></trkpt><trkpt lat="42.1627333" lon="14.6572917"><ele>89.2</ele><time>2026-04-25T10:17:25.887Z</time></trkpt><trkpt lat="42.1628433" lon="14.6572283"><ele>88.80000000000001</ele><time>2026-04-25T10:17:27.887Z</time></trkpt><trkpt lat="42.1629567" lon="14.657185"><ele>88.4</ele><time>2026-04-25T10:17:29.887Z</time></trkpt><trkpt lat="42.1630167" lon="14.6571583"><ele>88.0</ele><time>2026-04-25T10:17:30.887Z</time></trkpt><trkpt lat="42.16313" lon="14.6570933"><ele>88.0</ele><time>2026-04-25T10:17:32.886Z</time></trkpt><trkpt lat="42.1631917" lon="14.6570583"><ele>88.0</ele><time>2026-04-25T10:17:33.886Z</time></trkpt><trkpt lat="42.1632533" lon="14.657015"><ele>88.0</ele><time>2026-04-25T10:17:34.887Z</time></trkpt><trkpt lat="42.163315" lon="14.65697"><ele>88.0</ele><time>2026-04-25T10:17:35.887Z</time></trkpt><trkpt lat="42.1633767" lon="14.6569267"><ele>88.0</ele><time>2026-04-25T10:17:36.887Z</time></trkpt><trkpt lat="42.1634417" lon="14.6568817"><ele>88.0</ele><time>2026-04-25T10:17:37.887Z</time></trkpt><trkpt lat="42.1635033" lon="14.6568383"><ele>88.0</ele><time>2026-04-25T10:17:38.887Z</time></trkpt><trkpt lat="42.1635733" lon="14.6567933"><ele>87.16666666666666</ele><time>2026-04-25T10:17:39.887Z</time></trkpt><trkpt lat="42.163645" lon="14.6567417"><ele>86.33333333333333</ele><time>2026-04-25T10:17:40.886Z</time></trkpt><trkpt lat="42.163715" lon="14.6566867"><ele>85.5</ele><time>2026-04-25T10:17:41.887Z</time></trkpt><trkpt lat="42.1637833" lon="14.6566317"><ele>84.66666666666667</ele><time>2026-04-25T10:17:42.887Z</time></trkpt><trkpt lat="42.1638533" lon="14.656575"><ele>83.83333333333334</ele><time>2026-04-25T10:17:43.887Z</time></trkpt><trkpt lat="42.1639283" lon="14.6565183"><ele>83.0</ele><time>2026-04-25T10:17:44.887Z</time></trkpt><trkpt lat="42.1640067" lon="14.6564633"><ele>83.16666666666667</ele><time>2026-04-25T10:17:45.887Z</time></trkpt><trkpt lat="42.16408" lon="14.6564067"><ele>83.33333333333334</ele><time>2026-04-25T10:17:46.887Z</time></trkpt><trkpt lat="42.1641533" lon="14.6563533"><ele>83.5</ele><time>2026-04-25T10:17:47.887Z</time></trkpt><trkpt lat="42.1642233" lon="14.6563"><ele>83.66666666666667</ele><time>2026-04-25T10:17:48.887Z</time></trkpt><trkpt lat="42.1642933" lon="14.65625"><ele>83.83333333333333</ele><time>2026-04-25T10:17:49.887Z</time></trkpt><trkpt lat="42.1643617" lon="14.656205"><ele>84.0</ele><time>2026-04-25T10:17:50.886Z</time></trkpt><trkpt lat="42.16443" lon="14.6561633"><ele>83.5</ele><time>2026-04-25T10:17:51.887Z</time></trkpt><trkpt lat="42.1645" lon="14.656115"><ele>83.0</ele><time>2026-04-25T10:17:52.886Z</time></trkpt><trkpt lat="42.1645683" lon="14.6560633"><ele>82.5</ele><time>2026-04-25T10:17:53.887Z</time></trkpt><trkpt lat="42.1646333" lon="14.6560067"><ele>82.0</ele><time>2026-04-25T10:17:54.887Z</time></trkpt><trkpt lat="42.1646933" lon="14.65595"><ele>81.5</ele><time>2026-04-25T10:17:55.886Z</time></trkpt><trkpt lat="42.16476" lon="14.655905"><ele>81.0</ele><time>2026-04-25T10:17:56.887Z</time></trkpt><trkpt lat="42.16483" lon="14.6558667"><ele>80.83333333333333</ele><time>2026-04-25T10:17:57.887Z</time></trkpt><trkpt lat="42.1648967" lon="14.65583"><ele>80.66666666666667</ele><time>2026-04-25T10:17:58.887Z</time></trkpt><trkpt lat="42.1649683" lon="14.6557983"><ele>80.5</ele><time>2026-04-25T10:17:59.886Z</time></trkpt><trkpt lat="42.1650433" lon="14.6557817"><ele>80.33333333333334</ele><time>2026-04-25T10:18:00.887Z</time></trkpt><trkpt lat="42.165125" lon="14.655765"><ele>80.16666666666667</ele><time>2026-04-25T10:18:01.886Z</time></trkpt><trkpt lat="42.1652083" lon="14.65575"><ele>80.0</ele><time>2026-04-25T10:18:02.886Z</time></trkpt><trkpt lat="42.1652883" lon="14.655745"><ele>80.0</ele><time>2026-04-25T10:18:03.887Z</time></trkpt><trkpt lat="42.1653733" lon="14.6557433"><ele>80.0</ele><time>2026-04-25T10:18:04.886Z</time></trkpt><trkpt lat="42.1654567" lon="14.655745"><ele>80.0</ele><time>2026-04-25T10:18:05.886Z</time></trkpt><trkpt lat="42.1655383" lon="14.6557433"><ele>80.0</ele><time>2026-04-25T10:18:06.887Z</time></trkpt><trkpt lat="42.1656233" lon="14.6557533"><ele>80.0</ele><time>2026-04-25T10:18:07.886Z</time></trkpt><trkpt lat="42.1657083" lon="14.6557533"><ele>80.0</ele><time>2026-04-25T10:18:08.887Z</time></trkpt><trkpt lat="42.1657883" lon="14.65575"><ele>79.16666666666667</ele><time>2026-04-25T10:18:09.887Z</time></trkpt><trkpt lat="42.16586" lon="14.655745"><ele>78.33333333333334</ele><time>2026-04-25T10:18:10.886Z</time></trkpt><trkpt lat="42.1659283" lon="14.6557417"><ele>77.5</ele><time>2026-04-25T10:18:11.887Z</time></trkpt><trkpt lat="42.1659933" lon="14.6557317"><ele>76.66666666666667</ele><time>2026-04-25T10:18:12.886Z</time></trkpt><trkpt lat="42.1661" lon="14.6556917"><ele>75.83333333333333</ele><time>2026-04-25T10:18:14.887Z</time></trkpt><trkpt lat="42.1662067" lon="14.6556483"><ele>75.0</ele><time>2026-04-25T10:18:16.887Z</time></trkpt><trkpt lat="42.1663167" lon="14.65559"><ele>75.0</ele><time>2026-04-25T10:18:18.887Z</time></trkpt><trkpt lat="42.166425" lon="14.655555"><ele>75.0</ele><time>2026-04-25T10:18:20.887Z</time></trkpt><trkpt lat="42.1665" lon="14.65556"><ele>75.0</ele><time>2026-04-25T10:18:21.887Z</time></trkpt><trkpt lat="42.1665683" lon="14.6555433"><ele>75.0</ele><time>2026-04-25T10:18:22.887Z</time></trkpt><trkpt lat="42.166635" lon="14.6555267"><ele>75.0</ele><time>2026-04-25T10:18:23.887Z</time></trkpt><trkpt lat="42.1667333" lon="14.65544"><ele>75.0</ele><time>2026-04-25T10:18:25.887Z</time></trkpt><trkpt lat="42.1668083" lon="14.6553633"><ele>74.5</ele><time>2026-04-25T10:18:27.886Z</time></trkpt><trkpt lat="42.1668817" lon="14.6553383"><ele>74.0</ele><time>2026-04-25T10:18:29.887Z</time></trkpt><trkpt lat="42.1669667" lon="14.6553633"><ele>73.5</ele><time>2026-04-25T10:18:31.886Z</time></trkpt><trkpt lat="42.167065" lon="14.6553667"><ele>73.0</ele><time>2026-04-25T10:18:33.887Z</time></trkpt><trkpt lat="42.1671583" lon="14.655375"><ele>72.5</ele><time>2026-04-25T10:18:35.887Z</time></trkpt><trkpt lat="42.1672483" lon="14.6553767"><ele>72.0</ele><time>2026-04-25T10:18:37.887Z</time></trkpt><trkpt lat="42.16737" lon="14.6553517"><ele>72.0</ele><time>2026-04-25T10:18:39.886Z</time></trkpt><trkpt lat="42.167435" lon="14.6553317"><ele>72.0</ele><time>2026-04-25T10:18:40.886Z</time></trkpt><trkpt lat="42.1675483" lon="14.6552683"><ele>72.0</ele><time>2026-04-25T10:18:42.887Z</time></trkpt><trkpt lat="42.16761" lon="14.65523"><ele>72.0</ele><time>2026-04-25T10:18:43.886Z</time></trkpt><trkpt lat="42.1676717" lon="14.6551933"><ele>72.0</ele><time>2026-04-25T10:18:44.886Z</time></trkpt><trkpt lat="42.1677367" lon="14.655155"><ele>72.0</ele><time>2026-04-25T10:18:45.887Z</time></trkpt><trkpt lat="42.1678033" lon="14.6551183"><ele>70.16666666666667</ele><time>2026-04-25T10:18:46.887Z</time></trkpt><trkpt lat="42.16787" lon="14.6550817"><ele>68.33333333333333</ele><time>2026-04-25T10:18:47.887Z</time></trkpt><trkpt lat="42.16794" lon="14.6550317"><ele>66.5</ele><time>2026-04-25T10:18:48.887Z</time></trkpt><trkpt lat="42.16801" lon="14.6549833"><ele>64.66666666666666</ele><time>2026-04-25T10:18:49.887Z</time></trkpt><trkpt lat="42.1680783" lon="14.6549417"><ele>62.83333333333333</ele><time>2026-04-25T10:18:50.886Z</time></trkpt><trkpt lat="42.1681483" lon="14.6548983"><ele>61.0</ele><time>2026-04-25T10:18:51.886Z</time></trkpt><trkpt lat="42.168215" lon="14.6548517"><ele>60.99999999999999</ele><time>2026-04-25T10:18:52.887Z</time></trkpt><trkpt lat="42.1682867" lon="14.6548067"><ele>61.0</ele><time>2026-04-25T10:18:53.887Z</time></trkpt><trkpt lat="42.168355" lon="14.65477"><ele>60.99999999999999</ele><time>2026-04-25T10:18:54.887Z</time></trkpt><trkpt lat="42.168425" lon="14.6547433"><ele>60.99999999999999</ele><time>2026-04-25T10:18:55.887Z</time></trkpt><trkpt lat="42.1684933" lon="14.6547133"><ele>61.0</ele><time>2026-04-25T10:18:56.887Z</time></trkpt><trkpt lat="42.1685583" lon="14.6546783"><ele>60.99999999999999</ele><time>2026-04-25T10:18:57.887Z</time></trkpt><trkpt lat="42.16862" lon="14.654645"><ele>60.99999999999999</ele><time>2026-04-25T10:18:58.886Z</time></trkpt><trkpt lat="42.168685" lon="14.6546133"><ele>60.99999999999999</ele><time>2026-04-25T10:18:59.886Z</time></trkpt><trkpt lat="42.16875" lon="14.65458"><ele>61.0</ele><time>2026-04-25T10:19:00.887Z</time></trkpt><trkpt lat="42.16881" lon="14.6545433"><ele>60.99999999999999</ele><time>2026-04-25T10:19:01.887Z</time></trkpt><trkpt lat="42.1688717" lon="14.6545067"><ele>60.99999999999999</ele><time>2026-04-25T10:19:02.887Z</time></trkpt><trkpt lat="42.1689333" lon="14.6544617"><ele>61.0</ele><time>2026-04-25T10:19:03.886Z</time></trkpt><trkpt lat="42.169" lon="14.6544283"><ele>60.99999999999999</ele><time>2026-04-25T10:19:04.887Z</time></trkpt><trkpt lat="42.1690633" lon="14.654405"><ele>60.99999999999999</ele><time>2026-04-25T10:19:05.887Z</time></trkpt><trkpt lat="42.169125" lon="14.6543817"><ele>58.49999999999999</ele><time>2026-04-25T10:19:06.886Z</time></trkpt><trkpt lat="42.16924" lon="14.6543333"><ele>56.0</ele><time>2026-04-25T10:19:08.887Z</time></trkpt><trkpt lat="42.1693" lon="14.6543017"><ele>53.5</ele><time>2026-04-25T10:19:09.887Z</time></trkpt><trkpt lat="42.169365" lon="14.6542783"><ele>51.0</ele><time>2026-04-25T10:19:10.887Z</time></trkpt><trkpt lat="42.1694367" lon="14.6542467"><ele>48.5</ele><time>2026-04-25T10:19:11.887Z</time></trkpt><trkpt lat="42.1695033" lon="14.65421"><ele>46.0</ele><time>2026-04-25T10:19:12.887Z</time></trkpt><trkpt lat="42.16958" lon="14.6541783"><ele>46.0</ele><time>2026-04-25T10:19:13.887Z</time></trkpt><trkpt lat="42.1696567" lon="14.654155"><ele>46.0</ele><time>2026-04-25T10:19:14.887Z</time></trkpt><trkpt lat="42.169725" lon="14.6541417"><ele>46.0</ele><time>2026-04-25T10:19:15.887Z</time></trkpt><trkpt lat="42.1697933" lon="14.6541233"><ele>46.0</ele><time>2026-04-25T10:19:16.887Z</time></trkpt><trkpt lat="42.169925" lon="14.6541167"><ele>46.0</ele><time>2026-04-25T10:19:18.887Z</time></trkpt><trkpt lat="42.1699933" lon="14.6541183"><ele>46.0</ele><time>2026-04-25T10:19:19.887Z</time></trkpt><trkpt lat="42.1700667" lon="14.654125"><ele>47.0</ele><time>2026-04-25T10:19:20.887Z</time></trkpt><trkpt lat="42.1701383" lon="14.65413"><ele>48.0</ele><time>2026-04-25T10:19:21.887Z</time></trkpt><trkpt lat="42.1702083" lon="14.6541333"><ele>49.0</ele><time>2026-04-25T10:19:22.887Z</time></trkpt><trkpt lat="42.17028" lon="14.65414"><ele>50.0</ele><time>2026-04-25T10:19:23.887Z</time></trkpt><trkpt lat="42.1703483" lon="14.6541417"><ele>50.99999999999999</ele><time>2026-04-25T10:19:24.886Z</time></trkpt><trkpt lat="42.1704183" lon="14.65414"><ele>52.0</ele><time>2026-04-25T10:19:25.887Z</time></trkpt><trkpt lat="42.170525" lon="14.6540917"><ele>51.99999999999999</ele><time>2026-04-25T10:19:27.887Z</time></trkpt><trkpt lat="42.170565" lon="14.653985"><ele>52.0</ele><time>2026-04-25T10:19:29.887Z</time></trkpt><trkpt lat="42.17056" lon="14.6538517"><ele>52.0</ele><time>2026-04-25T10:19:31.887Z</time></trkpt><trkpt lat="42.1705167" lon="14.6537417"><ele>52.0</ele><time>2026-04-25T10:19:33.887Z</time></trkpt><trkpt lat="42.1704283" lon="14.6537033"><ele>51.99999999999999</ele><time>2026-04-25T10:19:35.886Z</time></trkpt><trkpt lat="42.170355" lon="14.6537233"><ele>52.0</ele><time>2026-04-25T10:19:36.887Z</time></trkpt><trkpt lat="42.1702783" lon="14.6537533"><ele>51.99999999999999</ele><time>2026-04-25T10:19:37.887Z</time></trkpt><trkpt lat="42.170205" lon="14.6537767"><ele>52.0</ele><time>2026-04-25T10:19:38.887Z</time></trkpt><trkpt lat="42.1701267" lon="14.6537967"><ele>52.0</ele><time>2026-04-25T10:19:39.887Z</time></trkpt><trkpt lat="42.1700483" lon="14.6538083"><ele>52.0</ele><time>2026-04-25T10:19:40.886Z</time></trkpt><trkpt lat="42.1699667" lon="14.6538317"><ele>51.99999999999999</ele><time>2026-04-25T10:19:41.887Z</time></trkpt><trkpt lat="42.1698817" lon="14.6538533"><ele>52.0</ele><time>2026-04-25T10:19:42.887Z</time></trkpt><trkpt lat="42.1697933" lon="14.6538667"><ele>51.14285714285714</ele><time>2026-04-25T10:19:43.887Z</time></trkpt><trkpt lat="42.1697133" lon="14.6538783"><ele>50.28571428571429</ele><time>2026-04-25T10:19:44.887Z</time></trkpt><trkpt lat="42.1696383" lon="14.6538833"><ele>49.42857142857143</ele><time>2026-04-25T10:19:45.887Z</time></trkpt><trkpt lat="42.16957" lon="14.653875"><ele>48.57142857142857</ele><time>2026-04-25T10:19:46.886Z</time></trkpt><trkpt lat="42.169505" lon="14.653855"><ele>47.71428571428571</ele><time>2026-04-25T10:19:47.886Z</time></trkpt><trkpt lat="42.1694383" lon="14.65382"><ele>46.85714285714286</ele><time>2026-04-25T10:19:48.887Z</time></trkpt><trkpt lat="42.1693817" lon="14.6537767"><ele>46.0</ele><time>2026-04-25T10:19:49.886Z</time></trkpt><trkpt lat="42.1693333" lon="14.653715"><ele>46.0</ele><time>2026-04-25T10:19:50.887Z</time></trkpt><trkpt lat="42.1692883" lon="14.6536467"><ele>46.0</ele><time>2026-04-25T10:19:51.886Z</time></trkpt><trkpt lat="42.1692567" lon="14.65357"><ele>46.0</ele><time>2026-04-25T10:19:52.887Z</time></trkpt><trkpt lat="42.16923" lon="14.6534817"><ele>46.0</ele><time>2026-04-25T10:19:53.887Z</time></trkpt><trkpt lat="42.1692067" lon="14.6533817"><ele>46.0</ele><time>2026-04-25T10:19:54.886Z</time></trkpt><trkpt lat="42.1691983" lon="14.65328"><ele>46.0</ele><time>2026-04-25T10:19:55.887Z</time></trkpt><trkpt lat="42.1692033" lon="14.6531767"><ele>46.0</ele><time>2026-04-25T10:19:56.887Z</time></trkpt><trkpt lat="42.169215" lon="14.6530683"><ele>44.833333333333336</ele><time>2026-04-25T10:19:57.887Z</time></trkpt><trkpt lat="42.16922" lon="14.652955"><ele>43.66666666666667</ele><time>2026-04-25T10:19:58.886Z</time></trkpt><trkpt lat="42.1692267" lon="14.6528417"><ele>42.5</ele><time>2026-04-25T10:19:59.887Z</time></trkpt><trkpt lat="42.1692133" lon="14.6527317"><ele>41.333333333333336</ele><time>2026-04-25T10:20:00.887Z</time></trkpt><trkpt lat="42.1691767" lon="14.6526417"><ele>40.166666666666664</ele><time>2026-04-25T10:20:01.886Z</time></trkpt><trkpt lat="42.1691267" lon="14.6525633"><ele>39.0</ele><time>2026-04-25T10:20:02.887Z</time></trkpt><trkpt lat="42.1690667" lon="14.65249"><ele>38.2</ele><time>2026-04-25T10:20:03.887Z</time></trkpt><trkpt lat="42.1690033" lon="14.6524467"><ele>37.4</ele><time>2026-04-25T10:20:04.887Z</time></trkpt><trkpt lat="42.16892" lon="14.652415"><ele>36.6</ele><time>2026-04-25T10:20:05.887Z</time></trkpt><trkpt lat="42.1688233" lon="14.6524133"><ele>35.8</ele><time>2026-04-25T10:20:06.887Z</time></trkpt><trkpt lat="42.1687233" lon="14.6524167"><ele>35.0</ele><time>2026-04-25T10:20:07.887Z</time></trkpt><trkpt lat="42.1686267" lon="14.65241"><ele>35.0</ele><time>2026-04-25T10:20:08.887Z</time></trkpt><trkpt lat="42.1685367" lon="14.6523833"><ele>35.0</ele><time>2026-04-25T10:20:09.887Z</time></trkpt><trkpt lat="42.1684567" lon="14.6523433"><ele>35.0</ele><time>2026-04-25T10:20:10.886Z</time></trkpt><trkpt lat="42.1683833" lon="14.65229"><ele>35.0</ele><time>2026-04-25T10:20:11.886Z</time></trkpt><trkpt lat="42.16831" lon="14.6522283"><ele>35.0</ele><time>2026-04-25T10:20:12.887Z</time></trkpt><trkpt lat="42.1682483" lon="14.6521583"><ele>35.0</ele><time>2026-04-25T10:20:13.887Z</time></trkpt><trkpt lat="42.1681867" lon="14.6520783"><ele>35.57142857142857</ele><time>2026-04-25T10:20:14.887Z</time></trkpt><trkpt lat="42.1681217" lon="14.6520017"><ele>36.14285714285714</ele><time>2026-04-25T10:20:15.887Z</time></trkpt><trkpt lat="42.1680717" lon="14.6519217"><ele>36.714285714285715</ele><time>2026-04-25T10:20:16.887Z</time></trkpt><trkpt lat="42.1680217" lon="14.65185"><ele>37.285714285714285</ele><time>2026-04-25T10:20:17.887Z</time></trkpt><trkpt lat="42.1679717" lon="14.6517883"><ele>37.857142857142854</ele><time>2026-04-25T10:20:18.887Z</time></trkpt><trkpt lat="42.1679167" lon="14.6517317"><ele>38.42857142857143</ele><time>2026-04-25T10:20:19.887Z</time></trkpt><trkpt lat="42.16786" lon="14.6516867"><ele>39.0</ele><time>2026-04-25T10:20:20.887Z</time></trkpt><trkpt lat="42.1678" lon="14.6516533"><ele>36.8</ele><time>2026-04-25T10:20:21.887Z</time></trkpt><trkpt lat="42.167735" lon="14.6516417"><ele>34.599999999999994</ele><time>2026-04-25T10:20:22.886Z</time></trkpt><trkpt lat="42.1676133" lon="14.65164"><ele>32.4</ele><time>2026-04-25T10:20:24.887Z</time></trkpt><trkpt lat="42.167495" lon="14.6516283"><ele>30.2</ele><time>2026-04-25T10:20:26.887Z</time></trkpt><trkpt lat="42.16739" lon="14.6515983"><ele>28.0</ele><time>2026-04-25T10:20:28.887Z</time></trkpt><trkpt lat="42.167285" lon="14.651565"><ele>28.0</ele><time>2026-04-25T10:20:30.886Z</time></trkpt><trkpt lat="42.167185" lon="14.6515267"><ele>27.999999999999996</ele><time>2026-04-25T10:20:32.887Z</time></trkpt><trkpt lat="42.167085" lon="14.6514767"><ele>27.999999999999996</ele><time>2026-04-25T10:20:34.887Z</time></trkpt><trkpt lat="42.1669767" lon="14.6514267"><ele>28.0</ele><time>2026-04-25T10:20:36.887Z</time></trkpt><trkpt lat="42.16687" lon="14.651375"><ele>28.0</ele><time>2026-04-25T10:20:38.887Z</time></trkpt><trkpt lat="42.1667683" lon="14.6513183"><ele>28.0</ele><time>2026-04-25T10:20:40.886Z</time></trkpt><trkpt lat="42.1666617" lon="14.651265"><ele>28.0</ele><time>2026-04-25T10:20:42.887Z</time></trkpt><trkpt lat="42.1665667" lon="14.651205"><ele>28.0</ele><time>2026-04-25T10:20:44.887Z</time></trkpt><trkpt lat="42.1664567" lon="14.6511517"><ele>28.0</ele><time>2026-04-25T10:20:46.886Z</time></trkpt><trkpt lat="42.16634" lon="14.6510983"><ele>26.4</ele><time>2026-04-25T10:20:48.887Z</time></trkpt><trkpt lat="42.16623" lon="14.6510433"><ele>24.799999999999997</ele><time>2026-04-25T10:20:50.887Z</time></trkpt><trkpt lat="42.1661333" lon="14.6510067"><ele>23.2</ele><time>2026-04-25T10:20:52.886Z</time></trkpt><trkpt lat="42.166025" lon="14.6510017"><ele>21.6</ele><time>2026-04-25T10:20:54.887Z</time></trkpt><trkpt lat="42.1659067" lon="14.651025"><ele>20.0</ele><time>2026-04-25T10:20:56.886Z</time></trkpt><trkpt lat="42.165795" lon="14.6510533"><ele>19.75</ele><time>2026-04-25T10:20:58.887Z</time></trkpt><trkpt lat="42.1656767" lon="14.6510717"><ele>19.5</ele><time>2026-04-25T10:21:00.886Z</time></trkpt><trkpt lat="42.165555" lon="14.6510717"><ele>19.25</ele><time>2026-04-25T10:21:02.887Z</time></trkpt><trkpt lat="42.1654333" lon="14.6510683"><ele>19.0</ele><time>2026-04-25T10:21:04.887Z</time></trkpt><trkpt lat="42.1653117" lon="14.651075"><ele>19.0</ele><time>2026-04-25T10:21:06.887Z</time></trkpt><trkpt lat="42.1651983" lon="14.65107"><ele>19.0</ele><time>2026-04-25T10:21:08.886Z</time></trkpt><trkpt lat="42.1650917" lon="14.6510683"><ele>19.0</ele><time>2026-04-25T10:21:10.887Z</time></trkpt><trkpt lat="42.1649867" lon="14.65107"><ele>19.0</ele><time>2026-04-25T10:21:12.887Z</time></trkpt><trkpt lat="42.1648967" lon="14.6510517"><ele>19.0</ele><time>2026-04-25T10:21:14.886Z</time></trkpt><trkpt lat="42.16481" lon="14.651025"><ele>20.166666666666664</ele><time>2026-04-25T10:21:16.887Z</time></trkpt><trkpt lat="42.1647317" lon="14.6509867"><ele>21.333333333333332</ele><time>2026-04-25T10:21:18.887Z</time></trkpt><trkpt lat="42.16466" lon="14.65095"><ele>22.5</ele><time>2026-04-25T10:21:20.886Z</time></trkpt><trkpt lat="42.164595" lon="14.6508867"><ele>23.666666666666664</ele><time>2026-04-25T10:21:22.887Z</time></trkpt><trkpt lat="42.1645267" lon="14.6508183"><ele>24.833333333333332</ele><time>2026-04-25T10:21:24.886Z</time></trkpt><trkpt lat="42.1644667" lon="14.6507467"><ele>26.0</ele><time>2026-04-25T10:21:26.887Z</time></trkpt><trkpt lat="42.1644033" lon="14.65067"><ele>25.999999999999996</ele><time>2026-04-25T10:21:28.886Z</time></trkpt><trkpt lat="42.1643433" lon="14.6505883"><ele>26.0</ele><time>2026-04-25T10:21:30.886Z</time></trkpt><trkpt lat="42.1642967" lon="14.6505067"><ele>26.0</ele><time>2026-04-25T10:21:32.887Z</time></trkpt><trkpt lat="42.1642667" lon="14.6504283"><ele>26.0</ele><time>2026-04-25T10:21:34.886Z</time></trkpt><trkpt lat="42.164215" lon="14.650315"><ele>25.999999999999996</ele><time>2026-04-25T10:21:37.887Z</time></trkpt><trkpt lat="42.16419" lon="14.6502267"><ele>26.0</ele><time>2026-04-25T10:21:39.887Z</time></trkpt><trkpt lat="42.1641783" lon="14.65012"><ele>25.333333333333332</ele><time>2026-04-25T10:21:41.886Z</time></trkpt><trkpt lat="42.1641683" lon="14.6500117"><ele>24.666666666666664</ele><time>2026-04-25T10:21:43.887Z</time></trkpt><trkpt lat="42.164165" lon="14.6499083"><ele>24.0</ele><time>2026-04-25T10:21:45.887Z</time></trkpt><trkpt lat="42.1641567" lon="14.6498083"><ele>23.333333333333332</ele><time>2026-04-25T10:21:47.886Z</time></trkpt><trkpt lat="42.1641567" lon="14.6496867"><ele>22.666666666666664</ele><time>2026-04-25T10:21:49.886Z</time></trkpt><trkpt lat="42.1641567" lon="14.6495783"><ele>22.0</ele><time>2026-04-25T10:21:51.886Z</time></trkpt><trkpt lat="42.164145" lon="14.6494483"><ele>22.0</ele><time>2026-04-25T10:21:53.887Z</time></trkpt><trkpt lat="42.1641333" lon="14.6493117"><ele>22.0</ele><time>2026-04-25T10:21:55.887Z</time></trkpt><trkpt lat="42.1641333" lon="14.649175"><ele>22.0</ele><time>2026-04-25T10:21:57.887Z</time></trkpt><trkpt lat="42.1641233" lon="14.6490467"><ele>22.0</ele><time>2026-04-25T10:21:59.886Z</time></trkpt><trkpt lat="42.164105" lon="14.6489267"><ele>22.0</ele><time>2026-04-25T10:22:01.886Z</time></trkpt><trkpt lat="42.164095" lon="14.648795"><ele>22.0</ele><time>2026-04-25T10:22:03.887Z</time></trkpt><trkpt lat="42.1640767" lon="14.6486883"><ele>22.0</ele><time>2026-04-25T10:22:05.887Z</time></trkpt><trkpt lat="42.1640533" lon="14.6485983"><ele>22.0</ele><time>2026-04-25T10:22:07.886Z</time></trkpt><trkpt lat="42.16402" lon="14.6485133"><ele>22.0</ele><time>2026-04-25T10:22:09.887Z</time></trkpt><trkpt lat="42.1639883" lon="14.6484283"><ele>22.0</ele><time>2026-04-25T10:22:11.886Z</time></trkpt><trkpt lat="42.1639667" lon="14.6483283"><ele>22.0</ele><time>2026-04-25T10:22:13.886Z</time></trkpt><trkpt lat="42.1639383" lon="14.648235"><ele>22.0</ele><time>2026-04-25T10:22:15.887Z</time></trkpt><trkpt lat="42.1639167" lon="14.6481317"><ele>22.0</ele><time>2026-04-25T10:22:17.887Z</time></trkpt><trkpt lat="42.16391" lon="14.6480467"><ele>22.0</ele><time>2026-04-25T10:22:19.887Z</time></trkpt><trkpt lat="42.1639167" lon="14.6479617"><ele>22.0</ele><time>2026-04-25T10:22:21.887Z</time></trkpt><trkpt lat="42.1639233" lon="14.64785"><ele>22.0</ele><time>2026-04-25T10:22:23.886Z</time></trkpt><trkpt lat="42.1639367" lon="14.64772"><ele>22.0</ele><time>2026-04-25T10:22:25.887Z</time></trkpt><trkpt lat="42.163945" lon="14.6475817"><ele>22.0</ele><time>2026-04-25T10:22:27.886Z</time></trkpt><trkpt lat="42.1639583" lon="14.647435"><ele>21.666666666666664</ele><time>2026-04-25T10:22:29.887Z</time></trkpt><trkpt lat="42.1639733" lon="14.6472767"><ele>21.333333333333332</ele><time>2026-04-25T10:22:31.886Z</time></trkpt><trkpt lat="42.163985" lon="14.647105"><ele>21.0</ele><time>2026-04-25T10:22:33.887Z</time></trkpt><trkpt lat="42.1639933" lon="14.64702"><ele>20.666666666666668</ele><time>2026-04-25T10:22:34.887Z</time></trkpt><trkpt lat="42.1639983" lon="14.6469283"><ele>20.333333333333336</ele><time>2026-04-25T10:22:35.887Z</time></trkpt><trkpt lat="42.164" lon="14.6468367"><ele>20.0</ele><time>2026-04-25T10:22:36.887Z</time></trkpt><trkpt lat="42.164005" lon="14.6467467"><ele>20.0</ele><time>2026-04-25T10:22:37.886Z</time></trkpt><trkpt lat="42.1640133" lon="14.6466583"><ele>20.0</ele><time>2026-04-25T10:22:38.887Z</time></trkpt><trkpt lat="42.16402" lon="14.6465733"><ele>20.0</ele><time>2026-04-25T10:22:39.887Z</time></trkpt><trkpt lat="42.164025" lon="14.6464833"><ele>20.0</ele><time>2026-04-25T10:22:40.887Z</time></trkpt><trkpt lat="42.1640367" lon="14.6463967"><ele>20.0</ele><time>2026-04-25T10:22:41.887Z</time></trkpt><trkpt lat="42.1640433" lon="14.646305"><ele>20.0</ele><time>2026-04-25T10:22:42.887Z</time></trkpt><trkpt lat="42.1640467" lon="14.646135"><ele>19.833333333333336</ele><time>2026-04-25T10:22:44.887Z</time></trkpt><trkpt lat="42.164045" lon="14.6460417"><ele>19.666666666666668</ele><time>2026-04-25T10:22:45.887Z</time></trkpt><trkpt lat="42.1640433" lon="14.645955"><ele>19.5</ele><time>2026-04-25T10:22:46.887Z</time></trkpt><trkpt lat="42.164045" lon="14.6457783"><ele>19.333333333333332</ele><time>2026-04-25T10:22:48.887Z</time></trkpt><trkpt lat="42.1640433" lon="14.6456883"><ele>19.166666666666664</ele><time>2026-04-25T10:22:49.886Z</time></trkpt><trkpt lat="42.1640383" lon="14.6455983"><ele>19.0</ele><time>2026-04-25T10:22:50.887Z</time></trkpt><trkpt lat="42.1640333" lon="14.6455067"><ele>18.857142857142858</ele><time>2026-04-25T10:22:51.887Z</time></trkpt><trkpt lat="42.16403" lon="14.64542"><ele>18.714285714285715</ele><time>2026-04-25T10:22:52.886Z</time></trkpt><trkpt lat="42.1640267" lon="14.6453283"><ele>18.571428571428573</ele><time>2026-04-25T10:22:53.887Z</time></trkpt><trkpt lat="42.1640283" lon="14.6452417"><ele>18.42857142857143</ele><time>2026-04-25T10:22:54.886Z</time></trkpt><trkpt lat="42.1640283" lon="14.6451533"><ele>18.285714285714285</ele><time>2026-04-25T10:22:55.887Z</time></trkpt><trkpt lat="42.1640267" lon="14.6450683"><ele>18.142857142857146</ele><time>2026-04-25T10:22:56.886Z</time></trkpt><trkpt lat="42.1640233" lon="14.6449033"><ele>18.0</ele><time>2026-04-25T10:22:58.887Z</time></trkpt><trkpt lat="42.16402" lon="14.644735"><ele>17.8</ele><time>2026-04-25T10:23:00.887Z</time></trkpt><trkpt lat="42.1640033" lon="14.644575"><ele>17.6</ele><time>2026-04-25T10:23:02.887Z</time></trkpt><trkpt lat="42.1639967" lon="14.64441"><ele>17.4</ele><time>2026-04-25T10:23:04.887Z</time></trkpt><trkpt lat="42.1639967" lon="14.6443233"><ele>17.2</ele><time>2026-04-25T10:23:05.886Z</time></trkpt><trkpt lat="42.1639967" lon="14.6441683"><ele>17.0</ele><time>2026-04-25T10:23:07.887Z</time></trkpt><trkpt lat="42.1639967" lon="14.64408"><ele>17.0</ele><time>2026-04-25T10:23:08.887Z</time></trkpt><trkpt lat="42.16399" lon="14.643995"><ele>17.0</ele><time>2026-04-25T10:23:09.887Z</time></trkpt><trkpt lat="42.1639817" lon="14.6438283"><ele>17.0</ele><time>2026-04-25T10:23:11.886Z</time></trkpt><trkpt lat="42.1639683" lon="14.6436633"><ele>17.0</ele><time>2026-04-25T10:23:13.886Z</time></trkpt><trkpt lat="42.1639617" lon="14.643505"><ele>17.0</ele><time>2026-04-25T10:23:15.887Z</time></trkpt><trkpt lat="42.163955" lon="14.6433533"><ele>17.75</ele><time>2026-04-25T10:23:17.887Z</time></trkpt><trkpt lat="42.1639517" lon="14.64319"><ele>18.5</ele><time>2026-04-25T10:23:19.886Z</time></trkpt><trkpt lat="42.1639583" lon="14.6430317"><ele>19.25</ele><time>2026-04-25T10:23:21.886Z</time></trkpt><trkpt lat="42.163965" lon="14.642875"><ele>20.0</ele><time>2026-04-25T10:23:23.887Z</time></trkpt><trkpt lat="42.16396" lon="14.6427067"><ele>20.0</ele><time>2026-04-25T10:23:25.886Z</time></trkpt><trkpt lat="42.1639583" lon="14.6425517"><ele>20.0</ele><time>2026-04-25T10:23:27.887Z</time></trkpt><trkpt lat="42.163955" lon="14.6424067"><ele>20.0</ele><time>2026-04-25T10:23:29.886Z</time></trkpt><trkpt lat="42.1639517" lon="14.6422483"><ele>20.0</ele><time>2026-04-25T10:23:31.887Z</time></trkpt><trkpt lat="42.1639533" lon="14.64209"><ele>20.0</ele><time>2026-04-25T10:23:33.887Z</time></trkpt><trkpt lat="42.163955" lon="14.6420033"><ele>20.0</ele><time>2026-04-25T10:23:34.887Z</time></trkpt><trkpt lat="42.1639617" lon="14.6418533"><ele>20.0</ele><time>2026-04-25T10:23:36.887Z</time></trkpt><trkpt lat="42.1639817" lon="14.6417017"><ele>20.0</ele><time>2026-04-25T10:23:38.887Z</time></trkpt><trkpt lat="42.1640133" lon="14.64155"><ele>20.0</ele><time>2026-04-25T10:23:40.887Z</time></trkpt><trkpt lat="42.1640533" lon="14.6414067"><ele>20.0</ele><time>2026-04-25T10:23:42.887Z</time></trkpt><trkpt lat="42.1641117" lon="14.6412817"><ele>20.0</ele><time>2026-04-25T10:23:44.887Z</time></trkpt><trkpt lat="42.1641833" lon="14.6411717"><ele>20.0</ele><time>2026-04-25T10:23:46.887Z</time></trkpt><trkpt lat="42.1642567" lon="14.641065"><ele>20.0</ele><time>2026-04-25T10:23:48.887Z</time></trkpt><trkpt lat="42.1642933" lon="14.6409283"><ele>20.0</ele><time>2026-04-25T10:23:50.887Z</time></trkpt><trkpt lat="42.16427" lon="14.64078"><ele>20.0</ele><time>2026-04-25T10:23:52.887Z</time></trkpt><trkpt lat="42.1642" lon="14.640655"><ele>20.0</ele><time>2026-04-25T10:23:54.887Z</time></trkpt><trkpt lat="42.1641167" lon="14.6405767"><ele>20.0</ele><time>2026-04-25T10:23:56.887Z</time></trkpt><trkpt lat="42.1639967" lon="14.6405717"><ele>20.0</ele><time>2026-04-25T10:23:58.886Z</time></trkpt><trkpt lat="42.1639317" lon="14.64058"><ele>20.0</ele><time>2026-04-25T10:23:59.887Z</time></trkpt><trkpt lat="42.163815" lon="14.640565"><ele>20.0</ele><time>2026-04-25T10:24:01.887Z</time></trkpt><trkpt lat="42.1637183" lon="14.6404883"><ele>20.0</ele><time>2026-04-25T10:24:03.887Z</time></trkpt><trkpt lat="42.16365" lon="14.6403633"><ele>20.0</ele><time>2026-04-25T10:24:05.887Z</time></trkpt><trkpt lat="42.16361" lon="14.64022"><ele>20.0</ele><time>2026-04-25T10:24:07.887Z</time></trkpt><trkpt lat="42.1635367" lon="14.640105"><ele>20.0</ele><time>2026-04-25T10:24:09.887Z</time></trkpt><trkpt lat="42.1634383" lon="14.6400267"><ele>20.0</ele><time>2026-04-25T10:24:11.886Z</time></trkpt><trkpt lat="42.1633567" lon="14.6399117"><ele>20.0</ele><time>2026-04-25T10:24:13.887Z</time></trkpt><trkpt lat="42.1632817" lon="14.639785"><ele>20.0</ele><time>2026-04-25T10:24:15.887Z</time></trkpt><trkpt lat="42.1632117" lon="14.6396617"><ele>20.2</ele><time>2026-04-25T10:24:17.887Z</time></trkpt><trkpt lat="42.1631133" lon="14.6395733"><ele>20.4</ele><time>2026-04-25T10:24:19.887Z</time></trkpt><trkpt lat="42.1630067" lon="14.6395267"><ele>20.6</ele><time>2026-04-25T10:24:21.886Z</time></trkpt><trkpt lat="42.162895" lon="14.6395"><ele>20.8</ele><time>2026-04-25T10:24:23.887Z</time></trkpt><trkpt lat="42.1627983" lon="14.63946"><ele>21.0</ele><time>2026-04-25T10:24:25.887Z</time></trkpt><trkpt lat="42.1627083" lon="14.63939"><ele>21.25</ele><time>2026-04-25T10:24:27.887Z</time></trkpt><trkpt lat="42.1626317" lon="14.639285"><ele>21.5</ele><time>2026-04-25T10:24:29.886Z</time></trkpt><trkpt lat="42.162555" lon="14.6391667"><ele>21.75</ele><time>2026-04-25T10:24:31.886Z</time></trkpt><trkpt lat="42.1624833" lon="14.6390433"><ele>22.0</ele><time>2026-04-25T10:24:33.887Z</time></trkpt><trkpt lat="42.16244" lon="14.638905"><ele>22.0</ele><time>2026-04-25T10:24:35.886Z</time></trkpt><trkpt lat="42.1624233" lon="14.63875"><ele>22.0</ele><time>2026-04-25T10:24:37.887Z</time></trkpt><trkpt lat="42.1624483" lon="14.63861"><ele>22.0</ele><time>2026-04-25T10:24:39.887Z</time></trkpt><trkpt lat="42.16251" lon="14.63849"><ele>22.0</ele><time>2026-04-25T10:24:41.886Z</time></trkpt><trkpt lat="42.16259" lon="14.6384"><ele>22.0</ele><time>2026-04-25T10:24:43.887Z</time></trkpt><trkpt lat="42.16268" lon="14.6383117"><ele>22.8</ele><time>2026-04-25T10:24:45.887Z</time></trkpt><trkpt lat="42.1627817" lon="14.6382333"><ele>23.6</ele><time>2026-04-25T10:24:47.886Z</time></trkpt><trkpt lat="42.162875" lon="14.63818"><ele>24.400000000000002</ele><time>2026-04-25T10:24:49.887Z</time></trkpt><trkpt lat="42.1629717" lon="14.6381133"><ele>25.200000000000003</ele><time>2026-04-25T10:24:51.887Z</time></trkpt><trkpt lat="42.1630717" lon="14.63805"><ele>26.0</ele><time>2026-04-25T10:24:53.887Z</time></trkpt><trkpt lat="42.1631667" lon="14.6379883"><ele>26.6</ele><time>2026-04-25T10:24:55.887Z</time></trkpt><trkpt lat="42.1632567" lon="14.6379267"><ele>27.200000000000003</ele><time>2026-04-25T10:24:57.887Z</time></trkpt><trkpt lat="42.1633317" lon="14.637855"><ele>27.799999999999997</ele><time>2026-04-25T10:24:59.886Z</time></trkpt><trkpt lat="42.163395" lon="14.63776"><ele>28.4</ele><time>2026-04-25T10:25:01.887Z</time></trkpt><trkpt lat="42.1634667" lon="14.63764"><ele>29.0</ele><time>2026-04-25T10:25:03.887Z</time></trkpt><trkpt lat="42.16354" lon="14.63751"><ele>29.0</ele><time>2026-04-25T10:25:05.887Z</time></trkpt><trkpt lat="42.1635733" lon="14.6374367"><ele>29.0</ele><time>2026-04-25T10:25:06.887Z</time></trkpt><trkpt lat="42.1636317" lon="14.6373083"><ele>29.0</ele><time>2026-04-25T10:25:08.887Z</time></trkpt><trkpt lat="42.1636783" lon="14.6371633"><ele>29.0</ele><time>2026-04-25T10:25:10.887Z</time></trkpt><trkpt lat="42.1636867" lon="14.63701"><ele>29.0</ele><time>2026-04-25T10:25:12.886Z</time></trkpt><trkpt lat="42.1636733" lon="14.6369267"><ele>30.25</ele><time>2026-04-25T10:25:13.886Z</time></trkpt><trkpt lat="42.1636267" lon="14.6367867"><ele>31.5</ele><time>2026-04-25T10:25:15.886Z</time></trkpt><trkpt lat="42.163565" lon="14.6366467"><ele>32.75</ele><time>2026-04-25T10:25:17.887Z</time></trkpt><trkpt lat="42.1635067" lon="14.63652"><ele>34.0</ele><time>2026-04-25T10:25:19.887Z</time></trkpt><trkpt lat="42.1634433" lon="14.6363917"><ele>34.0</ele><time>2026-04-25T10:25:21.887Z</time></trkpt><trkpt lat="42.163375" lon="14.6362683"><ele>34.0</ele><time>2026-04-25T10:25:23.887Z</time></trkpt><trkpt lat="42.1633067" lon="14.6361367"><ele>34.0</ele><time>2026-04-25T10:25:25.887Z</time></trkpt><trkpt lat="42.1632417" lon="14.6360183"><ele>34.0</ele><time>2026-04-25T10:25:27.887Z</time></trkpt><trkpt lat="42.1631783" lon="14.6358933"><ele>34.6</ele><time>2026-04-25T10:25:29.886Z</time></trkpt><trkpt lat="42.163115" lon="14.6357733"><ele>35.2</ele><time>2026-04-25T10:25:31.887Z</time></trkpt><trkpt lat="42.16304" lon="14.6356583"><ele>35.800000000000004</ele><time>2026-04-25T10:25:33.887Z</time></trkpt><trkpt lat="42.162965" lon="14.635545"><ele>36.4</ele><time>2026-04-25T10:25:35.886Z</time></trkpt><trkpt lat="42.1628733" lon="14.635455"><ele>37.0</ele><time>2026-04-25T10:25:37.887Z</time></trkpt><trkpt lat="42.16277" lon="14.6353833"><ele>37.0</ele><time>2026-04-25T10:25:39.886Z</time></trkpt><trkpt lat="42.1626717" lon="14.6353333"><ele>37.0</ele><time>2026-04-25T10:25:41.886Z</time></trkpt><trkpt lat="42.16257" lon="14.63528"><ele>37.0</ele><time>2026-04-25T10:25:43.887Z</time></trkpt><trkpt lat="42.162465" lon="14.6352317"><ele>37.0</ele><time>2026-04-25T10:25:45.887Z</time></trkpt><trkpt lat="42.162365" lon="14.63519"><ele>37.0</ele><time>2026-04-25T10:25:47.886Z</time></trkpt><trkpt lat="42.16227" lon="14.6351317"><ele>39.0</ele><time>2026-04-25T10:25:49.887Z</time></trkpt><trkpt lat="42.1621833" lon="14.6350683"><ele>41.0</ele><time>2026-04-25T10:25:51.886Z</time></trkpt><trkpt lat="42.1621" lon="14.63499"><ele>43.0</ele><time>2026-04-25T10:25:53.887Z</time></trkpt><trkpt lat="42.16201" lon="14.63492"><ele>45.0</ele><time>2026-04-25T10:25:55.887Z</time></trkpt><trkpt lat="42.1619233" lon="14.6348283"><ele>47.0</ele><time>2026-04-25T10:25:57.887Z</time></trkpt><trkpt lat="42.1618483" lon="14.6347683"><ele>47.0</ele><time>2026-04-25T10:25:59.887Z</time></trkpt><trkpt lat="42.161725" lon="14.6347183"><ele>47.0</ele><time>2026-04-25T10:26:01.886Z</time></trkpt><trkpt lat="42.16166" lon="14.6346117"><ele>47.0</ele><time>2026-04-25T10:26:03.886Z</time></trkpt><trkpt lat="42.161605" lon="14.63446"><ele>47.0</ele><time>2026-04-25T10:26:05.886Z</time></trkpt><trkpt lat="42.1615833" lon="14.634315"><ele>47.6</ele><time>2026-04-25T10:26:07.887Z</time></trkpt><trkpt lat="42.16159" lon="14.6341633"><ele>48.2</ele><time>2026-04-25T10:26:09.887Z</time></trkpt><trkpt lat="42.161625" lon="14.6340417"><ele>48.8</ele><time>2026-04-25T10:26:11.887Z</time></trkpt><trkpt lat="42.1616767" lon="14.63394"><ele>49.4</ele><time>2026-04-25T10:26:13.887Z</time></trkpt><trkpt lat="42.1617417" lon="14.6338367"><ele>50.0</ele><time>2026-04-25T10:26:15.886Z</time></trkpt><trkpt lat="42.1618083" lon="14.633725"><ele>51.4</ele><time>2026-04-25T10:26:17.887Z</time></trkpt><trkpt lat="42.161875" lon="14.6336167"><ele>52.8</ele><time>2026-04-25T10:26:19.886Z</time></trkpt><trkpt lat="42.1619483" lon="14.6335017"><ele>54.2</ele><time>2026-04-25T10:26:21.887Z</time></trkpt><trkpt lat="42.1620233" lon="14.6333967"><ele>55.6</ele><time>2026-04-25T10:26:23.887Z</time></trkpt><trkpt lat="42.1620917" lon="14.6332867"><ele>57.0</ele><time>2026-04-25T10:26:25.887Z</time></trkpt><trkpt lat="42.16216" lon="14.6331733"><ele>57.0</ele><time>2026-04-25T10:26:27.886Z</time></trkpt><trkpt lat="42.1622233" lon="14.6330617"><ele>57.0</ele><time>2026-04-25T10:26:29.887Z</time></trkpt><trkpt lat="42.162295" lon="14.6329533"><ele>57.0</ele><time>2026-04-25T10:26:31.887Z</time></trkpt><trkpt lat="42.16237" lon="14.6328433"><ele>57.0</ele><time>2026-04-25T10:26:33.886Z</time></trkpt><trkpt lat="42.1624417" lon="14.6327383"><ele>57.0</ele><time>2026-04-25T10:26:35.886Z</time></trkpt><trkpt lat="42.162515" lon="14.6326383"><ele>56.8</ele><time>2026-04-25T10:26:37.887Z</time></trkpt><trkpt lat="42.162585" lon="14.6325367"><ele>56.6</ele><time>2026-04-25T10:26:39.886Z</time></trkpt><trkpt lat="42.16267" lon="14.63244"><ele>56.39999999999999</ele><time>2026-04-25T10:26:41.887Z</time></trkpt><trkpt lat="42.16275" lon="14.6323533"><ele>56.199999999999996</ele><time>2026-04-25T10:26:43.886Z</time></trkpt><trkpt lat="42.1628233" lon="14.632275"><ele>56.0</ele><time>2026-04-25T10:26:45.887Z</time></trkpt><trkpt lat="42.1628933" lon="14.6321783"><ele>56.0</ele><time>2026-04-25T10:26:47.887Z</time></trkpt><trkpt lat="42.1629333" lon="14.63206"><ele>55.99999999999999</ele><time>2026-04-25T10:26:49.887Z</time></trkpt><trkpt lat="42.1629333" lon="14.63194"><ele>55.99999999999999</ele><time>2026-04-25T10:26:51.886Z</time></trkpt><trkpt lat="42.1628883" lon="14.63182"><ele>56.0</ele><time>2026-04-25T10:26:53.887Z</time></trkpt><trkpt lat="42.162815" lon="14.6317533"><ele>56.0</ele><time>2026-04-25T10:26:55.887Z</time></trkpt><trkpt lat="42.1627267" lon="14.6317117"><ele>57.599999999999994</ele><time>2026-04-25T10:26:57.887Z</time></trkpt><trkpt lat="42.1626433" lon="14.6317083"><ele>59.199999999999996</ele><time>2026-04-25T10:26:59.887Z</time></trkpt><trkpt lat="42.1625467" lon="14.6317483"><ele>60.800000000000004</ele><time>2026-04-25T10:27:01.886Z</time></trkpt><trkpt lat="42.1624517" lon="14.6318117"><ele>62.400000000000006</ele><time>2026-04-25T10:27:03.887Z</time></trkpt><trkpt lat="42.1623567" lon="14.63188"><ele>64.0</ele><time>2026-04-25T10:27:05.887Z</time></trkpt><trkpt lat="42.1622717" lon="14.63194"><ele>64.4</ele><time>2026-04-25T10:27:07.887Z</time></trkpt><trkpt lat="42.1621783" lon="14.6320117"><ele>64.80000000000001</ele><time>2026-04-25T10:27:09.886Z</time></trkpt><trkpt lat="42.1620833" lon="14.6320883"><ele>65.19999999999999</ele><time>2026-04-25T10:27:11.886Z</time></trkpt><trkpt lat="42.1619883" lon="14.6321667"><ele>65.6</ele><time>2026-04-25T10:27:13.887Z</time></trkpt><trkpt lat="42.1619033" lon="14.632235"><ele>66.0</ele><time>2026-04-25T10:27:15.887Z</time></trkpt><trkpt lat="42.1618167" lon="14.6323033"><ele>66.0</ele><time>2026-04-25T10:27:17.886Z</time></trkpt><trkpt lat="42.1617267" lon="14.6323717"><ele>66.0</ele><time>2026-04-25T10:27:19.887Z</time></trkpt><trkpt lat="42.16165" lon="14.6324417"><ele>66.0</ele><time>2026-04-25T10:27:21.887Z</time></trkpt><trkpt lat="42.1615767" lon="14.6325017"><ele>66.0</ele><time>2026-04-25T10:27:23.887Z</time></trkpt><trkpt lat="42.161495" lon="14.6325517"><ele>66.0</ele><time>2026-04-25T10:27:25.887Z</time></trkpt><trkpt lat="42.1614083" lon="14.6326133"><ele>65.2</ele><time>2026-04-25T10:27:27.887Z</time></trkpt><trkpt lat="42.161325" lon="14.6326683"><ele>64.39999999999999</ele><time>2026-04-25T10:27:29.887Z</time></trkpt><trkpt lat="42.1612317" lon="14.632725"><ele>63.6</ele><time>2026-04-25T10:27:31.887Z</time></trkpt><trkpt lat="42.16114" lon="14.632785"><ele>62.8</ele><time>2026-04-25T10:27:33.886Z</time></trkpt><trkpt lat="42.16104" lon="14.6328517"><ele>62.0</ele><time>2026-04-25T10:27:35.887Z</time></trkpt><trkpt lat="42.1609367" lon="14.6329067"><ele>62.0</ele><time>2026-04-25T10:27:37.887Z</time></trkpt><trkpt lat="42.1608267" lon="14.6329483"><ele>62.0</ele><time>2026-04-25T10:27:39.886Z</time></trkpt><trkpt lat="42.1607233" lon="14.63295"><ele>62.0</ele><time>2026-04-25T10:27:41.886Z</time></trkpt><trkpt lat="42.1606417" lon="14.6328867"><ele>62.0</ele><time>2026-04-25T10:27:43.886Z</time></trkpt><trkpt lat="42.1605867" lon="14.6327817"><ele>62.0</ele><time>2026-04-25T10:27:45.887Z</time></trkpt><trkpt lat="42.160545" lon="14.6326467"><ele>62.0</ele><time>2026-04-25T10:27:47.887Z</time></trkpt><trkpt lat="42.1604933" lon="14.6325"><ele>62.0</ele><time>2026-04-25T10:27:49.887Z</time></trkpt><trkpt lat="42.1604533" lon="14.6323717"><ele>62.0</ele><time>2026-04-25T10:27:51.886Z</time></trkpt><trkpt lat="42.1604383" lon="14.6322417"><ele>62.0</ele><time>2026-04-25T10:27:53.886Z</time></trkpt><trkpt lat="42.16043" lon="14.6321067"><ele>62.0</ele><time>2026-04-25T10:27:55.887Z</time></trkpt><trkpt lat="42.160415" lon="14.6319733"><ele>63.6</ele><time>2026-04-25T10:27:57.886Z</time></trkpt><trkpt lat="42.160395" lon="14.6318467"><ele>65.2</ele><time>2026-04-25T10:27:59.887Z</time></trkpt><trkpt lat="42.1603717" lon="14.6317117"><ele>66.8</ele><time>2026-04-25T10:28:01.887Z</time></trkpt><trkpt lat="42.160335" lon="14.6315717"><ele>68.4</ele><time>2026-04-25T10:28:03.887Z</time></trkpt><trkpt lat="42.1602883" lon="14.6314333"><ele>70.0</ele><time>2026-04-25T10:28:05.887Z</time></trkpt><trkpt lat="42.160245" lon="14.631295"><ele>70.0</ele><time>2026-04-25T10:28:07.887Z</time></trkpt><trkpt lat="42.160205" lon="14.6311583"><ele>70.0</ele><time>2026-04-25T10:28:09.887Z</time></trkpt><trkpt lat="42.1601883" lon="14.6310033"><ele>70.0</ele><time>2026-04-25T10:28:11.886Z</time></trkpt><trkpt lat="42.1601867" lon="14.630915"><ele>70.0</ele><time>2026-04-25T10:28:12.887Z</time></trkpt><trkpt lat="42.16019" lon="14.6307517"><ele>70.0</ele><time>2026-04-25T10:28:14.887Z</time></trkpt><trkpt lat="42.1601983" lon="14.6306017"><ele>71.2</ele><time>2026-04-25T10:28:16.887Z</time></trkpt><trkpt lat="42.1602067" lon="14.6304467"><ele>72.4</ele><time>2026-04-25T10:28:18.887Z</time></trkpt><trkpt lat="42.16021" lon="14.6303617"><ele>73.6</ele><time>2026-04-25T10:28:19.887Z</time></trkpt><trkpt lat="42.1602233" lon="14.6301983"><ele>74.8</ele><time>2026-04-25T10:28:21.887Z</time></trkpt><trkpt lat="42.16023" lon="14.6300383"><ele>76.0</ele><time>2026-04-25T10:28:23.887Z</time></trkpt><trkpt lat="42.16024" lon="14.6298833"><ele>77.0</ele><time>2026-04-25T10:28:25.887Z</time></trkpt><trkpt lat="42.1602533" lon="14.6297333"><ele>78.0</ele><time>2026-04-25T10:28:27.887Z</time></trkpt><trkpt lat="42.1602733" lon="14.6295967"><ele>79.0</ele><time>2026-04-25T10:28:29.887Z</time></trkpt><trkpt lat="42.16029" lon="14.6294533"><ele>80.0</ele><time>2026-04-25T10:28:31.887Z</time></trkpt><trkpt lat="42.16031" lon="14.6293033"><ele>81.0</ele><time>2026-04-25T10:28:33.887Z</time></trkpt><trkpt lat="42.1603267" lon="14.62915"><ele>81.5</ele><time>2026-04-25T10:28:35.886Z</time></trkpt><trkpt lat="42.1603467" lon="14.6289933"><ele>82.0</ele><time>2026-04-25T10:28:37.886Z</time></trkpt><trkpt lat="42.16037" lon="14.628835"><ele>82.5</ele><time>2026-04-25T10:28:39.887Z</time></trkpt><trkpt lat="42.16039" lon="14.628685"><ele>83.0</ele><time>2026-04-25T10:28:41.886Z</time></trkpt><trkpt lat="42.16041" lon="14.6285283"><ele>83.25</ele><time>2026-04-25T10:28:43.886Z</time></trkpt><trkpt lat="42.1604317" lon="14.62837"><ele>83.5</ele><time>2026-04-25T10:28:45.887Z</time></trkpt><trkpt lat="42.1604533" lon="14.6282183"><ele>83.75</ele><time>2026-04-25T10:28:47.887Z</time></trkpt><trkpt lat="42.1604717" lon="14.6280633"><ele>84.0</ele><time>2026-04-25T10:28:49.886Z</time></trkpt><trkpt lat="42.1604933" lon="14.6279017"><ele>84.75</ele><time>2026-04-25T10:28:51.886Z</time></trkpt><trkpt lat="42.16052" lon="14.627755"><ele>85.5</ele><time>2026-04-25T10:28:53.887Z</time></trkpt><trkpt lat="42.16054" lon="14.6276017"><ele>86.25</ele><time>2026-04-25T10:28:55.887Z</time></trkpt><trkpt lat="42.1605583" lon="14.6274483"><ele>87.0</ele><time>2026-04-25T10:28:57.886Z</time></trkpt><trkpt lat="42.1605833" lon="14.6272967"><ele>87.0</ele><time>2026-04-25T10:28:59.887Z</time></trkpt><trkpt lat="42.1606083" lon="14.6271533"><ele>87.0</ele><time>2026-04-25T10:29:01.887Z</time></trkpt><trkpt lat="42.16063" lon="14.6270033"><ele>87.0</ele><time>2026-04-25T10:29:03.887Z</time></trkpt><trkpt lat="42.1606567" lon="14.6268533"><ele>87.0</ele><time>2026-04-25T10:29:05.886Z</time></trkpt><trkpt lat="42.1606733" lon="14.6267017"><ele>87.19999999999999</ele><time>2026-04-25T10:29:07.886Z</time></trkpt><trkpt lat="42.1606933" lon="14.6265467"><ele>87.4</ele><time>2026-04-25T10:29:09.886Z</time></trkpt><trkpt lat="42.1607133" lon="14.6264017"><ele>87.6</ele><time>2026-04-25T10:29:11.887Z</time></trkpt><trkpt lat="42.1607567" lon="14.6262867"><ele>87.80000000000001</ele><time>2026-04-25T10:29:13.887Z</time></trkpt><trkpt lat="42.1608217" lon="14.6261683"><ele>88.0</ele><time>2026-04-25T10:29:15.886Z</time></trkpt><trkpt lat="42.1608983" lon="14.6260583"><ele>89.4</ele><time>2026-04-25T10:29:17.886Z</time></trkpt><trkpt lat="42.160985" lon="14.625965"><ele>90.80000000000001</ele><time>2026-04-25T10:29:19.887Z</time></trkpt><trkpt lat="42.16108" lon="14.6258617"><ele>92.2</ele><time>2026-04-25T10:29:21.887Z</time></trkpt><trkpt lat="42.16117" lon="14.625775"><ele>93.6</ele><time>2026-04-25T10:29:23.887Z</time></trkpt><trkpt lat="42.1612567" lon="14.6256933"><ele>95.0</ele><time>2026-04-25T10:29:25.887Z</time></trkpt><trkpt lat="42.161345" lon="14.6256117"><ele>95.0</ele><time>2026-04-25T10:29:27.887Z</time></trkpt><trkpt lat="42.1614283" lon="14.625525"><ele>95.0</ele><time>2026-04-25T10:29:29.887Z</time></trkpt><trkpt lat="42.1615183" lon="14.625435"><ele>95.0</ele><time>2026-04-25T10:29:31.887Z</time></trkpt><trkpt lat="42.1616033" lon="14.6253417"><ele>95.0</ele><time>2026-04-25T10:29:33.887Z</time></trkpt><trkpt lat="42.1616883" lon="14.625235"><ele>95.0</ele><time>2026-04-25T10:29:35.887Z</time></trkpt><trkpt lat="42.1617333" lon="14.625175"><ele>96.2</ele><time>2026-04-25T10:29:36.886Z</time></trkpt><trkpt lat="42.1617967" lon="14.62506"><ele>97.4</ele><time>2026-04-25T10:29:38.887Z</time></trkpt><trkpt lat="42.16185" lon="14.62493"><ele>98.6</ele><time>2026-04-25T10:29:40.886Z</time></trkpt><trkpt lat="42.161895" lon="14.6247917"><ele>99.8</ele><time>2026-04-25T10:29:42.887Z</time></trkpt><trkpt lat="42.1619383" lon="14.6246517"><ele>101.0</ele><time>2026-04-25T10:29:44.886Z</time></trkpt><trkpt lat="42.1619767" lon="14.6245133"><ele>102.0</ele><time>2026-04-25T10:29:46.886Z</time></trkpt><trkpt lat="42.1620117" lon="14.624375"><ele>103.0</ele><time>2026-04-25T10:29:48.887Z</time></trkpt><trkpt lat="42.16204" lon="14.6242333"><ele>104.0</ele><time>2026-04-25T10:29:50.887Z</time></trkpt><trkpt lat="42.1620783" lon="14.62409"><ele>105.0</ele><time>2026-04-25T10:29:52.886Z</time></trkpt><trkpt lat="42.1621117" lon="14.6239533"><ele>106.0</ele><time>2026-04-25T10:29:54.886Z</time></trkpt><trkpt lat="42.162135" lon="14.62381"><ele>106.0</ele><time>2026-04-25T10:29:56.887Z</time></trkpt><trkpt lat="42.162145" lon="14.623675"><ele>106.0</ele><time>2026-04-25T10:29:58.887Z</time></trkpt><trkpt lat="42.16214" lon="14.62353"><ele>106.0</ele><time>2026-04-25T10:30:00.886Z</time></trkpt><trkpt lat="42.1621117" lon="14.6234"><ele>106.0</ele><time>2026-04-25T10:30:02.887Z</time></trkpt><trkpt lat="42.16206" lon="14.6232717"><ele>106.0</ele><time>2026-04-25T10:30:04.887Z</time></trkpt><trkpt lat="42.1620167" lon="14.623125"><ele>107.0</ele><time>2026-04-25T10:30:06.887Z</time></trkpt><trkpt lat="42.1619583" lon="14.6229867"><ele>108.0</ele><time>2026-04-25T10:30:08.887Z</time></trkpt><trkpt lat="42.161895" lon="14.6228633"><ele>109.0</ele><time>2026-04-25T10:30:10.887Z</time></trkpt><trkpt lat="42.1618283" lon="14.6227383"><ele>110.0</ele><time>2026-04-25T10:30:12.887Z</time></trkpt><trkpt lat="42.1617667" lon="14.6226083"><ele>110.5</ele><time>2026-04-25T10:30:14.887Z</time></trkpt><trkpt lat="42.1617017" lon="14.6224833"><ele>111.0</ele><time>2026-04-25T10:30:16.887Z</time></trkpt><trkpt lat="42.1616433" lon="14.6223533"><ele>111.5</ele><time>2026-04-25T10:30:18.887Z</time></trkpt><trkpt lat="42.1615767" lon="14.62223"><ele>112.0</ele><time>2026-04-25T10:30:20.886Z</time></trkpt><trkpt lat="42.161515" lon="14.6221"><ele>112.5</ele><time>2026-04-25T10:30:22.887Z</time></trkpt><trkpt lat="42.1614517" lon="14.621965"><ele>113.0</ele><time>2026-04-25T10:30:24.887Z</time></trkpt><trkpt lat="42.1613867" lon="14.6218367"><ele>113.5</ele><time>2026-04-25T10:30:26.887Z</time></trkpt><trkpt lat="42.1613233" lon="14.6217167"><ele>114.0</ele><time>2026-04-25T10:30:28.886Z</time></trkpt><trkpt lat="42.16127" lon="14.6215733"><ele>114.0</ele><time>2026-04-25T10:30:30.887Z</time></trkpt><trkpt lat="42.1612067" lon="14.6214417"><ele>114.0</ele><time>2026-04-25T10:30:32.887Z</time></trkpt><trkpt lat="42.1611383" lon="14.62132"><ele>114.0</ele><time>2026-04-25T10:30:34.886Z</time></trkpt><trkpt lat="42.16107" lon="14.6212"><ele>114.0</ele><time>2026-04-25T10:30:36.887Z</time></trkpt><trkpt lat="42.161005" lon="14.62108"><ele>115.0</ele><time>2026-04-25T10:30:38.887Z</time></trkpt><trkpt lat="42.1609483" lon="14.6209533"><ele>116.0</ele><time>2026-04-25T10:30:40.887Z</time></trkpt><trkpt lat="42.16088" lon="14.620825"><ele>117.0</ele><time>2026-04-25T10:30:42.887Z</time></trkpt><trkpt lat="42.1608183" lon="14.6206867"><ele>118.0</ele><time>2026-04-25T10:30:44.887Z</time></trkpt><trkpt lat="42.1607533" lon="14.62056"><ele>117.75</ele><time>2026-04-25T10:30:46.887Z</time></trkpt><trkpt lat="42.16069" lon="14.6204367"><ele>117.5</ele><time>2026-04-25T10:30:48.887Z</time></trkpt><trkpt lat="42.1606233" lon="14.620305"><ele>117.25</ele><time>2026-04-25T10:30:50.887Z</time></trkpt><trkpt lat="42.1605617" lon="14.62017"><ele>117.0</ele><time>2026-04-25T10:30:52.886Z</time></trkpt><trkpt lat="42.160495" lon="14.62005"><ele>117.75</ele><time>2026-04-25T10:30:54.886Z</time></trkpt><trkpt lat="42.16043" lon="14.619925"><ele>118.5</ele><time>2026-04-25T10:30:56.887Z</time></trkpt><trkpt lat="42.1603617" lon="14.619805"><ele>119.25</ele><time>2026-04-25T10:30:58.887Z</time></trkpt><trkpt lat="42.160305" lon="14.6196767"><ele>120.0</ele><time>2026-04-25T10:31:00.887Z</time></trkpt><trkpt lat="42.1602467" lon="14.6195433"><ele>120.5</ele><time>2026-04-25T10:31:02.887Z</time></trkpt><trkpt lat="42.1601817" lon="14.619405"><ele>121.0</ele><time>2026-04-25T10:31:04.887Z</time></trkpt><trkpt lat="42.1601233" lon="14.6192767"><ele>121.5</ele><time>2026-04-25T10:31:06.887Z</time></trkpt><trkpt lat="42.16006" lon="14.6191467"><ele>122.0</ele><time>2026-04-25T10:31:08.887Z</time></trkpt><trkpt lat="42.159985" lon="14.6190217"><ele>122.0</ele><time>2026-04-25T10:31:10.887Z</time></trkpt><trkpt lat="42.1599133" lon="14.6188967"><ele>121.99999999999999</ele><time>2026-04-25T10:31:12.887Z</time></trkpt><trkpt lat="42.1598533" lon="14.6187683"><ele>121.99999999999999</ele><time>2026-04-25T10:31:14.886Z</time></trkpt><trkpt lat="42.1597917" lon="14.6186467"><ele>122.0</ele><time>2026-04-25T10:31:16.886Z</time></trkpt><trkpt lat="42.1597333" lon="14.6185217"><ele>122.0</ele><time>2026-04-25T10:31:18.886Z</time></trkpt><trkpt lat="42.1596733" lon="14.6183933"><ele>122.6</ele><time>2026-04-25T10:31:20.887Z</time></trkpt><trkpt lat="42.159635" lon="14.6183217"><ele>123.19999999999999</ele><time>2026-04-25T10:31:21.886Z</time></trkpt><trkpt lat="42.15957" lon="14.61819"><ele>123.8</ele><time>2026-04-25T10:31:23.887Z</time></trkpt><trkpt lat="42.1595117" lon="14.61806"><ele>124.4</ele><time>2026-04-25T10:31:25.886Z</time></trkpt><trkpt lat="42.1594483" lon="14.617935"><ele>125.0</ele><time>2026-04-25T10:31:27.887Z</time></trkpt><trkpt lat="42.1593867" lon="14.6178"><ele>125.5</ele><time>2026-04-25T10:31:29.887Z</time></trkpt><trkpt lat="42.1593233" lon="14.6176767"><ele>126.0</ele><time>2026-04-25T10:31:31.886Z</time></trkpt><trkpt lat="42.1592617" lon="14.6175567"><ele>126.5</ele><time>2026-04-25T10:31:33.887Z</time></trkpt><trkpt lat="42.1592" lon="14.6174333"><ele>127.0</ele><time>2026-04-25T10:31:35.886Z</time></trkpt><trkpt lat="42.1591367" lon="14.617295"><ele>127.0</ele><time>2026-04-25T10:31:37.887Z</time></trkpt><trkpt lat="42.1590733" lon="14.6171583"><ele>127.0</ele><time>2026-04-25T10:31:39.886Z</time></trkpt><trkpt lat="42.15901" lon="14.61703"><ele>127.0</ele><time>2026-04-25T10:31:41.887Z</time></trkpt><trkpt lat="42.1589367" lon="14.6169133"><ele>127.0</ele><time>2026-04-25T10:31:43.887Z</time></trkpt><trkpt lat="42.1588783" lon="14.61678"><ele>127.8</ele><time>2026-04-25T10:31:45.886Z</time></trkpt><trkpt lat="42.1588483" lon="14.616705"><ele>128.6</ele><time>2026-04-25T10:31:46.886Z</time></trkpt><trkpt lat="42.1587817" lon="14.6165833"><ele>129.39999999999998</ele><time>2026-04-25T10:31:48.886Z</time></trkpt><trkpt lat="42.1587233" lon="14.6164567"><ele>130.2</ele><time>2026-04-25T10:31:50.886Z</time></trkpt><trkpt lat="42.15866" lon="14.6163283"><ele>131.0</ele><time>2026-04-25T10:31:52.886Z</time></trkpt><trkpt lat="42.158585" lon="14.616205"><ele>131.2</ele><time>2026-04-25T10:31:54.887Z</time></trkpt><trkpt lat="42.15852" lon="14.6160867"><ele>131.39999999999998</ele><time>2026-04-25T10:31:56.887Z</time></trkpt><trkpt lat="42.1584617" lon="14.6159533"><ele>131.6</ele><time>2026-04-25T10:31:58.887Z</time></trkpt><trkpt lat="42.1584017" lon="14.615825"><ele>131.79999999999998</ele><time>2026-04-25T10:32:00.887Z</time></trkpt><trkpt lat="42.1583433" lon="14.6157033"><ele>132.0</ele><time>2026-04-25T10:32:02.887Z</time></trkpt><trkpt lat="42.158275" lon="14.6155867"><ele>132.0</ele><time>2026-04-25T10:32:04.887Z</time></trkpt><trkpt lat="42.1582133" lon="14.6154833"><ele>132.0</ele><time>2026-04-25T10:32:06.887Z</time></trkpt><trkpt lat="42.15817" lon="14.61537"><ele>132.0</ele><time>2026-04-25T10:32:08.887Z</time></trkpt><trkpt lat="42.1581817" lon="14.615285"><ele>132.0</ele><time>2026-04-25T10:32:09.887Z</time></trkpt><trkpt lat="42.158205" lon="14.6151283"><ele>132.0</ele><time>2026-04-25T10:32:11.887Z</time></trkpt><trkpt lat="42.158185" lon="14.6149767"><ele>132.4</ele><time>2026-04-25T10:32:13.885Z</time></trkpt><trkpt lat="42.1581167" lon="14.6148967"><ele>132.79999999999998</ele><time>2026-04-25T10:32:15.885Z</time></trkpt><trkpt lat="42.1580217" lon="14.614865"><ele>133.2</ele><time>2026-04-25T10:32:17.885Z</time></trkpt><trkpt lat="42.1579267" lon="14.61479"><ele>133.6</ele><time>2026-04-25T10:32:19.886Z</time></trkpt><trkpt lat="42.157855" lon="14.6146683"><ele>134.0</ele><time>2026-04-25T10:32:21.886Z</time></trkpt><trkpt lat="42.1577833" lon="14.614535"><ele>134.0</ele><time>2026-04-25T10:32:23.886Z</time></trkpt><trkpt lat="42.1577417" lon="14.6144683"><ele>134.0</ele><time>2026-04-25T10:32:24.886Z</time></trkpt><trkpt lat="42.1576667" lon="14.6143367"><ele>134.0</ele><time>2026-04-25T10:32:26.886Z</time></trkpt><trkpt lat="42.1575983" lon="14.6142033"><ele>134.0</ele><time>2026-04-25T10:32:28.885Z</time></trkpt><trkpt lat="42.15756" lon="14.6141333"><ele>134.0</ele><time>2026-04-25T10:32:29.886Z</time></trkpt><trkpt lat="42.1574917" lon="14.6139983"><ele>134.0</ele><time>2026-04-25T10:32:31.886Z</time></trkpt><trkpt lat="42.15743" lon="14.6138733"><ele>134.0</ele><time>2026-04-25T10:32:33.886Z</time></trkpt><trkpt lat="42.1573617" lon="14.6137383"><ele>134.0</ele><time>2026-04-25T10:32:35.886Z</time></trkpt><trkpt lat="42.157295" lon="14.6135983"><ele>134.0</ele><time>2026-04-25T10:32:37.886Z</time></trkpt><trkpt lat="42.1572367" lon="14.6134633"><ele>134.0</ele><time>2026-04-25T10:32:39.886Z</time></trkpt><trkpt lat="42.1571833" lon="14.6133283"><ele>134.0</ele><time>2026-04-25T10:32:41.886Z</time></trkpt><trkpt lat="42.1571333" lon="14.6132067"><ele>134.0</ele><time>2026-04-25T10:32:43.886Z</time></trkpt><trkpt lat="42.1570833" lon="14.6130733"><ele>134.0</ele><time>2026-04-25T10:32:45.885Z</time></trkpt><trkpt lat="42.1570317" lon="14.6129433"><ele>134.0</ele><time>2026-04-25T10:32:47.886Z</time></trkpt><trkpt lat="42.1569833" lon="14.6128083"><ele>134.6</ele><time>2026-04-25T10:32:49.886Z</time></trkpt><trkpt lat="42.1569467" lon="14.61266"><ele>135.2</ele><time>2026-04-25T10:32:51.886Z</time></trkpt><trkpt lat="42.1569167" lon="14.61251"><ele>135.79999999999998</ele><time>2026-04-25T10:32:53.886Z</time></trkpt><trkpt lat="42.1568917" lon="14.6123617"><ele>136.4</ele><time>2026-04-25T10:32:55.886Z</time></trkpt><trkpt lat="42.1568733" lon="14.6122783"><ele>137.0</ele><time>2026-04-25T10:32:56.886Z</time></trkpt><trkpt lat="42.1568583" lon="14.612195"><ele>137.0</ele><time>2026-04-25T10:32:57.886Z</time></trkpt><trkpt lat="42.15683" lon="14.6120383"><ele>137.0</ele><time>2026-04-25T10:32:59.885Z</time></trkpt><trkpt lat="42.1567983" lon="14.61196"><ele>137.0</ele><time>2026-04-25T10:33:00.885Z</time></trkpt><trkpt lat="42.156755" lon="14.6118067"><ele>137.0</ele><time>2026-04-25T10:33:02.885Z</time></trkpt><trkpt lat="42.156715" lon="14.6116467"><ele>137.0</ele><time>2026-04-25T10:33:04.886Z</time></trkpt><trkpt lat="42.15667" lon="14.6114933"><ele>136.5</ele><time>2026-04-25T10:33:06.886Z</time></trkpt><trkpt lat="42.1566317" lon="14.6113417"><ele>136.0</ele><time>2026-04-25T10:33:08.886Z</time></trkpt><trkpt lat="42.1565983" lon="14.6111867"><ele>135.5</ele><time>2026-04-25T10:33:10.886Z</time></trkpt><trkpt lat="42.1565683" lon="14.6110367"><ele>135.0</ele><time>2026-04-25T10:33:12.885Z</time></trkpt><trkpt lat="42.1565183" lon="14.6108817"><ele>135.0</ele><time>2026-04-25T10:33:14.886Z</time></trkpt><trkpt lat="42.1564833" lon="14.61074"><ele>135.0</ele><time>2026-04-25T10:33:16.886Z</time></trkpt><trkpt lat="42.156455" lon="14.6105967"><ele>135.0</ele><time>2026-04-25T10:33:18.886Z</time></trkpt><trkpt lat="42.1564283" lon="14.6104433"><ele>135.0</ele><time>2026-04-25T10:33:20.886Z</time></trkpt><trkpt lat="42.1563933" lon="14.6102833"><ele>135.0</ele><time>2026-04-25T10:33:22.885Z</time></trkpt><trkpt lat="42.1563683" lon="14.610135"><ele>135.0</ele><time>2026-04-25T10:33:24.886Z</time></trkpt><trkpt lat="42.1563433" lon="14.6099833"><ele>135.0</ele><time>2026-04-25T10:33:26.886Z</time></trkpt><trkpt lat="42.1562967" lon="14.6098467"><ele>135.0</ele><time>2026-04-25T10:33:28.885Z</time></trkpt><trkpt lat="42.1562583" lon="14.609705"><ele>135.0</ele><time>2026-04-25T10:33:30.886Z</time></trkpt><trkpt lat="42.1562233" lon="14.609555"><ele>135.0</ele><time>2026-04-25T10:33:32.885Z</time></trkpt><trkpt lat="42.1561883" lon="14.6094067"><ele>135.0</ele><time>2026-04-25T10:33:34.886Z</time></trkpt><trkpt lat="42.1561533" lon="14.6092483"><ele>135.0</ele><time>2026-04-25T10:33:36.886Z</time></trkpt><trkpt lat="42.1561283" lon="14.60909"><ele>135.4</ele><time>2026-04-25T10:33:38.885Z</time></trkpt><trkpt lat="42.1561133" lon="14.6090017"><ele>135.8</ele><time>2026-04-25T10:33:39.886Z</time></trkpt><trkpt lat="42.156095" lon="14.6088533"><ele>136.2</ele><time>2026-04-25T10:33:41.886Z</time></trkpt><trkpt lat="42.1560583" lon="14.6087017"><ele>136.6</ele><time>2026-04-25T10:33:43.885Z</time></trkpt><trkpt lat="42.1560367" lon="14.6086133"><ele>137.0</ele><time>2026-04-25T10:33:44.886Z</time></trkpt><trkpt lat="42.1560017" lon="14.6084667"><ele>137.0</ele><time>2026-04-25T10:33:46.886Z</time></trkpt><trkpt lat="42.1559667" lon="14.608305"><ele>137.0</ele><time>2026-04-25T10:33:48.886Z</time></trkpt><trkpt lat="42.155935" lon="14.60815"><ele>137.0</ele><time>2026-04-25T10:33:50.886Z</time></trkpt><trkpt lat="42.155895" lon="14.6080017"><ele>137.0</ele><time>2026-04-25T10:33:52.886Z</time></trkpt><trkpt lat="42.1558633" lon="14.60786"><ele>136.79999999999998</ele><time>2026-04-25T10:33:54.886Z</time></trkpt><trkpt lat="42.15585" lon="14.6077767"><ele>136.6</ele><time>2026-04-25T10:33:55.886Z</time></trkpt><trkpt lat="42.1558167" lon="14.6076183"><ele>136.39999999999998</ele><time>2026-04-25T10:33:57.885Z</time></trkpt><trkpt lat="42.15578" lon="14.6074683"><ele>136.2</ele><time>2026-04-25T10:33:59.886Z</time></trkpt><trkpt lat="42.1557417" lon="14.6073217"><ele>136.0</ele><time>2026-04-25T10:34:01.885Z</time></trkpt><trkpt lat="42.1557167" lon="14.6071733"><ele>136.4</ele><time>2026-04-25T10:34:03.886Z</time></trkpt><trkpt lat="42.1556783" lon="14.607015"><ele>136.8</ele><time>2026-04-25T10:34:05.886Z</time></trkpt><trkpt lat="42.1556533" lon="14.606935"><ele>137.20000000000002</ele><time>2026-04-25T10:34:06.886Z</time></trkpt><trkpt lat="42.1556333" lon="14.60685"><ele>137.6</ele><time>2026-04-25T10:34:07.886Z</time></trkpt><trkpt lat="42.1556017" lon="14.6066933"><ele>138.0</ele><time>2026-04-25T10:34:09.885Z</time></trkpt><trkpt lat="42.1555717" lon="14.60655"><ele>138.25</ele><time>2026-04-25T10:34:11.885Z</time></trkpt><trkpt lat="42.1555383" lon="14.6064033"><ele>138.5</ele><time>2026-04-25T10:34:13.885Z</time></trkpt><trkpt lat="42.1555033" lon="14.6062483"><ele>138.75</ele><time>2026-04-25T10:34:15.885Z</time></trkpt><trkpt lat="42.15547" lon="14.6061033"><ele>139.0</ele><time>2026-04-25T10:34:17.886Z</time></trkpt><trkpt lat="42.1554383" lon="14.6059533"><ele>139.2</ele><time>2026-04-25T10:34:19.886Z</time></trkpt><trkpt lat="42.15541" lon="14.6058067"><ele>139.4</ele><time>2026-04-25T10:34:21.886Z</time></trkpt><trkpt lat="42.1553717" lon="14.605655"><ele>139.6</ele><time>2026-04-25T10:34:23.886Z</time></trkpt><trkpt lat="42.155335" lon="14.60551"><ele>139.8</ele><time>2026-04-25T10:34:25.886Z</time></trkpt><trkpt lat="42.1553183" lon="14.6054233"><ele>140.0</ele><time>2026-04-25T10:34:26.886Z</time></trkpt><trkpt lat="42.1552767" lon="14.6052683"><ele>140.25</ele><time>2026-04-25T10:34:28.886Z</time></trkpt><trkpt lat="42.15525" lon="14.6051067"><ele>140.5</ele><time>2026-04-25T10:34:30.886Z</time></trkpt><trkpt lat="42.1552133" lon="14.60496"><ele>140.75</ele><time>2026-04-25T10:34:32.885Z</time></trkpt><trkpt lat="42.1551817" lon="14.60481"><ele>141.0</ele><time>2026-04-25T10:34:34.886Z</time></trkpt><trkpt lat="42.15515" lon="14.6046567"><ele>141.0</ele><time>2026-04-25T10:34:36.886Z</time></trkpt><trkpt lat="42.155115" lon="14.6045217"><ele>141.0</ele><time>2026-04-25T10:34:38.886Z</time></trkpt><trkpt lat="42.155085" lon="14.60437"><ele>141.0</ele><time>2026-04-25T10:34:40.885Z</time></trkpt><trkpt lat="42.15506" lon="14.6042233"><ele>141.0</ele><time>2026-04-25T10:34:42.885Z</time></trkpt><trkpt lat="42.1550283" lon="14.604075"><ele>141.0</ele><time>2026-04-25T10:34:44.886Z</time></trkpt><trkpt lat="42.154995" lon="14.6039317"><ele>141.25</ele><time>2026-04-25T10:34:46.885Z</time></trkpt><trkpt lat="42.1549617" lon="14.60378"><ele>141.5</ele><time>2026-04-25T10:34:48.886Z</time></trkpt><trkpt lat="42.154925" lon="14.6036417"><ele>141.75</ele><time>2026-04-25T10:34:50.886Z</time></trkpt><trkpt lat="42.1548917" lon="14.603495"><ele>142.0</ele><time>2026-04-25T10:34:52.886Z</time></trkpt><trkpt lat="42.15486" lon="14.6033517"><ele>143.0</ele><time>2026-04-25T10:34:54.886Z</time></trkpt><trkpt lat="42.1548233" lon="14.6032033"><ele>144.0</ele><time>2026-04-25T10:34:56.886Z</time></trkpt><trkpt lat="42.154795" lon="14.6030683"><ele>145.0</ele><time>2026-04-25T10:34:58.886Z</time></trkpt><trkpt lat="42.15477" lon="14.6029117"><ele>146.0</ele><time>2026-04-25T10:35:00.886Z</time></trkpt><trkpt lat="42.1547417" lon="14.6027483"><ele>146.0</ele><time>2026-04-25T10:35:02.885Z</time></trkpt><trkpt lat="42.1547033" lon="14.6026033"><ele>146.0</ele><time>2026-04-25T10:35:04.885Z</time></trkpt><trkpt lat="42.1546733" lon="14.6024583"><ele>146.0</ele><time>2026-04-25T10:35:06.885Z</time></trkpt><trkpt lat="42.1546367" lon="14.60231"><ele>146.0</ele><time>2026-04-25T10:35:08.886Z</time></trkpt><trkpt lat="42.1546017" lon="14.6021633"><ele>146.25</ele><time>2026-04-25T10:35:10.885Z</time></trkpt><trkpt lat="42.1545633" lon="14.6019983"><ele>146.5</ele><time>2026-04-25T10:35:12.886Z</time></trkpt><trkpt lat="42.1545283" lon="14.601855"><ele>146.75</ele><time>2026-04-25T10:35:14.886Z</time></trkpt><trkpt lat="42.154495" lon="14.6017067"><ele>147.0</ele><time>2026-04-25T10:35:16.885Z</time></trkpt><trkpt lat="42.1544633" lon="14.6015567"><ele>147.0</ele><time>2026-04-25T10:35:18.886Z</time></trkpt><trkpt lat="42.1544217" lon="14.6014017"><ele>147.0</ele><time>2026-04-25T10:35:20.886Z</time></trkpt><trkpt lat="42.154385" lon="14.6012517"><ele>147.0</ele><time>2026-04-25T10:35:22.885Z</time></trkpt><trkpt lat="42.15436" lon="14.6010983"><ele>147.0</ele><time>2026-04-25T10:35:24.886Z</time></trkpt><trkpt lat="42.154325" lon="14.6009583"><ele>147.2</ele><time>2026-04-25T10:35:26.885Z</time></trkpt><trkpt lat="42.1542917" lon="14.60081"><ele>147.39999999999998</ele><time>2026-04-25T10:35:28.886Z</time></trkpt><trkpt lat="42.1542617" lon="14.6006467"><ele>147.60000000000002</ele><time>2026-04-25T10:35:30.886Z</time></trkpt><trkpt lat="42.1542467" lon="14.6005633"><ele>147.8</ele><time>2026-04-25T10:35:31.885Z</time></trkpt><trkpt lat="42.1542083" lon="14.6004217"><ele>148.0</ele><time>2026-04-25T10:35:33.886Z</time></trkpt><trkpt lat="42.15418" lon="14.6002833"><ele>148.0</ele><time>2026-04-25T10:35:35.886Z</time></trkpt><trkpt lat="42.1541483" lon="14.60014"><ele>148.0</ele><time>2026-04-25T10:35:37.886Z</time></trkpt><trkpt lat="42.1541183" lon="14.59999"><ele>148.0</ele><time>2026-04-25T10:35:39.886Z</time></trkpt><trkpt lat="42.154085" lon="14.59984"><ele>148.0</ele><time>2026-04-25T10:35:41.886Z</time></trkpt><trkpt lat="42.154055" lon="14.59969"><ele>148.5</ele><time>2026-04-25T10:35:43.886Z</time></trkpt><trkpt lat="42.1540183" lon="14.5995383"><ele>149.0</ele><time>2026-04-25T10:35:45.886Z</time></trkpt><trkpt lat="42.153985" lon="14.5993917"><ele>149.5</ele><time>2026-04-25T10:35:47.886Z</time></trkpt><trkpt lat="42.1539483" lon="14.5992417"><ele>150.0</ele><time>2026-04-25T10:35:49.886Z</time></trkpt><trkpt lat="42.1539133" lon="14.5991"><ele>150.5</ele><time>2026-04-25T10:35:51.885Z</time></trkpt><trkpt lat="42.153885" lon="14.5989533"><ele>151.0</ele><time>2026-04-25T10:35:53.885Z</time></trkpt><trkpt lat="42.1538433" lon="14.5987983"><ele>151.5</ele><time>2026-04-25T10:35:55.886Z</time></trkpt><trkpt lat="42.153815" lon="14.5986433"><ele>152.0</ele><time>2026-04-25T10:35:57.886Z</time></trkpt><trkpt lat="42.15378" lon="14.5984917"><ele>152.4</ele><time>2026-04-25T10:35:59.886Z</time></trkpt><trkpt lat="42.153755" lon="14.5983467"><ele>152.79999999999998</ele><time>2026-04-25T10:36:01.886Z</time></trkpt><trkpt lat="42.1537167" lon="14.5981917"><ele>153.2</ele><time>2026-04-25T10:36:03.886Z</time></trkpt><trkpt lat="42.1536833" lon="14.5980417"><ele>153.6</ele><time>2026-04-25T10:36:05.886Z</time></trkpt><trkpt lat="42.1536683" lon="14.5979583"><ele>154.0</ele><time>2026-04-25T10:36:06.886Z</time></trkpt><trkpt lat="42.1536383" lon="14.597805"><ele>154.0</ele><time>2026-04-25T10:36:08.886Z</time></trkpt><trkpt lat="42.1536017" lon="14.59765"><ele>154.0</ele><time>2026-04-25T10:36:10.886Z</time></trkpt><trkpt lat="42.153565" lon="14.5975017"><ele>154.0</ele><time>2026-04-25T10:36:12.886Z</time></trkpt><trkpt lat="42.1535367" lon="14.5973583"><ele>154.0</ele><time>2026-04-25T10:36:14.886Z</time></trkpt><trkpt lat="42.1534983" lon="14.5972117"><ele>154.0</ele><time>2026-04-25T10:36:16.886Z</time></trkpt><trkpt lat="42.15346" lon="14.59706"><ele>154.0</ele><time>2026-04-25T10:36:18.885Z</time></trkpt><trkpt lat="42.1534383" lon="14.59698"><ele>154.0</ele><time>2026-04-25T10:36:19.886Z</time></trkpt><trkpt lat="42.1534067" lon="14.596845"><ele>154.0</ele><time>2026-04-25T10:36:21.886Z</time></trkpt><trkpt lat="42.1533817" lon="14.596715"><ele>154.0</ele><time>2026-04-25T10:36:23.885Z</time></trkpt><trkpt lat="42.153375" lon="14.5966067"><ele>154.0</ele><time>2026-04-25T10:36:25.885Z</time></trkpt><trkpt lat="42.1533533" lon="14.5964817"><ele>154.0</ele><time>2026-04-25T10:36:27.885Z</time></trkpt><trkpt lat="42.15332" lon="14.5963367"><ele>154.0</ele><time>2026-04-25T10:36:29.885Z</time></trkpt><trkpt lat="42.1533" lon="14.596255"><ele>154.0</ele><time>2026-04-25T10:36:30.886Z</time></trkpt><trkpt lat="42.1532783" lon="14.596175"><ele>154.0</ele><time>2026-04-25T10:36:31.885Z</time></trkpt><trkpt lat="42.1532383" lon="14.5960183"><ele>154.25</ele><time>2026-04-25T10:36:33.886Z</time></trkpt><trkpt lat="42.1531983" lon="14.595865"><ele>154.5</ele><time>2026-04-25T10:36:35.885Z</time></trkpt><trkpt lat="42.153165" lon="14.5957067"><ele>154.75</ele><time>2026-04-25T10:36:37.886Z</time></trkpt><trkpt lat="42.1531317" lon="14.59556"><ele>155.0</ele><time>2026-04-25T10:36:39.886Z</time></trkpt><trkpt lat="42.1530917" lon="14.595415"><ele>155.5</ele><time>2026-04-25T10:36:41.886Z</time></trkpt><trkpt lat="42.1530667" lon="14.5952667"><ele>156.0</ele><time>2026-04-25T10:36:43.886Z</time></trkpt><trkpt lat="42.1530367" lon="14.595115"><ele>156.5</ele><time>2026-04-25T10:36:45.886Z</time></trkpt><trkpt lat="42.1530033" lon="14.5949717"><ele>157.0</ele><time>2026-04-25T10:36:47.886Z</time></trkpt><trkpt lat="42.15297" lon="14.594825"><ele>157.0</ele><time>2026-04-25T10:36:49.885Z</time></trkpt><trkpt lat="42.15294" lon="14.5946933"><ele>157.0</ele><time>2026-04-25T10:36:51.885Z</time></trkpt><trkpt lat="42.15291" lon="14.5945617"><ele>157.0</ele><time>2026-04-25T10:36:53.886Z</time></trkpt><trkpt lat="42.1528833" lon="14.5944183"><ele>157.0</ele><time>2026-04-25T10:36:55.886Z</time></trkpt><trkpt lat="42.1528533" lon="14.5942733"><ele>157.0</ele><time>2026-04-25T10:36:57.885Z</time></trkpt><trkpt lat="42.1528183" lon="14.59412"><ele>157.25</ele><time>2026-04-25T10:36:59.886Z</time></trkpt><trkpt lat="42.1527867" lon="14.5939733"><ele>157.5</ele><time>2026-04-25T10:37:01.886Z</time></trkpt><trkpt lat="42.1527567" lon="14.59383"><ele>157.75</ele><time>2026-04-25T10:37:03.886Z</time></trkpt><trkpt lat="42.152725" lon="14.5936867"><ele>158.0</ele><time>2026-04-25T10:37:05.886Z</time></trkpt><trkpt lat="42.15269" lon="14.5935233"><ele>159.0</ele><time>2026-04-25T10:37:07.886Z</time></trkpt><trkpt lat="42.152665" lon="14.5933767"><ele>160.0</ele><time>2026-04-25T10:37:09.885Z</time></trkpt><trkpt lat="42.1526283" lon="14.59323"><ele>161.0</ele><time>2026-04-25T10:37:11.886Z</time></trkpt><trkpt lat="42.152585" lon="14.59308"><ele>162.0</ele><time>2026-04-25T10:37:13.886Z</time></trkpt><trkpt lat="42.1525533" lon="14.59293"><ele>162.6</ele><time>2026-04-25T10:37:15.885Z</time></trkpt><trkpt lat="42.1525167" lon="14.59278"><ele>163.2</ele><time>2026-04-25T10:37:17.886Z</time></trkpt><trkpt lat="42.1524883" lon="14.59264"><ele>163.8</ele><time>2026-04-25T10:37:19.886Z</time></trkpt><trkpt lat="42.1524617" lon="14.5925"><ele>164.4</ele><time>2026-04-25T10:37:21.885Z</time></trkpt><trkpt lat="42.1524267" lon="14.5923683"><ele>165.0</ele><time>2026-04-25T10:37:23.886Z</time></trkpt><trkpt lat="42.1523917" lon="14.592225"><ele>164.8</ele><time>2026-04-25T10:37:25.885Z</time></trkpt><trkpt lat="42.1523633" lon="14.5920817"><ele>164.6</ele><time>2026-04-25T10:37:27.886Z</time></trkpt><trkpt lat="42.1523267" lon="14.5919483"><ele>164.39999999999998</ele><time>2026-04-25T10:37:29.886Z</time></trkpt><trkpt lat="42.152295" lon="14.591805"><ele>164.2</ele><time>2026-04-25T10:37:31.885Z</time></trkpt><trkpt lat="42.1522733" lon="14.5916633"><ele>164.0</ele><time>2026-04-25T10:37:33.885Z</time></trkpt><trkpt lat="42.1522683" lon="14.5915133"><ele>164.0</ele><time>2026-04-25T10:37:35.886Z</time></trkpt><trkpt lat="42.1522667" lon="14.59135"><ele>164.0</ele><time>2026-04-25T10:37:37.886Z</time></trkpt><trkpt lat="42.152225" lon="14.5911967"><ele>164.0</ele><time>2026-04-25T10:37:39.886Z</time></trkpt><trkpt lat="42.1521567" lon="14.5910717"><ele>164.0</ele><time>2026-04-25T10:37:41.886Z</time></trkpt><trkpt lat="42.1521" lon="14.590935"><ele>164.75</ele><time>2026-04-25T10:37:43.886Z</time></trkpt><trkpt lat="42.15205" lon="14.59079"><ele>165.5</ele><time>2026-04-25T10:37:45.885Z</time></trkpt><trkpt lat="42.15201" lon="14.59065"><ele>166.25</ele><time>2026-04-25T10:37:47.885Z</time></trkpt><trkpt lat="42.1519667" lon="14.5905083"><ele>167.0</ele><time>2026-04-25T10:37:49.885Z</time></trkpt><trkpt lat="42.1519267" lon="14.5903517"><ele>167.6</ele><time>2026-04-25T10:37:51.886Z</time></trkpt><trkpt lat="42.1518833" lon="14.5902283"><ele>168.2</ele><time>2026-04-25T10:37:53.886Z</time></trkpt><trkpt lat="42.151835" lon="14.59008"><ele>168.8</ele><time>2026-04-25T10:37:55.886Z</time></trkpt><trkpt lat="42.1517883" lon="14.5899417"><ele>169.4</ele><time>2026-04-25T10:37:57.886Z</time></trkpt><trkpt lat="42.15175" lon="14.5898083"><ele>170.0</ele><time>2026-04-25T10:37:59.886Z</time></trkpt><trkpt lat="42.1517117" lon="14.5896533"><ele>170.0</ele><time>2026-04-25T10:38:01.886Z</time></trkpt><trkpt lat="42.1516717" lon="14.58952"><ele>170.0</ele><time>2026-04-25T10:38:03.885Z</time></trkpt><trkpt lat="42.1516383" lon="14.5893783"><ele>170.0</ele><time>2026-04-25T10:38:05.886Z</time></trkpt><trkpt lat="42.1516017" lon="14.5892417"><ele>170.0</ele><time>2026-04-25T10:38:07.886Z</time></trkpt><trkpt lat="42.151555" lon="14.589105"><ele>170.0</ele><time>2026-04-25T10:38:09.885Z</time></trkpt><trkpt lat="42.1515133" lon="14.5889617"><ele>170.6</ele><time>2026-04-25T10:38:11.886Z</time></trkpt><trkpt lat="42.1514717" lon="14.5888233"><ele>171.2</ele><time>2026-04-25T10:38:13.886Z</time></trkpt><trkpt lat="42.1514317" lon="14.5886883"><ele>171.8</ele><time>2026-04-25T10:38:15.885Z</time></trkpt><trkpt lat="42.151395" lon="14.5885617"><ele>172.4</ele><time>2026-04-25T10:38:17.886Z</time></trkpt><trkpt lat="42.1513733" lon="14.5884783"><ele>173.0</ele><time>2026-04-25T10:38:18.886Z</time></trkpt><trkpt lat="42.151325" lon="14.5883367"><ele>173.8</ele><time>2026-04-25T10:38:20.885Z</time></trkpt><trkpt lat="42.1512883" lon="14.5881917"><ele>174.60000000000002</ele><time>2026-04-25T10:38:22.886Z</time></trkpt><trkpt lat="42.1512433" lon="14.5880433"><ele>175.39999999999998</ele><time>2026-04-25T10:38:24.886Z</time></trkpt><trkpt lat="42.1512067" lon="14.587905"><ele>176.2</ele><time>2026-04-25T10:38:26.885Z</time></trkpt><trkpt lat="42.151165" lon="14.5877967"><ele>177.0</ele><time>2026-04-25T10:38:28.886Z</time></trkpt><trkpt lat="42.1511217" lon="14.587675"><ele>177.8</ele><time>2026-04-25T10:38:30.886Z</time></trkpt><trkpt lat="42.1510817" lon="14.5875383"><ele>178.6</ele><time>2026-04-25T10:38:32.885Z</time></trkpt><trkpt lat="42.1510467" lon="14.5874117"><ele>179.4</ele><time>2026-04-25T10:38:34.886Z</time></trkpt><trkpt lat="42.15101" lon="14.58728"><ele>180.20000000000002</ele><time>2026-04-25T10:38:36.886Z</time></trkpt><trkpt lat="42.1509767" lon="14.587155"><ele>181.0</ele><time>2026-04-25T10:38:38.886Z</time></trkpt><trkpt lat="42.15094" lon="14.587025"><ele>181.60000000000002</ele><time>2026-04-25T10:38:40.885Z</time></trkpt><trkpt lat="42.1508983" lon="14.5868883"><ele>182.2</ele><time>2026-04-25T10:38:42.885Z</time></trkpt><trkpt lat="42.1508583" lon="14.5867367"><ele>182.8</ele><time>2026-04-25T10:38:44.886Z</time></trkpt><trkpt lat="42.1508067" lon="14.5866017"><ele>183.39999999999998</ele><time>2026-04-25T10:38:46.886Z</time></trkpt><trkpt lat="42.150755" lon="14.5864817"><ele>184.0</ele><time>2026-04-25T10:38:48.886Z</time></trkpt><trkpt lat="42.1506833" lon="14.5863883"><ele>184.6</ele><time>2026-04-25T10:38:50.886Z</time></trkpt><trkpt lat="42.1506" lon="14.5863083"><ele>185.2</ele><time>2026-04-25T10:38:52.886Z</time></trkpt><trkpt lat="42.15051" lon="14.5862517"><ele>185.79999999999998</ele><time>2026-04-25T10:38:54.886Z</time></trkpt><trkpt lat="42.150395" lon="14.5862183"><ele>186.39999999999998</ele><time>2026-04-25T10:38:56.886Z</time></trkpt><trkpt lat="42.150275" lon="14.586195"><ele>187.0</ele><time>2026-04-25T10:38:58.886Z</time></trkpt><trkpt lat="42.150165" lon="14.5861717"><ele>188.2</ele><time>2026-04-25T10:39:00.886Z</time></trkpt><trkpt lat="42.150055" lon="14.58616"><ele>189.39999999999998</ele><time>2026-04-25T10:39:02.885Z</time></trkpt><trkpt lat="42.149945" lon="14.5861433"><ele>190.60000000000002</ele><time>2026-04-25T10:39:04.886Z</time></trkpt><trkpt lat="42.14985" lon="14.5860817"><ele>191.8</ele><time>2026-04-25T10:39:06.886Z</time></trkpt><trkpt lat="42.14976" lon="14.5860167"><ele>193.0</ele><time>2026-04-25T10:39:08.886Z</time></trkpt><trkpt lat="42.1496717" lon="14.5859417"><ele>193.0</ele><time>2026-04-25T10:39:10.885Z</time></trkpt><trkpt lat="42.1495683" lon="14.5858683"><ele>193.0</ele><time>2026-04-25T10:39:12.886Z</time></trkpt><trkpt lat="42.1494783" lon="14.5857867"><ele>193.0</ele><time>2026-04-25T10:39:14.886Z</time></trkpt><trkpt lat="42.1494033" lon="14.5856967"><ele>193.0</ele><time>2026-04-25T10:39:16.886Z</time></trkpt><trkpt lat="42.149335" lon="14.5856117"><ele>193.0</ele><time>2026-04-25T10:39:18.885Z</time></trkpt><trkpt lat="42.1492767" lon="14.5855217"><ele>193.0</ele><time>2026-04-25T10:39:20.886Z</time></trkpt><trkpt lat="42.1491917" lon="14.585435"><ele>193.0</ele><time>2026-04-25T10:39:22.886Z</time></trkpt><trkpt lat="42.1491317" lon="14.5853167"><ele>193.0</ele><time>2026-04-25T10:39:24.886Z</time></trkpt><trkpt lat="42.1490933" lon="14.5852017"><ele>193.0</ele><time>2026-04-25T10:39:26.886Z</time></trkpt><trkpt lat="42.14907" lon="14.5850533"><ele>193.0</ele><time>2026-04-25T10:39:28.886Z</time></trkpt><trkpt lat="42.1490967" lon="14.584935"><ele>193.2</ele><time>2026-04-25T10:39:30.886Z</time></trkpt><trkpt lat="42.1491367" lon="14.5848183"><ele>193.4</ele><time>2026-04-25T10:39:32.885Z</time></trkpt><trkpt lat="42.1491683" lon="14.5846883"><ele>193.6</ele><time>2026-04-25T10:39:34.886Z</time></trkpt><trkpt lat="42.1492" lon="14.58454"><ele>193.79999999999998</ele><time>2026-04-25T10:39:36.886Z</time></trkpt><trkpt lat="42.1492283" lon="14.5843867"><ele>194.0</ele><time>2026-04-25T10:39:38.886Z</time></trkpt><trkpt lat="42.1492533" lon="14.5842267"><ele>194.0</ele><time>2026-04-25T10:39:40.885Z</time></trkpt><trkpt lat="42.1492783" lon="14.584065"><ele>194.0</ele><time>2026-04-25T10:39:42.886Z</time></trkpt><trkpt lat="42.1493017" lon="14.5839067"><ele>194.0</ele><time>2026-04-25T10:39:44.886Z</time></trkpt><trkpt lat="42.149315" lon="14.583745"><ele>194.0</ele><time>2026-04-25T10:39:46.886Z</time></trkpt><trkpt lat="42.1493267" lon="14.58359"><ele>194.0</ele><time>2026-04-25T10:39:48.886Z</time></trkpt><trkpt lat="42.14934" lon="14.58344"><ele>194.0</ele><time>2026-04-25T10:39:50.885Z</time></trkpt><trkpt lat="42.1493733" lon="14.58329"><ele>194.0</ele><time>2026-04-25T10:39:52.886Z</time></trkpt><trkpt lat="42.14941" lon="14.5831417"><ele>194.0</ele><time>2026-04-25T10:39:54.886Z</time></trkpt><trkpt lat="42.1494317" lon="14.5829883"><ele>195.75</ele><time>2026-04-25T10:39:56.886Z</time></trkpt><trkpt lat="42.1494633" lon="14.5828333"><ele>197.5</ele><time>2026-04-25T10:39:58.885Z</time></trkpt><trkpt lat="42.1495" lon="14.5826567"><ele>199.25</ele><time>2026-04-25T10:40:00.886Z</time></trkpt><trkpt lat="42.1494983" lon="14.5825317"><ele>201.0</ele><time>2026-04-25T10:40:02.886Z</time></trkpt><trkpt lat="42.14945" lon="14.5823983"><ele>201.0</ele><time>2026-04-25T10:40:04.885Z</time></trkpt><trkpt lat="42.1493783" lon="14.5822783"><ele>201.0</ele><time>2026-04-25T10:40:06.886Z</time></trkpt><trkpt lat="42.1493017" lon="14.5821717"><ele>201.0</ele><time>2026-04-25T10:40:08.885Z</time></trkpt><trkpt lat="42.1492217" lon="14.5820633"><ele>201.0</ele><time>2026-04-25T10:40:10.885Z</time></trkpt><trkpt lat="42.1491517" lon="14.581945"><ele>202.8</ele><time>2026-04-25T10:40:12.886Z</time></trkpt><trkpt lat="42.14908" lon="14.58182"><ele>204.60000000000002</ele><time>2026-04-25T10:40:14.886Z</time></trkpt><trkpt lat="42.1490117" lon="14.5817067"><ele>206.4</ele><time>2026-04-25T10:40:16.886Z</time></trkpt><trkpt lat="42.1489483" lon="14.581595"><ele>208.2</ele><time>2026-04-25T10:40:18.886Z</time></trkpt><trkpt lat="42.148885" lon="14.5814617"><ele>210.0</ele><time>2026-04-25T10:40:20.886Z</time></trkpt><trkpt lat="42.1488467" lon="14.5813283"><ele>209.0</ele><time>2026-04-25T10:40:22.885Z</time></trkpt><trkpt lat="42.1488333" lon="14.58119"><ele>208.0</ele><time>2026-04-25T10:40:24.886Z</time></trkpt><trkpt lat="42.14882" lon="14.5810417"><ele>207.0</ele><time>2026-04-25T10:40:26.885Z</time></trkpt><trkpt lat="42.1488167" lon="14.5808967"><ele>206.0</ele><time>2026-04-25T10:40:28.886Z</time></trkpt><trkpt lat="42.148825" lon="14.58075"><ele>205.0</ele><time>2026-04-25T10:40:30.886Z</time></trkpt><trkpt lat="42.14882" lon="14.5806483"><ele>205.0</ele><time>2026-04-25T10:40:32.886Z</time></trkpt><trkpt lat="42.1487967" lon="14.5805233"><ele>205.0</ele><time>2026-04-25T10:40:34.885Z</time></trkpt><trkpt lat="42.148785" lon="14.5803567"><ele>205.0</ele><time>2026-04-25T10:40:36.886Z</time></trkpt><trkpt lat="42.1487783" lon="14.58021"><ele>205.0</ele><time>2026-04-25T10:40:38.885Z</time></trkpt><trkpt lat="42.148775" lon="14.5800567"><ele>205.0</ele><time>2026-04-25T10:40:40.885Z</time></trkpt><trkpt lat="42.1487683" lon="14.5799167"><ele>206.4</ele><time>2026-04-25T10:40:42.886Z</time></trkpt><trkpt lat="42.1487667" lon="14.5797467"><ele>207.8</ele><time>2026-04-25T10:40:44.886Z</time></trkpt><trkpt lat="42.1487733" lon="14.579595"><ele>209.2</ele><time>2026-04-25T10:40:46.886Z</time></trkpt><trkpt lat="42.1487767" lon="14.5795067"><ele>210.6</ele><time>2026-04-25T10:40:47.885Z</time></trkpt><trkpt lat="42.1487717" lon="14.579345"><ele>212.0</ele><time>2026-04-25T10:40:49.886Z</time></trkpt><trkpt lat="42.1487717" lon="14.5792033"><ele>212.2</ele><time>2026-04-25T10:40:51.886Z</time></trkpt><trkpt lat="42.1487717" lon="14.57907"><ele>212.39999999999998</ele><time>2026-04-25T10:40:53.886Z</time></trkpt><trkpt lat="42.1487667" lon="14.5789267"><ele>212.60000000000002</ele><time>2026-04-25T10:40:55.886Z</time></trkpt><trkpt lat="42.1487417" lon="14.5787767"><ele>212.8</ele><time>2026-04-25T10:40:57.885Z</time></trkpt><trkpt lat="42.1487383" lon="14.5786917"><ele>213.0</ele><time>2026-04-25T10:40:58.886Z</time></trkpt><trkpt lat="42.14874" lon="14.5785317"><ele>211.5</ele><time>2026-04-25T10:41:00.886Z</time></trkpt><trkpt lat="42.1487167" lon="14.5783683"><ele>210.0</ele><time>2026-04-25T10:41:02.886Z</time></trkpt><trkpt lat="42.1487067" lon="14.5782033"><ele>208.5</ele><time>2026-04-25T10:41:04.886Z</time></trkpt><trkpt lat="42.1487217" lon="14.5780667"><ele>207.0</ele><time>2026-04-25T10:41:06.886Z</time></trkpt><trkpt lat="42.1487667" lon="14.5779383"><ele>205.2</ele><time>2026-04-25T10:41:08.886Z</time></trkpt><trkpt lat="42.1488133" lon="14.5778083"><ele>203.39999999999998</ele><time>2026-04-25T10:41:10.885Z</time></trkpt><trkpt lat="42.14885" lon="14.577675"><ele>201.60000000000002</ele><time>2026-04-25T10:41:12.886Z</time></trkpt><trkpt lat="42.1488633" lon="14.5775517"><ele>199.8</ele><time>2026-04-25T10:41:14.885Z</time></trkpt><trkpt lat="42.1488433" lon="14.5774167"><ele>198.0</ele><time>2026-04-25T10:41:16.885Z</time></trkpt><trkpt lat="42.1488233" lon="14.5772617"><ele>198.0</ele><time>2026-04-25T10:41:18.886Z</time></trkpt><trkpt lat="42.148825" lon="14.5771117"><ele>198.0</ele><time>2026-04-25T10:41:20.886Z</time></trkpt><trkpt lat="42.1488583" lon="14.5769633"><ele>198.0</ele><time>2026-04-25T10:41:22.886Z</time></trkpt><trkpt lat="42.148925" lon="14.576825"><ele>198.0</ele><time>2026-04-25T10:41:24.886Z</time></trkpt><trkpt lat="42.1490017" lon="14.5766967"><ele>202.4</ele><time>2026-04-25T10:41:26.886Z</time></trkpt><trkpt lat="42.149075" lon="14.5765667"><ele>206.8</ele><time>2026-04-25T10:41:28.886Z</time></trkpt><trkpt lat="42.14912" lon="14.5764383"><ele>211.2</ele><time>2026-04-25T10:41:30.885Z</time></trkpt><trkpt lat="42.14915" lon="14.576295"><ele>215.6</ele><time>2026-04-25T10:41:32.886Z</time></trkpt><trkpt lat="42.1491717" lon="14.57617"><ele>220.0</ele><time>2026-04-25T10:41:34.886Z</time></trkpt><trkpt lat="42.1492017" lon="14.5760417"><ele>220.0</ele><time>2026-04-25T10:41:36.885Z</time></trkpt><trkpt lat="42.14921" lon="14.5758883"><ele>220.0</ele><time>2026-04-25T10:41:38.886Z</time></trkpt><trkpt lat="42.1492067" lon="14.5757367"><ele>220.0</ele><time>2026-04-25T10:41:40.886Z</time></trkpt><trkpt lat="42.14921" lon="14.5756433"><ele>220.0</ele><time>2026-04-25T10:41:41.886Z</time></trkpt><trkpt lat="42.1492083" lon="14.5754917"><ele>220.0</ele><time>2026-04-25T10:41:43.886Z</time></trkpt><trkpt lat="42.1492133" lon="14.5754"><ele>220.4</ele><time>2026-04-25T10:41:44.885Z</time></trkpt><trkpt lat="42.1492067" lon="14.5752633"><ele>220.8</ele><time>2026-04-25T10:41:46.886Z</time></trkpt><trkpt lat="42.1492017" lon="14.5751767"><ele>221.2</ele><time>2026-04-25T10:41:47.886Z</time></trkpt><trkpt lat="42.14919" lon="14.575025"><ele>221.6</ele><time>2026-04-25T10:41:49.885Z</time></trkpt><trkpt lat="42.1491933" lon="14.5748567"><ele>222.0</ele><time>2026-04-25T10:41:51.886Z</time></trkpt><trkpt lat="42.14921" lon="14.5747033"><ele>222.0</ele><time>2026-04-25T10:41:53.886Z</time></trkpt><trkpt lat="42.1492483" lon="14.57456"><ele>222.0</ele><time>2026-04-25T10:41:55.886Z</time></trkpt><trkpt lat="42.14929" lon="14.5744183"><ele>222.0</ele><time>2026-04-25T10:41:57.886Z</time></trkpt><trkpt lat="42.1493167" lon="14.5742767"><ele>222.0</ele><time>2026-04-25T10:41:59.886Z</time></trkpt><trkpt lat="42.149325" lon="14.574135"><ele>222.0</ele><time>2026-04-25T10:42:01.886Z</time></trkpt><trkpt lat="42.1493183" lon="14.5739867"><ele>221.2</ele><time>2026-04-25T10:42:03.886Z</time></trkpt><trkpt lat="42.1493" lon="14.5738317"><ele>220.39999999999998</ele><time>2026-04-25T10:42:05.886Z</time></trkpt><trkpt lat="42.1492867" lon="14.5736883"><ele>219.60000000000002</ele><time>2026-04-25T10:42:07.885Z</time></trkpt><trkpt lat="42.1492883" lon="14.5735667"><ele>218.8</ele><time>2026-04-25T10:42:09.886Z</time></trkpt><trkpt lat="42.1493133" lon="14.5734233"><ele>218.0</ele><time>2026-04-25T10:42:11.886Z</time></trkpt><trkpt lat="42.1493733" lon="14.5732917"><ele>217.60000000000002</ele><time>2026-04-25T10:42:13.886Z</time></trkpt><trkpt lat="42.1494017" lon="14.573155"><ele>217.20000000000002</ele><time>2026-04-25T10:42:15.886Z</time></trkpt><trkpt lat="42.1494117" lon="14.5730067"><ele>216.8</ele><time>2026-04-25T10:42:17.885Z</time></trkpt><trkpt lat="42.1494" lon="14.5728433"><ele>216.4</ele><time>2026-04-25T10:42:19.886Z</time></trkpt><trkpt lat="42.1493983" lon="14.572755"><ele>216.0</ele><time>2026-04-25T10:42:20.886Z</time></trkpt><trkpt lat="42.1493967" lon="14.5725917"><ele>215.0</ele><time>2026-04-25T10:42:22.886Z</time></trkpt><trkpt lat="42.1494233" lon="14.5724367"><ele>214.00000000000003</ele><time>2026-04-25T10:42:24.886Z</time></trkpt><trkpt lat="42.1494783" lon="14.5723217"><ele>213.0</ele><time>2026-04-25T10:42:26.885Z</time></trkpt><trkpt lat="42.14955" lon="14.5722017"><ele>212.0</ele><time>2026-04-25T10:42:28.885Z</time></trkpt><trkpt lat="42.14962" lon="14.5720817"><ele>211.0</ele><time>2026-04-25T10:42:30.886Z</time></trkpt><trkpt lat="42.1496783" lon="14.5719467"><ele>209.8</ele><time>2026-04-25T10:42:32.885Z</time></trkpt><trkpt lat="42.1497183" lon="14.571815"><ele>208.60000000000002</ele><time>2026-04-25T10:42:34.886Z</time></trkpt><trkpt lat="42.14975" lon="14.57169"><ele>207.4</ele><time>2026-04-25T10:42:36.885Z</time></trkpt><trkpt lat="42.1497833" lon="14.5715617"><ele>206.2</ele><time>2026-04-25T10:42:38.885Z</time></trkpt><trkpt lat="42.1498083" lon="14.57143"><ele>205.0</ele><time>2026-04-25T10:42:40.886Z</time></trkpt><trkpt lat="42.149835" lon="14.5713017"><ele>204.6</ele><time>2026-04-25T10:42:42.885Z</time></trkpt><trkpt lat="42.1498517" lon="14.571165"><ele>204.2</ele><time>2026-04-25T10:42:44.886Z</time></trkpt><trkpt lat="42.1498617" lon="14.5710167"><ele>203.8</ele><time>2026-04-25T10:42:46.886Z</time></trkpt><trkpt lat="42.1498717" lon="14.5708567"><ele>203.4</ele><time>2026-04-25T10:42:48.886Z</time></trkpt><trkpt lat="42.149865" lon="14.57072"><ele>203.0</ele><time>2026-04-25T10:42:50.885Z</time></trkpt><trkpt lat="42.1498467" lon="14.5705767"><ele>203.0</ele><time>2026-04-25T10:42:52.886Z</time></trkpt><trkpt lat="42.1498133" lon="14.5704367"><ele>203.0</ele><time>2026-04-25T10:42:54.885Z</time></trkpt><trkpt lat="42.1497667" lon="14.5703033"><ele>203.0</ele><time>2026-04-25T10:42:56.886Z</time></trkpt><trkpt lat="42.149715" lon="14.5701867"><ele>203.0</ele><time>2026-04-25T10:42:58.886Z</time></trkpt><trkpt lat="42.149655" lon="14.5700533"><ele>203.0</ele><time>2026-04-25T10:43:00.886Z</time></trkpt><trkpt lat="42.1496033" lon="14.5699217"><ele>204.2</ele><time>2026-04-25T10:43:02.886Z</time></trkpt><trkpt lat="42.14955" lon="14.5697683"><ele>205.4</ele><time>2026-04-25T10:43:04.885Z</time></trkpt><trkpt lat="42.1495367" lon="14.56968"><ele>206.6</ele><time>2026-04-25T10:43:05.886Z</time></trkpt><trkpt lat="42.1495183" lon="14.5695167"><ele>207.79999999999998</ele><time>2026-04-25T10:43:07.886Z</time></trkpt><trkpt lat="42.14954" lon="14.5693583"><ele>209.0</ele><time>2026-04-25T10:43:09.886Z</time></trkpt><trkpt lat="42.14959" lon="14.569215"><ele>209.39999999999998</ele><time>2026-04-25T10:43:11.885Z</time></trkpt><trkpt lat="42.149665" lon="14.569095"><ele>209.8</ele><time>2026-04-25T10:43:13.886Z</time></trkpt><trkpt lat="42.149755" lon="14.5690033"><ele>210.2</ele><time>2026-04-25T10:43:15.885Z</time></trkpt><trkpt lat="42.1498467" lon="14.568925"><ele>210.60000000000002</ele><time>2026-04-25T10:43:17.886Z</time></trkpt><trkpt lat="42.1499283" lon="14.5688317"><ele>211.0</ele><time>2026-04-25T10:43:19.886Z</time></trkpt><trkpt lat="42.1500133" lon="14.5687433"><ele>211.60000000000002</ele><time>2026-04-25T10:43:21.886Z</time></trkpt><trkpt lat="42.1501" lon="14.5686583"><ele>212.2</ele><time>2026-04-25T10:43:23.885Z</time></trkpt><trkpt lat="42.1502" lon="14.5685733"><ele>212.79999999999998</ele><time>2026-04-25T10:43:25.885Z</time></trkpt><trkpt lat="42.1502983" lon="14.5684917"><ele>213.39999999999998</ele><time>2026-04-25T10:43:27.885Z</time></trkpt><trkpt lat="42.150385" lon="14.56841"><ele>214.0</ele><time>2026-04-25T10:43:29.886Z</time></trkpt><trkpt lat="42.1504717" lon="14.5683267"><ele>214.0</ele><time>2026-04-25T10:43:31.886Z</time></trkpt><trkpt lat="42.1505633" lon="14.568245"><ele>213.99999999999997</ele><time>2026-04-25T10:43:33.886Z</time></trkpt><trkpt lat="42.1506517" lon="14.5681633"><ele>213.99999999999997</ele><time>2026-04-25T10:43:35.886Z</time></trkpt><trkpt lat="42.150745" lon="14.5680933"><ele>214.0</ele><time>2026-04-25T10:43:37.886Z</time></trkpt><trkpt lat="42.1508517" lon="14.568055"><ele>214.0</ele><time>2026-04-25T10:43:39.886Z</time></trkpt><trkpt lat="42.15096" lon="14.56805"><ele>217.6</ele><time>2026-04-25T10:43:41.886Z</time></trkpt><trkpt lat="42.1510533" lon="14.5680667"><ele>221.2</ele><time>2026-04-25T10:43:43.886Z</time></trkpt><trkpt lat="42.1511667" lon="14.5681033"><ele>224.79999999999998</ele><time>2026-04-25T10:43:45.886Z</time></trkpt><trkpt lat="42.15129" lon="14.5681133"><ele>228.39999999999998</ele><time>2026-04-25T10:43:47.886Z</time></trkpt><trkpt lat="42.1514017" lon="14.568135"><ele>232.0</ele><time>2026-04-25T10:43:49.885Z</time></trkpt><trkpt lat="42.1515167" lon="14.56817"><ele>231.33333333333331</ele><time>2026-04-25T10:43:51.886Z</time></trkpt><trkpt lat="42.1516383" lon="14.5681967"><ele>230.66666666666666</ele><time>2026-04-25T10:43:53.886Z</time></trkpt><trkpt lat="42.1517617" lon="14.568195"><ele>230.0</ele><time>2026-04-25T10:43:55.886Z</time></trkpt><trkpt lat="42.1518267" lon="14.5681967"><ele>229.33333333333331</ele><time>2026-04-25T10:43:56.886Z</time></trkpt><trkpt lat="42.1518933" lon="14.5681933"><ele>228.66666666666666</ele><time>2026-04-25T10:43:57.886Z</time></trkpt><trkpt lat="42.1519583" lon="14.5681867"><ele>228.0</ele><time>2026-04-25T10:43:58.885Z</time></trkpt><trkpt lat="42.1520267" lon="14.5681833"><ele>228.0</ele><time>2026-04-25T10:43:59.885Z</time></trkpt><trkpt lat="42.1520933" lon="14.5681833"><ele>227.99999999999997</ele><time>2026-04-25T10:44:00.885Z</time></trkpt><trkpt lat="42.1521617" lon="14.5681783"><ele>228.0</ele><time>2026-04-25T10:44:01.886Z</time></trkpt><trkpt lat="42.1522333" lon="14.5681767"><ele>228.0</ele><time>2026-04-25T10:44:02.885Z</time></trkpt><trkpt lat="42.1523083" lon="14.5681717"><ele>227.99999999999997</ele><time>2026-04-25T10:44:03.886Z</time></trkpt><trkpt lat="42.15238" lon="14.5681683"><ele>228.0</ele><time>2026-04-25T10:44:04.886Z</time></trkpt><trkpt lat="42.1524533" lon="14.5681633"><ele>228.0</ele><time>2026-04-25T10:44:05.886Z</time></trkpt><trkpt lat="42.152525" lon="14.5681617"><ele>227.16666666666666</ele><time>2026-04-25T10:44:06.885Z</time></trkpt><trkpt lat="42.1526017" lon="14.5681617"><ele>226.33333333333331</ele><time>2026-04-25T10:44:07.886Z</time></trkpt><trkpt lat="42.1526717" lon="14.5681583"><ele>225.5</ele><time>2026-04-25T10:44:08.886Z</time></trkpt><trkpt lat="42.1527467" lon="14.5681517"><ele>224.66666666666666</ele><time>2026-04-25T10:44:09.886Z</time></trkpt><trkpt lat="42.1528217" lon="14.568155"><ele>223.83333333333331</ele><time>2026-04-25T10:44:10.886Z</time></trkpt><trkpt lat="42.1529033" lon="14.56816"><ele>223.0</ele><time>2026-04-25T10:44:11.886Z</time></trkpt><trkpt lat="42.15298" lon="14.5681717"><ele>222.99999999999997</ele><time>2026-04-25T10:44:12.886Z</time></trkpt><trkpt lat="42.1530533" lon="14.5682"><ele>223.0</ele><time>2026-04-25T10:44:13.885Z</time></trkpt><trkpt lat="42.1531267" lon="14.568235"><ele>223.0</ele><time>2026-04-25T10:44:14.885Z</time></trkpt><trkpt lat="42.1531983" lon="14.5682883"><ele>223.0</ele><time>2026-04-25T10:44:15.885Z</time></trkpt><trkpt lat="42.153265" lon="14.5683483"><ele>222.99999999999997</ele><time>2026-04-25T10:44:16.886Z</time></trkpt><trkpt lat="42.1533217" lon="14.5684117"><ele>223.0</ele><time>2026-04-25T10:44:17.886Z</time></trkpt><trkpt lat="42.1533817" lon="14.5684717"><ele>223.16666666666666</ele><time>2026-04-25T10:44:18.885Z</time></trkpt><trkpt lat="42.1534433" lon="14.5685333"><ele>223.33333333333331</ele><time>2026-04-25T10:44:19.886Z</time></trkpt><trkpt lat="42.1535033" lon="14.5685917"><ele>223.5</ele><time>2026-04-25T10:44:20.886Z</time></trkpt><trkpt lat="42.1535667" lon="14.5686567"><ele>223.66666666666669</ele><time>2026-04-25T10:44:21.885Z</time></trkpt><trkpt lat="42.15363" lon="14.5687183"><ele>223.83333333333334</ele><time>2026-04-25T10:44:22.886Z</time></trkpt><trkpt lat="42.1536917" lon="14.56878"><ele>224.0</ele><time>2026-04-25T10:44:23.886Z</time></trkpt><trkpt lat="42.153755" lon="14.5688433"><ele>223.16666666666669</ele><time>2026-04-25T10:44:24.885Z</time></trkpt><trkpt lat="42.1538167" lon="14.5689083"><ele>222.33333333333334</ele><time>2026-04-25T10:44:25.886Z</time></trkpt><trkpt lat="42.1538767" lon="14.5689733"><ele>221.5</ele><time>2026-04-25T10:44:26.886Z</time></trkpt><trkpt lat="42.1539367" lon="14.5690383"><ele>220.66666666666669</ele><time>2026-04-25T10:44:27.886Z</time></trkpt><trkpt lat="42.1540017" lon="14.5690983"><ele>219.83333333333334</ele><time>2026-04-25T10:44:28.886Z</time></trkpt><trkpt lat="42.1540633" lon="14.5691567"><ele>219.0</ele><time>2026-04-25T10:44:29.885Z</time></trkpt><trkpt lat="42.154125" lon="14.569215"><ele>219.0</ele><time>2026-04-25T10:44:30.886Z</time></trkpt><trkpt lat="42.15418" lon="14.5692783"><ele>219.0</ele><time>2026-04-25T10:44:31.886Z</time></trkpt><trkpt lat="42.1542383" lon="14.56934"><ele>219.0</ele><time>2026-04-25T10:44:32.885Z</time></trkpt><trkpt lat="42.1542983" lon="14.5693967"><ele>219.0</ele><time>2026-04-25T10:44:33.886Z</time></trkpt><trkpt lat="42.1543583" lon="14.56945"><ele>219.0</ele><time>2026-04-25T10:44:34.885Z</time></trkpt><trkpt lat="42.15442" lon="14.5694983"><ele>219.0</ele><time>2026-04-25T10:44:35.885Z</time></trkpt><trkpt lat="42.1544867" lon="14.56955"><ele>219.0</ele><time>2026-04-25T10:44:36.885Z</time></trkpt><trkpt lat="42.1545533" lon="14.56961"><ele>218.0</ele><time>2026-04-25T10:44:37.885Z</time></trkpt><trkpt lat="42.15462" lon="14.569665"><ele>217.0</ele><time>2026-04-25T10:44:38.885Z</time></trkpt><trkpt lat="42.1546867" lon="14.56972"><ele>216.0</ele><time>2026-04-25T10:44:39.885Z</time></trkpt><trkpt lat="42.1547583" lon="14.5697733"><ele>215.0</ele><time>2026-04-25T10:44:40.886Z</time></trkpt><trkpt lat="42.1548283" lon="14.5698317"><ele>214.0</ele><time>2026-04-25T10:44:41.886Z</time></trkpt><trkpt lat="42.15489" lon="14.5698917"><ele>213.0</ele><time>2026-04-25T10:44:42.885Z</time></trkpt><trkpt lat="42.15495" lon="14.569955"><ele>213.0</ele><time>2026-04-25T10:44:43.886Z</time></trkpt><trkpt lat="42.1550117" lon="14.57002"><ele>213.0</ele><time>2026-04-25T10:44:44.886Z</time></trkpt><trkpt lat="42.15507" lon="14.5700933"><ele>213.0</ele><time>2026-04-25T10:44:45.886Z</time></trkpt><trkpt lat="42.1551233" lon="14.5701667"><ele>213.0</ele><time>2026-04-25T10:44:46.886Z</time></trkpt><trkpt lat="42.155175" lon="14.5702367"><ele>213.0</ele><time>2026-04-25T10:44:47.886Z</time></trkpt><trkpt lat="42.1552233" lon="14.5703117"><ele>213.0</ele><time>2026-04-25T10:44:48.885Z</time></trkpt><trkpt lat="42.1552817" lon="14.5703833"><ele>211.33333333333334</ele><time>2026-04-25T10:44:49.886Z</time></trkpt><trkpt lat="42.15534" lon="14.5704567"><ele>209.66666666666669</ele><time>2026-04-25T10:44:50.885Z</time></trkpt><trkpt lat="42.1554" lon="14.5705217"><ele>208.0</ele><time>2026-04-25T10:44:51.886Z</time></trkpt><trkpt lat="42.1554583" lon="14.570585"><ele>206.33333333333334</ele><time>2026-04-25T10:44:52.886Z</time></trkpt><trkpt lat="42.15552" lon="14.5706483"><ele>204.66666666666669</ele><time>2026-04-25T10:44:53.885Z</time></trkpt><trkpt lat="42.155585" lon="14.570705"><ele>203.0</ele><time>2026-04-25T10:44:54.886Z</time></trkpt><trkpt lat="42.1556517" lon="14.570765"><ele>204.16666666666669</ele><time>2026-04-25T10:44:55.886Z</time></trkpt><trkpt lat="42.1557133" lon="14.570825"><ele>205.33333333333334</ele><time>2026-04-25T10:44:56.886Z</time></trkpt><trkpt lat="42.1557783" lon="14.5708817"><ele>206.5</ele><time>2026-04-25T10:44:57.885Z</time></trkpt><trkpt lat="42.1558483" lon="14.57093"><ele>207.66666666666669</ele><time>2026-04-25T10:44:58.886Z</time></trkpt><trkpt lat="42.1559233" lon="14.570975"><ele>208.83333333333334</ele><time>2026-04-25T10:44:59.885Z</time></trkpt><trkpt lat="42.1559983" lon="14.5710117"><ele>210.0</ele><time>2026-04-25T10:45:00.886Z</time></trkpt><trkpt lat="42.1560717" lon="14.5710417"><ele>210.0</ele><time>2026-04-25T10:45:01.885Z</time></trkpt><trkpt lat="42.1561483" lon="14.571075"><ele>210.0</ele><time>2026-04-25T10:45:02.886Z</time></trkpt><trkpt lat="42.1562233" lon="14.5711117"><ele>210.0</ele><time>2026-04-25T10:45:03.886Z</time></trkpt><trkpt lat="42.1562983" lon="14.5711583"><ele>210.0</ele><time>2026-04-25T10:45:04.886Z</time></trkpt><trkpt lat="42.15637" lon="14.5712067"><ele>210.0</ele><time>2026-04-25T10:45:05.885Z</time></trkpt><trkpt lat="42.1564333" lon="14.5712617"><ele>210.0</ele><time>2026-04-25T10:45:06.886Z</time></trkpt><trkpt lat="42.1564883" lon="14.5713367"><ele>209.33333333333334</ele><time>2026-04-25T10:45:07.885Z</time></trkpt><trkpt lat="42.1565417" lon="14.5714133"><ele>208.66666666666669</ele><time>2026-04-25T10:45:08.886Z</time></trkpt><trkpt lat="42.1565883" lon="14.57149"><ele>208.0</ele><time>2026-04-25T10:45:09.885Z</time></trkpt><trkpt lat="42.1566367" lon="14.5715667"><ele>207.33333333333334</ele><time>2026-04-25T10:45:10.886Z</time></trkpt><trkpt lat="42.1566933" lon="14.5716417"><ele>206.66666666666669</ele><time>2026-04-25T10:45:11.886Z</time></trkpt><trkpt lat="42.1567433" lon="14.5717133"><ele>206.0</ele><time>2026-04-25T10:45:12.886Z</time></trkpt><trkpt lat="42.1568" lon="14.5717817"><ele>206.00000000000003</ele><time>2026-04-25T10:45:13.885Z</time></trkpt><trkpt lat="42.1568583" lon="14.5718533"><ele>206.0</ele><time>2026-04-25T10:45:14.886Z</time></trkpt><trkpt lat="42.156915" lon="14.5719267"><ele>206.0</ele><time>2026-04-25T10:45:15.886Z</time></trkpt><trkpt lat="42.1569767" lon="14.572"><ele>206.0</ele><time>2026-04-25T10:45:16.886Z</time></trkpt><trkpt lat="42.157035" lon="14.5720683"><ele>206.00000000000003</ele><time>2026-04-25T10:45:17.885Z</time></trkpt><trkpt lat="42.1570983" lon="14.5721383"><ele>206.0</ele><time>2026-04-25T10:45:18.886Z</time></trkpt><trkpt lat="42.1571617" lon="14.572195"><ele>205.16666666666669</ele><time>2026-04-25T10:45:19.886Z</time></trkpt><trkpt lat="42.1572283" lon="14.572245"><ele>204.33333333333334</ele><time>2026-04-25T10:45:20.886Z</time></trkpt><trkpt lat="42.1572983" lon="14.57229"><ele>203.5</ele><time>2026-04-25T10:45:21.886Z</time></trkpt><trkpt lat="42.1573717" lon="14.5723217"><ele>202.66666666666669</ele><time>2026-04-25T10:45:22.885Z</time></trkpt><trkpt lat="42.1574467" lon="14.5723417"><ele>201.83333333333334</ele><time>2026-04-25T10:45:23.886Z</time></trkpt><trkpt lat="42.1575267" lon="14.5723517"><ele>201.0</ele><time>2026-04-25T10:45:24.886Z</time></trkpt><trkpt lat="42.1576033" lon="14.57236"><ele>201.0</ele><time>2026-04-25T10:45:25.886Z</time></trkpt><trkpt lat="42.1576767" lon="14.5723567"><ele>201.0</ele><time>2026-04-25T10:45:26.886Z</time></trkpt><trkpt lat="42.1577483" lon="14.57234"><ele>201.0</ele><time>2026-04-25T10:45:27.886Z</time></trkpt><trkpt lat="42.15782" lon="14.572315"><ele>201.0</ele><time>2026-04-25T10:45:28.886Z</time></trkpt><trkpt lat="42.1578933" lon="14.5722783"><ele>201.0</ele><time>2026-04-25T10:45:29.885Z</time></trkpt><trkpt lat="42.157965" lon="14.5722367"><ele>201.0</ele><time>2026-04-25T10:45:30.886Z</time></trkpt><trkpt lat="42.1580333" lon="14.5721917"><ele>201.0</ele><time>2026-04-25T10:45:31.885Z</time></trkpt><trkpt lat="42.1581067" lon="14.5721483"><ele>201.0</ele><time>2026-04-25T10:45:32.886Z</time></trkpt><trkpt lat="42.1581767" lon="14.5721033"><ele>201.0</ele><time>2026-04-25T10:45:33.885Z</time></trkpt><trkpt lat="42.1582483" lon="14.5720517"><ele>201.0</ele><time>2026-04-25T10:45:34.886Z</time></trkpt><trkpt lat="42.1583183" lon="14.57199"><ele>201.0</ele><time>2026-04-25T10:45:35.886Z</time></trkpt><trkpt lat="42.1583833" lon="14.5719367"><ele>201.0</ele><time>2026-04-25T10:45:36.886Z</time></trkpt><trkpt lat="42.1584467" lon="14.5718817"><ele>201.0</ele><time>2026-04-25T10:45:37.886Z</time></trkpt><trkpt lat="42.15851" lon="14.57182"><ele>201.0</ele><time>2026-04-25T10:45:38.885Z</time></trkpt><trkpt lat="42.1585733" lon="14.5717483"><ele>201.0</ele><time>2026-04-25T10:45:39.886Z</time></trkpt><trkpt lat="42.1586233" lon="14.5716717"><ele>201.0</ele><time>2026-04-25T10:45:40.885Z</time></trkpt><trkpt lat="42.15866" lon="14.5715833"><ele>201.0</ele><time>2026-04-25T10:45:41.885Z</time></trkpt><trkpt lat="42.1586917" lon="14.5714833"><ele>201.0</ele><time>2026-04-25T10:45:42.886Z</time></trkpt><trkpt lat="42.15872" lon="14.5713733"><ele>201.0</ele><time>2026-04-25T10:45:43.885Z</time></trkpt><trkpt lat="42.1587367" lon="14.571265"><ele>201.0</ele><time>2026-04-25T10:45:44.886Z</time></trkpt><trkpt lat="42.15875" lon="14.5711617"><ele>201.0</ele><time>2026-04-25T10:45:45.886Z</time></trkpt><trkpt lat="42.1587667" lon="14.5710517"><ele>201.0</ele><time>2026-04-25T10:45:46.886Z</time></trkpt><trkpt lat="42.15878" lon="14.5709467"><ele>201.0</ele><time>2026-04-25T10:45:47.885Z</time></trkpt><trkpt lat="42.1587933" lon="14.5708417"><ele>201.0</ele><time>2026-04-25T10:45:48.886Z</time></trkpt><trkpt lat="42.1588033" lon="14.570735"><ele>201.5</ele><time>2026-04-25T10:45:49.886Z</time></trkpt><trkpt lat="42.15881" lon="14.570625"><ele>202.0</ele><time>2026-04-25T10:45:50.886Z</time></trkpt><trkpt lat="42.1588183" lon="14.570515"><ele>202.5</ele><time>2026-04-25T10:45:51.885Z</time></trkpt><trkpt lat="42.15883" lon="14.5704067"><ele>203.0</ele><time>2026-04-25T10:45:52.886Z</time></trkpt><trkpt lat="42.1588317" lon="14.5703017"><ele>203.5</ele><time>2026-04-25T10:45:53.886Z</time></trkpt><trkpt lat="42.15884" lon="14.5701933"><ele>204.0</ele><time>2026-04-25T10:45:54.886Z</time></trkpt><trkpt lat="42.15885" lon="14.5700833"><ele>204.0</ele><time>2026-04-25T10:45:55.886Z</time></trkpt><trkpt lat="42.1588683" lon="14.569975"><ele>204.0</ele><time>2026-04-25T10:45:56.886Z</time></trkpt><trkpt lat="42.158895" lon="14.5698733"><ele>204.0</ele><time>2026-04-25T10:45:57.886Z</time></trkpt><trkpt lat="42.15893" lon="14.569785"><ele>204.0</ele><time>2026-04-25T10:45:58.886Z</time></trkpt><trkpt lat="42.1589683" lon="14.5697083"><ele>204.0</ele><time>2026-04-25T10:45:59.886Z</time></trkpt><trkpt lat="42.159075" lon="14.5696017"><ele>204.0</ele><time>2026-04-25T10:46:01.886Z</time></trkpt><trkpt lat="42.1591383" lon="14.56958"><ele>201.79999999999998</ele><time>2026-04-25T10:46:02.886Z</time></trkpt><trkpt lat="42.1592483" lon="14.5695567"><ele>199.6</ele><time>2026-04-25T10:46:04.886Z</time></trkpt><trkpt lat="42.159355" lon="14.5695533"><ele>197.4</ele><time>2026-04-25T10:46:06.886Z</time></trkpt><trkpt lat="42.1594333" lon="14.5695667"><ele>195.2</ele><time>2026-04-25T10:46:08.885Z</time></trkpt><trkpt lat="42.1594633" lon="14.569655"><ele>193.0</ele><time>2026-04-25T10:46:11.886Z</time></trkpt><trkpt lat="42.1594267" lon="14.56978"><ele>192.99999999999997</ele><time>2026-04-25T10:46:14.885Z</time></trkpt><trkpt lat="42.1593683" lon="14.5698833"><ele>193.0</ele><time>2026-04-25T10:46:16.885Z</time></trkpt><trkpt lat="42.1592633" lon="14.5699617"><ele>193.0</ele><time>2026-04-25T10:46:18.886Z</time></trkpt><trkpt lat="42.1592067" lon="14.5700117"><ele>193.0</ele><time>2026-04-25T10:46:19.885Z</time></trkpt><trkpt lat="42.15915" lon="14.5700683"><ele>192.99999999999997</ele><time>2026-04-25T10:46:20.885Z</time></trkpt><trkpt lat="42.159105" lon="14.57013"><ele>193.0</ele><time>2026-04-25T10:46:21.885Z</time></trkpt><trkpt lat="42.1590317" lon="14.57026"><ele>196.0</ele><time>2026-04-25T10:46:23.886Z</time></trkpt><trkpt lat="42.1589983" lon="14.5704067"><ele>199.0</ele><time>2026-04-25T10:46:25.886Z</time></trkpt><trkpt lat="42.1589933" lon="14.5705633"><ele>202.0</ele><time>2026-04-25T10:46:27.885Z</time></trkpt><trkpt lat="42.158995" lon="14.5707117"><ele>205.0</ele><time>2026-04-25T10:46:29.886Z</time></trkpt><trkpt lat="42.15901" lon="14.570865"><ele>205.0</ele><time>2026-04-25T10:46:31.885Z</time></trkpt><trkpt lat="42.15903" lon="14.5710267"><ele>205.0</ele><time>2026-04-25T10:46:33.885Z</time></trkpt><trkpt lat="42.1590533" lon="14.5711917"><ele>205.0</ele><time>2026-04-25T10:46:35.885Z</time></trkpt><trkpt lat="42.1590683" lon="14.5712817"><ele>205.0</ele><time>2026-04-25T10:46:36.886Z</time></trkpt><trkpt lat="42.159085" lon="14.5714467"><ele>205.0</ele><time>2026-04-25T10:46:38.886Z</time></trkpt><trkpt lat="42.1590967" lon="14.5716133"><ele>201.99999999999997</ele><time>2026-04-25T10:46:40.886Z</time></trkpt><trkpt lat="42.1591067" lon="14.5717817"><ele>199.0</ele><time>2026-04-25T10:46:42.885Z</time></trkpt><trkpt lat="42.159115" lon="14.5718767"><ele>196.0</ele><time>2026-04-25T10:46:43.886Z</time></trkpt><trkpt lat="42.1591167" lon="14.571965"><ele>193.0</ele><time>2026-04-25T10:46:44.886Z</time></trkpt><trkpt lat="42.1591083" lon="14.57207"><ele>190.0</ele><time>2026-04-25T10:46:45.886Z</time></trkpt><trkpt lat="42.1591" lon="14.5721733"><ele>187.0</ele><time>2026-04-25T10:46:46.886Z</time></trkpt><trkpt lat="42.1590867" lon="14.5722817"><ele>187.66666666666669</ele><time>2026-04-25T10:46:47.886Z</time></trkpt><trkpt lat="42.1590617" lon="14.572375"><ele>188.33333333333334</ele><time>2026-04-25T10:46:48.886Z</time></trkpt><trkpt lat="42.15904" lon="14.5724717"><ele>189.0</ele><time>2026-04-25T10:46:49.886Z</time></trkpt><trkpt lat="42.159005" lon="14.5725783"><ele>189.66666666666666</ele><time>2026-04-25T10:46:50.886Z</time></trkpt><trkpt lat="42.1589667" lon="14.572685"><ele>190.33333333333331</ele><time>2026-04-25T10:46:51.886Z</time></trkpt><trkpt lat="42.1589233" lon="14.5727933"><ele>191.0</ele><time>2026-04-25T10:46:52.886Z</time></trkpt><trkpt lat="42.1588783" lon="14.5729083"><ele>189.20000000000002</ele><time>2026-04-25T10:46:53.886Z</time></trkpt><trkpt lat="42.1588283" lon="14.5730217"><ele>187.4</ele><time>2026-04-25T10:46:54.885Z</time></trkpt><trkpt lat="42.1587733" lon="14.5731367"><ele>185.6</ele><time>2026-04-25T10:46:55.886Z</time></trkpt><trkpt lat="42.15872" lon="14.5732533"><ele>183.8</ele><time>2026-04-25T10:46:56.886Z</time></trkpt><trkpt lat="42.158665" lon="14.573375"><ele>182.0</ele><time>2026-04-25T10:46:57.886Z</time></trkpt><trkpt lat="42.158615" lon="14.5734967"><ele>182.0</ele><time>2026-04-25T10:46:58.886Z</time></trkpt><trkpt lat="42.1585633" lon="14.573625"><ele>182.0</ele><time>2026-04-25T10:46:59.885Z</time></trkpt><trkpt lat="42.1585117" lon="14.5737517"><ele>182.0</ele><time>2026-04-25T10:47:00.886Z</time></trkpt><trkpt lat="42.158465" lon="14.573875"><ele>182.0</ele><time>2026-04-25T10:47:01.886Z</time></trkpt><trkpt lat="42.1584217" lon="14.5739983"><ele>182.0</ele><time>2026-04-25T10:47:02.885Z</time></trkpt><trkpt lat="42.1583867" lon="14.5741217"><ele>182.33333333333331</ele><time>2026-04-25T10:47:03.886Z</time></trkpt><trkpt lat="42.1583517" lon="14.574235"><ele>182.66666666666666</ele><time>2026-04-25T10:47:04.886Z</time></trkpt><trkpt lat="42.1583167" lon="14.574345"><ele>183.0</ele><time>2026-04-25T10:47:05.886Z</time></trkpt><trkpt lat="42.1582833" lon="14.57445"><ele>183.33333333333334</ele><time>2026-04-25T10:47:06.886Z</time></trkpt><trkpt lat="42.158255" lon="14.5745433"><ele>183.66666666666669</ele><time>2026-04-25T10:47:07.886Z</time></trkpt><trkpt lat="42.158225" lon="14.57463"><ele>184.0</ele><time>2026-04-25T10:47:08.886Z</time></trkpt><trkpt lat="42.1581817" lon="14.5747617"><ele>184.0</ele><time>2026-04-25T10:47:10.886Z</time></trkpt><trkpt lat="42.1581417" lon="14.5748717"><ele>184.0</ele><time>2026-04-25T10:47:12.885Z</time></trkpt><trkpt lat="42.15811" lon="14.5749583"><ele>184.0</ele><time>2026-04-25T10:47:14.886Z</time></trkpt><trkpt lat="42.1580767" lon="14.575045"><ele>184.0</ele><time>2026-04-25T10:47:16.885Z</time></trkpt><trkpt lat="42.15805" lon="14.5751383"><ele>184.0</ele><time>2026-04-25T10:47:18.886Z</time></trkpt><trkpt lat="42.158015" lon="14.5752267"><ele>184.0</ele><time>2026-04-25T10:47:20.886Z</time></trkpt><trkpt lat="42.1579867" lon="14.5753167"><ele>185.85714285714286</ele><time>2026-04-25T10:47:22.886Z</time></trkpt><trkpt lat="42.1579583" lon="14.5754033"><ele>187.7142857142857</ele><time>2026-04-25T10:47:24.885Z</time></trkpt><trkpt lat="42.1579267" lon="14.57549"><ele>189.57142857142856</ele><time>2026-04-25T10:47:26.886Z</time></trkpt><trkpt lat="42.1578983" lon="14.57557"><ele>191.42857142857144</ele><time>2026-04-25T10:47:28.885Z</time></trkpt><trkpt lat="42.1578733" lon="14.5756483"><ele>193.28571428571428</ele><time>2026-04-25T10:47:30.886Z</time></trkpt><trkpt lat="42.1578467" lon="14.5757317"><ele>195.14285714285714</ele><time>2026-04-25T10:47:32.886Z</time></trkpt><trkpt lat="42.1578183" lon="14.5758117"><ele>197.0</ele><time>2026-04-25T10:47:34.886Z</time></trkpt><trkpt lat="42.1577917" lon="14.575895"><ele>197.0</ele><time>2026-04-25T10:47:36.886Z</time></trkpt><trkpt lat="42.157765" lon="14.5759817"><ele>197.0</ele><time>2026-04-25T10:47:38.886Z</time></trkpt><trkpt lat="42.1577367" lon="14.5760617"><ele>197.0</ele><time>2026-04-25T10:47:40.886Z</time></trkpt><trkpt lat="42.1577033" lon="14.5761383"><ele>197.0</ele><time>2026-04-25T10:47:42.886Z</time></trkpt><trkpt lat="42.157635" lon="14.576225"><ele>197.0</ele><time>2026-04-25T10:47:45.885Z</time></trkpt><trkpt lat="42.1575817" lon="14.5762867"><ele>197.0</ele><time>2026-04-25T10:47:47.885Z</time></trkpt><trkpt lat="42.1575333" lon="14.5763567"><ele>197.0</ele><time>2026-04-25T10:47:49.886Z</time></trkpt><trkpt lat="42.157485" lon="14.576425"><ele>198.00000000000003</ele><time>2026-04-25T10:47:51.885Z</time></trkpt><trkpt lat="42.1574367" lon="14.5765017"><ele>199.0</ele><time>2026-04-25T10:47:53.886Z</time></trkpt><trkpt lat="42.15739" lon="14.5765917"><ele>200.0</ele><time>2026-04-25T10:47:55.885Z</time></trkpt><trkpt lat="42.15734" lon="14.5766733"><ele>201.0</ele><time>2026-04-25T10:47:57.886Z</time></trkpt><trkpt lat="42.157295" lon="14.5767483"><ele>202.00000000000003</ele><time>2026-04-25T10:47:59.886Z</time></trkpt><trkpt lat="42.157255" lon="14.57683"><ele>203.0</ele><time>2026-04-25T10:48:01.885Z</time></trkpt><trkpt lat="42.1572083" lon="14.5769167"><ele>203.50000000000003</ele><time>2026-04-25T10:48:03.886Z</time></trkpt><trkpt lat="42.1571633" lon="14.5769917"><ele>204.0</ele><time>2026-04-25T10:48:05.885Z</time></trkpt><trkpt lat="42.15711" lon="14.5770683"><ele>204.5</ele><time>2026-04-25T10:48:07.886Z</time></trkpt><trkpt lat="42.1570583" lon="14.5771367"><ele>205.0</ele><time>2026-04-25T10:48:09.886Z</time></trkpt><trkpt lat="42.15701" lon="14.5772183"><ele>205.50000000000003</ele><time>2026-04-25T10:48:11.886Z</time></trkpt><trkpt lat="42.1569583" lon="14.5773033"><ele>206.0</ele><time>2026-04-25T10:48:13.885Z</time></trkpt><trkpt lat="42.15691" lon="14.5773917"><ele>206.33333333333334</ele><time>2026-04-25T10:48:15.885Z</time></trkpt><trkpt lat="42.1568667" lon="14.5774767"><ele>206.66666666666669</ele><time>2026-04-25T10:48:17.884Z</time></trkpt><trkpt lat="42.1568133" lon="14.5775667"><ele>207.0</ele><time>2026-04-25T10:48:19.884Z</time></trkpt><trkpt lat="42.156765" lon="14.57766"><ele>207.33333333333331</ele><time>2026-04-25T10:48:21.884Z</time></trkpt><trkpt lat="42.15671" lon="14.5777583"><ele>207.66666666666666</ele><time>2026-04-25T10:48:23.885Z</time></trkpt><trkpt lat="42.1566533" lon="14.577865"><ele>208.0</ele><time>2026-04-25T10:48:25.885Z</time></trkpt><trkpt lat="42.15659" lon="14.5779667"><ele>208.8</ele><time>2026-04-25T10:48:27.884Z</time></trkpt><trkpt lat="42.1565267" lon="14.5780583"><ele>209.60000000000002</ele><time>2026-04-25T10:48:29.885Z</time></trkpt><trkpt lat="42.1564467" lon="14.5781383"><ele>210.39999999999998</ele><time>2026-04-25T10:48:31.885Z</time></trkpt><trkpt lat="42.156365" lon="14.5782183"><ele>211.2</ele><time>2026-04-25T10:48:33.885Z</time></trkpt><trkpt lat="42.15629" lon="14.5783083"><ele>212.0</ele><time>2026-04-25T10:48:35.885Z</time></trkpt><trkpt lat="42.15622" lon="14.5784117"><ele>212.0</ele><time>2026-04-25T10:48:37.885Z</time></trkpt><trkpt lat="42.1561483" lon="14.5785333"><ele>212.0</ele><time>2026-04-25T10:48:39.885Z</time></trkpt><trkpt lat="42.1560783" lon="14.5786533"><ele>212.0</ele><time>2026-04-25T10:48:41.884Z</time></trkpt><trkpt lat="42.15601" lon="14.5787717"><ele>212.0</ele><time>2026-04-25T10:48:43.885Z</time></trkpt><trkpt lat="42.1559467" lon="14.5789033"><ele>211.50000000000003</ele><time>2026-04-25T10:48:45.884Z</time></trkpt><trkpt lat="42.1558767" lon="14.5790333"><ele>211.0</ele><time>2026-04-25T10:48:47.885Z</time></trkpt><trkpt lat="42.15584" lon="14.57911"><ele>210.5</ele><time>2026-04-25T10:48:48.885Z</time></trkpt><trkpt lat="42.1558" lon="14.5791833"><ele>210.0</ele><time>2026-04-25T10:48:49.885Z</time></trkpt><trkpt lat="42.15576" lon="14.5792517"><ele>209.50000000000003</ele><time>2026-04-25T10:48:50.884Z</time></trkpt><trkpt lat="42.1557233" lon="14.5793233"><ele>209.0</ele><time>2026-04-25T10:48:51.885Z</time></trkpt><trkpt lat="42.1556833" lon="14.579395"><ele>209.00000000000003</ele><time>2026-04-25T10:48:52.884Z</time></trkpt><trkpt lat="42.15565" lon="14.57947"><ele>209.0</ele><time>2026-04-25T10:48:53.884Z</time></trkpt><trkpt lat="42.1556083" lon="14.57954"><ele>209.0</ele><time>2026-04-25T10:48:54.885Z</time></trkpt><trkpt lat="42.1555667" lon="14.5796067"><ele>209.0</ele><time>2026-04-25T10:48:55.885Z</time></trkpt><trkpt lat="42.1554867" lon="14.5797383"><ele>209.00000000000003</ele><time>2026-04-25T10:48:57.885Z</time></trkpt><trkpt lat="42.1554417" lon="14.5798033"><ele>209.0</ele><time>2026-04-25T10:48:58.884Z</time></trkpt><trkpt lat="42.1553933" lon="14.5798683"><ele>208.42857142857142</ele><time>2026-04-25T10:48:59.884Z</time></trkpt><trkpt lat="42.1553367" lon="14.5799267"><ele>207.85714285714283</ele><time>2026-04-25T10:49:00.884Z</time></trkpt><trkpt lat="42.1552767" lon="14.579985"><ele>207.28571428571428</ele><time>2026-04-25T10:49:01.885Z</time></trkpt><trkpt lat="42.1552233" lon="14.5800383"><ele>206.71428571428572</ele><time>2026-04-25T10:49:02.884Z</time></trkpt><trkpt lat="42.1551667" lon="14.58009"><ele>206.14285714285714</ele><time>2026-04-25T10:49:03.884Z</time></trkpt><trkpt lat="42.1551067" lon="14.5801333"><ele>205.57142857142858</ele><time>2026-04-25T10:49:04.885Z</time></trkpt><trkpt lat="42.155045" lon="14.580175"><ele>205.0</ele><time>2026-04-25T10:49:05.885Z</time></trkpt><trkpt lat="42.15498" lon="14.58022"><ele>205.0</ele><time>2026-04-25T10:49:06.884Z</time></trkpt><trkpt lat="42.15492" lon="14.58026"><ele>205.0</ele><time>2026-04-25T10:49:07.885Z</time></trkpt><trkpt lat="42.154855" lon="14.5802983"><ele>205.0</ele><time>2026-04-25T10:49:08.885Z</time></trkpt><trkpt lat="42.1547983" lon="14.5803367"><ele>205.0</ele><time>2026-04-25T10:49:09.885Z</time></trkpt><trkpt lat="42.15474" lon="14.58037"><ele>205.0</ele><time>2026-04-25T10:49:10.885Z</time></trkpt><trkpt lat="42.15468" lon="14.5804133"><ele>205.0</ele><time>2026-04-25T10:49:11.885Z</time></trkpt><trkpt lat="42.1546167" lon="14.5804583"><ele>205.0</ele><time>2026-04-25T10:49:12.884Z</time></trkpt><trkpt lat="42.1545617" lon="14.5805"><ele>204.83333333333331</ele><time>2026-04-25T10:49:13.885Z</time></trkpt><trkpt lat="42.154465" lon="14.5805283"><ele>204.66666666666666</ele><time>2026-04-25T10:49:15.885Z</time></trkpt><trkpt lat="42.1544067" lon="14.5804683"><ele>204.5</ele><time>2026-04-25T10:49:17.885Z</time></trkpt><trkpt lat="42.1543717" lon="14.5803667"><ele>204.33333333333331</ele><time>2026-04-25T10:49:19.885Z</time></trkpt><trkpt lat="42.1543233" lon="14.5802717"><ele>204.16666666666666</ele><time>2026-04-25T10:49:21.885Z</time></trkpt><trkpt lat="42.154265" lon="14.58018"><ele>204.0</ele><time>2026-04-25T10:49:23.885Z</time></trkpt><trkpt lat="42.1542267" lon="14.580085"><ele>204.83333333333334</ele><time>2026-04-25T10:49:25.884Z</time></trkpt><trkpt lat="42.1541817" lon="14.5799917"><ele>205.66666666666669</ele><time>2026-04-25T10:49:27.884Z</time></trkpt><trkpt lat="42.1541383" lon="14.5798933"><ele>206.5</ele><time>2026-04-25T10:49:29.885Z</time></trkpt><trkpt lat="42.154095" lon="14.57979"><ele>207.33333333333334</ele><time>2026-04-25T10:49:31.885Z</time></trkpt><trkpt lat="42.1540233" lon="14.579695"><ele>208.16666666666669</ele><time>2026-04-25T10:49:33.884Z</time></trkpt><trkpt lat="42.1539683" lon="14.5796067"><ele>209.0</ele><time>2026-04-25T10:49:35.884Z</time></trkpt><trkpt lat="42.15393" lon="14.579515"><ele>210.16666666666669</ele><time>2026-04-25T10:49:37.885Z</time></trkpt><trkpt lat="42.153895" lon="14.5794217"><ele>211.33333333333334</ele><time>2026-04-25T10:49:39.885Z</time></trkpt><trkpt lat="42.153835" lon="14.579325"><ele>212.5</ele><time>2026-04-25T10:49:41.885Z</time></trkpt><trkpt lat="42.1537767" lon="14.5792283"><ele>213.66666666666669</ele><time>2026-04-25T10:49:43.885Z</time></trkpt><trkpt lat="42.1537217" lon="14.5791367"><ele>214.83333333333334</ele><time>2026-04-25T10:49:45.885Z</time></trkpt><trkpt lat="42.1536617" lon="14.579035"><ele>216.0</ele><time>2026-04-25T10:49:47.885Z</time></trkpt><trkpt lat="42.153595" lon="14.578935"><ele>216.0</ele><time>2026-04-25T10:49:49.885Z</time></trkpt><trkpt lat="42.1535367" lon="14.5788483"><ele>216.0</ele><time>2026-04-25T10:49:51.884Z</time></trkpt><trkpt lat="42.1534883" lon="14.57876"><ele>216.0</ele><time>2026-04-25T10:49:53.884Z</time></trkpt><trkpt lat="42.1534333" lon="14.578665"><ele>216.0</ele><time>2026-04-25T10:49:55.885Z</time></trkpt><trkpt lat="42.1533867" lon="14.5785733"><ele>216.0</ele><time>2026-04-25T10:49:57.885Z</time></trkpt><trkpt lat="42.153345" lon="14.5784833"><ele>216.0</ele><time>2026-04-25T10:49:59.884Z</time></trkpt><trkpt lat="42.1532983" lon="14.578395"><ele>216.16666666666666</ele><time>2026-04-25T10:50:01.885Z</time></trkpt><trkpt lat="42.1532517" lon="14.57829"><ele>216.33333333333331</ele><time>2026-04-25T10:50:03.885Z</time></trkpt><trkpt lat="42.1532133" lon="14.5781833"><ele>216.5</ele><time>2026-04-25T10:50:05.884Z</time></trkpt><trkpt lat="42.1531733" lon="14.57808"><ele>216.66666666666666</ele><time>2026-04-25T10:50:07.884Z</time></trkpt><trkpt lat="42.15314" lon="14.5779667"><ele>216.83333333333331</ele><time>2026-04-25T10:50:09.884Z</time></trkpt><trkpt lat="42.1531167" lon="14.5778617"><ele>217.0</ele><time>2026-04-25T10:50:11.885Z</time></trkpt><trkpt lat="42.1530867" lon="14.577745"><ele>217.6</ele><time>2026-04-25T10:50:13.884Z</time></trkpt><trkpt lat="42.1530533" lon="14.5776233"><ele>218.2</ele><time>2026-04-25T10:50:15.884Z</time></trkpt><trkpt lat="42.1530217" lon="14.5775"><ele>218.8</ele><time>2026-04-25T10:50:17.885Z</time></trkpt><trkpt lat="42.1529883" lon="14.57738"><ele>219.4</ele><time>2026-04-25T10:50:19.885Z</time></trkpt><trkpt lat="42.1529533" lon="14.5772567"><ele>220.0</ele><time>2026-04-25T10:50:21.885Z</time></trkpt><trkpt lat="42.1529183" lon="14.57712"><ele>220.6</ele><time>2026-04-25T10:50:23.884Z</time></trkpt><trkpt lat="42.15288" lon="14.5769933"><ele>221.2</ele><time>2026-04-25T10:50:25.885Z</time></trkpt><trkpt lat="42.1528383" lon="14.576865"><ele>221.8</ele><time>2026-04-25T10:50:27.885Z</time></trkpt><trkpt lat="42.15279" lon="14.57674"><ele>222.4</ele><time>2026-04-25T10:50:29.884Z</time></trkpt><trkpt lat="42.1527533" lon="14.5766233"><ele>223.0</ele><time>2026-04-25T10:50:31.885Z</time></trkpt><trkpt lat="42.1527233" lon="14.57649"><ele>223.0</ele><time>2026-04-25T10:50:33.885Z</time></trkpt><trkpt lat="42.1526817" lon="14.5763517"><ele>223.0</ele><time>2026-04-25T10:50:35.885Z</time></trkpt><trkpt lat="42.1526283" lon="14.5762217"><ele>223.0</ele><time>2026-04-25T10:50:37.884Z</time></trkpt><trkpt lat="42.1525617" lon="14.5760983"><ele>223.0</ele><time>2026-04-25T10:50:39.885Z</time></trkpt><trkpt lat="42.1524967" lon="14.5759667"><ele>223.2</ele><time>2026-04-25T10:50:41.885Z</time></trkpt><trkpt lat="42.152435" lon="14.5758367"><ele>223.4</ele><time>2026-04-25T10:50:43.885Z</time></trkpt><trkpt lat="42.1523733" lon="14.575715"><ele>223.59999999999997</ele><time>2026-04-25T10:50:45.885Z</time></trkpt><trkpt lat="42.1523167" lon="14.57559"><ele>223.79999999999998</ele><time>2026-04-25T10:50:47.884Z</time></trkpt><trkpt lat="42.1522633" lon="14.5754633"><ele>224.0</ele><time>2026-04-25T10:50:49.885Z</time></trkpt><trkpt lat="42.1522183" lon="14.5753433"><ele>224.66666666666669</ele><time>2026-04-25T10:50:51.884Z</time></trkpt><trkpt lat="42.1521717" lon="14.575235"><ele>225.33333333333334</ele><time>2026-04-25T10:50:53.885Z</time></trkpt><trkpt lat="42.1521233" lon="14.5751333"><ele>226.0</ele><time>2026-04-25T10:50:55.885Z</time></trkpt><trkpt lat="42.1520617" lon="14.57506"><ele>226.66666666666669</ele><time>2026-04-25T10:50:57.885Z</time></trkpt><trkpt lat="42.1519967" lon="14.5750383"><ele>227.33333333333334</ele><time>2026-04-25T10:50:59.885Z</time></trkpt><trkpt lat="42.1519183" lon="14.57507"><ele>228.0</ele><time>2026-04-25T10:51:01.885Z</time></trkpt><trkpt lat="42.1518383" lon="14.5751567"><ele>228.0</ele><time>2026-04-25T10:51:03.884Z</time></trkpt><trkpt lat="42.15176" lon="14.5752717"><ele>228.0</ele><time>2026-04-25T10:51:05.885Z</time></trkpt><trkpt lat="42.15169" lon="14.5754083"><ele>228.0</ele><time>2026-04-25T10:51:07.885Z</time></trkpt><trkpt lat="42.1516583" lon="14.5754883"><ele>228.0</ele><time>2026-04-25T10:51:08.884Z</time></trkpt><trkpt lat="42.1516267" lon="14.5755667"><ele>228.0</ele><time>2026-04-25T10:51:09.885Z</time></trkpt><trkpt lat="42.1515917" lon="14.575655"><ele>228.0</ele><time>2026-04-25T10:51:10.885Z</time></trkpt><trkpt lat="42.1515383" lon="14.575735"><ele>227.7142857142857</ele><time>2026-04-25T10:51:11.884Z</time></trkpt><trkpt lat="42.1515" lon="14.5758217"><ele>227.4285714285714</ele><time>2026-04-25T10:51:12.885Z</time></trkpt><trkpt lat="42.1514667" lon="14.5759083"><ele>227.14285714285714</ele><time>2026-04-25T10:51:13.884Z</time></trkpt><trkpt lat="42.1514317" lon="14.5759867"><ele>226.85714285714283</ele><time>2026-04-25T10:51:14.885Z</time></trkpt><trkpt lat="42.15139" lon="14.5760583"><ele>226.57142857142856</ele><time>2026-04-25T10:51:15.885Z</time></trkpt><trkpt lat="42.1513517" lon="14.5761367"><ele>226.28571428571428</ele><time>2026-04-25T10:51:16.885Z</time></trkpt><trkpt lat="42.1513083" lon="14.5762183"><ele>226.0</ele><time>2026-04-25T10:51:17.885Z</time></trkpt><trkpt lat="42.151265" lon="14.5762933"><ele>225.33333333333331</ele><time>2026-04-25T10:51:18.885Z</time></trkpt><trkpt lat="42.151225" lon="14.5763667"><ele>224.66666666666666</ele><time>2026-04-25T10:51:19.885Z</time></trkpt><trkpt lat="42.15118" lon="14.576435"><ele>224.0</ele><time>2026-04-25T10:51:20.885Z</time></trkpt><trkpt lat="42.1511367" lon="14.5765083"><ele>223.33333333333331</ele><time>2026-04-25T10:51:21.885Z</time></trkpt><trkpt lat="42.1510633" lon="14.576645"><ele>222.66666666666666</ele><time>2026-04-25T10:51:23.884Z</time></trkpt><trkpt lat="42.1510283" lon="14.5767233"><ele>222.0</ele><time>2026-04-25T10:51:24.885Z</time></trkpt><trkpt lat="42.1509917" lon="14.5767967"><ele>222.0</ele><time>2026-04-25T10:51:25.885Z</time></trkpt><trkpt lat="42.1509583" lon="14.576875"><ele>222.0</ele><time>2026-04-25T10:51:26.884Z</time></trkpt><trkpt lat="42.1509233" lon="14.5769517"><ele>222.0</ele><time>2026-04-25T10:51:27.885Z</time></trkpt><trkpt lat="42.1508917" lon="14.5770383"><ele>222.0</ele><time>2026-04-25T10:51:28.885Z</time></trkpt><trkpt lat="42.1508617" lon="14.5771233"><ele>222.0</ele><time>2026-04-25T10:51:29.885Z</time></trkpt><trkpt lat="42.1508267" lon="14.5772033"><ele>222.0</ele><time>2026-04-25T10:51:30.884Z</time></trkpt><trkpt lat="42.1507967" lon="14.57729"><ele>222.0</ele><time>2026-04-25T10:51:31.884Z</time></trkpt><trkpt lat="42.1507717" lon="14.5773783"><ele>222.28571428571428</ele><time>2026-04-25T10:51:32.885Z</time></trkpt><trkpt lat="42.1507517" lon="14.5774633"><ele>222.57142857142858</ele><time>2026-04-25T10:51:33.885Z</time></trkpt><trkpt lat="42.1507283" lon="14.57755"><ele>222.85714285714286</ele><time>2026-04-25T10:51:34.885Z</time></trkpt><trkpt lat="42.150705" lon="14.577645"><ele>223.14285714285714</ele><time>2026-04-25T10:51:35.884Z</time></trkpt><trkpt lat="42.1506867" lon="14.577745"><ele>223.42857142857144</ele><time>2026-04-25T10:51:36.884Z</time></trkpt><trkpt lat="42.1506767" lon="14.5778367"><ele>223.71428571428572</ele><time>2026-04-25T10:51:37.885Z</time></trkpt><trkpt lat="42.1506583" lon="14.5779333"><ele>224.0</ele><time>2026-04-25T10:51:38.885Z</time></trkpt><trkpt lat="42.1506317" lon="14.5780333"><ele>223.28571428571428</ele><time>2026-04-25T10:51:39.885Z</time></trkpt><trkpt lat="42.1506083" lon="14.5781383"><ele>222.57142857142856</ele><time>2026-04-25T10:51:40.884Z</time></trkpt><trkpt lat="42.1505867" lon="14.5782367"><ele>221.85714285714286</ele><time>2026-04-25T10:51:41.884Z</time></trkpt><trkpt lat="42.1505617" lon="14.57833"><ele>221.14285714285714</ele><time>2026-04-25T10:51:42.884Z</time></trkpt><trkpt lat="42.1505433" lon="14.5784217"><ele>220.42857142857142</ele><time>2026-04-25T10:51:43.885Z</time></trkpt><trkpt lat="42.150525" lon="14.5785117"><ele>219.71428571428572</ele><time>2026-04-25T10:51:44.884Z</time></trkpt><trkpt lat="42.1504983" lon="14.5785917"><ele>219.0</ele><time>2026-04-25T10:51:45.885Z</time></trkpt><trkpt lat="42.1504717" lon="14.578675"><ele>218.39999999999998</ele><time>2026-04-25T10:51:46.884Z</time></trkpt><trkpt lat="42.15045" lon="14.5787567"><ele>217.79999999999998</ele><time>2026-04-25T10:51:47.884Z</time></trkpt><trkpt lat="42.150415" lon="14.578915"><ele>217.20000000000002</ele><time>2026-04-25T10:51:49.884Z</time></trkpt><trkpt lat="42.1503733" lon="14.5790733"><ele>216.60000000000002</ele><time>2026-04-25T10:51:51.884Z</time></trkpt><trkpt lat="42.1503467" lon="14.5791517"><ele>216.0</ele><time>2026-04-25T10:51:52.885Z</time></trkpt><trkpt lat="42.1502967" lon="14.579285"><ele>216.0</ele><time>2026-04-25T10:51:54.885Z</time></trkpt><trkpt lat="42.15026" lon="14.57939"><ele>216.00000000000003</ele><time>2026-04-25T10:51:56.885Z</time></trkpt><trkpt lat="42.1502167" lon="14.579485"><ele>216.00000000000003</ele><time>2026-04-25T10:51:58.885Z</time></trkpt><trkpt lat="42.150175" lon="14.5795867"><ele>216.0</ele><time>2026-04-25T10:52:00.885Z</time></trkpt><trkpt lat="42.1501233" lon="14.5796967"><ele>216.0</ele><time>2026-04-25T10:52:02.885Z</time></trkpt><trkpt lat="42.1501" lon="14.57983"><ele>215.60000000000002</ele><time>2026-04-25T10:52:04.885Z</time></trkpt><trkpt lat="42.150085" lon="14.5799783"><ele>215.20000000000002</ele><time>2026-04-25T10:52:06.884Z</time></trkpt><trkpt lat="42.1500833" lon="14.5801417"><ele>214.79999999999998</ele><time>2026-04-25T10:52:08.885Z</time></trkpt><trkpt lat="42.1500917" lon="14.5803083"><ele>214.39999999999998</ele><time>2026-04-25T10:52:10.885Z</time></trkpt><trkpt lat="42.1500883" lon="14.5803967"><ele>214.0</ele><time>2026-04-25T10:52:11.885Z</time></trkpt><trkpt lat="42.150085" lon="14.580485"><ele>213.83333333333331</ele><time>2026-04-25T10:52:12.884Z</time></trkpt><trkpt lat="42.1500817" lon="14.58057"><ele>213.66666666666666</ele><time>2026-04-25T10:52:13.885Z</time></trkpt><trkpt lat="42.1500783" lon="14.580655"><ele>213.5</ele><time>2026-04-25T10:52:14.884Z</time></trkpt><trkpt lat="42.1500733" lon="14.58082"><ele>213.33333333333331</ele><time>2026-04-25T10:52:16.885Z</time></trkpt><trkpt lat="42.1500767" lon="14.580905"><ele>213.16666666666666</ele><time>2026-04-25T10:52:17.884Z</time></trkpt><trkpt lat="42.150065" lon="14.5810483"><ele>213.0</ele><time>2026-04-25T10:52:19.884Z</time></trkpt><trkpt lat="42.1500683" lon="14.5812067"><ele>212.4</ele><time>2026-04-25T10:52:21.885Z</time></trkpt><trkpt lat="42.1500733" lon="14.5813483"><ele>211.8</ele><time>2026-04-25T10:52:23.884Z</time></trkpt><trkpt lat="42.1500767" lon="14.5814883"><ele>211.2</ele><time>2026-04-25T10:52:25.885Z</time></trkpt><trkpt lat="42.1500817" lon="14.581635"><ele>210.6</ele><time>2026-04-25T10:52:27.885Z</time></trkpt><trkpt lat="42.15009" lon="14.581795"><ele>210.0</ele><time>2026-04-25T10:52:29.885Z</time></trkpt><trkpt lat="42.15008" lon="14.5819433"><ele>210.0</ele><time>2026-04-25T10:52:31.884Z</time></trkpt><trkpt lat="42.1500633" lon="14.5820983"><ele>210.0</ele><time>2026-04-25T10:52:33.885Z</time></trkpt><trkpt lat="42.150045" lon="14.5822283"><ele>210.0</ele><time>2026-04-25T10:52:35.885Z</time></trkpt><trkpt lat="42.1500417" lon="14.58235"><ele>210.0</ele><time>2026-04-25T10:52:37.885Z</time></trkpt><trkpt lat="42.15003" lon="14.5824917"><ele>210.0</ele><time>2026-04-25T10:52:39.884Z</time></trkpt><trkpt lat="42.1500317" lon="14.5826133"><ele>210.0</ele><time>2026-04-25T10:52:41.885Z</time></trkpt><trkpt lat="42.1500217" lon="14.5827067"><ele>210.0</ele><time>2026-04-25T10:52:43.885Z</time></trkpt><trkpt lat="42.1500067" lon="14.5827917"><ele>210.0</ele><time>2026-04-25T10:52:45.884Z</time></trkpt><trkpt lat="42.1499883" lon="14.5828967"><ele>210.0</ele><time>2026-04-25T10:52:48.885Z</time></trkpt><trkpt lat="42.1499833" lon="14.5829867"><ele>210.0</ele><time>2026-04-25T10:52:50.884Z</time></trkpt><trkpt lat="42.1499833" lon="14.5831017"><ele>210.0</ele><time>2026-04-25T10:52:52.884Z</time></trkpt><trkpt lat="42.1499817" lon="14.5831883"><ele>210.0</ele><time>2026-04-25T10:52:53.885Z</time></trkpt><trkpt lat="42.1500133" lon="14.5833033"><ele>210.0</ele><time>2026-04-25T10:52:55.885Z</time></trkpt><trkpt lat="42.15004" lon="14.5833867"><ele>210.0</ele><time>2026-04-25T10:52:58.884Z</time></trkpt><trkpt lat="42.1500283" lon="14.5834733"><ele>210.0</ele><time>2026-04-25T10:53:02.885Z</time></trkpt><trkpt lat="42.1500583" lon="14.583565"><ele>210.0</ele><time>2026-04-25T10:53:04.885Z</time></trkpt><trkpt lat="42.1501317" lon="14.5836583"><ele>210.0</ele><time>2026-04-25T10:53:06.885Z</time></trkpt><trkpt lat="42.1502183" lon="14.5837433"><ele>210.0</ele><time>2026-04-25T10:53:08.885Z</time></trkpt><trkpt lat="42.1503" lon="14.5838117"><ele>210.0</ele><time>2026-04-25T10:53:10.885Z</time></trkpt><trkpt lat="42.1503783" lon="14.5838917"><ele>210.0</ele><time>2026-04-25T10:53:12.885Z</time></trkpt><trkpt lat="42.1504483" lon="14.583965"><ele>210.0</ele><time>2026-04-25T10:53:14.885Z</time></trkpt><trkpt lat="42.150465" lon="14.5840533"><ele>210.0</ele><time>2026-04-25T10:53:16.885Z</time></trkpt><trkpt lat="42.1504583" lon="14.5841433"><ele>210.0</ele><time>2026-04-25T10:53:18.885Z</time></trkpt><trkpt lat="42.15044" lon="14.5842417"><ele>210.0</ele><time>2026-04-25T10:53:21.885Z</time></trkpt><trkpt lat="42.1504917" lon="14.5843383"><ele>210.0</ele><time>2026-04-25T10:53:23.885Z</time></trkpt><trkpt lat="42.1505783" lon="14.5844467"><ele>210.0</ele><time>2026-04-25T10:53:25.885Z</time></trkpt><trkpt lat="42.1505633" lon="14.5845833"><ele>210.0</ele><time>2026-04-25T10:53:27.885Z</time></trkpt><trkpt lat="42.1505267" lon="14.58473"><ele>210.0</ele><time>2026-04-25T10:53:29.884Z</time></trkpt><trkpt lat="42.150495" lon="14.5848383"><ele>210.0</ele><time>2026-04-25T10:53:31.885Z</time></trkpt><trkpt lat="42.1504717" lon="14.5849183"><ele>209.16666666666666</ele><time>2026-04-25T10:53:33.884Z</time></trkpt><trkpt lat="42.1504117" lon="14.585"><ele>208.33333333333331</ele><time>2026-04-25T10:53:36.885Z</time></trkpt><trkpt lat="42.150325" lon="14.5850467"><ele>207.5</ele><time>2026-04-25T10:53:39.885Z</time></trkpt><trkpt lat="42.150265" lon="14.5851167"><ele>206.66666666666666</ele><time>2026-04-25T10:53:42.884Z</time></trkpt><trkpt lat="42.1501683" lon="14.5851367"><ele>205.83333333333331</ele><time>2026-04-25T10:53:45.885Z</time></trkpt><trkpt lat="42.1501067" lon="14.5851617"><ele>205.0</ele><time>2026-04-25T10:53:47.885Z</time></trkpt><trkpt lat="42.1500483" lon="14.585205"><ele>205.0</ele><time>2026-04-25T10:53:49.885Z</time></trkpt><trkpt lat="42.1499617" lon="14.5852567"><ele>205.0</ele><time>2026-04-25T10:54:15.885Z</time></trkpt><trkpt lat="42.1500017" lon="14.5851717"><ele>205.0</ele><time>2026-04-25T10:54:46.885Z</time></trkpt><trkpt lat="42.1500167" lon="14.5852717"><ele>205.0</ele><time>2026-04-25T10:55:52.386Z</time></trkpt><trkpt lat="42.1500567" lon="14.585345"><ele>205.0</ele><time>2026-04-25T10:55:53.386Z</time></trkpt><trkpt lat="42.150015" lon="14.5852567"><ele>205.0</ele><time>2026-04-25T10:55:56.886Z</time></trkpt></trkseg></trk></gpx>